<?xml version="1.0" encoding="UTF-8" standalone="no" ?>
<gpx xmlns="http://www.topografix.com/GPX/1/1" xmlns:xsi="http://www.w3.org/2001/XMLSchema-instance" xsi:schemaLocation="http://www.topografix.com/GPX/1/1 http://www.topografix.com/GPX/1/1/gpx.xsd" version="1.1" creator="VisuGPX - https://www.visugpx.com">
  <metadata>
    <name>4 fils Aymon 2022_09_05</name>
  </metadata>
  <trk>
    <name><![CDATA[4 fils Aymon 2022_09_05_1]]></name>
    <trkseg>
      <trkpt lat="49.75375" lon="4.82184">
        <ele>197</ele>
        <time>2022-09-05T05:55:07.000Z</time>
      </trkpt>
      <trkpt lat="49.75376" lon="4.82183">
        <ele>197</ele>
        <time>2022-09-05T05:55:08.000Z</time>
      </trkpt>
      <trkpt lat="49.75377" lon="4.82182">
        <ele>197</ele>
        <time>2022-09-05T05:55:09.000Z</time>
      </trkpt>
      <trkpt lat="49.7538" lon="4.82181">
        <ele>197</ele>
        <time>2022-09-05T05:55:10.000Z</time>
      </trkpt>
      <trkpt lat="49.75382" lon="4.8218">
        <ele>197</ele>
        <time>2022-09-05T05:55:11.000Z</time>
      </trkpt>
      <trkpt lat="49.75386" lon="4.82179">
        <ele>196</ele>
        <time>2022-09-05T05:55:12.000Z</time>
      </trkpt>
      <trkpt lat="49.75389" lon="4.8218">
        <ele>196</ele>
        <time>2022-09-05T05:55:13.000Z</time>
      </trkpt>
      <trkpt lat="49.75393" lon="4.82181">
        <ele>195</ele>
        <time>2022-09-05T05:55:14.000Z</time>
      </trkpt>
      <trkpt lat="49.75397" lon="4.82183">
        <ele>195</ele>
        <time>2022-09-05T05:55:15.000Z</time>
      </trkpt>
      <trkpt lat="49.75401" lon="4.82185">
        <ele>194</ele>
        <time>2022-09-05T05:55:16.000Z</time>
      </trkpt>
      <trkpt lat="49.75405" lon="4.82188">
        <ele>194</ele>
        <time>2022-09-05T05:55:17.000Z</time>
      </trkpt>
      <trkpt lat="49.7541" lon="4.8219">
        <ele>194</ele>
        <time>2022-09-05T05:55:18.000Z</time>
      </trkpt>
      <trkpt lat="49.75414" lon="4.82193">
        <ele>193</ele>
        <time>2022-09-05T05:55:19.000Z</time>
      </trkpt>
      <trkpt lat="49.75419" lon="4.82196">
        <ele>193</ele>
        <time>2022-09-05T05:55:20.000Z</time>
      </trkpt>
      <trkpt lat="49.75424" lon="4.82198">
        <ele>192</ele>
        <time>2022-09-05T05:55:21.000Z</time>
      </trkpt>
      <trkpt lat="49.75428" lon="4.82202">
        <ele>192</ele>
        <time>2022-09-05T05:55:22.000Z</time>
      </trkpt>
      <trkpt lat="49.75432" lon="4.82208">
        <ele>192</ele>
        <time>2022-09-05T05:55:23.000Z</time>
      </trkpt>
      <trkpt lat="49.75435" lon="4.82214">
        <ele>191</ele>
        <time>2022-09-05T05:55:24.000Z</time>
      </trkpt>
      <trkpt lat="49.75439" lon="4.82217">
        <ele>191</ele>
        <time>2022-09-05T05:55:25.000Z</time>
      </trkpt>
      <trkpt lat="49.75444" lon="4.82218">
        <ele>190</ele>
        <time>2022-09-05T05:55:26.000Z</time>
      </trkpt>
      <trkpt lat="49.7545" lon="4.82219">
        <ele>190</ele>
        <time>2022-09-05T05:55:27.000Z</time>
      </trkpt>
      <trkpt lat="49.75455" lon="4.82221">
        <ele>190</ele>
        <time>2022-09-05T05:55:28.000Z</time>
      </trkpt>
      <trkpt lat="49.75461" lon="4.82225">
        <ele>190</ele>
        <time>2022-09-05T05:55:29.000Z</time>
      </trkpt>
      <trkpt lat="49.75466" lon="4.82231">
        <ele>189</ele>
        <time>2022-09-05T05:55:30.000Z</time>
      </trkpt>
      <trkpt lat="49.7547" lon="4.82237">
        <ele>189</ele>
        <time>2022-09-05T05:55:31.000Z</time>
      </trkpt>
      <trkpt lat="49.75475" lon="4.82244">
        <ele>189</ele>
        <time>2022-09-05T05:55:32.000Z</time>
      </trkpt>
      <trkpt lat="49.7548" lon="4.8225">
        <ele>189</ele>
        <time>2022-09-05T05:55:33.000Z</time>
      </trkpt>
      <trkpt lat="49.75485" lon="4.82255">
        <ele>188</ele>
        <time>2022-09-05T05:55:34.000Z</time>
      </trkpt>
      <trkpt lat="49.7549" lon="4.8226">
        <ele>188</ele>
        <time>2022-09-05T05:55:35.000Z</time>
      </trkpt>
      <trkpt lat="49.75496" lon="4.82264">
        <ele>188</ele>
        <time>2022-09-05T05:55:36.000Z</time>
      </trkpt>
      <trkpt lat="49.75501" lon="4.82267">
        <ele>188</ele>
        <time>2022-09-05T05:55:37.000Z</time>
      </trkpt>
      <trkpt lat="49.75508" lon="4.82271">
        <ele>188</ele>
        <time>2022-09-05T05:55:38.000Z</time>
      </trkpt>
      <trkpt lat="49.75514" lon="4.82274">
        <ele>188</ele>
        <time>2022-09-05T05:55:39.000Z</time>
      </trkpt>
      <trkpt lat="49.7552" lon="4.82276">
        <ele>188</ele>
        <time>2022-09-05T05:55:40.000Z</time>
      </trkpt>
      <trkpt lat="49.75526" lon="4.82278">
        <ele>188</ele>
        <time>2022-09-05T05:55:41.000Z</time>
      </trkpt>
      <trkpt lat="49.75531" lon="4.8228">
        <ele>188</ele>
        <time>2022-09-05T05:55:42.000Z</time>
      </trkpt>
      <trkpt lat="49.75537" lon="4.8228">
        <ele>188</ele>
        <time>2022-09-05T05:55:43.000Z</time>
      </trkpt>
      <trkpt lat="49.75543" lon="4.8228">
        <ele>188</ele>
        <time>2022-09-05T05:55:44.000Z</time>
      </trkpt>
      <trkpt lat="49.75548" lon="4.82279">
        <ele>187</ele>
        <time>2022-09-05T05:55:45.000Z</time>
      </trkpt>
      <trkpt lat="49.75553" lon="4.82277">
        <ele>187</ele>
        <time>2022-09-05T05:55:46.000Z</time>
      </trkpt>
      <trkpt lat="49.75556" lon="4.82275">
        <ele>187</ele>
        <time>2022-09-05T05:55:47.000Z</time>
      </trkpt>
      <trkpt lat="49.75558" lon="4.8227">
        <ele>187</ele>
        <time>2022-09-05T05:55:48.000Z</time>
      </trkpt>
      <trkpt lat="49.75557" lon="4.82264">
        <ele>187</ele>
        <time>2022-09-05T05:55:49.000Z</time>
      </trkpt>
      <trkpt lat="49.75553" lon="4.82257">
        <ele>187</ele>
        <time>2022-09-05T05:55:50.000Z</time>
      </trkpt>
      <trkpt lat="49.75549" lon="4.8225">
        <ele>187</ele>
        <time>2022-09-05T05:55:51.000Z</time>
      </trkpt>
      <trkpt lat="49.75545" lon="4.82243">
        <ele>187</ele>
        <time>2022-09-05T05:55:52.000Z</time>
      </trkpt>
      <trkpt lat="49.75542" lon="4.82236">
        <ele>187</ele>
        <time>2022-09-05T05:55:53.000Z</time>
      </trkpt>
      <trkpt lat="49.75538" lon="4.8223">
        <ele>187</ele>
        <time>2022-09-05T05:55:54.000Z</time>
      </trkpt>
      <trkpt lat="49.75534" lon="4.82223">
        <ele>187</ele>
        <time>2022-09-05T05:55:55.000Z</time>
      </trkpt>
      <trkpt lat="49.7553" lon="4.82216">
        <ele>187</ele>
        <time>2022-09-05T05:55:56.000Z</time>
      </trkpt>
      <trkpt lat="49.75527" lon="4.82208">
        <ele>187</ele>
        <time>2022-09-05T05:55:57.000Z</time>
      </trkpt>
      <trkpt lat="49.75523" lon="4.82201">
        <ele>187</ele>
        <time>2022-09-05T05:55:58.000Z</time>
      </trkpt>
      <trkpt lat="49.7552" lon="4.82194">
        <ele>187</ele>
        <time>2022-09-05T05:55:59.000Z</time>
      </trkpt>
      <trkpt lat="49.75516" lon="4.82187">
        <ele>187</ele>
        <time>2022-09-05T05:56:00.000Z</time>
      </trkpt>
      <trkpt lat="49.75512" lon="4.8218">
        <ele>187</ele>
        <time>2022-09-05T05:56:01.000Z</time>
      </trkpt>
      <trkpt lat="49.75508" lon="4.82173">
        <ele>187</ele>
        <time>2022-09-05T05:56:02.000Z</time>
      </trkpt>
      <trkpt lat="49.75504" lon="4.82167">
        <ele>188</ele>
        <time>2022-09-05T05:56:03.000Z</time>
      </trkpt>
      <trkpt lat="49.755" lon="4.8216">
        <ele>188</ele>
        <time>2022-09-05T05:56:04.000Z</time>
      </trkpt>
      <trkpt lat="49.75496" lon="4.82154">
        <ele>188</ele>
        <time>2022-09-05T05:56:05.000Z</time>
      </trkpt>
      <trkpt lat="49.75492" lon="4.82148">
        <ele>188</ele>
        <time>2022-09-05T05:56:06.000Z</time>
      </trkpt>
      <trkpt lat="49.75488" lon="4.82142">
        <ele>188</ele>
        <time>2022-09-05T05:56:07.000Z</time>
      </trkpt>
      <trkpt lat="49.75484" lon="4.82137">
        <ele>188</ele>
        <time>2022-09-05T05:56:08.000Z</time>
      </trkpt>
      <trkpt lat="49.7548" lon="4.82131">
        <ele>188</ele>
        <time>2022-09-05T05:56:09.000Z</time>
      </trkpt>
      <trkpt lat="49.75476" lon="4.82126">
        <ele>188</ele>
        <time>2022-09-05T05:56:10.000Z</time>
      </trkpt>
      <trkpt lat="49.75472" lon="4.8212">
        <ele>188</ele>
        <time>2022-09-05T05:56:11.000Z</time>
      </trkpt>
      <trkpt lat="49.75469" lon="4.82115">
        <ele>188</ele>
        <time>2022-09-05T05:56:12.000Z</time>
      </trkpt>
      <trkpt lat="49.75465" lon="4.8211">
        <ele>189</ele>
        <time>2022-09-05T05:56:13.000Z</time>
      </trkpt>
      <trkpt lat="49.75461" lon="4.82106">
        <ele>189</ele>
        <time>2022-09-05T05:56:14.000Z</time>
      </trkpt>
      <trkpt lat="49.75457" lon="4.82102">
        <ele>189</ele>
        <time>2022-09-05T05:56:15.000Z</time>
      </trkpt>
      <trkpt lat="49.75453" lon="4.82098">
        <ele>189</ele>
        <time>2022-09-05T05:56:16.000Z</time>
      </trkpt>
      <trkpt lat="49.75448" lon="4.82094">
        <ele>189</ele>
        <time>2022-09-05T05:56:17.000Z</time>
      </trkpt>
      <trkpt lat="49.75444" lon="4.8209">
        <ele>189</ele>
        <time>2022-09-05T05:56:18.000Z</time>
      </trkpt>
      <trkpt lat="49.7544" lon="4.82085">
        <ele>189</ele>
        <time>2022-09-05T05:56:19.000Z</time>
      </trkpt>
      <trkpt lat="49.75436" lon="4.82081">
        <ele>189</ele>
        <time>2022-09-05T05:56:20.000Z</time>
      </trkpt>
      <trkpt lat="49.75431" lon="4.82076">
        <ele>189</ele>
        <time>2022-09-05T05:56:21.000Z</time>
      </trkpt>
      <trkpt lat="49.75427" lon="4.82072">
        <ele>189</ele>
        <time>2022-09-05T05:56:22.000Z</time>
      </trkpt>
      <trkpt lat="49.75423" lon="4.82068">
        <ele>189</ele>
        <time>2022-09-05T05:56:23.000Z</time>
      </trkpt>
      <trkpt lat="49.75419" lon="4.82063">
        <ele>189</ele>
        <time>2022-09-05T05:56:24.000Z</time>
      </trkpt>
      <trkpt lat="49.75415" lon="4.82059">
        <ele>189</ele>
        <time>2022-09-05T05:56:25.000Z</time>
      </trkpt>
      <trkpt lat="49.75411" lon="4.82055">
        <ele>190</ele>
        <time>2022-09-05T05:56:26.000Z</time>
      </trkpt>
      <trkpt lat="49.75406" lon="4.82051">
        <ele>190</ele>
        <time>2022-09-05T05:56:27.000Z</time>
      </trkpt>
      <trkpt lat="49.75402" lon="4.82047">
        <ele>190</ele>
        <time>2022-09-05T05:56:28.000Z</time>
      </trkpt>
      <trkpt lat="49.75398" lon="4.82044">
        <ele>190</ele>
        <time>2022-09-05T05:56:29.000Z</time>
      </trkpt>
      <trkpt lat="49.75393" lon="4.8204">
        <ele>190</ele>
        <time>2022-09-05T05:56:30.000Z</time>
      </trkpt>
      <trkpt lat="49.75389" lon="4.82037">
        <ele>190</ele>
        <time>2022-09-05T05:56:31.000Z</time>
      </trkpt>
      <trkpt lat="49.75384" lon="4.82034">
        <ele>190</ele>
        <time>2022-09-05T05:56:32.000Z</time>
      </trkpt>
      <trkpt lat="49.7538" lon="4.82031">
        <ele>190</ele>
        <time>2022-09-05T05:56:33.000Z</time>
      </trkpt>
      <trkpt lat="49.75375" lon="4.82028">
        <ele>190</ele>
        <time>2022-09-05T05:56:34.000Z</time>
      </trkpt>
      <trkpt lat="49.75371" lon="4.82025">
        <ele>190</ele>
        <time>2022-09-05T05:56:35.000Z</time>
      </trkpt>
      <trkpt lat="49.75366" lon="4.82023">
        <ele>190</ele>
        <time>2022-09-05T05:56:36.000Z</time>
      </trkpt>
      <trkpt lat="49.75362" lon="4.8202">
        <ele>190</ele>
        <time>2022-09-05T05:56:37.000Z</time>
      </trkpt>
      <trkpt lat="49.75358" lon="4.82018">
        <ele>190</ele>
        <time>2022-09-05T05:56:38.000Z</time>
      </trkpt>
      <trkpt lat="49.75353" lon="4.82016">
        <ele>190</ele>
        <time>2022-09-05T05:56:39.000Z</time>
      </trkpt>
      <trkpt lat="49.75349" lon="4.82013">
        <ele>190</ele>
        <time>2022-09-05T05:56:40.000Z</time>
      </trkpt>
      <trkpt lat="49.75345" lon="4.8201">
        <ele>190</ele>
        <time>2022-09-05T05:56:41.000Z</time>
      </trkpt>
      <trkpt lat="49.75341" lon="4.82008">
        <ele>190</ele>
        <time>2022-09-05T05:56:42.000Z</time>
      </trkpt>
      <trkpt lat="49.75337" lon="4.82006">
        <ele>190</ele>
        <time>2022-09-05T05:56:43.000Z</time>
      </trkpt>
      <trkpt lat="49.75333" lon="4.82003">
        <ele>190</ele>
        <time>2022-09-05T05:56:44.000Z</time>
      </trkpt>
      <trkpt lat="49.75329" lon="4.82">
        <ele>190</ele>
        <time>2022-09-05T05:56:45.000Z</time>
      </trkpt>
      <trkpt lat="49.75325" lon="4.81998">
        <ele>191</ele>
        <time>2022-09-05T05:56:46.000Z</time>
      </trkpt>
      <trkpt lat="49.75321" lon="4.81995">
        <ele>191</ele>
        <time>2022-09-05T05:56:47.000Z</time>
      </trkpt>
      <trkpt lat="49.75317" lon="4.81992">
        <ele>191</ele>
        <time>2022-09-05T05:56:48.000Z</time>
      </trkpt>
      <trkpt lat="49.75313" lon="4.81989">
        <ele>191</ele>
        <time>2022-09-05T05:56:49.000Z</time>
      </trkpt>
      <trkpt lat="49.7531" lon="4.81987">
        <ele>191</ele>
        <time>2022-09-05T05:56:50.000Z</time>
      </trkpt>
      <trkpt lat="49.75306" lon="4.81984">
        <ele>191</ele>
        <time>2022-09-05T05:56:51.000Z</time>
      </trkpt>
      <trkpt lat="49.75303" lon="4.81982">
        <ele>191</ele>
        <time>2022-09-05T05:56:52.000Z</time>
      </trkpt>
      <trkpt lat="49.75299" lon="4.81979">
        <ele>191</ele>
        <time>2022-09-05T05:56:53.000Z</time>
      </trkpt>
      <trkpt lat="49.75295" lon="4.81977">
        <ele>191</ele>
        <time>2022-09-05T05:56:54.000Z</time>
      </trkpt>
      <trkpt lat="49.75292" lon="4.81974">
        <ele>191</ele>
        <time>2022-09-05T05:56:55.000Z</time>
      </trkpt>
      <trkpt lat="49.75288" lon="4.81971">
        <ele>191</ele>
        <time>2022-09-05T05:56:56.000Z</time>
      </trkpt>
      <trkpt lat="49.75285" lon="4.81968">
        <ele>192</ele>
        <time>2022-09-05T05:56:57.000Z</time>
      </trkpt>
      <trkpt lat="49.75281" lon="4.81965">
        <ele>192</ele>
        <time>2022-09-05T05:56:58.000Z</time>
      </trkpt>
      <trkpt lat="49.75278" lon="4.81962">
        <ele>192</ele>
        <time>2022-09-05T05:56:59.000Z</time>
      </trkpt>
      <trkpt lat="49.75274" lon="4.81959">
        <ele>192</ele>
        <time>2022-09-05T05:57:00.000Z</time>
      </trkpt>
      <trkpt lat="49.75271" lon="4.81956">
        <ele>192</ele>
        <time>2022-09-05T05:57:01.000Z</time>
      </trkpt>
      <trkpt lat="49.75268" lon="4.81953">
        <ele>192</ele>
        <time>2022-09-05T05:57:02.000Z</time>
      </trkpt>
      <trkpt lat="49.75264" lon="4.8195">
        <ele>193</ele>
        <time>2022-09-05T05:57:03.000Z</time>
      </trkpt>
      <trkpt lat="49.75261" lon="4.81947">
        <ele>193</ele>
        <time>2022-09-05T05:57:04.000Z</time>
      </trkpt>
      <trkpt lat="49.75258" lon="4.81944">
        <ele>193</ele>
        <time>2022-09-05T05:57:05.000Z</time>
      </trkpt>
      <trkpt lat="49.75256" lon="4.8194">
        <ele>193</ele>
        <time>2022-09-05T05:57:06.000Z</time>
      </trkpt>
      <trkpt lat="49.75253" lon="4.81936">
        <ele>193</ele>
        <time>2022-09-05T05:57:07.000Z</time>
      </trkpt>
      <trkpt lat="49.75251" lon="4.81931">
        <ele>193</ele>
        <time>2022-09-05T05:57:08.000Z</time>
      </trkpt>
      <trkpt lat="49.75248" lon="4.81926">
        <ele>193</ele>
        <time>2022-09-05T05:57:09.000Z</time>
      </trkpt>
      <trkpt lat="49.75245" lon="4.81922">
        <ele>194</ele>
        <time>2022-09-05T05:57:10.000Z</time>
      </trkpt>
      <trkpt lat="49.75242" lon="4.81917">
        <ele>194</ele>
        <time>2022-09-05T05:57:11.000Z</time>
      </trkpt>
      <trkpt lat="49.75239" lon="4.81914">
        <ele>194</ele>
        <time>2022-09-05T05:57:12.000Z</time>
      </trkpt>
      <trkpt lat="49.75235" lon="4.8191">
        <ele>194</ele>
        <time>2022-09-05T05:57:13.000Z</time>
      </trkpt>
      <trkpt lat="49.75232" lon="4.81906">
        <ele>194</ele>
        <time>2022-09-05T05:57:14.000Z</time>
      </trkpt>
      <trkpt lat="49.75228" lon="4.81902">
        <ele>195</ele>
        <time>2022-09-05T05:57:15.000Z</time>
      </trkpt>
      <trkpt lat="49.75224" lon="4.81897">
        <ele>195</ele>
        <time>2022-09-05T05:57:16.000Z</time>
      </trkpt>
      <trkpt lat="49.75221" lon="4.81893">
        <ele>195</ele>
        <time>2022-09-05T05:57:17.000Z</time>
      </trkpt>
      <trkpt lat="49.75217" lon="4.81888">
        <ele>195</ele>
        <time>2022-09-05T05:57:18.000Z</time>
      </trkpt>
      <trkpt lat="49.75214" lon="4.81884">
        <ele>195</ele>
        <time>2022-09-05T05:57:19.000Z</time>
      </trkpt>
      <trkpt lat="49.75211" lon="4.81879">
        <ele>195</ele>
        <time>2022-09-05T05:57:20.000Z</time>
      </trkpt>
      <trkpt lat="49.75207" lon="4.81875">
        <ele>195</ele>
        <time>2022-09-05T05:57:21.000Z</time>
      </trkpt>
      <trkpt lat="49.75204" lon="4.81871">
        <ele>196</ele>
        <time>2022-09-05T05:57:22.000Z</time>
      </trkpt>
      <trkpt lat="49.752" lon="4.81866">
        <ele>196</ele>
        <time>2022-09-05T05:57:23.000Z</time>
      </trkpt>
      <trkpt lat="49.75197" lon="4.81862">
        <ele>196</ele>
        <time>2022-09-05T05:57:24.000Z</time>
      </trkpt>
      <trkpt lat="49.75194" lon="4.81857">
        <ele>196</ele>
        <time>2022-09-05T05:57:25.000Z</time>
      </trkpt>
      <trkpt lat="49.75191" lon="4.81852">
        <ele>196</ele>
        <time>2022-09-05T05:57:26.000Z</time>
      </trkpt>
      <trkpt lat="49.75188" lon="4.81848">
        <ele>196</ele>
        <time>2022-09-05T05:57:27.000Z</time>
      </trkpt>
      <trkpt lat="49.75186" lon="4.81843">
        <ele>196</ele>
        <time>2022-09-05T05:57:28.000Z</time>
      </trkpt>
      <trkpt lat="49.75183" lon="4.81838">
        <ele>196</ele>
        <time>2022-09-05T05:57:29.000Z</time>
      </trkpt>
      <trkpt lat="49.7518" lon="4.81833">
        <ele>196</ele>
        <time>2022-09-05T05:57:30.000Z</time>
      </trkpt>
      <trkpt lat="49.75177" lon="4.81828">
        <ele>197</ele>
        <time>2022-09-05T05:57:31.000Z</time>
      </trkpt>
      <trkpt lat="49.75175" lon="4.81823">
        <ele>197</ele>
        <time>2022-09-05T05:57:32.000Z</time>
      </trkpt>
      <trkpt lat="49.75172" lon="4.81818">
        <ele>197</ele>
        <time>2022-09-05T05:57:33.000Z</time>
      </trkpt>
      <trkpt lat="49.75169" lon="4.81814">
        <ele>197</ele>
        <time>2022-09-05T05:57:34.000Z</time>
      </trkpt>
      <trkpt lat="49.75166" lon="4.81809">
        <ele>197</ele>
        <time>2022-09-05T05:57:35.000Z</time>
      </trkpt>
      <trkpt lat="49.75163" lon="4.81804">
        <ele>197</ele>
        <time>2022-09-05T05:57:36.000Z</time>
      </trkpt>
      <trkpt lat="49.7516" lon="4.818">
        <ele>197</ele>
        <time>2022-09-05T05:57:37.000Z</time>
      </trkpt>
      <trkpt lat="49.75157" lon="4.81795">
        <ele>197</ele>
        <time>2022-09-05T05:57:38.000Z</time>
      </trkpt>
      <trkpt lat="49.75154" lon="4.8179">
        <ele>197</ele>
        <time>2022-09-05T05:57:39.000Z</time>
      </trkpt>
      <trkpt lat="49.75151" lon="4.81785">
        <ele>197</ele>
        <time>2022-09-05T05:57:40.000Z</time>
      </trkpt>
      <trkpt lat="49.75148" lon="4.81779">
        <ele>197</ele>
        <time>2022-09-05T05:57:41.000Z</time>
      </trkpt>
      <trkpt lat="49.75145" lon="4.81774">
        <ele>197</ele>
        <time>2022-09-05T05:57:42.000Z</time>
      </trkpt>
      <trkpt lat="49.75142" lon="4.81768">
        <ele>197</ele>
        <time>2022-09-05T05:57:43.000Z</time>
      </trkpt>
      <trkpt lat="49.7514" lon="4.81763">
        <ele>197</ele>
        <time>2022-09-05T05:57:44.000Z</time>
      </trkpt>
      <trkpt lat="49.75137" lon="4.81757">
        <ele>197</ele>
        <time>2022-09-05T05:57:45.000Z</time>
      </trkpt>
      <trkpt lat="49.75136" lon="4.8175">
        <ele>197</ele>
        <time>2022-09-05T05:57:46.000Z</time>
      </trkpt>
      <trkpt lat="49.75134" lon="4.81744">
        <ele>197</ele>
        <time>2022-09-05T05:57:47.000Z</time>
      </trkpt>
      <trkpt lat="49.75131" lon="4.81737">
        <ele>198</ele>
        <time>2022-09-05T05:57:48.000Z</time>
      </trkpt>
      <trkpt lat="49.75129" lon="4.8173">
        <ele>198</ele>
        <time>2022-09-05T05:57:49.000Z</time>
      </trkpt>
      <trkpt lat="49.75127" lon="4.81724">
        <ele>198</ele>
        <time>2022-09-05T05:57:50.000Z</time>
      </trkpt>
      <trkpt lat="49.75124" lon="4.81717">
        <ele>198</ele>
        <time>2022-09-05T05:57:51.000Z</time>
      </trkpt>
      <trkpt lat="49.75122" lon="4.81711">
        <ele>198</ele>
        <time>2022-09-05T05:57:52.000Z</time>
      </trkpt>
      <trkpt lat="49.7512" lon="4.81704">
        <ele>199</ele>
        <time>2022-09-05T05:57:53.000Z</time>
      </trkpt>
      <trkpt lat="49.75118" lon="4.81697">
        <ele>199</ele>
        <time>2022-09-05T05:57:54.000Z</time>
      </trkpt>
      <trkpt lat="49.75116" lon="4.81691">
        <ele>199</ele>
        <time>2022-09-05T05:57:55.000Z</time>
      </trkpt>
      <trkpt lat="49.75115" lon="4.81683">
        <ele>199</ele>
        <time>2022-09-05T05:57:56.000Z</time>
      </trkpt>
      <trkpt lat="49.75114" lon="4.81676">
        <ele>199</ele>
        <time>2022-09-05T05:57:57.000Z</time>
      </trkpt>
      <trkpt lat="49.75113" lon="4.81669">
        <ele>199</ele>
        <time>2022-09-05T05:57:58.000Z</time>
      </trkpt>
      <trkpt lat="49.75113" lon="4.81661">
        <ele>199</ele>
        <time>2022-09-05T05:57:59.000Z</time>
      </trkpt>
      <trkpt lat="49.75112" lon="4.81653">
        <ele>200</ele>
        <time>2022-09-05T05:58:00.000Z</time>
      </trkpt>
      <trkpt lat="49.75112" lon="4.81645">
        <ele>200</ele>
        <time>2022-09-05T05:58:01.000Z</time>
      </trkpt>
      <trkpt lat="49.75112" lon="4.81637">
        <ele>200</ele>
        <time>2022-09-05T05:58:02.000Z</time>
      </trkpt>
      <trkpt lat="49.75111" lon="4.81629">
        <ele>200</ele>
        <time>2022-09-05T05:58:03.000Z</time>
      </trkpt>
      <trkpt lat="49.75111" lon="4.81621">
        <ele>200</ele>
        <time>2022-09-05T05:58:04.000Z</time>
      </trkpt>
      <trkpt lat="49.75111" lon="4.81613">
        <ele>200</ele>
        <time>2022-09-05T05:58:05.000Z</time>
      </trkpt>
      <trkpt lat="49.75111" lon="4.81605">
        <ele>200</ele>
        <time>2022-09-05T05:58:06.000Z</time>
      </trkpt>
      <trkpt lat="49.75111" lon="4.81598">
        <ele>200</ele>
        <time>2022-09-05T05:58:07.000Z</time>
      </trkpt>
      <trkpt lat="49.75111" lon="4.8159">
        <ele>200</ele>
        <time>2022-09-05T05:58:08.000Z</time>
      </trkpt>
      <trkpt lat="49.75112" lon="4.81583">
        <ele>201</ele>
        <time>2022-09-05T05:58:09.000Z</time>
      </trkpt>
      <trkpt lat="49.75112" lon="4.81575">
        <ele>201</ele>
        <time>2022-09-05T05:58:10.000Z</time>
      </trkpt>
      <trkpt lat="49.75113" lon="4.81567">
        <ele>201</ele>
        <time>2022-09-05T05:58:11.000Z</time>
      </trkpt>
      <trkpt lat="49.75114" lon="4.8156">
        <ele>201</ele>
        <time>2022-09-05T05:58:12.000Z</time>
      </trkpt>
      <trkpt lat="49.75115" lon="4.81552">
        <ele>201</ele>
        <time>2022-09-05T05:58:13.000Z</time>
      </trkpt>
      <trkpt lat="49.75116" lon="4.81544">
        <ele>201</ele>
        <time>2022-09-05T05:58:14.000Z</time>
      </trkpt>
      <trkpt lat="49.75117" lon="4.81536">
        <ele>201</ele>
        <time>2022-09-05T05:58:15.000Z</time>
      </trkpt>
      <trkpt lat="49.75118" lon="4.81529">
        <ele>201</ele>
        <time>2022-09-05T05:58:16.000Z</time>
      </trkpt>
      <trkpt lat="49.7512" lon="4.81522">
        <ele>201</ele>
        <time>2022-09-05T05:58:17.000Z</time>
      </trkpt>
      <trkpt lat="49.75121" lon="4.81515">
        <ele>201</ele>
        <time>2022-09-05T05:58:18.000Z</time>
      </trkpt>
      <trkpt lat="49.75122" lon="4.81508">
        <ele>201</ele>
        <time>2022-09-05T05:58:19.000Z</time>
      </trkpt>
      <trkpt lat="49.75123" lon="4.81501">
        <ele>201</ele>
        <time>2022-09-05T05:58:20.000Z</time>
      </trkpt>
      <trkpt lat="49.75125" lon="4.81494">
        <ele>201</ele>
        <time>2022-09-05T05:58:21.000Z</time>
      </trkpt>
      <trkpt lat="49.75127" lon="4.81487">
        <ele>201</ele>
        <time>2022-09-05T05:58:22.000Z</time>
      </trkpt>
      <trkpt lat="49.75129" lon="4.8148">
        <ele>201</ele>
        <time>2022-09-05T05:58:23.000Z</time>
      </trkpt>
      <trkpt lat="49.75131" lon="4.81474">
        <ele>202</ele>
        <time>2022-09-05T05:58:24.000Z</time>
      </trkpt>
      <trkpt lat="49.75132" lon="4.81467">
        <ele>202</ele>
        <time>2022-09-05T05:58:25.000Z</time>
      </trkpt>
      <trkpt lat="49.75134" lon="4.81461">
        <ele>202</ele>
        <time>2022-09-05T05:58:26.000Z</time>
      </trkpt>
      <trkpt lat="49.75135" lon="4.81455">
        <ele>202</ele>
        <time>2022-09-05T05:58:27.000Z</time>
      </trkpt>
      <trkpt lat="49.75136" lon="4.81449">
        <ele>202</ele>
        <time>2022-09-05T05:58:28.000Z</time>
      </trkpt>
      <trkpt lat="49.75137" lon="4.81444">
        <ele>202</ele>
        <time>2022-09-05T05:58:29.000Z</time>
      </trkpt>
      <trkpt lat="49.75138" lon="4.81439">
        <ele>202</ele>
        <time>2022-09-05T05:58:30.000Z</time>
      </trkpt>
      <trkpt lat="49.75139" lon="4.81433">
        <ele>202</ele>
        <time>2022-09-05T05:58:31.000Z</time>
      </trkpt>
      <trkpt lat="49.7514" lon="4.81428">
        <ele>202</ele>
        <time>2022-09-05T05:58:32.000Z</time>
      </trkpt>
      <trkpt lat="49.7514" lon="4.81423">
        <ele>202</ele>
        <time>2022-09-05T05:58:33.000Z</time>
      </trkpt>
      <trkpt lat="49.75141" lon="4.81419">
        <ele>202</ele>
        <time>2022-09-05T05:58:34.000Z</time>
      </trkpt>
      <trkpt lat="49.75141" lon="4.81415">
        <ele>202</ele>
        <time>2022-09-05T05:58:35.000Z</time>
      </trkpt>
      <trkpt lat="49.75141" lon="4.8141">
        <ele>203</ele>
        <time>2022-09-05T05:58:36.000Z</time>
      </trkpt>
      <trkpt lat="49.75142" lon="4.81406">
        <ele>203</ele>
        <time>2022-09-05T05:58:37.000Z</time>
      </trkpt>
      <trkpt lat="49.75142" lon="4.81401">
        <ele>203</ele>
        <time>2022-09-05T05:58:38.000Z</time>
      </trkpt>
      <trkpt lat="49.75143" lon="4.81396">
        <ele>203</ele>
        <time>2022-09-05T05:58:39.000Z</time>
      </trkpt>
      <trkpt lat="49.75143" lon="4.81391">
        <ele>203</ele>
        <time>2022-09-05T05:58:40.000Z</time>
      </trkpt>
      <trkpt lat="49.75144" lon="4.81386">
        <ele>203</ele>
        <time>2022-09-05T05:58:41.000Z</time>
      </trkpt>
      <trkpt lat="49.75145" lon="4.81381">
        <ele>203</ele>
        <time>2022-09-05T05:58:42.000Z</time>
      </trkpt>
      <trkpt lat="49.75145" lon="4.81377">
        <ele>204</ele>
        <time>2022-09-05T05:58:43.000Z</time>
      </trkpt>
      <trkpt lat="49.75145" lon="4.81372">
        <ele>204</ele>
        <time>2022-09-05T05:58:44.000Z</time>
      </trkpt>
      <trkpt lat="49.75146" lon="4.81368">
        <ele>204</ele>
        <time>2022-09-05T05:58:45.000Z</time>
      </trkpt>
      <trkpt lat="49.75146" lon="4.81364">
        <ele>204</ele>
        <time>2022-09-05T05:58:46.000Z</time>
      </trkpt>
      <trkpt lat="49.75146" lon="4.8136">
        <ele>204</ele>
        <time>2022-09-05T05:58:47.000Z</time>
      </trkpt>
      <trkpt lat="49.75146" lon="4.81355">
        <ele>204</ele>
        <time>2022-09-05T05:58:48.000Z</time>
      </trkpt>
      <trkpt lat="49.75146" lon="4.8135">
        <ele>205</ele>
        <time>2022-09-05T05:58:49.000Z</time>
      </trkpt>
      <trkpt lat="49.75146" lon="4.81345">
        <ele>205</ele>
        <time>2022-09-05T05:58:50.000Z</time>
      </trkpt>
      <trkpt lat="49.75147" lon="4.8134">
        <ele>205</ele>
        <time>2022-09-05T05:58:51.000Z</time>
      </trkpt>
      <trkpt lat="49.75147" lon="4.81336">
        <ele>206</ele>
        <time>2022-09-05T05:58:52.000Z</time>
      </trkpt>
      <trkpt lat="49.75147" lon="4.81331">
        <ele>206</ele>
        <time>2022-09-05T05:58:53.000Z</time>
      </trkpt>
      <trkpt lat="49.75147" lon="4.81326">
        <ele>206</ele>
        <time>2022-09-05T05:58:54.000Z</time>
      </trkpt>
      <trkpt lat="49.75146" lon="4.81322">
        <ele>207</ele>
        <time>2022-09-05T05:58:55.000Z</time>
      </trkpt>
      <trkpt lat="49.75146" lon="4.81317">
        <ele>207</ele>
        <time>2022-09-05T05:58:56.000Z</time>
      </trkpt>
      <trkpt lat="49.75145" lon="4.81312">
        <ele>207</ele>
        <time>2022-09-05T05:58:57.000Z</time>
      </trkpt>
      <trkpt lat="49.75145" lon="4.81307">
        <ele>208</ele>
        <time>2022-09-05T05:58:58.000Z</time>
      </trkpt>
      <trkpt lat="49.75144" lon="4.81303">
        <ele>208</ele>
        <time>2022-09-05T05:58:59.000Z</time>
      </trkpt>
      <trkpt lat="49.75143" lon="4.81299">
        <ele>208</ele>
        <time>2022-09-05T05:59:00.000Z</time>
      </trkpt>
      <trkpt lat="49.75142" lon="4.81295">
        <ele>209</ele>
        <time>2022-09-05T05:59:01.000Z</time>
      </trkpt>
      <trkpt lat="49.75141" lon="4.8129">
        <ele>209</ele>
        <time>2022-09-05T05:59:02.000Z</time>
      </trkpt>
      <trkpt lat="49.7514" lon="4.81286">
        <ele>209</ele>
        <time>2022-09-05T05:59:03.000Z</time>
      </trkpt>
      <trkpt lat="49.75139" lon="4.81282">
        <ele>210</ele>
        <time>2022-09-05T05:59:04.000Z</time>
      </trkpt>
      <trkpt lat="49.75138" lon="4.81278">
        <ele>210</ele>
        <time>2022-09-05T05:59:05.000Z</time>
      </trkpt>
      <trkpt lat="49.75137" lon="4.81273">
        <ele>210</ele>
        <time>2022-09-05T05:59:06.000Z</time>
      </trkpt>
      <trkpt lat="49.75136" lon="4.81268">
        <ele>211</ele>
        <time>2022-09-05T05:59:07.000Z</time>
      </trkpt>
      <trkpt lat="49.75135" lon="4.81264">
        <ele>211</ele>
        <time>2022-09-05T05:59:08.000Z</time>
      </trkpt>
      <trkpt lat="49.75134" lon="4.8126">
        <ele>211</ele>
        <time>2022-09-05T05:59:09.000Z</time>
      </trkpt>
      <trkpt lat="49.75133" lon="4.81255">
        <ele>211</ele>
        <time>2022-09-05T05:59:10.000Z</time>
      </trkpt>
      <trkpt lat="49.75132" lon="4.81251">
        <ele>211</ele>
        <time>2022-09-05T05:59:11.000Z</time>
      </trkpt>
      <trkpt lat="49.75131" lon="4.81246">
        <ele>212</ele>
        <time>2022-09-05T05:59:12.000Z</time>
      </trkpt>
      <trkpt lat="49.7513" lon="4.81242">
        <ele>212</ele>
        <time>2022-09-05T05:59:13.000Z</time>
      </trkpt>
      <trkpt lat="49.75129" lon="4.81238">
        <ele>212</ele>
        <time>2022-09-05T05:59:14.000Z</time>
      </trkpt>
      <trkpt lat="49.75128" lon="4.81235">
        <ele>212</ele>
        <time>2022-09-05T05:59:15.000Z</time>
      </trkpt>
      <trkpt lat="49.75128" lon="4.81231">
        <ele>212</ele>
        <time>2022-09-05T05:59:16.000Z</time>
      </trkpt>
      <trkpt lat="49.75127" lon="4.81227">
        <ele>212</ele>
        <time>2022-09-05T05:59:17.000Z</time>
      </trkpt>
      <trkpt lat="49.75126" lon="4.81223">
        <ele>213</ele>
        <time>2022-09-05T05:59:18.000Z</time>
      </trkpt>
      <trkpt lat="49.75125" lon="4.81219">
        <ele>213</ele>
        <time>2022-09-05T05:59:19.000Z</time>
      </trkpt>
      <trkpt lat="49.75124" lon="4.81214">
        <ele>213</ele>
        <time>2022-09-05T05:59:20.000Z</time>
      </trkpt>
      <trkpt lat="49.75122" lon="4.81209">
        <ele>213</ele>
        <time>2022-09-05T05:59:21.000Z</time>
      </trkpt>
      <trkpt lat="49.75121" lon="4.81204">
        <ele>213</ele>
        <time>2022-09-05T05:59:22.000Z</time>
      </trkpt>
      <trkpt lat="49.7512" lon="4.81199">
        <ele>213</ele>
        <time>2022-09-05T05:59:23.000Z</time>
      </trkpt>
      <trkpt lat="49.7512" lon="4.81194">
        <ele>214</ele>
        <time>2022-09-05T05:59:24.000Z</time>
      </trkpt>
      <trkpt lat="49.75119" lon="4.81189">
        <ele>214</ele>
        <time>2022-09-05T05:59:25.000Z</time>
      </trkpt>
      <trkpt lat="49.75119" lon="4.81185">
        <ele>214</ele>
        <time>2022-09-05T05:59:26.000Z</time>
      </trkpt>
      <trkpt lat="49.75118" lon="4.81181">
        <ele>214</ele>
        <time>2022-09-05T05:59:27.000Z</time>
      </trkpt>
      <trkpt lat="49.75118" lon="4.81177">
        <ele>214</ele>
        <time>2022-09-05T05:59:28.000Z</time>
      </trkpt>
      <trkpt lat="49.75117" lon="4.81173">
        <ele>215</ele>
        <time>2022-09-05T05:59:29.000Z</time>
      </trkpt>
      <trkpt lat="49.75116" lon="4.81168">
        <ele>215</ele>
        <time>2022-09-05T05:59:30.000Z</time>
      </trkpt>
      <trkpt lat="49.75115" lon="4.81164">
        <ele>215</ele>
        <time>2022-09-05T05:59:31.000Z</time>
      </trkpt>
      <trkpt lat="49.75114" lon="4.81159">
        <ele>215</ele>
        <time>2022-09-05T05:59:32.000Z</time>
      </trkpt>
      <trkpt lat="49.75113" lon="4.81154">
        <ele>216</ele>
        <time>2022-09-05T05:59:33.000Z</time>
      </trkpt>
      <trkpt lat="49.75112" lon="4.81149">
        <ele>216</ele>
        <time>2022-09-05T05:59:34.000Z</time>
      </trkpt>
      <trkpt lat="49.75111" lon="4.81144">
        <ele>216</ele>
        <time>2022-09-05T05:59:35.000Z</time>
      </trkpt>
      <trkpt lat="49.7511" lon="4.81139">
        <ele>216</ele>
        <time>2022-09-05T05:59:36.000Z</time>
      </trkpt>
      <trkpt lat="49.75109" lon="4.81134">
        <ele>216</ele>
        <time>2022-09-05T05:59:37.000Z</time>
      </trkpt>
      <trkpt lat="49.75108" lon="4.8113">
        <ele>216</ele>
        <time>2022-09-05T05:59:38.000Z</time>
      </trkpt>
      <trkpt lat="49.75107" lon="4.81125">
        <ele>217</ele>
        <time>2022-09-05T05:59:39.000Z</time>
      </trkpt>
      <trkpt lat="49.75106" lon="4.8112">
        <ele>217</ele>
        <time>2022-09-05T05:59:40.000Z</time>
      </trkpt>
      <trkpt lat="49.75105" lon="4.81116">
        <ele>217</ele>
        <time>2022-09-05T05:59:41.000Z</time>
      </trkpt>
      <trkpt lat="49.75104" lon="4.81111">
        <ele>217</ele>
        <time>2022-09-05T05:59:42.000Z</time>
      </trkpt>
      <trkpt lat="49.75102" lon="4.81106">
        <ele>217</ele>
        <time>2022-09-05T05:59:43.000Z</time>
      </trkpt>
      <trkpt lat="49.75101" lon="4.81101">
        <ele>217</ele>
        <time>2022-09-05T05:59:44.000Z</time>
      </trkpt>
      <trkpt lat="49.75099" lon="4.81097">
        <ele>218</ele>
        <time>2022-09-05T05:59:45.000Z</time>
      </trkpt>
      <trkpt lat="49.75098" lon="4.81092">
        <ele>218</ele>
        <time>2022-09-05T05:59:46.000Z</time>
      </trkpt>
      <trkpt lat="49.75096" lon="4.81087">
        <ele>218</ele>
        <time>2022-09-05T05:59:47.000Z</time>
      </trkpt>
      <trkpt lat="49.75095" lon="4.81082">
        <ele>218</ele>
        <time>2022-09-05T05:59:48.000Z</time>
      </trkpt>
      <trkpt lat="49.75094" lon="4.81077">
        <ele>218</ele>
        <time>2022-09-05T05:59:49.000Z</time>
      </trkpt>
      <trkpt lat="49.75093" lon="4.81072">
        <ele>218</ele>
        <time>2022-09-05T05:59:50.000Z</time>
      </trkpt>
      <trkpt lat="49.75092" lon="4.81066">
        <ele>218</ele>
        <time>2022-09-05T05:59:51.000Z</time>
      </trkpt>
      <trkpt lat="49.75091" lon="4.81061">
        <ele>218</ele>
        <time>2022-09-05T05:59:52.000Z</time>
      </trkpt>
      <trkpt lat="49.7509" lon="4.81055">
        <ele>218</ele>
        <time>2022-09-05T05:59:53.000Z</time>
      </trkpt>
      <trkpt lat="49.75089" lon="4.81049">
        <ele>218</ele>
        <time>2022-09-05T05:59:54.000Z</time>
      </trkpt>
      <trkpt lat="49.75088" lon="4.81043">
        <ele>218</ele>
        <time>2022-09-05T05:59:55.000Z</time>
      </trkpt>
      <trkpt lat="49.75087" lon="4.81037">
        <ele>218</ele>
        <time>2022-09-05T05:59:56.000Z</time>
      </trkpt>
      <trkpt lat="49.75085" lon="4.81031">
        <ele>219</ele>
        <time>2022-09-05T05:59:57.000Z</time>
      </trkpt>
      <trkpt lat="49.75084" lon="4.81025">
        <ele>219</ele>
        <time>2022-09-05T05:59:58.000Z</time>
      </trkpt>
      <trkpt lat="49.75082" lon="4.81019">
        <ele>219</ele>
        <time>2022-09-05T05:59:59.000Z</time>
      </trkpt>
      <trkpt lat="49.7508" lon="4.81012">
        <ele>219</ele>
        <time>2022-09-05T06:00:00.000Z</time>
      </trkpt>
      <trkpt lat="49.75079" lon="4.81006">
        <ele>219</ele>
        <time>2022-09-05T06:00:01.000Z</time>
      </trkpt>
      <trkpt lat="49.75077" lon="4.81">
        <ele>219</ele>
        <time>2022-09-05T06:00:02.000Z</time>
      </trkpt>
      <trkpt lat="49.75075" lon="4.80994">
        <ele>220</ele>
        <time>2022-09-05T06:00:03.000Z</time>
      </trkpt>
      <trkpt lat="49.75073" lon="4.80988">
        <ele>220</ele>
        <time>2022-09-05T06:00:04.000Z</time>
      </trkpt>
      <trkpt lat="49.75072" lon="4.80982">
        <ele>220</ele>
        <time>2022-09-05T06:00:05.000Z</time>
      </trkpt>
      <trkpt lat="49.7507" lon="4.80977">
        <ele>220</ele>
        <time>2022-09-05T06:00:06.000Z</time>
      </trkpt>
      <trkpt lat="49.75069" lon="4.80971">
        <ele>220</ele>
        <time>2022-09-05T06:00:07.000Z</time>
      </trkpt>
      <trkpt lat="49.75067" lon="4.80964">
        <ele>221</ele>
        <time>2022-09-05T06:00:08.000Z</time>
      </trkpt>
      <trkpt lat="49.75066" lon="4.80957">
        <ele>221</ele>
        <time>2022-09-05T06:00:09.000Z</time>
      </trkpt>
      <trkpt lat="49.75065" lon="4.80949">
        <ele>221</ele>
        <time>2022-09-05T06:00:10.000Z</time>
      </trkpt>
      <trkpt lat="49.75064" lon="4.8094">
        <ele>221</ele>
        <time>2022-09-05T06:00:11.000Z</time>
      </trkpt>
      <trkpt lat="49.75063" lon="4.8093">
        <ele>221</ele>
        <time>2022-09-05T06:00:12.000Z</time>
      </trkpt>
      <trkpt lat="49.75062" lon="4.80919">
        <ele>221</ele>
        <time>2022-09-05T06:00:13.000Z</time>
      </trkpt>
      <trkpt lat="49.75061" lon="4.80907">
        <ele>221</ele>
        <time>2022-09-05T06:00:14.000Z</time>
      </trkpt>
      <trkpt lat="49.75061" lon="4.80896">
        <ele>221</ele>
        <time>2022-09-05T06:00:15.000Z</time>
      </trkpt>
      <trkpt lat="49.75061" lon="4.80883">
        <ele>221</ele>
        <time>2022-09-05T06:00:16.000Z</time>
      </trkpt>
      <trkpt lat="49.75061" lon="4.80871">
        <ele>221</ele>
        <time>2022-09-05T06:00:17.000Z</time>
      </trkpt>
      <trkpt lat="49.75061" lon="4.80858">
        <ele>221</ele>
        <time>2022-09-05T06:00:18.000Z</time>
      </trkpt>
      <trkpt lat="49.75062" lon="4.80845">
        <ele>221</ele>
        <time>2022-09-05T06:00:19.000Z</time>
      </trkpt>
      <trkpt lat="49.75063" lon="4.8083">
        <ele>221</ele>
        <time>2022-09-05T06:00:20.000Z</time>
      </trkpt>
      <trkpt lat="49.75065" lon="4.80816">
        <ele>220</ele>
        <time>2022-09-05T06:00:21.000Z</time>
      </trkpt>
      <trkpt lat="49.75067" lon="4.80802">
        <ele>220</ele>
        <time>2022-09-05T06:00:22.000Z</time>
      </trkpt>
      <trkpt lat="49.7507" lon="4.80788">
        <ele>220</ele>
        <time>2022-09-05T06:00:23.000Z</time>
      </trkpt>
      <trkpt lat="49.75074" lon="4.80774">
        <ele>219</ele>
        <time>2022-09-05T06:00:24.000Z</time>
      </trkpt>
      <trkpt lat="49.75077" lon="4.80758">
        <ele>219</ele>
        <time>2022-09-05T06:00:25.000Z</time>
      </trkpt>
      <trkpt lat="49.75081" lon="4.80744">
        <ele>218</ele>
        <time>2022-09-05T06:00:26.000Z</time>
      </trkpt>
      <trkpt lat="49.75086" lon="4.80729">
        <ele>218</ele>
        <time>2022-09-05T06:00:27.000Z</time>
      </trkpt>
      <trkpt lat="49.75091" lon="4.80717">
        <ele>218</ele>
        <time>2022-09-05T06:00:28.000Z</time>
      </trkpt>
      <trkpt lat="49.75098" lon="4.80707">
        <ele>217</ele>
        <time>2022-09-05T06:00:29.000Z</time>
      </trkpt>
      <trkpt lat="49.75106" lon="4.807">
        <ele>217</ele>
        <time>2022-09-05T06:00:30.000Z</time>
      </trkpt>
      <trkpt lat="49.75114" lon="4.80693">
        <ele>216</ele>
        <time>2022-09-05T06:00:31.000Z</time>
      </trkpt>
      <trkpt lat="49.75122" lon="4.80689">
        <ele>216</ele>
        <time>2022-09-05T06:00:32.000Z</time>
      </trkpt>
      <trkpt lat="49.75131" lon="4.80686">
        <ele>215</ele>
        <time>2022-09-05T06:00:33.000Z</time>
      </trkpt>
      <trkpt lat="49.75139" lon="4.80686">
        <ele>214</ele>
        <time>2022-09-05T06:00:34.000Z</time>
      </trkpt>
      <trkpt lat="49.75147" lon="4.80686">
        <ele>214</ele>
        <time>2022-09-05T06:00:35.000Z</time>
      </trkpt>
      <trkpt lat="49.75155" lon="4.80686">
        <ele>213</ele>
        <time>2022-09-05T06:00:36.000Z</time>
      </trkpt>
      <trkpt lat="49.75162" lon="4.80686">
        <ele>212</ele>
        <time>2022-09-05T06:00:37.000Z</time>
      </trkpt>
      <trkpt lat="49.7517" lon="4.80686">
        <ele>212</ele>
        <time>2022-09-05T06:00:38.000Z</time>
      </trkpt>
      <trkpt lat="49.75177" lon="4.80686">
        <ele>211</ele>
        <time>2022-09-05T06:00:39.000Z</time>
      </trkpt>
      <trkpt lat="49.75184" lon="4.80686">
        <ele>211</ele>
        <time>2022-09-05T06:00:40.000Z</time>
      </trkpt>
      <trkpt lat="49.75191" lon="4.80686">
        <ele>211</ele>
        <time>2022-09-05T06:00:41.000Z</time>
      </trkpt>
      <trkpt lat="49.75197" lon="4.80685">
        <ele>210</ele>
        <time>2022-09-05T06:00:42.000Z</time>
      </trkpt>
      <trkpt lat="49.75203" lon="4.80685">
        <ele>210</ele>
        <time>2022-09-05T06:00:43.000Z</time>
      </trkpt>
      <trkpt lat="49.75209" lon="4.80685">
        <ele>210</ele>
        <time>2022-09-05T06:00:44.000Z</time>
      </trkpt>
      <trkpt lat="49.75215" lon="4.80686">
        <ele>210</ele>
        <time>2022-09-05T06:00:45.000Z</time>
      </trkpt>
      <trkpt lat="49.75221" lon="4.80686">
        <ele>209</ele>
        <time>2022-09-05T06:00:46.000Z</time>
      </trkpt>
      <trkpt lat="49.75226" lon="4.80687">
        <ele>209</ele>
        <time>2022-09-05T06:00:47.000Z</time>
      </trkpt>
      <trkpt lat="49.75231" lon="4.80689">
        <ele>209</ele>
        <time>2022-09-05T06:00:48.000Z</time>
      </trkpt>
      <trkpt lat="49.75236" lon="4.80691">
        <ele>208</ele>
        <time>2022-09-05T06:00:49.000Z</time>
      </trkpt>
      <trkpt lat="49.75241" lon="4.80693">
        <ele>208</ele>
        <time>2022-09-05T06:00:50.000Z</time>
      </trkpt>
      <trkpt lat="49.75246" lon="4.80694">
        <ele>208</ele>
        <time>2022-09-05T06:00:51.000Z</time>
      </trkpt>
      <trkpt lat="49.75251" lon="4.80695">
        <ele>208</ele>
        <time>2022-09-05T06:00:52.000Z</time>
      </trkpt>
      <trkpt lat="49.75256" lon="4.80695">
        <ele>207</ele>
        <time>2022-09-05T06:00:53.000Z</time>
      </trkpt>
      <trkpt lat="49.75261" lon="4.80695">
        <ele>207</ele>
        <time>2022-09-05T06:00:54.000Z</time>
      </trkpt>
      <trkpt lat="49.75265" lon="4.80693">
        <ele>207</ele>
        <time>2022-09-05T06:00:55.000Z</time>
      </trkpt>
      <trkpt lat="49.75269" lon="4.80691">
        <ele>207</ele>
        <time>2022-09-05T06:00:56.000Z</time>
      </trkpt>
      <trkpt lat="49.75273" lon="4.80689">
        <ele>207</ele>
        <time>2022-09-05T06:00:57.000Z</time>
      </trkpt>
      <trkpt lat="49.75276" lon="4.80687">
        <ele>207</ele>
        <time>2022-09-05T06:00:58.000Z</time>
      </trkpt>
      <trkpt lat="49.7528" lon="4.80685">
        <ele>207</ele>
        <time>2022-09-05T06:00:59.000Z</time>
      </trkpt>
      <trkpt lat="49.75284" lon="4.80682">
        <ele>207</ele>
        <time>2022-09-05T06:01:00.000Z</time>
      </trkpt>
      <trkpt lat="49.75288" lon="4.80679">
        <ele>207</ele>
        <time>2022-09-05T06:01:01.000Z</time>
      </trkpt>
      <trkpt lat="49.75292" lon="4.80676">
        <ele>207</ele>
        <time>2022-09-05T06:01:02.000Z</time>
      </trkpt>
      <trkpt lat="49.75296" lon="4.80674">
        <ele>207</ele>
        <time>2022-09-05T06:01:03.000Z</time>
      </trkpt>
      <trkpt lat="49.75301" lon="4.80673">
        <ele>207</ele>
        <time>2022-09-05T06:01:04.000Z</time>
      </trkpt>
      <trkpt lat="49.75305" lon="4.80671">
        <ele>207</ele>
        <time>2022-09-05T06:01:05.000Z</time>
      </trkpt>
      <trkpt lat="49.75309" lon="4.8067">
        <ele>207</ele>
        <time>2022-09-05T06:01:06.000Z</time>
      </trkpt>
      <trkpt lat="49.75313" lon="4.8067">
        <ele>207</ele>
        <time>2022-09-05T06:01:07.000Z</time>
      </trkpt>
      <trkpt lat="49.75317" lon="4.8067">
        <ele>207</ele>
        <time>2022-09-05T06:01:08.000Z</time>
      </trkpt>
      <trkpt lat="49.75321" lon="4.8067">
        <ele>208</ele>
        <time>2022-09-05T06:01:09.000Z</time>
      </trkpt>
      <trkpt lat="49.75325" lon="4.80671">
        <ele>208</ele>
        <time>2022-09-05T06:01:10.000Z</time>
      </trkpt>
      <trkpt lat="49.75329" lon="4.80672">
        <ele>208</ele>
        <time>2022-09-05T06:01:11.000Z</time>
      </trkpt>
      <trkpt lat="49.75333" lon="4.80673">
        <ele>208</ele>
        <time>2022-09-05T06:01:12.000Z</time>
      </trkpt>
      <trkpt lat="49.75338" lon="4.80674">
        <ele>208</ele>
        <time>2022-09-05T06:01:13.000Z</time>
      </trkpt>
      <trkpt lat="49.75342" lon="4.80675">
        <ele>209</ele>
        <time>2022-09-05T06:01:14.000Z</time>
      </trkpt>
      <trkpt lat="49.75345" lon="4.80676">
        <ele>209</ele>
        <time>2022-09-05T06:01:15.000Z</time>
      </trkpt>
      <trkpt lat="49.75349" lon="4.80677">
        <ele>209</ele>
        <time>2022-09-05T06:01:16.000Z</time>
      </trkpt>
      <trkpt lat="49.75352" lon="4.80679">
        <ele>209</ele>
        <time>2022-09-05T06:01:17.000Z</time>
      </trkpt>
      <trkpt lat="49.75355" lon="4.80681">
        <ele>210</ele>
        <time>2022-09-05T06:01:18.000Z</time>
      </trkpt>
      <trkpt lat="49.75359" lon="4.80683">
        <ele>210</ele>
        <time>2022-09-05T06:01:19.000Z</time>
      </trkpt>
      <trkpt lat="49.75362" lon="4.80684">
        <ele>210</ele>
        <time>2022-09-05T06:01:20.000Z</time>
      </trkpt>
      <trkpt lat="49.75365" lon="4.80684">
        <ele>210</ele>
        <time>2022-09-05T06:01:21.000Z</time>
      </trkpt>
      <trkpt lat="49.75368" lon="4.80685">
        <ele>211</ele>
        <time>2022-09-05T06:01:22.000Z</time>
      </trkpt>
      <trkpt lat="49.75372" lon="4.80686">
        <ele>211</ele>
        <time>2022-09-05T06:01:23.000Z</time>
      </trkpt>
      <trkpt lat="49.75375" lon="4.80687">
        <ele>211</ele>
        <time>2022-09-05T06:01:24.000Z</time>
      </trkpt>
      <trkpt lat="49.75378" lon="4.80688">
        <ele>212</ele>
        <time>2022-09-05T06:01:25.000Z</time>
      </trkpt>
      <trkpt lat="49.75381" lon="4.80689">
        <ele>212</ele>
        <time>2022-09-05T06:01:26.000Z</time>
      </trkpt>
      <trkpt lat="49.75384" lon="4.80691">
        <ele>213</ele>
        <time>2022-09-05T06:01:27.000Z</time>
      </trkpt>
      <trkpt lat="49.75387" lon="4.80692">
        <ele>213</ele>
        <time>2022-09-05T06:01:28.000Z</time>
      </trkpt>
      <trkpt lat="49.75389" lon="4.80692">
        <ele>214</ele>
        <time>2022-09-05T06:01:29.000Z</time>
      </trkpt>
      <trkpt lat="49.75391" lon="4.80694">
        <ele>214</ele>
        <time>2022-09-05T06:01:30.000Z</time>
      </trkpt>
      <trkpt lat="49.75393" lon="4.80695">
        <ele>214</ele>
        <time>2022-09-05T06:01:31.000Z</time>
      </trkpt>
      <trkpt lat="49.75395" lon="4.80696">
        <ele>215</ele>
        <time>2022-09-05T06:01:32.000Z</time>
      </trkpt>
      <trkpt lat="49.75397" lon="4.80696">
        <ele>215</ele>
        <time>2022-09-05T06:01:33.000Z</time>
      </trkpt>
      <trkpt lat="49.75399" lon="4.80697">
        <ele>215</ele>
        <time>2022-09-05T06:01:34.000Z</time>
      </trkpt>
      <trkpt lat="49.754" lon="4.80698">
        <ele>216</ele>
        <time>2022-09-05T06:01:35.000Z</time>
      </trkpt>
      <trkpt lat="49.75402" lon="4.80699">
        <ele>216</ele>
        <time>2022-09-05T06:01:36.000Z</time>
      </trkpt>
      <trkpt lat="49.75404" lon="4.807">
        <ele>216</ele>
        <time>2022-09-05T06:01:37.000Z</time>
      </trkpt>
      <trkpt lat="49.75406" lon="4.807">
        <ele>217</ele>
        <time>2022-09-05T06:01:38.000Z</time>
      </trkpt>
      <trkpt lat="49.75408" lon="4.80701">
        <ele>217</ele>
        <time>2022-09-05T06:01:39.000Z</time>
      </trkpt>
      <trkpt lat="49.75411" lon="4.80701">
        <ele>217</ele>
        <time>2022-09-05T06:01:40.000Z</time>
      </trkpt>
      <trkpt lat="49.75413" lon="4.80702">
        <ele>217</ele>
        <time>2022-09-05T06:01:41.000Z</time>
      </trkpt>
      <trkpt lat="49.75416" lon="4.80703">
        <ele>218</ele>
        <time>2022-09-05T06:01:42.000Z</time>
      </trkpt>
      <trkpt lat="49.75418" lon="4.80703">
        <ele>218</ele>
        <time>2022-09-05T06:01:43.000Z</time>
      </trkpt>
      <trkpt lat="49.75421" lon="4.80703">
        <ele>218</ele>
        <time>2022-09-05T06:01:44.000Z</time>
      </trkpt>
      <trkpt lat="49.75424" lon="4.80704">
        <ele>219</ele>
        <time>2022-09-05T06:01:45.000Z</time>
      </trkpt>
      <trkpt lat="49.75426" lon="4.80705">
        <ele>219</ele>
        <time>2022-09-05T06:01:46.000Z</time>
      </trkpt>
      <trkpt lat="49.75429" lon="4.80707">
        <ele>219</ele>
        <time>2022-09-05T06:01:47.000Z</time>
      </trkpt>
      <trkpt lat="49.75433" lon="4.80708">
        <ele>219</ele>
        <time>2022-09-05T06:01:48.000Z</time>
      </trkpt>
      <trkpt lat="49.75436" lon="4.8071">
        <ele>220</ele>
        <time>2022-09-05T06:01:49.000Z</time>
      </trkpt>
      <trkpt lat="49.75439" lon="4.80712">
        <ele>220</ele>
        <time>2022-09-05T06:01:50.000Z</time>
      </trkpt>
      <trkpt lat="49.75442" lon="4.80714">
        <ele>220</ele>
        <time>2022-09-05T06:01:51.000Z</time>
      </trkpt>
      <trkpt lat="49.75445" lon="4.80716">
        <ele>220</ele>
        <time>2022-09-05T06:01:52.000Z</time>
      </trkpt>
      <trkpt lat="49.75448" lon="4.80719">
        <ele>221</ele>
        <time>2022-09-05T06:01:53.000Z</time>
      </trkpt>
      <trkpt lat="49.75451" lon="4.80722">
        <ele>221</ele>
        <time>2022-09-05T06:01:54.000Z</time>
      </trkpt>
      <trkpt lat="49.75454" lon="4.80724">
        <ele>221</ele>
        <time>2022-09-05T06:01:55.000Z</time>
      </trkpt>
      <trkpt lat="49.75458" lon="4.80727">
        <ele>221</ele>
        <time>2022-09-05T06:01:56.000Z</time>
      </trkpt>
      <trkpt lat="49.75461" lon="4.80729">
        <ele>222</ele>
        <time>2022-09-05T06:01:57.000Z</time>
      </trkpt>
      <trkpt lat="49.75465" lon="4.80732">
        <ele>222</ele>
        <time>2022-09-05T06:01:58.000Z</time>
      </trkpt>
      <trkpt lat="49.75468" lon="4.80734">
        <ele>222</ele>
        <time>2022-09-05T06:01:59.000Z</time>
      </trkpt>
      <trkpt lat="49.75471" lon="4.80737">
        <ele>222</ele>
        <time>2022-09-05T06:02:00.000Z</time>
      </trkpt>
      <trkpt lat="49.75474" lon="4.80739">
        <ele>222</ele>
        <time>2022-09-05T06:02:01.000Z</time>
      </trkpt>
      <trkpt lat="49.75477" lon="4.80741">
        <ele>222</ele>
        <time>2022-09-05T06:02:02.000Z</time>
      </trkpt>
      <trkpt lat="49.7548" lon="4.80744">
        <ele>222</ele>
        <time>2022-09-05T06:02:03.000Z</time>
      </trkpt>
      <trkpt lat="49.75483" lon="4.80746">
        <ele>222</ele>
        <time>2022-09-05T06:02:04.000Z</time>
      </trkpt>
      <trkpt lat="49.75485" lon="4.80748">
        <ele>223</ele>
        <time>2022-09-05T06:02:05.000Z</time>
      </trkpt>
      <trkpt lat="49.75487" lon="4.8075">
        <ele>223</ele>
        <time>2022-09-05T06:02:06.000Z</time>
      </trkpt>
      <trkpt lat="49.7549" lon="4.80753">
        <ele>223</ele>
        <time>2022-09-05T06:02:07.000Z</time>
      </trkpt>
      <trkpt lat="49.75492" lon="4.80757">
        <ele>223</ele>
        <time>2022-09-05T06:02:08.000Z</time>
      </trkpt>
      <trkpt lat="49.75495" lon="4.80759">
        <ele>223</ele>
        <time>2022-09-05T06:02:09.000Z</time>
      </trkpt>
      <trkpt lat="49.75498" lon="4.80762">
        <ele>223</ele>
        <time>2022-09-05T06:02:10.000Z</time>
      </trkpt>
      <trkpt lat="49.75501" lon="4.80765">
        <ele>224</ele>
        <time>2022-09-05T06:02:11.000Z</time>
      </trkpt>
      <trkpt lat="49.75504" lon="4.80767">
        <ele>224</ele>
        <time>2022-09-05T06:02:12.000Z</time>
      </trkpt>
      <trkpt lat="49.75508" lon="4.8077">
        <ele>224</ele>
        <time>2022-09-05T06:02:13.000Z</time>
      </trkpt>
      <trkpt lat="49.75511" lon="4.80772">
        <ele>224</ele>
        <time>2022-09-05T06:02:14.000Z</time>
      </trkpt>
      <trkpt lat="49.75515" lon="4.80775">
        <ele>224</ele>
        <time>2022-09-05T06:02:15.000Z</time>
      </trkpt>
      <trkpt lat="49.75519" lon="4.80778">
        <ele>224</ele>
        <time>2022-09-05T06:02:16.000Z</time>
      </trkpt>
      <trkpt lat="49.75522" lon="4.80781">
        <ele>224</ele>
        <time>2022-09-05T06:02:17.000Z</time>
      </trkpt>
      <trkpt lat="49.75525" lon="4.80784">
        <ele>225</ele>
        <time>2022-09-05T06:02:18.000Z</time>
      </trkpt>
      <trkpt lat="49.75528" lon="4.80787">
        <ele>225</ele>
        <time>2022-09-05T06:02:19.000Z</time>
      </trkpt>
      <trkpt lat="49.75531" lon="4.8079">
        <ele>225</ele>
        <time>2022-09-05T06:02:20.000Z</time>
      </trkpt>
      <trkpt lat="49.75534" lon="4.80792">
        <ele>225</ele>
        <time>2022-09-05T06:02:21.000Z</time>
      </trkpt>
      <trkpt lat="49.75536" lon="4.80794">
        <ele>225</ele>
        <time>2022-09-05T06:02:22.000Z</time>
      </trkpt>
      <trkpt lat="49.75539" lon="4.80796">
        <ele>225</ele>
        <time>2022-09-05T06:02:23.000Z</time>
      </trkpt>
      <trkpt lat="49.75542" lon="4.80798">
        <ele>226</ele>
        <time>2022-09-05T06:02:24.000Z</time>
      </trkpt>
      <trkpt lat="49.75544" lon="4.80802">
        <ele>226</ele>
        <time>2022-09-05T06:02:25.000Z</time>
      </trkpt>
      <trkpt lat="49.75546" lon="4.80805">
        <ele>226</ele>
        <time>2022-09-05T06:02:26.000Z</time>
      </trkpt>
      <trkpt lat="49.75548" lon="4.80808">
        <ele>226</ele>
        <time>2022-09-05T06:02:27.000Z</time>
      </trkpt>
      <trkpt lat="49.7555" lon="4.80811">
        <ele>227</ele>
        <time>2022-09-05T06:02:28.000Z</time>
      </trkpt>
      <trkpt lat="49.75552" lon="4.80813">
        <ele>227</ele>
        <time>2022-09-05T06:02:29.000Z</time>
      </trkpt>
      <trkpt lat="49.75555" lon="4.80815">
        <ele>227</ele>
        <time>2022-09-05T06:02:30.000Z</time>
      </trkpt>
      <trkpt lat="49.75556" lon="4.80817">
        <ele>227</ele>
        <time>2022-09-05T06:02:31.000Z</time>
      </trkpt>
      <trkpt lat="49.75558" lon="4.80819">
        <ele>228</ele>
        <time>2022-09-05T06:02:32.000Z</time>
      </trkpt>
      <trkpt lat="49.7556" lon="4.80821">
        <ele>228</ele>
        <time>2022-09-05T06:02:33.000Z</time>
      </trkpt>
      <trkpt lat="49.75562" lon="4.80823">
        <ele>228</ele>
        <time>2022-09-05T06:02:34.000Z</time>
      </trkpt>
      <trkpt lat="49.75564" lon="4.80824">
        <ele>228</ele>
        <time>2022-09-05T06:02:35.000Z</time>
      </trkpt>
      <trkpt lat="49.75567" lon="4.80825">
        <ele>229</ele>
        <time>2022-09-05T06:02:36.000Z</time>
      </trkpt>
      <trkpt lat="49.7557" lon="4.80826">
        <ele>229</ele>
        <time>2022-09-05T06:02:37.000Z</time>
      </trkpt>
      <trkpt lat="49.75573" lon="4.80828">
        <ele>229</ele>
        <time>2022-09-05T06:02:38.000Z</time>
      </trkpt>
      <trkpt lat="49.75577" lon="4.80829">
        <ele>229</ele>
        <time>2022-09-05T06:02:39.000Z</time>
      </trkpt>
      <trkpt lat="49.7558" lon="4.80831">
        <ele>229</ele>
        <time>2022-09-05T06:02:40.000Z</time>
      </trkpt>
      <trkpt lat="49.75584" lon="4.80832">
        <ele>229</ele>
        <time>2022-09-05T06:02:41.000Z</time>
      </trkpt>
      <trkpt lat="49.75587" lon="4.80834">
        <ele>230</ele>
        <time>2022-09-05T06:02:42.000Z</time>
      </trkpt>
      <trkpt lat="49.75591" lon="4.80836">
        <ele>230</ele>
        <time>2022-09-05T06:02:43.000Z</time>
      </trkpt>
      <trkpt lat="49.75594" lon="4.80837">
        <ele>230</ele>
        <time>2022-09-05T06:02:44.000Z</time>
      </trkpt>
      <trkpt lat="49.75597" lon="4.80838">
        <ele>230</ele>
        <time>2022-09-05T06:02:45.000Z</time>
      </trkpt>
      <trkpt lat="49.756" lon="4.8084">
        <ele>230</ele>
        <time>2022-09-05T06:02:46.000Z</time>
      </trkpt>
      <trkpt lat="49.75604" lon="4.80842">
        <ele>230</ele>
        <time>2022-09-05T06:02:47.000Z</time>
      </trkpt>
      <trkpt lat="49.75608" lon="4.80845">
        <ele>230</ele>
        <time>2022-09-05T06:02:48.000Z</time>
      </trkpt>
      <trkpt lat="49.75611" lon="4.80847">
        <ele>231</ele>
        <time>2022-09-05T06:02:49.000Z</time>
      </trkpt>
      <trkpt lat="49.75614" lon="4.80848">
        <ele>231</ele>
        <time>2022-09-05T06:02:50.000Z</time>
      </trkpt>
      <trkpt lat="49.75618" lon="4.8085">
        <ele>231</ele>
        <time>2022-09-05T06:02:51.000Z</time>
      </trkpt>
      <trkpt lat="49.75622" lon="4.80851">
        <ele>231</ele>
        <time>2022-09-05T06:02:52.000Z</time>
      </trkpt>
      <trkpt lat="49.75625" lon="4.80853">
        <ele>231</ele>
        <time>2022-09-05T06:02:53.000Z</time>
      </trkpt>
      <trkpt lat="49.75629" lon="4.80855">
        <ele>231</ele>
        <time>2022-09-05T06:02:54.000Z</time>
      </trkpt>
      <trkpt lat="49.75633" lon="4.80857">
        <ele>231</ele>
        <time>2022-09-05T06:02:55.000Z</time>
      </trkpt>
      <trkpt lat="49.75636" lon="4.80858">
        <ele>231</ele>
        <time>2022-09-05T06:02:56.000Z</time>
      </trkpt>
      <trkpt lat="49.7564" lon="4.8086">
        <ele>230</ele>
        <time>2022-09-05T06:02:57.000Z</time>
      </trkpt>
      <trkpt lat="49.75643" lon="4.80861">
        <ele>230</ele>
        <time>2022-09-05T06:02:58.000Z</time>
      </trkpt>
      <trkpt lat="49.75645" lon="4.80863">
        <ele>230</ele>
        <time>2022-09-05T06:02:59.000Z</time>
      </trkpt>
      <trkpt lat="49.75649" lon="4.80865">
        <ele>230</ele>
        <time>2022-09-05T06:03:00.000Z</time>
      </trkpt>
      <trkpt lat="49.75653" lon="4.80866">
        <ele>230</ele>
        <time>2022-09-05T06:03:01.000Z</time>
      </trkpt>
      <trkpt lat="49.75656" lon="4.80866">
        <ele>230</ele>
        <time>2022-09-05T06:03:02.000Z</time>
      </trkpt>
      <trkpt lat="49.75659" lon="4.80866">
        <ele>231</ele>
        <time>2022-09-05T06:03:03.000Z</time>
      </trkpt>
      <trkpt lat="49.75662" lon="4.80868">
        <ele>231</ele>
        <time>2022-09-05T06:03:04.000Z</time>
      </trkpt>
      <trkpt lat="49.75666" lon="4.80869">
        <ele>231</ele>
        <time>2022-09-05T06:03:05.000Z</time>
      </trkpt>
      <trkpt lat="49.75669" lon="4.80871">
        <ele>231</ele>
        <time>2022-09-05T06:03:06.000Z</time>
      </trkpt>
      <trkpt lat="49.75673" lon="4.80872">
        <ele>231</ele>
        <time>2022-09-05T06:03:07.000Z</time>
      </trkpt>
      <trkpt lat="49.75677" lon="4.80873">
        <ele>231</ele>
        <time>2022-09-05T06:03:08.000Z</time>
      </trkpt>
      <trkpt lat="49.7568" lon="4.80873">
        <ele>231</ele>
        <time>2022-09-05T06:03:09.000Z</time>
      </trkpt>
      <trkpt lat="49.75683" lon="4.80874">
        <ele>232</ele>
        <time>2022-09-05T06:03:10.000Z</time>
      </trkpt>
      <trkpt lat="49.75687" lon="4.80876">
        <ele>232</ele>
        <time>2022-09-05T06:03:11.000Z</time>
      </trkpt>
      <trkpt lat="49.7569" lon="4.80878">
        <ele>232</ele>
        <time>2022-09-05T06:03:12.000Z</time>
      </trkpt>
      <trkpt lat="49.75694" lon="4.8088">
        <ele>232</ele>
        <time>2022-09-05T06:03:13.000Z</time>
      </trkpt>
      <trkpt lat="49.75697" lon="4.80881">
        <ele>233</ele>
        <time>2022-09-05T06:03:14.000Z</time>
      </trkpt>
      <trkpt lat="49.75701" lon="4.80882">
        <ele>233</ele>
        <time>2022-09-05T06:03:15.000Z</time>
      </trkpt>
      <trkpt lat="49.75705" lon="4.80883">
        <ele>233</ele>
        <time>2022-09-05T06:03:16.000Z</time>
      </trkpt>
      <trkpt lat="49.75709" lon="4.80885">
        <ele>234</ele>
        <time>2022-09-05T06:03:17.000Z</time>
      </trkpt>
      <trkpt lat="49.75712" lon="4.80886">
        <ele>234</ele>
        <time>2022-09-05T06:03:18.000Z</time>
      </trkpt>
      <trkpt lat="49.75716" lon="4.80888">
        <ele>234</ele>
        <time>2022-09-05T06:03:19.000Z</time>
      </trkpt>
      <trkpt lat="49.7572" lon="4.8089">
        <ele>235</ele>
        <time>2022-09-05T06:03:20.000Z</time>
      </trkpt>
      <trkpt lat="49.75723" lon="4.80891">
        <ele>235</ele>
        <time>2022-09-05T06:03:21.000Z</time>
      </trkpt>
      <trkpt lat="49.75727" lon="4.80893">
        <ele>235</ele>
        <time>2022-09-05T06:03:22.000Z</time>
      </trkpt>
      <trkpt lat="49.75731" lon="4.80894">
        <ele>235</ele>
        <time>2022-09-05T06:03:23.000Z</time>
      </trkpt>
      <trkpt lat="49.75735" lon="4.80896">
        <ele>235</ele>
        <time>2022-09-05T06:03:24.000Z</time>
      </trkpt>
      <trkpt lat="49.75739" lon="4.80896">
        <ele>236</ele>
        <time>2022-09-05T06:03:25.000Z</time>
      </trkpt>
      <trkpt lat="49.75743" lon="4.80897">
        <ele>236</ele>
        <time>2022-09-05T06:03:26.000Z</time>
      </trkpt>
      <trkpt lat="49.75746" lon="4.80897">
        <ele>236</ele>
        <time>2022-09-05T06:03:27.000Z</time>
      </trkpt>
      <trkpt lat="49.7575" lon="4.80898">
        <ele>236</ele>
        <time>2022-09-05T06:03:28.000Z</time>
      </trkpt>
      <trkpt lat="49.75753" lon="4.80898">
        <ele>237</ele>
        <time>2022-09-05T06:03:29.000Z</time>
      </trkpt>
      <trkpt lat="49.75757" lon="4.80899">
        <ele>237</ele>
        <time>2022-09-05T06:03:30.000Z</time>
      </trkpt>
      <trkpt lat="49.7576" lon="4.809">
        <ele>237</ele>
        <time>2022-09-05T06:03:31.000Z</time>
      </trkpt>
      <trkpt lat="49.75764" lon="4.809">
        <ele>237</ele>
        <time>2022-09-05T06:03:32.000Z</time>
      </trkpt>
      <trkpt lat="49.75767" lon="4.809">
        <ele>238</ele>
        <time>2022-09-05T06:03:33.000Z</time>
      </trkpt>
      <trkpt lat="49.75771" lon="4.80901">
        <ele>238</ele>
        <time>2022-09-05T06:03:34.000Z</time>
      </trkpt>
      <trkpt lat="49.75775" lon="4.80902">
        <ele>238</ele>
        <time>2022-09-05T06:03:35.000Z</time>
      </trkpt>
      <trkpt lat="49.75779" lon="4.80903">
        <ele>238</ele>
        <time>2022-09-05T06:03:36.000Z</time>
      </trkpt>
      <trkpt lat="49.75783" lon="4.80903">
        <ele>238</ele>
        <time>2022-09-05T06:03:37.000Z</time>
      </trkpt>
      <trkpt lat="49.75787" lon="4.80904">
        <ele>238</ele>
        <time>2022-09-05T06:03:38.000Z</time>
      </trkpt>
      <trkpt lat="49.7579" lon="4.80905">
        <ele>239</ele>
        <time>2022-09-05T06:03:39.000Z</time>
      </trkpt>
      <trkpt lat="49.75794" lon="4.80906">
        <ele>239</ele>
        <time>2022-09-05T06:03:40.000Z</time>
      </trkpt>
      <trkpt lat="49.75798" lon="4.80907">
        <ele>239</ele>
        <time>2022-09-05T06:03:41.000Z</time>
      </trkpt>
      <trkpt lat="49.75801" lon="4.80907">
        <ele>239</ele>
        <time>2022-09-05T06:03:42.000Z</time>
      </trkpt>
      <trkpt lat="49.75804" lon="4.80908">
        <ele>239</ele>
        <time>2022-09-05T06:03:43.000Z</time>
      </trkpt>
      <trkpt lat="49.75807" lon="4.8091">
        <ele>239</ele>
        <time>2022-09-05T06:03:44.000Z</time>
      </trkpt>
      <trkpt lat="49.75809" lon="4.80912">
        <ele>239</ele>
        <time>2022-09-05T06:03:45.000Z</time>
      </trkpt>
      <trkpt lat="49.75811" lon="4.80913">
        <ele>239</ele>
        <time>2022-09-05T06:03:46.000Z</time>
      </trkpt>
      <trkpt lat="49.75814" lon="4.80915">
        <ele>239</ele>
        <time>2022-09-05T06:03:47.000Z</time>
      </trkpt>
      <trkpt lat="49.75817" lon="4.80916">
        <ele>239</ele>
        <time>2022-09-05T06:03:48.000Z</time>
      </trkpt>
      <trkpt lat="49.75821" lon="4.80917">
        <ele>239</ele>
        <time>2022-09-05T06:03:49.000Z</time>
      </trkpt>
      <trkpt lat="49.75824" lon="4.80919">
        <ele>239</ele>
        <time>2022-09-05T06:03:50.000Z</time>
      </trkpt>
      <trkpt lat="49.75827" lon="4.80922">
        <ele>239</ele>
        <time>2022-09-05T06:03:51.000Z</time>
      </trkpt>
      <trkpt lat="49.7583" lon="4.80923">
        <ele>240</ele>
        <time>2022-09-05T06:03:52.000Z</time>
      </trkpt>
      <trkpt lat="49.75833" lon="4.80925">
        <ele>240</ele>
        <time>2022-09-05T06:03:53.000Z</time>
      </trkpt>
      <trkpt lat="49.75836" lon="4.80928">
        <ele>240</ele>
        <time>2022-09-05T06:03:54.000Z</time>
      </trkpt>
      <trkpt lat="49.75839" lon="4.80931">
        <ele>240</ele>
        <time>2022-09-05T06:03:55.000Z</time>
      </trkpt>
      <trkpt lat="49.75842" lon="4.80934">
        <ele>239</ele>
        <time>2022-09-05T06:03:56.000Z</time>
      </trkpt>
      <trkpt lat="49.75844" lon="4.80937">
        <ele>239</ele>
        <time>2022-09-05T06:03:57.000Z</time>
      </trkpt>
      <trkpt lat="49.75846" lon="4.8094">
        <ele>239</ele>
        <time>2022-09-05T06:03:58.000Z</time>
      </trkpt>
      <trkpt lat="49.75848" lon="4.80942">
        <ele>239</ele>
        <time>2022-09-05T06:03:59.000Z</time>
      </trkpt>
      <trkpt lat="49.7585" lon="4.80945">
        <ele>239</ele>
        <time>2022-09-05T06:04:00.000Z</time>
      </trkpt>
      <trkpt lat="49.75853" lon="4.80948">
        <ele>239</ele>
        <time>2022-09-05T06:04:01.000Z</time>
      </trkpt>
      <trkpt lat="49.75855" lon="4.8095">
        <ele>239</ele>
        <time>2022-09-05T06:04:02.000Z</time>
      </trkpt>
      <trkpt lat="49.75859" lon="4.80953">
        <ele>239</ele>
        <time>2022-09-05T06:04:03.000Z</time>
      </trkpt>
      <trkpt lat="49.75861" lon="4.80955">
        <ele>239</ele>
        <time>2022-09-05T06:04:04.000Z</time>
      </trkpt>
      <trkpt lat="49.75864" lon="4.80958">
        <ele>239</ele>
        <time>2022-09-05T06:04:05.000Z</time>
      </trkpt>
      <trkpt lat="49.75866" lon="4.8096">
        <ele>239</ele>
        <time>2022-09-05T06:04:06.000Z</time>
      </trkpt>
      <trkpt lat="49.75869" lon="4.80962">
        <ele>239</ele>
        <time>2022-09-05T06:04:07.000Z</time>
      </trkpt>
      <trkpt lat="49.75871" lon="4.80964">
        <ele>239</ele>
        <time>2022-09-05T06:04:08.000Z</time>
      </trkpt>
      <trkpt lat="49.75874" lon="4.80966">
        <ele>239</ele>
        <time>2022-09-05T06:04:09.000Z</time>
      </trkpt>
      <trkpt lat="49.75876" lon="4.80969">
        <ele>240</ele>
        <time>2022-09-05T06:04:10.000Z</time>
      </trkpt>
      <trkpt lat="49.75879" lon="4.80971">
        <ele>240</ele>
        <time>2022-09-05T06:04:11.000Z</time>
      </trkpt>
      <trkpt lat="49.75881" lon="4.80973">
        <ele>240</ele>
        <time>2022-09-05T06:04:12.000Z</time>
      </trkpt>
      <trkpt lat="49.75883" lon="4.80977">
        <ele>240</ele>
        <time>2022-09-05T06:04:13.000Z</time>
      </trkpt>
      <trkpt lat="49.75886" lon="4.8098">
        <ele>240</ele>
        <time>2022-09-05T06:04:14.000Z</time>
      </trkpt>
      <trkpt lat="49.75889" lon="4.80984">
        <ele>241</ele>
        <time>2022-09-05T06:04:15.000Z</time>
      </trkpt>
      <trkpt lat="49.75891" lon="4.80988">
        <ele>241</ele>
        <time>2022-09-05T06:04:16.000Z</time>
      </trkpt>
      <trkpt lat="49.75893" lon="4.80992">
        <ele>241</ele>
        <time>2022-09-05T06:04:17.000Z</time>
      </trkpt>
      <trkpt lat="49.75896" lon="4.80996">
        <ele>241</ele>
        <time>2022-09-05T06:04:18.000Z</time>
      </trkpt>
      <trkpt lat="49.75898" lon="4.81">
        <ele>241</ele>
        <time>2022-09-05T06:04:19.000Z</time>
      </trkpt>
      <trkpt lat="49.759" lon="4.81004">
        <ele>242</ele>
        <time>2022-09-05T06:04:20.000Z</time>
      </trkpt>
      <trkpt lat="49.75902" lon="4.81008">
        <ele>242</ele>
        <time>2022-09-05T06:04:21.000Z</time>
      </trkpt>
      <trkpt lat="49.75905" lon="4.81012">
        <ele>242</ele>
        <time>2022-09-05T06:04:22.000Z</time>
      </trkpt>
      <trkpt lat="49.75907" lon="4.81015">
        <ele>242</ele>
        <time>2022-09-05T06:04:23.000Z</time>
      </trkpt>
      <trkpt lat="49.75909" lon="4.81019">
        <ele>242</ele>
        <time>2022-09-05T06:04:24.000Z</time>
      </trkpt>
      <trkpt lat="49.75911" lon="4.81023">
        <ele>242</ele>
        <time>2022-09-05T06:04:25.000Z</time>
      </trkpt>
      <trkpt lat="49.75913" lon="4.81027">
        <ele>242</ele>
        <time>2022-09-05T06:04:26.000Z</time>
      </trkpt>
      <trkpt lat="49.75914" lon="4.8103">
        <ele>243</ele>
        <time>2022-09-05T06:04:27.000Z</time>
      </trkpt>
      <trkpt lat="49.75916" lon="4.81034">
        <ele>243</ele>
        <time>2022-09-05T06:04:28.000Z</time>
      </trkpt>
      <trkpt lat="49.75917" lon="4.81037">
        <ele>243</ele>
        <time>2022-09-05T06:04:29.000Z</time>
      </trkpt>
      <trkpt lat="49.75919" lon="4.8104">
        <ele>243</ele>
        <time>2022-09-05T06:04:30.000Z</time>
      </trkpt>
      <trkpt lat="49.7592" lon="4.81043">
        <ele>244</ele>
        <time>2022-09-05T06:04:31.000Z</time>
      </trkpt>
      <trkpt lat="49.75921" lon="4.81045">
        <ele>244</ele>
        <time>2022-09-05T06:04:32.000Z</time>
      </trkpt>
      <trkpt lat="49.75922" lon="4.81048">
        <ele>244</ele>
        <time>2022-09-05T06:04:33.000Z</time>
      </trkpt>
      <trkpt lat="49.75923" lon="4.81051">
        <ele>245</ele>
        <time>2022-09-05T06:04:34.000Z</time>
      </trkpt>
      <trkpt lat="49.75925" lon="4.81053">
        <ele>245</ele>
        <time>2022-09-05T06:04:35.000Z</time>
      </trkpt>
      <trkpt lat="49.75927" lon="4.81057">
        <ele>245</ele>
        <time>2022-09-05T06:04:36.000Z</time>
      </trkpt>
      <trkpt lat="49.75928" lon="4.8106">
        <ele>246</ele>
        <time>2022-09-05T06:04:37.000Z</time>
      </trkpt>
      <trkpt lat="49.7593" lon="4.81064">
        <ele>246</ele>
        <time>2022-09-05T06:04:38.000Z</time>
      </trkpt>
      <trkpt lat="49.75933" lon="4.81067">
        <ele>247</ele>
        <time>2022-09-05T06:04:39.000Z</time>
      </trkpt>
      <trkpt lat="49.75935" lon="4.81071">
        <ele>247</ele>
        <time>2022-09-05T06:04:40.000Z</time>
      </trkpt>
      <trkpt lat="49.75937" lon="4.81075">
        <ele>247</ele>
        <time>2022-09-05T06:04:41.000Z</time>
      </trkpt>
      <trkpt lat="49.75939" lon="4.81079">
        <ele>247</ele>
        <time>2022-09-05T06:04:42.000Z</time>
      </trkpt>
      <trkpt lat="49.75941" lon="4.81083">
        <ele>247</ele>
        <time>2022-09-05T06:04:43.000Z</time>
      </trkpt>
      <trkpt lat="49.75943" lon="4.81087">
        <ele>247</ele>
        <time>2022-09-05T06:04:44.000Z</time>
      </trkpt>
      <trkpt lat="49.75945" lon="4.81091">
        <ele>248</ele>
        <time>2022-09-05T06:04:45.000Z</time>
      </trkpt>
      <trkpt lat="49.75947" lon="4.81095">
        <ele>248</ele>
        <time>2022-09-05T06:04:46.000Z</time>
      </trkpt>
      <trkpt lat="49.7595" lon="4.81099">
        <ele>248</ele>
        <time>2022-09-05T06:04:47.000Z</time>
      </trkpt>
      <trkpt lat="49.75952" lon="4.81102">
        <ele>248</ele>
        <time>2022-09-05T06:04:48.000Z</time>
      </trkpt>
      <trkpt lat="49.75955" lon="4.81105">
        <ele>249</ele>
        <time>2022-09-05T06:04:49.000Z</time>
      </trkpt>
      <trkpt lat="49.75957" lon="4.81108">
        <ele>249</ele>
        <time>2022-09-05T06:04:50.000Z</time>
      </trkpt>
      <trkpt lat="49.7596" lon="4.81111">
        <ele>249</ele>
        <time>2022-09-05T06:04:51.000Z</time>
      </trkpt>
      <trkpt lat="49.75962" lon="4.81115">
        <ele>250</ele>
        <time>2022-09-05T06:04:52.000Z</time>
      </trkpt>
      <trkpt lat="49.75965" lon="4.81118">
        <ele>250</ele>
        <time>2022-09-05T06:04:53.000Z</time>
      </trkpt>
      <trkpt lat="49.75967" lon="4.81121">
        <ele>250</ele>
        <time>2022-09-05T06:04:54.000Z</time>
      </trkpt>
      <trkpt lat="49.7597" lon="4.81125">
        <ele>250</ele>
        <time>2022-09-05T06:04:55.000Z</time>
      </trkpt>
      <trkpt lat="49.75973" lon="4.81128">
        <ele>251</ele>
        <time>2022-09-05T06:04:56.000Z</time>
      </trkpt>
      <trkpt lat="49.75976" lon="4.8113">
        <ele>251</ele>
        <time>2022-09-05T06:04:57.000Z</time>
      </trkpt>
      <trkpt lat="49.7598" lon="4.81133">
        <ele>251</ele>
        <time>2022-09-05T06:04:58.000Z</time>
      </trkpt>
      <trkpt lat="49.75983" lon="4.81136">
        <ele>251</ele>
        <time>2022-09-05T06:04:59.000Z</time>
      </trkpt>
      <trkpt lat="49.75985" lon="4.81139">
        <ele>252</ele>
        <time>2022-09-05T06:05:00.000Z</time>
      </trkpt>
      <trkpt lat="49.75989" lon="4.81141">
        <ele>252</ele>
        <time>2022-09-05T06:05:01.000Z</time>
      </trkpt>
      <trkpt lat="49.75992" lon="4.81144">
        <ele>252</ele>
        <time>2022-09-05T06:05:02.000Z</time>
      </trkpt>
      <trkpt lat="49.75995" lon="4.81147">
        <ele>252</ele>
        <time>2022-09-05T06:05:03.000Z</time>
      </trkpt>
      <trkpt lat="49.75997" lon="4.81151">
        <ele>253</ele>
        <time>2022-09-05T06:05:04.000Z</time>
      </trkpt>
      <trkpt lat="49.75999" lon="4.81155">
        <ele>253</ele>
        <time>2022-09-05T06:05:05.000Z</time>
      </trkpt>
      <trkpt lat="49.76001" lon="4.81158">
        <ele>253</ele>
        <time>2022-09-05T06:05:06.000Z</time>
      </trkpt>
      <trkpt lat="49.76003" lon="4.81161">
        <ele>253</ele>
        <time>2022-09-05T06:05:07.000Z</time>
      </trkpt>
      <trkpt lat="49.76005" lon="4.81164">
        <ele>253</ele>
        <time>2022-09-05T06:05:08.000Z</time>
      </trkpt>
      <trkpt lat="49.76007" lon="4.81167">
        <ele>254</ele>
        <time>2022-09-05T06:05:09.000Z</time>
      </trkpt>
      <trkpt lat="49.7601" lon="4.8117">
        <ele>254</ele>
        <time>2022-09-05T06:05:10.000Z</time>
      </trkpt>
      <trkpt lat="49.76012" lon="4.81174">
        <ele>254</ele>
        <time>2022-09-05T06:05:11.000Z</time>
      </trkpt>
      <trkpt lat="49.76014" lon="4.81178">
        <ele>254</ele>
        <time>2022-09-05T06:05:12.000Z</time>
      </trkpt>
      <trkpt lat="49.76017" lon="4.81182">
        <ele>254</ele>
        <time>2022-09-05T06:05:13.000Z</time>
      </trkpt>
      <trkpt lat="49.7602" lon="4.81185">
        <ele>254</ele>
        <time>2022-09-05T06:05:14.000Z</time>
      </trkpt>
      <trkpt lat="49.76022" lon="4.81189">
        <ele>254</ele>
        <time>2022-09-05T06:05:15.000Z</time>
      </trkpt>
      <trkpt lat="49.76026" lon="4.81192">
        <ele>254</ele>
        <time>2022-09-05T06:05:16.000Z</time>
      </trkpt>
      <trkpt lat="49.76029" lon="4.81195">
        <ele>254</ele>
        <time>2022-09-05T06:05:17.000Z</time>
      </trkpt>
      <trkpt lat="49.76032" lon="4.81199">
        <ele>254</ele>
        <time>2022-09-05T06:05:18.000Z</time>
      </trkpt>
      <trkpt lat="49.76034" lon="4.81202">
        <ele>254</ele>
        <time>2022-09-05T06:05:19.000Z</time>
      </trkpt>
      <trkpt lat="49.76036" lon="4.81206">
        <ele>254</ele>
        <time>2022-09-05T06:05:20.000Z</time>
      </trkpt>
      <trkpt lat="49.76038" lon="4.8121">
        <ele>254</ele>
        <time>2022-09-05T06:05:21.000Z</time>
      </trkpt>
      <trkpt lat="49.76041" lon="4.81214">
        <ele>254</ele>
        <time>2022-09-05T06:05:22.000Z</time>
      </trkpt>
      <trkpt lat="49.76043" lon="4.81218">
        <ele>254</ele>
        <time>2022-09-05T06:05:23.000Z</time>
      </trkpt>
      <trkpt lat="49.76046" lon="4.81221">
        <ele>254</ele>
        <time>2022-09-05T06:05:24.000Z</time>
      </trkpt>
      <trkpt lat="49.76048" lon="4.81225">
        <ele>254</ele>
        <time>2022-09-05T06:05:25.000Z</time>
      </trkpt>
      <trkpt lat="49.76051" lon="4.81228">
        <ele>254</ele>
        <time>2022-09-05T06:05:26.000Z</time>
      </trkpt>
      <trkpt lat="49.76054" lon="4.81231">
        <ele>254</ele>
        <time>2022-09-05T06:05:27.000Z</time>
      </trkpt>
      <trkpt lat="49.76057" lon="4.81235">
        <ele>254</ele>
        <time>2022-09-05T06:05:28.000Z</time>
      </trkpt>
      <trkpt lat="49.7606" lon="4.81238">
        <ele>254</ele>
        <time>2022-09-05T06:05:29.000Z</time>
      </trkpt>
      <trkpt lat="49.76062" lon="4.81242">
        <ele>254</ele>
        <time>2022-09-05T06:05:30.000Z</time>
      </trkpt>
      <trkpt lat="49.76065" lon="4.81246">
        <ele>254</ele>
        <time>2022-09-05T06:05:31.000Z</time>
      </trkpt>
      <trkpt lat="49.76069" lon="4.81249">
        <ele>254</ele>
        <time>2022-09-05T06:05:32.000Z</time>
      </trkpt>
      <trkpt lat="49.76072" lon="4.81253">
        <ele>254</ele>
        <time>2022-09-05T06:05:33.000Z</time>
      </trkpt>
      <trkpt lat="49.76075" lon="4.81256">
        <ele>254</ele>
        <time>2022-09-05T06:05:34.000Z</time>
      </trkpt>
      <trkpt lat="49.76078" lon="4.8126">
        <ele>254</ele>
        <time>2022-09-05T06:05:35.000Z</time>
      </trkpt>
      <trkpt lat="49.76081" lon="4.81263">
        <ele>255</ele>
        <time>2022-09-05T06:05:36.000Z</time>
      </trkpt>
      <trkpt lat="49.76084" lon="4.81266">
        <ele>255</ele>
        <time>2022-09-05T06:05:37.000Z</time>
      </trkpt>
      <trkpt lat="49.76087" lon="4.81268">
        <ele>255</ele>
        <time>2022-09-05T06:05:38.000Z</time>
      </trkpt>
      <trkpt lat="49.7609" lon="4.81271">
        <ele>255</ele>
        <time>2022-09-05T06:05:39.000Z</time>
      </trkpt>
      <trkpt lat="49.76093" lon="4.81274">
        <ele>255</ele>
        <time>2022-09-05T06:05:40.000Z</time>
      </trkpt>
      <trkpt lat="49.76096" lon="4.81277">
        <ele>255</ele>
        <time>2022-09-05T06:05:41.000Z</time>
      </trkpt>
      <trkpt lat="49.76099" lon="4.81279">
        <ele>256</ele>
        <time>2022-09-05T06:05:42.000Z</time>
      </trkpt>
      <trkpt lat="49.76101" lon="4.81281">
        <ele>256</ele>
        <time>2022-09-05T06:05:43.000Z</time>
      </trkpt>
      <trkpt lat="49.76103" lon="4.81285">
        <ele>256</ele>
        <time>2022-09-05T06:05:44.000Z</time>
      </trkpt>
      <trkpt lat="49.76104" lon="4.81287">
        <ele>256</ele>
        <time>2022-09-05T06:05:45.000Z</time>
      </trkpt>
      <trkpt lat="49.76106" lon="4.81289">
        <ele>256</ele>
        <time>2022-09-05T06:05:46.000Z</time>
      </trkpt>
      <trkpt lat="49.76108" lon="4.81292">
        <ele>257</ele>
        <time>2022-09-05T06:05:47.000Z</time>
      </trkpt>
      <trkpt lat="49.7611" lon="4.81294">
        <ele>257</ele>
        <time>2022-09-05T06:05:48.000Z</time>
      </trkpt>
      <trkpt lat="49.76112" lon="4.81295">
        <ele>257</ele>
        <time>2022-09-05T06:05:49.000Z</time>
      </trkpt>
      <trkpt lat="49.76114" lon="4.81296">
        <ele>257</ele>
        <time>2022-09-05T06:05:50.000Z</time>
      </trkpt>
      <trkpt lat="49.76116" lon="4.81297">
        <ele>258</ele>
        <time>2022-09-05T06:05:51.000Z</time>
      </trkpt>
      <trkpt lat="49.76119" lon="4.813">
        <ele>258</ele>
        <time>2022-09-05T06:05:52.000Z</time>
      </trkpt>
      <trkpt lat="49.76122" lon="4.81302">
        <ele>258</ele>
        <time>2022-09-05T06:05:53.000Z</time>
      </trkpt>
      <trkpt lat="49.76124" lon="4.81305">
        <ele>258</ele>
        <time>2022-09-05T06:05:54.000Z</time>
      </trkpt>
      <trkpt lat="49.76126" lon="4.81308">
        <ele>258</ele>
        <time>2022-09-05T06:05:55.000Z</time>
      </trkpt>
      <trkpt lat="49.76127" lon="4.81311">
        <ele>258</ele>
        <time>2022-09-05T06:05:56.000Z</time>
      </trkpt>
      <trkpt lat="49.76129" lon="4.81315">
        <ele>259</ele>
        <time>2022-09-05T06:05:57.000Z</time>
      </trkpt>
      <trkpt lat="49.76129" lon="4.81318">
        <ele>259</ele>
        <time>2022-09-05T06:05:58.000Z</time>
      </trkpt>
      <trkpt lat="49.76129" lon="4.81321">
        <ele>259</ele>
        <time>2022-09-05T06:05:59.000Z</time>
      </trkpt>
      <trkpt lat="49.7613" lon="4.81323">
        <ele>259</ele>
        <time>2022-09-05T06:06:00.000Z</time>
      </trkpt>
      <trkpt lat="49.7613" lon="4.81327">
        <ele>260</ele>
        <time>2022-09-05T06:06:01.000Z</time>
      </trkpt>
      <trkpt lat="49.7613" lon="4.8133">
        <ele>260</ele>
        <time>2022-09-05T06:06:02.000Z</time>
      </trkpt>
      <trkpt lat="49.7613" lon="4.81333">
        <ele>260</ele>
        <time>2022-09-05T06:06:03.000Z</time>
      </trkpt>
      <trkpt lat="49.76131" lon="4.81336">
        <ele>261</ele>
        <time>2022-09-05T06:06:04.000Z</time>
      </trkpt>
      <trkpt lat="49.76131" lon="4.81338">
        <ele>261</ele>
        <time>2022-09-05T06:06:05.000Z</time>
      </trkpt>
      <trkpt lat="49.76131" lon="4.81341">
        <ele>261</ele>
        <time>2022-09-05T06:06:06.000Z</time>
      </trkpt>
      <trkpt lat="49.7613" lon="4.81344">
        <ele>262</ele>
        <time>2022-09-05T06:06:07.000Z</time>
      </trkpt>
      <trkpt lat="49.7613" lon="4.81346">
        <ele>262</ele>
        <time>2022-09-05T06:06:08.000Z</time>
      </trkpt>
      <trkpt lat="49.7613" lon="4.81348">
        <ele>262</ele>
        <time>2022-09-05T06:06:09.000Z</time>
      </trkpt>
      <trkpt lat="49.7613" lon="4.8135">
        <ele>263</ele>
        <time>2022-09-05T06:06:10.000Z</time>
      </trkpt>
      <trkpt lat="49.7613" lon="4.81353">
        <ele>263</ele>
        <time>2022-09-05T06:06:11.000Z</time>
      </trkpt>
      <trkpt lat="49.7613" lon="4.81355">
        <ele>263</ele>
        <time>2022-09-05T06:06:12.000Z</time>
      </trkpt>
      <trkpt lat="49.7613" lon="4.81357">
        <ele>263</ele>
        <time>2022-09-05T06:06:13.000Z</time>
      </trkpt>
      <trkpt lat="49.7613" lon="4.8136">
        <ele>264</ele>
        <time>2022-09-05T06:06:14.000Z</time>
      </trkpt>
      <trkpt lat="49.7613" lon="4.81362">
        <ele>264</ele>
        <time>2022-09-05T06:06:15.000Z</time>
      </trkpt>
      <trkpt lat="49.7613" lon="4.81365">
        <ele>264</ele>
        <time>2022-09-05T06:06:16.000Z</time>
      </trkpt>
      <trkpt lat="49.7613" lon="4.81367">
        <ele>264</ele>
        <time>2022-09-05T06:06:17.000Z</time>
      </trkpt>
      <trkpt lat="49.7613" lon="4.81369">
        <ele>264</ele>
        <time>2022-09-05T06:06:18.000Z</time>
      </trkpt>
      <trkpt lat="49.7613" lon="4.81371">
        <ele>264</ele>
        <time>2022-09-05T06:06:19.000Z</time>
      </trkpt>
      <trkpt lat="49.7613" lon="4.81374">
        <ele>265</ele>
        <time>2022-09-05T06:06:20.000Z</time>
      </trkpt>
      <trkpt lat="49.7613" lon="4.81376">
        <ele>265</ele>
        <time>2022-09-05T06:06:21.000Z</time>
      </trkpt>
      <trkpt lat="49.7613" lon="4.81378">
        <ele>265</ele>
        <time>2022-09-05T06:06:22.000Z</time>
      </trkpt>
      <trkpt lat="49.7613" lon="4.81381">
        <ele>265</ele>
        <time>2022-09-05T06:06:23.000Z</time>
      </trkpt>
      <trkpt lat="49.7613" lon="4.81384">
        <ele>265</ele>
        <time>2022-09-05T06:06:24.000Z</time>
      </trkpt>
      <trkpt lat="49.7613" lon="4.81386">
        <ele>265</ele>
        <time>2022-09-05T06:06:25.000Z</time>
      </trkpt>
      <trkpt lat="49.7613" lon="4.81389">
        <ele>265</ele>
        <time>2022-09-05T06:06:26.000Z</time>
      </trkpt>
      <trkpt lat="49.7613" lon="4.81391">
        <ele>265</ele>
        <time>2022-09-05T06:06:27.000Z</time>
      </trkpt>
      <trkpt lat="49.7613" lon="4.81394">
        <ele>265</ele>
        <time>2022-09-05T06:06:28.000Z</time>
      </trkpt>
      <trkpt lat="49.7613" lon="4.81397">
        <ele>265</ele>
        <time>2022-09-05T06:06:29.000Z</time>
      </trkpt>
      <trkpt lat="49.7613" lon="4.81401">
        <ele>265</ele>
        <time>2022-09-05T06:06:30.000Z</time>
      </trkpt>
      <trkpt lat="49.76129" lon="4.81404">
        <ele>266</ele>
        <time>2022-09-05T06:06:31.000Z</time>
      </trkpt>
      <trkpt lat="49.76129" lon="4.81407">
        <ele>266</ele>
        <time>2022-09-05T06:06:32.000Z</time>
      </trkpt>
      <trkpt lat="49.76129" lon="4.8141">
        <ele>266</ele>
        <time>2022-09-05T06:06:33.000Z</time>
      </trkpt>
      <trkpt lat="49.76129" lon="4.81413">
        <ele>266</ele>
        <time>2022-09-05T06:06:34.000Z</time>
      </trkpt>
      <trkpt lat="49.76129" lon="4.81416">
        <ele>266</ele>
        <time>2022-09-05T06:06:35.000Z</time>
      </trkpt>
      <trkpt lat="49.7613" lon="4.8142">
        <ele>266</ele>
        <time>2022-09-05T06:06:36.000Z</time>
      </trkpt>
      <trkpt lat="49.76131" lon="4.81423">
        <ele>266</ele>
        <time>2022-09-05T06:06:37.000Z</time>
      </trkpt>
      <trkpt lat="49.76132" lon="4.81425">
        <ele>266</ele>
        <time>2022-09-05T06:06:38.000Z</time>
      </trkpt>
      <trkpt lat="49.76134" lon="4.81427">
        <ele>267</ele>
        <time>2022-09-05T06:06:39.000Z</time>
      </trkpt>
      <trkpt lat="49.76136" lon="4.81428">
        <ele>267</ele>
        <time>2022-09-05T06:06:40.000Z</time>
      </trkpt>
      <trkpt lat="49.76139" lon="4.8143">
        <ele>267</ele>
        <time>2022-09-05T06:06:41.000Z</time>
      </trkpt>
      <trkpt lat="49.76141" lon="4.81431">
        <ele>267</ele>
        <time>2022-09-05T06:06:42.000Z</time>
      </trkpt>
      <trkpt lat="49.76144" lon="4.81432">
        <ele>268</ele>
        <time>2022-09-05T06:06:43.000Z</time>
      </trkpt>
      <trkpt lat="49.76145" lon="4.81432">
        <ele>268</ele>
        <time>2022-09-05T06:06:44.000Z</time>
      </trkpt>
      <trkpt lat="49.76148" lon="4.81433">
        <ele>268</ele>
        <time>2022-09-05T06:06:45.000Z</time>
      </trkpt>
      <trkpt lat="49.7615" lon="4.81433">
        <ele>268</ele>
        <time>2022-09-05T06:06:46.000Z</time>
      </trkpt>
      <trkpt lat="49.76153" lon="4.81433">
        <ele>268</ele>
        <time>2022-09-05T06:06:47.000Z</time>
      </trkpt>
      <trkpt lat="49.76156" lon="4.81434">
        <ele>269</ele>
        <time>2022-09-05T06:06:48.000Z</time>
      </trkpt>
      <trkpt lat="49.76158" lon="4.81435">
        <ele>269</ele>
        <time>2022-09-05T06:06:49.000Z</time>
      </trkpt>
      <trkpt lat="49.76161" lon="4.81436">
        <ele>269</ele>
        <time>2022-09-05T06:06:50.000Z</time>
      </trkpt>
      <trkpt lat="49.76164" lon="4.81437">
        <ele>269</ele>
        <time>2022-09-05T06:06:51.000Z</time>
      </trkpt>
      <trkpt lat="49.76166" lon="4.81438">
        <ele>269</ele>
        <time>2022-09-05T06:06:52.000Z</time>
      </trkpt>
      <trkpt lat="49.76169" lon="4.81439">
        <ele>269</ele>
        <time>2022-09-05T06:06:53.000Z</time>
      </trkpt>
      <trkpt lat="49.76171" lon="4.8144">
        <ele>269</ele>
        <time>2022-09-05T06:06:54.000Z</time>
      </trkpt>
      <trkpt lat="49.76173" lon="4.8144">
        <ele>269</ele>
        <time>2022-09-05T06:06:55.000Z</time>
      </trkpt>
      <trkpt lat="49.76176" lon="4.8144">
        <ele>269</ele>
        <time>2022-09-05T06:06:56.000Z</time>
      </trkpt>
      <trkpt lat="49.76178" lon="4.81439">
        <ele>269</ele>
        <time>2022-09-05T06:06:57.000Z</time>
      </trkpt>
      <trkpt lat="49.76179" lon="4.81439">
        <ele>269</ele>
        <time>2022-09-05T06:06:58.000Z</time>
      </trkpt>
      <trkpt lat="49.76179" lon="4.81438">
        <ele>269</ele>
        <time>2022-09-05T06:06:59.000Z</time>
      </trkpt>
      <trkpt lat="49.76179" lon="4.81438">
        <ele>269</ele>
        <time>2022-09-05T06:07:00.000Z</time>
      </trkpt>
      <trkpt lat="49.76179" lon="4.81438">
        <ele>269</ele>
        <time>2022-09-05T06:07:01.000Z</time>
      </trkpt>
      <trkpt lat="49.7618" lon="4.81438">
        <ele>269</ele>
        <time>2022-09-05T06:07:02.000Z</time>
      </trkpt>
      <trkpt lat="49.7618" lon="4.81438">
        <ele>269</ele>
        <time>2022-09-05T06:07:03.000Z</time>
      </trkpt>
      <trkpt lat="49.7618" lon="4.81438">
        <ele>269</ele>
        <time>2022-09-05T06:07:04.000Z</time>
      </trkpt>
      <trkpt lat="49.7618" lon="4.81438">
        <ele>269</ele>
        <time>2022-09-05T06:07:05.000Z</time>
      </trkpt>
      <trkpt lat="49.7618" lon="4.81438">
        <ele>269</ele>
        <time>2022-09-05T06:07:06.000Z</time>
      </trkpt>
      <trkpt lat="49.7618" lon="4.81438">
        <ele>269</ele>
        <time>2022-09-05T06:07:07.000Z</time>
      </trkpt>
      <trkpt lat="49.7618" lon="4.81438">
        <ele>269</ele>
        <time>2022-09-05T06:07:08.000Z</time>
      </trkpt>
      <trkpt lat="49.7618" lon="4.81438">
        <ele>269</ele>
        <time>2022-09-05T06:07:09.000Z</time>
      </trkpt>
      <trkpt lat="49.7618" lon="4.81438">
        <ele>269</ele>
        <time>2022-09-05T06:07:10.000Z</time>
      </trkpt>
      <trkpt lat="49.7618" lon="4.81438">
        <ele>269</ele>
        <time>2022-09-05T06:07:11.000Z</time>
      </trkpt>
      <trkpt lat="49.7618" lon="4.81438">
        <ele>269</ele>
        <time>2022-09-05T06:07:12.000Z</time>
      </trkpt>
      <trkpt lat="49.7618" lon="4.81438">
        <ele>269</ele>
        <time>2022-09-05T06:07:13.000Z</time>
      </trkpt>
      <trkpt lat="49.7618" lon="4.81438">
        <ele>269</ele>
        <time>2022-09-05T06:07:14.000Z</time>
      </trkpt>
      <trkpt lat="49.7618" lon="4.81438">
        <ele>269</ele>
        <time>2022-09-05T06:07:15.000Z</time>
      </trkpt>
      <trkpt lat="49.7618" lon="4.81438">
        <ele>269</ele>
        <time>2022-09-05T06:07:16.000Z</time>
      </trkpt>
      <trkpt lat="49.7618" lon="4.81438">
        <ele>269</ele>
        <time>2022-09-05T06:07:17.000Z</time>
      </trkpt>
      <trkpt lat="49.7618" lon="4.81438">
        <ele>269</ele>
        <time>2022-09-05T06:07:18.000Z</time>
      </trkpt>
      <trkpt lat="49.7618" lon="4.81438">
        <ele>269</ele>
        <time>2022-09-05T06:07:19.000Z</time>
      </trkpt>
      <trkpt lat="49.7618" lon="4.81438">
        <ele>269</ele>
        <time>2022-09-05T06:07:20.000Z</time>
      </trkpt>
      <trkpt lat="49.7618" lon="4.81438">
        <ele>269</ele>
        <time>2022-09-05T06:07:21.000Z</time>
      </trkpt>
      <trkpt lat="49.7618" lon="4.81438">
        <ele>269</ele>
        <time>2022-09-05T06:07:22.000Z</time>
      </trkpt>
      <trkpt lat="49.7618" lon="4.81438">
        <ele>269</ele>
        <time>2022-09-05T06:07:23.000Z</time>
      </trkpt>
      <trkpt lat="49.7618" lon="4.81438">
        <ele>269</ele>
        <time>2022-09-05T06:07:24.000Z</time>
      </trkpt>
      <trkpt lat="49.7618" lon="4.81438">
        <ele>269</ele>
        <time>2022-09-05T06:07:25.000Z</time>
      </trkpt>
      <trkpt lat="49.7618" lon="4.81438">
        <ele>269</ele>
        <time>2022-09-05T06:07:26.000Z</time>
      </trkpt>
      <trkpt lat="49.7618" lon="4.81438">
        <ele>269</ele>
        <time>2022-09-05T06:07:27.000Z</time>
      </trkpt>
      <trkpt lat="49.7618" lon="4.81438">
        <ele>269</ele>
        <time>2022-09-05T06:07:28.000Z</time>
      </trkpt>
      <trkpt lat="49.7618" lon="4.81438">
        <ele>269</ele>
        <time>2022-09-05T06:07:29.000Z</time>
      </trkpt>
      <trkpt lat="49.7618" lon="4.81437">
        <ele>269</ele>
        <time>2022-09-05T06:07:30.000Z</time>
      </trkpt>
      <trkpt lat="49.76181" lon="4.81435">
        <ele>269</ele>
        <time>2022-09-05T06:07:31.000Z</time>
      </trkpt>
      <trkpt lat="49.76181" lon="4.81431">
        <ele>269</ele>
        <time>2022-09-05T06:07:32.000Z</time>
      </trkpt>
      <trkpt lat="49.76181" lon="4.81427">
        <ele>269</ele>
        <time>2022-09-05T06:07:33.000Z</time>
      </trkpt>
      <trkpt lat="49.76181" lon="4.8142">
        <ele>268</ele>
        <time>2022-09-05T06:07:34.000Z</time>
      </trkpt>
      <trkpt lat="49.76181" lon="4.81414">
        <ele>268</ele>
        <time>2022-09-05T06:07:35.000Z</time>
      </trkpt>
      <trkpt lat="49.76181" lon="4.81406">
        <ele>268</ele>
        <time>2022-09-05T06:07:36.000Z</time>
      </trkpt>
      <trkpt lat="49.76181" lon="4.81398">
        <ele>268</ele>
        <time>2022-09-05T06:07:37.000Z</time>
      </trkpt>
      <trkpt lat="49.76182" lon="4.81389">
        <ele>268</ele>
        <time>2022-09-05T06:07:38.000Z</time>
      </trkpt>
      <trkpt lat="49.76182" lon="4.8138">
        <ele>268</ele>
        <time>2022-09-05T06:07:39.000Z</time>
      </trkpt>
      <trkpt lat="49.76182" lon="4.8137">
        <ele>268</ele>
        <time>2022-09-05T06:07:40.000Z</time>
      </trkpt>
      <trkpt lat="49.76182" lon="4.81359">
        <ele>268</ele>
        <time>2022-09-05T06:07:41.000Z</time>
      </trkpt>
      <trkpt lat="49.76182" lon="4.81349">
        <ele>267</ele>
        <time>2022-09-05T06:07:42.000Z</time>
      </trkpt>
      <trkpt lat="49.76183" lon="4.81337">
        <ele>267</ele>
        <time>2022-09-05T06:07:43.000Z</time>
      </trkpt>
      <trkpt lat="49.76184" lon="4.81324">
        <ele>267</ele>
        <time>2022-09-05T06:07:44.000Z</time>
      </trkpt>
      <trkpt lat="49.76184" lon="4.81312">
        <ele>267</ele>
        <time>2022-09-05T06:07:45.000Z</time>
      </trkpt>
      <trkpt lat="49.76185" lon="4.81301">
        <ele>267</ele>
        <time>2022-09-05T06:07:46.000Z</time>
      </trkpt>
      <trkpt lat="49.76187" lon="4.81291">
        <ele>267</ele>
        <time>2022-09-05T06:07:47.000Z</time>
      </trkpt>
      <trkpt lat="49.76187" lon="4.81283">
        <ele>267</ele>
        <time>2022-09-05T06:07:48.000Z</time>
      </trkpt>
      <trkpt lat="49.76186" lon="4.81275">
        <ele>267</ele>
        <time>2022-09-05T06:07:49.000Z</time>
      </trkpt>
      <trkpt lat="49.76187" lon="4.81267">
        <ele>267</ele>
        <time>2022-09-05T06:07:50.000Z</time>
      </trkpt>
      <trkpt lat="49.76187" lon="4.8126">
        <ele>267</ele>
        <time>2022-09-05T06:07:51.000Z</time>
      </trkpt>
      <trkpt lat="49.76188" lon="4.81252">
        <ele>267</ele>
        <time>2022-09-05T06:07:52.000Z</time>
      </trkpt>
      <trkpt lat="49.76188" lon="4.81244">
        <ele>267</ele>
        <time>2022-09-05T06:07:53.000Z</time>
      </trkpt>
      <trkpt lat="49.76189" lon="4.81236">
        <ele>267</ele>
        <time>2022-09-05T06:07:54.000Z</time>
      </trkpt>
      <trkpt lat="49.7619" lon="4.81228">
        <ele>267</ele>
        <time>2022-09-05T06:07:55.000Z</time>
      </trkpt>
      <trkpt lat="49.7619" lon="4.8122">
        <ele>267</ele>
        <time>2022-09-05T06:07:56.000Z</time>
      </trkpt>
      <trkpt lat="49.76191" lon="4.81212">
        <ele>267</ele>
        <time>2022-09-05T06:07:57.000Z</time>
      </trkpt>
      <trkpt lat="49.76191" lon="4.81205">
        <ele>267</ele>
        <time>2022-09-05T06:07:58.000Z</time>
      </trkpt>
      <trkpt lat="49.76191" lon="4.81197">
        <ele>267</ele>
        <time>2022-09-05T06:07:59.000Z</time>
      </trkpt>
      <trkpt lat="49.76192" lon="4.81189">
        <ele>267</ele>
        <time>2022-09-05T06:08:00.000Z</time>
      </trkpt>
      <trkpt lat="49.76193" lon="4.81182">
        <ele>267</ele>
        <time>2022-09-05T06:08:01.000Z</time>
      </trkpt>
      <trkpt lat="49.76193" lon="4.81174">
        <ele>267</ele>
        <time>2022-09-05T06:08:02.000Z</time>
      </trkpt>
      <trkpt lat="49.76193" lon="4.81167">
        <ele>267</ele>
        <time>2022-09-05T06:08:03.000Z</time>
      </trkpt>
      <trkpt lat="49.76193" lon="4.81159">
        <ele>267</ele>
        <time>2022-09-05T06:08:04.000Z</time>
      </trkpt>
      <trkpt lat="49.76194" lon="4.81152">
        <ele>267</ele>
        <time>2022-09-05T06:08:05.000Z</time>
      </trkpt>
      <trkpt lat="49.76195" lon="4.81144">
        <ele>267</ele>
        <time>2022-09-05T06:08:06.000Z</time>
      </trkpt>
      <trkpt lat="49.76196" lon="4.81137">
        <ele>267</ele>
        <time>2022-09-05T06:08:07.000Z</time>
      </trkpt>
      <trkpt lat="49.76197" lon="4.81129">
        <ele>267</ele>
        <time>2022-09-05T06:08:08.000Z</time>
      </trkpt>
      <trkpt lat="49.76197" lon="4.81121">
        <ele>267</ele>
        <time>2022-09-05T06:08:09.000Z</time>
      </trkpt>
      <trkpt lat="49.76197" lon="4.81112">
        <ele>267</ele>
        <time>2022-09-05T06:08:10.000Z</time>
      </trkpt>
      <trkpt lat="49.76197" lon="4.81104">
        <ele>267</ele>
        <time>2022-09-05T06:08:11.000Z</time>
      </trkpt>
      <trkpt lat="49.76197" lon="4.81095">
        <ele>267</ele>
        <time>2022-09-05T06:08:12.000Z</time>
      </trkpt>
      <trkpt lat="49.76197" lon="4.81085">
        <ele>267</ele>
        <time>2022-09-05T06:08:13.000Z</time>
      </trkpt>
      <trkpt lat="49.76197" lon="4.81074">
        <ele>266</ele>
        <time>2022-09-05T06:08:14.000Z</time>
      </trkpt>
      <trkpt lat="49.76196" lon="4.81063">
        <ele>266</ele>
        <time>2022-09-05T06:08:15.000Z</time>
      </trkpt>
      <trkpt lat="49.76196" lon="4.81052">
        <ele>266</ele>
        <time>2022-09-05T06:08:16.000Z</time>
      </trkpt>
      <trkpt lat="49.76196" lon="4.81042">
        <ele>266</ele>
        <time>2022-09-05T06:08:17.000Z</time>
      </trkpt>
      <trkpt lat="49.76196" lon="4.81033">
        <ele>266</ele>
        <time>2022-09-05T06:08:18.000Z</time>
      </trkpt>
      <trkpt lat="49.76196" lon="4.81023">
        <ele>267</ele>
        <time>2022-09-05T06:08:19.000Z</time>
      </trkpt>
      <trkpt lat="49.76196" lon="4.81013">
        <ele>267</ele>
        <time>2022-09-05T06:08:20.000Z</time>
      </trkpt>
      <trkpt lat="49.76197" lon="4.81004">
        <ele>267</ele>
        <time>2022-09-05T06:08:21.000Z</time>
      </trkpt>
      <trkpt lat="49.76198" lon="4.80994">
        <ele>267</ele>
        <time>2022-09-05T06:08:22.000Z</time>
      </trkpt>
      <trkpt lat="49.76198" lon="4.80985">
        <ele>267</ele>
        <time>2022-09-05T06:08:23.000Z</time>
      </trkpt>
      <trkpt lat="49.76199" lon="4.80977">
        <ele>267</ele>
        <time>2022-09-05T06:08:24.000Z</time>
      </trkpt>
      <trkpt lat="49.76199" lon="4.80968">
        <ele>267</ele>
        <time>2022-09-05T06:08:25.000Z</time>
      </trkpt>
      <trkpt lat="49.76199" lon="4.8096">
        <ele>267</ele>
        <time>2022-09-05T06:08:26.000Z</time>
      </trkpt>
      <trkpt lat="49.762" lon="4.80952">
        <ele>268</ele>
        <time>2022-09-05T06:08:27.000Z</time>
      </trkpt>
      <trkpt lat="49.762" lon="4.80945">
        <ele>268</ele>
        <time>2022-09-05T06:08:28.000Z</time>
      </trkpt>
      <trkpt lat="49.76199" lon="4.80938">
        <ele>268</ele>
        <time>2022-09-05T06:08:29.000Z</time>
      </trkpt>
      <trkpt lat="49.76199" lon="4.80931">
        <ele>268</ele>
        <time>2022-09-05T06:08:30.000Z</time>
      </trkpt>
      <trkpt lat="49.762" lon="4.80923">
        <ele>268</ele>
        <time>2022-09-05T06:08:31.000Z</time>
      </trkpt>
      <trkpt lat="49.76202" lon="4.80918">
        <ele>268</ele>
        <time>2022-09-05T06:08:32.000Z</time>
      </trkpt>
      <trkpt lat="49.76204" lon="4.80915">
        <ele>268</ele>
        <time>2022-09-05T06:08:33.000Z</time>
      </trkpt>
      <trkpt lat="49.76207" lon="4.80913">
        <ele>268</ele>
        <time>2022-09-05T06:08:34.000Z</time>
      </trkpt>
      <trkpt lat="49.76211" lon="4.8091">
        <ele>268</ele>
        <time>2022-09-05T06:08:35.000Z</time>
      </trkpt>
      <trkpt lat="49.76215" lon="4.80908">
        <ele>268</ele>
        <time>2022-09-05T06:08:36.000Z</time>
      </trkpt>
      <trkpt lat="49.76218" lon="4.80907">
        <ele>268</ele>
        <time>2022-09-05T06:08:37.000Z</time>
      </trkpt>
      <trkpt lat="49.76222" lon="4.80908">
        <ele>268</ele>
        <time>2022-09-05T06:08:38.000Z</time>
      </trkpt>
      <trkpt lat="49.76225" lon="4.80909">
        <ele>268</ele>
        <time>2022-09-05T06:08:39.000Z</time>
      </trkpt>
      <trkpt lat="49.76227" lon="4.8091">
        <ele>268</ele>
        <time>2022-09-05T06:08:40.000Z</time>
      </trkpt>
      <trkpt lat="49.76228" lon="4.8091">
        <ele>268</ele>
        <time>2022-09-05T06:08:41.000Z</time>
      </trkpt>
      <trkpt lat="49.7623" lon="4.80911">
        <ele>268</ele>
        <time>2022-09-05T06:08:42.000Z</time>
      </trkpt>
      <trkpt lat="49.76231" lon="4.80911">
        <ele>268</ele>
        <time>2022-09-05T06:08:43.000Z</time>
      </trkpt>
      <trkpt lat="49.76233" lon="4.80912">
        <ele>269</ele>
        <time>2022-09-05T06:08:44.000Z</time>
      </trkpt>
      <trkpt lat="49.76236" lon="4.80913">
        <ele>269</ele>
        <time>2022-09-05T06:08:45.000Z</time>
      </trkpt>
      <trkpt lat="49.76238" lon="4.80914">
        <ele>269</ele>
        <time>2022-09-05T06:08:46.000Z</time>
      </trkpt>
      <trkpt lat="49.76241" lon="4.80915">
        <ele>269</ele>
        <time>2022-09-05T06:08:47.000Z</time>
      </trkpt>
      <trkpt lat="49.76244" lon="4.80916">
        <ele>270</ele>
        <time>2022-09-05T06:08:48.000Z</time>
      </trkpt>
      <trkpt lat="49.76247" lon="4.80918">
        <ele>270</ele>
        <time>2022-09-05T06:08:49.000Z</time>
      </trkpt>
      <trkpt lat="49.76249" lon="4.80919">
        <ele>270</ele>
        <time>2022-09-05T06:08:50.000Z</time>
      </trkpt>
      <trkpt lat="49.76252" lon="4.8092">
        <ele>270</ele>
        <time>2022-09-05T06:08:51.000Z</time>
      </trkpt>
      <trkpt lat="49.76255" lon="4.80921">
        <ele>270</ele>
        <time>2022-09-05T06:08:52.000Z</time>
      </trkpt>
      <trkpt lat="49.76257" lon="4.80923">
        <ele>271</ele>
        <time>2022-09-05T06:08:53.000Z</time>
      </trkpt>
      <trkpt lat="49.7626" lon="4.80924">
        <ele>271</ele>
        <time>2022-09-05T06:08:54.000Z</time>
      </trkpt>
      <trkpt lat="49.76263" lon="4.80926">
        <ele>271</ele>
        <time>2022-09-05T06:08:55.000Z</time>
      </trkpt>
      <trkpt lat="49.76266" lon="4.80927">
        <ele>271</ele>
        <time>2022-09-05T06:08:56.000Z</time>
      </trkpt>
      <trkpt lat="49.76269" lon="4.80928">
        <ele>271</ele>
        <time>2022-09-05T06:08:57.000Z</time>
      </trkpt>
      <trkpt lat="49.76272" lon="4.80929">
        <ele>271</ele>
        <time>2022-09-05T06:08:58.000Z</time>
      </trkpt>
      <trkpt lat="49.76275" lon="4.80931">
        <ele>271</ele>
        <time>2022-09-05T06:08:59.000Z</time>
      </trkpt>
      <trkpt lat="49.76278" lon="4.80933">
        <ele>271</ele>
        <time>2022-09-05T06:09:00.000Z</time>
      </trkpt>
      <trkpt lat="49.76281" lon="4.80934">
        <ele>271</ele>
        <time>2022-09-05T06:09:01.000Z</time>
      </trkpt>
      <trkpt lat="49.76284" lon="4.80936">
        <ele>271</ele>
        <time>2022-09-05T06:09:02.000Z</time>
      </trkpt>
      <trkpt lat="49.76287" lon="4.80937">
        <ele>271</ele>
        <time>2022-09-05T06:09:03.000Z</time>
      </trkpt>
      <trkpt lat="49.76291" lon="4.80939">
        <ele>271</ele>
        <time>2022-09-05T06:09:04.000Z</time>
      </trkpt>
      <trkpt lat="49.76294" lon="4.8094">
        <ele>271</ele>
        <time>2022-09-05T06:09:05.000Z</time>
      </trkpt>
      <trkpt lat="49.76297" lon="4.80941">
        <ele>271</ele>
        <time>2022-09-05T06:09:06.000Z</time>
      </trkpt>
      <trkpt lat="49.763" lon="4.80941">
        <ele>272</ele>
        <time>2022-09-05T06:09:07.000Z</time>
      </trkpt>
      <trkpt lat="49.76303" lon="4.80939">
        <ele>272</ele>
        <time>2022-09-05T06:09:08.000Z</time>
      </trkpt>
      <trkpt lat="49.76304" lon="4.80935">
        <ele>272</ele>
        <time>2022-09-05T06:09:09.000Z</time>
      </trkpt>
      <trkpt lat="49.76305" lon="4.8093">
        <ele>272</ele>
        <time>2022-09-05T06:09:10.000Z</time>
      </trkpt>
      <trkpt lat="49.76306" lon="4.80925">
        <ele>272</ele>
        <time>2022-09-05T06:09:11.000Z</time>
      </trkpt>
      <trkpt lat="49.76307" lon="4.80919">
        <ele>272</ele>
        <time>2022-09-05T06:09:12.000Z</time>
      </trkpt>
      <trkpt lat="49.76308" lon="4.80913">
        <ele>272</ele>
        <time>2022-09-05T06:09:13.000Z</time>
      </trkpt>
      <trkpt lat="49.76308" lon="4.80907">
        <ele>272</ele>
        <time>2022-09-05T06:09:14.000Z</time>
      </trkpt>
      <trkpt lat="49.76309" lon="4.80903">
        <ele>272</ele>
        <time>2022-09-05T06:09:15.000Z</time>
      </trkpt>
      <trkpt lat="49.7631" lon="4.80898">
        <ele>272</ele>
        <time>2022-09-05T06:09:16.000Z</time>
      </trkpt>
      <trkpt lat="49.76311" lon="4.80893">
        <ele>272</ele>
        <time>2022-09-05T06:09:17.000Z</time>
      </trkpt>
      <trkpt lat="49.76311" lon="4.80887">
        <ele>272</ele>
        <time>2022-09-05T06:09:18.000Z</time>
      </trkpt>
      <trkpt lat="49.76312" lon="4.80882">
        <ele>272</ele>
        <time>2022-09-05T06:09:19.000Z</time>
      </trkpt>
      <trkpt lat="49.76313" lon="4.80876">
        <ele>272</ele>
        <time>2022-09-05T06:09:20.000Z</time>
      </trkpt>
      <trkpt lat="49.76313" lon="4.80871">
        <ele>272</ele>
        <time>2022-09-05T06:09:21.000Z</time>
      </trkpt>
      <trkpt lat="49.76313" lon="4.80865">
        <ele>272</ele>
        <time>2022-09-05T06:09:22.000Z</time>
      </trkpt>
      <trkpt lat="49.76314" lon="4.8086">
        <ele>272</ele>
        <time>2022-09-05T06:09:23.000Z</time>
      </trkpt>
      <trkpt lat="49.76314" lon="4.80854">
        <ele>273</ele>
        <time>2022-09-05T06:09:24.000Z</time>
      </trkpt>
      <trkpt lat="49.76314" lon="4.80848">
        <ele>273</ele>
        <time>2022-09-05T06:09:25.000Z</time>
      </trkpt>
      <trkpt lat="49.76314" lon="4.80842">
        <ele>273</ele>
        <time>2022-09-05T06:09:26.000Z</time>
      </trkpt>
      <trkpt lat="49.76314" lon="4.80835">
        <ele>273</ele>
        <time>2022-09-05T06:09:27.000Z</time>
      </trkpt>
      <trkpt lat="49.76313" lon="4.80829">
        <ele>273</ele>
        <time>2022-09-05T06:09:28.000Z</time>
      </trkpt>
      <trkpt lat="49.76313" lon="4.80822">
        <ele>273</ele>
        <time>2022-09-05T06:09:29.000Z</time>
      </trkpt>
      <trkpt lat="49.76312" lon="4.80814">
        <ele>273</ele>
        <time>2022-09-05T06:09:30.000Z</time>
      </trkpt>
      <trkpt lat="49.76312" lon="4.80807">
        <ele>273</ele>
        <time>2022-09-05T06:09:31.000Z</time>
      </trkpt>
      <trkpt lat="49.76312" lon="4.80799">
        <ele>273</ele>
        <time>2022-09-05T06:09:32.000Z</time>
      </trkpt>
      <trkpt lat="49.76312" lon="4.80792">
        <ele>273</ele>
        <time>2022-09-05T06:09:33.000Z</time>
      </trkpt>
      <trkpt lat="49.76311" lon="4.80785">
        <ele>272</ele>
        <time>2022-09-05T06:09:34.000Z</time>
      </trkpt>
      <trkpt lat="49.76311" lon="4.80778">
        <ele>272</ele>
        <time>2022-09-05T06:09:35.000Z</time>
      </trkpt>
      <trkpt lat="49.76312" lon="4.80771">
        <ele>272</ele>
        <time>2022-09-05T06:09:36.000Z</time>
      </trkpt>
      <trkpt lat="49.76312" lon="4.80763">
        <ele>272</ele>
        <time>2022-09-05T06:09:37.000Z</time>
      </trkpt>
      <trkpt lat="49.76313" lon="4.80756">
        <ele>272</ele>
        <time>2022-09-05T06:09:38.000Z</time>
      </trkpt>
      <trkpt lat="49.76315" lon="4.80749">
        <ele>272</ele>
        <time>2022-09-05T06:09:39.000Z</time>
      </trkpt>
      <trkpt lat="49.76317" lon="4.80742">
        <ele>272</ele>
        <time>2022-09-05T06:09:40.000Z</time>
      </trkpt>
      <trkpt lat="49.76319" lon="4.80735">
        <ele>272</ele>
        <time>2022-09-05T06:09:41.000Z</time>
      </trkpt>
      <trkpt lat="49.76322" lon="4.80729">
        <ele>272</ele>
        <time>2022-09-05T06:09:42.000Z</time>
      </trkpt>
      <trkpt lat="49.76325" lon="4.80723">
        <ele>272</ele>
        <time>2022-09-05T06:09:43.000Z</time>
      </trkpt>
      <trkpt lat="49.76328" lon="4.80717">
        <ele>272</ele>
        <time>2022-09-05T06:09:44.000Z</time>
      </trkpt>
      <trkpt lat="49.76332" lon="4.80711">
        <ele>272</ele>
        <time>2022-09-05T06:09:45.000Z</time>
      </trkpt>
      <trkpt lat="49.76335" lon="4.80705">
        <ele>272</ele>
        <time>2022-09-05T06:09:46.000Z</time>
      </trkpt>
      <trkpt lat="49.76338" lon="4.80699">
        <ele>272</ele>
        <time>2022-09-05T06:09:47.000Z</time>
      </trkpt>
      <trkpt lat="49.76341" lon="4.80693">
        <ele>272</ele>
        <time>2022-09-05T06:09:48.000Z</time>
      </trkpt>
      <trkpt lat="49.76345" lon="4.80687">
        <ele>272</ele>
        <time>2022-09-05T06:09:49.000Z</time>
      </trkpt>
      <trkpt lat="49.76348" lon="4.80681">
        <ele>272</ele>
        <time>2022-09-05T06:09:50.000Z</time>
      </trkpt>
      <trkpt lat="49.76352" lon="4.80675">
        <ele>271</ele>
        <time>2022-09-05T06:09:51.000Z</time>
      </trkpt>
      <trkpt lat="49.76355" lon="4.80669">
        <ele>271</ele>
        <time>2022-09-05T06:09:52.000Z</time>
      </trkpt>
      <trkpt lat="49.76359" lon="4.80663">
        <ele>271</ele>
        <time>2022-09-05T06:09:53.000Z</time>
      </trkpt>
      <trkpt lat="49.76364" lon="4.80657">
        <ele>271</ele>
        <time>2022-09-05T06:09:54.000Z</time>
      </trkpt>
      <trkpt lat="49.76368" lon="4.80652">
        <ele>271</ele>
        <time>2022-09-05T06:09:55.000Z</time>
      </trkpt>
      <trkpt lat="49.76373" lon="4.80647">
        <ele>271</ele>
        <time>2022-09-05T06:09:56.000Z</time>
      </trkpt>
      <trkpt lat="49.76378" lon="4.80643">
        <ele>271</ele>
        <time>2022-09-05T06:09:57.000Z</time>
      </trkpt>
      <trkpt lat="49.76383" lon="4.80639">
        <ele>271</ele>
        <time>2022-09-05T06:09:58.000Z</time>
      </trkpt>
      <trkpt lat="49.76388" lon="4.80635">
        <ele>271</ele>
        <time>2022-09-05T06:09:59.000Z</time>
      </trkpt>
      <trkpt lat="49.76393" lon="4.80632">
        <ele>271</ele>
        <time>2022-09-05T06:10:00.000Z</time>
      </trkpt>
      <trkpt lat="49.76398" lon="4.80628">
        <ele>271</ele>
        <time>2022-09-05T06:10:01.000Z</time>
      </trkpt>
      <trkpt lat="49.76403" lon="4.80625">
        <ele>271</ele>
        <time>2022-09-05T06:10:02.000Z</time>
      </trkpt>
      <trkpt lat="49.76408" lon="4.80621">
        <ele>271</ele>
        <time>2022-09-05T06:10:03.000Z</time>
      </trkpt>
      <trkpt lat="49.76413" lon="4.80617">
        <ele>271</ele>
        <time>2022-09-05T06:10:04.000Z</time>
      </trkpt>
      <trkpt lat="49.76418" lon="4.80614">
        <ele>271</ele>
        <time>2022-09-05T06:10:05.000Z</time>
      </trkpt>
      <trkpt lat="49.76424" lon="4.8061">
        <ele>271</ele>
        <time>2022-09-05T06:10:06.000Z</time>
      </trkpt>
      <trkpt lat="49.76429" lon="4.80606">
        <ele>271</ele>
        <time>2022-09-05T06:10:07.000Z</time>
      </trkpt>
      <trkpt lat="49.76435" lon="4.80602">
        <ele>271</ele>
        <time>2022-09-05T06:10:08.000Z</time>
      </trkpt>
      <trkpt lat="49.76441" lon="4.80598">
        <ele>271</ele>
        <time>2022-09-05T06:10:09.000Z</time>
      </trkpt>
      <trkpt lat="49.76447" lon="4.80594">
        <ele>271</ele>
        <time>2022-09-05T06:10:10.000Z</time>
      </trkpt>
      <trkpt lat="49.76452" lon="4.8059">
        <ele>271</ele>
        <time>2022-09-05T06:10:11.000Z</time>
      </trkpt>
      <trkpt lat="49.76457" lon="4.80586">
        <ele>271</ele>
        <time>2022-09-05T06:10:12.000Z</time>
      </trkpt>
      <trkpt lat="49.76463" lon="4.80582">
        <ele>271</ele>
        <time>2022-09-05T06:10:13.000Z</time>
      </trkpt>
      <trkpt lat="49.76468" lon="4.80577">
        <ele>271</ele>
        <time>2022-09-05T06:10:14.000Z</time>
      </trkpt>
      <trkpt lat="49.76473" lon="4.80573">
        <ele>271</ele>
        <time>2022-09-05T06:10:15.000Z</time>
      </trkpt>
      <trkpt lat="49.76478" lon="4.80569">
        <ele>271</ele>
        <time>2022-09-05T06:10:16.000Z</time>
      </trkpt>
      <trkpt lat="49.76483" lon="4.80565">
        <ele>271</ele>
        <time>2022-09-05T06:10:17.000Z</time>
      </trkpt>
      <trkpt lat="49.76488" lon="4.8056">
        <ele>271</ele>
        <time>2022-09-05T06:10:18.000Z</time>
      </trkpt>
      <trkpt lat="49.76493" lon="4.80556">
        <ele>271</ele>
        <time>2022-09-05T06:10:19.000Z</time>
      </trkpt>
      <trkpt lat="49.76498" lon="4.80552">
        <ele>271</ele>
        <time>2022-09-05T06:10:20.000Z</time>
      </trkpt>
      <trkpt lat="49.76502" lon="4.80547">
        <ele>271</ele>
        <time>2022-09-05T06:10:21.000Z</time>
      </trkpt>
      <trkpt lat="49.76506" lon="4.80543">
        <ele>271</ele>
        <time>2022-09-05T06:10:22.000Z</time>
      </trkpt>
      <trkpt lat="49.7651" lon="4.80539">
        <ele>271</ele>
        <time>2022-09-05T06:10:23.000Z</time>
      </trkpt>
      <trkpt lat="49.76513" lon="4.80535">
        <ele>271</ele>
        <time>2022-09-05T06:10:24.000Z</time>
      </trkpt>
      <trkpt lat="49.76517" lon="4.80532">
        <ele>271</ele>
        <time>2022-09-05T06:10:25.000Z</time>
      </trkpt>
      <trkpt lat="49.76519" lon="4.80529">
        <ele>271</ele>
        <time>2022-09-05T06:10:26.000Z</time>
      </trkpt>
      <trkpt lat="49.76521" lon="4.80526">
        <ele>271</ele>
        <time>2022-09-05T06:10:27.000Z</time>
      </trkpt>
      <trkpt lat="49.76523" lon="4.80523">
        <ele>271</ele>
        <time>2022-09-05T06:10:28.000Z</time>
      </trkpt>
      <trkpt lat="49.76526" lon="4.80521">
        <ele>271</ele>
        <time>2022-09-05T06:10:29.000Z</time>
      </trkpt>
      <trkpt lat="49.76528" lon="4.8052">
        <ele>271</ele>
        <time>2022-09-05T06:10:30.000Z</time>
      </trkpt>
      <trkpt lat="49.7653" lon="4.8052">
        <ele>271</ele>
        <time>2022-09-05T06:10:31.000Z</time>
      </trkpt>
      <trkpt lat="49.76532" lon="4.80521">
        <ele>271</ele>
        <time>2022-09-05T06:10:32.000Z</time>
      </trkpt>
      <trkpt lat="49.76534" lon="4.80521">
        <ele>271</ele>
        <time>2022-09-05T06:10:33.000Z</time>
      </trkpt>
      <trkpt lat="49.76537" lon="4.80522">
        <ele>271</ele>
        <time>2022-09-05T06:10:34.000Z</time>
      </trkpt>
      <trkpt lat="49.76541" lon="4.80521">
        <ele>271</ele>
        <time>2022-09-05T06:10:35.000Z</time>
      </trkpt>
      <trkpt lat="49.76545" lon="4.8052">
        <ele>271</ele>
        <time>2022-09-05T06:10:36.000Z</time>
      </trkpt>
      <trkpt lat="49.76548" lon="4.80519">
        <ele>272</ele>
        <time>2022-09-05T06:10:37.000Z</time>
      </trkpt>
      <trkpt lat="49.76551" lon="4.80518">
        <ele>272</ele>
        <time>2022-09-05T06:10:38.000Z</time>
      </trkpt>
      <trkpt lat="49.76554" lon="4.80517">
        <ele>272</ele>
        <time>2022-09-05T06:10:39.000Z</time>
      </trkpt>
      <trkpt lat="49.76557" lon="4.80516">
        <ele>272</ele>
        <time>2022-09-05T06:10:40.000Z</time>
      </trkpt>
      <trkpt lat="49.7656" lon="4.80515">
        <ele>272</ele>
        <time>2022-09-05T06:10:41.000Z</time>
      </trkpt>
      <trkpt lat="49.76563" lon="4.80513">
        <ele>272</ele>
        <time>2022-09-05T06:10:42.000Z</time>
      </trkpt>
      <trkpt lat="49.76566" lon="4.80512">
        <ele>272</ele>
        <time>2022-09-05T06:10:43.000Z</time>
      </trkpt>
      <trkpt lat="49.7657" lon="4.80511">
        <ele>273</ele>
        <time>2022-09-05T06:10:44.000Z</time>
      </trkpt>
      <trkpt lat="49.76573" lon="4.80509">
        <ele>273</ele>
        <time>2022-09-05T06:10:45.000Z</time>
      </trkpt>
      <trkpt lat="49.76577" lon="4.80508">
        <ele>273</ele>
        <time>2022-09-05T06:10:46.000Z</time>
      </trkpt>
      <trkpt lat="49.7658" lon="4.80507">
        <ele>273</ele>
        <time>2022-09-05T06:10:47.000Z</time>
      </trkpt>
      <trkpt lat="49.76584" lon="4.80506">
        <ele>274</ele>
        <time>2022-09-05T06:10:48.000Z</time>
      </trkpt>
      <trkpt lat="49.76587" lon="4.80504">
        <ele>274</ele>
        <time>2022-09-05T06:10:49.000Z</time>
      </trkpt>
      <trkpt lat="49.76591" lon="4.80503">
        <ele>274</ele>
        <time>2022-09-05T06:10:50.000Z</time>
      </trkpt>
      <trkpt lat="49.76594" lon="4.80502">
        <ele>274</ele>
        <time>2022-09-05T06:10:51.000Z</time>
      </trkpt>
      <trkpt lat="49.76597" lon="4.80501">
        <ele>275</ele>
        <time>2022-09-05T06:10:52.000Z</time>
      </trkpt>
      <trkpt lat="49.766" lon="4.805">
        <ele>275</ele>
        <time>2022-09-05T06:10:53.000Z</time>
      </trkpt>
      <trkpt lat="49.76603" lon="4.80498">
        <ele>276</ele>
        <time>2022-09-05T06:10:54.000Z</time>
      </trkpt>
      <trkpt lat="49.76606" lon="4.80497">
        <ele>276</ele>
        <time>2022-09-05T06:10:55.000Z</time>
      </trkpt>
      <trkpt lat="49.7661" lon="4.80495">
        <ele>276</ele>
        <time>2022-09-05T06:10:56.000Z</time>
      </trkpt>
      <trkpt lat="49.76613" lon="4.80494">
        <ele>277</ele>
        <time>2022-09-05T06:10:57.000Z</time>
      </trkpt>
      <trkpt lat="49.76615" lon="4.80492">
        <ele>277</ele>
        <time>2022-09-05T06:10:58.000Z</time>
      </trkpt>
      <trkpt lat="49.76619" lon="4.8049">
        <ele>277</ele>
        <time>2022-09-05T06:10:59.000Z</time>
      </trkpt>
      <trkpt lat="49.76623" lon="4.80489">
        <ele>277</ele>
        <time>2022-09-05T06:11:00.000Z</time>
      </trkpt>
      <trkpt lat="49.76627" lon="4.80489">
        <ele>278</ele>
        <time>2022-09-05T06:11:01.000Z</time>
      </trkpt>
      <trkpt lat="49.7663" lon="4.80489">
        <ele>278</ele>
        <time>2022-09-05T06:11:02.000Z</time>
      </trkpt>
      <trkpt lat="49.76634" lon="4.80488">
        <ele>278</ele>
        <time>2022-09-05T06:11:03.000Z</time>
      </trkpt>
      <trkpt lat="49.76638" lon="4.80488">
        <ele>279</ele>
        <time>2022-09-05T06:11:04.000Z</time>
      </trkpt>
      <trkpt lat="49.76642" lon="4.80487">
        <ele>279</ele>
        <time>2022-09-05T06:11:05.000Z</time>
      </trkpt>
      <trkpt lat="49.76645" lon="4.80486">
        <ele>280</ele>
        <time>2022-09-05T06:11:06.000Z</time>
      </trkpt>
      <trkpt lat="49.7665" lon="4.80485">
        <ele>280</ele>
        <time>2022-09-05T06:11:07.000Z</time>
      </trkpt>
      <trkpt lat="49.76654" lon="4.80484">
        <ele>280</ele>
        <time>2022-09-05T06:11:08.000Z</time>
      </trkpt>
      <trkpt lat="49.76658" lon="4.80484">
        <ele>280</ele>
        <time>2022-09-05T06:11:09.000Z</time>
      </trkpt>
      <trkpt lat="49.76662" lon="4.80485">
        <ele>281</ele>
        <time>2022-09-05T06:11:10.000Z</time>
      </trkpt>
      <trkpt lat="49.76666" lon="4.80485">
        <ele>281</ele>
        <time>2022-09-05T06:11:11.000Z</time>
      </trkpt>
      <trkpt lat="49.7667" lon="4.80485">
        <ele>281</ele>
        <time>2022-09-05T06:11:12.000Z</time>
      </trkpt>
      <trkpt lat="49.76673" lon="4.80484">
        <ele>281</ele>
        <time>2022-09-05T06:11:13.000Z</time>
      </trkpt>
      <trkpt lat="49.76677" lon="4.80484">
        <ele>281</ele>
        <time>2022-09-05T06:11:14.000Z</time>
      </trkpt>
      <trkpt lat="49.7668" lon="4.80483">
        <ele>282</ele>
        <time>2022-09-05T06:11:15.000Z</time>
      </trkpt>
      <trkpt lat="49.76684" lon="4.80482">
        <ele>282</ele>
        <time>2022-09-05T06:11:16.000Z</time>
      </trkpt>
      <trkpt lat="49.76688" lon="4.80481">
        <ele>282</ele>
        <time>2022-09-05T06:11:17.000Z</time>
      </trkpt>
      <trkpt lat="49.76692" lon="4.8048">
        <ele>281</ele>
        <time>2022-09-05T06:11:18.000Z</time>
      </trkpt>
      <trkpt lat="49.76696" lon="4.80479">
        <ele>281</ele>
        <time>2022-09-05T06:11:19.000Z</time>
      </trkpt>
      <trkpt lat="49.76701" lon="4.80477">
        <ele>281</ele>
        <time>2022-09-05T06:11:20.000Z</time>
      </trkpt>
      <trkpt lat="49.76705" lon="4.80475">
        <ele>281</ele>
        <time>2022-09-05T06:11:21.000Z</time>
      </trkpt>
      <trkpt lat="49.76709" lon="4.80474">
        <ele>281</ele>
        <time>2022-09-05T06:11:22.000Z</time>
      </trkpt>
      <trkpt lat="49.76714" lon="4.80473">
        <ele>281</ele>
        <time>2022-09-05T06:11:23.000Z</time>
      </trkpt>
      <trkpt lat="49.76719" lon="4.80471">
        <ele>281</ele>
        <time>2022-09-05T06:11:24.000Z</time>
      </trkpt>
      <trkpt lat="49.76724" lon="4.8047">
        <ele>281</ele>
        <time>2022-09-05T06:11:25.000Z</time>
      </trkpt>
      <trkpt lat="49.76729" lon="4.80469">
        <ele>281</ele>
        <time>2022-09-05T06:11:26.000Z</time>
      </trkpt>
      <trkpt lat="49.76734" lon="4.80468">
        <ele>281</ele>
        <time>2022-09-05T06:11:27.000Z</time>
      </trkpt>
      <trkpt lat="49.76739" lon="4.80467">
        <ele>281</ele>
        <time>2022-09-05T06:11:28.000Z</time>
      </trkpt>
      <trkpt lat="49.76743" lon="4.80466">
        <ele>281</ele>
        <time>2022-09-05T06:11:29.000Z</time>
      </trkpt>
      <trkpt lat="49.76748" lon="4.80464">
        <ele>281</ele>
        <time>2022-09-05T06:11:30.000Z</time>
      </trkpt>
      <trkpt lat="49.76753" lon="4.80463">
        <ele>281</ele>
        <time>2022-09-05T06:11:31.000Z</time>
      </trkpt>
      <trkpt lat="49.76758" lon="4.80462">
        <ele>281</ele>
        <time>2022-09-05T06:11:32.000Z</time>
      </trkpt>
      <trkpt lat="49.76763" lon="4.80461">
        <ele>281</ele>
        <time>2022-09-05T06:11:33.000Z</time>
      </trkpt>
      <trkpt lat="49.76768" lon="4.80459">
        <ele>281</ele>
        <time>2022-09-05T06:11:34.000Z</time>
      </trkpt>
      <trkpt lat="49.76773" lon="4.80458">
        <ele>281</ele>
        <time>2022-09-05T06:11:35.000Z</time>
      </trkpt>
      <trkpt lat="49.76778" lon="4.80456">
        <ele>281</ele>
        <time>2022-09-05T06:11:36.000Z</time>
      </trkpt>
      <trkpt lat="49.76783" lon="4.80454">
        <ele>281</ele>
        <time>2022-09-05T06:11:37.000Z</time>
      </trkpt>
      <trkpt lat="49.76788" lon="4.80452">
        <ele>281</ele>
        <time>2022-09-05T06:11:38.000Z</time>
      </trkpt>
      <trkpt lat="49.76793" lon="4.8045">
        <ele>281</ele>
        <time>2022-09-05T06:11:39.000Z</time>
      </trkpt>
      <trkpt lat="49.76797" lon="4.80448">
        <ele>281</ele>
        <time>2022-09-05T06:11:40.000Z</time>
      </trkpt>
      <trkpt lat="49.76802" lon="4.80445">
        <ele>281</ele>
        <time>2022-09-05T06:11:41.000Z</time>
      </trkpt>
      <trkpt lat="49.76807" lon="4.80442">
        <ele>281</ele>
        <time>2022-09-05T06:11:42.000Z</time>
      </trkpt>
      <trkpt lat="49.76812" lon="4.80439">
        <ele>281</ele>
        <time>2022-09-05T06:11:43.000Z</time>
      </trkpt>
      <trkpt lat="49.76817" lon="4.80436">
        <ele>281</ele>
        <time>2022-09-05T06:11:44.000Z</time>
      </trkpt>
      <trkpt lat="49.76821" lon="4.80433">
        <ele>281</ele>
        <time>2022-09-05T06:11:45.000Z</time>
      </trkpt>
      <trkpt lat="49.76825" lon="4.8043">
        <ele>281</ele>
        <time>2022-09-05T06:11:46.000Z</time>
      </trkpt>
      <trkpt lat="49.7683" lon="4.80427">
        <ele>281</ele>
        <time>2022-09-05T06:11:47.000Z</time>
      </trkpt>
      <trkpt lat="49.76834" lon="4.80423">
        <ele>281</ele>
        <time>2022-09-05T06:11:48.000Z</time>
      </trkpt>
      <trkpt lat="49.76839" lon="4.80419">
        <ele>281</ele>
        <time>2022-09-05T06:11:49.000Z</time>
      </trkpt>
      <trkpt lat="49.76843" lon="4.80415">
        <ele>281</ele>
        <time>2022-09-05T06:11:50.000Z</time>
      </trkpt>
      <trkpt lat="49.76848" lon="4.80411">
        <ele>281</ele>
        <time>2022-09-05T06:11:51.000Z</time>
      </trkpt>
      <trkpt lat="49.76853" lon="4.80408">
        <ele>281</ele>
        <time>2022-09-05T06:11:52.000Z</time>
      </trkpt>
      <trkpt lat="49.76858" lon="4.80406">
        <ele>281</ele>
        <time>2022-09-05T06:11:53.000Z</time>
      </trkpt>
      <trkpt lat="49.76862" lon="4.80403">
        <ele>281</ele>
        <time>2022-09-05T06:11:54.000Z</time>
      </trkpt>
      <trkpt lat="49.76867" lon="4.804">
        <ele>281</ele>
        <time>2022-09-05T06:11:55.000Z</time>
      </trkpt>
      <trkpt lat="49.76872" lon="4.80398">
        <ele>281</ele>
        <time>2022-09-05T06:11:56.000Z</time>
      </trkpt>
      <trkpt lat="49.76877" lon="4.80395">
        <ele>281</ele>
        <time>2022-09-05T06:11:57.000Z</time>
      </trkpt>
      <trkpt lat="49.76882" lon="4.80393">
        <ele>281</ele>
        <time>2022-09-05T06:11:58.000Z</time>
      </trkpt>
      <trkpt lat="49.76886" lon="4.8039">
        <ele>281</ele>
        <time>2022-09-05T06:11:59.000Z</time>
      </trkpt>
      <trkpt lat="49.7689" lon="4.80388">
        <ele>281</ele>
        <time>2022-09-05T06:12:00.000Z</time>
      </trkpt>
      <trkpt lat="49.76895" lon="4.80384">
        <ele>281</ele>
        <time>2022-09-05T06:12:01.000Z</time>
      </trkpt>
      <trkpt lat="49.76899" lon="4.8038">
        <ele>281</ele>
        <time>2022-09-05T06:12:02.000Z</time>
      </trkpt>
      <trkpt lat="49.76903" lon="4.80375">
        <ele>281</ele>
        <time>2022-09-05T06:12:03.000Z</time>
      </trkpt>
      <trkpt lat="49.76907" lon="4.8037">
        <ele>281</ele>
        <time>2022-09-05T06:12:04.000Z</time>
      </trkpt>
      <trkpt lat="49.76911" lon="4.80364">
        <ele>281</ele>
        <time>2022-09-05T06:12:05.000Z</time>
      </trkpt>
      <trkpt lat="49.76915" lon="4.80358">
        <ele>281</ele>
        <time>2022-09-05T06:12:06.000Z</time>
      </trkpt>
      <trkpt lat="49.76919" lon="4.80352">
        <ele>281</ele>
        <time>2022-09-05T06:12:07.000Z</time>
      </trkpt>
      <trkpt lat="49.76923" lon="4.80347">
        <ele>281</ele>
        <time>2022-09-05T06:12:08.000Z</time>
      </trkpt>
      <trkpt lat="49.76928" lon="4.80343">
        <ele>281</ele>
        <time>2022-09-05T06:12:09.000Z</time>
      </trkpt>
      <trkpt lat="49.76932" lon="4.80339">
        <ele>281</ele>
        <time>2022-09-05T06:12:10.000Z</time>
      </trkpt>
      <trkpt lat="49.76936" lon="4.80337">
        <ele>281</ele>
        <time>2022-09-05T06:12:11.000Z</time>
      </trkpt>
      <trkpt lat="49.76938" lon="4.80334">
        <ele>281</ele>
        <time>2022-09-05T06:12:12.000Z</time>
      </trkpt>
      <trkpt lat="49.76939" lon="4.80333">
        <ele>281</ele>
        <time>2022-09-05T06:12:13.000Z</time>
      </trkpt>
      <trkpt lat="49.7694" lon="4.80333">
        <ele>282</ele>
        <time>2022-09-05T06:12:14.000Z</time>
      </trkpt>
      <trkpt lat="49.76939" lon="4.80333">
        <ele>282</ele>
        <time>2022-09-05T06:12:15.000Z</time>
      </trkpt>
      <trkpt lat="49.76939" lon="4.80333">
        <ele>282</ele>
        <time>2022-09-05T06:12:16.000Z</time>
      </trkpt>
      <trkpt lat="49.76939" lon="4.80333">
        <ele>282</ele>
        <time>2022-09-05T06:12:17.000Z</time>
      </trkpt>
      <trkpt lat="49.76939" lon="4.80333">
        <ele>282</ele>
        <time>2022-09-05T06:12:18.000Z</time>
      </trkpt>
      <trkpt lat="49.76938" lon="4.80333">
        <ele>282</ele>
        <time>2022-09-05T06:12:19.000Z</time>
      </trkpt>
      <trkpt lat="49.76938" lon="4.80333">
        <ele>282</ele>
        <time>2022-09-05T06:12:20.000Z</time>
      </trkpt>
      <trkpt lat="49.76938" lon="4.80334">
        <ele>282</ele>
        <time>2022-09-05T06:12:21.000Z</time>
      </trkpt>
      <trkpt lat="49.76938" lon="4.80334">
        <ele>282</ele>
        <time>2022-09-05T06:12:22.000Z</time>
      </trkpt>
      <trkpt lat="49.76938" lon="4.80334">
        <ele>282</ele>
        <time>2022-09-05T06:12:23.000Z</time>
      </trkpt>
      <trkpt lat="49.76937" lon="4.80334">
        <ele>283</ele>
        <time>2022-09-05T06:12:24.000Z</time>
      </trkpt>
      <trkpt lat="49.76937" lon="4.80334">
        <ele>283</ele>
        <time>2022-09-05T06:12:25.000Z</time>
      </trkpt>
      <trkpt lat="49.76937" lon="4.80334">
        <ele>283</ele>
        <time>2022-09-05T06:12:26.000Z</time>
      </trkpt>
      <trkpt lat="49.76937" lon="4.80334">
        <ele>283</ele>
        <time>2022-09-05T06:12:27.000Z</time>
      </trkpt>
      <trkpt lat="49.76937" lon="4.80334">
        <ele>283</ele>
        <time>2022-09-05T06:12:28.000Z</time>
      </trkpt>
      <trkpt lat="49.76937" lon="4.80334">
        <ele>283</ele>
        <time>2022-09-05T06:12:29.000Z</time>
      </trkpt>
      <trkpt lat="49.76937" lon="4.80334">
        <ele>283</ele>
        <time>2022-09-05T06:12:30.000Z</time>
      </trkpt>
      <trkpt lat="49.76937" lon="4.80334">
        <ele>283</ele>
        <time>2022-09-05T06:12:31.000Z</time>
      </trkpt>
      <trkpt lat="49.76937" lon="4.80334">
        <ele>283</ele>
        <time>2022-09-05T06:12:32.000Z</time>
      </trkpt>
      <trkpt lat="49.76936" lon="4.80334">
        <ele>283</ele>
        <time>2022-09-05T06:12:33.000Z</time>
      </trkpt>
      <trkpt lat="49.76937" lon="4.80334">
        <ele>284</ele>
        <time>2022-09-05T06:12:34.000Z</time>
      </trkpt>
      <trkpt lat="49.76937" lon="4.80334">
        <ele>284</ele>
        <time>2022-09-05T06:12:35.000Z</time>
      </trkpt>
      <trkpt lat="49.76937" lon="4.80334">
        <ele>284</ele>
        <time>2022-09-05T06:12:36.000Z</time>
      </trkpt>
      <trkpt lat="49.76936" lon="4.80335">
        <ele>284</ele>
        <time>2022-09-05T06:12:37.000Z</time>
      </trkpt>
      <trkpt lat="49.76936" lon="4.80335">
        <ele>284</ele>
        <time>2022-09-05T06:12:38.000Z</time>
      </trkpt>
      <trkpt lat="49.76936" lon="4.80335">
        <ele>284</ele>
        <time>2022-09-05T06:12:39.000Z</time>
      </trkpt>
      <trkpt lat="49.76936" lon="4.80335">
        <ele>284</ele>
        <time>2022-09-05T06:12:40.000Z</time>
      </trkpt>
      <trkpt lat="49.76936" lon="4.80335">
        <ele>284</ele>
        <time>2022-09-05T06:12:41.000Z</time>
      </trkpt>
      <trkpt lat="49.76936" lon="4.80335">
        <ele>284</ele>
        <time>2022-09-05T06:12:42.000Z</time>
      </trkpt>
      <trkpt lat="49.76936" lon="4.80335">
        <ele>284</ele>
        <time>2022-09-05T06:12:43.000Z</time>
      </trkpt>
      <trkpt lat="49.76936" lon="4.80335">
        <ele>285</ele>
        <time>2022-09-05T06:12:44.000Z</time>
      </trkpt>
      <trkpt lat="49.76936" lon="4.80335">
        <ele>285</ele>
        <time>2022-09-05T06:12:45.000Z</time>
      </trkpt>
      <trkpt lat="49.76936" lon="4.80335">
        <ele>285</ele>
        <time>2022-09-05T06:12:46.000Z</time>
      </trkpt>
      <trkpt lat="49.76936" lon="4.80335">
        <ele>285</ele>
        <time>2022-09-05T06:12:47.000Z</time>
      </trkpt>
      <trkpt lat="49.76935" lon="4.80336">
        <ele>285</ele>
        <time>2022-09-05T06:12:48.000Z</time>
      </trkpt>
      <trkpt lat="49.76936" lon="4.80336">
        <ele>285</ele>
        <time>2022-09-05T06:12:49.000Z</time>
      </trkpt>
      <trkpt lat="49.76936" lon="4.80335">
        <ele>285</ele>
        <time>2022-09-05T06:12:50.000Z</time>
      </trkpt>
      <trkpt lat="49.76935" lon="4.80335">
        <ele>285</ele>
        <time>2022-09-05T06:12:51.000Z</time>
      </trkpt>
      <trkpt lat="49.76935" lon="4.80335">
        <ele>285</ele>
        <time>2022-09-05T06:12:52.000Z</time>
      </trkpt>
      <trkpt lat="49.76935" lon="4.80335">
        <ele>285</ele>
        <time>2022-09-05T06:12:53.000Z</time>
      </trkpt>
      <trkpt lat="49.76935" lon="4.80335">
        <ele>285</ele>
        <time>2022-09-05T06:12:54.000Z</time>
      </trkpt>
      <trkpt lat="49.76935" lon="4.80335">
        <ele>285</ele>
        <time>2022-09-05T06:12:55.000Z</time>
      </trkpt>
      <trkpt lat="49.76935" lon="4.80335">
        <ele>285</ele>
        <time>2022-09-05T06:12:56.000Z</time>
      </trkpt>
      <trkpt lat="49.76935" lon="4.80335">
        <ele>285</ele>
        <time>2022-09-05T06:12:57.000Z</time>
      </trkpt>
      <trkpt lat="49.76935" lon="4.80335">
        <ele>285</ele>
        <time>2022-09-05T06:12:58.000Z</time>
      </trkpt>
      <trkpt lat="49.76935" lon="4.80335">
        <ele>285</ele>
        <time>2022-09-05T06:12:59.000Z</time>
      </trkpt>
      <trkpt lat="49.76935" lon="4.80335">
        <ele>285</ele>
        <time>2022-09-05T06:13:00.000Z</time>
      </trkpt>
      <trkpt lat="49.76935" lon="4.80335">
        <ele>284</ele>
        <time>2022-09-05T06:13:01.000Z</time>
      </trkpt>
      <trkpt lat="49.76935" lon="4.80335">
        <ele>284</ele>
        <time>2022-09-05T06:13:02.000Z</time>
      </trkpt>
      <trkpt lat="49.76935" lon="4.80335">
        <ele>284</ele>
        <time>2022-09-05T06:13:03.000Z</time>
      </trkpt>
      <trkpt lat="49.76935" lon="4.80335">
        <ele>284</ele>
        <time>2022-09-05T06:13:04.000Z</time>
      </trkpt>
      <trkpt lat="49.76935" lon="4.80335">
        <ele>284</ele>
        <time>2022-09-05T06:13:05.000Z</time>
      </trkpt>
      <trkpt lat="49.76935" lon="4.80335">
        <ele>284</ele>
        <time>2022-09-05T06:13:06.000Z</time>
      </trkpt>
      <trkpt lat="49.76935" lon="4.80335">
        <ele>284</ele>
        <time>2022-09-05T06:13:07.000Z</time>
      </trkpt>
      <trkpt lat="49.76936" lon="4.80335">
        <ele>284</ele>
        <time>2022-09-05T06:13:08.000Z</time>
      </trkpt>
      <trkpt lat="49.76936" lon="4.80335">
        <ele>284</ele>
        <time>2022-09-05T06:13:09.000Z</time>
      </trkpt>
      <trkpt lat="49.76936" lon="4.80335">
        <ele>284</ele>
        <time>2022-09-05T06:13:10.000Z</time>
      </trkpt>
      <trkpt lat="49.76936" lon="4.80335">
        <ele>284</ele>
        <time>2022-09-05T06:13:11.000Z</time>
      </trkpt>
      <trkpt lat="49.76936" lon="4.80335">
        <ele>284</ele>
        <time>2022-09-05T06:13:12.000Z</time>
      </trkpt>
      <trkpt lat="49.76936" lon="4.80335">
        <ele>284</ele>
        <time>2022-09-05T06:13:13.000Z</time>
      </trkpt>
      <trkpt lat="49.76936" lon="4.80335">
        <ele>284</ele>
        <time>2022-09-05T06:13:14.000Z</time>
      </trkpt>
      <trkpt lat="49.76936" lon="4.80335">
        <ele>284</ele>
        <time>2022-09-05T06:13:15.000Z</time>
      </trkpt>
      <trkpt lat="49.76936" lon="4.80335">
        <ele>284</ele>
        <time>2022-09-05T06:13:16.000Z</time>
      </trkpt>
      <trkpt lat="49.76936" lon="4.80335">
        <ele>284</ele>
        <time>2022-09-05T06:13:17.000Z</time>
      </trkpt>
      <trkpt lat="49.76936" lon="4.80335">
        <ele>284</ele>
        <time>2022-09-05T06:13:18.000Z</time>
      </trkpt>
      <trkpt lat="49.76936" lon="4.80335">
        <ele>284</ele>
        <time>2022-09-05T06:13:19.000Z</time>
      </trkpt>
      <trkpt lat="49.76936" lon="4.80335">
        <ele>284</ele>
        <time>2022-09-05T06:13:20.000Z</time>
      </trkpt>
      <trkpt lat="49.76936" lon="4.80335">
        <ele>283</ele>
        <time>2022-09-05T06:13:21.000Z</time>
      </trkpt>
      <trkpt lat="49.76936" lon="4.80335">
        <ele>283</ele>
        <time>2022-09-05T06:13:22.000Z</time>
      </trkpt>
      <trkpt lat="49.76936" lon="4.80335">
        <ele>283</ele>
        <time>2022-09-05T06:13:23.000Z</time>
      </trkpt>
      <trkpt lat="49.76936" lon="4.80335">
        <ele>283</ele>
        <time>2022-09-05T06:13:24.000Z</time>
      </trkpt>
      <trkpt lat="49.76936" lon="4.80335">
        <ele>283</ele>
        <time>2022-09-05T06:13:25.000Z</time>
      </trkpt>
      <trkpt lat="49.76936" lon="4.80335">
        <ele>283</ele>
        <time>2022-09-05T06:13:26.000Z</time>
      </trkpt>
      <trkpt lat="49.76937" lon="4.80335">
        <ele>283</ele>
        <time>2022-09-05T06:13:27.000Z</time>
      </trkpt>
      <trkpt lat="49.76937" lon="4.80335">
        <ele>283</ele>
        <time>2022-09-05T06:13:28.000Z</time>
      </trkpt>
      <trkpt lat="49.76937" lon="4.80335">
        <ele>282</ele>
        <time>2022-09-05T06:13:29.000Z</time>
      </trkpt>
      <trkpt lat="49.76937" lon="4.80335">
        <ele>282</ele>
        <time>2022-09-05T06:13:30.000Z</time>
      </trkpt>
      <trkpt lat="49.76937" lon="4.80335">
        <ele>282</ele>
        <time>2022-09-05T06:13:31.000Z</time>
      </trkpt>
      <trkpt lat="49.76937" lon="4.80335">
        <ele>282</ele>
        <time>2022-09-05T06:13:32.000Z</time>
      </trkpt>
      <trkpt lat="49.76937" lon="4.80335">
        <ele>282</ele>
        <time>2022-09-05T06:13:33.000Z</time>
      </trkpt>
      <trkpt lat="49.76937" lon="4.80335">
        <ele>282</ele>
        <time>2022-09-05T06:13:34.000Z</time>
      </trkpt>
      <trkpt lat="49.76937" lon="4.80335">
        <ele>281</ele>
        <time>2022-09-05T06:13:35.000Z</time>
      </trkpt>
      <trkpt lat="49.76937" lon="4.80334">
        <ele>281</ele>
        <time>2022-09-05T06:13:36.000Z</time>
      </trkpt>
      <trkpt lat="49.76937" lon="4.80334">
        <ele>281</ele>
        <time>2022-09-05T06:13:37.000Z</time>
      </trkpt>
      <trkpt lat="49.76937" lon="4.80334">
        <ele>281</ele>
        <time>2022-09-05T06:13:38.000Z</time>
      </trkpt>
      <trkpt lat="49.76937" lon="4.80334">
        <ele>281</ele>
        <time>2022-09-05T06:13:39.000Z</time>
      </trkpt>
      <trkpt lat="49.76937" lon="4.80334">
        <ele>281</ele>
        <time>2022-09-05T06:13:40.000Z</time>
      </trkpt>
      <trkpt lat="49.76937" lon="4.80334">
        <ele>281</ele>
        <time>2022-09-05T06:13:41.000Z</time>
      </trkpt>
      <trkpt lat="49.76937" lon="4.80334">
        <ele>281</ele>
        <time>2022-09-05T06:13:42.000Z</time>
      </trkpt>
      <trkpt lat="49.76938" lon="4.80334">
        <ele>280</ele>
        <time>2022-09-05T06:13:43.000Z</time>
      </trkpt>
      <trkpt lat="49.76938" lon="4.80334">
        <ele>280</ele>
        <time>2022-09-05T06:13:44.000Z</time>
      </trkpt>
      <trkpt lat="49.76938" lon="4.80333">
        <ele>280</ele>
        <time>2022-09-05T06:13:45.000Z</time>
      </trkpt>
      <trkpt lat="49.76938" lon="4.80333">
        <ele>280</ele>
        <time>2022-09-05T06:13:46.000Z</time>
      </trkpt>
      <trkpt lat="49.76938" lon="4.80333">
        <ele>280</ele>
        <time>2022-09-05T06:13:47.000Z</time>
      </trkpt>
      <trkpt lat="49.76938" lon="4.80333">
        <ele>280</ele>
        <time>2022-09-05T06:13:48.000Z</time>
      </trkpt>
      <trkpt lat="49.76938" lon="4.80333">
        <ele>280</ele>
        <time>2022-09-05T06:13:49.000Z</time>
      </trkpt>
      <trkpt lat="49.76938" lon="4.80333">
        <ele>280</ele>
        <time>2022-09-05T06:13:50.000Z</time>
      </trkpt>
      <trkpt lat="49.76938" lon="4.80333">
        <ele>280</ele>
        <time>2022-09-05T06:13:51.000Z</time>
      </trkpt>
      <trkpt lat="49.76938" lon="4.80333">
        <ele>280</ele>
        <time>2022-09-05T06:13:52.000Z</time>
      </trkpt>
      <trkpt lat="49.76938" lon="4.80334">
        <ele>280</ele>
        <time>2022-09-05T06:13:53.000Z</time>
      </trkpt>
      <trkpt lat="49.76938" lon="4.80334">
        <ele>280</ele>
        <time>2022-09-05T06:13:54.000Z</time>
      </trkpt>
      <trkpt lat="49.76938" lon="4.80334">
        <ele>280</ele>
        <time>2022-09-05T06:13:55.000Z</time>
      </trkpt>
      <trkpt lat="49.76937" lon="4.80334">
        <ele>280</ele>
        <time>2022-09-05T06:13:56.000Z</time>
      </trkpt>
      <trkpt lat="49.76937" lon="4.80334">
        <ele>280</ele>
        <time>2022-09-05T06:13:57.000Z</time>
      </trkpt>
      <trkpt lat="49.76937" lon="4.80333">
        <ele>280</ele>
        <time>2022-09-05T06:13:58.000Z</time>
      </trkpt>
      <trkpt lat="49.76937" lon="4.80333">
        <ele>280</ele>
        <time>2022-09-05T06:13:59.000Z</time>
      </trkpt>
      <trkpt lat="49.76937" lon="4.80333">
        <ele>280</ele>
        <time>2022-09-05T06:14:00.000Z</time>
      </trkpt>
      <trkpt lat="49.76937" lon="4.80333">
        <ele>280</ele>
        <time>2022-09-05T06:14:01.000Z</time>
      </trkpt>
      <trkpt lat="49.76937" lon="4.80333">
        <ele>280</ele>
        <time>2022-09-05T06:14:02.000Z</time>
      </trkpt>
      <trkpt lat="49.76937" lon="4.80333">
        <ele>280</ele>
        <time>2022-09-05T06:14:03.000Z</time>
      </trkpt>
      <trkpt lat="49.76937" lon="4.80333">
        <ele>280</ele>
        <time>2022-09-05T06:14:04.000Z</time>
      </trkpt>
      <trkpt lat="49.76936" lon="4.80333">
        <ele>280</ele>
        <time>2022-09-05T06:14:05.000Z</time>
      </trkpt>
      <trkpt lat="49.76936" lon="4.80333">
        <ele>280</ele>
        <time>2022-09-05T06:14:06.000Z</time>
      </trkpt>
      <trkpt lat="49.76936" lon="4.80333">
        <ele>280</ele>
        <time>2022-09-05T06:14:07.000Z</time>
      </trkpt>
      <trkpt lat="49.76936" lon="4.80333">
        <ele>281</ele>
        <time>2022-09-05T06:14:08.000Z</time>
      </trkpt>
      <trkpt lat="49.76936" lon="4.80333">
        <ele>281</ele>
        <time>2022-09-05T06:14:09.000Z</time>
      </trkpt>
      <trkpt lat="49.76936" lon="4.80334">
        <ele>281</ele>
        <time>2022-09-05T06:14:10.000Z</time>
      </trkpt>
      <trkpt lat="49.76936" lon="4.80334">
        <ele>281</ele>
        <time>2022-09-05T06:14:11.000Z</time>
      </trkpt>
      <trkpt lat="49.76936" lon="4.80334">
        <ele>281</ele>
        <time>2022-09-05T06:14:12.000Z</time>
      </trkpt>
      <trkpt lat="49.76936" lon="4.80334">
        <ele>281</ele>
        <time>2022-09-05T06:14:13.000Z</time>
      </trkpt>
      <trkpt lat="49.76936" lon="4.80334">
        <ele>281</ele>
        <time>2022-09-05T06:14:14.000Z</time>
      </trkpt>
      <trkpt lat="49.76936" lon="4.80334">
        <ele>281</ele>
        <time>2022-09-05T06:14:15.000Z</time>
      </trkpt>
      <trkpt lat="49.76936" lon="4.80334">
        <ele>281</ele>
        <time>2022-09-05T06:14:16.000Z</time>
      </trkpt>
      <trkpt lat="49.76936" lon="4.80334">
        <ele>281</ele>
        <time>2022-09-05T06:14:17.000Z</time>
      </trkpt>
      <trkpt lat="49.76936" lon="4.80334">
        <ele>281</ele>
        <time>2022-09-05T06:14:18.000Z</time>
      </trkpt>
      <trkpt lat="49.76936" lon="4.80334">
        <ele>281</ele>
        <time>2022-09-05T06:14:19.000Z</time>
      </trkpt>
      <trkpt lat="49.76936" lon="4.80334">
        <ele>281</ele>
        <time>2022-09-05T06:14:20.000Z</time>
      </trkpt>
      <trkpt lat="49.76936" lon="4.80334">
        <ele>281</ele>
        <time>2022-09-05T06:14:21.000Z</time>
      </trkpt>
      <trkpt lat="49.76936" lon="4.80334">
        <ele>281</ele>
        <time>2022-09-05T06:14:22.000Z</time>
      </trkpt>
      <trkpt lat="49.76936" lon="4.80334">
        <ele>281</ele>
        <time>2022-09-05T06:14:23.000Z</time>
      </trkpt>
      <trkpt lat="49.76936" lon="4.80333">
        <ele>281</ele>
        <time>2022-09-05T06:14:24.000Z</time>
      </trkpt>
      <trkpt lat="49.76937" lon="4.80333">
        <ele>281</ele>
        <time>2022-09-05T06:14:25.000Z</time>
      </trkpt>
      <trkpt lat="49.76937" lon="4.80333">
        <ele>281</ele>
        <time>2022-09-05T06:14:26.000Z</time>
      </trkpt>
      <trkpt lat="49.76937" lon="4.80333">
        <ele>281</ele>
        <time>2022-09-05T06:14:27.000Z</time>
      </trkpt>
      <trkpt lat="49.76937" lon="4.80333">
        <ele>281</ele>
        <time>2022-09-05T06:14:28.000Z</time>
      </trkpt>
      <trkpt lat="49.76937" lon="4.80333">
        <ele>281</ele>
        <time>2022-09-05T06:14:29.000Z</time>
      </trkpt>
      <trkpt lat="49.76937" lon="4.80333">
        <ele>281</ele>
        <time>2022-09-05T06:14:30.000Z</time>
      </trkpt>
      <trkpt lat="49.76937" lon="4.80333">
        <ele>281</ele>
        <time>2022-09-05T06:14:31.000Z</time>
      </trkpt>
      <trkpt lat="49.76937" lon="4.80333">
        <ele>281</ele>
        <time>2022-09-05T06:14:32.000Z</time>
      </trkpt>
      <trkpt lat="49.76937" lon="4.80333">
        <ele>281</ele>
        <time>2022-09-05T06:14:33.000Z</time>
      </trkpt>
      <trkpt lat="49.76937" lon="4.80333">
        <ele>281</ele>
        <time>2022-09-05T06:14:34.000Z</time>
      </trkpt>
      <trkpt lat="49.76937" lon="4.80333">
        <ele>281</ele>
        <time>2022-09-05T06:14:35.000Z</time>
      </trkpt>
      <trkpt lat="49.76937" lon="4.80333">
        <ele>281</ele>
        <time>2022-09-05T06:14:36.000Z</time>
      </trkpt>
      <trkpt lat="49.76937" lon="4.80333">
        <ele>281</ele>
        <time>2022-09-05T06:14:37.000Z</time>
      </trkpt>
      <trkpt lat="49.76937" lon="4.80333">
        <ele>281</ele>
        <time>2022-09-05T06:14:38.000Z</time>
      </trkpt>
      <trkpt lat="49.76937" lon="4.80333">
        <ele>281</ele>
        <time>2022-09-05T06:14:39.000Z</time>
      </trkpt>
      <trkpt lat="49.76937" lon="4.80333">
        <ele>280</ele>
        <time>2022-09-05T06:14:40.000Z</time>
      </trkpt>
      <trkpt lat="49.76936" lon="4.80333">
        <ele>280</ele>
        <time>2022-09-05T06:14:41.000Z</time>
      </trkpt>
      <trkpt lat="49.76936" lon="4.80333">
        <ele>280</ele>
        <time>2022-09-05T06:14:42.000Z</time>
      </trkpt>
      <trkpt lat="49.76937" lon="4.80333">
        <ele>280</ele>
        <time>2022-09-05T06:14:43.000Z</time>
      </trkpt>
      <trkpt lat="49.76937" lon="4.80333">
        <ele>280</ele>
        <time>2022-09-05T06:14:44.000Z</time>
      </trkpt>
      <trkpt lat="49.76937" lon="4.80333">
        <ele>280</ele>
        <time>2022-09-05T06:14:45.000Z</time>
      </trkpt>
      <trkpt lat="49.76937" lon="4.80333">
        <ele>280</ele>
        <time>2022-09-05T06:14:46.000Z</time>
      </trkpt>
      <trkpt lat="49.76937" lon="4.80333">
        <ele>280</ele>
        <time>2022-09-05T06:14:47.000Z</time>
      </trkpt>
      <trkpt lat="49.76937" lon="4.80333">
        <ele>280</ele>
        <time>2022-09-05T06:14:48.000Z</time>
      </trkpt>
      <trkpt lat="49.76937" lon="4.80334">
        <ele>280</ele>
        <time>2022-09-05T06:14:49.000Z</time>
      </trkpt>
      <trkpt lat="49.76937" lon="4.80334">
        <ele>281</ele>
        <time>2022-09-05T06:14:50.000Z</time>
      </trkpt>
      <trkpt lat="49.76938" lon="4.80334">
        <ele>281</ele>
        <time>2022-09-05T06:14:51.000Z</time>
      </trkpt>
      <trkpt lat="49.76938" lon="4.80334">
        <ele>281</ele>
        <time>2022-09-05T06:14:52.000Z</time>
      </trkpt>
      <trkpt lat="49.76938" lon="4.80334">
        <ele>281</ele>
        <time>2022-09-05T06:14:53.000Z</time>
      </trkpt>
      <trkpt lat="49.76938" lon="4.80334">
        <ele>281</ele>
        <time>2022-09-05T06:14:54.000Z</time>
      </trkpt>
      <trkpt lat="49.76938" lon="4.80334">
        <ele>281</ele>
        <time>2022-09-05T06:14:55.000Z</time>
      </trkpt>
      <trkpt lat="49.76938" lon="4.80335">
        <ele>281</ele>
        <time>2022-09-05T06:14:56.000Z</time>
      </trkpt>
      <trkpt lat="49.76938" lon="4.80335">
        <ele>281</ele>
        <time>2022-09-05T06:14:57.000Z</time>
      </trkpt>
      <trkpt lat="49.76938" lon="4.80335">
        <ele>281</ele>
        <time>2022-09-05T06:14:58.000Z</time>
      </trkpt>
      <trkpt lat="49.76938" lon="4.80336">
        <ele>281</ele>
        <time>2022-09-05T06:14:59.000Z</time>
      </trkpt>
      <trkpt lat="49.76938" lon="4.80336">
        <ele>281</ele>
        <time>2022-09-05T06:15:00.000Z</time>
      </trkpt>
      <trkpt lat="49.76938" lon="4.80336">
        <ele>281</ele>
        <time>2022-09-05T06:15:01.000Z</time>
      </trkpt>
      <trkpt lat="49.76937" lon="4.80336">
        <ele>281</ele>
        <time>2022-09-05T06:15:02.000Z</time>
      </trkpt>
      <trkpt lat="49.76938" lon="4.80336">
        <ele>281</ele>
        <time>2022-09-05T06:15:03.000Z</time>
      </trkpt>
      <trkpt lat="49.76938" lon="4.80336">
        <ele>281</ele>
        <time>2022-09-05T06:15:04.000Z</time>
      </trkpt>
      <trkpt lat="49.76938" lon="4.80336">
        <ele>281</ele>
        <time>2022-09-05T06:15:05.000Z</time>
      </trkpt>
      <trkpt lat="49.76938" lon="4.80336">
        <ele>281</ele>
        <time>2022-09-05T06:15:06.000Z</time>
      </trkpt>
      <trkpt lat="49.76938" lon="4.80336">
        <ele>281</ele>
        <time>2022-09-05T06:15:07.000Z</time>
      </trkpt>
      <trkpt lat="49.76938" lon="4.80336">
        <ele>281</ele>
        <time>2022-09-05T06:15:08.000Z</time>
      </trkpt>
      <trkpt lat="49.76938" lon="4.80336">
        <ele>282</ele>
        <time>2022-09-05T06:15:09.000Z</time>
      </trkpt>
      <trkpt lat="49.76938" lon="4.80337">
        <ele>282</ele>
        <time>2022-09-05T06:15:10.000Z</time>
      </trkpt>
      <trkpt lat="49.76937" lon="4.80337">
        <ele>282</ele>
        <time>2022-09-05T06:15:11.000Z</time>
      </trkpt>
      <trkpt lat="49.76937" lon="4.80337">
        <ele>282</ele>
        <time>2022-09-05T06:15:12.000Z</time>
      </trkpt>
      <trkpt lat="49.76937" lon="4.80337">
        <ele>282</ele>
        <time>2022-09-05T06:15:13.000Z</time>
      </trkpt>
      <trkpt lat="49.76937" lon="4.80337">
        <ele>282</ele>
        <time>2022-09-05T06:15:14.000Z</time>
      </trkpt>
      <trkpt lat="49.76937" lon="4.80338">
        <ele>282</ele>
        <time>2022-09-05T06:15:15.000Z</time>
      </trkpt>
      <trkpt lat="49.76937" lon="4.80338">
        <ele>282</ele>
        <time>2022-09-05T06:15:16.000Z</time>
      </trkpt>
      <trkpt lat="49.76937" lon="4.80338">
        <ele>282</ele>
        <time>2022-09-05T06:15:17.000Z</time>
      </trkpt>
      <trkpt lat="49.76937" lon="4.80338">
        <ele>282</ele>
        <time>2022-09-05T06:15:18.000Z</time>
      </trkpt>
      <trkpt lat="49.76936" lon="4.80338">
        <ele>282</ele>
        <time>2022-09-05T06:15:19.000Z</time>
      </trkpt>
      <trkpt lat="49.76936" lon="4.80338">
        <ele>283</ele>
        <time>2022-09-05T06:15:20.000Z</time>
      </trkpt>
      <trkpt lat="49.76936" lon="4.80338">
        <ele>283</ele>
        <time>2022-09-05T06:15:21.000Z</time>
      </trkpt>
      <trkpt lat="49.76936" lon="4.80338">
        <ele>283</ele>
        <time>2022-09-05T06:15:22.000Z</time>
      </trkpt>
      <trkpt lat="49.76936" lon="4.80339">
        <ele>283</ele>
        <time>2022-09-05T06:15:23.000Z</time>
      </trkpt>
      <trkpt lat="49.76936" lon="4.80339">
        <ele>283</ele>
        <time>2022-09-05T06:15:24.000Z</time>
      </trkpt>
      <trkpt lat="49.76936" lon="4.80339">
        <ele>283</ele>
        <time>2022-09-05T06:15:25.000Z</time>
      </trkpt>
      <trkpt lat="49.76936" lon="4.80339">
        <ele>283</ele>
        <time>2022-09-05T06:15:26.000Z</time>
      </trkpt>
      <trkpt lat="49.76936" lon="4.80339">
        <ele>283</ele>
        <time>2022-09-05T06:15:27.000Z</time>
      </trkpt>
      <trkpt lat="49.76936" lon="4.80339">
        <ele>283</ele>
        <time>2022-09-05T06:15:28.000Z</time>
      </trkpt>
      <trkpt lat="49.76936" lon="4.80339">
        <ele>283</ele>
        <time>2022-09-05T06:15:29.000Z</time>
      </trkpt>
      <trkpt lat="49.76936" lon="4.80338">
        <ele>283</ele>
        <time>2022-09-05T06:15:30.000Z</time>
      </trkpt>
      <trkpt lat="49.76936" lon="4.80338">
        <ele>283</ele>
        <time>2022-09-05T06:15:31.000Z</time>
      </trkpt>
      <trkpt lat="49.76936" lon="4.80338">
        <ele>283</ele>
        <time>2022-09-05T06:15:32.000Z</time>
      </trkpt>
      <trkpt lat="49.76936" lon="4.80338">
        <ele>283</ele>
        <time>2022-09-05T06:15:33.000Z</time>
      </trkpt>
      <trkpt lat="49.76936" lon="4.80338">
        <ele>283</ele>
        <time>2022-09-05T06:15:34.000Z</time>
      </trkpt>
      <trkpt lat="49.76936" lon="4.80338">
        <ele>283</ele>
        <time>2022-09-05T06:15:35.000Z</time>
      </trkpt>
      <trkpt lat="49.76937" lon="4.80339">
        <ele>283</ele>
        <time>2022-09-05T06:15:36.000Z</time>
      </trkpt>
      <trkpt lat="49.76936" lon="4.80338">
        <ele>283</ele>
        <time>2022-09-05T06:15:37.000Z</time>
      </trkpt>
      <trkpt lat="49.76936" lon="4.80338">
        <ele>283</ele>
        <time>2022-09-05T06:15:38.000Z</time>
      </trkpt>
      <trkpt lat="49.76936" lon="4.80339">
        <ele>283</ele>
        <time>2022-09-05T06:15:39.000Z</time>
      </trkpt>
      <trkpt lat="49.76936" lon="4.80338">
        <ele>283</ele>
        <time>2022-09-05T06:15:40.000Z</time>
      </trkpt>
      <trkpt lat="49.76936" lon="4.80338">
        <ele>283</ele>
        <time>2022-09-05T06:15:41.000Z</time>
      </trkpt>
      <trkpt lat="49.76936" lon="4.80338">
        <ele>283</ele>
        <time>2022-09-05T06:15:42.000Z</time>
      </trkpt>
      <trkpt lat="49.76936" lon="4.80338">
        <ele>283</ele>
        <time>2022-09-05T06:15:43.000Z</time>
      </trkpt>
      <trkpt lat="49.76937" lon="4.80338">
        <ele>283</ele>
        <time>2022-09-05T06:15:44.000Z</time>
      </trkpt>
      <trkpt lat="49.76937" lon="4.80338">
        <ele>283</ele>
        <time>2022-09-05T06:15:45.000Z</time>
      </trkpt>
      <trkpt lat="49.76937" lon="4.80338">
        <ele>283</ele>
        <time>2022-09-05T06:15:46.000Z</time>
      </trkpt>
      <trkpt lat="49.76937" lon="4.80338">
        <ele>283</ele>
        <time>2022-09-05T06:15:47.000Z</time>
      </trkpt>
      <trkpt lat="49.76937" lon="4.80338">
        <ele>283</ele>
        <time>2022-09-05T06:15:48.000Z</time>
      </trkpt>
      <trkpt lat="49.76937" lon="4.80338">
        <ele>283</ele>
        <time>2022-09-05T06:15:49.000Z</time>
      </trkpt>
      <trkpt lat="49.76937" lon="4.80338">
        <ele>283</ele>
        <time>2022-09-05T06:15:50.000Z</time>
      </trkpt>
      <trkpt lat="49.76937" lon="4.80338">
        <ele>283</ele>
        <time>2022-09-05T06:15:51.000Z</time>
      </trkpt>
      <trkpt lat="49.76937" lon="4.80338">
        <ele>283</ele>
        <time>2022-09-05T06:15:52.000Z</time>
      </trkpt>
      <trkpt lat="49.76937" lon="4.80338">
        <ele>283</ele>
        <time>2022-09-05T06:15:53.000Z</time>
      </trkpt>
      <trkpt lat="49.76937" lon="4.80338">
        <ele>283</ele>
        <time>2022-09-05T06:15:54.000Z</time>
      </trkpt>
      <trkpt lat="49.76937" lon="4.80338">
        <ele>283</ele>
        <time>2022-09-05T06:15:55.000Z</time>
      </trkpt>
      <trkpt lat="49.76937" lon="4.80338">
        <ele>283</ele>
        <time>2022-09-05T06:15:56.000Z</time>
      </trkpt>
      <trkpt lat="49.76937" lon="4.80338">
        <ele>282</ele>
        <time>2022-09-05T06:15:57.000Z</time>
      </trkpt>
      <trkpt lat="49.76937" lon="4.80338">
        <ele>282</ele>
        <time>2022-09-05T06:15:58.000Z</time>
      </trkpt>
      <trkpt lat="49.76937" lon="4.80338">
        <ele>282</ele>
        <time>2022-09-05T06:15:59.000Z</time>
      </trkpt>
      <trkpt lat="49.76937" lon="4.80338">
        <ele>282</ele>
        <time>2022-09-05T06:16:00.000Z</time>
      </trkpt>
      <trkpt lat="49.76937" lon="4.80338">
        <ele>282</ele>
        <time>2022-09-05T06:16:01.000Z</time>
      </trkpt>
      <trkpt lat="49.76937" lon="4.80338">
        <ele>282</ele>
        <time>2022-09-05T06:16:02.000Z</time>
      </trkpt>
      <trkpt lat="49.76938" lon="4.80338">
        <ele>282</ele>
        <time>2022-09-05T06:16:03.000Z</time>
      </trkpt>
      <trkpt lat="49.76938" lon="4.80338">
        <ele>282</ele>
        <time>2022-09-05T06:16:04.000Z</time>
      </trkpt>
      <trkpt lat="49.76938" lon="4.80338">
        <ele>282</ele>
        <time>2022-09-05T06:16:05.000Z</time>
      </trkpt>
      <trkpt lat="49.76938" lon="4.80338">
        <ele>282</ele>
        <time>2022-09-05T06:16:06.000Z</time>
      </trkpt>
      <trkpt lat="49.76938" lon="4.80338">
        <ele>282</ele>
        <time>2022-09-05T06:16:07.000Z</time>
      </trkpt>
      <trkpt lat="49.76938" lon="4.80338">
        <ele>282</ele>
        <time>2022-09-05T06:16:08.000Z</time>
      </trkpt>
      <trkpt lat="49.76938" lon="4.80338">
        <ele>282</ele>
        <time>2022-09-05T06:16:09.000Z</time>
      </trkpt>
      <trkpt lat="49.76938" lon="4.80338">
        <ele>282</ele>
        <time>2022-09-05T06:16:10.000Z</time>
      </trkpt>
      <trkpt lat="49.76938" lon="4.80338">
        <ele>281</ele>
        <time>2022-09-05T06:16:11.000Z</time>
      </trkpt>
      <trkpt lat="49.76938" lon="4.80337">
        <ele>281</ele>
        <time>2022-09-05T06:16:12.000Z</time>
      </trkpt>
      <trkpt lat="49.76938" lon="4.80337">
        <ele>281</ele>
        <time>2022-09-05T06:16:13.000Z</time>
      </trkpt>
      <trkpt lat="49.76938" lon="4.80337">
        <ele>281</ele>
        <time>2022-09-05T06:16:14.000Z</time>
      </trkpt>
      <trkpt lat="49.76938" lon="4.80337">
        <ele>281</ele>
        <time>2022-09-05T06:16:15.000Z</time>
      </trkpt>
      <trkpt lat="49.76938" lon="4.80337">
        <ele>281</ele>
        <time>2022-09-05T06:16:16.000Z</time>
      </trkpt>
      <trkpt lat="49.76938" lon="4.80337">
        <ele>281</ele>
        <time>2022-09-05T06:16:17.000Z</time>
      </trkpt>
      <trkpt lat="49.76938" lon="4.80337">
        <ele>281</ele>
        <time>2022-09-05T06:16:18.000Z</time>
      </trkpt>
      <trkpt lat="49.76938" lon="4.80337">
        <ele>281</ele>
        <time>2022-09-05T06:16:19.000Z</time>
      </trkpt>
      <trkpt lat="49.76938" lon="4.80337">
        <ele>281</ele>
        <time>2022-09-05T06:16:20.000Z</time>
      </trkpt>
      <trkpt lat="49.76938" lon="4.80337">
        <ele>281</ele>
        <time>2022-09-05T06:16:21.000Z</time>
      </trkpt>
      <trkpt lat="49.76938" lon="4.80336">
        <ele>281</ele>
        <time>2022-09-05T06:16:22.000Z</time>
      </trkpt>
      <trkpt lat="49.76938" lon="4.80337">
        <ele>281</ele>
        <time>2022-09-05T06:16:23.000Z</time>
      </trkpt>
      <trkpt lat="49.76938" lon="4.80337">
        <ele>281</ele>
        <time>2022-09-05T06:16:24.000Z</time>
      </trkpt>
      <trkpt lat="49.76938" lon="4.80337">
        <ele>281</ele>
        <time>2022-09-05T06:16:25.000Z</time>
      </trkpt>
      <trkpt lat="49.76938" lon="4.80337">
        <ele>280</ele>
        <time>2022-09-05T06:16:26.000Z</time>
      </trkpt>
      <trkpt lat="49.76938" lon="4.80337">
        <ele>280</ele>
        <time>2022-09-05T06:16:27.000Z</time>
      </trkpt>
      <trkpt lat="49.76939" lon="4.80337">
        <ele>280</ele>
        <time>2022-09-05T06:16:28.000Z</time>
      </trkpt>
      <trkpt lat="49.76939" lon="4.80337">
        <ele>280</ele>
        <time>2022-09-05T06:16:29.000Z</time>
      </trkpt>
      <trkpt lat="49.76939" lon="4.80337">
        <ele>280</ele>
        <time>2022-09-05T06:16:30.000Z</time>
      </trkpt>
      <trkpt lat="49.76939" lon="4.80337">
        <ele>280</ele>
        <time>2022-09-05T06:16:31.000Z</time>
      </trkpt>
      <trkpt lat="49.76939" lon="4.80337">
        <ele>280</ele>
        <time>2022-09-05T06:16:32.000Z</time>
      </trkpt>
      <trkpt lat="49.76939" lon="4.80337">
        <ele>280</ele>
        <time>2022-09-05T06:16:33.000Z</time>
      </trkpt>
      <trkpt lat="49.76939" lon="4.80337">
        <ele>280</ele>
        <time>2022-09-05T06:16:34.000Z</time>
      </trkpt>
      <trkpt lat="49.76939" lon="4.80337">
        <ele>280</ele>
        <time>2022-09-05T06:16:35.000Z</time>
      </trkpt>
      <trkpt lat="49.76939" lon="4.80337">
        <ele>280</ele>
        <time>2022-09-05T06:16:36.000Z</time>
      </trkpt>
      <trkpt lat="49.7694" lon="4.80337">
        <ele>280</ele>
        <time>2022-09-05T06:16:37.000Z</time>
      </trkpt>
      <trkpt lat="49.76939" lon="4.80337">
        <ele>280</ele>
        <time>2022-09-05T06:16:38.000Z</time>
      </trkpt>
      <trkpt lat="49.76939" lon="4.80337">
        <ele>280</ele>
        <time>2022-09-05T06:16:39.000Z</time>
      </trkpt>
      <trkpt lat="49.76939" lon="4.80337">
        <ele>280</ele>
        <time>2022-09-05T06:16:40.000Z</time>
      </trkpt>
      <trkpt lat="49.76939" lon="4.80337">
        <ele>280</ele>
        <time>2022-09-05T06:16:41.000Z</time>
      </trkpt>
      <trkpt lat="49.76939" lon="4.80336">
        <ele>280</ele>
        <time>2022-09-05T06:16:42.000Z</time>
      </trkpt>
      <trkpt lat="49.76939" lon="4.80336">
        <ele>280</ele>
        <time>2022-09-05T06:16:43.000Z</time>
      </trkpt>
      <trkpt lat="49.76939" lon="4.80336">
        <ele>280</ele>
        <time>2022-09-05T06:16:44.000Z</time>
      </trkpt>
      <trkpt lat="49.76939" lon="4.80335">
        <ele>280</ele>
        <time>2022-09-05T06:16:45.000Z</time>
      </trkpt>
      <trkpt lat="49.7694" lon="4.80334">
        <ele>280</ele>
        <time>2022-09-05T06:16:46.000Z</time>
      </trkpt>
      <trkpt lat="49.7694" lon="4.80333">
        <ele>280</ele>
        <time>2022-09-05T06:16:47.000Z</time>
      </trkpt>
      <trkpt lat="49.7694" lon="4.80332">
        <ele>281</ele>
        <time>2022-09-05T06:16:48.000Z</time>
      </trkpt>
      <trkpt lat="49.76941" lon="4.80331">
        <ele>281</ele>
        <time>2022-09-05T06:16:49.000Z</time>
      </trkpt>
      <trkpt lat="49.76942" lon="4.8033">
        <ele>281</ele>
        <time>2022-09-05T06:16:50.000Z</time>
      </trkpt>
      <trkpt lat="49.76944" lon="4.80328">
        <ele>281</ele>
        <time>2022-09-05T06:16:51.000Z</time>
      </trkpt>
      <trkpt lat="49.76945" lon="4.80327">
        <ele>281</ele>
        <time>2022-09-05T06:16:52.000Z</time>
      </trkpt>
      <trkpt lat="49.76946" lon="4.80325">
        <ele>282</ele>
        <time>2022-09-05T06:16:53.000Z</time>
      </trkpt>
      <trkpt lat="49.76948" lon="4.80324">
        <ele>282</ele>
        <time>2022-09-05T06:16:54.000Z</time>
      </trkpt>
      <trkpt lat="49.76949" lon="4.80323">
        <ele>282</ele>
        <time>2022-09-05T06:16:55.000Z</time>
      </trkpt>
      <trkpt lat="49.7695" lon="4.80321">
        <ele>282</ele>
        <time>2022-09-05T06:16:56.000Z</time>
      </trkpt>
      <trkpt lat="49.76951" lon="4.80318">
        <ele>283</ele>
        <time>2022-09-05T06:16:57.000Z</time>
      </trkpt>
      <trkpt lat="49.76952" lon="4.80316">
        <ele>283</ele>
        <time>2022-09-05T06:16:58.000Z</time>
      </trkpt>
      <trkpt lat="49.76954" lon="4.80314">
        <ele>283</ele>
        <time>2022-09-05T06:16:59.000Z</time>
      </trkpt>
      <trkpt lat="49.76955" lon="4.80311">
        <ele>283</ele>
        <time>2022-09-05T06:17:00.000Z</time>
      </trkpt>
      <trkpt lat="49.76957" lon="4.80308">
        <ele>283</ele>
        <time>2022-09-05T06:17:01.000Z</time>
      </trkpt>
      <trkpt lat="49.76959" lon="4.80306">
        <ele>284</ele>
        <time>2022-09-05T06:17:02.000Z</time>
      </trkpt>
      <trkpt lat="49.7696" lon="4.80304">
        <ele>284</ele>
        <time>2022-09-05T06:17:03.000Z</time>
      </trkpt>
      <trkpt lat="49.76962" lon="4.80302">
        <ele>284</ele>
        <time>2022-09-05T06:17:04.000Z</time>
      </trkpt>
      <trkpt lat="49.76964" lon="4.803">
        <ele>285</ele>
        <time>2022-09-05T06:17:05.000Z</time>
      </trkpt>
      <trkpt lat="49.76966" lon="4.80297">
        <ele>285</ele>
        <time>2022-09-05T06:17:06.000Z</time>
      </trkpt>
      <trkpt lat="49.76968" lon="4.80293">
        <ele>286</ele>
        <time>2022-09-05T06:17:07.000Z</time>
      </trkpt>
      <trkpt lat="49.7697" lon="4.80289">
        <ele>286</ele>
        <time>2022-09-05T06:17:08.000Z</time>
      </trkpt>
      <trkpt lat="49.76972" lon="4.80286">
        <ele>286</ele>
        <time>2022-09-05T06:17:09.000Z</time>
      </trkpt>
      <trkpt lat="49.76975" lon="4.80282">
        <ele>287</ele>
        <time>2022-09-05T06:17:10.000Z</time>
      </trkpt>
      <trkpt lat="49.76977" lon="4.80278">
        <ele>287</ele>
        <time>2022-09-05T06:17:11.000Z</time>
      </trkpt>
      <trkpt lat="49.7698" lon="4.80275">
        <ele>288</ele>
        <time>2022-09-05T06:17:12.000Z</time>
      </trkpt>
      <trkpt lat="49.76983" lon="4.80271">
        <ele>288</ele>
        <time>2022-09-05T06:17:13.000Z</time>
      </trkpt>
      <trkpt lat="49.76986" lon="4.80268">
        <ele>289</ele>
        <time>2022-09-05T06:17:14.000Z</time>
      </trkpt>
      <trkpt lat="49.76988" lon="4.80264">
        <ele>289</ele>
        <time>2022-09-05T06:17:15.000Z</time>
      </trkpt>
      <trkpt lat="49.7699" lon="4.8026">
        <ele>290</ele>
        <time>2022-09-05T06:17:16.000Z</time>
      </trkpt>
      <trkpt lat="49.76993" lon="4.80256">
        <ele>290</ele>
        <time>2022-09-05T06:17:17.000Z</time>
      </trkpt>
      <trkpt lat="49.76995" lon="4.80253">
        <ele>291</ele>
        <time>2022-09-05T06:17:18.000Z</time>
      </trkpt>
      <trkpt lat="49.76997" lon="4.80248">
        <ele>291</ele>
        <time>2022-09-05T06:17:19.000Z</time>
      </trkpt>
      <trkpt lat="49.77" lon="4.80245">
        <ele>292</ele>
        <time>2022-09-05T06:17:20.000Z</time>
      </trkpt>
      <trkpt lat="49.77004" lon="4.80241">
        <ele>293</ele>
        <time>2022-09-05T06:17:21.000Z</time>
      </trkpt>
      <trkpt lat="49.77006" lon="4.80237">
        <ele>293</ele>
        <time>2022-09-05T06:17:22.000Z</time>
      </trkpt>
      <trkpt lat="49.77008" lon="4.80234">
        <ele>293</ele>
        <time>2022-09-05T06:17:23.000Z</time>
      </trkpt>
      <trkpt lat="49.77011" lon="4.8023">
        <ele>294</ele>
        <time>2022-09-05T06:17:24.000Z</time>
      </trkpt>
      <trkpt lat="49.77013" lon="4.80227">
        <ele>294</ele>
        <time>2022-09-05T06:17:25.000Z</time>
      </trkpt>
      <trkpt lat="49.77016" lon="4.80224">
        <ele>294</ele>
        <time>2022-09-05T06:17:26.000Z</time>
      </trkpt>
      <trkpt lat="49.77017" lon="4.80222">
        <ele>294</ele>
        <time>2022-09-05T06:17:27.000Z</time>
      </trkpt>
      <trkpt lat="49.77018" lon="4.80221">
        <ele>294</ele>
        <time>2022-09-05T06:17:28.000Z</time>
      </trkpt>
      <trkpt lat="49.77018" lon="4.80221">
        <ele>295</ele>
        <time>2022-09-05T06:17:29.000Z</time>
      </trkpt>
      <trkpt lat="49.77018" lon="4.8022">
        <ele>295</ele>
        <time>2022-09-05T06:17:30.000Z</time>
      </trkpt>
      <trkpt lat="49.77018" lon="4.80219">
        <ele>295</ele>
        <time>2022-09-05T06:17:31.000Z</time>
      </trkpt>
      <trkpt lat="49.77018" lon="4.80218">
        <ele>295</ele>
        <time>2022-09-05T06:17:32.000Z</time>
      </trkpt>
      <trkpt lat="49.77018" lon="4.80218">
        <ele>296</ele>
        <time>2022-09-05T06:17:33.000Z</time>
      </trkpt>
      <trkpt lat="49.77019" lon="4.80218">
        <ele>296</ele>
        <time>2022-09-05T06:17:34.000Z</time>
      </trkpt>
      <trkpt lat="49.77019" lon="4.80217">
        <ele>296</ele>
        <time>2022-09-05T06:17:35.000Z</time>
      </trkpt>
      <trkpt lat="49.77021" lon="4.80217">
        <ele>296</ele>
        <time>2022-09-05T06:17:36.000Z</time>
      </trkpt>
      <trkpt lat="49.77023" lon="4.80216">
        <ele>296</ele>
        <time>2022-09-05T06:17:37.000Z</time>
      </trkpt>
      <trkpt lat="49.77025" lon="4.80214">
        <ele>297</ele>
        <time>2022-09-05T06:17:38.000Z</time>
      </trkpt>
      <trkpt lat="49.77028" lon="4.80212">
        <ele>297</ele>
        <time>2022-09-05T06:17:39.000Z</time>
      </trkpt>
      <trkpt lat="49.77031" lon="4.8021">
        <ele>297</ele>
        <time>2022-09-05T06:17:40.000Z</time>
      </trkpt>
      <trkpt lat="49.77034" lon="4.80208">
        <ele>297</ele>
        <time>2022-09-05T06:17:41.000Z</time>
      </trkpt>
      <trkpt lat="49.77037" lon="4.80205">
        <ele>297</ele>
        <time>2022-09-05T06:17:42.000Z</time>
      </trkpt>
      <trkpt lat="49.7704" lon="4.80202">
        <ele>298</ele>
        <time>2022-09-05T06:17:43.000Z</time>
      </trkpt>
      <trkpt lat="49.77042" lon="4.80199">
        <ele>298</ele>
        <time>2022-09-05T06:17:44.000Z</time>
      </trkpt>
      <trkpt lat="49.77045" lon="4.80196">
        <ele>298</ele>
        <time>2022-09-05T06:17:45.000Z</time>
      </trkpt>
      <trkpt lat="49.77047" lon="4.80192">
        <ele>298</ele>
        <time>2022-09-05T06:17:46.000Z</time>
      </trkpt>
      <trkpt lat="49.77049" lon="4.80189">
        <ele>298</ele>
        <time>2022-09-05T06:17:47.000Z</time>
      </trkpt>
      <trkpt lat="49.77051" lon="4.80186">
        <ele>298</ele>
        <time>2022-09-05T06:17:48.000Z</time>
      </trkpt>
      <trkpt lat="49.77053" lon="4.80183">
        <ele>298</ele>
        <time>2022-09-05T06:17:49.000Z</time>
      </trkpt>
      <trkpt lat="49.77055" lon="4.80179">
        <ele>298</ele>
        <time>2022-09-05T06:17:50.000Z</time>
      </trkpt>
      <trkpt lat="49.77058" lon="4.80175">
        <ele>298</ele>
        <time>2022-09-05T06:17:51.000Z</time>
      </trkpt>
      <trkpt lat="49.7706" lon="4.8017">
        <ele>298</ele>
        <time>2022-09-05T06:17:52.000Z</time>
      </trkpt>
      <trkpt lat="49.77063" lon="4.80167">
        <ele>298</ele>
        <time>2022-09-05T06:17:53.000Z</time>
      </trkpt>
      <trkpt lat="49.77067" lon="4.80163">
        <ele>298</ele>
        <time>2022-09-05T06:17:54.000Z</time>
      </trkpt>
      <trkpt lat="49.7707" lon="4.80161">
        <ele>298</ele>
        <time>2022-09-05T06:17:55.000Z</time>
      </trkpt>
      <trkpt lat="49.77074" lon="4.8016">
        <ele>298</ele>
        <time>2022-09-05T06:17:56.000Z</time>
      </trkpt>
      <trkpt lat="49.77078" lon="4.80161">
        <ele>298</ele>
        <time>2022-09-05T06:17:57.000Z</time>
      </trkpt>
      <trkpt lat="49.77081" lon="4.80163">
        <ele>298</ele>
        <time>2022-09-05T06:17:58.000Z</time>
      </trkpt>
      <trkpt lat="49.77085" lon="4.80165">
        <ele>298</ele>
        <time>2022-09-05T06:17:59.000Z</time>
      </trkpt>
      <trkpt lat="49.77089" lon="4.80169">
        <ele>298</ele>
        <time>2022-09-05T06:18:00.000Z</time>
      </trkpt>
      <trkpt lat="49.77092" lon="4.80172">
        <ele>298</ele>
        <time>2022-09-05T06:18:01.000Z</time>
      </trkpt>
      <trkpt lat="49.77095" lon="4.80176">
        <ele>298</ele>
        <time>2022-09-05T06:18:02.000Z</time>
      </trkpt>
      <trkpt lat="49.77098" lon="4.80178">
        <ele>298</ele>
        <time>2022-09-05T06:18:03.000Z</time>
      </trkpt>
      <trkpt lat="49.77101" lon="4.8018">
        <ele>298</ele>
        <time>2022-09-05T06:18:04.000Z</time>
      </trkpt>
      <trkpt lat="49.77103" lon="4.80183">
        <ele>298</ele>
        <time>2022-09-05T06:18:05.000Z</time>
      </trkpt>
      <trkpt lat="49.77106" lon="4.80185">
        <ele>298</ele>
        <time>2022-09-05T06:18:06.000Z</time>
      </trkpt>
      <trkpt lat="49.77109" lon="4.80186">
        <ele>298</ele>
        <time>2022-09-05T06:18:07.000Z</time>
      </trkpt>
      <trkpt lat="49.77111" lon="4.80186">
        <ele>298</ele>
        <time>2022-09-05T06:18:08.000Z</time>
      </trkpt>
      <trkpt lat="49.77113" lon="4.80186">
        <ele>298</ele>
        <time>2022-09-05T06:18:09.000Z</time>
      </trkpt>
      <trkpt lat="49.77114" lon="4.80187">
        <ele>298</ele>
        <time>2022-09-05T06:18:10.000Z</time>
      </trkpt>
      <trkpt lat="49.77114" lon="4.80187">
        <ele>298</ele>
        <time>2022-09-05T06:18:11.000Z</time>
      </trkpt>
      <trkpt lat="49.77114" lon="4.80188">
        <ele>298</ele>
        <time>2022-09-05T06:18:12.000Z</time>
      </trkpt>
      <trkpt lat="49.77115" lon="4.80187">
        <ele>298</ele>
        <time>2022-09-05T06:18:13.000Z</time>
      </trkpt>
      <trkpt lat="49.77115" lon="4.80188">
        <ele>298</ele>
        <time>2022-09-05T06:18:14.000Z</time>
      </trkpt>
      <trkpt lat="49.77115" lon="4.80189">
        <ele>298</ele>
        <time>2022-09-05T06:18:15.000Z</time>
      </trkpt>
      <trkpt lat="49.77115" lon="4.8019">
        <ele>298</ele>
        <time>2022-09-05T06:18:16.000Z</time>
      </trkpt>
      <trkpt lat="49.77115" lon="4.8019">
        <ele>297</ele>
        <time>2022-09-05T06:18:17.000Z</time>
      </trkpt>
      <trkpt lat="49.77116" lon="4.80191">
        <ele>297</ele>
        <time>2022-09-05T06:18:18.000Z</time>
      </trkpt>
      <trkpt lat="49.77116" lon="4.80191">
        <ele>297</ele>
        <time>2022-09-05T06:18:19.000Z</time>
      </trkpt>
      <trkpt lat="49.77116" lon="4.80192">
        <ele>297</ele>
        <time>2022-09-05T06:18:20.000Z</time>
      </trkpt>
      <trkpt lat="49.77116" lon="4.80192">
        <ele>297</ele>
        <time>2022-09-05T06:18:21.000Z</time>
      </trkpt>
      <trkpt lat="49.77116" lon="4.80193">
        <ele>297</ele>
        <time>2022-09-05T06:18:22.000Z</time>
      </trkpt>
      <trkpt lat="49.77116" lon="4.80193">
        <ele>297</ele>
        <time>2022-09-05T06:18:23.000Z</time>
      </trkpt>
      <trkpt lat="49.77116" lon="4.80194">
        <ele>297</ele>
        <time>2022-09-05T06:18:24.000Z</time>
      </trkpt>
      <trkpt lat="49.77117" lon="4.80194">
        <ele>297</ele>
        <time>2022-09-05T06:18:25.000Z</time>
      </trkpt>
      <trkpt lat="49.77117" lon="4.80195">
        <ele>297</ele>
        <time>2022-09-05T06:18:26.000Z</time>
      </trkpt>
      <trkpt lat="49.77117" lon="4.80195">
        <ele>297</ele>
        <time>2022-09-05T06:18:27.000Z</time>
      </trkpt>
      <trkpt lat="49.77117" lon="4.80195">
        <ele>297</ele>
        <time>2022-09-05T06:18:28.000Z</time>
      </trkpt>
      <trkpt lat="49.77117" lon="4.80196">
        <ele>297</ele>
        <time>2022-09-05T06:18:29.000Z</time>
      </trkpt>
      <trkpt lat="49.77117" lon="4.80196">
        <ele>297</ele>
        <time>2022-09-05T06:18:30.000Z</time>
      </trkpt>
      <trkpt lat="49.77117" lon="4.80196">
        <ele>297</ele>
        <time>2022-09-05T06:18:31.000Z</time>
      </trkpt>
      <trkpt lat="49.77117" lon="4.80196">
        <ele>297</ele>
        <time>2022-09-05T06:18:32.000Z</time>
      </trkpt>
      <trkpt lat="49.77117" lon="4.80197">
        <ele>297</ele>
        <time>2022-09-05T06:18:33.000Z</time>
      </trkpt>
      <trkpt lat="49.77117" lon="4.80197">
        <ele>297</ele>
        <time>2022-09-05T06:18:34.000Z</time>
      </trkpt>
      <trkpt lat="49.77117" lon="4.80197">
        <ele>297</ele>
        <time>2022-09-05T06:18:35.000Z</time>
      </trkpt>
      <trkpt lat="49.77118" lon="4.80197">
        <ele>297</ele>
        <time>2022-09-05T06:18:36.000Z</time>
      </trkpt>
      <trkpt lat="49.77118" lon="4.80197">
        <ele>297</ele>
        <time>2022-09-05T06:18:37.000Z</time>
      </trkpt>
      <trkpt lat="49.77118" lon="4.80198">
        <ele>296</ele>
        <time>2022-09-05T06:18:38.000Z</time>
      </trkpt>
      <trkpt lat="49.77118" lon="4.80198">
        <ele>296</ele>
        <time>2022-09-05T06:18:39.000Z</time>
      </trkpt>
      <trkpt lat="49.77117" lon="4.80198">
        <ele>296</ele>
        <time>2022-09-05T06:18:40.000Z</time>
      </trkpt>
      <trkpt lat="49.77118" lon="4.80198">
        <ele>296</ele>
        <time>2022-09-05T06:18:41.000Z</time>
      </trkpt>
      <trkpt lat="49.77118" lon="4.80197">
        <ele>296</ele>
        <time>2022-09-05T06:18:42.000Z</time>
      </trkpt>
      <trkpt lat="49.77118" lon="4.80197">
        <ele>296</ele>
        <time>2022-09-05T06:18:43.000Z</time>
      </trkpt>
      <trkpt lat="49.77118" lon="4.80197">
        <ele>296</ele>
        <time>2022-09-05T06:18:44.000Z</time>
      </trkpt>
      <trkpt lat="49.77118" lon="4.80197">
        <ele>296</ele>
        <time>2022-09-05T06:18:45.000Z</time>
      </trkpt>
      <trkpt lat="49.77119" lon="4.80196">
        <ele>296</ele>
        <time>2022-09-05T06:18:46.000Z</time>
      </trkpt>
      <trkpt lat="49.77119" lon="4.80196">
        <ele>296</ele>
        <time>2022-09-05T06:18:47.000Z</time>
      </trkpt>
      <trkpt lat="49.77119" lon="4.80196">
        <ele>296</ele>
        <time>2022-09-05T06:18:48.000Z</time>
      </trkpt>
      <trkpt lat="49.77119" lon="4.80196">
        <ele>295</ele>
        <time>2022-09-05T06:18:49.000Z</time>
      </trkpt>
      <trkpt lat="49.77119" lon="4.80196">
        <ele>295</ele>
        <time>2022-09-05T06:18:50.000Z</time>
      </trkpt>
      <trkpt lat="49.77119" lon="4.80195">
        <ele>295</ele>
        <time>2022-09-05T06:18:51.000Z</time>
      </trkpt>
      <trkpt lat="49.77119" lon="4.80195">
        <ele>295</ele>
        <time>2022-09-05T06:18:52.000Z</time>
      </trkpt>
      <trkpt lat="49.7712" lon="4.80195">
        <ele>295</ele>
        <time>2022-09-05T06:18:53.000Z</time>
      </trkpt>
      <trkpt lat="49.7712" lon="4.80195">
        <ele>295</ele>
        <time>2022-09-05T06:18:54.000Z</time>
      </trkpt>
      <trkpt lat="49.7712" lon="4.80195">
        <ele>295</ele>
        <time>2022-09-05T06:18:55.000Z</time>
      </trkpt>
      <trkpt lat="49.7712" lon="4.80195">
        <ele>295</ele>
        <time>2022-09-05T06:18:56.000Z</time>
      </trkpt>
      <trkpt lat="49.7712" lon="4.80195">
        <ele>295</ele>
        <time>2022-09-05T06:18:57.000Z</time>
      </trkpt>
      <trkpt lat="49.7712" lon="4.80194">
        <ele>295</ele>
        <time>2022-09-05T06:18:58.000Z</time>
      </trkpt>
      <trkpt lat="49.7712" lon="4.80194">
        <ele>295</ele>
        <time>2022-09-05T06:18:59.000Z</time>
      </trkpt>
      <trkpt lat="49.7712" lon="4.80194">
        <ele>295</ele>
        <time>2022-09-05T06:19:00.000Z</time>
      </trkpt>
      <trkpt lat="49.7712" lon="4.80194">
        <ele>295</ele>
        <time>2022-09-05T06:19:01.000Z</time>
      </trkpt>
      <trkpt lat="49.7712" lon="4.80194">
        <ele>295</ele>
        <time>2022-09-05T06:19:02.000Z</time>
      </trkpt>
      <trkpt lat="49.7712" lon="4.80194">
        <ele>295</ele>
        <time>2022-09-05T06:19:03.000Z</time>
      </trkpt>
      <trkpt lat="49.7712" lon="4.80194">
        <ele>295</ele>
        <time>2022-09-05T06:19:04.000Z</time>
      </trkpt>
      <trkpt lat="49.77121" lon="4.80194">
        <ele>295</ele>
        <time>2022-09-05T06:19:05.000Z</time>
      </trkpt>
      <trkpt lat="49.77121" lon="4.80194">
        <ele>295</ele>
        <time>2022-09-05T06:19:06.000Z</time>
      </trkpt>
      <trkpt lat="49.77121" lon="4.80194">
        <ele>295</ele>
        <time>2022-09-05T06:19:07.000Z</time>
      </trkpt>
      <trkpt lat="49.77121" lon="4.80194">
        <ele>295</ele>
        <time>2022-09-05T06:19:08.000Z</time>
      </trkpt>
      <trkpt lat="49.77121" lon="4.80194">
        <ele>295</ele>
        <time>2022-09-05T06:19:09.000Z</time>
      </trkpt>
      <trkpt lat="49.77121" lon="4.80194">
        <ele>295</ele>
        <time>2022-09-05T06:19:10.000Z</time>
      </trkpt>
      <trkpt lat="49.77121" lon="4.80194">
        <ele>295</ele>
        <time>2022-09-05T06:19:11.000Z</time>
      </trkpt>
      <trkpt lat="49.77121" lon="4.80194">
        <ele>295</ele>
        <time>2022-09-05T06:19:12.000Z</time>
      </trkpt>
      <trkpt lat="49.7712" lon="4.80194">
        <ele>295</ele>
        <time>2022-09-05T06:19:13.000Z</time>
      </trkpt>
      <trkpt lat="49.7712" lon="4.80194">
        <ele>295</ele>
        <time>2022-09-05T06:19:14.000Z</time>
      </trkpt>
      <trkpt lat="49.7712" lon="4.80194">
        <ele>295</ele>
        <time>2022-09-05T06:19:15.000Z</time>
      </trkpt>
      <trkpt lat="49.7712" lon="4.80194">
        <ele>295</ele>
        <time>2022-09-05T06:19:16.000Z</time>
      </trkpt>
      <trkpt lat="49.7712" lon="4.80194">
        <ele>295</ele>
        <time>2022-09-05T06:19:17.000Z</time>
      </trkpt>
      <trkpt lat="49.7712" lon="4.80194">
        <ele>295</ele>
        <time>2022-09-05T06:19:18.000Z</time>
      </trkpt>
      <trkpt lat="49.7712" lon="4.80194">
        <ele>295</ele>
        <time>2022-09-05T06:19:19.000Z</time>
      </trkpt>
      <trkpt lat="49.7712" lon="4.80194">
        <ele>295</ele>
        <time>2022-09-05T06:19:20.000Z</time>
      </trkpt>
      <trkpt lat="49.7712" lon="4.80194">
        <ele>295</ele>
        <time>2022-09-05T06:19:21.000Z</time>
      </trkpt>
      <trkpt lat="49.7712" lon="4.80194">
        <ele>295</ele>
        <time>2022-09-05T06:19:22.000Z</time>
      </trkpt>
      <trkpt lat="49.7712" lon="4.80194">
        <ele>295</ele>
        <time>2022-09-05T06:19:23.000Z</time>
      </trkpt>
      <trkpt lat="49.7712" lon="4.80193">
        <ele>295</ele>
        <time>2022-09-05T06:19:24.000Z</time>
      </trkpt>
      <trkpt lat="49.7712" lon="4.80193">
        <ele>295</ele>
        <time>2022-09-05T06:19:25.000Z</time>
      </trkpt>
      <trkpt lat="49.7712" lon="4.80193">
        <ele>295</ele>
        <time>2022-09-05T06:19:26.000Z</time>
      </trkpt>
      <trkpt lat="49.77119" lon="4.80193">
        <ele>295</ele>
        <time>2022-09-05T06:19:27.000Z</time>
      </trkpt>
      <trkpt lat="49.77119" lon="4.80193">
        <ele>295</ele>
        <time>2022-09-05T06:19:28.000Z</time>
      </trkpt>
      <trkpt lat="49.77119" lon="4.80193">
        <ele>295</ele>
        <time>2022-09-05T06:19:29.000Z</time>
      </trkpt>
      <trkpt lat="49.77119" lon="4.80194">
        <ele>295</ele>
        <time>2022-09-05T06:19:30.000Z</time>
      </trkpt>
      <trkpt lat="49.77119" lon="4.80193">
        <ele>295</ele>
        <time>2022-09-05T06:19:31.000Z</time>
      </trkpt>
      <trkpt lat="49.77119" lon="4.80193">
        <ele>295</ele>
        <time>2022-09-05T06:19:32.000Z</time>
      </trkpt>
      <trkpt lat="49.77119" lon="4.80193">
        <ele>295</ele>
        <time>2022-09-05T06:19:33.000Z</time>
      </trkpt>
      <trkpt lat="49.77119" lon="4.80193">
        <ele>295</ele>
        <time>2022-09-05T06:19:34.000Z</time>
      </trkpt>
      <trkpt lat="49.77119" lon="4.80193">
        <ele>295</ele>
        <time>2022-09-05T06:19:35.000Z</time>
      </trkpt>
      <trkpt lat="49.77119" lon="4.80193">
        <ele>295</ele>
        <time>2022-09-05T06:19:36.000Z</time>
      </trkpt>
      <trkpt lat="49.77119" lon="4.80193">
        <ele>295</ele>
        <time>2022-09-05T06:19:37.000Z</time>
      </trkpt>
      <trkpt lat="49.77119" lon="4.80193">
        <ele>295</ele>
        <time>2022-09-05T06:19:38.000Z</time>
      </trkpt>
      <trkpt lat="49.77119" lon="4.80193">
        <ele>295</ele>
        <time>2022-09-05T06:19:39.000Z</time>
      </trkpt>
      <trkpt lat="49.77119" lon="4.80193">
        <ele>294</ele>
        <time>2022-09-05T06:19:40.000Z</time>
      </trkpt>
      <trkpt lat="49.77119" lon="4.80193">
        <ele>294</ele>
        <time>2022-09-05T06:19:41.000Z</time>
      </trkpt>
      <trkpt lat="49.77119" lon="4.80193">
        <ele>294</ele>
        <time>2022-09-05T06:19:42.000Z</time>
      </trkpt>
      <trkpt lat="49.77119" lon="4.80193">
        <ele>294</ele>
        <time>2022-09-05T06:19:43.000Z</time>
      </trkpt>
      <trkpt lat="49.77119" lon="4.80193">
        <ele>294</ele>
        <time>2022-09-05T06:19:44.000Z</time>
      </trkpt>
      <trkpt lat="49.77119" lon="4.80193">
        <ele>294</ele>
        <time>2022-09-05T06:19:45.000Z</time>
      </trkpt>
      <trkpt lat="49.77118" lon="4.80193">
        <ele>294</ele>
        <time>2022-09-05T06:19:46.000Z</time>
      </trkpt>
      <trkpt lat="49.77118" lon="4.80193">
        <ele>294</ele>
        <time>2022-09-05T06:19:47.000Z</time>
      </trkpt>
      <trkpt lat="49.77118" lon="4.80193">
        <ele>294</ele>
        <time>2022-09-05T06:19:48.000Z</time>
      </trkpt>
      <trkpt lat="49.77118" lon="4.80193">
        <ele>294</ele>
        <time>2022-09-05T06:19:49.000Z</time>
      </trkpt>
      <trkpt lat="49.77118" lon="4.80193">
        <ele>294</ele>
        <time>2022-09-05T06:19:50.000Z</time>
      </trkpt>
      <trkpt lat="49.77118" lon="4.80193">
        <ele>294</ele>
        <time>2022-09-05T06:19:51.000Z</time>
      </trkpt>
      <trkpt lat="49.77118" lon="4.80193">
        <ele>294</ele>
        <time>2022-09-05T06:19:52.000Z</time>
      </trkpt>
      <trkpt lat="49.77118" lon="4.80193">
        <ele>294</ele>
        <time>2022-09-05T06:19:53.000Z</time>
      </trkpt>
      <trkpt lat="49.77117" lon="4.80193">
        <ele>294</ele>
        <time>2022-09-05T06:19:54.000Z</time>
      </trkpt>
      <trkpt lat="49.77117" lon="4.80193">
        <ele>293</ele>
        <time>2022-09-05T06:19:55.000Z</time>
      </trkpt>
      <trkpt lat="49.77117" lon="4.80193">
        <ele>293</ele>
        <time>2022-09-05T06:19:56.000Z</time>
      </trkpt>
      <trkpt lat="49.77117" lon="4.80193">
        <ele>293</ele>
        <time>2022-09-05T06:19:57.000Z</time>
      </trkpt>
      <trkpt lat="49.77117" lon="4.80193">
        <ele>293</ele>
        <time>2022-09-05T06:19:58.000Z</time>
      </trkpt>
      <trkpt lat="49.77117" lon="4.80192">
        <ele>293</ele>
        <time>2022-09-05T06:19:59.000Z</time>
      </trkpt>
      <trkpt lat="49.77117" lon="4.80192">
        <ele>293</ele>
        <time>2022-09-05T06:20:00.000Z</time>
      </trkpt>
      <trkpt lat="49.77117" lon="4.80192">
        <ele>293</ele>
        <time>2022-09-05T06:20:01.000Z</time>
      </trkpt>
      <trkpt lat="49.77117" lon="4.80192">
        <ele>293</ele>
        <time>2022-09-05T06:20:02.000Z</time>
      </trkpt>
      <trkpt lat="49.77117" lon="4.80192">
        <ele>293</ele>
        <time>2022-09-05T06:20:03.000Z</time>
      </trkpt>
      <trkpt lat="49.77117" lon="4.80192">
        <ele>293</ele>
        <time>2022-09-05T06:20:04.000Z</time>
      </trkpt>
      <trkpt lat="49.77117" lon="4.80192">
        <ele>293</ele>
        <time>2022-09-05T06:20:05.000Z</time>
      </trkpt>
      <trkpt lat="49.77117" lon="4.80192">
        <ele>293</ele>
        <time>2022-09-05T06:20:06.000Z</time>
      </trkpt>
      <trkpt lat="49.77117" lon="4.80192">
        <ele>293</ele>
        <time>2022-09-05T06:20:07.000Z</time>
      </trkpt>
      <trkpt lat="49.77117" lon="4.80192">
        <ele>292</ele>
        <time>2022-09-05T06:20:08.000Z</time>
      </trkpt>
      <trkpt lat="49.77117" lon="4.80192">
        <ele>292</ele>
        <time>2022-09-05T06:20:09.000Z</time>
      </trkpt>
      <trkpt lat="49.77116" lon="4.80192">
        <ele>292</ele>
        <time>2022-09-05T06:20:10.000Z</time>
      </trkpt>
      <trkpt lat="49.77116" lon="4.80192">
        <ele>292</ele>
        <time>2022-09-05T06:20:11.000Z</time>
      </trkpt>
      <trkpt lat="49.77116" lon="4.80192">
        <ele>292</ele>
        <time>2022-09-05T06:20:12.000Z</time>
      </trkpt>
      <trkpt lat="49.77117" lon="4.80193">
        <ele>292</ele>
        <time>2022-09-05T06:20:13.000Z</time>
      </trkpt>
      <trkpt lat="49.77117" lon="4.80193">
        <ele>292</ele>
        <time>2022-09-05T06:20:14.000Z</time>
      </trkpt>
      <trkpt lat="49.77117" lon="4.80193">
        <ele>292</ele>
        <time>2022-09-05T06:20:15.000Z</time>
      </trkpt>
      <trkpt lat="49.77117" lon="4.80193">
        <ele>292</ele>
        <time>2022-09-05T06:20:16.000Z</time>
      </trkpt>
      <trkpt lat="49.77117" lon="4.80193">
        <ele>292</ele>
        <time>2022-09-05T06:20:17.000Z</time>
      </trkpt>
      <trkpt lat="49.77117" lon="4.80193">
        <ele>292</ele>
        <time>2022-09-05T06:20:18.000Z</time>
      </trkpt>
      <trkpt lat="49.77117" lon="4.80193">
        <ele>292</ele>
        <time>2022-09-05T06:20:19.000Z</time>
      </trkpt>
      <trkpt lat="49.77117" lon="4.80193">
        <ele>292</ele>
        <time>2022-09-05T06:20:20.000Z</time>
      </trkpt>
      <trkpt lat="49.77117" lon="4.80194">
        <ele>292</ele>
        <time>2022-09-05T06:20:21.000Z</time>
      </trkpt>
      <trkpt lat="49.77117" lon="4.80194">
        <ele>292</ele>
        <time>2022-09-05T06:20:22.000Z</time>
      </trkpt>
      <trkpt lat="49.77117" lon="4.80194">
        <ele>292</ele>
        <time>2022-09-05T06:20:23.000Z</time>
      </trkpt>
      <trkpt lat="49.77117" lon="4.80194">
        <ele>292</ele>
        <time>2022-09-05T06:20:24.000Z</time>
      </trkpt>
      <trkpt lat="49.77117" lon="4.80194">
        <ele>292</ele>
        <time>2022-09-05T06:20:25.000Z</time>
      </trkpt>
      <trkpt lat="49.77118" lon="4.80194">
        <ele>292</ele>
        <time>2022-09-05T06:20:26.000Z</time>
      </trkpt>
      <trkpt lat="49.77118" lon="4.80194">
        <ele>292</ele>
        <time>2022-09-05T06:20:27.000Z</time>
      </trkpt>
      <trkpt lat="49.77118" lon="4.80194">
        <ele>292</ele>
        <time>2022-09-05T06:20:28.000Z</time>
      </trkpt>
      <trkpt lat="49.77118" lon="4.80194">
        <ele>292</ele>
        <time>2022-09-05T06:20:29.000Z</time>
      </trkpt>
      <trkpt lat="49.77118" lon="4.80194">
        <ele>292</ele>
        <time>2022-09-05T06:20:30.000Z</time>
      </trkpt>
      <trkpt lat="49.77118" lon="4.80194">
        <ele>292</ele>
        <time>2022-09-05T06:20:31.000Z</time>
      </trkpt>
      <trkpt lat="49.77118" lon="4.80194">
        <ele>292</ele>
        <time>2022-09-05T06:20:32.000Z</time>
      </trkpt>
      <trkpt lat="49.77118" lon="4.80194">
        <ele>292</ele>
        <time>2022-09-05T06:20:33.000Z</time>
      </trkpt>
      <trkpt lat="49.77118" lon="4.80194">
        <ele>292</ele>
        <time>2022-09-05T06:20:34.000Z</time>
      </trkpt>
      <trkpt lat="49.77118" lon="4.80194">
        <ele>292</ele>
        <time>2022-09-05T06:20:35.000Z</time>
      </trkpt>
      <trkpt lat="49.77118" lon="4.80194">
        <ele>292</ele>
        <time>2022-09-05T06:20:36.000Z</time>
      </trkpt>
      <trkpt lat="49.77118" lon="4.80195">
        <ele>292</ele>
        <time>2022-09-05T06:20:37.000Z</time>
      </trkpt>
      <trkpt lat="49.77118" lon="4.80195">
        <ele>292</ele>
        <time>2022-09-05T06:20:38.000Z</time>
      </trkpt>
      <trkpt lat="49.77118" lon="4.80195">
        <ele>292</ele>
        <time>2022-09-05T06:20:39.000Z</time>
      </trkpt>
      <trkpt lat="49.77118" lon="4.80195">
        <ele>292</ele>
        <time>2022-09-05T06:20:40.000Z</time>
      </trkpt>
      <trkpt lat="49.77119" lon="4.80195">
        <ele>292</ele>
        <time>2022-09-05T06:20:41.000Z</time>
      </trkpt>
      <trkpt lat="49.77119" lon="4.80195">
        <ele>291</ele>
        <time>2022-09-05T06:20:42.000Z</time>
      </trkpt>
      <trkpt lat="49.77119" lon="4.80195">
        <ele>291</ele>
        <time>2022-09-05T06:20:43.000Z</time>
      </trkpt>
      <trkpt lat="49.77119" lon="4.80194">
        <ele>291</ele>
        <time>2022-09-05T06:20:44.000Z</time>
      </trkpt>
      <trkpt lat="49.77119" lon="4.80194">
        <ele>291</ele>
        <time>2022-09-05T06:20:45.000Z</time>
      </trkpt>
      <trkpt lat="49.77119" lon="4.80194">
        <ele>291</ele>
        <time>2022-09-05T06:20:46.000Z</time>
      </trkpt>
      <trkpt lat="49.7712" lon="4.80193">
        <ele>292</ele>
        <time>2022-09-05T06:20:47.000Z</time>
      </trkpt>
      <trkpt lat="49.77122" lon="4.80191">
        <ele>292</ele>
        <time>2022-09-05T06:20:48.000Z</time>
      </trkpt>
      <trkpt lat="49.77125" lon="4.80189">
        <ele>292</ele>
        <time>2022-09-05T06:20:49.000Z</time>
      </trkpt>
      <trkpt lat="49.77128" lon="4.80187">
        <ele>292</ele>
        <time>2022-09-05T06:20:50.000Z</time>
      </trkpt>
      <trkpt lat="49.77131" lon="4.80184">
        <ele>292</ele>
        <time>2022-09-05T06:20:51.000Z</time>
      </trkpt>
      <trkpt lat="49.77134" lon="4.80183">
        <ele>292</ele>
        <time>2022-09-05T06:20:52.000Z</time>
      </trkpt>
      <trkpt lat="49.77138" lon="4.80181">
        <ele>292</ele>
        <time>2022-09-05T06:20:53.000Z</time>
      </trkpt>
      <trkpt lat="49.77142" lon="4.8018">
        <ele>292</ele>
        <time>2022-09-05T06:20:54.000Z</time>
      </trkpt>
      <trkpt lat="49.77146" lon="4.80178">
        <ele>292</ele>
        <time>2022-09-05T06:20:55.000Z</time>
      </trkpt>
      <trkpt lat="49.7715" lon="4.80177">
        <ele>292</ele>
        <time>2022-09-05T06:20:56.000Z</time>
      </trkpt>
      <trkpt lat="49.77155" lon="4.80176">
        <ele>292</ele>
        <time>2022-09-05T06:20:57.000Z</time>
      </trkpt>
      <trkpt lat="49.7716" lon="4.80176">
        <ele>292</ele>
        <time>2022-09-05T06:20:58.000Z</time>
      </trkpt>
      <trkpt lat="49.77165" lon="4.80176">
        <ele>292</ele>
        <time>2022-09-05T06:20:59.000Z</time>
      </trkpt>
      <trkpt lat="49.7717" lon="4.80175">
        <ele>292</ele>
        <time>2022-09-05T06:21:00.000Z</time>
      </trkpt>
      <trkpt lat="49.77175" lon="4.80174">
        <ele>292</ele>
        <time>2022-09-05T06:21:01.000Z</time>
      </trkpt>
      <trkpt lat="49.77181" lon="4.80174">
        <ele>292</ele>
        <time>2022-09-05T06:21:02.000Z</time>
      </trkpt>
      <trkpt lat="49.77186" lon="4.80172">
        <ele>292</ele>
        <time>2022-09-05T06:21:03.000Z</time>
      </trkpt>
      <trkpt lat="49.77191" lon="4.80172">
        <ele>292</ele>
        <time>2022-09-05T06:21:04.000Z</time>
      </trkpt>
      <trkpt lat="49.77197" lon="4.80171">
        <ele>292</ele>
        <time>2022-09-05T06:21:05.000Z</time>
      </trkpt>
      <trkpt lat="49.77203" lon="4.8017">
        <ele>292</ele>
        <time>2022-09-05T06:21:06.000Z</time>
      </trkpt>
      <trkpt lat="49.77208" lon="4.80169">
        <ele>292</ele>
        <time>2022-09-05T06:21:07.000Z</time>
      </trkpt>
      <trkpt lat="49.77214" lon="4.80168">
        <ele>291</ele>
        <time>2022-09-05T06:21:08.000Z</time>
      </trkpt>
      <trkpt lat="49.7722" lon="4.80167">
        <ele>291</ele>
        <time>2022-09-05T06:21:09.000Z</time>
      </trkpt>
      <trkpt lat="49.77227" lon="4.80166">
        <ele>291</ele>
        <time>2022-09-05T06:21:10.000Z</time>
      </trkpt>
      <trkpt lat="49.77233" lon="4.80165">
        <ele>291</ele>
        <time>2022-09-05T06:21:11.000Z</time>
      </trkpt>
      <trkpt lat="49.7724" lon="4.80164">
        <ele>291</ele>
        <time>2022-09-05T06:21:12.000Z</time>
      </trkpt>
      <trkpt lat="49.77247" lon="4.80163">
        <ele>291</ele>
        <time>2022-09-05T06:21:13.000Z</time>
      </trkpt>
      <trkpt lat="49.77254" lon="4.80162">
        <ele>291</ele>
        <time>2022-09-05T06:21:14.000Z</time>
      </trkpt>
      <trkpt lat="49.7726" lon="4.80161">
        <ele>290</ele>
        <time>2022-09-05T06:21:15.000Z</time>
      </trkpt>
      <trkpt lat="49.77267" lon="4.8016">
        <ele>290</ele>
        <time>2022-09-05T06:21:16.000Z</time>
      </trkpt>
      <trkpt lat="49.77273" lon="4.80159">
        <ele>290</ele>
        <time>2022-09-05T06:21:17.000Z</time>
      </trkpt>
      <trkpt lat="49.7728" lon="4.80157">
        <ele>290</ele>
        <time>2022-09-05T06:21:18.000Z</time>
      </trkpt>
      <trkpt lat="49.77286" lon="4.80156">
        <ele>289</ele>
        <time>2022-09-05T06:21:19.000Z</time>
      </trkpt>
      <trkpt lat="49.77292" lon="4.80155">
        <ele>289</ele>
        <time>2022-09-05T06:21:20.000Z</time>
      </trkpt>
      <trkpt lat="49.77298" lon="4.80154">
        <ele>289</ele>
        <time>2022-09-05T06:21:21.000Z</time>
      </trkpt>
      <trkpt lat="49.77305" lon="4.80152">
        <ele>289</ele>
        <time>2022-09-05T06:21:22.000Z</time>
      </trkpt>
      <trkpt lat="49.77311" lon="4.80151">
        <ele>288</ele>
        <time>2022-09-05T06:21:23.000Z</time>
      </trkpt>
      <trkpt lat="49.77317" lon="4.80149">
        <ele>288</ele>
        <time>2022-09-05T06:21:24.000Z</time>
      </trkpt>
      <trkpt lat="49.77323" lon="4.80147">
        <ele>288</ele>
        <time>2022-09-05T06:21:25.000Z</time>
      </trkpt>
      <trkpt lat="49.77328" lon="4.80144">
        <ele>288</ele>
        <time>2022-09-05T06:21:26.000Z</time>
      </trkpt>
      <trkpt lat="49.77334" lon="4.80141">
        <ele>288</ele>
        <time>2022-09-05T06:21:27.000Z</time>
      </trkpt>
      <trkpt lat="49.7734" lon="4.80137">
        <ele>288</ele>
        <time>2022-09-05T06:21:28.000Z</time>
      </trkpt>
      <trkpt lat="49.77345" lon="4.80132">
        <ele>287</ele>
        <time>2022-09-05T06:21:29.000Z</time>
      </trkpt>
      <trkpt lat="49.77351" lon="4.80126">
        <ele>287</ele>
        <time>2022-09-05T06:21:30.000Z</time>
      </trkpt>
      <trkpt lat="49.77357" lon="4.80121">
        <ele>287</ele>
        <time>2022-09-05T06:21:31.000Z</time>
      </trkpt>
      <trkpt lat="49.77362" lon="4.80114">
        <ele>287</ele>
        <time>2022-09-05T06:21:32.000Z</time>
      </trkpt>
      <trkpt lat="49.77368" lon="4.80107">
        <ele>287</ele>
        <time>2022-09-05T06:21:33.000Z</time>
      </trkpt>
      <trkpt lat="49.77373" lon="4.80099">
        <ele>286</ele>
        <time>2022-09-05T06:21:34.000Z</time>
      </trkpt>
      <trkpt lat="49.77378" lon="4.80091">
        <ele>286</ele>
        <time>2022-09-05T06:21:35.000Z</time>
      </trkpt>
      <trkpt lat="49.77383" lon="4.80083">
        <ele>286</ele>
        <time>2022-09-05T06:21:36.000Z</time>
      </trkpt>
      <trkpt lat="49.77388" lon="4.80074">
        <ele>285</ele>
        <time>2022-09-05T06:21:37.000Z</time>
      </trkpt>
      <trkpt lat="49.77393" lon="4.80065">
        <ele>285</ele>
        <time>2022-09-05T06:21:38.000Z</time>
      </trkpt>
      <trkpt lat="49.77398" lon="4.80056">
        <ele>285</ele>
        <time>2022-09-05T06:21:39.000Z</time>
      </trkpt>
      <trkpt lat="49.77403" lon="4.80048">
        <ele>285</ele>
        <time>2022-09-05T06:21:40.000Z</time>
      </trkpt>
      <trkpt lat="49.77409" lon="4.80042">
        <ele>284</ele>
        <time>2022-09-05T06:21:41.000Z</time>
      </trkpt>
      <trkpt lat="49.77416" lon="4.80039">
        <ele>284</ele>
        <time>2022-09-05T06:21:42.000Z</time>
      </trkpt>
      <trkpt lat="49.77423" lon="4.80039">
        <ele>283</ele>
        <time>2022-09-05T06:21:43.000Z</time>
      </trkpt>
      <trkpt lat="49.77431" lon="4.8004">
        <ele>283</ele>
        <time>2022-09-05T06:21:44.000Z</time>
      </trkpt>
      <trkpt lat="49.77439" lon="4.8004">
        <ele>282</ele>
        <time>2022-09-05T06:21:45.000Z</time>
      </trkpt>
      <trkpt lat="49.77448" lon="4.80038">
        <ele>281</ele>
        <time>2022-09-05T06:21:46.000Z</time>
      </trkpt>
      <trkpt lat="49.77456" lon="4.80035">
        <ele>280</ele>
        <time>2022-09-05T06:21:47.000Z</time>
      </trkpt>
      <trkpt lat="49.77464" lon="4.8003">
        <ele>279</ele>
        <time>2022-09-05T06:21:48.000Z</time>
      </trkpt>
      <trkpt lat="49.77472" lon="4.80024">
        <ele>278</ele>
        <time>2022-09-05T06:21:49.000Z</time>
      </trkpt>
      <trkpt lat="49.7748" lon="4.80018">
        <ele>277</ele>
        <time>2022-09-05T06:21:50.000Z</time>
      </trkpt>
      <trkpt lat="49.77488" lon="4.80012">
        <ele>276</ele>
        <time>2022-09-05T06:21:51.000Z</time>
      </trkpt>
      <trkpt lat="49.77497" lon="4.80005">
        <ele>275</ele>
        <time>2022-09-05T06:21:52.000Z</time>
      </trkpt>
      <trkpt lat="49.77506" lon="4.8">
        <ele>273</ele>
        <time>2022-09-05T06:21:53.000Z</time>
      </trkpt>
      <trkpt lat="49.77515" lon="4.79996">
        <ele>272</ele>
        <time>2022-09-05T06:21:54.000Z</time>
      </trkpt>
      <trkpt lat="49.77525" lon="4.79993">
        <ele>270</ele>
        <time>2022-09-05T06:21:55.000Z</time>
      </trkpt>
      <trkpt lat="49.77535" lon="4.7999">
        <ele>269</ele>
        <time>2022-09-05T06:21:56.000Z</time>
      </trkpt>
      <trkpt lat="49.77546" lon="4.79988">
        <ele>268</ele>
        <time>2022-09-05T06:21:57.000Z</time>
      </trkpt>
      <trkpt lat="49.77556" lon="4.79986">
        <ele>266</ele>
        <time>2022-09-05T06:21:58.000Z</time>
      </trkpt>
      <trkpt lat="49.77566" lon="4.79985">
        <ele>265</ele>
        <time>2022-09-05T06:21:59.000Z</time>
      </trkpt>
      <trkpt lat="49.77577" lon="4.79984">
        <ele>264</ele>
        <time>2022-09-05T06:22:00.000Z</time>
      </trkpt>
      <trkpt lat="49.77587" lon="4.79983">
        <ele>263</ele>
        <time>2022-09-05T06:22:01.000Z</time>
      </trkpt>
      <trkpt lat="49.77596" lon="4.79982">
        <ele>262</ele>
        <time>2022-09-05T06:22:02.000Z</time>
      </trkpt>
      <trkpt lat="49.77606" lon="4.79981">
        <ele>262</ele>
        <time>2022-09-05T06:22:03.000Z</time>
      </trkpt>
      <trkpt lat="49.77615" lon="4.79979">
        <ele>261</ele>
        <time>2022-09-05T06:22:04.000Z</time>
      </trkpt>
      <trkpt lat="49.77624" lon="4.79977">
        <ele>261</ele>
        <time>2022-09-05T06:22:05.000Z</time>
      </trkpt>
      <trkpt lat="49.77632" lon="4.79974">
        <ele>260</ele>
        <time>2022-09-05T06:22:06.000Z</time>
      </trkpt>
      <trkpt lat="49.7764" lon="4.7997">
        <ele>260</ele>
        <time>2022-09-05T06:22:07.000Z</time>
      </trkpt>
      <trkpt lat="49.77648" lon="4.79966">
        <ele>260</ele>
        <time>2022-09-05T06:22:08.000Z</time>
      </trkpt>
      <trkpt lat="49.77655" lon="4.79961">
        <ele>259</ele>
        <time>2022-09-05T06:22:09.000Z</time>
      </trkpt>
      <trkpt lat="49.77661" lon="4.79955">
        <ele>259</ele>
        <time>2022-09-05T06:22:10.000Z</time>
      </trkpt>
      <trkpt lat="49.77668" lon="4.7995">
        <ele>259</ele>
        <time>2022-09-05T06:22:11.000Z</time>
      </trkpt>
      <trkpt lat="49.77674" lon="4.79944">
        <ele>258</ele>
        <time>2022-09-05T06:22:12.000Z</time>
      </trkpt>
      <trkpt lat="49.7768" lon="4.79937">
        <ele>258</ele>
        <time>2022-09-05T06:22:13.000Z</time>
      </trkpt>
      <trkpt lat="49.77685" lon="4.7993">
        <ele>257</ele>
        <time>2022-09-05T06:22:14.000Z</time>
      </trkpt>
      <trkpt lat="49.77691" lon="4.79923">
        <ele>257</ele>
        <time>2022-09-05T06:22:15.000Z</time>
      </trkpt>
      <trkpt lat="49.77697" lon="4.79917">
        <ele>257</ele>
        <time>2022-09-05T06:22:16.000Z</time>
      </trkpt>
      <trkpt lat="49.77703" lon="4.79912">
        <ele>256</ele>
        <time>2022-09-05T06:22:17.000Z</time>
      </trkpt>
      <trkpt lat="49.77708" lon="4.79906">
        <ele>256</ele>
        <time>2022-09-05T06:22:18.000Z</time>
      </trkpt>
      <trkpt lat="49.77712" lon="4.79901">
        <ele>256</ele>
        <time>2022-09-05T06:22:19.000Z</time>
      </trkpt>
      <trkpt lat="49.77716" lon="4.79898">
        <ele>256</ele>
        <time>2022-09-05T06:22:20.000Z</time>
      </trkpt>
      <trkpt lat="49.77719" lon="4.79895">
        <ele>255</ele>
        <time>2022-09-05T06:22:21.000Z</time>
      </trkpt>
      <trkpt lat="49.77722" lon="4.79891">
        <ele>255</ele>
        <time>2022-09-05T06:22:22.000Z</time>
      </trkpt>
      <trkpt lat="49.77726" lon="4.79887">
        <ele>255</ele>
        <time>2022-09-05T06:22:23.000Z</time>
      </trkpt>
      <trkpt lat="49.7773" lon="4.79884">
        <ele>255</ele>
        <time>2022-09-05T06:22:24.000Z</time>
      </trkpt>
      <trkpt lat="49.77734" lon="4.79881">
        <ele>255</ele>
        <time>2022-09-05T06:22:25.000Z</time>
      </trkpt>
      <trkpt lat="49.77739" lon="4.79878">
        <ele>255</ele>
        <time>2022-09-05T06:22:26.000Z</time>
      </trkpt>
      <trkpt lat="49.77743" lon="4.79874">
        <ele>254</ele>
        <time>2022-09-05T06:22:27.000Z</time>
      </trkpt>
      <trkpt lat="49.77748" lon="4.7987">
        <ele>254</ele>
        <time>2022-09-05T06:22:28.000Z</time>
      </trkpt>
      <trkpt lat="49.77752" lon="4.79866">
        <ele>254</ele>
        <time>2022-09-05T06:22:29.000Z</time>
      </trkpt>
      <trkpt lat="49.77757" lon="4.79862">
        <ele>254</ele>
        <time>2022-09-05T06:22:30.000Z</time>
      </trkpt>
      <trkpt lat="49.77762" lon="4.79858">
        <ele>254</ele>
        <time>2022-09-05T06:22:31.000Z</time>
      </trkpt>
      <trkpt lat="49.77768" lon="4.79853">
        <ele>254</ele>
        <time>2022-09-05T06:22:32.000Z</time>
      </trkpt>
      <trkpt lat="49.77773" lon="4.79848">
        <ele>254</ele>
        <time>2022-09-05T06:22:33.000Z</time>
      </trkpt>
      <trkpt lat="49.77777" lon="4.79843">
        <ele>254</ele>
        <time>2022-09-05T06:22:34.000Z</time>
      </trkpt>
      <trkpt lat="49.77782" lon="4.79838">
        <ele>254</ele>
        <time>2022-09-05T06:22:35.000Z</time>
      </trkpt>
      <trkpt lat="49.77787" lon="4.79833">
        <ele>254</ele>
        <time>2022-09-05T06:22:36.000Z</time>
      </trkpt>
      <trkpt lat="49.77792" lon="4.79828">
        <ele>254</ele>
        <time>2022-09-05T06:22:37.000Z</time>
      </trkpt>
      <trkpt lat="49.77797" lon="4.79823">
        <ele>254</ele>
        <time>2022-09-05T06:22:38.000Z</time>
      </trkpt>
      <trkpt lat="49.77802" lon="4.79818">
        <ele>254</ele>
        <time>2022-09-05T06:22:39.000Z</time>
      </trkpt>
      <trkpt lat="49.77807" lon="4.79813">
        <ele>254</ele>
        <time>2022-09-05T06:22:40.000Z</time>
      </trkpt>
      <trkpt lat="49.77812" lon="4.79809">
        <ele>254</ele>
        <time>2022-09-05T06:22:41.000Z</time>
      </trkpt>
      <trkpt lat="49.77817" lon="4.79806">
        <ele>254</ele>
        <time>2022-09-05T06:22:42.000Z</time>
      </trkpt>
      <trkpt lat="49.77823" lon="4.79803">
        <ele>254</ele>
        <time>2022-09-05T06:22:43.000Z</time>
      </trkpt>
      <trkpt lat="49.77828" lon="4.798">
        <ele>254</ele>
        <time>2022-09-05T06:22:44.000Z</time>
      </trkpt>
      <trkpt lat="49.77833" lon="4.79797">
        <ele>254</ele>
        <time>2022-09-05T06:22:45.000Z</time>
      </trkpt>
      <trkpt lat="49.77839" lon="4.79794">
        <ele>254</ele>
        <time>2022-09-05T06:22:46.000Z</time>
      </trkpt>
      <trkpt lat="49.77844" lon="4.7979">
        <ele>254</ele>
        <time>2022-09-05T06:22:47.000Z</time>
      </trkpt>
      <trkpt lat="49.7785" lon="4.79785">
        <ele>254</ele>
        <time>2022-09-05T06:22:48.000Z</time>
      </trkpt>
      <trkpt lat="49.77856" lon="4.7978">
        <ele>254</ele>
        <time>2022-09-05T06:22:49.000Z</time>
      </trkpt>
      <trkpt lat="49.77862" lon="4.79775">
        <ele>254</ele>
        <time>2022-09-05T06:22:50.000Z</time>
      </trkpt>
      <trkpt lat="49.77868" lon="4.7977">
        <ele>254</ele>
        <time>2022-09-05T06:22:51.000Z</time>
      </trkpt>
      <trkpt lat="49.77875" lon="4.79765">
        <ele>254</ele>
        <time>2022-09-05T06:22:52.000Z</time>
      </trkpt>
      <trkpt lat="49.77881" lon="4.7976">
        <ele>253</ele>
        <time>2022-09-05T06:22:53.000Z</time>
      </trkpt>
      <trkpt lat="49.77888" lon="4.79755">
        <ele>253</ele>
        <time>2022-09-05T06:22:54.000Z</time>
      </trkpt>
      <trkpt lat="49.77894" lon="4.79749">
        <ele>253</ele>
        <time>2022-09-05T06:22:55.000Z</time>
      </trkpt>
      <trkpt lat="49.77901" lon="4.79744">
        <ele>253</ele>
        <time>2022-09-05T06:22:56.000Z</time>
      </trkpt>
      <trkpt lat="49.77909" lon="4.7974">
        <ele>253</ele>
        <time>2022-09-05T06:22:57.000Z</time>
      </trkpt>
      <trkpt lat="49.77916" lon="4.79736">
        <ele>252</ele>
        <time>2022-09-05T06:22:58.000Z</time>
      </trkpt>
      <trkpt lat="49.77924" lon="4.79732">
        <ele>252</ele>
        <time>2022-09-05T06:22:59.000Z</time>
      </trkpt>
      <trkpt lat="49.77933" lon="4.7973">
        <ele>252</ele>
        <time>2022-09-05T06:23:00.000Z</time>
      </trkpt>
      <trkpt lat="49.77941" lon="4.79728">
        <ele>251</ele>
        <time>2022-09-05T06:23:01.000Z</time>
      </trkpt>
      <trkpt lat="49.77949" lon="4.79726">
        <ele>251</ele>
        <time>2022-09-05T06:23:02.000Z</time>
      </trkpt>
      <trkpt lat="49.77956" lon="4.79725">
        <ele>251</ele>
        <time>2022-09-05T06:23:03.000Z</time>
      </trkpt>
      <trkpt lat="49.77963" lon="4.79727">
        <ele>250</ele>
        <time>2022-09-05T06:23:04.000Z</time>
      </trkpt>
      <trkpt lat="49.77969" lon="4.79731">
        <ele>250</ele>
        <time>2022-09-05T06:23:05.000Z</time>
      </trkpt>
      <trkpt lat="49.77974" lon="4.79739">
        <ele>250</ele>
        <time>2022-09-05T06:23:06.000Z</time>
      </trkpt>
      <trkpt lat="49.77977" lon="4.79748">
        <ele>250</ele>
        <time>2022-09-05T06:23:07.000Z</time>
      </trkpt>
      <trkpt lat="49.7798" lon="4.79756">
        <ele>249</ele>
        <time>2022-09-05T06:23:08.000Z</time>
      </trkpt>
      <trkpt lat="49.77983" lon="4.79763">
        <ele>249</ele>
        <time>2022-09-05T06:23:09.000Z</time>
      </trkpt>
      <trkpt lat="49.77988" lon="4.79769">
        <ele>250</ele>
        <time>2022-09-05T06:23:10.000Z</time>
      </trkpt>
      <trkpt lat="49.77993" lon="4.79773">
        <ele>250</ele>
        <time>2022-09-05T06:23:11.000Z</time>
      </trkpt>
      <trkpt lat="49.77998" lon="4.79776">
        <ele>250</ele>
        <time>2022-09-05T06:23:12.000Z</time>
      </trkpt>
      <trkpt lat="49.78004" lon="4.79778">
        <ele>250</ele>
        <time>2022-09-05T06:23:13.000Z</time>
      </trkpt>
      <trkpt lat="49.78009" lon="4.7978">
        <ele>250</ele>
        <time>2022-09-05T06:23:14.000Z</time>
      </trkpt>
      <trkpt lat="49.78015" lon="4.79782">
        <ele>250</ele>
        <time>2022-09-05T06:23:15.000Z</time>
      </trkpt>
      <trkpt lat="49.78021" lon="4.79783">
        <ele>250</ele>
        <time>2022-09-05T06:23:16.000Z</time>
      </trkpt>
      <trkpt lat="49.78026" lon="4.79784">
        <ele>250</ele>
        <time>2022-09-05T06:23:17.000Z</time>
      </trkpt>
      <trkpt lat="49.78031" lon="4.79784">
        <ele>251</ele>
        <time>2022-09-05T06:23:18.000Z</time>
      </trkpt>
      <trkpt lat="49.78037" lon="4.79784">
        <ele>251</ele>
        <time>2022-09-05T06:23:19.000Z</time>
      </trkpt>
      <trkpt lat="49.78042" lon="4.79784">
        <ele>251</ele>
        <time>2022-09-05T06:23:20.000Z</time>
      </trkpt>
      <trkpt lat="49.78047" lon="4.79784">
        <ele>251</ele>
        <time>2022-09-05T06:23:21.000Z</time>
      </trkpt>
      <trkpt lat="49.78052" lon="4.79784">
        <ele>251</ele>
        <time>2022-09-05T06:23:22.000Z</time>
      </trkpt>
      <trkpt lat="49.78057" lon="4.79783">
        <ele>250</ele>
        <time>2022-09-05T06:23:23.000Z</time>
      </trkpt>
      <trkpt lat="49.78062" lon="4.79781">
        <ele>250</ele>
        <time>2022-09-05T06:23:24.000Z</time>
      </trkpt>
      <trkpt lat="49.78067" lon="4.79779">
        <ele>250</ele>
        <time>2022-09-05T06:23:25.000Z</time>
      </trkpt>
      <trkpt lat="49.78072" lon="4.79775">
        <ele>250</ele>
        <time>2022-09-05T06:23:26.000Z</time>
      </trkpt>
      <trkpt lat="49.78077" lon="4.7977">
        <ele>250</ele>
        <time>2022-09-05T06:23:27.000Z</time>
      </trkpt>
      <trkpt lat="49.78081" lon="4.79765">
        <ele>249</ele>
        <time>2022-09-05T06:23:28.000Z</time>
      </trkpt>
      <trkpt lat="49.78086" lon="4.79759">
        <ele>249</ele>
        <time>2022-09-05T06:23:29.000Z</time>
      </trkpt>
      <trkpt lat="49.78089" lon="4.79752">
        <ele>249</ele>
        <time>2022-09-05T06:23:30.000Z</time>
      </trkpt>
      <trkpt lat="49.78093" lon="4.79745">
        <ele>249</ele>
        <time>2022-09-05T06:23:31.000Z</time>
      </trkpt>
      <trkpt lat="49.78098" lon="4.79737">
        <ele>249</ele>
        <time>2022-09-05T06:23:32.000Z</time>
      </trkpt>
      <trkpt lat="49.78102" lon="4.7973">
        <ele>249</ele>
        <time>2022-09-05T06:23:33.000Z</time>
      </trkpt>
      <trkpt lat="49.78105" lon="4.79723">
        <ele>249</ele>
        <time>2022-09-05T06:23:34.000Z</time>
      </trkpt>
      <trkpt lat="49.78108" lon="4.79716">
        <ele>249</ele>
        <time>2022-09-05T06:23:35.000Z</time>
      </trkpt>
      <trkpt lat="49.78111" lon="4.7971">
        <ele>250</ele>
        <time>2022-09-05T06:23:36.000Z</time>
      </trkpt>
      <trkpt lat="49.78116" lon="4.79705">
        <ele>250</ele>
        <time>2022-09-05T06:23:37.000Z</time>
      </trkpt>
      <trkpt lat="49.78121" lon="4.79701">
        <ele>250</ele>
        <time>2022-09-05T06:23:38.000Z</time>
      </trkpt>
      <trkpt lat="49.78126" lon="4.79698">
        <ele>250</ele>
        <time>2022-09-05T06:23:39.000Z</time>
      </trkpt>
      <trkpt lat="49.78131" lon="4.79695">
        <ele>250</ele>
        <time>2022-09-05T06:23:40.000Z</time>
      </trkpt>
      <trkpt lat="49.78136" lon="4.79692">
        <ele>250</ele>
        <time>2022-09-05T06:23:41.000Z</time>
      </trkpt>
      <trkpt lat="49.78141" lon="4.79689">
        <ele>250</ele>
        <time>2022-09-05T06:23:42.000Z</time>
      </trkpt>
      <trkpt lat="49.78146" lon="4.79685">
        <ele>251</ele>
        <time>2022-09-05T06:23:43.000Z</time>
      </trkpt>
      <trkpt lat="49.78151" lon="4.79682">
        <ele>251</ele>
        <time>2022-09-05T06:23:44.000Z</time>
      </trkpt>
      <trkpt lat="49.78156" lon="4.79678">
        <ele>251</ele>
        <time>2022-09-05T06:23:45.000Z</time>
      </trkpt>
      <trkpt lat="49.78161" lon="4.79674">
        <ele>251</ele>
        <time>2022-09-05T06:23:46.000Z</time>
      </trkpt>
      <trkpt lat="49.78166" lon="4.7967">
        <ele>251</ele>
        <time>2022-09-05T06:23:47.000Z</time>
      </trkpt>
      <trkpt lat="49.78171" lon="4.79667">
        <ele>251</ele>
        <time>2022-09-05T06:23:48.000Z</time>
      </trkpt>
      <trkpt lat="49.78176" lon="4.79663">
        <ele>251</ele>
        <time>2022-09-05T06:23:49.000Z</time>
      </trkpt>
      <trkpt lat="49.78181" lon="4.79659">
        <ele>251</ele>
        <time>2022-09-05T06:23:50.000Z</time>
      </trkpt>
      <trkpt lat="49.78185" lon="4.79655">
        <ele>251</ele>
        <time>2022-09-05T06:23:51.000Z</time>
      </trkpt>
      <trkpt lat="49.7819" lon="4.7965">
        <ele>252</ele>
        <time>2022-09-05T06:23:52.000Z</time>
      </trkpt>
      <trkpt lat="49.78195" lon="4.79646">
        <ele>252</ele>
        <time>2022-09-05T06:23:53.000Z</time>
      </trkpt>
      <trkpt lat="49.782" lon="4.79642">
        <ele>252</ele>
        <time>2022-09-05T06:23:54.000Z</time>
      </trkpt>
      <trkpt lat="49.78204" lon="4.79638">
        <ele>252</ele>
        <time>2022-09-05T06:23:55.000Z</time>
      </trkpt>
      <trkpt lat="49.78209" lon="4.79633">
        <ele>252</ele>
        <time>2022-09-05T06:23:56.000Z</time>
      </trkpt>
      <trkpt lat="49.78215" lon="4.79629">
        <ele>252</ele>
        <time>2022-09-05T06:23:57.000Z</time>
      </trkpt>
      <trkpt lat="49.78221" lon="4.79625">
        <ele>252</ele>
        <time>2022-09-05T06:23:58.000Z</time>
      </trkpt>
      <trkpt lat="49.78227" lon="4.79621">
        <ele>251</ele>
        <time>2022-09-05T06:23:59.000Z</time>
      </trkpt>
      <trkpt lat="49.78233" lon="4.79617">
        <ele>251</ele>
        <time>2022-09-05T06:24:00.000Z</time>
      </trkpt>
      <trkpt lat="49.7824" lon="4.79614">
        <ele>251</ele>
        <time>2022-09-05T06:24:01.000Z</time>
      </trkpt>
      <trkpt lat="49.78247" lon="4.7961">
        <ele>250</ele>
        <time>2022-09-05T06:24:02.000Z</time>
      </trkpt>
      <trkpt lat="49.78254" lon="4.79607">
        <ele>250</ele>
        <time>2022-09-05T06:24:03.000Z</time>
      </trkpt>
      <trkpt lat="49.78261" lon="4.79604">
        <ele>250</ele>
        <time>2022-09-05T06:24:04.000Z</time>
      </trkpt>
      <trkpt lat="49.78269" lon="4.79602">
        <ele>250</ele>
        <time>2022-09-05T06:24:05.000Z</time>
      </trkpt>
      <trkpt lat="49.78276" lon="4.796">
        <ele>249</ele>
        <time>2022-09-05T06:24:06.000Z</time>
      </trkpt>
      <trkpt lat="49.78283" lon="4.79598">
        <ele>249</ele>
        <time>2022-09-05T06:24:07.000Z</time>
      </trkpt>
      <trkpt lat="49.78291" lon="4.79596">
        <ele>249</ele>
        <time>2022-09-05T06:24:08.000Z</time>
      </trkpt>
      <trkpt lat="49.78299" lon="4.79596">
        <ele>248</ele>
        <time>2022-09-05T06:24:09.000Z</time>
      </trkpt>
      <trkpt lat="49.78307" lon="4.79597">
        <ele>248</ele>
        <time>2022-09-05T06:24:10.000Z</time>
      </trkpt>
      <trkpt lat="49.78314" lon="4.79601">
        <ele>248</ele>
        <time>2022-09-05T06:24:11.000Z</time>
      </trkpt>
      <trkpt lat="49.7832" lon="4.79604">
        <ele>248</ele>
        <time>2022-09-05T06:24:12.000Z</time>
      </trkpt>
      <trkpt lat="49.78327" lon="4.79608">
        <ele>249</ele>
        <time>2022-09-05T06:24:13.000Z</time>
      </trkpt>
      <trkpt lat="49.78334" lon="4.79612">
        <ele>249</ele>
        <time>2022-09-05T06:24:14.000Z</time>
      </trkpt>
      <trkpt lat="49.7834" lon="4.79616">
        <ele>249</ele>
        <time>2022-09-05T06:24:15.000Z</time>
      </trkpt>
      <trkpt lat="49.78346" lon="4.79621">
        <ele>249</ele>
        <time>2022-09-05T06:24:16.000Z</time>
      </trkpt>
      <trkpt lat="49.78352" lon="4.79625">
        <ele>249</ele>
        <time>2022-09-05T06:24:17.000Z</time>
      </trkpt>
      <trkpt lat="49.78358" lon="4.79629">
        <ele>249</ele>
        <time>2022-09-05T06:24:18.000Z</time>
      </trkpt>
      <trkpt lat="49.78363" lon="4.79633">
        <ele>249</ele>
        <time>2022-09-05T06:24:19.000Z</time>
      </trkpt>
      <trkpt lat="49.78369" lon="4.79635">
        <ele>250</ele>
        <time>2022-09-05T06:24:20.000Z</time>
      </trkpt>
      <trkpt lat="49.78375" lon="4.79638">
        <ele>250</ele>
        <time>2022-09-05T06:24:21.000Z</time>
      </trkpt>
      <trkpt lat="49.7838" lon="4.7964">
        <ele>250</ele>
        <time>2022-09-05T06:24:22.000Z</time>
      </trkpt>
      <trkpt lat="49.78386" lon="4.79643">
        <ele>250</ele>
        <time>2022-09-05T06:24:23.000Z</time>
      </trkpt>
      <trkpt lat="49.78391" lon="4.79646">
        <ele>250</ele>
        <time>2022-09-05T06:24:24.000Z</time>
      </trkpt>
      <trkpt lat="49.78396" lon="4.79649">
        <ele>251</ele>
        <time>2022-09-05T06:24:25.000Z</time>
      </trkpt>
      <trkpt lat="49.78401" lon="4.79652">
        <ele>251</ele>
        <time>2022-09-05T06:24:26.000Z</time>
      </trkpt>
      <trkpt lat="49.78406" lon="4.79655">
        <ele>251</ele>
        <time>2022-09-05T06:24:27.000Z</time>
      </trkpt>
      <trkpt lat="49.78411" lon="4.79658">
        <ele>251</ele>
        <time>2022-09-05T06:24:28.000Z</time>
      </trkpt>
      <trkpt lat="49.78416" lon="4.7966">
        <ele>251</ele>
        <time>2022-09-05T06:24:29.000Z</time>
      </trkpt>
      <trkpt lat="49.7842" lon="4.79662">
        <ele>251</ele>
        <time>2022-09-05T06:24:30.000Z</time>
      </trkpt>
      <trkpt lat="49.78424" lon="4.79664">
        <ele>252</ele>
        <time>2022-09-05T06:24:31.000Z</time>
      </trkpt>
      <trkpt lat="49.78428" lon="4.79666">
        <ele>252</ele>
        <time>2022-09-05T06:24:32.000Z</time>
      </trkpt>
      <trkpt lat="49.78432" lon="4.79668">
        <ele>252</ele>
        <time>2022-09-05T06:24:33.000Z</time>
      </trkpt>
      <trkpt lat="49.78436" lon="4.79669">
        <ele>252</ele>
        <time>2022-09-05T06:24:34.000Z</time>
      </trkpt>
      <trkpt lat="49.7844" lon="4.7967">
        <ele>252</ele>
        <time>2022-09-05T06:24:35.000Z</time>
      </trkpt>
      <trkpt lat="49.78444" lon="4.79671">
        <ele>253</ele>
        <time>2022-09-05T06:24:36.000Z</time>
      </trkpt>
      <trkpt lat="49.78448" lon="4.79673">
        <ele>253</ele>
        <time>2022-09-05T06:24:37.000Z</time>
      </trkpt>
      <trkpt lat="49.78452" lon="4.79675">
        <ele>253</ele>
        <time>2022-09-05T06:24:38.000Z</time>
      </trkpt>
      <trkpt lat="49.78456" lon="4.79676">
        <ele>253</ele>
        <time>2022-09-05T06:24:39.000Z</time>
      </trkpt>
      <trkpt lat="49.7846" lon="4.79678">
        <ele>253</ele>
        <time>2022-09-05T06:24:40.000Z</time>
      </trkpt>
      <trkpt lat="49.78464" lon="4.7968">
        <ele>253</ele>
        <time>2022-09-05T06:24:41.000Z</time>
      </trkpt>
      <trkpt lat="49.78468" lon="4.79682">
        <ele>254</ele>
        <time>2022-09-05T06:24:42.000Z</time>
      </trkpt>
      <trkpt lat="49.78472" lon="4.79684">
        <ele>254</ele>
        <time>2022-09-05T06:24:43.000Z</time>
      </trkpt>
      <trkpt lat="49.78476" lon="4.79686">
        <ele>254</ele>
        <time>2022-09-05T06:24:44.000Z</time>
      </trkpt>
      <trkpt lat="49.7848" lon="4.79687">
        <ele>254</ele>
        <time>2022-09-05T06:24:45.000Z</time>
      </trkpt>
      <trkpt lat="49.78484" lon="4.79689">
        <ele>254</ele>
        <time>2022-09-05T06:24:46.000Z</time>
      </trkpt>
      <trkpt lat="49.78488" lon="4.7969">
        <ele>254</ele>
        <time>2022-09-05T06:24:47.000Z</time>
      </trkpt>
      <trkpt lat="49.78492" lon="4.79692">
        <ele>255</ele>
        <time>2022-09-05T06:24:48.000Z</time>
      </trkpt>
      <trkpt lat="49.78496" lon="4.79693">
        <ele>255</ele>
        <time>2022-09-05T06:24:49.000Z</time>
      </trkpt>
      <trkpt lat="49.785" lon="4.79695">
        <ele>255</ele>
        <time>2022-09-05T06:24:50.000Z</time>
      </trkpt>
      <trkpt lat="49.78505" lon="4.79697">
        <ele>255</ele>
        <time>2022-09-05T06:24:51.000Z</time>
      </trkpt>
      <trkpt lat="49.78509" lon="4.79699">
        <ele>255</ele>
        <time>2022-09-05T06:24:52.000Z</time>
      </trkpt>
      <trkpt lat="49.78513" lon="4.797">
        <ele>255</ele>
        <time>2022-09-05T06:24:53.000Z</time>
      </trkpt>
      <trkpt lat="49.78517" lon="4.79702">
        <ele>256</ele>
        <time>2022-09-05T06:24:54.000Z</time>
      </trkpt>
      <trkpt lat="49.78522" lon="4.79703">
        <ele>256</ele>
        <time>2022-09-05T06:24:55.000Z</time>
      </trkpt>
      <trkpt lat="49.78526" lon="4.79704">
        <ele>256</ele>
        <time>2022-09-05T06:24:56.000Z</time>
      </trkpt>
      <trkpt lat="49.7853" lon="4.79706">
        <ele>256</ele>
        <time>2022-09-05T06:24:57.000Z</time>
      </trkpt>
      <trkpt lat="49.78534" lon="4.79706">
        <ele>256</ele>
        <time>2022-09-05T06:24:58.000Z</time>
      </trkpt>
      <trkpt lat="49.78538" lon="4.79707">
        <ele>257</ele>
        <time>2022-09-05T06:24:59.000Z</time>
      </trkpt>
      <trkpt lat="49.78541" lon="4.79708">
        <ele>257</ele>
        <time>2022-09-05T06:25:00.000Z</time>
      </trkpt>
      <trkpt lat="49.78545" lon="4.7971">
        <ele>257</ele>
        <time>2022-09-05T06:25:01.000Z</time>
      </trkpt>
      <trkpt lat="49.78549" lon="4.79712">
        <ele>257</ele>
        <time>2022-09-05T06:25:02.000Z</time>
      </trkpt>
      <trkpt lat="49.78553" lon="4.79713">
        <ele>257</ele>
        <time>2022-09-05T06:25:03.000Z</time>
      </trkpt>
      <trkpt lat="49.78557" lon="4.79715">
        <ele>257</ele>
        <time>2022-09-05T06:25:04.000Z</time>
      </trkpt>
      <trkpt lat="49.78561" lon="4.79717">
        <ele>258</ele>
        <time>2022-09-05T06:25:05.000Z</time>
      </trkpt>
      <trkpt lat="49.78565" lon="4.79719">
        <ele>258</ele>
        <time>2022-09-05T06:25:06.000Z</time>
      </trkpt>
      <trkpt lat="49.78569" lon="4.7972">
        <ele>258</ele>
        <time>2022-09-05T06:25:07.000Z</time>
      </trkpt>
      <trkpt lat="49.78574" lon="4.79722">
        <ele>258</ele>
        <time>2022-09-05T06:25:08.000Z</time>
      </trkpt>
      <trkpt lat="49.78578" lon="4.79723">
        <ele>258</ele>
        <time>2022-09-05T06:25:09.000Z</time>
      </trkpt>
      <trkpt lat="49.78582" lon="4.79725">
        <ele>258</ele>
        <time>2022-09-05T06:25:10.000Z</time>
      </trkpt>
      <trkpt lat="49.78587" lon="4.79727">
        <ele>259</ele>
        <time>2022-09-05T06:25:11.000Z</time>
      </trkpt>
      <trkpt lat="49.78591" lon="4.79728">
        <ele>259</ele>
        <time>2022-09-05T06:25:12.000Z</time>
      </trkpt>
      <trkpt lat="49.78596" lon="4.79729">
        <ele>259</ele>
        <time>2022-09-05T06:25:13.000Z</time>
      </trkpt>
      <trkpt lat="49.786" lon="4.79731">
        <ele>259</ele>
        <time>2022-09-05T06:25:14.000Z</time>
      </trkpt>
      <trkpt lat="49.78605" lon="4.79732">
        <ele>259</ele>
        <time>2022-09-05T06:25:15.000Z</time>
      </trkpt>
      <trkpt lat="49.7861" lon="4.79734">
        <ele>259</ele>
        <time>2022-09-05T06:25:16.000Z</time>
      </trkpt>
      <trkpt lat="49.78614" lon="4.79736">
        <ele>260</ele>
        <time>2022-09-05T06:25:17.000Z</time>
      </trkpt>
      <trkpt lat="49.78619" lon="4.79737">
        <ele>260</ele>
        <time>2022-09-05T06:25:18.000Z</time>
      </trkpt>
      <trkpt lat="49.78624" lon="4.79739">
        <ele>260</ele>
        <time>2022-09-05T06:25:19.000Z</time>
      </trkpt>
      <trkpt lat="49.78628" lon="4.79741">
        <ele>260</ele>
        <time>2022-09-05T06:25:20.000Z</time>
      </trkpt>
      <trkpt lat="49.78633" lon="4.79743">
        <ele>260</ele>
        <time>2022-09-05T06:25:21.000Z</time>
      </trkpt>
      <trkpt lat="49.78638" lon="4.79744">
        <ele>261</ele>
        <time>2022-09-05T06:25:22.000Z</time>
      </trkpt>
      <trkpt lat="49.78643" lon="4.79746">
        <ele>261</ele>
        <time>2022-09-05T06:25:23.000Z</time>
      </trkpt>
      <trkpt lat="49.78647" lon="4.79747">
        <ele>261</ele>
        <time>2022-09-05T06:25:24.000Z</time>
      </trkpt>
      <trkpt lat="49.78652" lon="4.79749">
        <ele>261</ele>
        <time>2022-09-05T06:25:25.000Z</time>
      </trkpt>
      <trkpt lat="49.78657" lon="4.79751">
        <ele>261</ele>
        <time>2022-09-05T06:25:26.000Z</time>
      </trkpt>
      <trkpt lat="49.78662" lon="4.79753">
        <ele>261</ele>
        <time>2022-09-05T06:25:27.000Z</time>
      </trkpt>
      <trkpt lat="49.78667" lon="4.79754">
        <ele>261</ele>
        <time>2022-09-05T06:25:28.000Z</time>
      </trkpt>
      <trkpt lat="49.78672" lon="4.79756">
        <ele>261</ele>
        <time>2022-09-05T06:25:29.000Z</time>
      </trkpt>
      <trkpt lat="49.78677" lon="4.79758">
        <ele>262</ele>
        <time>2022-09-05T06:25:30.000Z</time>
      </trkpt>
      <trkpt lat="49.78682" lon="4.7976">
        <ele>262</ele>
        <time>2022-09-05T06:25:31.000Z</time>
      </trkpt>
      <trkpt lat="49.78687" lon="4.79762">
        <ele>262</ele>
        <time>2022-09-05T06:25:32.000Z</time>
      </trkpt>
      <trkpt lat="49.78692" lon="4.79763">
        <ele>262</ele>
        <time>2022-09-05T06:25:33.000Z</time>
      </trkpt>
      <trkpt lat="49.78697" lon="4.79765">
        <ele>262</ele>
        <time>2022-09-05T06:25:34.000Z</time>
      </trkpt>
      <trkpt lat="49.78702" lon="4.79766">
        <ele>262</ele>
        <time>2022-09-05T06:25:35.000Z</time>
      </trkpt>
      <trkpt lat="49.78707" lon="4.79768">
        <ele>262</ele>
        <time>2022-09-05T06:25:36.000Z</time>
      </trkpt>
      <trkpt lat="49.78712" lon="4.7977">
        <ele>262</ele>
        <time>2022-09-05T06:25:37.000Z</time>
      </trkpt>
      <trkpt lat="49.78717" lon="4.79771">
        <ele>262</ele>
        <time>2022-09-05T06:25:38.000Z</time>
      </trkpt>
      <trkpt lat="49.78722" lon="4.79774">
        <ele>263</ele>
        <time>2022-09-05T06:25:39.000Z</time>
      </trkpt>
      <trkpt lat="49.78726" lon="4.79775">
        <ele>263</ele>
        <time>2022-09-05T06:25:40.000Z</time>
      </trkpt>
      <trkpt lat="49.78731" lon="4.79777">
        <ele>263</ele>
        <time>2022-09-05T06:25:41.000Z</time>
      </trkpt>
      <trkpt lat="49.78735" lon="4.79779">
        <ele>263</ele>
        <time>2022-09-05T06:25:42.000Z</time>
      </trkpt>
      <trkpt lat="49.78739" lon="4.79781">
        <ele>263</ele>
        <time>2022-09-05T06:25:43.000Z</time>
      </trkpt>
      <trkpt lat="49.78744" lon="4.79783">
        <ele>263</ele>
        <time>2022-09-05T06:25:44.000Z</time>
      </trkpt>
      <trkpt lat="49.78749" lon="4.79786">
        <ele>263</ele>
        <time>2022-09-05T06:25:45.000Z</time>
      </trkpt>
      <trkpt lat="49.78754" lon="4.79788">
        <ele>263</ele>
        <time>2022-09-05T06:25:46.000Z</time>
      </trkpt>
      <trkpt lat="49.7876" lon="4.7979">
        <ele>263</ele>
        <time>2022-09-05T06:25:47.000Z</time>
      </trkpt>
      <trkpt lat="49.78765" lon="4.79793">
        <ele>263</ele>
        <time>2022-09-05T06:25:48.000Z</time>
      </trkpt>
      <trkpt lat="49.7877" lon="4.79795">
        <ele>263</ele>
        <time>2022-09-05T06:25:49.000Z</time>
      </trkpt>
      <trkpt lat="49.78776" lon="4.79798">
        <ele>263</ele>
        <time>2022-09-05T06:25:50.000Z</time>
      </trkpt>
      <trkpt lat="49.78781" lon="4.798">
        <ele>263</ele>
        <time>2022-09-05T06:25:51.000Z</time>
      </trkpt>
      <trkpt lat="49.78786" lon="4.79803">
        <ele>264</ele>
        <time>2022-09-05T06:25:52.000Z</time>
      </trkpt>
      <trkpt lat="49.78792" lon="4.79805">
        <ele>264</ele>
        <time>2022-09-05T06:25:53.000Z</time>
      </trkpt>
      <trkpt lat="49.78798" lon="4.79808">
        <ele>264</ele>
        <time>2022-09-05T06:25:54.000Z</time>
      </trkpt>
      <trkpt lat="49.78803" lon="4.79811">
        <ele>264</ele>
        <time>2022-09-05T06:25:55.000Z</time>
      </trkpt>
      <trkpt lat="49.78808" lon="4.79814">
        <ele>264</ele>
        <time>2022-09-05T06:25:56.000Z</time>
      </trkpt>
      <trkpt lat="49.78814" lon="4.79817">
        <ele>264</ele>
        <time>2022-09-05T06:25:57.000Z</time>
      </trkpt>
      <trkpt lat="49.78819" lon="4.7982">
        <ele>264</ele>
        <time>2022-09-05T06:25:58.000Z</time>
      </trkpt>
      <trkpt lat="49.78825" lon="4.79823">
        <ele>264</ele>
        <time>2022-09-05T06:25:59.000Z</time>
      </trkpt>
      <trkpt lat="49.7883" lon="4.79826">
        <ele>264</ele>
        <time>2022-09-05T06:26:00.000Z</time>
      </trkpt>
      <trkpt lat="49.78836" lon="4.79829">
        <ele>264</ele>
        <time>2022-09-05T06:26:01.000Z</time>
      </trkpt>
      <trkpt lat="49.78841" lon="4.79833">
        <ele>264</ele>
        <time>2022-09-05T06:26:02.000Z</time>
      </trkpt>
      <trkpt lat="49.78847" lon="4.79836">
        <ele>264</ele>
        <time>2022-09-05T06:26:03.000Z</time>
      </trkpt>
      <trkpt lat="49.78852" lon="4.7984">
        <ele>264</ele>
        <time>2022-09-05T06:26:04.000Z</time>
      </trkpt>
      <trkpt lat="49.78858" lon="4.79843">
        <ele>264</ele>
        <time>2022-09-05T06:26:05.000Z</time>
      </trkpt>
      <trkpt lat="49.78863" lon="4.79847">
        <ele>264</ele>
        <time>2022-09-05T06:26:06.000Z</time>
      </trkpt>
      <trkpt lat="49.78869" lon="4.79851">
        <ele>264</ele>
        <time>2022-09-05T06:26:07.000Z</time>
      </trkpt>
      <trkpt lat="49.78874" lon="4.79855">
        <ele>264</ele>
        <time>2022-09-05T06:26:08.000Z</time>
      </trkpt>
      <trkpt lat="49.78879" lon="4.79859">
        <ele>264</ele>
        <time>2022-09-05T06:26:09.000Z</time>
      </trkpt>
      <trkpt lat="49.78885" lon="4.79863">
        <ele>264</ele>
        <time>2022-09-05T06:26:10.000Z</time>
      </trkpt>
      <trkpt lat="49.78891" lon="4.79866">
        <ele>264</ele>
        <time>2022-09-05T06:26:11.000Z</time>
      </trkpt>
      <trkpt lat="49.78896" lon="4.7987">
        <ele>264</ele>
        <time>2022-09-05T06:26:12.000Z</time>
      </trkpt>
      <trkpt lat="49.78902" lon="4.79874">
        <ele>264</ele>
        <time>2022-09-05T06:26:13.000Z</time>
      </trkpt>
      <trkpt lat="49.78908" lon="4.79878">
        <ele>264</ele>
        <time>2022-09-05T06:26:14.000Z</time>
      </trkpt>
      <trkpt lat="49.78913" lon="4.79882">
        <ele>264</ele>
        <time>2022-09-05T06:26:15.000Z</time>
      </trkpt>
      <trkpt lat="49.78919" lon="4.79887">
        <ele>264</ele>
        <time>2022-09-05T06:26:16.000Z</time>
      </trkpt>
      <trkpt lat="49.78924" lon="4.79891">
        <ele>264</ele>
        <time>2022-09-05T06:26:17.000Z</time>
      </trkpt>
      <trkpt lat="49.78929" lon="4.79896">
        <ele>264</ele>
        <time>2022-09-05T06:26:18.000Z</time>
      </trkpt>
      <trkpt lat="49.78935" lon="4.79901">
        <ele>264</ele>
        <time>2022-09-05T06:26:19.000Z</time>
      </trkpt>
      <trkpt lat="49.7894" lon="4.79906">
        <ele>263</ele>
        <time>2022-09-05T06:26:20.000Z</time>
      </trkpt>
      <trkpt lat="49.78946" lon="4.7991">
        <ele>263</ele>
        <time>2022-09-05T06:26:21.000Z</time>
      </trkpt>
      <trkpt lat="49.78951" lon="4.79915">
        <ele>263</ele>
        <time>2022-09-05T06:26:22.000Z</time>
      </trkpt>
      <trkpt lat="49.78956" lon="4.7992">
        <ele>263</ele>
        <time>2022-09-05T06:26:23.000Z</time>
      </trkpt>
      <trkpt lat="49.78962" lon="4.79925">
        <ele>263</ele>
        <time>2022-09-05T06:26:24.000Z</time>
      </trkpt>
      <trkpt lat="49.78967" lon="4.7993">
        <ele>263</ele>
        <time>2022-09-05T06:26:25.000Z</time>
      </trkpt>
      <trkpt lat="49.78972" lon="4.79935">
        <ele>263</ele>
        <time>2022-09-05T06:26:26.000Z</time>
      </trkpt>
      <trkpt lat="49.78978" lon="4.7994">
        <ele>263</ele>
        <time>2022-09-05T06:26:27.000Z</time>
      </trkpt>
      <trkpt lat="49.78983" lon="4.79944">
        <ele>263</ele>
        <time>2022-09-05T06:26:28.000Z</time>
      </trkpt>
      <trkpt lat="49.78989" lon="4.79949">
        <ele>262</ele>
        <time>2022-09-05T06:26:29.000Z</time>
      </trkpt>
      <trkpt lat="49.78994" lon="4.79954">
        <ele>262</ele>
        <time>2022-09-05T06:26:30.000Z</time>
      </trkpt>
      <trkpt lat="49.78999" lon="4.79959">
        <ele>262</ele>
        <time>2022-09-05T06:26:31.000Z</time>
      </trkpt>
      <trkpt lat="49.79005" lon="4.79964">
        <ele>262</ele>
        <time>2022-09-05T06:26:32.000Z</time>
      </trkpt>
      <trkpt lat="49.7901" lon="4.79969">
        <ele>262</ele>
        <time>2022-09-05T06:26:33.000Z</time>
      </trkpt>
      <trkpt lat="49.79016" lon="4.79973">
        <ele>262</ele>
        <time>2022-09-05T06:26:34.000Z</time>
      </trkpt>
      <trkpt lat="49.79021" lon="4.79978">
        <ele>262</ele>
        <time>2022-09-05T06:26:35.000Z</time>
      </trkpt>
      <trkpt lat="49.79027" lon="4.79984">
        <ele>262</ele>
        <time>2022-09-05T06:26:36.000Z</time>
      </trkpt>
      <trkpt lat="49.79032" lon="4.79989">
        <ele>262</ele>
        <time>2022-09-05T06:26:37.000Z</time>
      </trkpt>
      <trkpt lat="49.79038" lon="4.79994">
        <ele>262</ele>
        <time>2022-09-05T06:26:38.000Z</time>
      </trkpt>
      <trkpt lat="49.79043" lon="4.79999">
        <ele>262</ele>
        <time>2022-09-05T06:26:39.000Z</time>
      </trkpt>
      <trkpt lat="49.79049" lon="4.80004">
        <ele>261</ele>
        <time>2022-09-05T06:26:40.000Z</time>
      </trkpt>
      <trkpt lat="49.79055" lon="4.80009">
        <ele>261</ele>
        <time>2022-09-05T06:26:41.000Z</time>
      </trkpt>
      <trkpt lat="49.7906" lon="4.80014">
        <ele>261</ele>
        <time>2022-09-05T06:26:42.000Z</time>
      </trkpt>
      <trkpt lat="49.79065" lon="4.80019">
        <ele>261</ele>
        <time>2022-09-05T06:26:43.000Z</time>
      </trkpt>
      <trkpt lat="49.79071" lon="4.80024">
        <ele>261</ele>
        <time>2022-09-05T06:26:44.000Z</time>
      </trkpt>
      <trkpt lat="49.79076" lon="4.8003">
        <ele>261</ele>
        <time>2022-09-05T06:26:45.000Z</time>
      </trkpt>
      <trkpt lat="49.79082" lon="4.80035">
        <ele>261</ele>
        <time>2022-09-05T06:26:46.000Z</time>
      </trkpt>
      <trkpt lat="49.79087" lon="4.8004">
        <ele>261</ele>
        <time>2022-09-05T06:26:47.000Z</time>
      </trkpt>
      <trkpt lat="49.79093" lon="4.80045">
        <ele>261</ele>
        <time>2022-09-05T06:26:48.000Z</time>
      </trkpt>
      <trkpt lat="49.79099" lon="4.80049">
        <ele>261</ele>
        <time>2022-09-05T06:26:49.000Z</time>
      </trkpt>
      <trkpt lat="49.79105" lon="4.80053">
        <ele>261</ele>
        <time>2022-09-05T06:26:50.000Z</time>
      </trkpt>
      <trkpt lat="49.7911" lon="4.80058">
        <ele>261</ele>
        <time>2022-09-05T06:26:51.000Z</time>
      </trkpt>
      <trkpt lat="49.79116" lon="4.80062">
        <ele>261</ele>
        <time>2022-09-05T06:26:52.000Z</time>
      </trkpt>
      <trkpt lat="49.79122" lon="4.80065">
        <ele>261</ele>
        <time>2022-09-05T06:26:53.000Z</time>
      </trkpt>
      <trkpt lat="49.79127" lon="4.80068">
        <ele>261</ele>
        <time>2022-09-05T06:26:54.000Z</time>
      </trkpt>
      <trkpt lat="49.79133" lon="4.80072">
        <ele>261</ele>
        <time>2022-09-05T06:26:55.000Z</time>
      </trkpt>
      <trkpt lat="49.79138" lon="4.80075">
        <ele>261</ele>
        <time>2022-09-05T06:26:56.000Z</time>
      </trkpt>
      <trkpt lat="49.79144" lon="4.80076">
        <ele>261</ele>
        <time>2022-09-05T06:26:57.000Z</time>
      </trkpt>
      <trkpt lat="49.79149" lon="4.80076">
        <ele>261</ele>
        <time>2022-09-05T06:26:58.000Z</time>
      </trkpt>
      <trkpt lat="49.79155" lon="4.80075">
        <ele>261</ele>
        <time>2022-09-05T06:26:59.000Z</time>
      </trkpt>
      <trkpt lat="49.79161" lon="4.80074">
        <ele>261</ele>
        <time>2022-09-05T06:27:00.000Z</time>
      </trkpt>
      <trkpt lat="49.79167" lon="4.80073">
        <ele>261</ele>
        <time>2022-09-05T06:27:01.000Z</time>
      </trkpt>
      <trkpt lat="49.79173" lon="4.80073">
        <ele>261</ele>
        <time>2022-09-05T06:27:02.000Z</time>
      </trkpt>
      <trkpt lat="49.79178" lon="4.80073">
        <ele>261</ele>
        <time>2022-09-05T06:27:03.000Z</time>
      </trkpt>
      <trkpt lat="49.79185" lon="4.80072">
        <ele>262</ele>
        <time>2022-09-05T06:27:04.000Z</time>
      </trkpt>
      <trkpt lat="49.79191" lon="4.80071">
        <ele>262</ele>
        <time>2022-09-05T06:27:05.000Z</time>
      </trkpt>
      <trkpt lat="49.79196" lon="4.8007">
        <ele>262</ele>
        <time>2022-09-05T06:27:06.000Z</time>
      </trkpt>
      <trkpt lat="49.79202" lon="4.8007">
        <ele>262</ele>
        <time>2022-09-05T06:27:07.000Z</time>
      </trkpt>
      <trkpt lat="49.79207" lon="4.8007">
        <ele>262</ele>
        <time>2022-09-05T06:27:08.000Z</time>
      </trkpt>
      <trkpt lat="49.79211" lon="4.8007">
        <ele>263</ele>
        <time>2022-09-05T06:27:09.000Z</time>
      </trkpt>
      <trkpt lat="49.79216" lon="4.80071">
        <ele>263</ele>
        <time>2022-09-05T06:27:10.000Z</time>
      </trkpt>
      <trkpt lat="49.7922" lon="4.80071">
        <ele>263</ele>
        <time>2022-09-05T06:27:11.000Z</time>
      </trkpt>
      <trkpt lat="49.79225" lon="4.80071">
        <ele>264</ele>
        <time>2022-09-05T06:27:12.000Z</time>
      </trkpt>
      <trkpt lat="49.79229" lon="4.80071">
        <ele>264</ele>
        <time>2022-09-05T06:27:13.000Z</time>
      </trkpt>
      <trkpt lat="49.79232" lon="4.8007">
        <ele>264</ele>
        <time>2022-09-05T06:27:14.000Z</time>
      </trkpt>
      <trkpt lat="49.79235" lon="4.8007">
        <ele>264</ele>
        <time>2022-09-05T06:27:15.000Z</time>
      </trkpt>
      <trkpt lat="49.79238" lon="4.8007">
        <ele>265</ele>
        <time>2022-09-05T06:27:16.000Z</time>
      </trkpt>
      <trkpt lat="49.79241" lon="4.80069">
        <ele>265</ele>
        <time>2022-09-05T06:27:17.000Z</time>
      </trkpt>
      <trkpt lat="49.79244" lon="4.80067">
        <ele>266</ele>
        <time>2022-09-05T06:27:18.000Z</time>
      </trkpt>
      <trkpt lat="49.79247" lon="4.80066">
        <ele>266</ele>
        <time>2022-09-05T06:27:19.000Z</time>
      </trkpt>
      <trkpt lat="49.7925" lon="4.80064">
        <ele>266</ele>
        <time>2022-09-05T06:27:20.000Z</time>
      </trkpt>
      <trkpt lat="49.79253" lon="4.80062">
        <ele>267</ele>
        <time>2022-09-05T06:27:21.000Z</time>
      </trkpt>
      <trkpt lat="49.79256" lon="4.80061">
        <ele>267</ele>
        <time>2022-09-05T06:27:22.000Z</time>
      </trkpt>
      <trkpt lat="49.79258" lon="4.8006">
        <ele>267</ele>
        <time>2022-09-05T06:27:23.000Z</time>
      </trkpt>
      <trkpt lat="49.79261" lon="4.80058">
        <ele>268</ele>
        <time>2022-09-05T06:27:24.000Z</time>
      </trkpt>
      <trkpt lat="49.79264" lon="4.80057">
        <ele>268</ele>
        <time>2022-09-05T06:27:25.000Z</time>
      </trkpt>
      <trkpt lat="49.79267" lon="4.80055">
        <ele>268</ele>
        <time>2022-09-05T06:27:26.000Z</time>
      </trkpt>
      <trkpt lat="49.7927" lon="4.80054">
        <ele>269</ele>
        <time>2022-09-05T06:27:27.000Z</time>
      </trkpt>
      <trkpt lat="49.79273" lon="4.80053">
        <ele>269</ele>
        <time>2022-09-05T06:27:28.000Z</time>
      </trkpt>
      <trkpt lat="49.79276" lon="4.80051">
        <ele>269</ele>
        <time>2022-09-05T06:27:29.000Z</time>
      </trkpt>
      <trkpt lat="49.79279" lon="4.8005">
        <ele>270</ele>
        <time>2022-09-05T06:27:30.000Z</time>
      </trkpt>
      <trkpt lat="49.79283" lon="4.8005">
        <ele>270</ele>
        <time>2022-09-05T06:27:31.000Z</time>
      </trkpt>
      <trkpt lat="49.79286" lon="4.80049">
        <ele>270</ele>
        <time>2022-09-05T06:27:32.000Z</time>
      </trkpt>
      <trkpt lat="49.79288" lon="4.80048">
        <ele>270</ele>
        <time>2022-09-05T06:27:33.000Z</time>
      </trkpt>
      <trkpt lat="49.79291" lon="4.80047">
        <ele>271</ele>
        <time>2022-09-05T06:27:34.000Z</time>
      </trkpt>
      <trkpt lat="49.79293" lon="4.80047">
        <ele>271</ele>
        <time>2022-09-05T06:27:35.000Z</time>
      </trkpt>
      <trkpt lat="49.79296" lon="4.80047">
        <ele>271</ele>
        <time>2022-09-05T06:27:36.000Z</time>
      </trkpt>
      <trkpt lat="49.79299" lon="4.80047">
        <ele>271</ele>
        <time>2022-09-05T06:27:37.000Z</time>
      </trkpt>
      <trkpt lat="49.79301" lon="4.80046">
        <ele>271</ele>
        <time>2022-09-05T06:27:38.000Z</time>
      </trkpt>
      <trkpt lat="49.79303" lon="4.80043">
        <ele>271</ele>
        <time>2022-09-05T06:27:39.000Z</time>
      </trkpt>
      <trkpt lat="49.79305" lon="4.8004">
        <ele>272</ele>
        <time>2022-09-05T06:27:40.000Z</time>
      </trkpt>
      <trkpt lat="49.79307" lon="4.80036">
        <ele>272</ele>
        <time>2022-09-05T06:27:41.000Z</time>
      </trkpt>
      <trkpt lat="49.79308" lon="4.80031">
        <ele>272</ele>
        <time>2022-09-05T06:27:42.000Z</time>
      </trkpt>
      <trkpt lat="49.7931" lon="4.80027">
        <ele>272</ele>
        <time>2022-09-05T06:27:43.000Z</time>
      </trkpt>
      <trkpt lat="49.79312" lon="4.80024">
        <ele>272</ele>
        <time>2022-09-05T06:27:44.000Z</time>
      </trkpt>
      <trkpt lat="49.79313" lon="4.80022">
        <ele>273</ele>
        <time>2022-09-05T06:27:45.000Z</time>
      </trkpt>
      <trkpt lat="49.79313" lon="4.80022">
        <ele>273</ele>
        <time>2022-09-05T06:27:46.000Z</time>
      </trkpt>
      <trkpt lat="49.79313" lon="4.80022">
        <ele>273</ele>
        <time>2022-09-05T06:27:47.000Z</time>
      </trkpt>
      <trkpt lat="49.79314" lon="4.80021">
        <ele>274</ele>
        <time>2022-09-05T06:27:48.000Z</time>
      </trkpt>
      <trkpt lat="49.79314" lon="4.8002">
        <ele>274</ele>
        <time>2022-09-05T06:27:49.000Z</time>
      </trkpt>
      <trkpt lat="49.79315" lon="4.8002">
        <ele>274</ele>
        <time>2022-09-05T06:27:50.000Z</time>
      </trkpt>
      <trkpt lat="49.79315" lon="4.8002">
        <ele>274</ele>
        <time>2022-09-05T06:27:51.000Z</time>
      </trkpt>
      <trkpt lat="49.79315" lon="4.80019">
        <ele>274</ele>
        <time>2022-09-05T06:27:52.000Z</time>
      </trkpt>
      <trkpt lat="49.79315" lon="4.80019">
        <ele>275</ele>
        <time>2022-09-05T06:27:53.000Z</time>
      </trkpt>
      <trkpt lat="49.79316" lon="4.80019">
        <ele>275</ele>
        <time>2022-09-05T06:27:54.000Z</time>
      </trkpt>
      <trkpt lat="49.79316" lon="4.80019">
        <ele>275</ele>
        <time>2022-09-05T06:27:55.000Z</time>
      </trkpt>
      <trkpt lat="49.79316" lon="4.80018">
        <ele>275</ele>
        <time>2022-09-05T06:27:56.000Z</time>
      </trkpt>
      <trkpt lat="49.79316" lon="4.80018">
        <ele>275</ele>
        <time>2022-09-05T06:27:57.000Z</time>
      </trkpt>
      <trkpt lat="49.79316" lon="4.80018">
        <ele>275</ele>
        <time>2022-09-05T06:27:58.000Z</time>
      </trkpt>
      <trkpt lat="49.79316" lon="4.80018">
        <ele>275</ele>
        <time>2022-09-05T06:27:59.000Z</time>
      </trkpt>
      <trkpt lat="49.79317" lon="4.80018">
        <ele>275</ele>
        <time>2022-09-05T06:28:00.000Z</time>
      </trkpt>
      <trkpt lat="49.79317" lon="4.80017">
        <ele>276</ele>
        <time>2022-09-05T06:28:01.000Z</time>
      </trkpt>
      <trkpt lat="49.79317" lon="4.80017">
        <ele>276</ele>
        <time>2022-09-05T06:28:02.000Z</time>
      </trkpt>
      <trkpt lat="49.79317" lon="4.80017">
        <ele>276</ele>
        <time>2022-09-05T06:28:03.000Z</time>
      </trkpt>
      <trkpt lat="49.79317" lon="4.80017">
        <ele>276</ele>
        <time>2022-09-05T06:28:04.000Z</time>
      </trkpt>
      <trkpt lat="49.79317" lon="4.80017">
        <ele>276</ele>
        <time>2022-09-05T06:28:05.000Z</time>
      </trkpt>
      <trkpt lat="49.79317" lon="4.80017">
        <ele>276</ele>
        <time>2022-09-05T06:28:06.000Z</time>
      </trkpt>
      <trkpt lat="49.79317" lon="4.80017">
        <ele>276</ele>
        <time>2022-09-05T06:28:07.000Z</time>
      </trkpt>
      <trkpt lat="49.79317" lon="4.80017">
        <ele>276</ele>
        <time>2022-09-05T06:28:08.000Z</time>
      </trkpt>
      <trkpt lat="49.79317" lon="4.80017">
        <ele>276</ele>
        <time>2022-09-05T06:28:09.000Z</time>
      </trkpt>
      <trkpt lat="49.79317" lon="4.80017">
        <ele>276</ele>
        <time>2022-09-05T06:28:10.000Z</time>
      </trkpt>
      <trkpt lat="49.79318" lon="4.80017">
        <ele>276</ele>
        <time>2022-09-05T06:28:11.000Z</time>
      </trkpt>
      <trkpt lat="49.79318" lon="4.80016">
        <ele>276</ele>
        <time>2022-09-05T06:28:12.000Z</time>
      </trkpt>
      <trkpt lat="49.79318" lon="4.80016">
        <ele>276</ele>
        <time>2022-09-05T06:28:13.000Z</time>
      </trkpt>
      <trkpt lat="49.79318" lon="4.80016">
        <ele>276</ele>
        <time>2022-09-05T06:28:14.000Z</time>
      </trkpt>
      <trkpt lat="49.79318" lon="4.80016">
        <ele>276</ele>
        <time>2022-09-05T06:28:15.000Z</time>
      </trkpt>
      <trkpt lat="49.79318" lon="4.80016">
        <ele>276</ele>
        <time>2022-09-05T06:28:16.000Z</time>
      </trkpt>
      <trkpt lat="49.79318" lon="4.80016">
        <ele>276</ele>
        <time>2022-09-05T06:28:17.000Z</time>
      </trkpt>
      <trkpt lat="49.79318" lon="4.80016">
        <ele>276</ele>
        <time>2022-09-05T06:28:18.000Z</time>
      </trkpt>
      <trkpt lat="49.79318" lon="4.80014">
        <ele>276</ele>
        <time>2022-09-05T06:28:19.000Z</time>
      </trkpt>
      <trkpt lat="49.79318" lon="4.80012">
        <ele>277</ele>
        <time>2022-09-05T06:28:20.000Z</time>
      </trkpt>
      <trkpt lat="49.79319" lon="4.8001">
        <ele>277</ele>
        <time>2022-09-05T06:28:21.000Z</time>
      </trkpt>
      <trkpt lat="49.7932" lon="4.80006">
        <ele>277</ele>
        <time>2022-09-05T06:28:22.000Z</time>
      </trkpt>
      <trkpt lat="49.79321" lon="4.80001">
        <ele>277</ele>
        <time>2022-09-05T06:28:23.000Z</time>
      </trkpt>
      <trkpt lat="49.79322" lon="4.79997">
        <ele>277</ele>
        <time>2022-09-05T06:28:24.000Z</time>
      </trkpt>
      <trkpt lat="49.79323" lon="4.79993">
        <ele>277</ele>
        <time>2022-09-05T06:28:25.000Z</time>
      </trkpt>
      <trkpt lat="49.79325" lon="4.79989">
        <ele>278</ele>
        <time>2022-09-05T06:28:26.000Z</time>
      </trkpt>
      <trkpt lat="49.79326" lon="4.79985">
        <ele>278</ele>
        <time>2022-09-05T06:28:27.000Z</time>
      </trkpt>
      <trkpt lat="49.79327" lon="4.7998">
        <ele>278</ele>
        <time>2022-09-05T06:28:28.000Z</time>
      </trkpt>
      <trkpt lat="49.79329" lon="4.79975">
        <ele>278</ele>
        <time>2022-09-05T06:28:29.000Z</time>
      </trkpt>
      <trkpt lat="49.7933" lon="4.79971">
        <ele>278</ele>
        <time>2022-09-05T06:28:30.000Z</time>
      </trkpt>
      <trkpt lat="49.79331" lon="4.79967">
        <ele>278</ele>
        <time>2022-09-05T06:28:31.000Z</time>
      </trkpt>
      <trkpt lat="49.79332" lon="4.79962">
        <ele>279</ele>
        <time>2022-09-05T06:28:32.000Z</time>
      </trkpt>
      <trkpt lat="49.79333" lon="4.79957">
        <ele>279</ele>
        <time>2022-09-05T06:28:33.000Z</time>
      </trkpt>
      <trkpt lat="49.79336" lon="4.79952">
        <ele>279</ele>
        <time>2022-09-05T06:28:34.000Z</time>
      </trkpt>
      <trkpt lat="49.79337" lon="4.79947">
        <ele>279</ele>
        <time>2022-09-05T06:28:35.000Z</time>
      </trkpt>
      <trkpt lat="49.79339" lon="4.79942">
        <ele>279</ele>
        <time>2022-09-05T06:28:36.000Z</time>
      </trkpt>
      <trkpt lat="49.79341" lon="4.79937">
        <ele>279</ele>
        <time>2022-09-05T06:28:37.000Z</time>
      </trkpt>
      <trkpt lat="49.79344" lon="4.79932">
        <ele>279</ele>
        <time>2022-09-05T06:28:38.000Z</time>
      </trkpt>
      <trkpt lat="49.79347" lon="4.79926">
        <ele>279</ele>
        <time>2022-09-05T06:28:39.000Z</time>
      </trkpt>
      <trkpt lat="49.79349" lon="4.7992">
        <ele>280</ele>
        <time>2022-09-05T06:28:40.000Z</time>
      </trkpt>
      <trkpt lat="49.79352" lon="4.79916">
        <ele>280</ele>
        <time>2022-09-05T06:28:41.000Z</time>
      </trkpt>
      <trkpt lat="49.79354" lon="4.79912">
        <ele>280</ele>
        <time>2022-09-05T06:28:42.000Z</time>
      </trkpt>
      <trkpt lat="49.79355" lon="4.79907">
        <ele>280</ele>
        <time>2022-09-05T06:28:43.000Z</time>
      </trkpt>
      <trkpt lat="49.79357" lon="4.79902">
        <ele>280</ele>
        <time>2022-09-05T06:28:44.000Z</time>
      </trkpt>
      <trkpt lat="49.79359" lon="4.79898">
        <ele>280</ele>
        <time>2022-09-05T06:28:45.000Z</time>
      </trkpt>
      <trkpt lat="49.79361" lon="4.79894">
        <ele>280</ele>
        <time>2022-09-05T06:28:46.000Z</time>
      </trkpt>
      <trkpt lat="49.79364" lon="4.79891">
        <ele>281</ele>
        <time>2022-09-05T06:28:47.000Z</time>
      </trkpt>
      <trkpt lat="49.79366" lon="4.79887">
        <ele>281</ele>
        <time>2022-09-05T06:28:48.000Z</time>
      </trkpt>
      <trkpt lat="49.79368" lon="4.79883">
        <ele>281</ele>
        <time>2022-09-05T06:28:49.000Z</time>
      </trkpt>
      <trkpt lat="49.79371" lon="4.79879">
        <ele>281</ele>
        <time>2022-09-05T06:28:50.000Z</time>
      </trkpt>
      <trkpt lat="49.79373" lon="4.79874">
        <ele>281</ele>
        <time>2022-09-05T06:28:51.000Z</time>
      </trkpt>
      <trkpt lat="49.79374" lon="4.7987">
        <ele>281</ele>
        <time>2022-09-05T06:28:52.000Z</time>
      </trkpt>
      <trkpt lat="49.79376" lon="4.79865">
        <ele>282</ele>
        <time>2022-09-05T06:28:53.000Z</time>
      </trkpt>
      <trkpt lat="49.79377" lon="4.7986">
        <ele>282</ele>
        <time>2022-09-05T06:28:54.000Z</time>
      </trkpt>
      <trkpt lat="49.79379" lon="4.79856">
        <ele>282</ele>
        <time>2022-09-05T06:28:55.000Z</time>
      </trkpt>
      <trkpt lat="49.79381" lon="4.79852">
        <ele>282</ele>
        <time>2022-09-05T06:28:56.000Z</time>
      </trkpt>
      <trkpt lat="49.79383" lon="4.79849">
        <ele>282</ele>
        <time>2022-09-05T06:28:57.000Z</time>
      </trkpt>
      <trkpt lat="49.79385" lon="4.79847">
        <ele>283</ele>
        <time>2022-09-05T06:28:58.000Z</time>
      </trkpt>
      <trkpt lat="49.79387" lon="4.79847">
        <ele>283</ele>
        <time>2022-09-05T06:28:59.000Z</time>
      </trkpt>
      <trkpt lat="49.7939" lon="4.79846">
        <ele>283</ele>
        <time>2022-09-05T06:29:00.000Z</time>
      </trkpt>
      <trkpt lat="49.79392" lon="4.79845">
        <ele>283</ele>
        <time>2022-09-05T06:29:01.000Z</time>
      </trkpt>
      <trkpt lat="49.79394" lon="4.79845">
        <ele>283</ele>
        <time>2022-09-05T06:29:02.000Z</time>
      </trkpt>
      <trkpt lat="49.79397" lon="4.79846">
        <ele>283</ele>
        <time>2022-09-05T06:29:03.000Z</time>
      </trkpt>
      <trkpt lat="49.79398" lon="4.79845">
        <ele>284</ele>
        <time>2022-09-05T06:29:04.000Z</time>
      </trkpt>
      <trkpt lat="49.794" lon="4.79844">
        <ele>284</ele>
        <time>2022-09-05T06:29:05.000Z</time>
      </trkpt>
      <trkpt lat="49.79402" lon="4.79844">
        <ele>284</ele>
        <time>2022-09-05T06:29:06.000Z</time>
      </trkpt>
      <trkpt lat="49.79404" lon="4.79844">
        <ele>284</ele>
        <time>2022-09-05T06:29:07.000Z</time>
      </trkpt>
      <trkpt lat="49.79407" lon="4.79844">
        <ele>284</ele>
        <time>2022-09-05T06:29:08.000Z</time>
      </trkpt>
      <trkpt lat="49.7941" lon="4.79844">
        <ele>284</ele>
        <time>2022-09-05T06:29:09.000Z</time>
      </trkpt>
      <trkpt lat="49.79411" lon="4.79843">
        <ele>284</ele>
        <time>2022-09-05T06:29:10.000Z</time>
      </trkpt>
      <trkpt lat="49.79414" lon="4.79843">
        <ele>285</ele>
        <time>2022-09-05T06:29:11.000Z</time>
      </trkpt>
      <trkpt lat="49.79417" lon="4.79843">
        <ele>285</ele>
        <time>2022-09-05T06:29:12.000Z</time>
      </trkpt>
      <trkpt lat="49.79421" lon="4.79843">
        <ele>285</ele>
        <time>2022-09-05T06:29:13.000Z</time>
      </trkpt>
      <trkpt lat="49.79424" lon="4.79843">
        <ele>285</ele>
        <time>2022-09-05T06:29:14.000Z</time>
      </trkpt>
      <trkpt lat="49.79428" lon="4.79843">
        <ele>285</ele>
        <time>2022-09-05T06:29:15.000Z</time>
      </trkpt>
      <trkpt lat="49.79431" lon="4.79843">
        <ele>286</ele>
        <time>2022-09-05T06:29:16.000Z</time>
      </trkpt>
      <trkpt lat="49.79434" lon="4.79843">
        <ele>286</ele>
        <time>2022-09-05T06:29:17.000Z</time>
      </trkpt>
      <trkpt lat="49.79437" lon="4.79843">
        <ele>286</ele>
        <time>2022-09-05T06:29:18.000Z</time>
      </trkpt>
      <trkpt lat="49.7944" lon="4.79843">
        <ele>286</ele>
        <time>2022-09-05T06:29:19.000Z</time>
      </trkpt>
      <trkpt lat="49.79444" lon="4.79842">
        <ele>286</ele>
        <time>2022-09-05T06:29:20.000Z</time>
      </trkpt>
      <trkpt lat="49.79447" lon="4.79841">
        <ele>286</ele>
        <time>2022-09-05T06:29:21.000Z</time>
      </trkpt>
      <trkpt lat="49.79451" lon="4.79841">
        <ele>287</ele>
        <time>2022-09-05T06:29:22.000Z</time>
      </trkpt>
      <trkpt lat="49.79455" lon="4.79841">
        <ele>287</ele>
        <time>2022-09-05T06:29:23.000Z</time>
      </trkpt>
      <trkpt lat="49.79459" lon="4.79841">
        <ele>287</ele>
        <time>2022-09-05T06:29:24.000Z</time>
      </trkpt>
      <trkpt lat="49.79462" lon="4.79841">
        <ele>287</ele>
        <time>2022-09-05T06:29:25.000Z</time>
      </trkpt>
      <trkpt lat="49.79466" lon="4.7984">
        <ele>287</ele>
        <time>2022-09-05T06:29:26.000Z</time>
      </trkpt>
      <trkpt lat="49.79469" lon="4.7984">
        <ele>287</ele>
        <time>2022-09-05T06:29:27.000Z</time>
      </trkpt>
      <trkpt lat="49.79473" lon="4.79839">
        <ele>288</ele>
        <time>2022-09-05T06:29:28.000Z</time>
      </trkpt>
      <trkpt lat="49.79476" lon="4.7984">
        <ele>288</ele>
        <time>2022-09-05T06:29:29.000Z</time>
      </trkpt>
      <trkpt lat="49.7948" lon="4.79839">
        <ele>288</ele>
        <time>2022-09-05T06:29:30.000Z</time>
      </trkpt>
      <trkpt lat="49.79484" lon="4.79839">
        <ele>288</ele>
        <time>2022-09-05T06:29:31.000Z</time>
      </trkpt>
      <trkpt lat="49.79488" lon="4.79839">
        <ele>288</ele>
        <time>2022-09-05T06:29:32.000Z</time>
      </trkpt>
      <trkpt lat="49.79491" lon="4.79838">
        <ele>288</ele>
        <time>2022-09-05T06:29:33.000Z</time>
      </trkpt>
      <trkpt lat="49.79495" lon="4.79838">
        <ele>288</ele>
        <time>2022-09-05T06:29:34.000Z</time>
      </trkpt>
      <trkpt lat="49.79498" lon="4.79838">
        <ele>289</ele>
        <time>2022-09-05T06:29:35.000Z</time>
      </trkpt>
      <trkpt lat="49.79501" lon="4.79837">
        <ele>289</ele>
        <time>2022-09-05T06:29:36.000Z</time>
      </trkpt>
      <trkpt lat="49.79504" lon="4.79837">
        <ele>289</ele>
        <time>2022-09-05T06:29:37.000Z</time>
      </trkpt>
      <trkpt lat="49.79508" lon="4.79837">
        <ele>289</ele>
        <time>2022-09-05T06:29:38.000Z</time>
      </trkpt>
      <trkpt lat="49.79511" lon="4.79836">
        <ele>289</ele>
        <time>2022-09-05T06:29:39.000Z</time>
      </trkpt>
      <trkpt lat="49.79514" lon="4.79835">
        <ele>289</ele>
        <time>2022-09-05T06:29:40.000Z</time>
      </trkpt>
      <trkpt lat="49.79517" lon="4.79834">
        <ele>289</ele>
        <time>2022-09-05T06:29:41.000Z</time>
      </trkpt>
      <trkpt lat="49.79521" lon="4.79835">
        <ele>289</ele>
        <time>2022-09-05T06:29:42.000Z</time>
      </trkpt>
      <trkpt lat="49.79524" lon="4.79835">
        <ele>289</ele>
        <time>2022-09-05T06:29:43.000Z</time>
      </trkpt>
      <trkpt lat="49.79527" lon="4.79835">
        <ele>289</ele>
        <time>2022-09-05T06:29:44.000Z</time>
      </trkpt>
      <trkpt lat="49.7953" lon="4.79834">
        <ele>289</ele>
        <time>2022-09-05T06:29:45.000Z</time>
      </trkpt>
      <trkpt lat="49.79533" lon="4.79834">
        <ele>290</ele>
        <time>2022-09-05T06:29:46.000Z</time>
      </trkpt>
      <trkpt lat="49.79536" lon="4.79833">
        <ele>290</ele>
        <time>2022-09-05T06:29:47.000Z</time>
      </trkpt>
      <trkpt lat="49.79539" lon="4.79833">
        <ele>290</ele>
        <time>2022-09-05T06:29:48.000Z</time>
      </trkpt>
      <trkpt lat="49.79542" lon="4.79834">
        <ele>290</ele>
        <time>2022-09-05T06:29:49.000Z</time>
      </trkpt>
      <trkpt lat="49.79546" lon="4.79834">
        <ele>290</ele>
        <time>2022-09-05T06:29:50.000Z</time>
      </trkpt>
      <trkpt lat="49.79549" lon="4.79834">
        <ele>290</ele>
        <time>2022-09-05T06:29:51.000Z</time>
      </trkpt>
      <trkpt lat="49.79552" lon="4.79834">
        <ele>291</ele>
        <time>2022-09-05T06:29:52.000Z</time>
      </trkpt>
      <trkpt lat="49.79556" lon="4.79835">
        <ele>291</ele>
        <time>2022-09-05T06:29:53.000Z</time>
      </trkpt>
      <trkpt lat="49.79559" lon="4.79834">
        <ele>291</ele>
        <time>2022-09-05T06:29:54.000Z</time>
      </trkpt>
      <trkpt lat="49.79561" lon="4.79834">
        <ele>291</ele>
        <time>2022-09-05T06:29:55.000Z</time>
      </trkpt>
      <trkpt lat="49.79565" lon="4.79834">
        <ele>291</ele>
        <time>2022-09-05T06:29:56.000Z</time>
      </trkpt>
      <trkpt lat="49.79568" lon="4.79834">
        <ele>291</ele>
        <time>2022-09-05T06:29:57.000Z</time>
      </trkpt>
      <trkpt lat="49.79571" lon="4.79834">
        <ele>292</ele>
        <time>2022-09-05T06:29:58.000Z</time>
      </trkpt>
      <trkpt lat="49.79574" lon="4.79833">
        <ele>292</ele>
        <time>2022-09-05T06:29:59.000Z</time>
      </trkpt>
      <trkpt lat="49.79577" lon="4.79832">
        <ele>292</ele>
        <time>2022-09-05T06:30:00.000Z</time>
      </trkpt>
      <trkpt lat="49.7958" lon="4.79831">
        <ele>293</ele>
        <time>2022-09-05T06:30:01.000Z</time>
      </trkpt>
      <trkpt lat="49.79583" lon="4.7983">
        <ele>293</ele>
        <time>2022-09-05T06:30:02.000Z</time>
      </trkpt>
      <trkpt lat="49.79586" lon="4.7983">
        <ele>293</ele>
        <time>2022-09-05T06:30:03.000Z</time>
      </trkpt>
      <trkpt lat="49.7959" lon="4.7983">
        <ele>293</ele>
        <time>2022-09-05T06:30:04.000Z</time>
      </trkpt>
      <trkpt lat="49.79593" lon="4.7983">
        <ele>294</ele>
        <time>2022-09-05T06:30:05.000Z</time>
      </trkpt>
      <trkpt lat="49.79596" lon="4.79829">
        <ele>294</ele>
        <time>2022-09-05T06:30:06.000Z</time>
      </trkpt>
      <trkpt lat="49.79599" lon="4.79829">
        <ele>294</ele>
        <time>2022-09-05T06:30:07.000Z</time>
      </trkpt>
      <trkpt lat="49.79603" lon="4.79829">
        <ele>294</ele>
        <time>2022-09-05T06:30:08.000Z</time>
      </trkpt>
      <trkpt lat="49.79605" lon="4.79829">
        <ele>294</ele>
        <time>2022-09-05T06:30:09.000Z</time>
      </trkpt>
      <trkpt lat="49.79608" lon="4.79829">
        <ele>295</ele>
        <time>2022-09-05T06:30:10.000Z</time>
      </trkpt>
      <trkpt lat="49.79611" lon="4.79829">
        <ele>295</ele>
        <time>2022-09-05T06:30:11.000Z</time>
      </trkpt>
      <trkpt lat="49.79614" lon="4.79829">
        <ele>295</ele>
        <time>2022-09-05T06:30:12.000Z</time>
      </trkpt>
      <trkpt lat="49.79617" lon="4.79829">
        <ele>295</ele>
        <time>2022-09-05T06:30:13.000Z</time>
      </trkpt>
      <trkpt lat="49.7962" lon="4.79829">
        <ele>295</ele>
        <time>2022-09-05T06:30:14.000Z</time>
      </trkpt>
      <trkpt lat="49.79623" lon="4.79828">
        <ele>296</ele>
        <time>2022-09-05T06:30:15.000Z</time>
      </trkpt>
      <trkpt lat="49.79626" lon="4.79827">
        <ele>296</ele>
        <time>2022-09-05T06:30:16.000Z</time>
      </trkpt>
      <trkpt lat="49.79629" lon="4.79827">
        <ele>296</ele>
        <time>2022-09-05T06:30:17.000Z</time>
      </trkpt>
      <trkpt lat="49.79632" lon="4.79827">
        <ele>296</ele>
        <time>2022-09-05T06:30:18.000Z</time>
      </trkpt>
      <trkpt lat="49.79634" lon="4.79827">
        <ele>297</ele>
        <time>2022-09-05T06:30:19.000Z</time>
      </trkpt>
      <trkpt lat="49.79637" lon="4.79827">
        <ele>297</ele>
        <time>2022-09-05T06:30:20.000Z</time>
      </trkpt>
      <trkpt lat="49.7964" lon="4.79826">
        <ele>297</ele>
        <time>2022-09-05T06:30:21.000Z</time>
      </trkpt>
      <trkpt lat="49.79643" lon="4.79826">
        <ele>297</ele>
        <time>2022-09-05T06:30:22.000Z</time>
      </trkpt>
      <trkpt lat="49.79646" lon="4.79826">
        <ele>297</ele>
        <time>2022-09-05T06:30:23.000Z</time>
      </trkpt>
      <trkpt lat="49.79648" lon="4.79826">
        <ele>297</ele>
        <time>2022-09-05T06:30:24.000Z</time>
      </trkpt>
      <trkpt lat="49.79651" lon="4.79826">
        <ele>297</ele>
        <time>2022-09-05T06:30:25.000Z</time>
      </trkpt>
      <trkpt lat="49.79655" lon="4.79826">
        <ele>297</ele>
        <time>2022-09-05T06:30:26.000Z</time>
      </trkpt>
      <trkpt lat="49.79658" lon="4.79826">
        <ele>297</ele>
        <time>2022-09-05T06:30:27.000Z</time>
      </trkpt>
      <trkpt lat="49.79662" lon="4.79826">
        <ele>297</ele>
        <time>2022-09-05T06:30:28.000Z</time>
      </trkpt>
      <trkpt lat="49.79666" lon="4.79826">
        <ele>298</ele>
        <time>2022-09-05T06:30:29.000Z</time>
      </trkpt>
      <trkpt lat="49.7967" lon="4.79826">
        <ele>298</ele>
        <time>2022-09-05T06:30:30.000Z</time>
      </trkpt>
      <trkpt lat="49.79674" lon="4.79824">
        <ele>298</ele>
        <time>2022-09-05T06:30:31.000Z</time>
      </trkpt>
      <trkpt lat="49.79678" lon="4.79823">
        <ele>298</ele>
        <time>2022-09-05T06:30:32.000Z</time>
      </trkpt>
      <trkpt lat="49.79682" lon="4.79823">
        <ele>298</ele>
        <time>2022-09-05T06:30:33.000Z</time>
      </trkpt>
      <trkpt lat="49.79687" lon="4.79823">
        <ele>298</ele>
        <time>2022-09-05T06:30:34.000Z</time>
      </trkpt>
      <trkpt lat="49.79692" lon="4.79822">
        <ele>299</ele>
        <time>2022-09-05T06:30:35.000Z</time>
      </trkpt>
      <trkpt lat="49.79697" lon="4.79822">
        <ele>299</ele>
        <time>2022-09-05T06:30:36.000Z</time>
      </trkpt>
      <trkpt lat="49.79701" lon="4.79823">
        <ele>299</ele>
        <time>2022-09-05T06:30:37.000Z</time>
      </trkpt>
      <trkpt lat="49.79707" lon="4.79822">
        <ele>299</ele>
        <time>2022-09-05T06:30:38.000Z</time>
      </trkpt>
      <trkpt lat="49.79712" lon="4.79822">
        <ele>299</ele>
        <time>2022-09-05T06:30:39.000Z</time>
      </trkpt>
      <trkpt lat="49.79717" lon="4.79821">
        <ele>300</ele>
        <time>2022-09-05T06:30:40.000Z</time>
      </trkpt>
      <trkpt lat="49.79722" lon="4.7982">
        <ele>300</ele>
        <time>2022-09-05T06:30:41.000Z</time>
      </trkpt>
      <trkpt lat="49.79727" lon="4.79819">
        <ele>300</ele>
        <time>2022-09-05T06:30:42.000Z</time>
      </trkpt>
      <trkpt lat="49.79733" lon="4.79818">
        <ele>300</ele>
        <time>2022-09-05T06:30:43.000Z</time>
      </trkpt>
      <trkpt lat="49.79738" lon="4.79817">
        <ele>300</ele>
        <time>2022-09-05T06:30:44.000Z</time>
      </trkpt>
      <trkpt lat="49.79743" lon="4.79817">
        <ele>300</ele>
        <time>2022-09-05T06:30:45.000Z</time>
      </trkpt>
      <trkpt lat="49.79748" lon="4.79817">
        <ele>300</ele>
        <time>2022-09-05T06:30:46.000Z</time>
      </trkpt>
      <trkpt lat="49.79753" lon="4.79817">
        <ele>300</ele>
        <time>2022-09-05T06:30:47.000Z</time>
      </trkpt>
      <trkpt lat="49.79757" lon="4.79817">
        <ele>300</ele>
        <time>2022-09-05T06:30:48.000Z</time>
      </trkpt>
      <trkpt lat="49.79762" lon="4.79817">
        <ele>301</ele>
        <time>2022-09-05T06:30:49.000Z</time>
      </trkpt>
      <trkpt lat="49.79767" lon="4.79817">
        <ele>301</ele>
        <time>2022-09-05T06:30:50.000Z</time>
      </trkpt>
      <trkpt lat="49.79771" lon="4.79816">
        <ele>301</ele>
        <time>2022-09-05T06:30:51.000Z</time>
      </trkpt>
      <trkpt lat="49.79776" lon="4.79816">
        <ele>301</ele>
        <time>2022-09-05T06:30:52.000Z</time>
      </trkpt>
      <trkpt lat="49.79781" lon="4.79815">
        <ele>301</ele>
        <time>2022-09-05T06:30:53.000Z</time>
      </trkpt>
      <trkpt lat="49.79786" lon="4.79815">
        <ele>301</ele>
        <time>2022-09-05T06:30:54.000Z</time>
      </trkpt>
      <trkpt lat="49.79792" lon="4.79815">
        <ele>301</ele>
        <time>2022-09-05T06:30:55.000Z</time>
      </trkpt>
      <trkpt lat="49.79798" lon="4.79814">
        <ele>301</ele>
        <time>2022-09-05T06:30:56.000Z</time>
      </trkpt>
      <trkpt lat="49.79805" lon="4.79814">
        <ele>301</ele>
        <time>2022-09-05T06:30:57.000Z</time>
      </trkpt>
      <trkpt lat="49.7981" lon="4.79813">
        <ele>300</ele>
        <time>2022-09-05T06:30:58.000Z</time>
      </trkpt>
      <trkpt lat="49.79816" lon="4.79813">
        <ele>300</ele>
        <time>2022-09-05T06:30:59.000Z</time>
      </trkpt>
      <trkpt lat="49.79822" lon="4.79812">
        <ele>300</ele>
        <time>2022-09-05T06:31:00.000Z</time>
      </trkpt>
      <trkpt lat="49.79827" lon="4.79811">
        <ele>300</ele>
        <time>2022-09-05T06:31:01.000Z</time>
      </trkpt>
      <trkpt lat="49.79832" lon="4.7981">
        <ele>300</ele>
        <time>2022-09-05T06:31:02.000Z</time>
      </trkpt>
      <trkpt lat="49.79837" lon="4.7981">
        <ele>300</ele>
        <time>2022-09-05T06:31:03.000Z</time>
      </trkpt>
      <trkpt lat="49.79841" lon="4.79809">
        <ele>300</ele>
        <time>2022-09-05T06:31:04.000Z</time>
      </trkpt>
      <trkpt lat="49.79847" lon="4.79809">
        <ele>300</ele>
        <time>2022-09-05T06:31:05.000Z</time>
      </trkpt>
      <trkpt lat="49.79852" lon="4.79808">
        <ele>300</ele>
        <time>2022-09-05T06:31:06.000Z</time>
      </trkpt>
      <trkpt lat="49.79858" lon="4.79808">
        <ele>301</ele>
        <time>2022-09-05T06:31:07.000Z</time>
      </trkpt>
      <trkpt lat="49.79864" lon="4.79808">
        <ele>300</ele>
        <time>2022-09-05T06:31:08.000Z</time>
      </trkpt>
      <trkpt lat="49.79869" lon="4.79809">
        <ele>300</ele>
        <time>2022-09-05T06:31:09.000Z</time>
      </trkpt>
      <trkpt lat="49.79874" lon="4.79809">
        <ele>300</ele>
        <time>2022-09-05T06:31:10.000Z</time>
      </trkpt>
      <trkpt lat="49.79879" lon="4.79808">
        <ele>300</ele>
        <time>2022-09-05T06:31:11.000Z</time>
      </trkpt>
      <trkpt lat="49.79883" lon="4.79806">
        <ele>300</ele>
        <time>2022-09-05T06:31:12.000Z</time>
      </trkpt>
      <trkpt lat="49.79887" lon="4.79806">
        <ele>301</ele>
        <time>2022-09-05T06:31:13.000Z</time>
      </trkpt>
      <trkpt lat="49.79892" lon="4.79806">
        <ele>301</ele>
        <time>2022-09-05T06:31:14.000Z</time>
      </trkpt>
      <trkpt lat="49.79896" lon="4.79805">
        <ele>301</ele>
        <time>2022-09-05T06:31:15.000Z</time>
      </trkpt>
      <trkpt lat="49.79901" lon="4.79805">
        <ele>301</ele>
        <time>2022-09-05T06:31:16.000Z</time>
      </trkpt>
      <trkpt lat="49.79906" lon="4.79805">
        <ele>301</ele>
        <time>2022-09-05T06:31:17.000Z</time>
      </trkpt>
      <trkpt lat="49.79912" lon="4.79804">
        <ele>301</ele>
        <time>2022-09-05T06:31:18.000Z</time>
      </trkpt>
      <trkpt lat="49.79918" lon="4.79803">
        <ele>301</ele>
        <time>2022-09-05T06:31:19.000Z</time>
      </trkpt>
      <trkpt lat="49.79924" lon="4.79803">
        <ele>301</ele>
        <time>2022-09-05T06:31:20.000Z</time>
      </trkpt>
      <trkpt lat="49.79929" lon="4.79802">
        <ele>301</ele>
        <time>2022-09-05T06:31:21.000Z</time>
      </trkpt>
      <trkpt lat="49.79935" lon="4.79802">
        <ele>301</ele>
        <time>2022-09-05T06:31:22.000Z</time>
      </trkpt>
      <trkpt lat="49.79941" lon="4.79802">
        <ele>301</ele>
        <time>2022-09-05T06:31:23.000Z</time>
      </trkpt>
      <trkpt lat="49.79946" lon="4.79802">
        <ele>301</ele>
        <time>2022-09-05T06:31:24.000Z</time>
      </trkpt>
      <trkpt lat="49.79951" lon="4.79803">
        <ele>301</ele>
        <time>2022-09-05T06:31:25.000Z</time>
      </trkpt>
      <trkpt lat="49.79958" lon="4.79803">
        <ele>301</ele>
        <time>2022-09-05T06:31:26.000Z</time>
      </trkpt>
      <trkpt lat="49.79964" lon="4.79802">
        <ele>301</ele>
        <time>2022-09-05T06:31:27.000Z</time>
      </trkpt>
      <trkpt lat="49.79971" lon="4.79801">
        <ele>301</ele>
        <time>2022-09-05T06:31:28.000Z</time>
      </trkpt>
      <trkpt lat="49.79977" lon="4.798">
        <ele>301</ele>
        <time>2022-09-05T06:31:29.000Z</time>
      </trkpt>
      <trkpt lat="49.79982" lon="4.79801">
        <ele>301</ele>
        <time>2022-09-05T06:31:30.000Z</time>
      </trkpt>
      <trkpt lat="49.79987" lon="4.79801">
        <ele>301</ele>
        <time>2022-09-05T06:31:31.000Z</time>
      </trkpt>
      <trkpt lat="49.79993" lon="4.798">
        <ele>301</ele>
        <time>2022-09-05T06:31:32.000Z</time>
      </trkpt>
      <trkpt lat="49.8" lon="4.798">
        <ele>301</ele>
        <time>2022-09-05T06:31:33.000Z</time>
      </trkpt>
      <trkpt lat="49.80005" lon="4.798">
        <ele>300</ele>
        <time>2022-09-05T06:31:34.000Z</time>
      </trkpt>
      <trkpt lat="49.8001" lon="4.79799">
        <ele>300</ele>
        <time>2022-09-05T06:31:35.000Z</time>
      </trkpt>
      <trkpt lat="49.80015" lon="4.79798">
        <ele>300</ele>
        <time>2022-09-05T06:31:36.000Z</time>
      </trkpt>
      <trkpt lat="49.80021" lon="4.79797">
        <ele>300</ele>
        <time>2022-09-05T06:31:37.000Z</time>
      </trkpt>
      <trkpt lat="49.80025" lon="4.79797">
        <ele>300</ele>
        <time>2022-09-05T06:31:38.000Z</time>
      </trkpt>
      <trkpt lat="49.8003" lon="4.79795">
        <ele>300</ele>
        <time>2022-09-05T06:31:39.000Z</time>
      </trkpt>
      <trkpt lat="49.80035" lon="4.79794">
        <ele>300</ele>
        <time>2022-09-05T06:31:40.000Z</time>
      </trkpt>
      <trkpt lat="49.80041" lon="4.79793">
        <ele>300</ele>
        <time>2022-09-05T06:31:41.000Z</time>
      </trkpt>
      <trkpt lat="49.80047" lon="4.79791">
        <ele>300</ele>
        <time>2022-09-05T06:31:42.000Z</time>
      </trkpt>
      <trkpt lat="49.80053" lon="4.7979">
        <ele>299</ele>
        <time>2022-09-05T06:31:43.000Z</time>
      </trkpt>
      <trkpt lat="49.8006" lon="4.79789">
        <ele>299</ele>
        <time>2022-09-05T06:31:44.000Z</time>
      </trkpt>
      <trkpt lat="49.80067" lon="4.79789">
        <ele>299</ele>
        <time>2022-09-05T06:31:45.000Z</time>
      </trkpt>
      <trkpt lat="49.80074" lon="4.79788">
        <ele>299</ele>
        <time>2022-09-05T06:31:46.000Z</time>
      </trkpt>
      <trkpt lat="49.80081" lon="4.79788">
        <ele>299</ele>
        <time>2022-09-05T06:31:47.000Z</time>
      </trkpt>
      <trkpt lat="49.80088" lon="4.79787">
        <ele>299</ele>
        <time>2022-09-05T06:31:48.000Z</time>
      </trkpt>
      <trkpt lat="49.80096" lon="4.79787">
        <ele>299</ele>
        <time>2022-09-05T06:31:49.000Z</time>
      </trkpt>
      <trkpt lat="49.80103" lon="4.79786">
        <ele>298</ele>
        <time>2022-09-05T06:31:50.000Z</time>
      </trkpt>
      <trkpt lat="49.8011" lon="4.79785">
        <ele>298</ele>
        <time>2022-09-05T06:31:51.000Z</time>
      </trkpt>
      <trkpt lat="49.80118" lon="4.79784">
        <ele>297</ele>
        <time>2022-09-05T06:31:52.000Z</time>
      </trkpt>
      <trkpt lat="49.80125" lon="4.79783">
        <ele>297</ele>
        <time>2022-09-05T06:31:53.000Z</time>
      </trkpt>
      <trkpt lat="49.80132" lon="4.79782">
        <ele>296</ele>
        <time>2022-09-05T06:31:54.000Z</time>
      </trkpt>
      <trkpt lat="49.80139" lon="4.79782">
        <ele>295</ele>
        <time>2022-09-05T06:31:55.000Z</time>
      </trkpt>
      <trkpt lat="49.80145" lon="4.79782">
        <ele>295</ele>
        <time>2022-09-05T06:31:56.000Z</time>
      </trkpt>
      <trkpt lat="49.80149" lon="4.79781">
        <ele>294</ele>
        <time>2022-09-05T06:31:57.000Z</time>
      </trkpt>
      <trkpt lat="49.80152" lon="4.79781">
        <ele>293</ele>
        <time>2022-09-05T06:31:58.000Z</time>
      </trkpt>
      <trkpt lat="49.80155" lon="4.79781">
        <ele>293</ele>
        <time>2022-09-05T06:31:59.000Z</time>
      </trkpt>
      <trkpt lat="49.80157" lon="4.79782">
        <ele>292</ele>
        <time>2022-09-05T06:32:00.000Z</time>
      </trkpt>
      <trkpt lat="49.8016" lon="4.79784">
        <ele>292</ele>
        <time>2022-09-05T06:32:01.000Z</time>
      </trkpt>
      <trkpt lat="49.80163" lon="4.79787">
        <ele>291</ele>
        <time>2022-09-05T06:32:02.000Z</time>
      </trkpt>
      <trkpt lat="49.80166" lon="4.7979">
        <ele>291</ele>
        <time>2022-09-05T06:32:03.000Z</time>
      </trkpt>
      <trkpt lat="49.80168" lon="4.79794">
        <ele>291</ele>
        <time>2022-09-05T06:32:04.000Z</time>
      </trkpt>
      <trkpt lat="49.80171" lon="4.79797">
        <ele>290</ele>
        <time>2022-09-05T06:32:05.000Z</time>
      </trkpt>
      <trkpt lat="49.80174" lon="4.79802">
        <ele>290</ele>
        <time>2022-09-05T06:32:06.000Z</time>
      </trkpt>
      <trkpt lat="49.80177" lon="4.79805">
        <ele>290</ele>
        <time>2022-09-05T06:32:07.000Z</time>
      </trkpt>
      <trkpt lat="49.8018" lon="4.7981">
        <ele>290</ele>
        <time>2022-09-05T06:32:08.000Z</time>
      </trkpt>
      <trkpt lat="49.80183" lon="4.79815">
        <ele>290</ele>
        <time>2022-09-05T06:32:09.000Z</time>
      </trkpt>
      <trkpt lat="49.80185" lon="4.79819">
        <ele>290</ele>
        <time>2022-09-05T06:32:10.000Z</time>
      </trkpt>
      <trkpt lat="49.80187" lon="4.79821">
        <ele>289</ele>
        <time>2022-09-05T06:32:11.000Z</time>
      </trkpt>
      <trkpt lat="49.8019" lon="4.79821">
        <ele>289</ele>
        <time>2022-09-05T06:32:12.000Z</time>
      </trkpt>
      <trkpt lat="49.80194" lon="4.79822">
        <ele>289</ele>
        <time>2022-09-05T06:32:13.000Z</time>
      </trkpt>
      <trkpt lat="49.80198" lon="4.79823">
        <ele>289</ele>
        <time>2022-09-05T06:32:14.000Z</time>
      </trkpt>
      <trkpt lat="49.80202" lon="4.79824">
        <ele>288</ele>
        <time>2022-09-05T06:32:15.000Z</time>
      </trkpt>
      <trkpt lat="49.80207" lon="4.79824">
        <ele>288</ele>
        <time>2022-09-05T06:32:16.000Z</time>
      </trkpt>
      <trkpt lat="49.80211" lon="4.79824">
        <ele>288</ele>
        <time>2022-09-05T06:32:17.000Z</time>
      </trkpt>
      <trkpt lat="49.80215" lon="4.79824">
        <ele>288</ele>
        <time>2022-09-05T06:32:18.000Z</time>
      </trkpt>
      <trkpt lat="49.80218" lon="4.79824">
        <ele>288</ele>
        <time>2022-09-05T06:32:19.000Z</time>
      </trkpt>
      <trkpt lat="49.80221" lon="4.79824">
        <ele>288</ele>
        <time>2022-09-05T06:32:20.000Z</time>
      </trkpt>
      <trkpt lat="49.80223" lon="4.79824">
        <ele>288</ele>
        <time>2022-09-05T06:32:21.000Z</time>
      </trkpt>
      <trkpt lat="49.80226" lon="4.79825">
        <ele>287</ele>
        <time>2022-09-05T06:32:22.000Z</time>
      </trkpt>
      <trkpt lat="49.80229" lon="4.79826">
        <ele>287</ele>
        <time>2022-09-05T06:32:23.000Z</time>
      </trkpt>
      <trkpt lat="49.80232" lon="4.79826">
        <ele>287</ele>
        <time>2022-09-05T06:32:24.000Z</time>
      </trkpt>
      <trkpt lat="49.80235" lon="4.79826">
        <ele>287</ele>
        <time>2022-09-05T06:32:25.000Z</time>
      </trkpt>
      <trkpt lat="49.80239" lon="4.79827">
        <ele>287</ele>
        <time>2022-09-05T06:32:26.000Z</time>
      </trkpt>
      <trkpt lat="49.80243" lon="4.79827">
        <ele>287</ele>
        <time>2022-09-05T06:32:27.000Z</time>
      </trkpt>
      <trkpt lat="49.80246" lon="4.79827">
        <ele>287</ele>
        <time>2022-09-05T06:32:28.000Z</time>
      </trkpt>
      <trkpt lat="49.8025" lon="4.79828">
        <ele>287</ele>
        <time>2022-09-05T06:32:29.000Z</time>
      </trkpt>
      <trkpt lat="49.80253" lon="4.79828">
        <ele>288</ele>
        <time>2022-09-05T06:32:30.000Z</time>
      </trkpt>
      <trkpt lat="49.80256" lon="4.79829">
        <ele>288</ele>
        <time>2022-09-05T06:32:31.000Z</time>
      </trkpt>
      <trkpt lat="49.80259" lon="4.7983">
        <ele>288</ele>
        <time>2022-09-05T06:32:32.000Z</time>
      </trkpt>
      <trkpt lat="49.80262" lon="4.79831">
        <ele>288</ele>
        <time>2022-09-05T06:32:33.000Z</time>
      </trkpt>
      <trkpt lat="49.80265" lon="4.79832">
        <ele>288</ele>
        <time>2022-09-05T06:32:34.000Z</time>
      </trkpt>
      <trkpt lat="49.80267" lon="4.79833">
        <ele>288</ele>
        <time>2022-09-05T06:32:35.000Z</time>
      </trkpt>
      <trkpt lat="49.8027" lon="4.79833">
        <ele>288</ele>
        <time>2022-09-05T06:32:36.000Z</time>
      </trkpt>
      <trkpt lat="49.80272" lon="4.79833">
        <ele>288</ele>
        <time>2022-09-05T06:32:37.000Z</time>
      </trkpt>
      <trkpt lat="49.80275" lon="4.79834">
        <ele>288</ele>
        <time>2022-09-05T06:32:38.000Z</time>
      </trkpt>
      <trkpt lat="49.80277" lon="4.79835">
        <ele>288</ele>
        <time>2022-09-05T06:32:39.000Z</time>
      </trkpt>
      <trkpt lat="49.8028" lon="4.79837">
        <ele>288</ele>
        <time>2022-09-05T06:32:40.000Z</time>
      </trkpt>
      <trkpt lat="49.80282" lon="4.79839">
        <ele>288</ele>
        <time>2022-09-05T06:32:41.000Z</time>
      </trkpt>
      <trkpt lat="49.80284" lon="4.79841">
        <ele>288</ele>
        <time>2022-09-05T06:32:42.000Z</time>
      </trkpt>
      <trkpt lat="49.80286" lon="4.79844">
        <ele>288</ele>
        <time>2022-09-05T06:32:43.000Z</time>
      </trkpt>
      <trkpt lat="49.80287" lon="4.79847">
        <ele>288</ele>
        <time>2022-09-05T06:32:44.000Z</time>
      </trkpt>
      <trkpt lat="49.80288" lon="4.79851">
        <ele>288</ele>
        <time>2022-09-05T06:32:45.000Z</time>
      </trkpt>
      <trkpt lat="49.80289" lon="4.79852">
        <ele>288</ele>
        <time>2022-09-05T06:32:46.000Z</time>
      </trkpt>
      <trkpt lat="49.80291" lon="4.79855">
        <ele>288</ele>
        <time>2022-09-05T06:32:47.000Z</time>
      </trkpt>
      <trkpt lat="49.80294" lon="4.79857">
        <ele>288</ele>
        <time>2022-09-05T06:32:48.000Z</time>
      </trkpt>
      <trkpt lat="49.80297" lon="4.79861">
        <ele>288</ele>
        <time>2022-09-05T06:32:49.000Z</time>
      </trkpt>
      <trkpt lat="49.803" lon="4.79864">
        <ele>288</ele>
        <time>2022-09-05T06:32:50.000Z</time>
      </trkpt>
      <trkpt lat="49.80302" lon="4.79867">
        <ele>288</ele>
        <time>2022-09-05T06:32:51.000Z</time>
      </trkpt>
      <trkpt lat="49.80305" lon="4.7987">
        <ele>288</ele>
        <time>2022-09-05T06:32:52.000Z</time>
      </trkpt>
      <trkpt lat="49.80307" lon="4.79875">
        <ele>289</ele>
        <time>2022-09-05T06:32:53.000Z</time>
      </trkpt>
      <trkpt lat="49.80308" lon="4.7988">
        <ele>289</ele>
        <time>2022-09-05T06:32:54.000Z</time>
      </trkpt>
      <trkpt lat="49.80308" lon="4.79885">
        <ele>289</ele>
        <time>2022-09-05T06:32:55.000Z</time>
      </trkpt>
      <trkpt lat="49.80307" lon="4.7989">
        <ele>289</ele>
        <time>2022-09-05T06:32:56.000Z</time>
      </trkpt>
      <trkpt lat="49.80307" lon="4.79895">
        <ele>289</ele>
        <time>2022-09-05T06:32:57.000Z</time>
      </trkpt>
      <trkpt lat="49.80306" lon="4.799">
        <ele>289</ele>
        <time>2022-09-05T06:32:58.000Z</time>
      </trkpt>
      <trkpt lat="49.80305" lon="4.79906">
        <ele>289</ele>
        <time>2022-09-05T06:32:59.000Z</time>
      </trkpt>
      <trkpt lat="49.80305" lon="4.79912">
        <ele>289</ele>
        <time>2022-09-05T06:33:00.000Z</time>
      </trkpt>
      <trkpt lat="49.80305" lon="4.79917">
        <ele>290</ele>
        <time>2022-09-05T06:33:01.000Z</time>
      </trkpt>
      <trkpt lat="49.80304" lon="4.79923">
        <ele>290</ele>
        <time>2022-09-05T06:33:02.000Z</time>
      </trkpt>
      <trkpt lat="49.80304" lon="4.79928">
        <ele>290</ele>
        <time>2022-09-05T06:33:03.000Z</time>
      </trkpt>
      <trkpt lat="49.80303" lon="4.79934">
        <ele>290</ele>
        <time>2022-09-05T06:33:04.000Z</time>
      </trkpt>
      <trkpt lat="49.80303" lon="4.79939">
        <ele>290</ele>
        <time>2022-09-05T06:33:05.000Z</time>
      </trkpt>
      <trkpt lat="49.80302" lon="4.79945">
        <ele>291</ele>
        <time>2022-09-05T06:33:06.000Z</time>
      </trkpt>
      <trkpt lat="49.80302" lon="4.79951">
        <ele>291</ele>
        <time>2022-09-05T06:33:07.000Z</time>
      </trkpt>
      <trkpt lat="49.80301" lon="4.79956">
        <ele>291</ele>
        <time>2022-09-05T06:33:08.000Z</time>
      </trkpt>
      <trkpt lat="49.803" lon="4.79962">
        <ele>291</ele>
        <time>2022-09-05T06:33:09.000Z</time>
      </trkpt>
      <trkpt lat="49.80299" lon="4.79968">
        <ele>291</ele>
        <time>2022-09-05T06:33:10.000Z</time>
      </trkpt>
      <trkpt lat="49.80298" lon="4.79975">
        <ele>291</ele>
        <time>2022-09-05T06:33:11.000Z</time>
      </trkpt>
      <trkpt lat="49.80297" lon="4.79981">
        <ele>292</ele>
        <time>2022-09-05T06:33:12.000Z</time>
      </trkpt>
      <trkpt lat="49.80297" lon="4.79988">
        <ele>292</ele>
        <time>2022-09-05T06:33:13.000Z</time>
      </trkpt>
      <trkpt lat="49.80296" lon="4.79995">
        <ele>292</ele>
        <time>2022-09-05T06:33:14.000Z</time>
      </trkpt>
      <trkpt lat="49.80295" lon="4.80002">
        <ele>293</ele>
        <time>2022-09-05T06:33:15.000Z</time>
      </trkpt>
      <trkpt lat="49.80294" lon="4.80009">
        <ele>293</ele>
        <time>2022-09-05T06:33:16.000Z</time>
      </trkpt>
      <trkpt lat="49.80293" lon="4.80015">
        <ele>293</ele>
        <time>2022-09-05T06:33:17.000Z</time>
      </trkpt>
      <trkpt lat="49.80292" lon="4.80021">
        <ele>293</ele>
        <time>2022-09-05T06:33:18.000Z</time>
      </trkpt>
      <trkpt lat="49.80292" lon="4.80028">
        <ele>293</ele>
        <time>2022-09-05T06:33:19.000Z</time>
      </trkpt>
      <trkpt lat="49.80292" lon="4.80034">
        <ele>294</ele>
        <time>2022-09-05T06:33:20.000Z</time>
      </trkpt>
      <trkpt lat="49.80293" lon="4.8004">
        <ele>294</ele>
        <time>2022-09-05T06:33:21.000Z</time>
      </trkpt>
      <trkpt lat="49.80295" lon="4.80047">
        <ele>294</ele>
        <time>2022-09-05T06:33:22.000Z</time>
      </trkpt>
      <trkpt lat="49.80297" lon="4.80055">
        <ele>294</ele>
        <time>2022-09-05T06:33:23.000Z</time>
      </trkpt>
      <trkpt lat="49.80299" lon="4.80063">
        <ele>294</ele>
        <time>2022-09-05T06:33:24.000Z</time>
      </trkpt>
      <trkpt lat="49.80301" lon="4.80071">
        <ele>294</ele>
        <time>2022-09-05T06:33:25.000Z</time>
      </trkpt>
      <trkpt lat="49.80303" lon="4.80078">
        <ele>294</ele>
        <time>2022-09-05T06:33:26.000Z</time>
      </trkpt>
      <trkpt lat="49.80304" lon="4.80086">
        <ele>294</ele>
        <time>2022-09-05T06:33:27.000Z</time>
      </trkpt>
      <trkpt lat="49.80306" lon="4.80093">
        <ele>293</ele>
        <time>2022-09-05T06:33:28.000Z</time>
      </trkpt>
      <trkpt lat="49.80308" lon="4.80101">
        <ele>293</ele>
        <time>2022-09-05T06:33:29.000Z</time>
      </trkpt>
      <trkpt lat="49.80311" lon="4.80109">
        <ele>293</ele>
        <time>2022-09-05T06:33:30.000Z</time>
      </trkpt>
      <trkpt lat="49.80313" lon="4.80116">
        <ele>293</ele>
        <time>2022-09-05T06:33:31.000Z</time>
      </trkpt>
      <trkpt lat="49.80314" lon="4.80124">
        <ele>293</ele>
        <time>2022-09-05T06:33:32.000Z</time>
      </trkpt>
      <trkpt lat="49.80316" lon="4.80131">
        <ele>293</ele>
        <time>2022-09-05T06:33:33.000Z</time>
      </trkpt>
      <trkpt lat="49.80319" lon="4.80138">
        <ele>292</ele>
        <time>2022-09-05T06:33:34.000Z</time>
      </trkpt>
      <trkpt lat="49.80321" lon="4.80146">
        <ele>292</ele>
        <time>2022-09-05T06:33:35.000Z</time>
      </trkpt>
      <trkpt lat="49.80324" lon="4.80154">
        <ele>292</ele>
        <time>2022-09-05T06:33:36.000Z</time>
      </trkpt>
      <trkpt lat="49.80325" lon="4.80162">
        <ele>291</ele>
        <time>2022-09-05T06:33:37.000Z</time>
      </trkpt>
      <trkpt lat="49.80325" lon="4.80171">
        <ele>291</ele>
        <time>2022-09-05T06:33:38.000Z</time>
      </trkpt>
      <trkpt lat="49.80326" lon="4.80179">
        <ele>291</ele>
        <time>2022-09-05T06:33:39.000Z</time>
      </trkpt>
      <trkpt lat="49.80327" lon="4.80188">
        <ele>291</ele>
        <time>2022-09-05T06:33:40.000Z</time>
      </trkpt>
      <trkpt lat="49.80327" lon="4.80197">
        <ele>291</ele>
        <time>2022-09-05T06:33:41.000Z</time>
      </trkpt>
      <trkpt lat="49.80327" lon="4.80206">
        <ele>290</ele>
        <time>2022-09-05T06:33:42.000Z</time>
      </trkpt>
      <trkpt lat="49.80328" lon="4.80214">
        <ele>290</ele>
        <time>2022-09-05T06:33:43.000Z</time>
      </trkpt>
      <trkpt lat="49.80329" lon="4.80222">
        <ele>290</ele>
        <time>2022-09-05T06:33:44.000Z</time>
      </trkpt>
      <trkpt lat="49.80329" lon="4.80229">
        <ele>289</ele>
        <time>2022-09-05T06:33:45.000Z</time>
      </trkpt>
      <trkpt lat="49.80329" lon="4.80237">
        <ele>289</ele>
        <time>2022-09-05T06:33:46.000Z</time>
      </trkpt>
      <trkpt lat="49.8033" lon="4.80246">
        <ele>289</ele>
        <time>2022-09-05T06:33:47.000Z</time>
      </trkpt>
      <trkpt lat="49.8033" lon="4.80253">
        <ele>289</ele>
        <time>2022-09-05T06:33:48.000Z</time>
      </trkpt>
      <trkpt lat="49.8033" lon="4.8026">
        <ele>288</ele>
        <time>2022-09-05T06:33:49.000Z</time>
      </trkpt>
      <trkpt lat="49.80328" lon="4.80267">
        <ele>288</ele>
        <time>2022-09-05T06:33:50.000Z</time>
      </trkpt>
      <trkpt lat="49.80327" lon="4.80274">
        <ele>288</ele>
        <time>2022-09-05T06:33:51.000Z</time>
      </trkpt>
      <trkpt lat="49.80325" lon="4.8028">
        <ele>287</ele>
        <time>2022-09-05T06:33:52.000Z</time>
      </trkpt>
      <trkpt lat="49.80323" lon="4.80284">
        <ele>287</ele>
        <time>2022-09-05T06:33:53.000Z</time>
      </trkpt>
      <trkpt lat="49.8032" lon="4.80289">
        <ele>287</ele>
        <time>2022-09-05T06:33:54.000Z</time>
      </trkpt>
      <trkpt lat="49.80317" lon="4.80295">
        <ele>286</ele>
        <time>2022-09-05T06:33:55.000Z</time>
      </trkpt>
      <trkpt lat="49.80315" lon="4.80303">
        <ele>286</ele>
        <time>2022-09-05T06:33:56.000Z</time>
      </trkpt>
      <trkpt lat="49.80312" lon="4.80312">
        <ele>286</ele>
        <time>2022-09-05T06:33:57.000Z</time>
      </trkpt>
      <trkpt lat="49.80309" lon="4.80321">
        <ele>285</ele>
        <time>2022-09-05T06:33:58.000Z</time>
      </trkpt>
      <trkpt lat="49.80307" lon="4.80329">
        <ele>285</ele>
        <time>2022-09-05T06:33:59.000Z</time>
      </trkpt>
      <trkpt lat="49.80304" lon="4.80337">
        <ele>284</ele>
        <time>2022-09-05T06:34:00.000Z</time>
      </trkpt>
      <trkpt lat="49.80301" lon="4.80344">
        <ele>284</ele>
        <time>2022-09-05T06:34:01.000Z</time>
      </trkpt>
      <trkpt lat="49.80299" lon="4.8035">
        <ele>284</ele>
        <time>2022-09-05T06:34:02.000Z</time>
      </trkpt>
      <trkpt lat="49.80296" lon="4.80352">
        <ele>283</ele>
        <time>2022-09-05T06:34:03.000Z</time>
      </trkpt>
      <trkpt lat="49.80294" lon="4.80353">
        <ele>283</ele>
        <time>2022-09-05T06:34:04.000Z</time>
      </trkpt>
      <trkpt lat="49.80291" lon="4.80352">
        <ele>282</ele>
        <time>2022-09-05T06:34:05.000Z</time>
      </trkpt>
      <trkpt lat="49.80289" lon="4.80353">
        <ele>282</ele>
        <time>2022-09-05T06:34:06.000Z</time>
      </trkpt>
      <trkpt lat="49.80288" lon="4.80354">
        <ele>282</ele>
        <time>2022-09-05T06:34:07.000Z</time>
      </trkpt>
      <trkpt lat="49.80288" lon="4.80356">
        <ele>281</ele>
        <time>2022-09-05T06:34:08.000Z</time>
      </trkpt>
      <trkpt lat="49.80289" lon="4.80358">
        <ele>281</ele>
        <time>2022-09-05T06:34:09.000Z</time>
      </trkpt>
      <trkpt lat="49.80289" lon="4.8036">
        <ele>280</ele>
        <time>2022-09-05T06:34:10.000Z</time>
      </trkpt>
      <trkpt lat="49.8029" lon="4.80361">
        <ele>280</ele>
        <time>2022-09-05T06:34:11.000Z</time>
      </trkpt>
      <trkpt lat="49.8029" lon="4.80361">
        <ele>280</ele>
        <time>2022-09-05T06:34:12.000Z</time>
      </trkpt>
      <trkpt lat="49.8029" lon="4.80362">
        <ele>280</ele>
        <time>2022-09-05T06:34:13.000Z</time>
      </trkpt>
      <trkpt lat="49.80291" lon="4.80363">
        <ele>279</ele>
        <time>2022-09-05T06:34:14.000Z</time>
      </trkpt>
      <trkpt lat="49.8029" lon="4.80364">
        <ele>279</ele>
        <time>2022-09-05T06:34:15.000Z</time>
      </trkpt>
      <trkpt lat="49.8029" lon="4.80365">
        <ele>279</ele>
        <time>2022-09-05T06:34:16.000Z</time>
      </trkpt>
      <trkpt lat="49.8029" lon="4.80366">
        <ele>279</ele>
        <time>2022-09-05T06:34:17.000Z</time>
      </trkpt>
      <trkpt lat="49.8029" lon="4.80367">
        <ele>278</ele>
        <time>2022-09-05T06:34:18.000Z</time>
      </trkpt>
      <trkpt lat="49.8029" lon="4.80369">
        <ele>278</ele>
        <time>2022-09-05T06:34:19.000Z</time>
      </trkpt>
      <trkpt lat="49.8029" lon="4.80373">
        <ele>278</ele>
        <time>2022-09-05T06:34:20.000Z</time>
      </trkpt>
      <trkpt lat="49.80289" lon="4.80378">
        <ele>278</ele>
        <time>2022-09-05T06:34:21.000Z</time>
      </trkpt>
      <trkpt lat="49.80287" lon="4.80383">
        <ele>278</ele>
        <time>2022-09-05T06:34:22.000Z</time>
      </trkpt>
      <trkpt lat="49.80285" lon="4.80387">
        <ele>277</ele>
        <time>2022-09-05T06:34:23.000Z</time>
      </trkpt>
      <trkpt lat="49.80282" lon="4.80391">
        <ele>277</ele>
        <time>2022-09-05T06:34:24.000Z</time>
      </trkpt>
      <trkpt lat="49.80279" lon="4.80393">
        <ele>277</ele>
        <time>2022-09-05T06:34:25.000Z</time>
      </trkpt>
      <trkpt lat="49.80277" lon="4.80397">
        <ele>277</ele>
        <time>2022-09-05T06:34:26.000Z</time>
      </trkpt>
      <trkpt lat="49.80274" lon="4.804">
        <ele>276</ele>
        <time>2022-09-05T06:34:27.000Z</time>
      </trkpt>
      <trkpt lat="49.80271" lon="4.80402">
        <ele>276</ele>
        <time>2022-09-05T06:34:28.000Z</time>
      </trkpt>
      <trkpt lat="49.80269" lon="4.80403">
        <ele>275</ele>
        <time>2022-09-05T06:34:29.000Z</time>
      </trkpt>
      <trkpt lat="49.80268" lon="4.80405">
        <ele>275</ele>
        <time>2022-09-05T06:34:30.000Z</time>
      </trkpt>
      <trkpt lat="49.80267" lon="4.80407">
        <ele>275</ele>
        <time>2022-09-05T06:34:31.000Z</time>
      </trkpt>
      <trkpt lat="49.80266" lon="4.80409">
        <ele>275</ele>
        <time>2022-09-05T06:34:32.000Z</time>
      </trkpt>
      <trkpt lat="49.80265" lon="4.80413">
        <ele>275</ele>
        <time>2022-09-05T06:34:33.000Z</time>
      </trkpt>
      <trkpt lat="49.80264" lon="4.80416">
        <ele>274</ele>
        <time>2022-09-05T06:34:34.000Z</time>
      </trkpt>
      <trkpt lat="49.80263" lon="4.80419">
        <ele>274</ele>
        <time>2022-09-05T06:34:35.000Z</time>
      </trkpt>
      <trkpt lat="49.80262" lon="4.80422">
        <ele>274</ele>
        <time>2022-09-05T06:34:36.000Z</time>
      </trkpt>
      <trkpt lat="49.80261" lon="4.80424">
        <ele>274</ele>
        <time>2022-09-05T06:34:37.000Z</time>
      </trkpt>
      <trkpt lat="49.8026" lon="4.80427">
        <ele>274</ele>
        <time>2022-09-05T06:34:38.000Z</time>
      </trkpt>
      <trkpt lat="49.8026" lon="4.8043">
        <ele>274</ele>
        <time>2022-09-05T06:34:39.000Z</time>
      </trkpt>
      <trkpt lat="49.80259" lon="4.80434">
        <ele>274</ele>
        <time>2022-09-05T06:34:40.000Z</time>
      </trkpt>
      <trkpt lat="49.80259" lon="4.80437">
        <ele>274</ele>
        <time>2022-09-05T06:34:41.000Z</time>
      </trkpt>
      <trkpt lat="49.80257" lon="4.8044">
        <ele>274</ele>
        <time>2022-09-05T06:34:42.000Z</time>
      </trkpt>
      <trkpt lat="49.80257" lon="4.80442">
        <ele>274</ele>
        <time>2022-09-05T06:34:43.000Z</time>
      </trkpt>
      <trkpt lat="49.80256" lon="4.80444">
        <ele>274</ele>
        <time>2022-09-05T06:34:44.000Z</time>
      </trkpt>
      <trkpt lat="49.80255" lon="4.80446">
        <ele>274</ele>
        <time>2022-09-05T06:34:45.000Z</time>
      </trkpt>
      <trkpt lat="49.80255" lon="4.80448">
        <ele>274</ele>
        <time>2022-09-05T06:34:46.000Z</time>
      </trkpt>
      <trkpt lat="49.80255" lon="4.8045">
        <ele>274</ele>
        <time>2022-09-05T06:34:47.000Z</time>
      </trkpt>
      <trkpt lat="49.80254" lon="4.80452">
        <ele>274</ele>
        <time>2022-09-05T06:34:48.000Z</time>
      </trkpt>
      <trkpt lat="49.80253" lon="4.80454">
        <ele>274</ele>
        <time>2022-09-05T06:34:49.000Z</time>
      </trkpt>
      <trkpt lat="49.80252" lon="4.80456">
        <ele>274</ele>
        <time>2022-09-05T06:34:50.000Z</time>
      </trkpt>
      <trkpt lat="49.80252" lon="4.80458">
        <ele>274</ele>
        <time>2022-09-05T06:34:51.000Z</time>
      </trkpt>
      <trkpt lat="49.80252" lon="4.8046">
        <ele>274</ele>
        <time>2022-09-05T06:34:52.000Z</time>
      </trkpt>
      <trkpt lat="49.80252" lon="4.80463">
        <ele>274</ele>
        <time>2022-09-05T06:34:53.000Z</time>
      </trkpt>
      <trkpt lat="49.80251" lon="4.80466">
        <ele>274</ele>
        <time>2022-09-05T06:34:54.000Z</time>
      </trkpt>
      <trkpt lat="49.80251" lon="4.80469">
        <ele>274</ele>
        <time>2022-09-05T06:34:55.000Z</time>
      </trkpt>
      <trkpt lat="49.80251" lon="4.80472">
        <ele>274</ele>
        <time>2022-09-05T06:34:56.000Z</time>
      </trkpt>
      <trkpt lat="49.80251" lon="4.80475">
        <ele>274</ele>
        <time>2022-09-05T06:34:57.000Z</time>
      </trkpt>
      <trkpt lat="49.80251" lon="4.80477">
        <ele>274</ele>
        <time>2022-09-05T06:34:58.000Z</time>
      </trkpt>
      <trkpt lat="49.80251" lon="4.80479">
        <ele>274</ele>
        <time>2022-09-05T06:34:59.000Z</time>
      </trkpt>
      <trkpt lat="49.80251" lon="4.80482">
        <ele>274</ele>
        <time>2022-09-05T06:35:00.000Z</time>
      </trkpt>
      <trkpt lat="49.8025" lon="4.80484">
        <ele>274</ele>
        <time>2022-09-05T06:35:01.000Z</time>
      </trkpt>
      <trkpt lat="49.8025" lon="4.80487">
        <ele>274</ele>
        <time>2022-09-05T06:35:02.000Z</time>
      </trkpt>
      <trkpt lat="49.8025" lon="4.80491">
        <ele>274</ele>
        <time>2022-09-05T06:35:03.000Z</time>
      </trkpt>
      <trkpt lat="49.8025" lon="4.80493">
        <ele>273</ele>
        <time>2022-09-05T06:35:04.000Z</time>
      </trkpt>
      <trkpt lat="49.8025" lon="4.80496">
        <ele>273</ele>
        <time>2022-09-05T06:35:05.000Z</time>
      </trkpt>
      <trkpt lat="49.8025" lon="4.80499">
        <ele>273</ele>
        <time>2022-09-05T06:35:06.000Z</time>
      </trkpt>
      <trkpt lat="49.8025" lon="4.80503">
        <ele>273</ele>
        <time>2022-09-05T06:35:07.000Z</time>
      </trkpt>
      <trkpt lat="49.8025" lon="4.80507">
        <ele>273</ele>
        <time>2022-09-05T06:35:08.000Z</time>
      </trkpt>
      <trkpt lat="49.80251" lon="4.8051">
        <ele>273</ele>
        <time>2022-09-05T06:35:09.000Z</time>
      </trkpt>
      <trkpt lat="49.80252" lon="4.80513">
        <ele>273</ele>
        <time>2022-09-05T06:35:10.000Z</time>
      </trkpt>
      <trkpt lat="49.80253" lon="4.80517">
        <ele>273</ele>
        <time>2022-09-05T06:35:11.000Z</time>
      </trkpt>
      <trkpt lat="49.80253" lon="4.8052">
        <ele>273</ele>
        <time>2022-09-05T06:35:12.000Z</time>
      </trkpt>
      <trkpt lat="49.80253" lon="4.80523">
        <ele>273</ele>
        <time>2022-09-05T06:35:13.000Z</time>
      </trkpt>
      <trkpt lat="49.80253" lon="4.80526">
        <ele>273</ele>
        <time>2022-09-05T06:35:14.000Z</time>
      </trkpt>
      <trkpt lat="49.80253" lon="4.80529">
        <ele>273</ele>
        <time>2022-09-05T06:35:15.000Z</time>
      </trkpt>
      <trkpt lat="49.80253" lon="4.80532">
        <ele>273</ele>
        <time>2022-09-05T06:35:16.000Z</time>
      </trkpt>
      <trkpt lat="49.80253" lon="4.80535">
        <ele>273</ele>
        <time>2022-09-05T06:35:17.000Z</time>
      </trkpt>
      <trkpt lat="49.80253" lon="4.80538">
        <ele>273</ele>
        <time>2022-09-05T06:35:18.000Z</time>
      </trkpt>
      <trkpt lat="49.80252" lon="4.80542">
        <ele>273</ele>
        <time>2022-09-05T06:35:19.000Z</time>
      </trkpt>
      <trkpt lat="49.80252" lon="4.80545">
        <ele>273</ele>
        <time>2022-09-05T06:35:20.000Z</time>
      </trkpt>
      <trkpt lat="49.80251" lon="4.80548">
        <ele>273</ele>
        <time>2022-09-05T06:35:21.000Z</time>
      </trkpt>
      <trkpt lat="49.80252" lon="4.8055">
        <ele>273</ele>
        <time>2022-09-05T06:35:22.000Z</time>
      </trkpt>
      <trkpt lat="49.80252" lon="4.80552">
        <ele>273</ele>
        <time>2022-09-05T06:35:23.000Z</time>
      </trkpt>
      <trkpt lat="49.80252" lon="4.80555">
        <ele>273</ele>
        <time>2022-09-05T06:35:24.000Z</time>
      </trkpt>
      <trkpt lat="49.80252" lon="4.80558">
        <ele>273</ele>
        <time>2022-09-05T06:35:25.000Z</time>
      </trkpt>
      <trkpt lat="49.80252" lon="4.80562">
        <ele>273</ele>
        <time>2022-09-05T06:35:26.000Z</time>
      </trkpt>
      <trkpt lat="49.80251" lon="4.80564">
        <ele>274</ele>
        <time>2022-09-05T06:35:27.000Z</time>
      </trkpt>
      <trkpt lat="49.80251" lon="4.80567">
        <ele>274</ele>
        <time>2022-09-05T06:35:28.000Z</time>
      </trkpt>
      <trkpt lat="49.80251" lon="4.80571">
        <ele>274</ele>
        <time>2022-09-05T06:35:29.000Z</time>
      </trkpt>
      <trkpt lat="49.8025" lon="4.80575">
        <ele>274</ele>
        <time>2022-09-05T06:35:30.000Z</time>
      </trkpt>
      <trkpt lat="49.8025" lon="4.8058">
        <ele>274</ele>
        <time>2022-09-05T06:35:31.000Z</time>
      </trkpt>
      <trkpt lat="49.80249" lon="4.80584">
        <ele>274</ele>
        <time>2022-09-05T06:35:32.000Z</time>
      </trkpt>
      <trkpt lat="49.80249" lon="4.80588">
        <ele>274</ele>
        <time>2022-09-05T06:35:33.000Z</time>
      </trkpt>
      <trkpt lat="49.80249" lon="4.80593">
        <ele>274</ele>
        <time>2022-09-05T06:35:34.000Z</time>
      </trkpt>
      <trkpt lat="49.80248" lon="4.80597">
        <ele>274</ele>
        <time>2022-09-05T06:35:35.000Z</time>
      </trkpt>
      <trkpt lat="49.80248" lon="4.80602">
        <ele>274</ele>
        <time>2022-09-05T06:35:36.000Z</time>
      </trkpt>
      <trkpt lat="49.80247" lon="4.80607">
        <ele>274</ele>
        <time>2022-09-05T06:35:37.000Z</time>
      </trkpt>
      <trkpt lat="49.80247" lon="4.80611">
        <ele>274</ele>
        <time>2022-09-05T06:35:38.000Z</time>
      </trkpt>
      <trkpt lat="49.80246" lon="4.80615">
        <ele>274</ele>
        <time>2022-09-05T06:35:39.000Z</time>
      </trkpt>
      <trkpt lat="49.80246" lon="4.8062">
        <ele>274</ele>
        <time>2022-09-05T06:35:40.000Z</time>
      </trkpt>
      <trkpt lat="49.80245" lon="4.80623">
        <ele>274</ele>
        <time>2022-09-05T06:35:41.000Z</time>
      </trkpt>
      <trkpt lat="49.80244" lon="4.80627">
        <ele>274</ele>
        <time>2022-09-05T06:35:42.000Z</time>
      </trkpt>
      <trkpt lat="49.80244" lon="4.80631">
        <ele>274</ele>
        <time>2022-09-05T06:35:43.000Z</time>
      </trkpt>
      <trkpt lat="49.80243" lon="4.80636">
        <ele>274</ele>
        <time>2022-09-05T06:35:44.000Z</time>
      </trkpt>
      <trkpt lat="49.80243" lon="4.8064">
        <ele>274</ele>
        <time>2022-09-05T06:35:45.000Z</time>
      </trkpt>
      <trkpt lat="49.80242" lon="4.80644">
        <ele>274</ele>
        <time>2022-09-05T06:35:46.000Z</time>
      </trkpt>
      <trkpt lat="49.80242" lon="4.80649">
        <ele>274</ele>
        <time>2022-09-05T06:35:47.000Z</time>
      </trkpt>
      <trkpt lat="49.80242" lon="4.80654">
        <ele>275</ele>
        <time>2022-09-05T06:35:48.000Z</time>
      </trkpt>
      <trkpt lat="49.80241" lon="4.8066">
        <ele>275</ele>
        <time>2022-09-05T06:35:49.000Z</time>
      </trkpt>
      <trkpt lat="49.80241" lon="4.80665">
        <ele>275</ele>
        <time>2022-09-05T06:35:50.000Z</time>
      </trkpt>
      <trkpt lat="49.80239" lon="4.8067">
        <ele>275</ele>
        <time>2022-09-05T06:35:51.000Z</time>
      </trkpt>
      <trkpt lat="49.80239" lon="4.80675">
        <ele>275</ele>
        <time>2022-09-05T06:35:52.000Z</time>
      </trkpt>
      <trkpt lat="49.80238" lon="4.80679">
        <ele>275</ele>
        <time>2022-09-05T06:35:53.000Z</time>
      </trkpt>
      <trkpt lat="49.80237" lon="4.80685">
        <ele>275</ele>
        <time>2022-09-05T06:35:54.000Z</time>
      </trkpt>
      <trkpt lat="49.80237" lon="4.8069">
        <ele>275</ele>
        <time>2022-09-05T06:35:55.000Z</time>
      </trkpt>
      <trkpt lat="49.80236" lon="4.80696">
        <ele>275</ele>
        <time>2022-09-05T06:35:56.000Z</time>
      </trkpt>
      <trkpt lat="49.80235" lon="4.80702">
        <ele>275</ele>
        <time>2022-09-05T06:35:57.000Z</time>
      </trkpt>
      <trkpt lat="49.80234" lon="4.80708">
        <ele>275</ele>
        <time>2022-09-05T06:35:58.000Z</time>
      </trkpt>
      <trkpt lat="49.80234" lon="4.80714">
        <ele>275</ele>
        <time>2022-09-05T06:35:59.000Z</time>
      </trkpt>
      <trkpt lat="49.80234" lon="4.8072">
        <ele>275</ele>
        <time>2022-09-05T06:36:00.000Z</time>
      </trkpt>
      <trkpt lat="49.80234" lon="4.80726">
        <ele>275</ele>
        <time>2022-09-05T06:36:01.000Z</time>
      </trkpt>
      <trkpt lat="49.80234" lon="4.80732">
        <ele>276</ele>
        <time>2022-09-05T06:36:02.000Z</time>
      </trkpt>
      <trkpt lat="49.80234" lon="4.80738">
        <ele>276</ele>
        <time>2022-09-05T06:36:03.000Z</time>
      </trkpt>
      <trkpt lat="49.80234" lon="4.80744">
        <ele>276</ele>
        <time>2022-09-05T06:36:04.000Z</time>
      </trkpt>
      <trkpt lat="49.80235" lon="4.80751">
        <ele>276</ele>
        <time>2022-09-05T06:36:05.000Z</time>
      </trkpt>
      <trkpt lat="49.80235" lon="4.80757">
        <ele>276</ele>
        <time>2022-09-05T06:36:06.000Z</time>
      </trkpt>
      <trkpt lat="49.80236" lon="4.80764">
        <ele>276</ele>
        <time>2022-09-05T06:36:07.000Z</time>
      </trkpt>
      <trkpt lat="49.80236" lon="4.8077">
        <ele>276</ele>
        <time>2022-09-05T06:36:08.000Z</time>
      </trkpt>
      <trkpt lat="49.80236" lon="4.80776">
        <ele>276</ele>
        <time>2022-09-05T06:36:09.000Z</time>
      </trkpt>
      <trkpt lat="49.80236" lon="4.80781">
        <ele>276</ele>
        <time>2022-09-05T06:36:10.000Z</time>
      </trkpt>
      <trkpt lat="49.80236" lon="4.80787">
        <ele>276</ele>
        <time>2022-09-05T06:36:11.000Z</time>
      </trkpt>
      <trkpt lat="49.80236" lon="4.80793">
        <ele>277</ele>
        <time>2022-09-05T06:36:12.000Z</time>
      </trkpt>
      <trkpt lat="49.80236" lon="4.80799">
        <ele>277</ele>
        <time>2022-09-05T06:36:13.000Z</time>
      </trkpt>
      <trkpt lat="49.80237" lon="4.80805">
        <ele>277</ele>
        <time>2022-09-05T06:36:14.000Z</time>
      </trkpt>
      <trkpt lat="49.80237" lon="4.80811">
        <ele>277</ele>
        <time>2022-09-05T06:36:15.000Z</time>
      </trkpt>
      <trkpt lat="49.80237" lon="4.80819">
        <ele>277</ele>
        <time>2022-09-05T06:36:16.000Z</time>
      </trkpt>
      <trkpt lat="49.80237" lon="4.80826">
        <ele>276</ele>
        <time>2022-09-05T06:36:17.000Z</time>
      </trkpt>
      <trkpt lat="49.80238" lon="4.80832">
        <ele>276</ele>
        <time>2022-09-05T06:36:18.000Z</time>
      </trkpt>
      <trkpt lat="49.80238" lon="4.80838">
        <ele>276</ele>
        <time>2022-09-05T06:36:19.000Z</time>
      </trkpt>
      <trkpt lat="49.80238" lon="4.80845">
        <ele>276</ele>
        <time>2022-09-05T06:36:20.000Z</time>
      </trkpt>
      <trkpt lat="49.80238" lon="4.80851">
        <ele>276</ele>
        <time>2022-09-05T06:36:21.000Z</time>
      </trkpt>
      <trkpt lat="49.80237" lon="4.80856">
        <ele>275</ele>
        <time>2022-09-05T06:36:22.000Z</time>
      </trkpt>
      <trkpt lat="49.80237" lon="4.80861">
        <ele>275</ele>
        <time>2022-09-05T06:36:23.000Z</time>
      </trkpt>
      <trkpt lat="49.80238" lon="4.80863">
        <ele>274</ele>
        <time>2022-09-05T06:36:24.000Z</time>
      </trkpt>
      <trkpt lat="49.80239" lon="4.80864">
        <ele>274</ele>
        <time>2022-09-05T06:36:25.000Z</time>
      </trkpt>
      <trkpt lat="49.80242" lon="4.80864">
        <ele>274</ele>
        <time>2022-09-05T06:36:26.000Z</time>
      </trkpt>
      <trkpt lat="49.80244" lon="4.80863">
        <ele>273</ele>
        <time>2022-09-05T06:36:27.000Z</time>
      </trkpt>
      <trkpt lat="49.80247" lon="4.80861">
        <ele>273</ele>
        <time>2022-09-05T06:36:28.000Z</time>
      </trkpt>
      <trkpt lat="49.8025" lon="4.8086">
        <ele>273</ele>
        <time>2022-09-05T06:36:29.000Z</time>
      </trkpt>
      <trkpt lat="49.80254" lon="4.80858">
        <ele>273</ele>
        <time>2022-09-05T06:36:30.000Z</time>
      </trkpt>
      <trkpt lat="49.80258" lon="4.80855">
        <ele>272</ele>
        <time>2022-09-05T06:36:31.000Z</time>
      </trkpt>
      <trkpt lat="49.80262" lon="4.80851">
        <ele>272</ele>
        <time>2022-09-05T06:36:32.000Z</time>
      </trkpt>
      <trkpt lat="49.80264" lon="4.80847">
        <ele>272</ele>
        <time>2022-09-05T06:36:33.000Z</time>
      </trkpt>
      <trkpt lat="49.80266" lon="4.80843">
        <ele>272</ele>
        <time>2022-09-05T06:36:34.000Z</time>
      </trkpt>
      <trkpt lat="49.80269" lon="4.80838">
        <ele>271</ele>
        <time>2022-09-05T06:36:35.000Z</time>
      </trkpt>
      <trkpt lat="49.80272" lon="4.80833">
        <ele>271</ele>
        <time>2022-09-05T06:36:36.000Z</time>
      </trkpt>
      <trkpt lat="49.80274" lon="4.80828">
        <ele>271</ele>
        <time>2022-09-05T06:36:37.000Z</time>
      </trkpt>
      <trkpt lat="49.80276" lon="4.80824">
        <ele>270</ele>
        <time>2022-09-05T06:36:38.000Z</time>
      </trkpt>
      <trkpt lat="49.80278" lon="4.80819">
        <ele>270</ele>
        <time>2022-09-05T06:36:39.000Z</time>
      </trkpt>
      <trkpt lat="49.8028" lon="4.80814">
        <ele>270</ele>
        <time>2022-09-05T06:36:40.000Z</time>
      </trkpt>
      <trkpt lat="49.80283" lon="4.80808">
        <ele>270</ele>
        <time>2022-09-05T06:36:41.000Z</time>
      </trkpt>
      <trkpt lat="49.80285" lon="4.80801">
        <ele>269</ele>
        <time>2022-09-05T06:36:42.000Z</time>
      </trkpt>
      <trkpt lat="49.80286" lon="4.80793">
        <ele>269</ele>
        <time>2022-09-05T06:36:43.000Z</time>
      </trkpt>
      <trkpt lat="49.80287" lon="4.80785">
        <ele>269</ele>
        <time>2022-09-05T06:36:44.000Z</time>
      </trkpt>
      <trkpt lat="49.80287" lon="4.80777">
        <ele>269</ele>
        <time>2022-09-05T06:36:45.000Z</time>
      </trkpt>
      <trkpt lat="49.80288" lon="4.8077">
        <ele>268</ele>
        <time>2022-09-05T06:36:46.000Z</time>
      </trkpt>
      <trkpt lat="49.8029" lon="4.80763">
        <ele>268</ele>
        <time>2022-09-05T06:36:47.000Z</time>
      </trkpt>
      <trkpt lat="49.80292" lon="4.80755">
        <ele>268</ele>
        <time>2022-09-05T06:36:48.000Z</time>
      </trkpt>
      <trkpt lat="49.80294" lon="4.80746">
        <ele>268</ele>
        <time>2022-09-05T06:36:49.000Z</time>
      </trkpt>
      <trkpt lat="49.80294" lon="4.80737">
        <ele>268</ele>
        <time>2022-09-05T06:36:50.000Z</time>
      </trkpt>
      <trkpt lat="49.80295" lon="4.80727">
        <ele>268</ele>
        <time>2022-09-05T06:36:51.000Z</time>
      </trkpt>
      <trkpt lat="49.80297" lon="4.80718">
        <ele>268</ele>
        <time>2022-09-05T06:36:52.000Z</time>
      </trkpt>
      <trkpt lat="49.80298" lon="4.8071">
        <ele>268</ele>
        <time>2022-09-05T06:36:53.000Z</time>
      </trkpt>
      <trkpt lat="49.80299" lon="4.80702">
        <ele>268</ele>
        <time>2022-09-05T06:36:54.000Z</time>
      </trkpt>
      <trkpt lat="49.80301" lon="4.80694">
        <ele>268</ele>
        <time>2022-09-05T06:36:55.000Z</time>
      </trkpt>
      <trkpt lat="49.80302" lon="4.80687">
        <ele>267</ele>
        <time>2022-09-05T06:36:56.000Z</time>
      </trkpt>
      <trkpt lat="49.80304" lon="4.8068">
        <ele>267</ele>
        <time>2022-09-05T06:36:57.000Z</time>
      </trkpt>
      <trkpt lat="49.80307" lon="4.80673">
        <ele>267</ele>
        <time>2022-09-05T06:36:58.000Z</time>
      </trkpt>
      <trkpt lat="49.80309" lon="4.80666">
        <ele>267</ele>
        <time>2022-09-05T06:36:59.000Z</time>
      </trkpt>
      <trkpt lat="49.80313" lon="4.80659">
        <ele>267</ele>
        <time>2022-09-05T06:37:00.000Z</time>
      </trkpt>
      <trkpt lat="49.80317" lon="4.80653">
        <ele>267</ele>
        <time>2022-09-05T06:37:01.000Z</time>
      </trkpt>
      <trkpt lat="49.80321" lon="4.80648">
        <ele>267</ele>
        <time>2022-09-05T06:37:02.000Z</time>
      </trkpt>
      <trkpt lat="49.80326" lon="4.80641">
        <ele>267</ele>
        <time>2022-09-05T06:37:03.000Z</time>
      </trkpt>
      <trkpt lat="49.80329" lon="4.80635">
        <ele>266</ele>
        <time>2022-09-05T06:37:04.000Z</time>
      </trkpt>
      <trkpt lat="49.80334" lon="4.80627">
        <ele>266</ele>
        <time>2022-09-05T06:37:05.000Z</time>
      </trkpt>
      <trkpt lat="49.80338" lon="4.80619">
        <ele>265</ele>
        <time>2022-09-05T06:37:06.000Z</time>
      </trkpt>
      <trkpt lat="49.80342" lon="4.80611">
        <ele>264</ele>
        <time>2022-09-05T06:37:07.000Z</time>
      </trkpt>
      <trkpt lat="49.80345" lon="4.80604">
        <ele>264</ele>
        <time>2022-09-05T06:37:08.000Z</time>
      </trkpt>
      <trkpt lat="49.80347" lon="4.80598">
        <ele>263</ele>
        <time>2022-09-05T06:37:09.000Z</time>
      </trkpt>
      <trkpt lat="49.80349" lon="4.8059">
        <ele>262</ele>
        <time>2022-09-05T06:37:10.000Z</time>
      </trkpt>
      <trkpt lat="49.8035" lon="4.80583">
        <ele>262</ele>
        <time>2022-09-05T06:37:11.000Z</time>
      </trkpt>
      <trkpt lat="49.8035" lon="4.80576">
        <ele>262</ele>
        <time>2022-09-05T06:37:12.000Z</time>
      </trkpt>
      <trkpt lat="49.80352" lon="4.80571">
        <ele>261</ele>
        <time>2022-09-05T06:37:13.000Z</time>
      </trkpt>
      <trkpt lat="49.80354" lon="4.80567">
        <ele>261</ele>
        <time>2022-09-05T06:37:14.000Z</time>
      </trkpt>
      <trkpt lat="49.80356" lon="4.80563">
        <ele>260</ele>
        <time>2022-09-05T06:37:15.000Z</time>
      </trkpt>
      <trkpt lat="49.80359" lon="4.80559">
        <ele>260</ele>
        <time>2022-09-05T06:37:16.000Z</time>
      </trkpt>
      <trkpt lat="49.80362" lon="4.80555">
        <ele>260</ele>
        <time>2022-09-05T06:37:17.000Z</time>
      </trkpt>
      <trkpt lat="49.80365" lon="4.80552">
        <ele>259</ele>
        <time>2022-09-05T06:37:18.000Z</time>
      </trkpt>
      <trkpt lat="49.80368" lon="4.80549">
        <ele>259</ele>
        <time>2022-09-05T06:37:19.000Z</time>
      </trkpt>
      <trkpt lat="49.80372" lon="4.80546">
        <ele>259</ele>
        <time>2022-09-05T06:37:20.000Z</time>
      </trkpt>
      <trkpt lat="49.80377" lon="4.80543">
        <ele>258</ele>
        <time>2022-09-05T06:37:21.000Z</time>
      </trkpt>
      <trkpt lat="49.80381" lon="4.80541">
        <ele>258</ele>
        <time>2022-09-05T06:37:22.000Z</time>
      </trkpt>
      <trkpt lat="49.80385" lon="4.80539">
        <ele>258</ele>
        <time>2022-09-05T06:37:23.000Z</time>
      </trkpt>
      <trkpt lat="49.80389" lon="4.80536">
        <ele>257</ele>
        <time>2022-09-05T06:37:24.000Z</time>
      </trkpt>
      <trkpt lat="49.80392" lon="4.80533">
        <ele>257</ele>
        <time>2022-09-05T06:37:25.000Z</time>
      </trkpt>
      <trkpt lat="49.80396" lon="4.80531">
        <ele>257</ele>
        <time>2022-09-05T06:37:26.000Z</time>
      </trkpt>
      <trkpt lat="49.804" lon="4.80527">
        <ele>256</ele>
        <time>2022-09-05T06:37:27.000Z</time>
      </trkpt>
      <trkpt lat="49.80404" lon="4.80523">
        <ele>256</ele>
        <time>2022-09-05T06:37:28.000Z</time>
      </trkpt>
      <trkpt lat="49.80409" lon="4.80521">
        <ele>256</ele>
        <time>2022-09-05T06:37:29.000Z</time>
      </trkpt>
      <trkpt lat="49.80414" lon="4.80518">
        <ele>255</ele>
        <time>2022-09-05T06:37:30.000Z</time>
      </trkpt>
      <trkpt lat="49.80419" lon="4.80516">
        <ele>255</ele>
        <time>2022-09-05T06:37:31.000Z</time>
      </trkpt>
      <trkpt lat="49.80424" lon="4.80514">
        <ele>255</ele>
        <time>2022-09-05T06:37:32.000Z</time>
      </trkpt>
      <trkpt lat="49.80429" lon="4.80511">
        <ele>254</ele>
        <time>2022-09-05T06:37:33.000Z</time>
      </trkpt>
      <trkpt lat="49.80433" lon="4.8051">
        <ele>254</ele>
        <time>2022-09-05T06:37:34.000Z</time>
      </trkpt>
      <trkpt lat="49.80437" lon="4.80508">
        <ele>253</ele>
        <time>2022-09-05T06:37:35.000Z</time>
      </trkpt>
      <trkpt lat="49.8044" lon="4.80507">
        <ele>253</ele>
        <time>2022-09-05T06:37:36.000Z</time>
      </trkpt>
      <trkpt lat="49.80444" lon="4.80505">
        <ele>253</ele>
        <time>2022-09-05T06:37:37.000Z</time>
      </trkpt>
      <trkpt lat="49.80447" lon="4.80504">
        <ele>252</ele>
        <time>2022-09-05T06:37:38.000Z</time>
      </trkpt>
      <trkpt lat="49.80449" lon="4.80502">
        <ele>252</ele>
        <time>2022-09-05T06:37:39.000Z</time>
      </trkpt>
      <trkpt lat="49.80452" lon="4.805">
        <ele>252</ele>
        <time>2022-09-05T06:37:40.000Z</time>
      </trkpt>
      <trkpt lat="49.80454" lon="4.80498">
        <ele>251</ele>
        <time>2022-09-05T06:37:41.000Z</time>
      </trkpt>
      <trkpt lat="49.80457" lon="4.80496">
        <ele>251</ele>
        <time>2022-09-05T06:37:42.000Z</time>
      </trkpt>
      <trkpt lat="49.8046" lon="4.80493">
        <ele>250</ele>
        <time>2022-09-05T06:37:43.000Z</time>
      </trkpt>
      <trkpt lat="49.80463" lon="4.8049">
        <ele>250</ele>
        <time>2022-09-05T06:37:44.000Z</time>
      </trkpt>
      <trkpt lat="49.80467" lon="4.80486">
        <ele>249</ele>
        <time>2022-09-05T06:37:45.000Z</time>
      </trkpt>
      <trkpt lat="49.80471" lon="4.80479">
        <ele>248</ele>
        <time>2022-09-05T06:37:46.000Z</time>
      </trkpt>
      <trkpt lat="49.80476" lon="4.80472">
        <ele>248</ele>
        <time>2022-09-05T06:37:47.000Z</time>
      </trkpt>
      <trkpt lat="49.8048" lon="4.80465">
        <ele>247</ele>
        <time>2022-09-05T06:37:48.000Z</time>
      </trkpt>
      <trkpt lat="49.80486" lon="4.80459">
        <ele>246</ele>
        <time>2022-09-05T06:37:49.000Z</time>
      </trkpt>
      <trkpt lat="49.8049" lon="4.80453">
        <ele>246</ele>
        <time>2022-09-05T06:37:50.000Z</time>
      </trkpt>
      <trkpt lat="49.80495" lon="4.80448">
        <ele>245</ele>
        <time>2022-09-05T06:37:51.000Z</time>
      </trkpt>
      <trkpt lat="49.805" lon="4.80444">
        <ele>245</ele>
        <time>2022-09-05T06:37:52.000Z</time>
      </trkpt>
      <trkpt lat="49.80505" lon="4.80439">
        <ele>244</ele>
        <time>2022-09-05T06:37:53.000Z</time>
      </trkpt>
      <trkpt lat="49.80509" lon="4.80434">
        <ele>244</ele>
        <time>2022-09-05T06:37:54.000Z</time>
      </trkpt>
      <trkpt lat="49.80513" lon="4.80428">
        <ele>243</ele>
        <time>2022-09-05T06:37:55.000Z</time>
      </trkpt>
      <trkpt lat="49.80516" lon="4.80421">
        <ele>243</ele>
        <time>2022-09-05T06:37:56.000Z</time>
      </trkpt>
      <trkpt lat="49.8052" lon="4.80415">
        <ele>242</ele>
        <time>2022-09-05T06:37:57.000Z</time>
      </trkpt>
      <trkpt lat="49.80524" lon="4.80408">
        <ele>242</ele>
        <time>2022-09-05T06:37:58.000Z</time>
      </trkpt>
      <trkpt lat="49.80527" lon="4.80401">
        <ele>242</ele>
        <time>2022-09-05T06:37:59.000Z</time>
      </trkpt>
      <trkpt lat="49.80531" lon="4.80394">
        <ele>241</ele>
        <time>2022-09-05T06:38:00.000Z</time>
      </trkpt>
      <trkpt lat="49.80535" lon="4.80388">
        <ele>241</ele>
        <time>2022-09-05T06:38:01.000Z</time>
      </trkpt>
      <trkpt lat="49.80539" lon="4.80381">
        <ele>241</ele>
        <time>2022-09-05T06:38:02.000Z</time>
      </trkpt>
      <trkpt lat="49.80543" lon="4.80374">
        <ele>240</ele>
        <time>2022-09-05T06:38:03.000Z</time>
      </trkpt>
      <trkpt lat="49.80548" lon="4.80366">
        <ele>240</ele>
        <time>2022-09-05T06:38:04.000Z</time>
      </trkpt>
      <trkpt lat="49.80553" lon="4.8036">
        <ele>240</ele>
        <time>2022-09-05T06:38:05.000Z</time>
      </trkpt>
      <trkpt lat="49.80558" lon="4.80353">
        <ele>239</ele>
        <time>2022-09-05T06:38:06.000Z</time>
      </trkpt>
      <trkpt lat="49.80563" lon="4.80345">
        <ele>239</ele>
        <time>2022-09-05T06:38:07.000Z</time>
      </trkpt>
      <trkpt lat="49.80567" lon="4.80337">
        <ele>239</ele>
        <time>2022-09-05T06:38:08.000Z</time>
      </trkpt>
      <trkpt lat="49.80571" lon="4.80329">
        <ele>238</ele>
        <time>2022-09-05T06:38:09.000Z</time>
      </trkpt>
      <trkpt lat="49.80575" lon="4.80321">
        <ele>238</ele>
        <time>2022-09-05T06:38:10.000Z</time>
      </trkpt>
      <trkpt lat="49.80579" lon="4.80311">
        <ele>237</ele>
        <time>2022-09-05T06:38:11.000Z</time>
      </trkpt>
      <trkpt lat="49.80583" lon="4.80301">
        <ele>237</ele>
        <time>2022-09-05T06:38:12.000Z</time>
      </trkpt>
      <trkpt lat="49.80587" lon="4.80292">
        <ele>236</ele>
        <time>2022-09-05T06:38:13.000Z</time>
      </trkpt>
      <trkpt lat="49.80592" lon="4.80282">
        <ele>236</ele>
        <time>2022-09-05T06:38:14.000Z</time>
      </trkpt>
      <trkpt lat="49.80596" lon="4.80273">
        <ele>235</ele>
        <time>2022-09-05T06:38:15.000Z</time>
      </trkpt>
      <trkpt lat="49.80601" lon="4.80264">
        <ele>234</ele>
        <time>2022-09-05T06:38:16.000Z</time>
      </trkpt>
      <trkpt lat="49.80606" lon="4.80255">
        <ele>234</ele>
        <time>2022-09-05T06:38:17.000Z</time>
      </trkpt>
      <trkpt lat="49.80611" lon="4.80246">
        <ele>233</ele>
        <time>2022-09-05T06:38:18.000Z</time>
      </trkpt>
      <trkpt lat="49.80616" lon="4.80237">
        <ele>232</ele>
        <time>2022-09-05T06:38:19.000Z</time>
      </trkpt>
      <trkpt lat="49.80623" lon="4.80228">
        <ele>231</ele>
        <time>2022-09-05T06:38:20.000Z</time>
      </trkpt>
      <trkpt lat="49.8063" lon="4.80219">
        <ele>230</ele>
        <time>2022-09-05T06:38:21.000Z</time>
      </trkpt>
      <trkpt lat="49.80637" lon="4.80209">
        <ele>229</ele>
        <time>2022-09-05T06:38:22.000Z</time>
      </trkpt>
      <trkpt lat="49.80644" lon="4.80201">
        <ele>228</ele>
        <time>2022-09-05T06:38:23.000Z</time>
      </trkpt>
      <trkpt lat="49.80651" lon="4.80193">
        <ele>227</ele>
        <time>2022-09-05T06:38:24.000Z</time>
      </trkpt>
      <trkpt lat="49.80657" lon="4.80184">
        <ele>226</ele>
        <time>2022-09-05T06:38:25.000Z</time>
      </trkpt>
      <trkpt lat="49.80664" lon="4.80176">
        <ele>225</ele>
        <time>2022-09-05T06:38:26.000Z</time>
      </trkpt>
      <trkpt lat="49.8067" lon="4.80169">
        <ele>224</ele>
        <time>2022-09-05T06:38:27.000Z</time>
      </trkpt>
      <trkpt lat="49.80676" lon="4.80161">
        <ele>223</ele>
        <time>2022-09-05T06:38:28.000Z</time>
      </trkpt>
      <trkpt lat="49.80682" lon="4.80152">
        <ele>222</ele>
        <time>2022-09-05T06:38:29.000Z</time>
      </trkpt>
      <trkpt lat="49.80688" lon="4.80144">
        <ele>221</ele>
        <time>2022-09-05T06:38:30.000Z</time>
      </trkpt>
      <trkpt lat="49.80694" lon="4.80136">
        <ele>220</ele>
        <time>2022-09-05T06:38:31.000Z</time>
      </trkpt>
      <trkpt lat="49.80702" lon="4.80128">
        <ele>219</ele>
        <time>2022-09-05T06:38:32.000Z</time>
      </trkpt>
      <trkpt lat="49.80709" lon="4.80121">
        <ele>218</ele>
        <time>2022-09-05T06:38:33.000Z</time>
      </trkpt>
      <trkpt lat="49.80716" lon="4.80116">
        <ele>217</ele>
        <time>2022-09-05T06:38:34.000Z</time>
      </trkpt>
      <trkpt lat="49.80723" lon="4.80111">
        <ele>216</ele>
        <time>2022-09-05T06:38:35.000Z</time>
      </trkpt>
      <trkpt lat="49.8073" lon="4.80109">
        <ele>215</ele>
        <time>2022-09-05T06:38:36.000Z</time>
      </trkpt>
      <trkpt lat="49.80736" lon="4.80107">
        <ele>214</ele>
        <time>2022-09-05T06:38:37.000Z</time>
      </trkpt>
      <trkpt lat="49.80743" lon="4.80105">
        <ele>213</ele>
        <time>2022-09-05T06:38:38.000Z</time>
      </trkpt>
      <trkpt lat="49.80749" lon="4.80102">
        <ele>212</ele>
        <time>2022-09-05T06:38:39.000Z</time>
      </trkpt>
      <trkpt lat="49.80755" lon="4.80097">
        <ele>211</ele>
        <time>2022-09-05T06:38:40.000Z</time>
      </trkpt>
      <trkpt lat="49.8076" lon="4.8009">
        <ele>210</ele>
        <time>2022-09-05T06:38:41.000Z</time>
      </trkpt>
      <trkpt lat="49.80764" lon="4.80081">
        <ele>209</ele>
        <time>2022-09-05T06:38:42.000Z</time>
      </trkpt>
      <trkpt lat="49.80767" lon="4.80071">
        <ele>208</ele>
        <time>2022-09-05T06:38:43.000Z</time>
      </trkpt>
      <trkpt lat="49.80771" lon="4.80061">
        <ele>207</ele>
        <time>2022-09-05T06:38:44.000Z</time>
      </trkpt>
      <trkpt lat="49.80774" lon="4.8005">
        <ele>206</ele>
        <time>2022-09-05T06:38:45.000Z</time>
      </trkpt>
      <trkpt lat="49.80778" lon="4.80039">
        <ele>205</ele>
        <time>2022-09-05T06:38:46.000Z</time>
      </trkpt>
      <trkpt lat="49.80781" lon="4.80028">
        <ele>205</ele>
        <time>2022-09-05T06:38:47.000Z</time>
      </trkpt>
      <trkpt lat="49.80784" lon="4.80016">
        <ele>204</ele>
        <time>2022-09-05T06:38:48.000Z</time>
      </trkpt>
      <trkpt lat="49.80788" lon="4.80004">
        <ele>203</ele>
        <time>2022-09-05T06:38:49.000Z</time>
      </trkpt>
      <trkpt lat="49.80791" lon="4.79991">
        <ele>202</ele>
        <time>2022-09-05T06:38:50.000Z</time>
      </trkpt>
      <trkpt lat="49.80795" lon="4.79979">
        <ele>201</ele>
        <time>2022-09-05T06:38:51.000Z</time>
      </trkpt>
      <trkpt lat="49.80798" lon="4.79966">
        <ele>200</ele>
        <time>2022-09-05T06:38:52.000Z</time>
      </trkpt>
      <trkpt lat="49.80802" lon="4.79954">
        <ele>200</ele>
        <time>2022-09-05T06:38:53.000Z</time>
      </trkpt>
      <trkpt lat="49.80806" lon="4.79941">
        <ele>199</ele>
        <time>2022-09-05T06:38:54.000Z</time>
      </trkpt>
      <trkpt lat="49.8081" lon="4.79928">
        <ele>198</ele>
        <time>2022-09-05T06:38:55.000Z</time>
      </trkpt>
      <trkpt lat="49.80815" lon="4.79916">
        <ele>197</ele>
        <time>2022-09-05T06:38:56.000Z</time>
      </trkpt>
      <trkpt lat="49.80821" lon="4.79904">
        <ele>196</ele>
        <time>2022-09-05T06:38:57.000Z</time>
      </trkpt>
      <trkpt lat="49.80827" lon="4.79893">
        <ele>195</ele>
        <time>2022-09-05T06:38:58.000Z</time>
      </trkpt>
      <trkpt lat="49.80834" lon="4.79882">
        <ele>194</ele>
        <time>2022-09-05T06:38:59.000Z</time>
      </trkpt>
      <trkpt lat="49.80841" lon="4.79871">
        <ele>193</ele>
        <time>2022-09-05T06:39:00.000Z</time>
      </trkpt>
      <trkpt lat="49.80849" lon="4.79861">
        <ele>192</ele>
        <time>2022-09-05T06:39:01.000Z</time>
      </trkpt>
      <trkpt lat="49.80858" lon="4.79852">
        <ele>191</ele>
        <time>2022-09-05T06:39:02.000Z</time>
      </trkpt>
      <trkpt lat="49.80867" lon="4.79843">
        <ele>190</ele>
        <time>2022-09-05T06:39:03.000Z</time>
      </trkpt>
      <trkpt lat="49.80876" lon="4.79835">
        <ele>188</ele>
        <time>2022-09-05T06:39:04.000Z</time>
      </trkpt>
      <trkpt lat="49.80886" lon="4.79828">
        <ele>187</ele>
        <time>2022-09-05T06:39:05.000Z</time>
      </trkpt>
      <trkpt lat="49.80895" lon="4.7982">
        <ele>186</ele>
        <time>2022-09-05T06:39:06.000Z</time>
      </trkpt>
      <trkpt lat="49.80903" lon="4.79813">
        <ele>184</ele>
        <time>2022-09-05T06:39:07.000Z</time>
      </trkpt>
      <trkpt lat="49.80911" lon="4.79804">
        <ele>183</ele>
        <time>2022-09-05T06:39:08.000Z</time>
      </trkpt>
      <trkpt lat="49.8092" lon="4.79795">
        <ele>181</ele>
        <time>2022-09-05T06:39:09.000Z</time>
      </trkpt>
      <trkpt lat="49.80928" lon="4.79787">
        <ele>180</ele>
        <time>2022-09-05T06:39:10.000Z</time>
      </trkpt>
      <trkpt lat="49.80936" lon="4.7978">
        <ele>179</ele>
        <time>2022-09-05T06:39:11.000Z</time>
      </trkpt>
      <trkpt lat="49.80943" lon="4.79774">
        <ele>178</ele>
        <time>2022-09-05T06:39:12.000Z</time>
      </trkpt>
      <trkpt lat="49.8095" lon="4.7977">
        <ele>177</ele>
        <time>2022-09-05T06:39:13.000Z</time>
      </trkpt>
      <trkpt lat="49.80955" lon="4.79767">
        <ele>177</ele>
        <time>2022-09-05T06:39:14.000Z</time>
      </trkpt>
      <trkpt lat="49.80961" lon="4.79765">
        <ele>176</ele>
        <time>2022-09-05T06:39:15.000Z</time>
      </trkpt>
      <trkpt lat="49.80967" lon="4.79763">
        <ele>176</ele>
        <time>2022-09-05T06:39:16.000Z</time>
      </trkpt>
      <trkpt lat="49.80973" lon="4.79759">
        <ele>176</ele>
        <time>2022-09-05T06:39:17.000Z</time>
      </trkpt>
      <trkpt lat="49.80978" lon="4.79754">
        <ele>176</ele>
        <time>2022-09-05T06:39:18.000Z</time>
      </trkpt>
      <trkpt lat="49.80984" lon="4.79748">
        <ele>175</ele>
        <time>2022-09-05T06:39:19.000Z</time>
      </trkpt>
      <trkpt lat="49.8099" lon="4.79743">
        <ele>175</ele>
        <time>2022-09-05T06:39:20.000Z</time>
      </trkpt>
      <trkpt lat="49.80995" lon="4.79738">
        <ele>175</ele>
        <time>2022-09-05T06:39:21.000Z</time>
      </trkpt>
      <trkpt lat="49.81001" lon="4.79733">
        <ele>175</ele>
        <time>2022-09-05T06:39:22.000Z</time>
      </trkpt>
      <trkpt lat="49.81006" lon="4.79728">
        <ele>175</ele>
        <time>2022-09-05T06:39:23.000Z</time>
      </trkpt>
      <trkpt lat="49.8101" lon="4.79724">
        <ele>175</ele>
        <time>2022-09-05T06:39:24.000Z</time>
      </trkpt>
      <trkpt lat="49.81015" lon="4.79725">
        <ele>175</ele>
        <time>2022-09-05T06:39:25.000Z</time>
      </trkpt>
      <trkpt lat="49.8102" lon="4.7973">
        <ele>175</ele>
        <time>2022-09-05T06:39:26.000Z</time>
      </trkpt>
      <trkpt lat="49.81025" lon="4.79737">
        <ele>175</ele>
        <time>2022-09-05T06:39:27.000Z</time>
      </trkpt>
      <trkpt lat="49.81029" lon="4.79745">
        <ele>175</ele>
        <time>2022-09-05T06:39:28.000Z</time>
      </trkpt>
      <trkpt lat="49.81034" lon="4.79752">
        <ele>175</ele>
        <time>2022-09-05T06:39:29.000Z</time>
      </trkpt>
      <trkpt lat="49.81039" lon="4.7976">
        <ele>175</ele>
        <time>2022-09-05T06:39:30.000Z</time>
      </trkpt>
      <trkpt lat="49.81044" lon="4.79768">
        <ele>175</ele>
        <time>2022-09-05T06:39:31.000Z</time>
      </trkpt>
      <trkpt lat="49.81048" lon="4.79777">
        <ele>175</ele>
        <time>2022-09-05T06:39:32.000Z</time>
      </trkpt>
      <trkpt lat="49.81053" lon="4.79786">
        <ele>175</ele>
        <time>2022-09-05T06:39:33.000Z</time>
      </trkpt>
      <trkpt lat="49.81056" lon="4.79796">
        <ele>175</ele>
        <time>2022-09-05T06:39:34.000Z</time>
      </trkpt>
      <trkpt lat="49.8106" lon="4.79806">
        <ele>175</ele>
        <time>2022-09-05T06:39:35.000Z</time>
      </trkpt>
      <trkpt lat="49.81065" lon="4.79816">
        <ele>175</ele>
        <time>2022-09-05T06:39:36.000Z</time>
      </trkpt>
      <trkpt lat="49.81069" lon="4.79825">
        <ele>175</ele>
        <time>2022-09-05T06:39:37.000Z</time>
      </trkpt>
      <trkpt lat="49.81073" lon="4.79835">
        <ele>175</ele>
        <time>2022-09-05T06:39:38.000Z</time>
      </trkpt>
      <trkpt lat="49.81077" lon="4.79845">
        <ele>175</ele>
        <time>2022-09-05T06:39:39.000Z</time>
      </trkpt>
      <trkpt lat="49.81081" lon="4.79855">
        <ele>175</ele>
        <time>2022-09-05T06:39:40.000Z</time>
      </trkpt>
      <trkpt lat="49.81085" lon="4.79865">
        <ele>175</ele>
        <time>2022-09-05T06:39:41.000Z</time>
      </trkpt>
      <trkpt lat="49.81089" lon="4.79874">
        <ele>175</ele>
        <time>2022-09-05T06:39:42.000Z</time>
      </trkpt>
      <trkpt lat="49.81093" lon="4.79884">
        <ele>175</ele>
        <time>2022-09-05T06:39:43.000Z</time>
      </trkpt>
      <trkpt lat="49.81097" lon="4.79894">
        <ele>175</ele>
        <time>2022-09-05T06:39:44.000Z</time>
      </trkpt>
      <trkpt lat="49.81101" lon="4.79903">
        <ele>175</ele>
        <time>2022-09-05T06:39:45.000Z</time>
      </trkpt>
      <trkpt lat="49.81105" lon="4.79912">
        <ele>175</ele>
        <time>2022-09-05T06:39:46.000Z</time>
      </trkpt>
      <trkpt lat="49.8111" lon="4.7992">
        <ele>175</ele>
        <time>2022-09-05T06:39:47.000Z</time>
      </trkpt>
      <trkpt lat="49.81114" lon="4.79929">
        <ele>174</ele>
        <time>2022-09-05T06:39:48.000Z</time>
      </trkpt>
      <trkpt lat="49.81119" lon="4.79937">
        <ele>174</ele>
        <time>2022-09-05T06:39:49.000Z</time>
      </trkpt>
      <trkpt lat="49.81124" lon="4.79944">
        <ele>174</ele>
        <time>2022-09-05T06:39:50.000Z</time>
      </trkpt>
      <trkpt lat="49.81129" lon="4.79951">
        <ele>174</ele>
        <time>2022-09-05T06:39:51.000Z</time>
      </trkpt>
      <trkpt lat="49.81134" lon="4.79958">
        <ele>174</ele>
        <time>2022-09-05T06:39:52.000Z</time>
      </trkpt>
      <trkpt lat="49.81138" lon="4.79964">
        <ele>174</ele>
        <time>2022-09-05T06:39:53.000Z</time>
      </trkpt>
      <trkpt lat="49.81142" lon="4.7997">
        <ele>174</ele>
        <time>2022-09-05T06:39:54.000Z</time>
      </trkpt>
      <trkpt lat="49.81144" lon="4.79976">
        <ele>174</ele>
        <time>2022-09-05T06:39:55.000Z</time>
      </trkpt>
      <trkpt lat="49.81145" lon="4.79983">
        <ele>175</ele>
        <time>2022-09-05T06:39:56.000Z</time>
      </trkpt>
      <trkpt lat="49.81146" lon="4.7999">
        <ele>175</ele>
        <time>2022-09-05T06:39:57.000Z</time>
      </trkpt>
      <trkpt lat="49.81146" lon="4.79997">
        <ele>175</ele>
        <time>2022-09-05T06:39:58.000Z</time>
      </trkpt>
      <trkpt lat="49.81146" lon="4.80003">
        <ele>175</ele>
        <time>2022-09-05T06:39:59.000Z</time>
      </trkpt>
      <trkpt lat="49.81146" lon="4.80009">
        <ele>175</ele>
        <time>2022-09-05T06:40:00.000Z</time>
      </trkpt>
      <trkpt lat="49.81147" lon="4.80015">
        <ele>175</ele>
        <time>2022-09-05T06:40:01.000Z</time>
      </trkpt>
      <trkpt lat="49.81148" lon="4.8002">
        <ele>175</ele>
        <time>2022-09-05T06:40:02.000Z</time>
      </trkpt>
      <trkpt lat="49.81148" lon="4.80025">
        <ele>175</ele>
        <time>2022-09-05T06:40:03.000Z</time>
      </trkpt>
      <trkpt lat="49.81148" lon="4.8003">
        <ele>175</ele>
        <time>2022-09-05T06:40:04.000Z</time>
      </trkpt>
      <trkpt lat="49.81147" lon="4.80034">
        <ele>176</ele>
        <time>2022-09-05T06:40:05.000Z</time>
      </trkpt>
      <trkpt lat="49.81147" lon="4.80039">
        <ele>176</ele>
        <time>2022-09-05T06:40:06.000Z</time>
      </trkpt>
      <trkpt lat="49.81147" lon="4.80044">
        <ele>176</ele>
        <time>2022-09-05T06:40:07.000Z</time>
      </trkpt>
      <trkpt lat="49.81146" lon="4.80049">
        <ele>176</ele>
        <time>2022-09-05T06:40:08.000Z</time>
      </trkpt>
      <trkpt lat="49.81146" lon="4.80054">
        <ele>176</ele>
        <time>2022-09-05T06:40:09.000Z</time>
      </trkpt>
      <trkpt lat="49.81146" lon="4.80059">
        <ele>176</ele>
        <time>2022-09-05T06:40:10.000Z</time>
      </trkpt>
      <trkpt lat="49.81145" lon="4.80064">
        <ele>176</ele>
        <time>2022-09-05T06:40:11.000Z</time>
      </trkpt>
      <trkpt lat="49.81145" lon="4.80069">
        <ele>176</ele>
        <time>2022-09-05T06:40:12.000Z</time>
      </trkpt>
      <trkpt lat="49.81144" lon="4.80074">
        <ele>176</ele>
        <time>2022-09-05T06:40:13.000Z</time>
      </trkpt>
      <trkpt lat="49.81144" lon="4.80079">
        <ele>176</ele>
        <time>2022-09-05T06:40:14.000Z</time>
      </trkpt>
      <trkpt lat="49.81143" lon="4.80084">
        <ele>176</ele>
        <time>2022-09-05T06:40:15.000Z</time>
      </trkpt>
      <trkpt lat="49.81142" lon="4.80089">
        <ele>176</ele>
        <time>2022-09-05T06:40:16.000Z</time>
      </trkpt>
      <trkpt lat="49.81142" lon="4.80093">
        <ele>176</ele>
        <time>2022-09-05T06:40:17.000Z</time>
      </trkpt>
      <trkpt lat="49.81141" lon="4.80097">
        <ele>177</ele>
        <time>2022-09-05T06:40:18.000Z</time>
      </trkpt>
      <trkpt lat="49.8114" lon="4.80102">
        <ele>177</ele>
        <time>2022-09-05T06:40:19.000Z</time>
      </trkpt>
      <trkpt lat="49.8114" lon="4.80106">
        <ele>177</ele>
        <time>2022-09-05T06:40:20.000Z</time>
      </trkpt>
      <trkpt lat="49.81139" lon="4.8011">
        <ele>177</ele>
        <time>2022-09-05T06:40:21.000Z</time>
      </trkpt>
      <trkpt lat="49.81139" lon="4.80114">
        <ele>177</ele>
        <time>2022-09-05T06:40:22.000Z</time>
      </trkpt>
      <trkpt lat="49.81138" lon="4.80118">
        <ele>177</ele>
        <time>2022-09-05T06:40:23.000Z</time>
      </trkpt>
      <trkpt lat="49.81138" lon="4.80122">
        <ele>177</ele>
        <time>2022-09-05T06:40:24.000Z</time>
      </trkpt>
      <trkpt lat="49.81138" lon="4.80126">
        <ele>177</ele>
        <time>2022-09-05T06:40:25.000Z</time>
      </trkpt>
      <trkpt lat="49.81137" lon="4.8013">
        <ele>178</ele>
        <time>2022-09-05T06:40:26.000Z</time>
      </trkpt>
      <trkpt lat="49.81136" lon="4.80133">
        <ele>178</ele>
        <time>2022-09-05T06:40:27.000Z</time>
      </trkpt>
      <trkpt lat="49.81135" lon="4.80138">
        <ele>178</ele>
        <time>2022-09-05T06:40:28.000Z</time>
      </trkpt>
      <trkpt lat="49.81135" lon="4.80142">
        <ele>178</ele>
        <time>2022-09-05T06:40:29.000Z</time>
      </trkpt>
      <trkpt lat="49.81135" lon="4.80146">
        <ele>178</ele>
        <time>2022-09-05T06:40:30.000Z</time>
      </trkpt>
      <trkpt lat="49.81135" lon="4.8015">
        <ele>178</ele>
        <time>2022-09-05T06:40:31.000Z</time>
      </trkpt>
      <trkpt lat="49.81135" lon="4.80153">
        <ele>178</ele>
        <time>2022-09-05T06:40:32.000Z</time>
      </trkpt>
      <trkpt lat="49.81135" lon="4.80156">
        <ele>178</ele>
        <time>2022-09-05T06:40:33.000Z</time>
      </trkpt>
      <trkpt lat="49.81135" lon="4.8016">
        <ele>179</ele>
        <time>2022-09-05T06:40:34.000Z</time>
      </trkpt>
      <trkpt lat="49.81135" lon="4.80164">
        <ele>179</ele>
        <time>2022-09-05T06:40:35.000Z</time>
      </trkpt>
      <trkpt lat="49.81135" lon="4.80167">
        <ele>179</ele>
        <time>2022-09-05T06:40:36.000Z</time>
      </trkpt>
      <trkpt lat="49.81135" lon="4.80171">
        <ele>179</ele>
        <time>2022-09-05T06:40:37.000Z</time>
      </trkpt>
      <trkpt lat="49.81135" lon="4.80175">
        <ele>179</ele>
        <time>2022-09-05T06:40:38.000Z</time>
      </trkpt>
      <trkpt lat="49.81135" lon="4.80179">
        <ele>180</ele>
        <time>2022-09-05T06:40:39.000Z</time>
      </trkpt>
      <trkpt lat="49.81135" lon="4.80183">
        <ele>180</ele>
        <time>2022-09-05T06:40:40.000Z</time>
      </trkpt>
      <trkpt lat="49.81135" lon="4.80186">
        <ele>180</ele>
        <time>2022-09-05T06:40:41.000Z</time>
      </trkpt>
      <trkpt lat="49.81134" lon="4.80191">
        <ele>180</ele>
        <time>2022-09-05T06:40:42.000Z</time>
      </trkpt>
      <trkpt lat="49.81134" lon="4.80195">
        <ele>181</ele>
        <time>2022-09-05T06:40:43.000Z</time>
      </trkpt>
      <trkpt lat="49.81134" lon="4.80198">
        <ele>181</ele>
        <time>2022-09-05T06:40:44.000Z</time>
      </trkpt>
      <trkpt lat="49.81133" lon="4.80201">
        <ele>181</ele>
        <time>2022-09-05T06:40:45.000Z</time>
      </trkpt>
      <trkpt lat="49.81133" lon="4.80205">
        <ele>181</ele>
        <time>2022-09-05T06:40:46.000Z</time>
      </trkpt>
      <trkpt lat="49.81133" lon="4.80209">
        <ele>181</ele>
        <time>2022-09-05T06:40:47.000Z</time>
      </trkpt>
      <trkpt lat="49.81134" lon="4.80213">
        <ele>182</ele>
        <time>2022-09-05T06:40:48.000Z</time>
      </trkpt>
      <trkpt lat="49.81134" lon="4.80217">
        <ele>182</ele>
        <time>2022-09-05T06:40:49.000Z</time>
      </trkpt>
      <trkpt lat="49.81134" lon="4.80221">
        <ele>182</ele>
        <time>2022-09-05T06:40:50.000Z</time>
      </trkpt>
      <trkpt lat="49.81133" lon="4.80224">
        <ele>182</ele>
        <time>2022-09-05T06:40:51.000Z</time>
      </trkpt>
      <trkpt lat="49.81133" lon="4.80228">
        <ele>182</ele>
        <time>2022-09-05T06:40:52.000Z</time>
      </trkpt>
      <trkpt lat="49.81134" lon="4.80232">
        <ele>182</ele>
        <time>2022-09-05T06:40:53.000Z</time>
      </trkpt>
      <trkpt lat="49.81134" lon="4.80235">
        <ele>183</ele>
        <time>2022-09-05T06:40:54.000Z</time>
      </trkpt>
      <trkpt lat="49.81135" lon="4.80239">
        <ele>183</ele>
        <time>2022-09-05T06:40:55.000Z</time>
      </trkpt>
      <trkpt lat="49.81136" lon="4.80243">
        <ele>183</ele>
        <time>2022-09-05T06:40:56.000Z</time>
      </trkpt>
      <trkpt lat="49.81137" lon="4.80247">
        <ele>183</ele>
        <time>2022-09-05T06:40:57.000Z</time>
      </trkpt>
      <trkpt lat="49.81136" lon="4.80251">
        <ele>183</ele>
        <time>2022-09-05T06:40:58.000Z</time>
      </trkpt>
      <trkpt lat="49.81136" lon="4.80256">
        <ele>184</ele>
        <time>2022-09-05T06:40:59.000Z</time>
      </trkpt>
      <trkpt lat="49.81137" lon="4.8026">
        <ele>184</ele>
        <time>2022-09-05T06:41:00.000Z</time>
      </trkpt>
      <trkpt lat="49.81137" lon="4.80264">
        <ele>184</ele>
        <time>2022-09-05T06:41:01.000Z</time>
      </trkpt>
      <trkpt lat="49.81137" lon="4.80269">
        <ele>184</ele>
        <time>2022-09-05T06:41:02.000Z</time>
      </trkpt>
      <trkpt lat="49.81138" lon="4.80273">
        <ele>184</ele>
        <time>2022-09-05T06:41:03.000Z</time>
      </trkpt>
      <trkpt lat="49.81138" lon="4.80277">
        <ele>184</ele>
        <time>2022-09-05T06:41:04.000Z</time>
      </trkpt>
      <trkpt lat="49.81138" lon="4.80281">
        <ele>184</ele>
        <time>2022-09-05T06:41:05.000Z</time>
      </trkpt>
      <trkpt lat="49.81139" lon="4.80285">
        <ele>184</ele>
        <time>2022-09-05T06:41:06.000Z</time>
      </trkpt>
      <trkpt lat="49.81139" lon="4.8029">
        <ele>184</ele>
        <time>2022-09-05T06:41:07.000Z</time>
      </trkpt>
      <trkpt lat="49.8114" lon="4.80294">
        <ele>185</ele>
        <time>2022-09-05T06:41:08.000Z</time>
      </trkpt>
      <trkpt lat="49.8114" lon="4.80298">
        <ele>185</ele>
        <time>2022-09-05T06:41:09.000Z</time>
      </trkpt>
      <trkpt lat="49.8114" lon="4.80303">
        <ele>185</ele>
        <time>2022-09-05T06:41:10.000Z</time>
      </trkpt>
      <trkpt lat="49.8114" lon="4.80307">
        <ele>185</ele>
        <time>2022-09-05T06:41:11.000Z</time>
      </trkpt>
      <trkpt lat="49.8114" lon="4.80311">
        <ele>185</ele>
        <time>2022-09-05T06:41:12.000Z</time>
      </trkpt>
      <trkpt lat="49.8114" lon="4.80315">
        <ele>186</ele>
        <time>2022-09-05T06:41:13.000Z</time>
      </trkpt>
      <trkpt lat="49.8114" lon="4.8032">
        <ele>186</ele>
        <time>2022-09-05T06:41:14.000Z</time>
      </trkpt>
      <trkpt lat="49.81141" lon="4.80324">
        <ele>186</ele>
        <time>2022-09-05T06:41:15.000Z</time>
      </trkpt>
      <trkpt lat="49.81141" lon="4.80328">
        <ele>186</ele>
        <time>2022-09-05T06:41:16.000Z</time>
      </trkpt>
      <trkpt lat="49.81141" lon="4.80333">
        <ele>187</ele>
        <time>2022-09-05T06:41:17.000Z</time>
      </trkpt>
      <trkpt lat="49.81142" lon="4.80336">
        <ele>187</ele>
        <time>2022-09-05T06:41:18.000Z</time>
      </trkpt>
      <trkpt lat="49.81142" lon="4.80338">
        <ele>187</ele>
        <time>2022-09-05T06:41:19.000Z</time>
      </trkpt>
      <trkpt lat="49.81142" lon="4.80341">
        <ele>188</ele>
        <time>2022-09-05T06:41:20.000Z</time>
      </trkpt>
      <trkpt lat="49.81143" lon="4.80343">
        <ele>188</ele>
        <time>2022-09-05T06:41:21.000Z</time>
      </trkpt>
      <trkpt lat="49.81145" lon="4.80345">
        <ele>188</ele>
        <time>2022-09-05T06:41:22.000Z</time>
      </trkpt>
      <trkpt lat="49.81147" lon="4.80347">
        <ele>188</ele>
        <time>2022-09-05T06:41:23.000Z</time>
      </trkpt>
      <trkpt lat="49.81149" lon="4.8035">
        <ele>189</ele>
        <time>2022-09-05T06:41:24.000Z</time>
      </trkpt>
      <trkpt lat="49.81151" lon="4.80352">
        <ele>189</ele>
        <time>2022-09-05T06:41:25.000Z</time>
      </trkpt>
      <trkpt lat="49.81152" lon="4.80352">
        <ele>189</ele>
        <time>2022-09-05T06:41:26.000Z</time>
      </trkpt>
      <trkpt lat="49.81154" lon="4.80353">
        <ele>189</ele>
        <time>2022-09-05T06:41:27.000Z</time>
      </trkpt>
      <trkpt lat="49.81155" lon="4.80352">
        <ele>189</ele>
        <time>2022-09-05T06:41:28.000Z</time>
      </trkpt>
      <trkpt lat="49.81157" lon="4.80351">
        <ele>190</ele>
        <time>2022-09-05T06:41:29.000Z</time>
      </trkpt>
      <trkpt lat="49.81158" lon="4.80348">
        <ele>190</ele>
        <time>2022-09-05T06:41:30.000Z</time>
      </trkpt>
      <trkpt lat="49.81159" lon="4.80346">
        <ele>190</ele>
        <time>2022-09-05T06:41:31.000Z</time>
      </trkpt>
      <trkpt lat="49.8116" lon="4.80343">
        <ele>191</ele>
        <time>2022-09-05T06:41:32.000Z</time>
      </trkpt>
      <trkpt lat="49.81161" lon="4.8034">
        <ele>191</ele>
        <time>2022-09-05T06:41:33.000Z</time>
      </trkpt>
      <trkpt lat="49.81162" lon="4.80337">
        <ele>191</ele>
        <time>2022-09-05T06:41:34.000Z</time>
      </trkpt>
      <trkpt lat="49.81164" lon="4.80333">
        <ele>192</ele>
        <time>2022-09-05T06:41:35.000Z</time>
      </trkpt>
      <trkpt lat="49.81166" lon="4.80328">
        <ele>192</ele>
        <time>2022-09-05T06:41:36.000Z</time>
      </trkpt>
      <trkpt lat="49.81167" lon="4.80325">
        <ele>193</ele>
        <time>2022-09-05T06:41:37.000Z</time>
      </trkpt>
      <trkpt lat="49.81169" lon="4.80322">
        <ele>193</ele>
        <time>2022-09-05T06:41:38.000Z</time>
      </trkpt>
      <trkpt lat="49.81171" lon="4.80318">
        <ele>193</ele>
        <time>2022-09-05T06:41:39.000Z</time>
      </trkpt>
      <trkpt lat="49.81172" lon="4.80315">
        <ele>194</ele>
        <time>2022-09-05T06:41:40.000Z</time>
      </trkpt>
      <trkpt lat="49.81174" lon="4.8031">
        <ele>194</ele>
        <time>2022-09-05T06:41:41.000Z</time>
      </trkpt>
      <trkpt lat="49.81175" lon="4.80305">
        <ele>194</ele>
        <time>2022-09-05T06:41:42.000Z</time>
      </trkpt>
      <trkpt lat="49.81176" lon="4.80301">
        <ele>195</ele>
        <time>2022-09-05T06:41:43.000Z</time>
      </trkpt>
      <trkpt lat="49.81178" lon="4.80296">
        <ele>195</ele>
        <time>2022-09-05T06:41:44.000Z</time>
      </trkpt>
      <trkpt lat="49.81179" lon="4.80292">
        <ele>195</ele>
        <time>2022-09-05T06:41:45.000Z</time>
      </trkpt>
      <trkpt lat="49.81181" lon="4.80288">
        <ele>196</ele>
        <time>2022-09-05T06:41:46.000Z</time>
      </trkpt>
      <trkpt lat="49.81183" lon="4.80283">
        <ele>196</ele>
        <time>2022-09-05T06:41:47.000Z</time>
      </trkpt>
      <trkpt lat="49.81184" lon="4.80279">
        <ele>196</ele>
        <time>2022-09-05T06:41:48.000Z</time>
      </trkpt>
      <trkpt lat="49.81186" lon="4.80274">
        <ele>196</ele>
        <time>2022-09-05T06:41:49.000Z</time>
      </trkpt>
      <trkpt lat="49.81189" lon="4.80269">
        <ele>196</ele>
        <time>2022-09-05T06:41:50.000Z</time>
      </trkpt>
      <trkpt lat="49.81191" lon="4.80264">
        <ele>196</ele>
        <time>2022-09-05T06:41:51.000Z</time>
      </trkpt>
      <trkpt lat="49.81193" lon="4.80258">
        <ele>197</ele>
        <time>2022-09-05T06:41:52.000Z</time>
      </trkpt>
      <trkpt lat="49.81195" lon="4.80253">
        <ele>197</ele>
        <time>2022-09-05T06:41:53.000Z</time>
      </trkpt>
      <trkpt lat="49.81197" lon="4.80246">
        <ele>197</ele>
        <time>2022-09-05T06:41:54.000Z</time>
      </trkpt>
      <trkpt lat="49.81199" lon="4.8024">
        <ele>197</ele>
        <time>2022-09-05T06:41:55.000Z</time>
      </trkpt>
      <trkpt lat="49.81202" lon="4.80234">
        <ele>197</ele>
        <time>2022-09-05T06:41:56.000Z</time>
      </trkpt>
      <trkpt lat="49.81204" lon="4.80227">
        <ele>198</ele>
        <time>2022-09-05T06:41:57.000Z</time>
      </trkpt>
      <trkpt lat="49.81206" lon="4.80221">
        <ele>198</ele>
        <time>2022-09-05T06:41:58.000Z</time>
      </trkpt>
      <trkpt lat="49.81209" lon="4.80216">
        <ele>198</ele>
        <time>2022-09-05T06:41:59.000Z</time>
      </trkpt>
      <trkpt lat="49.81211" lon="4.8021">
        <ele>198</ele>
        <time>2022-09-05T06:42:00.000Z</time>
      </trkpt>
      <trkpt lat="49.81213" lon="4.80204">
        <ele>198</ele>
        <time>2022-09-05T06:42:01.000Z</time>
      </trkpt>
      <trkpt lat="49.81216" lon="4.80197">
        <ele>198</ele>
        <time>2022-09-05T06:42:02.000Z</time>
      </trkpt>
      <trkpt lat="49.81219" lon="4.80192">
        <ele>198</ele>
        <time>2022-09-05T06:42:03.000Z</time>
      </trkpt>
      <trkpt lat="49.81221" lon="4.80186">
        <ele>199</ele>
        <time>2022-09-05T06:42:04.000Z</time>
      </trkpt>
      <trkpt lat="49.81223" lon="4.80179">
        <ele>199</ele>
        <time>2022-09-05T06:42:05.000Z</time>
      </trkpt>
      <trkpt lat="49.81225" lon="4.80172">
        <ele>199</ele>
        <time>2022-09-05T06:42:06.000Z</time>
      </trkpt>
      <trkpt lat="49.81228" lon="4.80165">
        <ele>199</ele>
        <time>2022-09-05T06:42:07.000Z</time>
      </trkpt>
      <trkpt lat="49.8123" lon="4.80158">
        <ele>200</ele>
        <time>2022-09-05T06:42:08.000Z</time>
      </trkpt>
      <trkpt lat="49.81233" lon="4.80152">
        <ele>200</ele>
        <time>2022-09-05T06:42:09.000Z</time>
      </trkpt>
      <trkpt lat="49.81235" lon="4.80145">
        <ele>200</ele>
        <time>2022-09-05T06:42:10.000Z</time>
      </trkpt>
      <trkpt lat="49.81238" lon="4.80138">
        <ele>200</ele>
        <time>2022-09-05T06:42:11.000Z</time>
      </trkpt>
      <trkpt lat="49.81241" lon="4.80132">
        <ele>200</ele>
        <time>2022-09-05T06:42:12.000Z</time>
      </trkpt>
      <trkpt lat="49.81243" lon="4.80125">
        <ele>200</ele>
        <time>2022-09-05T06:42:13.000Z</time>
      </trkpt>
      <trkpt lat="49.81246" lon="4.80119">
        <ele>200</ele>
        <time>2022-09-05T06:42:14.000Z</time>
      </trkpt>
      <trkpt lat="49.81248" lon="4.80113">
        <ele>201</ele>
        <time>2022-09-05T06:42:15.000Z</time>
      </trkpt>
      <trkpt lat="49.81251" lon="4.80108">
        <ele>201</ele>
        <time>2022-09-05T06:42:16.000Z</time>
      </trkpt>
      <trkpt lat="49.81253" lon="4.80102">
        <ele>201</ele>
        <time>2022-09-05T06:42:17.000Z</time>
      </trkpt>
      <trkpt lat="49.81256" lon="4.80096">
        <ele>201</ele>
        <time>2022-09-05T06:42:18.000Z</time>
      </trkpt>
      <trkpt lat="49.81258" lon="4.8009">
        <ele>202</ele>
        <time>2022-09-05T06:42:19.000Z</time>
      </trkpt>
      <trkpt lat="49.8126" lon="4.80084">
        <ele>202</ele>
        <time>2022-09-05T06:42:20.000Z</time>
      </trkpt>
      <trkpt lat="49.81263" lon="4.80078">
        <ele>202</ele>
        <time>2022-09-05T06:42:21.000Z</time>
      </trkpt>
      <trkpt lat="49.81265" lon="4.80071">
        <ele>202</ele>
        <time>2022-09-05T06:42:22.000Z</time>
      </trkpt>
      <trkpt lat="49.81268" lon="4.80064">
        <ele>202</ele>
        <time>2022-09-05T06:42:23.000Z</time>
      </trkpt>
      <trkpt lat="49.8127" lon="4.80058">
        <ele>202</ele>
        <time>2022-09-05T06:42:24.000Z</time>
      </trkpt>
      <trkpt lat="49.81273" lon="4.80051">
        <ele>203</ele>
        <time>2022-09-05T06:42:25.000Z</time>
      </trkpt>
      <trkpt lat="49.81275" lon="4.80044">
        <ele>203</ele>
        <time>2022-09-05T06:42:26.000Z</time>
      </trkpt>
      <trkpt lat="49.81278" lon="4.80038">
        <ele>203</ele>
        <time>2022-09-05T06:42:27.000Z</time>
      </trkpt>
      <trkpt lat="49.81281" lon="4.80032">
        <ele>203</ele>
        <time>2022-09-05T06:42:28.000Z</time>
      </trkpt>
      <trkpt lat="49.81284" lon="4.80026">
        <ele>203</ele>
        <time>2022-09-05T06:42:29.000Z</time>
      </trkpt>
      <trkpt lat="49.81287" lon="4.80019">
        <ele>203</ele>
        <time>2022-09-05T06:42:30.000Z</time>
      </trkpt>
      <trkpt lat="49.8129" lon="4.80013">
        <ele>203</ele>
        <time>2022-09-05T06:42:31.000Z</time>
      </trkpt>
      <trkpt lat="49.81293" lon="4.80006">
        <ele>203</ele>
        <time>2022-09-05T06:42:32.000Z</time>
      </trkpt>
      <trkpt lat="49.81296" lon="4.79999">
        <ele>203</ele>
        <time>2022-09-05T06:42:33.000Z</time>
      </trkpt>
      <trkpt lat="49.81299" lon="4.79992">
        <ele>203</ele>
        <time>2022-09-05T06:42:34.000Z</time>
      </trkpt>
      <trkpt lat="49.81302" lon="4.79985">
        <ele>204</ele>
        <time>2022-09-05T06:42:35.000Z</time>
      </trkpt>
      <trkpt lat="49.81305" lon="4.79978">
        <ele>204</ele>
        <time>2022-09-05T06:42:36.000Z</time>
      </trkpt>
      <trkpt lat="49.81309" lon="4.79972">
        <ele>204</ele>
        <time>2022-09-05T06:42:37.000Z</time>
      </trkpt>
      <trkpt lat="49.81312" lon="4.79964">
        <ele>204</ele>
        <time>2022-09-05T06:42:38.000Z</time>
      </trkpt>
      <trkpt lat="49.81315" lon="4.79957">
        <ele>204</ele>
        <time>2022-09-05T06:42:39.000Z</time>
      </trkpt>
      <trkpt lat="49.81318" lon="4.7995">
        <ele>204</ele>
        <time>2022-09-05T06:42:40.000Z</time>
      </trkpt>
      <trkpt lat="49.8132" lon="4.79943">
        <ele>204</ele>
        <time>2022-09-05T06:42:41.000Z</time>
      </trkpt>
      <trkpt lat="49.81323" lon="4.79935">
        <ele>204</ele>
        <time>2022-09-05T06:42:42.000Z</time>
      </trkpt>
      <trkpt lat="49.81326" lon="4.79929">
        <ele>204</ele>
        <time>2022-09-05T06:42:43.000Z</time>
      </trkpt>
      <trkpt lat="49.81329" lon="4.79922">
        <ele>204</ele>
        <time>2022-09-05T06:42:44.000Z</time>
      </trkpt>
      <trkpt lat="49.81331" lon="4.79914">
        <ele>205</ele>
        <time>2022-09-05T06:42:45.000Z</time>
      </trkpt>
      <trkpt lat="49.81335" lon="4.79907">
        <ele>205</ele>
        <time>2022-09-05T06:42:46.000Z</time>
      </trkpt>
      <trkpt lat="49.81337" lon="4.799">
        <ele>205</ele>
        <time>2022-09-05T06:42:47.000Z</time>
      </trkpt>
      <trkpt lat="49.8134" lon="4.79892">
        <ele>205</ele>
        <time>2022-09-05T06:42:48.000Z</time>
      </trkpt>
      <trkpt lat="49.81342" lon="4.79884">
        <ele>205</ele>
        <time>2022-09-05T06:42:49.000Z</time>
      </trkpt>
      <trkpt lat="49.81345" lon="4.79876">
        <ele>205</ele>
        <time>2022-09-05T06:42:50.000Z</time>
      </trkpt>
      <trkpt lat="49.81348" lon="4.79869">
        <ele>205</ele>
        <time>2022-09-05T06:42:51.000Z</time>
      </trkpt>
      <trkpt lat="49.81351" lon="4.79862">
        <ele>205</ele>
        <time>2022-09-05T06:42:52.000Z</time>
      </trkpt>
      <trkpt lat="49.81353" lon="4.79854">
        <ele>205</ele>
        <time>2022-09-05T06:42:53.000Z</time>
      </trkpt>
      <trkpt lat="49.81355" lon="4.79848">
        <ele>205</ele>
        <time>2022-09-05T06:42:54.000Z</time>
      </trkpt>
      <trkpt lat="49.81358" lon="4.79841">
        <ele>205</ele>
        <time>2022-09-05T06:42:55.000Z</time>
      </trkpt>
      <trkpt lat="49.8136" lon="4.79833">
        <ele>205</ele>
        <time>2022-09-05T06:42:56.000Z</time>
      </trkpt>
      <trkpt lat="49.81363" lon="4.79826">
        <ele>205</ele>
        <time>2022-09-05T06:42:57.000Z</time>
      </trkpt>
      <trkpt lat="49.81366" lon="4.79818">
        <ele>205</ele>
        <time>2022-09-05T06:42:58.000Z</time>
      </trkpt>
      <trkpt lat="49.81369" lon="4.79809">
        <ele>205</ele>
        <time>2022-09-05T06:42:59.000Z</time>
      </trkpt>
      <trkpt lat="49.81372" lon="4.79801">
        <ele>205</ele>
        <time>2022-09-05T06:43:00.000Z</time>
      </trkpt>
      <trkpt lat="49.81375" lon="4.79792">
        <ele>205</ele>
        <time>2022-09-05T06:43:01.000Z</time>
      </trkpt>
      <trkpt lat="49.81378" lon="4.79784">
        <ele>205</ele>
        <time>2022-09-05T06:43:02.000Z</time>
      </trkpt>
      <trkpt lat="49.81381" lon="4.79776">
        <ele>205</ele>
        <time>2022-09-05T06:43:03.000Z</time>
      </trkpt>
      <trkpt lat="49.81384" lon="4.79767">
        <ele>205</ele>
        <time>2022-09-05T06:43:04.000Z</time>
      </trkpt>
      <trkpt lat="49.81387" lon="4.79759">
        <ele>205</ele>
        <time>2022-09-05T06:43:05.000Z</time>
      </trkpt>
      <trkpt lat="49.8139" lon="4.7975">
        <ele>204</ele>
        <time>2022-09-05T06:43:06.000Z</time>
      </trkpt>
      <trkpt lat="49.81392" lon="4.79742">
        <ele>204</ele>
        <time>2022-09-05T06:43:07.000Z</time>
      </trkpt>
      <trkpt lat="49.81395" lon="4.79734">
        <ele>204</ele>
        <time>2022-09-05T06:43:08.000Z</time>
      </trkpt>
      <trkpt lat="49.81398" lon="4.79727">
        <ele>204</ele>
        <time>2022-09-05T06:43:09.000Z</time>
      </trkpt>
      <trkpt lat="49.814" lon="4.79719">
        <ele>204</ele>
        <time>2022-09-05T06:43:10.000Z</time>
      </trkpt>
      <trkpt lat="49.81403" lon="4.79711">
        <ele>204</ele>
        <time>2022-09-05T06:43:11.000Z</time>
      </trkpt>
      <trkpt lat="49.81406" lon="4.79704">
        <ele>204</ele>
        <time>2022-09-05T06:43:12.000Z</time>
      </trkpt>
      <trkpt lat="49.81408" lon="4.79697">
        <ele>204</ele>
        <time>2022-09-05T06:43:13.000Z</time>
      </trkpt>
      <trkpt lat="49.81411" lon="4.79691">
        <ele>204</ele>
        <time>2022-09-05T06:43:14.000Z</time>
      </trkpt>
      <trkpt lat="49.81412" lon="4.79683">
        <ele>204</ele>
        <time>2022-09-05T06:43:15.000Z</time>
      </trkpt>
      <trkpt lat="49.81414" lon="4.79676">
        <ele>204</ele>
        <time>2022-09-05T06:43:16.000Z</time>
      </trkpt>
      <trkpt lat="49.81415" lon="4.79668">
        <ele>204</ele>
        <time>2022-09-05T06:43:17.000Z</time>
      </trkpt>
      <trkpt lat="49.81417" lon="4.7966">
        <ele>204</ele>
        <time>2022-09-05T06:43:18.000Z</time>
      </trkpt>
      <trkpt lat="49.81418" lon="4.79652">
        <ele>204</ele>
        <time>2022-09-05T06:43:19.000Z</time>
      </trkpt>
      <trkpt lat="49.8142" lon="4.79643">
        <ele>204</ele>
        <time>2022-09-05T06:43:20.000Z</time>
      </trkpt>
      <trkpt lat="49.81422" lon="4.79634">
        <ele>204</ele>
        <time>2022-09-05T06:43:21.000Z</time>
      </trkpt>
      <trkpt lat="49.81424" lon="4.79625">
        <ele>204</ele>
        <time>2022-09-05T06:43:22.000Z</time>
      </trkpt>
      <trkpt lat="49.81425" lon="4.79617">
        <ele>204</ele>
        <time>2022-09-05T06:43:23.000Z</time>
      </trkpt>
      <trkpt lat="49.81426" lon="4.79608">
        <ele>204</ele>
        <time>2022-09-05T06:43:24.000Z</time>
      </trkpt>
      <trkpt lat="49.81427" lon="4.79601">
        <ele>204</ele>
        <time>2022-09-05T06:43:25.000Z</time>
      </trkpt>
      <trkpt lat="49.81428" lon="4.79594">
        <ele>204</ele>
        <time>2022-09-05T06:43:26.000Z</time>
      </trkpt>
      <trkpt lat="49.81429" lon="4.79587">
        <ele>204</ele>
        <time>2022-09-05T06:43:27.000Z</time>
      </trkpt>
      <trkpt lat="49.81429" lon="4.79577">
        <ele>204</ele>
        <time>2022-09-05T06:43:28.000Z</time>
      </trkpt>
      <trkpt lat="49.8143" lon="4.79568">
        <ele>204</ele>
        <time>2022-09-05T06:43:29.000Z</time>
      </trkpt>
      <trkpt lat="49.81431" lon="4.79558">
        <ele>204</ele>
        <time>2022-09-05T06:43:30.000Z</time>
      </trkpt>
      <trkpt lat="49.81432" lon="4.79549">
        <ele>204</ele>
        <time>2022-09-05T06:43:31.000Z</time>
      </trkpt>
      <trkpt lat="49.81432" lon="4.7954">
        <ele>204</ele>
        <time>2022-09-05T06:43:32.000Z</time>
      </trkpt>
      <trkpt lat="49.81433" lon="4.79531">
        <ele>204</ele>
        <time>2022-09-05T06:43:33.000Z</time>
      </trkpt>
      <trkpt lat="49.81434" lon="4.79523">
        <ele>204</ele>
        <time>2022-09-05T06:43:34.000Z</time>
      </trkpt>
      <trkpt lat="49.81434" lon="4.79514">
        <ele>204</ele>
        <time>2022-09-05T06:43:35.000Z</time>
      </trkpt>
      <trkpt lat="49.81435" lon="4.79506">
        <ele>204</ele>
        <time>2022-09-05T06:43:36.000Z</time>
      </trkpt>
      <trkpt lat="49.81435" lon="4.79498">
        <ele>204</ele>
        <time>2022-09-05T06:43:37.000Z</time>
      </trkpt>
      <trkpt lat="49.81436" lon="4.7949">
        <ele>204</ele>
        <time>2022-09-05T06:43:38.000Z</time>
      </trkpt>
      <trkpt lat="49.81436" lon="4.79483">
        <ele>204</ele>
        <time>2022-09-05T06:43:39.000Z</time>
      </trkpt>
      <trkpt lat="49.81437" lon="4.79476">
        <ele>204</ele>
        <time>2022-09-05T06:43:40.000Z</time>
      </trkpt>
      <trkpt lat="49.81437" lon="4.79468">
        <ele>204</ele>
        <time>2022-09-05T06:43:41.000Z</time>
      </trkpt>
      <trkpt lat="49.81438" lon="4.79461">
        <ele>204</ele>
        <time>2022-09-05T06:43:42.000Z</time>
      </trkpt>
      <trkpt lat="49.81438" lon="4.79453">
        <ele>204</ele>
        <time>2022-09-05T06:43:43.000Z</time>
      </trkpt>
      <trkpt lat="49.81439" lon="4.79445">
        <ele>203</ele>
        <time>2022-09-05T06:43:44.000Z</time>
      </trkpt>
      <trkpt lat="49.8144" lon="4.79436">
        <ele>203</ele>
        <time>2022-09-05T06:43:45.000Z</time>
      </trkpt>
      <trkpt lat="49.81441" lon="4.79428">
        <ele>203</ele>
        <time>2022-09-05T06:43:46.000Z</time>
      </trkpt>
      <trkpt lat="49.81442" lon="4.7942">
        <ele>203</ele>
        <time>2022-09-05T06:43:47.000Z</time>
      </trkpt>
      <trkpt lat="49.81443" lon="4.79412">
        <ele>203</ele>
        <time>2022-09-05T06:43:48.000Z</time>
      </trkpt>
      <trkpt lat="49.81444" lon="4.79403">
        <ele>203</ele>
        <time>2022-09-05T06:43:49.000Z</time>
      </trkpt>
      <trkpt lat="49.81446" lon="4.79396">
        <ele>203</ele>
        <time>2022-09-05T06:43:50.000Z</time>
      </trkpt>
      <trkpt lat="49.81449" lon="4.7939">
        <ele>203</ele>
        <time>2022-09-05T06:43:51.000Z</time>
      </trkpt>
      <trkpt lat="49.81452" lon="4.79385">
        <ele>203</ele>
        <time>2022-09-05T06:43:52.000Z</time>
      </trkpt>
      <trkpt lat="49.81453" lon="4.79378">
        <ele>203</ele>
        <time>2022-09-05T06:43:53.000Z</time>
      </trkpt>
      <trkpt lat="49.81453" lon="4.79371">
        <ele>203</ele>
        <time>2022-09-05T06:43:54.000Z</time>
      </trkpt>
      <trkpt lat="49.81453" lon="4.79363">
        <ele>203</ele>
        <time>2022-09-05T06:43:55.000Z</time>
      </trkpt>
      <trkpt lat="49.81453" lon="4.79353">
        <ele>203</ele>
        <time>2022-09-05T06:43:56.000Z</time>
      </trkpt>
      <trkpt lat="49.81453" lon="4.79344">
        <ele>203</ele>
        <time>2022-09-05T06:43:57.000Z</time>
      </trkpt>
      <trkpt lat="49.81454" lon="4.79334">
        <ele>203</ele>
        <time>2022-09-05T06:43:58.000Z</time>
      </trkpt>
      <trkpt lat="49.81455" lon="4.79326">
        <ele>203</ele>
        <time>2022-09-05T06:43:59.000Z</time>
      </trkpt>
      <trkpt lat="49.81455" lon="4.79318">
        <ele>203</ele>
        <time>2022-09-05T06:44:00.000Z</time>
      </trkpt>
      <trkpt lat="49.81456" lon="4.79309">
        <ele>203</ele>
        <time>2022-09-05T06:44:01.000Z</time>
      </trkpt>
      <trkpt lat="49.81457" lon="4.793">
        <ele>203</ele>
        <time>2022-09-05T06:44:02.000Z</time>
      </trkpt>
      <trkpt lat="49.81458" lon="4.79292">
        <ele>203</ele>
        <time>2022-09-05T06:44:03.000Z</time>
      </trkpt>
      <trkpt lat="49.81458" lon="4.79284">
        <ele>203</ele>
        <time>2022-09-05T06:44:04.000Z</time>
      </trkpt>
      <trkpt lat="49.81459" lon="4.79275">
        <ele>203</ele>
        <time>2022-09-05T06:44:05.000Z</time>
      </trkpt>
      <trkpt lat="49.8146" lon="4.79266">
        <ele>202</ele>
        <time>2022-09-05T06:44:06.000Z</time>
      </trkpt>
      <trkpt lat="49.81461" lon="4.79257">
        <ele>202</ele>
        <time>2022-09-05T06:44:07.000Z</time>
      </trkpt>
      <trkpt lat="49.81463" lon="4.79248">
        <ele>202</ele>
        <time>2022-09-05T06:44:08.000Z</time>
      </trkpt>
      <trkpt lat="49.81463" lon="4.79239">
        <ele>202</ele>
        <time>2022-09-05T06:44:09.000Z</time>
      </trkpt>
      <trkpt lat="49.81465" lon="4.7923">
        <ele>202</ele>
        <time>2022-09-05T06:44:10.000Z</time>
      </trkpt>
      <trkpt lat="49.81467" lon="4.79222">
        <ele>202</ele>
        <time>2022-09-05T06:44:11.000Z</time>
      </trkpt>
      <trkpt lat="49.81468" lon="4.79213">
        <ele>202</ele>
        <time>2022-09-05T06:44:12.000Z</time>
      </trkpt>
      <trkpt lat="49.81469" lon="4.79205">
        <ele>202</ele>
        <time>2022-09-05T06:44:13.000Z</time>
      </trkpt>
      <trkpt lat="49.81469" lon="4.79197">
        <ele>201</ele>
        <time>2022-09-05T06:44:14.000Z</time>
      </trkpt>
      <trkpt lat="49.8147" lon="4.79188">
        <ele>201</ele>
        <time>2022-09-05T06:44:15.000Z</time>
      </trkpt>
      <trkpt lat="49.81469" lon="4.79178">
        <ele>201</ele>
        <time>2022-09-05T06:44:16.000Z</time>
      </trkpt>
      <trkpt lat="49.81469" lon="4.79168">
        <ele>201</ele>
        <time>2022-09-05T06:44:17.000Z</time>
      </trkpt>
      <trkpt lat="49.81469" lon="4.79157">
        <ele>201</ele>
        <time>2022-09-05T06:44:18.000Z</time>
      </trkpt>
      <trkpt lat="49.81469" lon="4.79147">
        <ele>201</ele>
        <time>2022-09-05T06:44:19.000Z</time>
      </trkpt>
      <trkpt lat="49.81469" lon="4.79137">
        <ele>201</ele>
        <time>2022-09-05T06:44:20.000Z</time>
      </trkpt>
      <trkpt lat="49.8147" lon="4.79126">
        <ele>201</ele>
        <time>2022-09-05T06:44:21.000Z</time>
      </trkpt>
      <trkpt lat="49.81471" lon="4.79116">
        <ele>201</ele>
        <time>2022-09-05T06:44:22.000Z</time>
      </trkpt>
      <trkpt lat="49.81473" lon="4.79106">
        <ele>201</ele>
        <time>2022-09-05T06:44:23.000Z</time>
      </trkpt>
      <trkpt lat="49.81476" lon="4.79097">
        <ele>201</ele>
        <time>2022-09-05T06:44:24.000Z</time>
      </trkpt>
      <trkpt lat="49.81478" lon="4.79089">
        <ele>201</ele>
        <time>2022-09-05T06:44:25.000Z</time>
      </trkpt>
      <trkpt lat="49.8148" lon="4.79082">
        <ele>201</ele>
        <time>2022-09-05T06:44:26.000Z</time>
      </trkpt>
      <trkpt lat="49.81481" lon="4.79076">
        <ele>201</ele>
        <time>2022-09-05T06:44:27.000Z</time>
      </trkpt>
      <trkpt lat="49.81482" lon="4.7907">
        <ele>201</ele>
        <time>2022-09-05T06:44:28.000Z</time>
      </trkpt>
      <trkpt lat="49.81482" lon="4.79062">
        <ele>201</ele>
        <time>2022-09-05T06:44:29.000Z</time>
      </trkpt>
      <trkpt lat="49.81483" lon="4.79055">
        <ele>201</ele>
        <time>2022-09-05T06:44:30.000Z</time>
      </trkpt>
      <trkpt lat="49.81484" lon="4.79047">
        <ele>201</ele>
        <time>2022-09-05T06:44:31.000Z</time>
      </trkpt>
      <trkpt lat="49.81485" lon="4.7904">
        <ele>201</ele>
        <time>2022-09-05T06:44:32.000Z</time>
      </trkpt>
      <trkpt lat="49.81487" lon="4.79032">
        <ele>201</ele>
        <time>2022-09-05T06:44:33.000Z</time>
      </trkpt>
      <trkpt lat="49.81488" lon="4.79025">
        <ele>201</ele>
        <time>2022-09-05T06:44:34.000Z</time>
      </trkpt>
      <trkpt lat="49.81489" lon="4.79017">
        <ele>201</ele>
        <time>2022-09-05T06:44:35.000Z</time>
      </trkpt>
      <trkpt lat="49.81491" lon="4.79009">
        <ele>201</ele>
        <time>2022-09-05T06:44:36.000Z</time>
      </trkpt>
      <trkpt lat="49.81492" lon="4.79">
        <ele>201</ele>
        <time>2022-09-05T06:44:37.000Z</time>
      </trkpt>
      <trkpt lat="49.81493" lon="4.78991">
        <ele>201</ele>
        <time>2022-09-05T06:44:38.000Z</time>
      </trkpt>
      <trkpt lat="49.81495" lon="4.78982">
        <ele>201</ele>
        <time>2022-09-05T06:44:39.000Z</time>
      </trkpt>
      <trkpt lat="49.81496" lon="4.78973">
        <ele>201</ele>
        <time>2022-09-05T06:44:40.000Z</time>
      </trkpt>
      <trkpt lat="49.81498" lon="4.78965">
        <ele>201</ele>
        <time>2022-09-05T06:44:41.000Z</time>
      </trkpt>
      <trkpt lat="49.81499" lon="4.78957">
        <ele>200</ele>
        <time>2022-09-05T06:44:42.000Z</time>
      </trkpt>
      <trkpt lat="49.815" lon="4.78948">
        <ele>200</ele>
        <time>2022-09-05T06:44:43.000Z</time>
      </trkpt>
      <trkpt lat="49.81501" lon="4.78939">
        <ele>200</ele>
        <time>2022-09-05T06:44:44.000Z</time>
      </trkpt>
      <trkpt lat="49.81501" lon="4.78929">
        <ele>200</ele>
        <time>2022-09-05T06:44:45.000Z</time>
      </trkpt>
      <trkpt lat="49.81502" lon="4.78919">
        <ele>200</ele>
        <time>2022-09-05T06:44:46.000Z</time>
      </trkpt>
      <trkpt lat="49.81504" lon="4.7891">
        <ele>200</ele>
        <time>2022-09-05T06:44:47.000Z</time>
      </trkpt>
      <trkpt lat="49.81505" lon="4.78901">
        <ele>200</ele>
        <time>2022-09-05T06:44:48.000Z</time>
      </trkpt>
      <trkpt lat="49.81506" lon="4.78892">
        <ele>200</ele>
        <time>2022-09-05T06:44:49.000Z</time>
      </trkpt>
      <trkpt lat="49.81508" lon="4.78884">
        <ele>200</ele>
        <time>2022-09-05T06:44:50.000Z</time>
      </trkpt>
      <trkpt lat="49.8151" lon="4.78875">
        <ele>200</ele>
        <time>2022-09-05T06:44:51.000Z</time>
      </trkpt>
      <trkpt lat="49.81513" lon="4.78866">
        <ele>199</ele>
        <time>2022-09-05T06:44:52.000Z</time>
      </trkpt>
      <trkpt lat="49.81515" lon="4.78857">
        <ele>199</ele>
        <time>2022-09-05T06:44:53.000Z</time>
      </trkpt>
      <trkpt lat="49.81517" lon="4.78849">
        <ele>199</ele>
        <time>2022-09-05T06:44:54.000Z</time>
      </trkpt>
      <trkpt lat="49.81519" lon="4.7884">
        <ele>199</ele>
        <time>2022-09-05T06:44:55.000Z</time>
      </trkpt>
      <trkpt lat="49.81521" lon="4.78831">
        <ele>199</ele>
        <time>2022-09-05T06:44:56.000Z</time>
      </trkpt>
      <trkpt lat="49.81523" lon="4.78823">
        <ele>199</ele>
        <time>2022-09-05T06:44:57.000Z</time>
      </trkpt>
      <trkpt lat="49.81526" lon="4.78815">
        <ele>198</ele>
        <time>2022-09-05T06:44:58.000Z</time>
      </trkpt>
      <trkpt lat="49.81529" lon="4.78807">
        <ele>198</ele>
        <time>2022-09-05T06:44:59.000Z</time>
      </trkpt>
      <trkpt lat="49.81532" lon="4.78799">
        <ele>198</ele>
        <time>2022-09-05T06:45:00.000Z</time>
      </trkpt>
      <trkpt lat="49.81535" lon="4.78792">
        <ele>198</ele>
        <time>2022-09-05T06:45:01.000Z</time>
      </trkpt>
      <trkpt lat="49.81538" lon="4.78784">
        <ele>198</ele>
        <time>2022-09-05T06:45:02.000Z</time>
      </trkpt>
      <trkpt lat="49.81541" lon="4.78776">
        <ele>198</ele>
        <time>2022-09-05T06:45:03.000Z</time>
      </trkpt>
      <trkpt lat="49.81544" lon="4.78768">
        <ele>197</ele>
        <time>2022-09-05T06:45:04.000Z</time>
      </trkpt>
      <trkpt lat="49.81547" lon="4.78761">
        <ele>197</ele>
        <time>2022-09-05T06:45:05.000Z</time>
      </trkpt>
      <trkpt lat="49.8155" lon="4.78753">
        <ele>197</ele>
        <time>2022-09-05T06:45:06.000Z</time>
      </trkpt>
      <trkpt lat="49.81553" lon="4.78744">
        <ele>197</ele>
        <time>2022-09-05T06:45:07.000Z</time>
      </trkpt>
      <trkpt lat="49.81556" lon="4.78737">
        <ele>196</ele>
        <time>2022-09-05T06:45:08.000Z</time>
      </trkpt>
      <trkpt lat="49.81559" lon="4.78731">
        <ele>196</ele>
        <time>2022-09-05T06:45:09.000Z</time>
      </trkpt>
      <trkpt lat="49.81562" lon="4.78726">
        <ele>196</ele>
        <time>2022-09-05T06:45:10.000Z</time>
      </trkpt>
      <trkpt lat="49.81564" lon="4.78722">
        <ele>196</ele>
        <time>2022-09-05T06:45:11.000Z</time>
      </trkpt>
      <trkpt lat="49.81565" lon="4.78719">
        <ele>196</ele>
        <time>2022-09-05T06:45:12.000Z</time>
      </trkpt>
      <trkpt lat="49.81567" lon="4.78715">
        <ele>195</ele>
        <time>2022-09-05T06:45:13.000Z</time>
      </trkpt>
      <trkpt lat="49.81568" lon="4.78711">
        <ele>195</ele>
        <time>2022-09-05T06:45:14.000Z</time>
      </trkpt>
      <trkpt lat="49.8157" lon="4.78707">
        <ele>195</ele>
        <time>2022-09-05T06:45:15.000Z</time>
      </trkpt>
      <trkpt lat="49.81572" lon="4.78703">
        <ele>195</ele>
        <time>2022-09-05T06:45:16.000Z</time>
      </trkpt>
      <trkpt lat="49.81573" lon="4.78697">
        <ele>194</ele>
        <time>2022-09-05T06:45:17.000Z</time>
      </trkpt>
      <trkpt lat="49.81575" lon="4.78692">
        <ele>194</ele>
        <time>2022-09-05T06:45:18.000Z</time>
      </trkpt>
      <trkpt lat="49.81577" lon="4.78687">
        <ele>194</ele>
        <time>2022-09-05T06:45:19.000Z</time>
      </trkpt>
      <trkpt lat="49.8158" lon="4.78683">
        <ele>194</ele>
        <time>2022-09-05T06:45:20.000Z</time>
      </trkpt>
      <trkpt lat="49.81582" lon="4.78679">
        <ele>193</ele>
        <time>2022-09-05T06:45:21.000Z</time>
      </trkpt>
      <trkpt lat="49.81584" lon="4.78675">
        <ele>193</ele>
        <time>2022-09-05T06:45:22.000Z</time>
      </trkpt>
      <trkpt lat="49.81587" lon="4.78672">
        <ele>193</ele>
        <time>2022-09-05T06:45:23.000Z</time>
      </trkpt>
      <trkpt lat="49.81589" lon="4.78669">
        <ele>193</ele>
        <time>2022-09-05T06:45:24.000Z</time>
      </trkpt>
      <trkpt lat="49.81592" lon="4.78669">
        <ele>193</ele>
        <time>2022-09-05T06:45:25.000Z</time>
      </trkpt>
      <trkpt lat="49.81595" lon="4.78669">
        <ele>192</ele>
        <time>2022-09-05T06:45:26.000Z</time>
      </trkpt>
      <trkpt lat="49.81598" lon="4.78669">
        <ele>192</ele>
        <time>2022-09-05T06:45:27.000Z</time>
      </trkpt>
      <trkpt lat="49.81602" lon="4.78669">
        <ele>192</ele>
        <time>2022-09-05T06:45:28.000Z</time>
      </trkpt>
      <trkpt lat="49.81607" lon="4.78671">
        <ele>192</ele>
        <time>2022-09-05T06:45:29.000Z</time>
      </trkpt>
      <trkpt lat="49.81611" lon="4.78674">
        <ele>191</ele>
        <time>2022-09-05T06:45:30.000Z</time>
      </trkpt>
      <trkpt lat="49.81616" lon="4.78677">
        <ele>191</ele>
        <time>2022-09-05T06:45:31.000Z</time>
      </trkpt>
      <trkpt lat="49.8162" lon="4.7868">
        <ele>191</ele>
        <time>2022-09-05T06:45:32.000Z</time>
      </trkpt>
      <trkpt lat="49.81624" lon="4.78682">
        <ele>191</ele>
        <time>2022-09-05T06:45:33.000Z</time>
      </trkpt>
      <trkpt lat="49.81629" lon="4.78683">
        <ele>191</ele>
        <time>2022-09-05T06:45:34.000Z</time>
      </trkpt>
      <trkpt lat="49.81634" lon="4.78685">
        <ele>190</ele>
        <time>2022-09-05T06:45:35.000Z</time>
      </trkpt>
      <trkpt lat="49.81638" lon="4.78687">
        <ele>190</ele>
        <time>2022-09-05T06:45:36.000Z</time>
      </trkpt>
      <trkpt lat="49.81643" lon="4.7869">
        <ele>190</ele>
        <time>2022-09-05T06:45:37.000Z</time>
      </trkpt>
      <trkpt lat="49.81647" lon="4.78691">
        <ele>190</ele>
        <time>2022-09-05T06:45:38.000Z</time>
      </trkpt>
      <trkpt lat="49.8165" lon="4.78693">
        <ele>190</ele>
        <time>2022-09-05T06:45:39.000Z</time>
      </trkpt>
      <trkpt lat="49.81655" lon="4.78696">
        <ele>190</ele>
        <time>2022-09-05T06:45:40.000Z</time>
      </trkpt>
      <trkpt lat="49.81659" lon="4.78698">
        <ele>190</ele>
        <time>2022-09-05T06:45:41.000Z</time>
      </trkpt>
      <trkpt lat="49.81663" lon="4.787">
        <ele>190</ele>
        <time>2022-09-05T06:45:42.000Z</time>
      </trkpt>
      <trkpt lat="49.81667" lon="4.78702">
        <ele>190</ele>
        <time>2022-09-05T06:45:43.000Z</time>
      </trkpt>
      <trkpt lat="49.81671" lon="4.78704">
        <ele>190</ele>
        <time>2022-09-05T06:45:44.000Z</time>
      </trkpt>
      <trkpt lat="49.81676" lon="4.78707">
        <ele>190</ele>
        <time>2022-09-05T06:45:45.000Z</time>
      </trkpt>
      <trkpt lat="49.8168" lon="4.7871">
        <ele>190</ele>
        <time>2022-09-05T06:45:46.000Z</time>
      </trkpt>
      <trkpt lat="49.81684" lon="4.78712">
        <ele>190</ele>
        <time>2022-09-05T06:45:47.000Z</time>
      </trkpt>
      <trkpt lat="49.81689" lon="4.78715">
        <ele>190</ele>
        <time>2022-09-05T06:45:48.000Z</time>
      </trkpt>
      <trkpt lat="49.81694" lon="4.78718">
        <ele>190</ele>
        <time>2022-09-05T06:45:49.000Z</time>
      </trkpt>
      <trkpt lat="49.81699" lon="4.78721">
        <ele>189</ele>
        <time>2022-09-05T06:45:50.000Z</time>
      </trkpt>
      <trkpt lat="49.81703" lon="4.78724">
        <ele>189</ele>
        <time>2022-09-05T06:45:51.000Z</time>
      </trkpt>
      <trkpt lat="49.81708" lon="4.78726">
        <ele>189</ele>
        <time>2022-09-05T06:45:52.000Z</time>
      </trkpt>
      <trkpt lat="49.81713" lon="4.7873">
        <ele>189</ele>
        <time>2022-09-05T06:45:53.000Z</time>
      </trkpt>
      <trkpt lat="49.81718" lon="4.78734">
        <ele>189</ele>
        <time>2022-09-05T06:45:54.000Z</time>
      </trkpt>
      <trkpt lat="49.81722" lon="4.78738">
        <ele>189</ele>
        <time>2022-09-05T06:45:55.000Z</time>
      </trkpt>
      <trkpt lat="49.81726" lon="4.78741">
        <ele>189</ele>
        <time>2022-09-05T06:45:56.000Z</time>
      </trkpt>
      <trkpt lat="49.81731" lon="4.78745">
        <ele>189</ele>
        <time>2022-09-05T06:45:57.000Z</time>
      </trkpt>
      <trkpt lat="49.81735" lon="4.78749">
        <ele>189</ele>
        <time>2022-09-05T06:45:58.000Z</time>
      </trkpt>
      <trkpt lat="49.81739" lon="4.78753">
        <ele>189</ele>
        <time>2022-09-05T06:45:59.000Z</time>
      </trkpt>
      <trkpt lat="49.81743" lon="4.78757">
        <ele>189</ele>
        <time>2022-09-05T06:46:00.000Z</time>
      </trkpt>
      <trkpt lat="49.81747" lon="4.78761">
        <ele>189</ele>
        <time>2022-09-05T06:46:01.000Z</time>
      </trkpt>
      <trkpt lat="49.81752" lon="4.78764">
        <ele>189</ele>
        <time>2022-09-05T06:46:02.000Z</time>
      </trkpt>
      <trkpt lat="49.81756" lon="4.78768">
        <ele>188</ele>
        <time>2022-09-05T06:46:03.000Z</time>
      </trkpt>
      <trkpt lat="49.8176" lon="4.78768">
        <ele>188</ele>
        <time>2022-09-05T06:46:04.000Z</time>
      </trkpt>
      <trkpt lat="49.81765" lon="4.78768">
        <ele>188</ele>
        <time>2022-09-05T06:46:05.000Z</time>
      </trkpt>
      <trkpt lat="49.81768" lon="4.78765">
        <ele>188</ele>
        <time>2022-09-05T06:46:06.000Z</time>
      </trkpt>
      <trkpt lat="49.8177" lon="4.78762">
        <ele>188</ele>
        <time>2022-09-05T06:46:07.000Z</time>
      </trkpt>
      <trkpt lat="49.81771" lon="4.78758">
        <ele>188</ele>
        <time>2022-09-05T06:46:08.000Z</time>
      </trkpt>
      <trkpt lat="49.81771" lon="4.78754">
        <ele>187</ele>
        <time>2022-09-05T06:46:09.000Z</time>
      </trkpt>
      <trkpt lat="49.81769" lon="4.7875">
        <ele>187</ele>
        <time>2022-09-05T06:46:10.000Z</time>
      </trkpt>
      <trkpt lat="49.81765" lon="4.78746">
        <ele>187</ele>
        <time>2022-09-05T06:46:11.000Z</time>
      </trkpt>
      <trkpt lat="49.8176" lon="4.78742">
        <ele>186</ele>
        <time>2022-09-05T06:46:12.000Z</time>
      </trkpt>
      <trkpt lat="49.81756" lon="4.78738">
        <ele>186</ele>
        <time>2022-09-05T06:46:13.000Z</time>
      </trkpt>
      <trkpt lat="49.81751" lon="4.78734">
        <ele>186</ele>
        <time>2022-09-05T06:46:14.000Z</time>
      </trkpt>
      <trkpt lat="49.81745" lon="4.78729">
        <ele>185</ele>
        <time>2022-09-05T06:46:15.000Z</time>
      </trkpt>
      <trkpt lat="49.81741" lon="4.78724">
        <ele>185</ele>
        <time>2022-09-05T06:46:16.000Z</time>
      </trkpt>
      <trkpt lat="49.81735" lon="4.78719">
        <ele>184</ele>
        <time>2022-09-05T06:46:17.000Z</time>
      </trkpt>
      <trkpt lat="49.8173" lon="4.78714">
        <ele>184</ele>
        <time>2022-09-05T06:46:18.000Z</time>
      </trkpt>
      <trkpt lat="49.81725" lon="4.78709">
        <ele>184</ele>
        <time>2022-09-05T06:46:19.000Z</time>
      </trkpt>
      <trkpt lat="49.81719" lon="4.78704">
        <ele>184</ele>
        <time>2022-09-05T06:46:20.000Z</time>
      </trkpt>
      <trkpt lat="49.81714" lon="4.78699">
        <ele>183</ele>
        <time>2022-09-05T06:46:21.000Z</time>
      </trkpt>
      <trkpt lat="49.81708" lon="4.78694">
        <ele>183</ele>
        <time>2022-09-05T06:46:22.000Z</time>
      </trkpt>
      <trkpt lat="49.81703" lon="4.78689">
        <ele>183</ele>
        <time>2022-09-05T06:46:23.000Z</time>
      </trkpt>
      <trkpt lat="49.81698" lon="4.78684">
        <ele>182</ele>
        <time>2022-09-05T06:46:24.000Z</time>
      </trkpt>
      <trkpt lat="49.81693" lon="4.78678">
        <ele>182</ele>
        <time>2022-09-05T06:46:25.000Z</time>
      </trkpt>
      <trkpt lat="49.81688" lon="4.78672">
        <ele>182</ele>
        <time>2022-09-05T06:46:26.000Z</time>
      </trkpt>
      <trkpt lat="49.81683" lon="4.78668">
        <ele>182</ele>
        <time>2022-09-05T06:46:27.000Z</time>
      </trkpt>
      <trkpt lat="49.81677" lon="4.78664">
        <ele>181</ele>
        <time>2022-09-05T06:46:28.000Z</time>
      </trkpt>
      <trkpt lat="49.81671" lon="4.7866">
        <ele>181</ele>
        <time>2022-09-05T06:46:29.000Z</time>
      </trkpt>
      <trkpt lat="49.81665" lon="4.78655">
        <ele>181</ele>
        <time>2022-09-05T06:46:30.000Z</time>
      </trkpt>
      <trkpt lat="49.81659" lon="4.78652">
        <ele>180</ele>
        <time>2022-09-05T06:46:31.000Z</time>
      </trkpt>
      <trkpt lat="49.81653" lon="4.78648">
        <ele>180</ele>
        <time>2022-09-05T06:46:32.000Z</time>
      </trkpt>
      <trkpt lat="49.81646" lon="4.78644">
        <ele>180</ele>
        <time>2022-09-05T06:46:33.000Z</time>
      </trkpt>
      <trkpt lat="49.8164" lon="4.78641">
        <ele>179</ele>
        <time>2022-09-05T06:46:34.000Z</time>
      </trkpt>
      <trkpt lat="49.81634" lon="4.78638">
        <ele>179</ele>
        <time>2022-09-05T06:46:35.000Z</time>
      </trkpt>
      <trkpt lat="49.81628" lon="4.78635">
        <ele>179</ele>
        <time>2022-09-05T06:46:36.000Z</time>
      </trkpt>
      <trkpt lat="49.81622" lon="4.78632">
        <ele>179</ele>
        <time>2022-09-05T06:46:37.000Z</time>
      </trkpt>
      <trkpt lat="49.81617" lon="4.78629">
        <ele>179</ele>
        <time>2022-09-05T06:46:38.000Z</time>
      </trkpt>
      <trkpt lat="49.81611" lon="4.78627">
        <ele>178</ele>
        <time>2022-09-05T06:46:39.000Z</time>
      </trkpt>
      <trkpt lat="49.81605" lon="4.78624">
        <ele>178</ele>
        <time>2022-09-05T06:46:40.000Z</time>
      </trkpt>
      <trkpt lat="49.81599" lon="4.78621">
        <ele>178</ele>
        <time>2022-09-05T06:46:41.000Z</time>
      </trkpt>
      <trkpt lat="49.81593" lon="4.7862">
        <ele>178</ele>
        <time>2022-09-05T06:46:42.000Z</time>
      </trkpt>
      <trkpt lat="49.81587" lon="4.78619">
        <ele>178</ele>
        <time>2022-09-05T06:46:43.000Z</time>
      </trkpt>
      <trkpt lat="49.8158" lon="4.78619">
        <ele>178</ele>
        <time>2022-09-05T06:46:44.000Z</time>
      </trkpt>
      <trkpt lat="49.81574" lon="4.78621">
        <ele>177</ele>
        <time>2022-09-05T06:46:45.000Z</time>
      </trkpt>
      <trkpt lat="49.81568" lon="4.78625">
        <ele>177</ele>
        <time>2022-09-05T06:46:46.000Z</time>
      </trkpt>
      <trkpt lat="49.81562" lon="4.78629">
        <ele>177</ele>
        <time>2022-09-05T06:46:47.000Z</time>
      </trkpt>
      <trkpt lat="49.81557" lon="4.78634">
        <ele>177</ele>
        <time>2022-09-05T06:46:48.000Z</time>
      </trkpt>
      <trkpt lat="49.81551" lon="4.78639">
        <ele>177</ele>
        <time>2022-09-05T06:46:49.000Z</time>
      </trkpt>
      <trkpt lat="49.81546" lon="4.78644">
        <ele>177</ele>
        <time>2022-09-05T06:46:50.000Z</time>
      </trkpt>
      <trkpt lat="49.81541" lon="4.7865">
        <ele>177</ele>
        <time>2022-09-05T06:46:51.000Z</time>
      </trkpt>
      <trkpt lat="49.81536" lon="4.78655">
        <ele>177</ele>
        <time>2022-09-05T06:46:52.000Z</time>
      </trkpt>
      <trkpt lat="49.81531" lon="4.7866">
        <ele>177</ele>
        <time>2022-09-05T06:46:53.000Z</time>
      </trkpt>
      <trkpt lat="49.81526" lon="4.78665">
        <ele>177</ele>
        <time>2022-09-05T06:46:54.000Z</time>
      </trkpt>
      <trkpt lat="49.81521" lon="4.7867">
        <ele>177</ele>
        <time>2022-09-05T06:46:55.000Z</time>
      </trkpt>
      <trkpt lat="49.81516" lon="4.78676">
        <ele>177</ele>
        <time>2022-09-05T06:46:56.000Z</time>
      </trkpt>
      <trkpt lat="49.81511" lon="4.78681">
        <ele>177</ele>
        <time>2022-09-05T06:46:57.000Z</time>
      </trkpt>
      <trkpt lat="49.81507" lon="4.78686">
        <ele>177</ele>
        <time>2022-09-05T06:46:58.000Z</time>
      </trkpt>
      <trkpt lat="49.81502" lon="4.7869">
        <ele>177</ele>
        <time>2022-09-05T06:46:59.000Z</time>
      </trkpt>
      <trkpt lat="49.81498" lon="4.78695">
        <ele>177</ele>
        <time>2022-09-05T06:47:00.000Z</time>
      </trkpt>
      <trkpt lat="49.81493" lon="4.78697">
        <ele>176</ele>
        <time>2022-09-05T06:47:01.000Z</time>
      </trkpt>
      <trkpt lat="49.81488" lon="4.78695">
        <ele>176</ele>
        <time>2022-09-05T06:47:02.000Z</time>
      </trkpt>
      <trkpt lat="49.81483" lon="4.7869">
        <ele>176</ele>
        <time>2022-09-05T06:47:03.000Z</time>
      </trkpt>
      <trkpt lat="49.81479" lon="4.78683">
        <ele>175</ele>
        <time>2022-09-05T06:47:04.000Z</time>
      </trkpt>
      <trkpt lat="49.81475" lon="4.78674">
        <ele>175</ele>
        <time>2022-09-05T06:47:05.000Z</time>
      </trkpt>
      <trkpt lat="49.81473" lon="4.78664">
        <ele>175</ele>
        <time>2022-09-05T06:47:06.000Z</time>
      </trkpt>
      <trkpt lat="49.81472" lon="4.78653">
        <ele>175</ele>
        <time>2022-09-05T06:47:07.000Z</time>
      </trkpt>
      <trkpt lat="49.81471" lon="4.78642">
        <ele>174</ele>
        <time>2022-09-05T06:47:08.000Z</time>
      </trkpt>
      <trkpt lat="49.81472" lon="4.7863">
        <ele>174</ele>
        <time>2022-09-05T06:47:09.000Z</time>
      </trkpt>
      <trkpt lat="49.81473" lon="4.78619">
        <ele>174</ele>
        <time>2022-09-05T06:47:10.000Z</time>
      </trkpt>
      <trkpt lat="49.81476" lon="4.78608">
        <ele>173</ele>
        <time>2022-09-05T06:47:11.000Z</time>
      </trkpt>
      <trkpt lat="49.81478" lon="4.78598">
        <ele>173</ele>
        <time>2022-09-05T06:47:12.000Z</time>
      </trkpt>
      <trkpt lat="49.81482" lon="4.78588">
        <ele>173</ele>
        <time>2022-09-05T06:47:13.000Z</time>
      </trkpt>
      <trkpt lat="49.81486" lon="4.78578">
        <ele>172</ele>
        <time>2022-09-05T06:47:14.000Z</time>
      </trkpt>
      <trkpt lat="49.8149" lon="4.78568">
        <ele>172</ele>
        <time>2022-09-05T06:47:15.000Z</time>
      </trkpt>
      <trkpt lat="49.81494" lon="4.78558">
        <ele>171</ele>
        <time>2022-09-05T06:47:16.000Z</time>
      </trkpt>
      <trkpt lat="49.81499" lon="4.78548">
        <ele>171</ele>
        <time>2022-09-05T06:47:17.000Z</time>
      </trkpt>
      <trkpt lat="49.81504" lon="4.7854">
        <ele>170</ele>
        <time>2022-09-05T06:47:18.000Z</time>
      </trkpt>
      <trkpt lat="49.8151" lon="4.78531">
        <ele>170</ele>
        <time>2022-09-05T06:47:19.000Z</time>
      </trkpt>
      <trkpt lat="49.81516" lon="4.78523">
        <ele>169</ele>
        <time>2022-09-05T06:47:20.000Z</time>
      </trkpt>
      <trkpt lat="49.81521" lon="4.78515">
        <ele>169</ele>
        <time>2022-09-05T06:47:21.000Z</time>
      </trkpt>
      <trkpt lat="49.81526" lon="4.78507">
        <ele>168</ele>
        <time>2022-09-05T06:47:22.000Z</time>
      </trkpt>
      <trkpt lat="49.8153" lon="4.785">
        <ele>168</ele>
        <time>2022-09-05T06:47:23.000Z</time>
      </trkpt>
      <trkpt lat="49.81535" lon="4.78491">
        <ele>168</ele>
        <time>2022-09-05T06:47:24.000Z</time>
      </trkpt>
      <trkpt lat="49.81538" lon="4.78482">
        <ele>168</ele>
        <time>2022-09-05T06:47:25.000Z</time>
      </trkpt>
      <trkpt lat="49.8154" lon="4.78472">
        <ele>168</ele>
        <time>2022-09-05T06:47:26.000Z</time>
      </trkpt>
      <trkpt lat="49.8154" lon="4.78461">
        <ele>167</ele>
        <time>2022-09-05T06:47:27.000Z</time>
      </trkpt>
      <trkpt lat="49.81541" lon="4.7845">
        <ele>167</ele>
        <time>2022-09-05T06:47:28.000Z</time>
      </trkpt>
      <trkpt lat="49.81541" lon="4.78439">
        <ele>167</ele>
        <time>2022-09-05T06:47:29.000Z</time>
      </trkpt>
      <trkpt lat="49.81541" lon="4.78428">
        <ele>167</ele>
        <time>2022-09-05T06:47:30.000Z</time>
      </trkpt>
      <trkpt lat="49.81541" lon="4.78417">
        <ele>167</ele>
        <time>2022-09-05T06:47:31.000Z</time>
      </trkpt>
      <trkpt lat="49.81541" lon="4.78407">
        <ele>167</ele>
        <time>2022-09-05T06:47:32.000Z</time>
      </trkpt>
      <trkpt lat="49.81541" lon="4.78396">
        <ele>167</ele>
        <time>2022-09-05T06:47:33.000Z</time>
      </trkpt>
      <trkpt lat="49.81541" lon="4.78386">
        <ele>167</ele>
        <time>2022-09-05T06:47:34.000Z</time>
      </trkpt>
      <trkpt lat="49.81542" lon="4.78375">
        <ele>167</ele>
        <time>2022-09-05T06:47:35.000Z</time>
      </trkpt>
      <trkpt lat="49.81543" lon="4.78365">
        <ele>167</ele>
        <time>2022-09-05T06:47:36.000Z</time>
      </trkpt>
      <trkpt lat="49.81544" lon="4.78355">
        <ele>167</ele>
        <time>2022-09-05T06:47:37.000Z</time>
      </trkpt>
      <trkpt lat="49.81547" lon="4.78346">
        <ele>167</ele>
        <time>2022-09-05T06:47:38.000Z</time>
      </trkpt>
      <trkpt lat="49.8155" lon="4.78339">
        <ele>167</ele>
        <time>2022-09-05T06:47:39.000Z</time>
      </trkpt>
      <trkpt lat="49.81554" lon="4.78333">
        <ele>167</ele>
        <time>2022-09-05T06:47:40.000Z</time>
      </trkpt>
      <trkpt lat="49.81557" lon="4.78327">
        <ele>167</ele>
        <time>2022-09-05T06:47:41.000Z</time>
      </trkpt>
      <trkpt lat="49.81561" lon="4.78321">
        <ele>167</ele>
        <time>2022-09-05T06:47:42.000Z</time>
      </trkpt>
      <trkpt lat="49.81564" lon="4.78316">
        <ele>167</ele>
        <time>2022-09-05T06:47:43.000Z</time>
      </trkpt>
      <trkpt lat="49.81567" lon="4.78311">
        <ele>167</ele>
        <time>2022-09-05T06:47:44.000Z</time>
      </trkpt>
      <trkpt lat="49.8157" lon="4.78305">
        <ele>168</ele>
        <time>2022-09-05T06:47:45.000Z</time>
      </trkpt>
      <trkpt lat="49.81573" lon="4.78299">
        <ele>168</ele>
        <time>2022-09-05T06:47:46.000Z</time>
      </trkpt>
      <trkpt lat="49.81575" lon="4.78293">
        <ele>168</ele>
        <time>2022-09-05T06:47:47.000Z</time>
      </trkpt>
      <trkpt lat="49.81577" lon="4.78289">
        <ele>168</ele>
        <time>2022-09-05T06:47:48.000Z</time>
      </trkpt>
      <trkpt lat="49.8158" lon="4.78287">
        <ele>168</ele>
        <time>2022-09-05T06:47:49.000Z</time>
      </trkpt>
      <trkpt lat="49.81583" lon="4.78286">
        <ele>168</ele>
        <time>2022-09-05T06:47:50.000Z</time>
      </trkpt>
      <trkpt lat="49.81585" lon="4.78287">
        <ele>168</ele>
        <time>2022-09-05T06:47:51.000Z</time>
      </trkpt>
      <trkpt lat="49.81586" lon="4.78289">
        <ele>168</ele>
        <time>2022-09-05T06:47:52.000Z</time>
      </trkpt>
      <trkpt lat="49.81588" lon="4.78291">
        <ele>168</ele>
        <time>2022-09-05T06:47:53.000Z</time>
      </trkpt>
      <trkpt lat="49.81588" lon="4.78294">
        <ele>168</ele>
        <time>2022-09-05T06:47:54.000Z</time>
      </trkpt>
      <trkpt lat="49.81589" lon="4.78298">
        <ele>169</ele>
        <time>2022-09-05T06:47:55.000Z</time>
      </trkpt>
      <trkpt lat="49.81589" lon="4.78302">
        <ele>169</ele>
        <time>2022-09-05T06:47:56.000Z</time>
      </trkpt>
      <trkpt lat="49.81589" lon="4.78307">
        <ele>169</ele>
        <time>2022-09-05T06:47:57.000Z</time>
      </trkpt>
      <trkpt lat="49.81588" lon="4.78311">
        <ele>169</ele>
        <time>2022-09-05T06:47:58.000Z</time>
      </trkpt>
      <trkpt lat="49.81586" lon="4.78314">
        <ele>170</ele>
        <time>2022-09-05T06:47:59.000Z</time>
      </trkpt>
      <trkpt lat="49.81583" lon="4.78316">
        <ele>170</ele>
        <time>2022-09-05T06:48:00.000Z</time>
      </trkpt>
      <trkpt lat="49.8158" lon="4.78316">
        <ele>170</ele>
        <time>2022-09-05T06:48:01.000Z</time>
      </trkpt>
      <trkpt lat="49.81577" lon="4.78318">
        <ele>170</ele>
        <time>2022-09-05T06:48:02.000Z</time>
      </trkpt>
      <trkpt lat="49.81574" lon="4.78318">
        <ele>170</ele>
        <time>2022-09-05T06:48:03.000Z</time>
      </trkpt>
      <trkpt lat="49.8157" lon="4.78319">
        <ele>170</ele>
        <time>2022-09-05T06:48:04.000Z</time>
      </trkpt>
      <trkpt lat="49.81568" lon="4.78322">
        <ele>170</ele>
        <time>2022-09-05T06:48:05.000Z</time>
      </trkpt>
      <trkpt lat="49.81566" lon="4.78324">
        <ele>170</ele>
        <time>2022-09-05T06:48:06.000Z</time>
      </trkpt>
      <trkpt lat="49.81568" lon="4.78325">
        <ele>170</ele>
        <time>2022-09-05T06:48:07.000Z</time>
      </trkpt>
      <trkpt lat="49.81569" lon="4.78324">
        <ele>170</ele>
        <time>2022-09-05T06:48:08.000Z</time>
      </trkpt>
      <trkpt lat="49.81569" lon="4.78321">
        <ele>170</ele>
        <time>2022-09-05T06:48:09.000Z</time>
      </trkpt>
      <trkpt lat="49.8157" lon="4.78317">
        <ele>170</ele>
        <time>2022-09-05T06:48:10.000Z</time>
      </trkpt>
      <trkpt lat="49.81571" lon="4.78312">
        <ele>170</ele>
        <time>2022-09-05T06:48:11.000Z</time>
      </trkpt>
      <trkpt lat="49.81572" lon="4.78307">
        <ele>170</ele>
        <time>2022-09-05T06:48:12.000Z</time>
      </trkpt>
      <trkpt lat="49.81574" lon="4.78302">
        <ele>170</ele>
        <time>2022-09-05T06:48:13.000Z</time>
      </trkpt>
      <trkpt lat="49.81575" lon="4.78297">
        <ele>170</ele>
        <time>2022-09-05T06:48:14.000Z</time>
      </trkpt>
      <trkpt lat="49.81577" lon="4.78292">
        <ele>170</ele>
        <time>2022-09-05T06:48:15.000Z</time>
      </trkpt>
      <trkpt lat="49.81579" lon="4.78289">
        <ele>170</ele>
        <time>2022-09-05T06:48:16.000Z</time>
      </trkpt>
      <trkpt lat="49.81581" lon="4.78288">
        <ele>170</ele>
        <time>2022-09-05T06:48:17.000Z</time>
      </trkpt>
      <trkpt lat="49.81584" lon="4.78289">
        <ele>170</ele>
        <time>2022-09-05T06:48:18.000Z</time>
      </trkpt>
      <trkpt lat="49.81586" lon="4.78291">
        <ele>169</ele>
        <time>2022-09-05T06:48:19.000Z</time>
      </trkpt>
      <trkpt lat="49.81587" lon="4.78293">
        <ele>169</ele>
        <time>2022-09-05T06:48:20.000Z</time>
      </trkpt>
      <trkpt lat="49.81588" lon="4.78296">
        <ele>170</ele>
        <time>2022-09-05T06:48:21.000Z</time>
      </trkpt>
      <trkpt lat="49.81588" lon="4.78299">
        <ele>170</ele>
        <time>2022-09-05T06:48:22.000Z</time>
      </trkpt>
      <trkpt lat="49.81588" lon="4.78303">
        <ele>170</ele>
        <time>2022-09-05T06:48:23.000Z</time>
      </trkpt>
      <trkpt lat="49.81589" lon="4.78308">
        <ele>170</ele>
        <time>2022-09-05T06:48:24.000Z</time>
      </trkpt>
      <trkpt lat="49.8159" lon="4.78312">
        <ele>170</ele>
        <time>2022-09-05T06:48:25.000Z</time>
      </trkpt>
      <trkpt lat="49.81591" lon="4.78317">
        <ele>171</ele>
        <time>2022-09-05T06:48:26.000Z</time>
      </trkpt>
      <trkpt lat="49.81593" lon="4.78322">
        <ele>171</ele>
        <time>2022-09-05T06:48:27.000Z</time>
      </trkpt>
      <trkpt lat="49.81595" lon="4.78327">
        <ele>171</ele>
        <time>2022-09-05T06:48:28.000Z</time>
      </trkpt>
      <trkpt lat="49.81598" lon="4.78333">
        <ele>172</ele>
        <time>2022-09-05T06:48:29.000Z</time>
      </trkpt>
      <trkpt lat="49.816" lon="4.78338">
        <ele>172</ele>
        <time>2022-09-05T06:48:30.000Z</time>
      </trkpt>
      <trkpt lat="49.81603" lon="4.78344">
        <ele>172</ele>
        <time>2022-09-05T06:48:31.000Z</time>
      </trkpt>
      <trkpt lat="49.81606" lon="4.78351">
        <ele>172</ele>
        <time>2022-09-05T06:48:32.000Z</time>
      </trkpt>
      <trkpt lat="49.8161" lon="4.78357">
        <ele>172</ele>
        <time>2022-09-05T06:48:33.000Z</time>
      </trkpt>
      <trkpt lat="49.81613" lon="4.78364">
        <ele>172</ele>
        <time>2022-09-05T06:48:34.000Z</time>
      </trkpt>
      <trkpt lat="49.81616" lon="4.78371">
        <ele>172</ele>
        <time>2022-09-05T06:48:35.000Z</time>
      </trkpt>
      <trkpt lat="49.8162" lon="4.78378">
        <ele>172</ele>
        <time>2022-09-05T06:48:36.000Z</time>
      </trkpt>
      <trkpt lat="49.81623" lon="4.78384">
        <ele>172</ele>
        <time>2022-09-05T06:48:37.000Z</time>
      </trkpt>
      <trkpt lat="49.81627" lon="4.7839">
        <ele>172</ele>
        <time>2022-09-05T06:48:38.000Z</time>
      </trkpt>
      <trkpt lat="49.8163" lon="4.78396">
        <ele>172</ele>
        <time>2022-09-05T06:48:39.000Z</time>
      </trkpt>
      <trkpt lat="49.81633" lon="4.78401">
        <ele>172</ele>
        <time>2022-09-05T06:48:40.000Z</time>
      </trkpt>
      <trkpt lat="49.81636" lon="4.78406">
        <ele>172</ele>
        <time>2022-09-05T06:48:41.000Z</time>
      </trkpt>
      <trkpt lat="49.81638" lon="4.78411">
        <ele>172</ele>
        <time>2022-09-05T06:48:42.000Z</time>
      </trkpt>
      <trkpt lat="49.81641" lon="4.78416">
        <ele>172</ele>
        <time>2022-09-05T06:48:43.000Z</time>
      </trkpt>
      <trkpt lat="49.81644" lon="4.7842">
        <ele>171</ele>
        <time>2022-09-05T06:48:44.000Z</time>
      </trkpt>
      <trkpt lat="49.81648" lon="4.78424">
        <ele>171</ele>
        <time>2022-09-05T06:48:45.000Z</time>
      </trkpt>
      <trkpt lat="49.81651" lon="4.78428">
        <ele>171</ele>
        <time>2022-09-05T06:48:46.000Z</time>
      </trkpt>
      <trkpt lat="49.81655" lon="4.78432">
        <ele>171</ele>
        <time>2022-09-05T06:48:47.000Z</time>
      </trkpt>
      <trkpt lat="49.81659" lon="4.78435">
        <ele>171</ele>
        <time>2022-09-05T06:48:48.000Z</time>
      </trkpt>
      <trkpt lat="49.81663" lon="4.78439">
        <ele>171</ele>
        <time>2022-09-05T06:48:49.000Z</time>
      </trkpt>
      <trkpt lat="49.81668" lon="4.78443">
        <ele>171</ele>
        <time>2022-09-05T06:48:50.000Z</time>
      </trkpt>
      <trkpt lat="49.81673" lon="4.78447">
        <ele>171</ele>
        <time>2022-09-05T06:48:51.000Z</time>
      </trkpt>
      <trkpt lat="49.81678" lon="4.78451">
        <ele>171</ele>
        <time>2022-09-05T06:48:52.000Z</time>
      </trkpt>
      <trkpt lat="49.81683" lon="4.78455">
        <ele>171</ele>
        <time>2022-09-05T06:48:53.000Z</time>
      </trkpt>
      <trkpt lat="49.81687" lon="4.7846">
        <ele>171</ele>
        <time>2022-09-05T06:48:54.000Z</time>
      </trkpt>
      <trkpt lat="49.81692" lon="4.78465">
        <ele>171</ele>
        <time>2022-09-05T06:48:55.000Z</time>
      </trkpt>
      <trkpt lat="49.81697" lon="4.7847">
        <ele>171</ele>
        <time>2022-09-05T06:48:56.000Z</time>
      </trkpt>
      <trkpt lat="49.81701" lon="4.78476">
        <ele>171</ele>
        <time>2022-09-05T06:48:57.000Z</time>
      </trkpt>
      <trkpt lat="49.81706" lon="4.78481">
        <ele>171</ele>
        <time>2022-09-05T06:48:58.000Z</time>
      </trkpt>
      <trkpt lat="49.8171" lon="4.78486">
        <ele>171</ele>
        <time>2022-09-05T06:48:59.000Z</time>
      </trkpt>
      <trkpt lat="49.81715" lon="4.78491">
        <ele>171</ele>
        <time>2022-09-05T06:49:00.000Z</time>
      </trkpt>
      <trkpt lat="49.81719" lon="4.78495">
        <ele>171</ele>
        <time>2022-09-05T06:49:01.000Z</time>
      </trkpt>
      <trkpt lat="49.81724" lon="4.78499">
        <ele>171</ele>
        <time>2022-09-05T06:49:02.000Z</time>
      </trkpt>
      <trkpt lat="49.81728" lon="4.78503">
        <ele>171</ele>
        <time>2022-09-05T06:49:03.000Z</time>
      </trkpt>
      <trkpt lat="49.81732" lon="4.78506">
        <ele>171</ele>
        <time>2022-09-05T06:49:04.000Z</time>
      </trkpt>
      <trkpt lat="49.81736" lon="4.78508">
        <ele>171</ele>
        <time>2022-09-05T06:49:05.000Z</time>
      </trkpt>
      <trkpt lat="49.8174" lon="4.7851">
        <ele>171</ele>
        <time>2022-09-05T06:49:06.000Z</time>
      </trkpt>
      <trkpt lat="49.81743" lon="4.78513">
        <ele>171</ele>
        <time>2022-09-05T06:49:07.000Z</time>
      </trkpt>
      <trkpt lat="49.81747" lon="4.78515">
        <ele>171</ele>
        <time>2022-09-05T06:49:08.000Z</time>
      </trkpt>
      <trkpt lat="49.81751" lon="4.78518">
        <ele>172</ele>
        <time>2022-09-05T06:49:09.000Z</time>
      </trkpt>
      <trkpt lat="49.81755" lon="4.7852">
        <ele>172</ele>
        <time>2022-09-05T06:49:10.000Z</time>
      </trkpt>
      <trkpt lat="49.81759" lon="4.78523">
        <ele>172</ele>
        <time>2022-09-05T06:49:11.000Z</time>
      </trkpt>
      <trkpt lat="49.81763" lon="4.78525">
        <ele>172</ele>
        <time>2022-09-05T06:49:12.000Z</time>
      </trkpt>
      <trkpt lat="49.81767" lon="4.78527">
        <ele>172</ele>
        <time>2022-09-05T06:49:13.000Z</time>
      </trkpt>
      <trkpt lat="49.81771" lon="4.7853">
        <ele>172</ele>
        <time>2022-09-05T06:49:14.000Z</time>
      </trkpt>
      <trkpt lat="49.81775" lon="4.78532">
        <ele>172</ele>
        <time>2022-09-05T06:49:15.000Z</time>
      </trkpt>
      <trkpt lat="49.81779" lon="4.78535">
        <ele>172</ele>
        <time>2022-09-05T06:49:16.000Z</time>
      </trkpt>
      <trkpt lat="49.81783" lon="4.78538">
        <ele>173</ele>
        <time>2022-09-05T06:49:17.000Z</time>
      </trkpt>
      <trkpt lat="49.81788" lon="4.78541">
        <ele>173</ele>
        <time>2022-09-05T06:49:18.000Z</time>
      </trkpt>
      <trkpt lat="49.81792" lon="4.78544">
        <ele>173</ele>
        <time>2022-09-05T06:49:19.000Z</time>
      </trkpt>
      <trkpt lat="49.81797" lon="4.78547">
        <ele>173</ele>
        <time>2022-09-05T06:49:20.000Z</time>
      </trkpt>
      <trkpt lat="49.81801" lon="4.78551">
        <ele>173</ele>
        <time>2022-09-05T06:49:21.000Z</time>
      </trkpt>
      <trkpt lat="49.81806" lon="4.78555">
        <ele>174</ele>
        <time>2022-09-05T06:49:22.000Z</time>
      </trkpt>
      <trkpt lat="49.8181" lon="4.78559">
        <ele>174</ele>
        <time>2022-09-05T06:49:23.000Z</time>
      </trkpt>
      <trkpt lat="49.81815" lon="4.78563">
        <ele>174</ele>
        <time>2022-09-05T06:49:24.000Z</time>
      </trkpt>
      <trkpt lat="49.81819" lon="4.78567">
        <ele>174</ele>
        <time>2022-09-05T06:49:25.000Z</time>
      </trkpt>
      <trkpt lat="49.81823" lon="4.78571">
        <ele>175</ele>
        <time>2022-09-05T06:49:26.000Z</time>
      </trkpt>
      <trkpt lat="49.81827" lon="4.78575">
        <ele>175</ele>
        <time>2022-09-05T06:49:27.000Z</time>
      </trkpt>
      <trkpt lat="49.81831" lon="4.78579">
        <ele>175</ele>
        <time>2022-09-05T06:49:28.000Z</time>
      </trkpt>
      <trkpt lat="49.81835" lon="4.78583">
        <ele>175</ele>
        <time>2022-09-05T06:49:29.000Z</time>
      </trkpt>
      <trkpt lat="49.81839" lon="4.78588">
        <ele>175</ele>
        <time>2022-09-05T06:49:30.000Z</time>
      </trkpt>
      <trkpt lat="49.81842" lon="4.78592">
        <ele>176</ele>
        <time>2022-09-05T06:49:31.000Z</time>
      </trkpt>
      <trkpt lat="49.81846" lon="4.78596">
        <ele>176</ele>
        <time>2022-09-05T06:49:32.000Z</time>
      </trkpt>
      <trkpt lat="49.8185" lon="4.786">
        <ele>176</ele>
        <time>2022-09-05T06:49:33.000Z</time>
      </trkpt>
      <trkpt lat="49.81854" lon="4.78605">
        <ele>176</ele>
        <time>2022-09-05T06:49:34.000Z</time>
      </trkpt>
      <trkpt lat="49.81858" lon="4.78609">
        <ele>176</ele>
        <time>2022-09-05T06:49:35.000Z</time>
      </trkpt>
      <trkpt lat="49.81861" lon="4.78614">
        <ele>177</ele>
        <time>2022-09-05T06:49:36.000Z</time>
      </trkpt>
      <trkpt lat="49.81865" lon="4.78618">
        <ele>177</ele>
        <time>2022-09-05T06:49:37.000Z</time>
      </trkpt>
      <trkpt lat="49.81869" lon="4.78622">
        <ele>177</ele>
        <time>2022-09-05T06:49:38.000Z</time>
      </trkpt>
      <trkpt lat="49.81873" lon="4.78626">
        <ele>177</ele>
        <time>2022-09-05T06:49:39.000Z</time>
      </trkpt>
      <trkpt lat="49.81877" lon="4.78631">
        <ele>177</ele>
        <time>2022-09-05T06:49:40.000Z</time>
      </trkpt>
      <trkpt lat="49.81881" lon="4.78635">
        <ele>177</ele>
        <time>2022-09-05T06:49:41.000Z</time>
      </trkpt>
      <trkpt lat="49.81885" lon="4.78639">
        <ele>178</ele>
        <time>2022-09-05T06:49:42.000Z</time>
      </trkpt>
      <trkpt lat="49.81889" lon="4.78644">
        <ele>178</ele>
        <time>2022-09-05T06:49:43.000Z</time>
      </trkpt>
      <trkpt lat="49.81893" lon="4.78649">
        <ele>178</ele>
        <time>2022-09-05T06:49:44.000Z</time>
      </trkpt>
      <trkpt lat="49.81898" lon="4.78653">
        <ele>178</ele>
        <time>2022-09-05T06:49:45.000Z</time>
      </trkpt>
      <trkpt lat="49.81902" lon="4.78658">
        <ele>179</ele>
        <time>2022-09-05T06:49:46.000Z</time>
      </trkpt>
      <trkpt lat="49.81906" lon="4.78663">
        <ele>179</ele>
        <time>2022-09-05T06:49:47.000Z</time>
      </trkpt>
      <trkpt lat="49.8191" lon="4.78667">
        <ele>179</ele>
        <time>2022-09-05T06:49:48.000Z</time>
      </trkpt>
      <trkpt lat="49.81914" lon="4.78671">
        <ele>179</ele>
        <time>2022-09-05T06:49:49.000Z</time>
      </trkpt>
      <trkpt lat="49.81918" lon="4.78676">
        <ele>179</ele>
        <time>2022-09-05T06:49:50.000Z</time>
      </trkpt>
      <trkpt lat="49.81922" lon="4.7868">
        <ele>179</ele>
        <time>2022-09-05T06:49:51.000Z</time>
      </trkpt>
      <trkpt lat="49.81926" lon="4.78684">
        <ele>180</ele>
        <time>2022-09-05T06:49:52.000Z</time>
      </trkpt>
      <trkpt lat="49.81931" lon="4.78688">
        <ele>180</ele>
        <time>2022-09-05T06:49:53.000Z</time>
      </trkpt>
      <trkpt lat="49.81935" lon="4.78692">
        <ele>180</ele>
        <time>2022-09-05T06:49:54.000Z</time>
      </trkpt>
      <trkpt lat="49.81939" lon="4.78696">
        <ele>180</ele>
        <time>2022-09-05T06:49:55.000Z</time>
      </trkpt>
      <trkpt lat="49.81943" lon="4.787">
        <ele>180</ele>
        <time>2022-09-05T06:49:56.000Z</time>
      </trkpt>
      <trkpt lat="49.81947" lon="4.78703">
        <ele>180</ele>
        <time>2022-09-05T06:49:57.000Z</time>
      </trkpt>
      <trkpt lat="49.81951" lon="4.78706">
        <ele>180</ele>
        <time>2022-09-05T06:49:58.000Z</time>
      </trkpt>
      <trkpt lat="49.81954" lon="4.78709">
        <ele>180</ele>
        <time>2022-09-05T06:49:59.000Z</time>
      </trkpt>
      <trkpt lat="49.81958" lon="4.78712">
        <ele>180</ele>
        <time>2022-09-05T06:50:00.000Z</time>
      </trkpt>
      <trkpt lat="49.81962" lon="4.78716">
        <ele>180</ele>
        <time>2022-09-05T06:50:01.000Z</time>
      </trkpt>
      <trkpt lat="49.81967" lon="4.7872">
        <ele>180</ele>
        <time>2022-09-05T06:50:02.000Z</time>
      </trkpt>
      <trkpt lat="49.81971" lon="4.78723">
        <ele>180</ele>
        <time>2022-09-05T06:50:03.000Z</time>
      </trkpt>
      <trkpt lat="49.81976" lon="4.78727">
        <ele>180</ele>
        <time>2022-09-05T06:50:04.000Z</time>
      </trkpt>
      <trkpt lat="49.8198" lon="4.78731">
        <ele>180</ele>
        <time>2022-09-05T06:50:05.000Z</time>
      </trkpt>
      <trkpt lat="49.81985" lon="4.78735">
        <ele>181</ele>
        <time>2022-09-05T06:50:06.000Z</time>
      </trkpt>
      <trkpt lat="49.81989" lon="4.78738">
        <ele>181</ele>
        <time>2022-09-05T06:50:07.000Z</time>
      </trkpt>
      <trkpt lat="49.81993" lon="4.78741">
        <ele>181</ele>
        <time>2022-09-05T06:50:08.000Z</time>
      </trkpt>
      <trkpt lat="49.81997" lon="4.78744">
        <ele>181</ele>
        <time>2022-09-05T06:50:09.000Z</time>
      </trkpt>
      <trkpt lat="49.82001" lon="4.78748">
        <ele>181</ele>
        <time>2022-09-05T06:50:10.000Z</time>
      </trkpt>
      <trkpt lat="49.82005" lon="4.78751">
        <ele>181</ele>
        <time>2022-09-05T06:50:11.000Z</time>
      </trkpt>
      <trkpt lat="49.82009" lon="4.78755">
        <ele>181</ele>
        <time>2022-09-05T06:50:12.000Z</time>
      </trkpt>
      <trkpt lat="49.82012" lon="4.78758">
        <ele>182</ele>
        <time>2022-09-05T06:50:13.000Z</time>
      </trkpt>
      <trkpt lat="49.82016" lon="4.78761">
        <ele>182</ele>
        <time>2022-09-05T06:50:14.000Z</time>
      </trkpt>
      <trkpt lat="49.8202" lon="4.78764">
        <ele>182</ele>
        <time>2022-09-05T06:50:15.000Z</time>
      </trkpt>
      <trkpt lat="49.82024" lon="4.78766">
        <ele>182</ele>
        <time>2022-09-05T06:50:16.000Z</time>
      </trkpt>
      <trkpt lat="49.82028" lon="4.7877">
        <ele>183</ele>
        <time>2022-09-05T06:50:17.000Z</time>
      </trkpt>
      <trkpt lat="49.82032" lon="4.78772">
        <ele>183</ele>
        <time>2022-09-05T06:50:18.000Z</time>
      </trkpt>
      <trkpt lat="49.82036" lon="4.78775">
        <ele>183</ele>
        <time>2022-09-05T06:50:19.000Z</time>
      </trkpt>
      <trkpt lat="49.82039" lon="4.78779">
        <ele>184</ele>
        <time>2022-09-05T06:50:20.000Z</time>
      </trkpt>
      <trkpt lat="49.82043" lon="4.78783">
        <ele>184</ele>
        <time>2022-09-05T06:50:21.000Z</time>
      </trkpt>
      <trkpt lat="49.82047" lon="4.78786">
        <ele>184</ele>
        <time>2022-09-05T06:50:22.000Z</time>
      </trkpt>
      <trkpt lat="49.82052" lon="4.7879">
        <ele>184</ele>
        <time>2022-09-05T06:50:23.000Z</time>
      </trkpt>
      <trkpt lat="49.82056" lon="4.78794">
        <ele>185</ele>
        <time>2022-09-05T06:50:24.000Z</time>
      </trkpt>
      <trkpt lat="49.8206" lon="4.78799">
        <ele>185</ele>
        <time>2022-09-05T06:50:25.000Z</time>
      </trkpt>
      <trkpt lat="49.82064" lon="4.78803">
        <ele>185</ele>
        <time>2022-09-05T06:50:26.000Z</time>
      </trkpt>
      <trkpt lat="49.82068" lon="4.78807">
        <ele>185</ele>
        <time>2022-09-05T06:50:27.000Z</time>
      </trkpt>
      <trkpt lat="49.82072" lon="4.78812">
        <ele>185</ele>
        <time>2022-09-05T06:50:28.000Z</time>
      </trkpt>
      <trkpt lat="49.82076" lon="4.78818">
        <ele>185</ele>
        <time>2022-09-05T06:50:29.000Z</time>
      </trkpt>
      <trkpt lat="49.8208" lon="4.78824">
        <ele>185</ele>
        <time>2022-09-05T06:50:30.000Z</time>
      </trkpt>
      <trkpt lat="49.82083" lon="4.7883">
        <ele>186</ele>
        <time>2022-09-05T06:50:31.000Z</time>
      </trkpt>
      <trkpt lat="49.82087" lon="4.78836">
        <ele>186</ele>
        <time>2022-09-05T06:50:32.000Z</time>
      </trkpt>
      <trkpt lat="49.8209" lon="4.78842">
        <ele>186</ele>
        <time>2022-09-05T06:50:33.000Z</time>
      </trkpt>
      <trkpt lat="49.82093" lon="4.78848">
        <ele>186</ele>
        <time>2022-09-05T06:50:34.000Z</time>
      </trkpt>
      <trkpt lat="49.82096" lon="4.78854">
        <ele>186</ele>
        <time>2022-09-05T06:50:35.000Z</time>
      </trkpt>
      <trkpt lat="49.82099" lon="4.7886">
        <ele>187</ele>
        <time>2022-09-05T06:50:36.000Z</time>
      </trkpt>
      <trkpt lat="49.82101" lon="4.78866">
        <ele>187</ele>
        <time>2022-09-05T06:50:37.000Z</time>
      </trkpt>
      <trkpt lat="49.82104" lon="4.78872">
        <ele>187</ele>
        <time>2022-09-05T06:50:38.000Z</time>
      </trkpt>
      <trkpt lat="49.82107" lon="4.78878">
        <ele>187</ele>
        <time>2022-09-05T06:50:39.000Z</time>
      </trkpt>
      <trkpt lat="49.82109" lon="4.78884">
        <ele>188</ele>
        <time>2022-09-05T06:50:40.000Z</time>
      </trkpt>
      <trkpt lat="49.82112" lon="4.7889">
        <ele>188</ele>
        <time>2022-09-05T06:50:41.000Z</time>
      </trkpt>
      <trkpt lat="49.82115" lon="4.78895">
        <ele>188</ele>
        <time>2022-09-05T06:50:42.000Z</time>
      </trkpt>
      <trkpt lat="49.82117" lon="4.78901">
        <ele>189</ele>
        <time>2022-09-05T06:50:43.000Z</time>
      </trkpt>
      <trkpt lat="49.8212" lon="4.78907">
        <ele>189</ele>
        <time>2022-09-05T06:50:44.000Z</time>
      </trkpt>
      <trkpt lat="49.82123" lon="4.78913">
        <ele>189</ele>
        <time>2022-09-05T06:50:45.000Z</time>
      </trkpt>
      <trkpt lat="49.82126" lon="4.78917">
        <ele>189</ele>
        <time>2022-09-05T06:50:46.000Z</time>
      </trkpt>
      <trkpt lat="49.82129" lon="4.78922">
        <ele>190</ele>
        <time>2022-09-05T06:50:47.000Z</time>
      </trkpt>
      <trkpt lat="49.82133" lon="4.78927">
        <ele>190</ele>
        <time>2022-09-05T06:50:48.000Z</time>
      </trkpt>
      <trkpt lat="49.82136" lon="4.78932">
        <ele>190</ele>
        <time>2022-09-05T06:50:49.000Z</time>
      </trkpt>
      <trkpt lat="49.82139" lon="4.78937">
        <ele>191</ele>
        <time>2022-09-05T06:50:50.000Z</time>
      </trkpt>
      <trkpt lat="49.82142" lon="4.78942">
        <ele>191</ele>
        <time>2022-09-05T06:50:51.000Z</time>
      </trkpt>
      <trkpt lat="49.82146" lon="4.78948">
        <ele>191</ele>
        <time>2022-09-05T06:50:52.000Z</time>
      </trkpt>
      <trkpt lat="49.82149" lon="4.78954">
        <ele>191</ele>
        <time>2022-09-05T06:50:53.000Z</time>
      </trkpt>
      <trkpt lat="49.82153" lon="4.7896">
        <ele>191</ele>
        <time>2022-09-05T06:50:54.000Z</time>
      </trkpt>
      <trkpt lat="49.82157" lon="4.78966">
        <ele>192</ele>
        <time>2022-09-05T06:50:55.000Z</time>
      </trkpt>
      <trkpt lat="49.8216" lon="4.78971">
        <ele>192</ele>
        <time>2022-09-05T06:50:56.000Z</time>
      </trkpt>
      <trkpt lat="49.82164" lon="4.78976">
        <ele>192</ele>
        <time>2022-09-05T06:50:57.000Z</time>
      </trkpt>
      <trkpt lat="49.82168" lon="4.78982">
        <ele>192</ele>
        <time>2022-09-05T06:50:58.000Z</time>
      </trkpt>
      <trkpt lat="49.82172" lon="4.78987">
        <ele>192</ele>
        <time>2022-09-05T06:50:59.000Z</time>
      </trkpt>
      <trkpt lat="49.82176" lon="4.78991">
        <ele>192</ele>
        <time>2022-09-05T06:51:00.000Z</time>
      </trkpt>
      <trkpt lat="49.82181" lon="4.78995">
        <ele>192</ele>
        <time>2022-09-05T06:51:01.000Z</time>
      </trkpt>
      <trkpt lat="49.82186" lon="4.78999">
        <ele>192</ele>
        <time>2022-09-05T06:51:02.000Z</time>
      </trkpt>
      <trkpt lat="49.82191" lon="4.79001">
        <ele>192</ele>
        <time>2022-09-05T06:51:03.000Z</time>
      </trkpt>
      <trkpt lat="49.82196" lon="4.79003">
        <ele>192</ele>
        <time>2022-09-05T06:51:04.000Z</time>
      </trkpt>
      <trkpt lat="49.82202" lon="4.79005">
        <ele>192</ele>
        <time>2022-09-05T06:51:05.000Z</time>
      </trkpt>
      <trkpt lat="49.82207" lon="4.79007">
        <ele>192</ele>
        <time>2022-09-05T06:51:06.000Z</time>
      </trkpt>
      <trkpt lat="49.82213" lon="4.79008">
        <ele>192</ele>
        <time>2022-09-05T06:51:07.000Z</time>
      </trkpt>
      <trkpt lat="49.82219" lon="4.79009">
        <ele>192</ele>
        <time>2022-09-05T06:51:08.000Z</time>
      </trkpt>
      <trkpt lat="49.82224" lon="4.7901">
        <ele>192</ele>
        <time>2022-09-05T06:51:09.000Z</time>
      </trkpt>
      <trkpt lat="49.8223" lon="4.79011">
        <ele>192</ele>
        <time>2022-09-05T06:51:10.000Z</time>
      </trkpt>
      <trkpt lat="49.82236" lon="4.79012">
        <ele>191</ele>
        <time>2022-09-05T06:51:11.000Z</time>
      </trkpt>
      <trkpt lat="49.82242" lon="4.79013">
        <ele>191</ele>
        <time>2022-09-05T06:51:12.000Z</time>
      </trkpt>
      <trkpt lat="49.82248" lon="4.79015">
        <ele>191</ele>
        <time>2022-09-05T06:51:13.000Z</time>
      </trkpt>
      <trkpt lat="49.82254" lon="4.79017">
        <ele>191</ele>
        <time>2022-09-05T06:51:14.000Z</time>
      </trkpt>
      <trkpt lat="49.8226" lon="4.79019">
        <ele>191</ele>
        <time>2022-09-05T06:51:15.000Z</time>
      </trkpt>
      <trkpt lat="49.82265" lon="4.79021">
        <ele>191</ele>
        <time>2022-09-05T06:51:16.000Z</time>
      </trkpt>
      <trkpt lat="49.8227" lon="4.79024">
        <ele>191</ele>
        <time>2022-09-05T06:51:17.000Z</time>
      </trkpt>
      <trkpt lat="49.82276" lon="4.79026">
        <ele>191</ele>
        <time>2022-09-05T06:51:18.000Z</time>
      </trkpt>
      <trkpt lat="49.82281" lon="4.79028">
        <ele>191</ele>
        <time>2022-09-05T06:51:19.000Z</time>
      </trkpt>
      <trkpt lat="49.82286" lon="4.79031">
        <ele>191</ele>
        <time>2022-09-05T06:51:20.000Z</time>
      </trkpt>
      <trkpt lat="49.8229" lon="4.79033">
        <ele>191</ele>
        <time>2022-09-05T06:51:21.000Z</time>
      </trkpt>
      <trkpt lat="49.82295" lon="4.79035">
        <ele>191</ele>
        <time>2022-09-05T06:51:22.000Z</time>
      </trkpt>
      <trkpt lat="49.823" lon="4.79037">
        <ele>191</ele>
        <time>2022-09-05T06:51:23.000Z</time>
      </trkpt>
      <trkpt lat="49.82305" lon="4.79039">
        <ele>191</ele>
        <time>2022-09-05T06:51:24.000Z</time>
      </trkpt>
      <trkpt lat="49.8231" lon="4.7904">
        <ele>190</ele>
        <time>2022-09-05T06:51:25.000Z</time>
      </trkpt>
      <trkpt lat="49.82315" lon="4.79042">
        <ele>190</ele>
        <time>2022-09-05T06:51:26.000Z</time>
      </trkpt>
      <trkpt lat="49.8232" lon="4.79044">
        <ele>190</ele>
        <time>2022-09-05T06:51:27.000Z</time>
      </trkpt>
      <trkpt lat="49.82325" lon="4.79045">
        <ele>190</ele>
        <time>2022-09-05T06:51:28.000Z</time>
      </trkpt>
      <trkpt lat="49.8233" lon="4.79047">
        <ele>190</ele>
        <time>2022-09-05T06:51:29.000Z</time>
      </trkpt>
      <trkpt lat="49.82336" lon="4.79048">
        <ele>190</ele>
        <time>2022-09-05T06:51:30.000Z</time>
      </trkpt>
      <trkpt lat="49.82341" lon="4.79049">
        <ele>190</ele>
        <time>2022-09-05T06:51:31.000Z</time>
      </trkpt>
      <trkpt lat="49.82347" lon="4.79049">
        <ele>190</ele>
        <time>2022-09-05T06:51:32.000Z</time>
      </trkpt>
      <trkpt lat="49.82353" lon="4.79049">
        <ele>189</ele>
        <time>2022-09-05T06:51:33.000Z</time>
      </trkpt>
      <trkpt lat="49.82359" lon="4.79049">
        <ele>189</ele>
        <time>2022-09-05T06:51:34.000Z</time>
      </trkpt>
      <trkpt lat="49.82364" lon="4.79049">
        <ele>189</ele>
        <time>2022-09-05T06:51:35.000Z</time>
      </trkpt>
      <trkpt lat="49.8237" lon="4.7905">
        <ele>189</ele>
        <time>2022-09-05T06:51:36.000Z</time>
      </trkpt>
      <trkpt lat="49.82376" lon="4.79051">
        <ele>189</ele>
        <time>2022-09-05T06:51:37.000Z</time>
      </trkpt>
      <trkpt lat="49.82382" lon="4.79053">
        <ele>189</ele>
        <time>2022-09-05T06:51:38.000Z</time>
      </trkpt>
      <trkpt lat="49.82387" lon="4.79055">
        <ele>189</ele>
        <time>2022-09-05T06:51:39.000Z</time>
      </trkpt>
      <trkpt lat="49.82393" lon="4.79056">
        <ele>189</ele>
        <time>2022-09-05T06:51:40.000Z</time>
      </trkpt>
      <trkpt lat="49.82398" lon="4.79058">
        <ele>189</ele>
        <time>2022-09-05T06:51:41.000Z</time>
      </trkpt>
      <trkpt lat="49.82404" lon="4.7906">
        <ele>189</ele>
        <time>2022-09-05T06:51:42.000Z</time>
      </trkpt>
      <trkpt lat="49.82409" lon="4.79063">
        <ele>189</ele>
        <time>2022-09-05T06:51:43.000Z</time>
      </trkpt>
      <trkpt lat="49.82414" lon="4.79065">
        <ele>189</ele>
        <time>2022-09-05T06:51:44.000Z</time>
      </trkpt>
      <trkpt lat="49.82419" lon="4.79068">
        <ele>189</ele>
        <time>2022-09-05T06:51:45.000Z</time>
      </trkpt>
      <trkpt lat="49.82425" lon="4.7907">
        <ele>190</ele>
        <time>2022-09-05T06:51:46.000Z</time>
      </trkpt>
      <trkpt lat="49.8243" lon="4.79072">
        <ele>190</ele>
        <time>2022-09-05T06:51:47.000Z</time>
      </trkpt>
      <trkpt lat="49.82435" lon="4.79073">
        <ele>190</ele>
        <time>2022-09-05T06:51:48.000Z</time>
      </trkpt>
      <trkpt lat="49.8244" lon="4.79075">
        <ele>190</ele>
        <time>2022-09-05T06:51:49.000Z</time>
      </trkpt>
      <trkpt lat="49.82445" lon="4.79075">
        <ele>190</ele>
        <time>2022-09-05T06:51:50.000Z</time>
      </trkpt>
      <trkpt lat="49.8245" lon="4.79075">
        <ele>190</ele>
        <time>2022-09-05T06:51:51.000Z</time>
      </trkpt>
      <trkpt lat="49.82456" lon="4.79074">
        <ele>190</ele>
        <time>2022-09-05T06:51:52.000Z</time>
      </trkpt>
      <trkpt lat="49.82461" lon="4.79073">
        <ele>190</ele>
        <time>2022-09-05T06:51:53.000Z</time>
      </trkpt>
      <trkpt lat="49.82467" lon="4.79072">
        <ele>190</ele>
        <time>2022-09-05T06:51:54.000Z</time>
      </trkpt>
      <trkpt lat="49.82473" lon="4.7907">
        <ele>190</ele>
        <time>2022-09-05T06:51:55.000Z</time>
      </trkpt>
      <trkpt lat="49.82479" lon="4.79068">
        <ele>191</ele>
        <time>2022-09-05T06:51:56.000Z</time>
      </trkpt>
      <trkpt lat="49.82485" lon="4.79067">
        <ele>191</ele>
        <time>2022-09-05T06:51:57.000Z</time>
      </trkpt>
      <trkpt lat="49.8249" lon="4.79067">
        <ele>191</ele>
        <time>2022-09-05T06:51:58.000Z</time>
      </trkpt>
      <trkpt lat="49.82496" lon="4.79066">
        <ele>191</ele>
        <time>2022-09-05T06:51:59.000Z</time>
      </trkpt>
      <trkpt lat="49.82502" lon="4.79067">
        <ele>191</ele>
        <time>2022-09-05T06:52:00.000Z</time>
      </trkpt>
      <trkpt lat="49.82508" lon="4.79068">
        <ele>191</ele>
        <time>2022-09-05T06:52:01.000Z</time>
      </trkpt>
      <trkpt lat="49.82513" lon="4.79069">
        <ele>191</ele>
        <time>2022-09-05T06:52:02.000Z</time>
      </trkpt>
      <trkpt lat="49.82518" lon="4.7907">
        <ele>191</ele>
        <time>2022-09-05T06:52:03.000Z</time>
      </trkpt>
      <trkpt lat="49.82524" lon="4.79071">
        <ele>191</ele>
        <time>2022-09-05T06:52:04.000Z</time>
      </trkpt>
      <trkpt lat="49.82529" lon="4.79072">
        <ele>191</ele>
        <time>2022-09-05T06:52:05.000Z</time>
      </trkpt>
      <trkpt lat="49.82535" lon="4.79073">
        <ele>191</ele>
        <time>2022-09-05T06:52:06.000Z</time>
      </trkpt>
      <trkpt lat="49.82541" lon="4.79075">
        <ele>191</ele>
        <time>2022-09-05T06:52:07.000Z</time>
      </trkpt>
      <trkpt lat="49.82547" lon="4.79076">
        <ele>191</ele>
        <time>2022-09-05T06:52:08.000Z</time>
      </trkpt>
      <trkpt lat="49.82553" lon="4.79077">
        <ele>191</ele>
        <time>2022-09-05T06:52:09.000Z</time>
      </trkpt>
      <trkpt lat="49.82558" lon="4.79079">
        <ele>191</ele>
        <time>2022-09-05T06:52:10.000Z</time>
      </trkpt>
      <trkpt lat="49.82564" lon="4.7908">
        <ele>191</ele>
        <time>2022-09-05T06:52:11.000Z</time>
      </trkpt>
      <trkpt lat="49.82569" lon="4.79081">
        <ele>191</ele>
        <time>2022-09-05T06:52:12.000Z</time>
      </trkpt>
      <trkpt lat="49.82574" lon="4.79083">
        <ele>191</ele>
        <time>2022-09-05T06:52:13.000Z</time>
      </trkpt>
      <trkpt lat="49.82579" lon="4.79084">
        <ele>191</ele>
        <time>2022-09-05T06:52:14.000Z</time>
      </trkpt>
      <trkpt lat="49.82584" lon="4.79085">
        <ele>191</ele>
        <time>2022-09-05T06:52:15.000Z</time>
      </trkpt>
      <trkpt lat="49.8259" lon="4.79086">
        <ele>191</ele>
        <time>2022-09-05T06:52:16.000Z</time>
      </trkpt>
      <trkpt lat="49.82595" lon="4.79088">
        <ele>192</ele>
        <time>2022-09-05T06:52:17.000Z</time>
      </trkpt>
      <trkpt lat="49.826" lon="4.79089">
        <ele>192</ele>
        <time>2022-09-05T06:52:18.000Z</time>
      </trkpt>
      <trkpt lat="49.82605" lon="4.79091">
        <ele>192</ele>
        <time>2022-09-05T06:52:19.000Z</time>
      </trkpt>
      <trkpt lat="49.8261" lon="4.79093">
        <ele>192</ele>
        <time>2022-09-05T06:52:20.000Z</time>
      </trkpt>
      <trkpt lat="49.82615" lon="4.79095">
        <ele>192</ele>
        <time>2022-09-05T06:52:21.000Z</time>
      </trkpt>
      <trkpt lat="49.8262" lon="4.79097">
        <ele>192</ele>
        <time>2022-09-05T06:52:22.000Z</time>
      </trkpt>
      <trkpt lat="49.82625" lon="4.79099">
        <ele>192</ele>
        <time>2022-09-05T06:52:23.000Z</time>
      </trkpt>
      <trkpt lat="49.8263" lon="4.79102">
        <ele>192</ele>
        <time>2022-09-05T06:52:24.000Z</time>
      </trkpt>
      <trkpt lat="49.82635" lon="4.79104">
        <ele>192</ele>
        <time>2022-09-05T06:52:25.000Z</time>
      </trkpt>
      <trkpt lat="49.82639" lon="4.79107">
        <ele>192</ele>
        <time>2022-09-05T06:52:26.000Z</time>
      </trkpt>
      <trkpt lat="49.82644" lon="4.79109">
        <ele>192</ele>
        <time>2022-09-05T06:52:27.000Z</time>
      </trkpt>
      <trkpt lat="49.82648" lon="4.79111">
        <ele>192</ele>
        <time>2022-09-05T06:52:28.000Z</time>
      </trkpt>
      <trkpt lat="49.82653" lon="4.79113">
        <ele>192</ele>
        <time>2022-09-05T06:52:29.000Z</time>
      </trkpt>
      <trkpt lat="49.82657" lon="4.79115">
        <ele>192</ele>
        <time>2022-09-05T06:52:30.000Z</time>
      </trkpt>
      <trkpt lat="49.82661" lon="4.79115">
        <ele>192</ele>
        <time>2022-09-05T06:52:31.000Z</time>
      </trkpt>
      <trkpt lat="49.82665" lon="4.79116">
        <ele>192</ele>
        <time>2022-09-05T06:52:32.000Z</time>
      </trkpt>
      <trkpt lat="49.8267" lon="4.79116">
        <ele>192</ele>
        <time>2022-09-05T06:52:33.000Z</time>
      </trkpt>
      <trkpt lat="49.82674" lon="4.79116">
        <ele>192</ele>
        <time>2022-09-05T06:52:34.000Z</time>
      </trkpt>
      <trkpt lat="49.82679" lon="4.79116">
        <ele>192</ele>
        <time>2022-09-05T06:52:35.000Z</time>
      </trkpt>
      <trkpt lat="49.82684" lon="4.79117">
        <ele>192</ele>
        <time>2022-09-05T06:52:36.000Z</time>
      </trkpt>
      <trkpt lat="49.82689" lon="4.79119">
        <ele>192</ele>
        <time>2022-09-05T06:52:37.000Z</time>
      </trkpt>
      <trkpt lat="49.82695" lon="4.79121">
        <ele>192</ele>
        <time>2022-09-05T06:52:38.000Z</time>
      </trkpt>
      <trkpt lat="49.827" lon="4.79123">
        <ele>193</ele>
        <time>2022-09-05T06:52:39.000Z</time>
      </trkpt>
      <trkpt lat="49.82705" lon="4.79126">
        <ele>193</ele>
        <time>2022-09-05T06:52:40.000Z</time>
      </trkpt>
      <trkpt lat="49.8271" lon="4.7913">
        <ele>192</ele>
        <time>2022-09-05T06:52:41.000Z</time>
      </trkpt>
      <trkpt lat="49.82715" lon="4.79134">
        <ele>192</ele>
        <time>2022-09-05T06:52:42.000Z</time>
      </trkpt>
      <trkpt lat="49.8272" lon="4.79137">
        <ele>192</ele>
        <time>2022-09-05T06:52:43.000Z</time>
      </trkpt>
      <trkpt lat="49.82725" lon="4.7914">
        <ele>192</ele>
        <time>2022-09-05T06:52:44.000Z</time>
      </trkpt>
      <trkpt lat="49.8273" lon="4.79143">
        <ele>192</ele>
        <time>2022-09-05T06:52:45.000Z</time>
      </trkpt>
      <trkpt lat="49.82735" lon="4.79147">
        <ele>192</ele>
        <time>2022-09-05T06:52:46.000Z</time>
      </trkpt>
      <trkpt lat="49.8274" lon="4.7915">
        <ele>192</ele>
        <time>2022-09-05T06:52:47.000Z</time>
      </trkpt>
      <trkpt lat="49.82745" lon="4.79154">
        <ele>192</ele>
        <time>2022-09-05T06:52:48.000Z</time>
      </trkpt>
      <trkpt lat="49.8275" lon="4.79157">
        <ele>192</ele>
        <time>2022-09-05T06:52:49.000Z</time>
      </trkpt>
      <trkpt lat="49.82755" lon="4.79161">
        <ele>192</ele>
        <time>2022-09-05T06:52:50.000Z</time>
      </trkpt>
      <trkpt lat="49.8276" lon="4.79165">
        <ele>192</ele>
        <time>2022-09-05T06:52:51.000Z</time>
      </trkpt>
      <trkpt lat="49.82765" lon="4.79169">
        <ele>192</ele>
        <time>2022-09-05T06:52:52.000Z</time>
      </trkpt>
      <trkpt lat="49.8277" lon="4.79174">
        <ele>192</ele>
        <time>2022-09-05T06:52:53.000Z</time>
      </trkpt>
      <trkpt lat="49.82774" lon="4.79179">
        <ele>192</ele>
        <time>2022-09-05T06:52:54.000Z</time>
      </trkpt>
      <trkpt lat="49.82778" lon="4.79184">
        <ele>192</ele>
        <time>2022-09-05T06:52:55.000Z</time>
      </trkpt>
      <trkpt lat="49.82782" lon="4.7919">
        <ele>192</ele>
        <time>2022-09-05T06:52:56.000Z</time>
      </trkpt>
      <trkpt lat="49.82786" lon="4.79196">
        <ele>192</ele>
        <time>2022-09-05T06:52:57.000Z</time>
      </trkpt>
      <trkpt lat="49.8279" lon="4.79203">
        <ele>192</ele>
        <time>2022-09-05T06:52:58.000Z</time>
      </trkpt>
      <trkpt lat="49.82793" lon="4.7921">
        <ele>192</ele>
        <time>2022-09-05T06:52:59.000Z</time>
      </trkpt>
      <trkpt lat="49.82796" lon="4.79216">
        <ele>192</ele>
        <time>2022-09-05T06:53:00.000Z</time>
      </trkpt>
      <trkpt lat="49.828" lon="4.79222">
        <ele>193</ele>
        <time>2022-09-05T06:53:01.000Z</time>
      </trkpt>
      <trkpt lat="49.82803" lon="4.79228">
        <ele>193</ele>
        <time>2022-09-05T06:53:02.000Z</time>
      </trkpt>
      <trkpt lat="49.82805" lon="4.79234">
        <ele>193</ele>
        <time>2022-09-05T06:53:03.000Z</time>
      </trkpt>
      <trkpt lat="49.82809" lon="4.7924">
        <ele>193</ele>
        <time>2022-09-05T06:53:04.000Z</time>
      </trkpt>
      <trkpt lat="49.82812" lon="4.79245">
        <ele>193</ele>
        <time>2022-09-05T06:53:05.000Z</time>
      </trkpt>
      <trkpt lat="49.82816" lon="4.79251">
        <ele>193</ele>
        <time>2022-09-05T06:53:06.000Z</time>
      </trkpt>
      <trkpt lat="49.82819" lon="4.79256">
        <ele>193</ele>
        <time>2022-09-05T06:53:07.000Z</time>
      </trkpt>
      <trkpt lat="49.82823" lon="4.79261">
        <ele>194</ele>
        <time>2022-09-05T06:53:08.000Z</time>
      </trkpt>
      <trkpt lat="49.82828" lon="4.79265">
        <ele>194</ele>
        <time>2022-09-05T06:53:09.000Z</time>
      </trkpt>
      <trkpt lat="49.82832" lon="4.7927">
        <ele>194</ele>
        <time>2022-09-05T06:53:10.000Z</time>
      </trkpt>
      <trkpt lat="49.82837" lon="4.79274">
        <ele>194</ele>
        <time>2022-09-05T06:53:11.000Z</time>
      </trkpt>
      <trkpt lat="49.82842" lon="4.79278">
        <ele>195</ele>
        <time>2022-09-05T06:53:12.000Z</time>
      </trkpt>
      <trkpt lat="49.82847" lon="4.79282">
        <ele>195</ele>
        <time>2022-09-05T06:53:13.000Z</time>
      </trkpt>
      <trkpt lat="49.82852" lon="4.79288">
        <ele>195</ele>
        <time>2022-09-05T06:53:14.000Z</time>
      </trkpt>
      <trkpt lat="49.82856" lon="4.79293">
        <ele>195</ele>
        <time>2022-09-05T06:53:15.000Z</time>
      </trkpt>
      <trkpt lat="49.82861" lon="4.79299">
        <ele>196</ele>
        <time>2022-09-05T06:53:16.000Z</time>
      </trkpt>
      <trkpt lat="49.82865" lon="4.79304">
        <ele>196</ele>
        <time>2022-09-05T06:53:17.000Z</time>
      </trkpt>
      <trkpt lat="49.82869" lon="4.7931">
        <ele>196</ele>
        <time>2022-09-05T06:53:18.000Z</time>
      </trkpt>
      <trkpt lat="49.82872" lon="4.79316">
        <ele>196</ele>
        <time>2022-09-05T06:53:19.000Z</time>
      </trkpt>
      <trkpt lat="49.82875" lon="4.79321">
        <ele>196</ele>
        <time>2022-09-05T06:53:20.000Z</time>
      </trkpt>
      <trkpt lat="49.82878" lon="4.79326">
        <ele>196</ele>
        <time>2022-09-05T06:53:21.000Z</time>
      </trkpt>
      <trkpt lat="49.8288" lon="4.79332">
        <ele>196</ele>
        <time>2022-09-05T06:53:22.000Z</time>
      </trkpt>
      <trkpt lat="49.82883" lon="4.79336">
        <ele>196</ele>
        <time>2022-09-05T06:53:23.000Z</time>
      </trkpt>
      <trkpt lat="49.82886" lon="4.79341">
        <ele>196</ele>
        <time>2022-09-05T06:53:24.000Z</time>
      </trkpt>
      <trkpt lat="49.82888" lon="4.79347">
        <ele>196</ele>
        <time>2022-09-05T06:53:25.000Z</time>
      </trkpt>
      <trkpt lat="49.82891" lon="4.79353">
        <ele>196</ele>
        <time>2022-09-05T06:53:26.000Z</time>
      </trkpt>
      <trkpt lat="49.82893" lon="4.79358">
        <ele>197</ele>
        <time>2022-09-05T06:53:27.000Z</time>
      </trkpt>
      <trkpt lat="49.82895" lon="4.79364">
        <ele>197</ele>
        <time>2022-09-05T06:53:28.000Z</time>
      </trkpt>
      <trkpt lat="49.82897" lon="4.7937">
        <ele>197</ele>
        <time>2022-09-05T06:53:29.000Z</time>
      </trkpt>
      <trkpt lat="49.829" lon="4.79376">
        <ele>197</ele>
        <time>2022-09-05T06:53:30.000Z</time>
      </trkpt>
      <trkpt lat="49.82902" lon="4.79382">
        <ele>197</ele>
        <time>2022-09-05T06:53:31.000Z</time>
      </trkpt>
      <trkpt lat="49.82904" lon="4.79388">
        <ele>198</ele>
        <time>2022-09-05T06:53:32.000Z</time>
      </trkpt>
      <trkpt lat="49.82906" lon="4.79394">
        <ele>198</ele>
        <time>2022-09-05T06:53:33.000Z</time>
      </trkpt>
      <trkpt lat="49.82907" lon="4.79401">
        <ele>198</ele>
        <time>2022-09-05T06:53:34.000Z</time>
      </trkpt>
      <trkpt lat="49.82909" lon="4.79407">
        <ele>198</ele>
        <time>2022-09-05T06:53:35.000Z</time>
      </trkpt>
      <trkpt lat="49.8291" lon="4.79414">
        <ele>199</ele>
        <time>2022-09-05T06:53:36.000Z</time>
      </trkpt>
      <trkpt lat="49.82912" lon="4.7942">
        <ele>199</ele>
        <time>2022-09-05T06:53:37.000Z</time>
      </trkpt>
      <trkpt lat="49.82914" lon="4.79425">
        <ele>199</ele>
        <time>2022-09-05T06:53:38.000Z</time>
      </trkpt>
      <trkpt lat="49.82916" lon="4.7943">
        <ele>199</ele>
        <time>2022-09-05T06:53:39.000Z</time>
      </trkpt>
      <trkpt lat="49.82918" lon="4.79434">
        <ele>199</ele>
        <time>2022-09-05T06:53:40.000Z</time>
      </trkpt>
      <trkpt lat="49.8292" lon="4.7944">
        <ele>199</ele>
        <time>2022-09-05T06:53:41.000Z</time>
      </trkpt>
      <trkpt lat="49.82922" lon="4.79444">
        <ele>200</ele>
        <time>2022-09-05T06:53:42.000Z</time>
      </trkpt>
      <trkpt lat="49.82925" lon="4.79448">
        <ele>200</ele>
        <time>2022-09-05T06:53:43.000Z</time>
      </trkpt>
      <trkpt lat="49.82928" lon="4.79452">
        <ele>200</ele>
        <time>2022-09-05T06:53:44.000Z</time>
      </trkpt>
      <trkpt lat="49.8293" lon="4.79457">
        <ele>200</ele>
        <time>2022-09-05T06:53:45.000Z</time>
      </trkpt>
      <trkpt lat="49.82932" lon="4.7946">
        <ele>200</ele>
        <time>2022-09-05T06:53:46.000Z</time>
      </trkpt>
      <trkpt lat="49.82934" lon="4.79464">
        <ele>200</ele>
        <time>2022-09-05T06:53:47.000Z</time>
      </trkpt>
      <trkpt lat="49.82937" lon="4.79466">
        <ele>200</ele>
        <time>2022-09-05T06:53:48.000Z</time>
      </trkpt>
      <trkpt lat="49.82939" lon="4.79469">
        <ele>200</ele>
        <time>2022-09-05T06:53:49.000Z</time>
      </trkpt>
      <trkpt lat="49.82942" lon="4.79471">
        <ele>201</ele>
        <time>2022-09-05T06:53:50.000Z</time>
      </trkpt>
      <trkpt lat="49.82944" lon="4.79472">
        <ele>201</ele>
        <time>2022-09-05T06:53:51.000Z</time>
      </trkpt>
      <trkpt lat="49.82948" lon="4.79474">
        <ele>201</ele>
        <time>2022-09-05T06:53:52.000Z</time>
      </trkpt>
      <trkpt lat="49.82951" lon="4.79475">
        <ele>201</ele>
        <time>2022-09-05T06:53:53.000Z</time>
      </trkpt>
      <trkpt lat="49.82954" lon="4.79476">
        <ele>201</ele>
        <time>2022-09-05T06:53:54.000Z</time>
      </trkpt>
      <trkpt lat="49.82957" lon="4.79476">
        <ele>201</ele>
        <time>2022-09-05T06:53:55.000Z</time>
      </trkpt>
      <trkpt lat="49.8296" lon="4.79478">
        <ele>202</ele>
        <time>2022-09-05T06:53:56.000Z</time>
      </trkpt>
      <trkpt lat="49.82964" lon="4.79478">
        <ele>202</ele>
        <time>2022-09-05T06:53:57.000Z</time>
      </trkpt>
      <trkpt lat="49.82968" lon="4.79479">
        <ele>202</ele>
        <time>2022-09-05T06:53:58.000Z</time>
      </trkpt>
      <trkpt lat="49.82972" lon="4.7948">
        <ele>202</ele>
        <time>2022-09-05T06:53:59.000Z</time>
      </trkpt>
      <trkpt lat="49.82976" lon="4.79481">
        <ele>203</ele>
        <time>2022-09-05T06:54:00.000Z</time>
      </trkpt>
      <trkpt lat="49.8298" lon="4.79482">
        <ele>203</ele>
        <time>2022-09-05T06:54:01.000Z</time>
      </trkpt>
      <trkpt lat="49.82984" lon="4.79483">
        <ele>203</ele>
        <time>2022-09-05T06:54:02.000Z</time>
      </trkpt>
      <trkpt lat="49.82987" lon="4.79484">
        <ele>203</ele>
        <time>2022-09-05T06:54:03.000Z</time>
      </trkpt>
      <trkpt lat="49.82991" lon="4.79484">
        <ele>204</ele>
        <time>2022-09-05T06:54:04.000Z</time>
      </trkpt>
      <trkpt lat="49.82994" lon="4.79485">
        <ele>204</ele>
        <time>2022-09-05T06:54:05.000Z</time>
      </trkpt>
      <trkpt lat="49.82997" lon="4.79485">
        <ele>204</ele>
        <time>2022-09-05T06:54:06.000Z</time>
      </trkpt>
      <trkpt lat="49.82999" lon="4.79485">
        <ele>204</ele>
        <time>2022-09-05T06:54:07.000Z</time>
      </trkpt>
      <trkpt lat="49.83002" lon="4.79485">
        <ele>205</ele>
        <time>2022-09-05T06:54:08.000Z</time>
      </trkpt>
      <trkpt lat="49.83004" lon="4.79485">
        <ele>205</ele>
        <time>2022-09-05T06:54:09.000Z</time>
      </trkpt>
      <trkpt lat="49.83006" lon="4.79486">
        <ele>205</ele>
        <time>2022-09-05T06:54:10.000Z</time>
      </trkpt>
      <trkpt lat="49.83009" lon="4.79486">
        <ele>205</ele>
        <time>2022-09-05T06:54:11.000Z</time>
      </trkpt>
      <trkpt lat="49.83011" lon="4.79487">
        <ele>205</ele>
        <time>2022-09-05T06:54:12.000Z</time>
      </trkpt>
      <trkpt lat="49.83014" lon="4.79487">
        <ele>205</ele>
        <time>2022-09-05T06:54:13.000Z</time>
      </trkpt>
      <trkpt lat="49.83017" lon="4.79488">
        <ele>206</ele>
        <time>2022-09-05T06:54:14.000Z</time>
      </trkpt>
      <trkpt lat="49.83019" lon="4.79489">
        <ele>206</ele>
        <time>2022-09-05T06:54:15.000Z</time>
      </trkpt>
      <trkpt lat="49.83022" lon="4.79489">
        <ele>206</ele>
        <time>2022-09-05T06:54:16.000Z</time>
      </trkpt>
      <trkpt lat="49.83024" lon="4.79489">
        <ele>206</ele>
        <time>2022-09-05T06:54:17.000Z</time>
      </trkpt>
      <trkpt lat="49.83027" lon="4.7949">
        <ele>206</ele>
        <time>2022-09-05T06:54:18.000Z</time>
      </trkpt>
      <trkpt lat="49.83029" lon="4.79491">
        <ele>207</ele>
        <time>2022-09-05T06:54:19.000Z</time>
      </trkpt>
      <trkpt lat="49.83032" lon="4.79491">
        <ele>207</ele>
        <time>2022-09-05T06:54:20.000Z</time>
      </trkpt>
      <trkpt lat="49.83033" lon="4.79491">
        <ele>207</ele>
        <time>2022-09-05T06:54:21.000Z</time>
      </trkpt>
      <trkpt lat="49.83035" lon="4.79492">
        <ele>207</ele>
        <time>2022-09-05T06:54:22.000Z</time>
      </trkpt>
      <trkpt lat="49.83037" lon="4.79492">
        <ele>208</ele>
        <time>2022-09-05T06:54:23.000Z</time>
      </trkpt>
      <trkpt lat="49.83039" lon="4.79492">
        <ele>208</ele>
        <time>2022-09-05T06:54:24.000Z</time>
      </trkpt>
      <trkpt lat="49.83041" lon="4.79492">
        <ele>208</ele>
        <time>2022-09-05T06:54:25.000Z</time>
      </trkpt>
      <trkpt lat="49.83043" lon="4.79492">
        <ele>208</ele>
        <time>2022-09-05T06:54:26.000Z</time>
      </trkpt>
      <trkpt lat="49.83045" lon="4.79492">
        <ele>209</ele>
        <time>2022-09-05T06:54:27.000Z</time>
      </trkpt>
      <trkpt lat="49.83047" lon="4.79492">
        <ele>209</ele>
        <time>2022-09-05T06:54:28.000Z</time>
      </trkpt>
      <trkpt lat="49.83049" lon="4.79492">
        <ele>209</ele>
        <time>2022-09-05T06:54:29.000Z</time>
      </trkpt>
      <trkpt lat="49.83051" lon="4.79492">
        <ele>209</ele>
        <time>2022-09-05T06:54:30.000Z</time>
      </trkpt>
      <trkpt lat="49.83053" lon="4.79492">
        <ele>209</ele>
        <time>2022-09-05T06:54:31.000Z</time>
      </trkpt>
      <trkpt lat="49.83055" lon="4.79492">
        <ele>210</ele>
        <time>2022-09-05T06:54:32.000Z</time>
      </trkpt>
      <trkpt lat="49.83057" lon="4.79492">
        <ele>210</ele>
        <time>2022-09-05T06:54:33.000Z</time>
      </trkpt>
      <trkpt lat="49.83059" lon="4.79492">
        <ele>210</ele>
        <time>2022-09-05T06:54:34.000Z</time>
      </trkpt>
      <trkpt lat="49.83061" lon="4.79492">
        <ele>211</ele>
        <time>2022-09-05T06:54:35.000Z</time>
      </trkpt>
      <trkpt lat="49.83063" lon="4.79492">
        <ele>211</ele>
        <time>2022-09-05T06:54:36.000Z</time>
      </trkpt>
      <trkpt lat="49.83065" lon="4.79491">
        <ele>211</ele>
        <time>2022-09-05T06:54:37.000Z</time>
      </trkpt>
      <trkpt lat="49.83067" lon="4.79491">
        <ele>212</ele>
        <time>2022-09-05T06:54:38.000Z</time>
      </trkpt>
      <trkpt lat="49.83069" lon="4.7949">
        <ele>212</ele>
        <time>2022-09-05T06:54:39.000Z</time>
      </trkpt>
      <trkpt lat="49.8307" lon="4.79489">
        <ele>213</ele>
        <time>2022-09-05T06:54:40.000Z</time>
      </trkpt>
      <trkpt lat="49.83072" lon="4.79487">
        <ele>213</ele>
        <time>2022-09-05T06:54:41.000Z</time>
      </trkpt>
      <trkpt lat="49.83073" lon="4.79484">
        <ele>213</ele>
        <time>2022-09-05T06:54:42.000Z</time>
      </trkpt>
      <trkpt lat="49.83073" lon="4.79481">
        <ele>213</ele>
        <time>2022-09-05T06:54:43.000Z</time>
      </trkpt>
      <trkpt lat="49.83072" lon="4.79478">
        <ele>214</ele>
        <time>2022-09-05T06:54:44.000Z</time>
      </trkpt>
      <trkpt lat="49.83071" lon="4.79476">
        <ele>214</ele>
        <time>2022-09-05T06:54:45.000Z</time>
      </trkpt>
      <trkpt lat="49.83069" lon="4.79473">
        <ele>214</ele>
        <time>2022-09-05T06:54:46.000Z</time>
      </trkpt>
      <trkpt lat="49.83067" lon="4.79472">
        <ele>214</ele>
        <time>2022-09-05T06:54:47.000Z</time>
      </trkpt>
      <trkpt lat="49.83064" lon="4.79471">
        <ele>214</ele>
        <time>2022-09-05T06:54:48.000Z</time>
      </trkpt>
      <trkpt lat="49.83062" lon="4.7947">
        <ele>214</ele>
        <time>2022-09-05T06:54:49.000Z</time>
      </trkpt>
      <trkpt lat="49.83059" lon="4.79469">
        <ele>214</ele>
        <time>2022-09-05T06:54:50.000Z</time>
      </trkpt>
      <trkpt lat="49.83056" lon="4.79467">
        <ele>215</ele>
        <time>2022-09-05T06:54:51.000Z</time>
      </trkpt>
      <trkpt lat="49.83053" lon="4.79465">
        <ele>215</ele>
        <time>2022-09-05T06:54:52.000Z</time>
      </trkpt>
      <trkpt lat="49.8305" lon="4.79464">
        <ele>215</ele>
        <time>2022-09-05T06:54:53.000Z</time>
      </trkpt>
      <trkpt lat="49.83047" lon="4.79462">
        <ele>215</ele>
        <time>2022-09-05T06:54:54.000Z</time>
      </trkpt>
      <trkpt lat="49.83044" lon="4.79461">
        <ele>215</ele>
        <time>2022-09-05T06:54:55.000Z</time>
      </trkpt>
      <trkpt lat="49.83041" lon="4.7946">
        <ele>215</ele>
        <time>2022-09-05T06:54:56.000Z</time>
      </trkpt>
      <trkpt lat="49.83038" lon="4.79458">
        <ele>215</ele>
        <time>2022-09-05T06:54:57.000Z</time>
      </trkpt>
      <trkpt lat="49.83035" lon="4.79455">
        <ele>215</ele>
        <time>2022-09-05T06:54:58.000Z</time>
      </trkpt>
      <trkpt lat="49.83032" lon="4.79453">
        <ele>215</ele>
        <time>2022-09-05T06:54:59.000Z</time>
      </trkpt>
      <trkpt lat="49.8303" lon="4.79452">
        <ele>216</ele>
        <time>2022-09-05T06:55:00.000Z</time>
      </trkpt>
      <trkpt lat="49.83028" lon="4.7945">
        <ele>216</ele>
        <time>2022-09-05T06:55:01.000Z</time>
      </trkpt>
      <trkpt lat="49.83026" lon="4.79448">
        <ele>216</ele>
        <time>2022-09-05T06:55:02.000Z</time>
      </trkpt>
      <trkpt lat="49.83024" lon="4.79445">
        <ele>216</ele>
        <time>2022-09-05T06:55:03.000Z</time>
      </trkpt>
      <trkpt lat="49.83022" lon="4.79443">
        <ele>216</ele>
        <time>2022-09-05T06:55:04.000Z</time>
      </trkpt>
      <trkpt lat="49.8302" lon="4.79441">
        <ele>217</ele>
        <time>2022-09-05T06:55:05.000Z</time>
      </trkpt>
      <trkpt lat="49.83019" lon="4.79439">
        <ele>217</ele>
        <time>2022-09-05T06:55:06.000Z</time>
      </trkpt>
      <trkpt lat="49.83017" lon="4.79436">
        <ele>217</ele>
        <time>2022-09-05T06:55:07.000Z</time>
      </trkpt>
      <trkpt lat="49.83015" lon="4.79435">
        <ele>218</ele>
        <time>2022-09-05T06:55:08.000Z</time>
      </trkpt>
      <trkpt lat="49.83013" lon="4.79434">
        <ele>218</ele>
        <time>2022-09-05T06:55:09.000Z</time>
      </trkpt>
      <trkpt lat="49.83012" lon="4.79432">
        <ele>218</ele>
        <time>2022-09-05T06:55:10.000Z</time>
      </trkpt>
      <trkpt lat="49.8301" lon="4.79431">
        <ele>219</ele>
        <time>2022-09-05T06:55:11.000Z</time>
      </trkpt>
      <trkpt lat="49.83008" lon="4.79429">
        <ele>219</ele>
        <time>2022-09-05T06:55:12.000Z</time>
      </trkpt>
      <trkpt lat="49.83006" lon="4.79427">
        <ele>219</ele>
        <time>2022-09-05T06:55:13.000Z</time>
      </trkpt>
      <trkpt lat="49.83005" lon="4.79425">
        <ele>220</ele>
        <time>2022-09-05T06:55:14.000Z</time>
      </trkpt>
      <trkpt lat="49.83003" lon="4.79424">
        <ele>220</ele>
        <time>2022-09-05T06:55:15.000Z</time>
      </trkpt>
      <trkpt lat="49.83001" lon="4.79422">
        <ele>220</ele>
        <time>2022-09-05T06:55:16.000Z</time>
      </trkpt>
      <trkpt lat="49.82999" lon="4.7942">
        <ele>221</ele>
        <time>2022-09-05T06:55:17.000Z</time>
      </trkpt>
      <trkpt lat="49.82998" lon="4.79418">
        <ele>221</ele>
        <time>2022-09-05T06:55:18.000Z</time>
      </trkpt>
      <trkpt lat="49.82996" lon="4.79416">
        <ele>221</ele>
        <time>2022-09-05T06:55:19.000Z</time>
      </trkpt>
      <trkpt lat="49.82995" lon="4.79413">
        <ele>222</ele>
        <time>2022-09-05T06:55:20.000Z</time>
      </trkpt>
      <trkpt lat="49.82993" lon="4.79411">
        <ele>222</ele>
        <time>2022-09-05T06:55:21.000Z</time>
      </trkpt>
      <trkpt lat="49.82991" lon="4.79409">
        <ele>222</ele>
        <time>2022-09-05T06:55:22.000Z</time>
      </trkpt>
      <trkpt lat="49.82989" lon="4.79407">
        <ele>223</ele>
        <time>2022-09-05T06:55:23.000Z</time>
      </trkpt>
      <trkpt lat="49.82988" lon="4.79405">
        <ele>223</ele>
        <time>2022-09-05T06:55:24.000Z</time>
      </trkpt>
      <trkpt lat="49.82986" lon="4.79403">
        <ele>224</ele>
        <time>2022-09-05T06:55:25.000Z</time>
      </trkpt>
      <trkpt lat="49.82984" lon="4.79401">
        <ele>224</ele>
        <time>2022-09-05T06:55:26.000Z</time>
      </trkpt>
      <trkpt lat="49.82983" lon="4.79399">
        <ele>224</ele>
        <time>2022-09-05T06:55:27.000Z</time>
      </trkpt>
      <trkpt lat="49.82981" lon="4.79397">
        <ele>225</ele>
        <time>2022-09-05T06:55:28.000Z</time>
      </trkpt>
      <trkpt lat="49.82979" lon="4.79395">
        <ele>225</ele>
        <time>2022-09-05T06:55:29.000Z</time>
      </trkpt>
      <trkpt lat="49.82978" lon="4.79393">
        <ele>226</ele>
        <time>2022-09-05T06:55:30.000Z</time>
      </trkpt>
      <trkpt lat="49.82976" lon="4.79391">
        <ele>226</ele>
        <time>2022-09-05T06:55:31.000Z</time>
      </trkpt>
      <trkpt lat="49.82974" lon="4.79389">
        <ele>226</ele>
        <time>2022-09-05T06:55:32.000Z</time>
      </trkpt>
      <trkpt lat="49.82972" lon="4.79387">
        <ele>227</ele>
        <time>2022-09-05T06:55:33.000Z</time>
      </trkpt>
      <trkpt lat="49.8297" lon="4.79385">
        <ele>227</ele>
        <time>2022-09-05T06:55:34.000Z</time>
      </trkpt>
      <trkpt lat="49.82969" lon="4.79383">
        <ele>227</ele>
        <time>2022-09-05T06:55:35.000Z</time>
      </trkpt>
      <trkpt lat="49.82967" lon="4.79381">
        <ele>227</ele>
        <time>2022-09-05T06:55:36.000Z</time>
      </trkpt>
      <trkpt lat="49.82965" lon="4.79379">
        <ele>228</ele>
        <time>2022-09-05T06:55:37.000Z</time>
      </trkpt>
      <trkpt lat="49.82963" lon="4.79376">
        <ele>228</ele>
        <time>2022-09-05T06:55:38.000Z</time>
      </trkpt>
      <trkpt lat="49.82961" lon="4.79374">
        <ele>228</ele>
        <time>2022-09-05T06:55:39.000Z</time>
      </trkpt>
      <trkpt lat="49.8296" lon="4.79372">
        <ele>228</ele>
        <time>2022-09-05T06:55:40.000Z</time>
      </trkpt>
      <trkpt lat="49.82958" lon="4.79369">
        <ele>228</ele>
        <time>2022-09-05T06:55:41.000Z</time>
      </trkpt>
      <trkpt lat="49.82956" lon="4.79367">
        <ele>229</ele>
        <time>2022-09-05T06:55:42.000Z</time>
      </trkpt>
      <trkpt lat="49.82954" lon="4.79364">
        <ele>229</ele>
        <time>2022-09-05T06:55:43.000Z</time>
      </trkpt>
      <trkpt lat="49.82953" lon="4.79361">
        <ele>229</ele>
        <time>2022-09-05T06:55:44.000Z</time>
      </trkpt>
      <trkpt lat="49.82952" lon="4.79358">
        <ele>229</ele>
        <time>2022-09-05T06:55:45.000Z</time>
      </trkpt>
      <trkpt lat="49.82951" lon="4.79355">
        <ele>229</ele>
        <time>2022-09-05T06:55:46.000Z</time>
      </trkpt>
      <trkpt lat="49.82949" lon="4.79352">
        <ele>229</ele>
        <time>2022-09-05T06:55:47.000Z</time>
      </trkpt>
      <trkpt lat="49.82948" lon="4.79348">
        <ele>229</ele>
        <time>2022-09-05T06:55:48.000Z</time>
      </trkpt>
      <trkpt lat="49.82948" lon="4.79345">
        <ele>229</ele>
        <time>2022-09-05T06:55:49.000Z</time>
      </trkpt>
      <trkpt lat="49.82947" lon="4.79342">
        <ele>229</ele>
        <time>2022-09-05T06:55:50.000Z</time>
      </trkpt>
      <trkpt lat="49.82946" lon="4.79338">
        <ele>229</ele>
        <time>2022-09-05T06:55:51.000Z</time>
      </trkpt>
      <trkpt lat="49.82945" lon="4.79335">
        <ele>229</ele>
        <time>2022-09-05T06:55:52.000Z</time>
      </trkpt>
      <trkpt lat="49.82944" lon="4.79331">
        <ele>229</ele>
        <time>2022-09-05T06:55:53.000Z</time>
      </trkpt>
      <trkpt lat="49.82944" lon="4.79328">
        <ele>230</ele>
        <time>2022-09-05T06:55:54.000Z</time>
      </trkpt>
      <trkpt lat="49.82943" lon="4.79324">
        <ele>230</ele>
        <time>2022-09-05T06:55:55.000Z</time>
      </trkpt>
      <trkpt lat="49.82943" lon="4.7932">
        <ele>230</ele>
        <time>2022-09-05T06:55:56.000Z</time>
      </trkpt>
      <trkpt lat="49.82942" lon="4.79317">
        <ele>230</ele>
        <time>2022-09-05T06:55:57.000Z</time>
      </trkpt>
      <trkpt lat="49.82942" lon="4.79313">
        <ele>230</ele>
        <time>2022-09-05T06:55:58.000Z</time>
      </trkpt>
      <trkpt lat="49.82941" lon="4.7931">
        <ele>230</ele>
        <time>2022-09-05T06:55:59.000Z</time>
      </trkpt>
      <trkpt lat="49.82941" lon="4.79306">
        <ele>230</ele>
        <time>2022-09-05T06:56:00.000Z</time>
      </trkpt>
      <trkpt lat="49.82941" lon="4.79303">
        <ele>231</ele>
        <time>2022-09-05T06:56:01.000Z</time>
      </trkpt>
      <trkpt lat="49.8294" lon="4.79299">
        <ele>231</ele>
        <time>2022-09-05T06:56:02.000Z</time>
      </trkpt>
      <trkpt lat="49.8294" lon="4.79295">
        <ele>231</ele>
        <time>2022-09-05T06:56:03.000Z</time>
      </trkpt>
      <trkpt lat="49.8294" lon="4.79291">
        <ele>231</ele>
        <time>2022-09-05T06:56:04.000Z</time>
      </trkpt>
      <trkpt lat="49.8294" lon="4.79287">
        <ele>231</ele>
        <time>2022-09-05T06:56:05.000Z</time>
      </trkpt>
      <trkpt lat="49.8294" lon="4.79283">
        <ele>232</ele>
        <time>2022-09-05T06:56:06.000Z</time>
      </trkpt>
      <trkpt lat="49.8294" lon="4.79278">
        <ele>232</ele>
        <time>2022-09-05T06:56:07.000Z</time>
      </trkpt>
      <trkpt lat="49.8294" lon="4.79274">
        <ele>232</ele>
        <time>2022-09-05T06:56:08.000Z</time>
      </trkpt>
      <trkpt lat="49.8294" lon="4.79269">
        <ele>232</ele>
        <time>2022-09-05T06:56:09.000Z</time>
      </trkpt>
      <trkpt lat="49.82941" lon="4.79265">
        <ele>233</ele>
        <time>2022-09-05T06:56:10.000Z</time>
      </trkpt>
      <trkpt lat="49.82941" lon="4.7926">
        <ele>233</ele>
        <time>2022-09-05T06:56:11.000Z</time>
      </trkpt>
      <trkpt lat="49.82942" lon="4.79256">
        <ele>233</ele>
        <time>2022-09-05T06:56:12.000Z</time>
      </trkpt>
      <trkpt lat="49.82943" lon="4.79251">
        <ele>233</ele>
        <time>2022-09-05T06:56:13.000Z</time>
      </trkpt>
      <trkpt lat="49.82944" lon="4.79247">
        <ele>234</ele>
        <time>2022-09-05T06:56:14.000Z</time>
      </trkpt>
      <trkpt lat="49.82945" lon="4.79243">
        <ele>234</ele>
        <time>2022-09-05T06:56:15.000Z</time>
      </trkpt>
      <trkpt lat="49.82945" lon="4.79239">
        <ele>234</ele>
        <time>2022-09-05T06:56:16.000Z</time>
      </trkpt>
      <trkpt lat="49.82946" lon="4.79235">
        <ele>235</ele>
        <time>2022-09-05T06:56:17.000Z</time>
      </trkpt>
      <trkpt lat="49.82947" lon="4.7923">
        <ele>235</ele>
        <time>2022-09-05T06:56:18.000Z</time>
      </trkpt>
      <trkpt lat="49.82947" lon="4.79226">
        <ele>235</ele>
        <time>2022-09-05T06:56:19.000Z</time>
      </trkpt>
      <trkpt lat="49.82948" lon="4.79222">
        <ele>236</ele>
        <time>2022-09-05T06:56:20.000Z</time>
      </trkpt>
      <trkpt lat="49.82949" lon="4.79219">
        <ele>236</ele>
        <time>2022-09-05T06:56:21.000Z</time>
      </trkpt>
      <trkpt lat="49.8295" lon="4.79216">
        <ele>236</ele>
        <time>2022-09-05T06:56:22.000Z</time>
      </trkpt>
      <trkpt lat="49.82951" lon="4.79212">
        <ele>236</ele>
        <time>2022-09-05T06:56:23.000Z</time>
      </trkpt>
      <trkpt lat="49.82951" lon="4.79209">
        <ele>237</ele>
        <time>2022-09-05T06:56:24.000Z</time>
      </trkpt>
      <trkpt lat="49.82952" lon="4.79205">
        <ele>237</ele>
        <time>2022-09-05T06:56:25.000Z</time>
      </trkpt>
      <trkpt lat="49.82953" lon="4.79203">
        <ele>237</ele>
        <time>2022-09-05T06:56:26.000Z</time>
      </trkpt>
      <trkpt lat="49.82954" lon="4.79199">
        <ele>238</ele>
        <time>2022-09-05T06:56:27.000Z</time>
      </trkpt>
      <trkpt lat="49.82954" lon="4.79196">
        <ele>238</ele>
        <time>2022-09-05T06:56:28.000Z</time>
      </trkpt>
      <trkpt lat="49.82955" lon="4.79193">
        <ele>238</ele>
        <time>2022-09-05T06:56:29.000Z</time>
      </trkpt>
      <trkpt lat="49.82955" lon="4.79189">
        <ele>238</ele>
        <time>2022-09-05T06:56:30.000Z</time>
      </trkpt>
      <trkpt lat="49.82956" lon="4.79186">
        <ele>238</ele>
        <time>2022-09-05T06:56:31.000Z</time>
      </trkpt>
      <trkpt lat="49.82956" lon="4.79183">
        <ele>239</ele>
        <time>2022-09-05T06:56:32.000Z</time>
      </trkpt>
      <trkpt lat="49.82957" lon="4.7918">
        <ele>239</ele>
        <time>2022-09-05T06:56:33.000Z</time>
      </trkpt>
      <trkpt lat="49.82957" lon="4.79176">
        <ele>239</ele>
        <time>2022-09-05T06:56:34.000Z</time>
      </trkpt>
      <trkpt lat="49.82956" lon="4.79173">
        <ele>240</ele>
        <time>2022-09-05T06:56:35.000Z</time>
      </trkpt>
      <trkpt lat="49.82955" lon="4.79169">
        <ele>240</ele>
        <time>2022-09-05T06:56:36.000Z</time>
      </trkpt>
      <trkpt lat="49.82955" lon="4.79166">
        <ele>241</ele>
        <time>2022-09-05T06:56:37.000Z</time>
      </trkpt>
      <trkpt lat="49.82954" lon="4.79162">
        <ele>241</ele>
        <time>2022-09-05T06:56:38.000Z</time>
      </trkpt>
      <trkpt lat="49.82953" lon="4.79159">
        <ele>241</ele>
        <time>2022-09-05T06:56:39.000Z</time>
      </trkpt>
      <trkpt lat="49.82952" lon="4.79156">
        <ele>242</ele>
        <time>2022-09-05T06:56:40.000Z</time>
      </trkpt>
      <trkpt lat="49.82951" lon="4.79152">
        <ele>242</ele>
        <time>2022-09-05T06:56:41.000Z</time>
      </trkpt>
      <trkpt lat="49.8295" lon="4.79149">
        <ele>242</ele>
        <time>2022-09-05T06:56:42.000Z</time>
      </trkpt>
      <trkpt lat="49.82949" lon="4.79145">
        <ele>243</ele>
        <time>2022-09-05T06:56:43.000Z</time>
      </trkpt>
      <trkpt lat="49.82948" lon="4.79141">
        <ele>243</ele>
        <time>2022-09-05T06:56:44.000Z</time>
      </trkpt>
      <trkpt lat="49.82947" lon="4.79138">
        <ele>243</ele>
        <time>2022-09-05T06:56:45.000Z</time>
      </trkpt>
      <trkpt lat="49.82945" lon="4.79135">
        <ele>243</ele>
        <time>2022-09-05T06:56:46.000Z</time>
      </trkpt>
      <trkpt lat="49.82944" lon="4.79131">
        <ele>243</ele>
        <time>2022-09-05T06:56:47.000Z</time>
      </trkpt>
      <trkpt lat="49.82943" lon="4.79128">
        <ele>243</ele>
        <time>2022-09-05T06:56:48.000Z</time>
      </trkpt>
      <trkpt lat="49.82941" lon="4.79125">
        <ele>243</ele>
        <time>2022-09-05T06:56:49.000Z</time>
      </trkpt>
      <trkpt lat="49.8294" lon="4.79121">
        <ele>243</ele>
        <time>2022-09-05T06:56:50.000Z</time>
      </trkpt>
      <trkpt lat="49.82939" lon="4.79118">
        <ele>244</ele>
        <time>2022-09-05T06:56:51.000Z</time>
      </trkpt>
      <trkpt lat="49.82937" lon="4.79114">
        <ele>244</ele>
        <time>2022-09-05T06:56:52.000Z</time>
      </trkpt>
      <trkpt lat="49.82936" lon="4.7911">
        <ele>244</ele>
        <time>2022-09-05T06:56:53.000Z</time>
      </trkpt>
      <trkpt lat="49.82934" lon="4.79106">
        <ele>244</ele>
        <time>2022-09-05T06:56:54.000Z</time>
      </trkpt>
      <trkpt lat="49.82932" lon="4.79102">
        <ele>244</ele>
        <time>2022-09-05T06:56:55.000Z</time>
      </trkpt>
      <trkpt lat="49.8293" lon="4.79098">
        <ele>244</ele>
        <time>2022-09-05T06:56:56.000Z</time>
      </trkpt>
      <trkpt lat="49.82928" lon="4.79095">
        <ele>244</ele>
        <time>2022-09-05T06:56:57.000Z</time>
      </trkpt>
      <trkpt lat="49.82926" lon="4.79091">
        <ele>244</ele>
        <time>2022-09-05T06:56:58.000Z</time>
      </trkpt>
      <trkpt lat="49.82924" lon="4.79088">
        <ele>244</ele>
        <time>2022-09-05T06:56:59.000Z</time>
      </trkpt>
      <trkpt lat="49.82922" lon="4.79085">
        <ele>244</ele>
        <time>2022-09-05T06:57:00.000Z</time>
      </trkpt>
      <trkpt lat="49.82919" lon="4.79082">
        <ele>244</ele>
        <time>2022-09-05T06:57:01.000Z</time>
      </trkpt>
      <trkpt lat="49.82916" lon="4.79079">
        <ele>244</ele>
        <time>2022-09-05T06:57:02.000Z</time>
      </trkpt>
      <trkpt lat="49.82913" lon="4.79076">
        <ele>244</ele>
        <time>2022-09-05T06:57:03.000Z</time>
      </trkpt>
      <trkpt lat="49.8291" lon="4.79073">
        <ele>244</ele>
        <time>2022-09-05T06:57:04.000Z</time>
      </trkpt>
      <trkpt lat="49.82907" lon="4.79069">
        <ele>244</ele>
        <time>2022-09-05T06:57:05.000Z</time>
      </trkpt>
      <trkpt lat="49.82904" lon="4.79066">
        <ele>244</ele>
        <time>2022-09-05T06:57:06.000Z</time>
      </trkpt>
      <trkpt lat="49.829" lon="4.79063">
        <ele>244</ele>
        <time>2022-09-05T06:57:07.000Z</time>
      </trkpt>
      <trkpt lat="49.82897" lon="4.7906">
        <ele>244</ele>
        <time>2022-09-05T06:57:08.000Z</time>
      </trkpt>
      <trkpt lat="49.82894" lon="4.79057">
        <ele>244</ele>
        <time>2022-09-05T06:57:09.000Z</time>
      </trkpt>
      <trkpt lat="49.82891" lon="4.79054">
        <ele>245</ele>
        <time>2022-09-05T06:57:10.000Z</time>
      </trkpt>
      <trkpt lat="49.82888" lon="4.79051">
        <ele>245</ele>
        <time>2022-09-05T06:57:11.000Z</time>
      </trkpt>
      <trkpt lat="49.82885" lon="4.79049">
        <ele>245</ele>
        <time>2022-09-05T06:57:12.000Z</time>
      </trkpt>
      <trkpt lat="49.82882" lon="4.79046">
        <ele>245</ele>
        <time>2022-09-05T06:57:13.000Z</time>
      </trkpt>
      <trkpt lat="49.82879" lon="4.79043">
        <ele>245</ele>
        <time>2022-09-05T06:57:14.000Z</time>
      </trkpt>
      <trkpt lat="49.82877" lon="4.79041">
        <ele>245</ele>
        <time>2022-09-05T06:57:15.000Z</time>
      </trkpt>
      <trkpt lat="49.82874" lon="4.79038">
        <ele>246</ele>
        <time>2022-09-05T06:57:16.000Z</time>
      </trkpt>
      <trkpt lat="49.82872" lon="4.79036">
        <ele>246</ele>
        <time>2022-09-05T06:57:17.000Z</time>
      </trkpt>
      <trkpt lat="49.8287" lon="4.79033">
        <ele>246</ele>
        <time>2022-09-05T06:57:18.000Z</time>
      </trkpt>
      <trkpt lat="49.82867" lon="4.7903">
        <ele>246</ele>
        <time>2022-09-05T06:57:19.000Z</time>
      </trkpt>
      <trkpt lat="49.82865" lon="4.79028">
        <ele>246</ele>
        <time>2022-09-05T06:57:20.000Z</time>
      </trkpt>
      <trkpt lat="49.82863" lon="4.79025">
        <ele>246</ele>
        <time>2022-09-05T06:57:21.000Z</time>
      </trkpt>
      <trkpt lat="49.82861" lon="4.79022">
        <ele>247</ele>
        <time>2022-09-05T06:57:22.000Z</time>
      </trkpt>
      <trkpt lat="49.82859" lon="4.79019">
        <ele>247</ele>
        <time>2022-09-05T06:57:23.000Z</time>
      </trkpt>
      <trkpt lat="49.82857" lon="4.79017">
        <ele>247</ele>
        <time>2022-09-05T06:57:24.000Z</time>
      </trkpt>
      <trkpt lat="49.82855" lon="4.79013">
        <ele>247</ele>
        <time>2022-09-05T06:57:25.000Z</time>
      </trkpt>
      <trkpt lat="49.82853" lon="4.7901">
        <ele>247</ele>
        <time>2022-09-05T06:57:26.000Z</time>
      </trkpt>
      <trkpt lat="49.82852" lon="4.79007">
        <ele>247</ele>
        <time>2022-09-05T06:57:27.000Z</time>
      </trkpt>
      <trkpt lat="49.82851" lon="4.79003">
        <ele>247</ele>
        <time>2022-09-05T06:57:28.000Z</time>
      </trkpt>
      <trkpt lat="49.8285" lon="4.78999">
        <ele>247</ele>
        <time>2022-09-05T06:57:29.000Z</time>
      </trkpt>
      <trkpt lat="49.8285" lon="4.78996">
        <ele>247</ele>
        <time>2022-09-05T06:57:30.000Z</time>
      </trkpt>
      <trkpt lat="49.8285" lon="4.78992">
        <ele>247</ele>
        <time>2022-09-05T06:57:31.000Z</time>
      </trkpt>
      <trkpt lat="49.8285" lon="4.78989">
        <ele>247</ele>
        <time>2022-09-05T06:57:32.000Z</time>
      </trkpt>
      <trkpt lat="49.8285" lon="4.78985">
        <ele>247</ele>
        <time>2022-09-05T06:57:33.000Z</time>
      </trkpt>
      <trkpt lat="49.82851" lon="4.78982">
        <ele>248</ele>
        <time>2022-09-05T06:57:34.000Z</time>
      </trkpt>
      <trkpt lat="49.82853" lon="4.7898">
        <ele>248</ele>
        <time>2022-09-05T06:57:35.000Z</time>
      </trkpt>
      <trkpt lat="49.82855" lon="4.78977">
        <ele>248</ele>
        <time>2022-09-05T06:57:36.000Z</time>
      </trkpt>
      <trkpt lat="49.82856" lon="4.78975">
        <ele>248</ele>
        <time>2022-09-05T06:57:37.000Z</time>
      </trkpt>
      <trkpt lat="49.82858" lon="4.78974">
        <ele>248</ele>
        <time>2022-09-05T06:57:38.000Z</time>
      </trkpt>
      <trkpt lat="49.8286" lon="4.78972">
        <ele>248</ele>
        <time>2022-09-05T06:57:39.000Z</time>
      </trkpt>
      <trkpt lat="49.82862" lon="4.78971">
        <ele>249</ele>
        <time>2022-09-05T06:57:40.000Z</time>
      </trkpt>
      <trkpt lat="49.82864" lon="4.78971">
        <ele>249</ele>
        <time>2022-09-05T06:57:41.000Z</time>
      </trkpt>
      <trkpt lat="49.82866" lon="4.78971">
        <ele>249</ele>
        <time>2022-09-05T06:57:42.000Z</time>
      </trkpt>
      <trkpt lat="49.82868" lon="4.78972">
        <ele>250</ele>
        <time>2022-09-05T06:57:43.000Z</time>
      </trkpt>
      <trkpt lat="49.8287" lon="4.78973">
        <ele>250</ele>
        <time>2022-09-05T06:57:44.000Z</time>
      </trkpt>
      <trkpt lat="49.82873" lon="4.78974">
        <ele>250</ele>
        <time>2022-09-05T06:57:45.000Z</time>
      </trkpt>
      <trkpt lat="49.82875" lon="4.78976">
        <ele>251</ele>
        <time>2022-09-05T06:57:46.000Z</time>
      </trkpt>
      <trkpt lat="49.82878" lon="4.78978">
        <ele>251</ele>
        <time>2022-09-05T06:57:47.000Z</time>
      </trkpt>
      <trkpt lat="49.8288" lon="4.7898">
        <ele>251</ele>
        <time>2022-09-05T06:57:48.000Z</time>
      </trkpt>
      <trkpt lat="49.82882" lon="4.78982">
        <ele>251</ele>
        <time>2022-09-05T06:57:49.000Z</time>
      </trkpt>
      <trkpt lat="49.82884" lon="4.78984">
        <ele>252</ele>
        <time>2022-09-05T06:57:50.000Z</time>
      </trkpt>
      <trkpt lat="49.82887" lon="4.78986">
        <ele>252</ele>
        <time>2022-09-05T06:57:51.000Z</time>
      </trkpt>
      <trkpt lat="49.82889" lon="4.78988">
        <ele>252</ele>
        <time>2022-09-05T06:57:52.000Z</time>
      </trkpt>
      <trkpt lat="49.82891" lon="4.7899">
        <ele>252</ele>
        <time>2022-09-05T06:57:53.000Z</time>
      </trkpt>
      <trkpt lat="49.82893" lon="4.78993">
        <ele>253</ele>
        <time>2022-09-05T06:57:54.000Z</time>
      </trkpt>
      <trkpt lat="49.82895" lon="4.78995">
        <ele>253</ele>
        <time>2022-09-05T06:57:55.000Z</time>
      </trkpt>
      <trkpt lat="49.82897" lon="4.78996">
        <ele>253</ele>
        <time>2022-09-05T06:57:56.000Z</time>
      </trkpt>
      <trkpt lat="49.82899" lon="4.78998">
        <ele>253</ele>
        <time>2022-09-05T06:57:57.000Z</time>
      </trkpt>
      <trkpt lat="49.82901" lon="4.79">
        <ele>253</ele>
        <time>2022-09-05T06:57:58.000Z</time>
      </trkpt>
      <trkpt lat="49.82903" lon="4.79001">
        <ele>254</ele>
        <time>2022-09-05T06:57:59.000Z</time>
      </trkpt>
      <trkpt lat="49.82904" lon="4.79004">
        <ele>254</ele>
        <time>2022-09-05T06:58:00.000Z</time>
      </trkpt>
      <trkpt lat="49.82906" lon="4.79006">
        <ele>254</ele>
        <time>2022-09-05T06:58:01.000Z</time>
      </trkpt>
      <trkpt lat="49.82908" lon="4.79008">
        <ele>254</ele>
        <time>2022-09-05T06:58:02.000Z</time>
      </trkpt>
      <trkpt lat="49.8291" lon="4.7901">
        <ele>255</ele>
        <time>2022-09-05T06:58:03.000Z</time>
      </trkpt>
      <trkpt lat="49.82912" lon="4.79012">
        <ele>255</ele>
        <time>2022-09-05T06:58:04.000Z</time>
      </trkpt>
      <trkpt lat="49.82913" lon="4.79014">
        <ele>255</ele>
        <time>2022-09-05T06:58:05.000Z</time>
      </trkpt>
      <trkpt lat="49.82916" lon="4.79016">
        <ele>255</ele>
        <time>2022-09-05T06:58:06.000Z</time>
      </trkpt>
      <trkpt lat="49.82918" lon="4.79018">
        <ele>255</ele>
        <time>2022-09-05T06:58:07.000Z</time>
      </trkpt>
      <trkpt lat="49.8292" lon="4.79021">
        <ele>256</ele>
        <time>2022-09-05T06:58:08.000Z</time>
      </trkpt>
      <trkpt lat="49.82923" lon="4.79024">
        <ele>256</ele>
        <time>2022-09-05T06:58:09.000Z</time>
      </trkpt>
      <trkpt lat="49.82925" lon="4.79027">
        <ele>256</ele>
        <time>2022-09-05T06:58:10.000Z</time>
      </trkpt>
      <trkpt lat="49.82928" lon="4.7903">
        <ele>256</ele>
        <time>2022-09-05T06:58:11.000Z</time>
      </trkpt>
      <trkpt lat="49.82931" lon="4.79033">
        <ele>256</ele>
        <time>2022-09-05T06:58:12.000Z</time>
      </trkpt>
      <trkpt lat="49.82934" lon="4.79036">
        <ele>256</ele>
        <time>2022-09-05T06:58:13.000Z</time>
      </trkpt>
      <trkpt lat="49.82937" lon="4.79039">
        <ele>257</ele>
        <time>2022-09-05T06:58:14.000Z</time>
      </trkpt>
      <trkpt lat="49.8294" lon="4.79042">
        <ele>257</ele>
        <time>2022-09-05T06:58:15.000Z</time>
      </trkpt>
      <trkpt lat="49.82942" lon="4.79045">
        <ele>257</ele>
        <time>2022-09-05T06:58:16.000Z</time>
      </trkpt>
      <trkpt lat="49.82945" lon="4.79048">
        <ele>257</ele>
        <time>2022-09-05T06:58:17.000Z</time>
      </trkpt>
      <trkpt lat="49.82948" lon="4.79051">
        <ele>258</ele>
        <time>2022-09-05T06:58:18.000Z</time>
      </trkpt>
      <trkpt lat="49.82951" lon="4.79053">
        <ele>258</ele>
        <time>2022-09-05T06:58:19.000Z</time>
      </trkpt>
      <trkpt lat="49.82954" lon="4.79056">
        <ele>258</ele>
        <time>2022-09-05T06:58:20.000Z</time>
      </trkpt>
      <trkpt lat="49.82956" lon="4.79059">
        <ele>259</ele>
        <time>2022-09-05T06:58:21.000Z</time>
      </trkpt>
      <trkpt lat="49.82959" lon="4.79062">
        <ele>259</ele>
        <time>2022-09-05T06:58:22.000Z</time>
      </trkpt>
      <trkpt lat="49.82961" lon="4.79064">
        <ele>259</ele>
        <time>2022-09-05T06:58:23.000Z</time>
      </trkpt>
      <trkpt lat="49.82964" lon="4.79066">
        <ele>260</ele>
        <time>2022-09-05T06:58:24.000Z</time>
      </trkpt>
      <trkpt lat="49.82967" lon="4.79068">
        <ele>260</ele>
        <time>2022-09-05T06:58:25.000Z</time>
      </trkpt>
      <trkpt lat="49.82969" lon="4.7907">
        <ele>260</ele>
        <time>2022-09-05T06:58:26.000Z</time>
      </trkpt>
      <trkpt lat="49.82972" lon="4.79073">
        <ele>261</ele>
        <time>2022-09-05T06:58:27.000Z</time>
      </trkpt>
      <trkpt lat="49.82974" lon="4.79075">
        <ele>261</ele>
        <time>2022-09-05T06:58:28.000Z</time>
      </trkpt>
      <trkpt lat="49.82976" lon="4.79077">
        <ele>261</ele>
        <time>2022-09-05T06:58:29.000Z</time>
      </trkpt>
      <trkpt lat="49.82978" lon="4.7908">
        <ele>262</ele>
        <time>2022-09-05T06:58:30.000Z</time>
      </trkpt>
      <trkpt lat="49.82981" lon="4.79082">
        <ele>262</ele>
        <time>2022-09-05T06:58:31.000Z</time>
      </trkpt>
      <trkpt lat="49.82983" lon="4.79084">
        <ele>262</ele>
        <time>2022-09-05T06:58:32.000Z</time>
      </trkpt>
      <trkpt lat="49.82985" lon="4.79086">
        <ele>262</ele>
        <time>2022-09-05T06:58:33.000Z</time>
      </trkpt>
      <trkpt lat="49.82988" lon="4.79088">
        <ele>263</ele>
        <time>2022-09-05T06:58:34.000Z</time>
      </trkpt>
      <trkpt lat="49.8299" lon="4.7909">
        <ele>263</ele>
        <time>2022-09-05T06:58:35.000Z</time>
      </trkpt>
      <trkpt lat="49.82992" lon="4.79092">
        <ele>263</ele>
        <time>2022-09-05T06:58:36.000Z</time>
      </trkpt>
      <trkpt lat="49.82994" lon="4.79094">
        <ele>263</ele>
        <time>2022-09-05T06:58:37.000Z</time>
      </trkpt>
      <trkpt lat="49.82996" lon="4.79095">
        <ele>263</ele>
        <time>2022-09-05T06:58:38.000Z</time>
      </trkpt>
      <trkpt lat="49.82998" lon="4.79097">
        <ele>263</ele>
        <time>2022-09-05T06:58:39.000Z</time>
      </trkpt>
      <trkpt lat="49.83" lon="4.79098">
        <ele>264</ele>
        <time>2022-09-05T06:58:40.000Z</time>
      </trkpt>
      <trkpt lat="49.83002" lon="4.79099">
        <ele>264</ele>
        <time>2022-09-05T06:58:41.000Z</time>
      </trkpt>
      <trkpt lat="49.83004" lon="4.79101">
        <ele>264</ele>
        <time>2022-09-05T06:58:42.000Z</time>
      </trkpt>
      <trkpt lat="49.83006" lon="4.79102">
        <ele>264</ele>
        <time>2022-09-05T06:58:43.000Z</time>
      </trkpt>
      <trkpt lat="49.83008" lon="4.79103">
        <ele>264</ele>
        <time>2022-09-05T06:58:44.000Z</time>
      </trkpt>
      <trkpt lat="49.8301" lon="4.79104">
        <ele>264</ele>
        <time>2022-09-05T06:58:45.000Z</time>
      </trkpt>
      <trkpt lat="49.83012" lon="4.79105">
        <ele>264</ele>
        <time>2022-09-05T06:58:46.000Z</time>
      </trkpt>
      <trkpt lat="49.83013" lon="4.79105">
        <ele>264</ele>
        <time>2022-09-05T06:58:47.000Z</time>
      </trkpt>
      <trkpt lat="49.83015" lon="4.79106">
        <ele>264</ele>
        <time>2022-09-05T06:58:48.000Z</time>
      </trkpt>
      <trkpt lat="49.83018" lon="4.79106">
        <ele>265</ele>
        <time>2022-09-05T06:58:49.000Z</time>
      </trkpt>
      <trkpt lat="49.8302" lon="4.79107">
        <ele>265</ele>
        <time>2022-09-05T06:58:50.000Z</time>
      </trkpt>
      <trkpt lat="49.83023" lon="4.79108">
        <ele>265</ele>
        <time>2022-09-05T06:58:51.000Z</time>
      </trkpt>
      <trkpt lat="49.83025" lon="4.79109">
        <ele>265</ele>
        <time>2022-09-05T06:58:52.000Z</time>
      </trkpt>
      <trkpt lat="49.83028" lon="4.79111">
        <ele>265</ele>
        <time>2022-09-05T06:58:53.000Z</time>
      </trkpt>
      <trkpt lat="49.83031" lon="4.79112">
        <ele>265</ele>
        <time>2022-09-05T06:58:54.000Z</time>
      </trkpt>
      <trkpt lat="49.83034" lon="4.79115">
        <ele>266</ele>
        <time>2022-09-05T06:58:55.000Z</time>
      </trkpt>
      <trkpt lat="49.83036" lon="4.79118">
        <ele>266</ele>
        <time>2022-09-05T06:58:56.000Z</time>
      </trkpt>
      <trkpt lat="49.83039" lon="4.7912">
        <ele>266</ele>
        <time>2022-09-05T06:58:57.000Z</time>
      </trkpt>
      <trkpt lat="49.83041" lon="4.79124">
        <ele>266</ele>
        <time>2022-09-05T06:58:58.000Z</time>
      </trkpt>
      <trkpt lat="49.83044" lon="4.79127">
        <ele>266</ele>
        <time>2022-09-05T06:58:59.000Z</time>
      </trkpt>
      <trkpt lat="49.83046" lon="4.79131">
        <ele>267</ele>
        <time>2022-09-05T06:59:00.000Z</time>
      </trkpt>
      <trkpt lat="49.83048" lon="4.79134">
        <ele>267</ele>
        <time>2022-09-05T06:59:01.000Z</time>
      </trkpt>
      <trkpt lat="49.8305" lon="4.79139">
        <ele>267</ele>
        <time>2022-09-05T06:59:02.000Z</time>
      </trkpt>
      <trkpt lat="49.83052" lon="4.79143">
        <ele>267</ele>
        <time>2022-09-05T06:59:03.000Z</time>
      </trkpt>
      <trkpt lat="49.83053" lon="4.79147">
        <ele>268</ele>
        <time>2022-09-05T06:59:04.000Z</time>
      </trkpt>
      <trkpt lat="49.83054" lon="4.79152">
        <ele>268</ele>
        <time>2022-09-05T06:59:05.000Z</time>
      </trkpt>
      <trkpt lat="49.83056" lon="4.79156">
        <ele>268</ele>
        <time>2022-09-05T06:59:06.000Z</time>
      </trkpt>
      <trkpt lat="49.83057" lon="4.7916">
        <ele>268</ele>
        <time>2022-09-05T06:59:07.000Z</time>
      </trkpt>
      <trkpt lat="49.83059" lon="4.79165">
        <ele>269</ele>
        <time>2022-09-05T06:59:08.000Z</time>
      </trkpt>
      <trkpt lat="49.83061" lon="4.79168">
        <ele>269</ele>
        <time>2022-09-05T06:59:09.000Z</time>
      </trkpt>
      <trkpt lat="49.83062" lon="4.79172">
        <ele>269</ele>
        <time>2022-09-05T06:59:10.000Z</time>
      </trkpt>
      <trkpt lat="49.83062" lon="4.79176">
        <ele>270</ele>
        <time>2022-09-05T06:59:11.000Z</time>
      </trkpt>
      <trkpt lat="49.83063" lon="4.79179">
        <ele>270</ele>
        <time>2022-09-05T06:59:12.000Z</time>
      </trkpt>
      <trkpt lat="49.83065" lon="4.79183">
        <ele>270</ele>
        <time>2022-09-05T06:59:13.000Z</time>
      </trkpt>
      <trkpt lat="49.83066" lon="4.79186">
        <ele>271</ele>
        <time>2022-09-05T06:59:14.000Z</time>
      </trkpt>
      <trkpt lat="49.83068" lon="4.79189">
        <ele>271</ele>
        <time>2022-09-05T06:59:15.000Z</time>
      </trkpt>
      <trkpt lat="49.83069" lon="4.79193">
        <ele>271</ele>
        <time>2022-09-05T06:59:16.000Z</time>
      </trkpt>
      <trkpt lat="49.83071" lon="4.79196">
        <ele>272</ele>
        <time>2022-09-05T06:59:17.000Z</time>
      </trkpt>
      <trkpt lat="49.83072" lon="4.792">
        <ele>272</ele>
        <time>2022-09-05T06:59:18.000Z</time>
      </trkpt>
      <trkpt lat="49.83074" lon="4.79202">
        <ele>273</ele>
        <time>2022-09-05T06:59:19.000Z</time>
      </trkpt>
      <trkpt lat="49.83075" lon="4.79205">
        <ele>273</ele>
        <time>2022-09-05T06:59:20.000Z</time>
      </trkpt>
      <trkpt lat="49.83077" lon="4.79208">
        <ele>273</ele>
        <time>2022-09-05T06:59:21.000Z</time>
      </trkpt>
      <trkpt lat="49.83078" lon="4.7921">
        <ele>274</ele>
        <time>2022-09-05T06:59:22.000Z</time>
      </trkpt>
      <trkpt lat="49.8308" lon="4.79212">
        <ele>274</ele>
        <time>2022-09-05T06:59:23.000Z</time>
      </trkpt>
      <trkpt lat="49.83082" lon="4.79214">
        <ele>274</ele>
        <time>2022-09-05T06:59:24.000Z</time>
      </trkpt>
      <trkpt lat="49.83084" lon="4.79215">
        <ele>274</ele>
        <time>2022-09-05T06:59:25.000Z</time>
      </trkpt>
      <trkpt lat="49.83087" lon="4.79216">
        <ele>275</ele>
        <time>2022-09-05T06:59:26.000Z</time>
      </trkpt>
      <trkpt lat="49.83089" lon="4.79217">
        <ele>275</ele>
        <time>2022-09-05T06:59:27.000Z</time>
      </trkpt>
      <trkpt lat="49.83092" lon="4.79217">
        <ele>275</ele>
        <time>2022-09-05T06:59:28.000Z</time>
      </trkpt>
      <trkpt lat="49.83095" lon="4.79216">
        <ele>276</ele>
        <time>2022-09-05T06:59:29.000Z</time>
      </trkpt>
      <trkpt lat="49.83097" lon="4.79215">
        <ele>276</ele>
        <time>2022-09-05T06:59:30.000Z</time>
      </trkpt>
      <trkpt lat="49.831" lon="4.79215">
        <ele>276</ele>
        <time>2022-09-05T06:59:31.000Z</time>
      </trkpt>
      <trkpt lat="49.83104" lon="4.79214">
        <ele>276</ele>
        <time>2022-09-05T06:59:32.000Z</time>
      </trkpt>
      <trkpt lat="49.83107" lon="4.79215">
        <ele>276</ele>
        <time>2022-09-05T06:59:33.000Z</time>
      </trkpt>
      <trkpt lat="49.8311" lon="4.79215">
        <ele>277</ele>
        <time>2022-09-05T06:59:34.000Z</time>
      </trkpt>
      <trkpt lat="49.83113" lon="4.79216">
        <ele>277</ele>
        <time>2022-09-05T06:59:35.000Z</time>
      </trkpt>
      <trkpt lat="49.83116" lon="4.79215">
        <ele>277</ele>
        <time>2022-09-05T06:59:36.000Z</time>
      </trkpt>
      <trkpt lat="49.83118" lon="4.79216">
        <ele>277</ele>
        <time>2022-09-05T06:59:37.000Z</time>
      </trkpt>
      <trkpt lat="49.8312" lon="4.79217">
        <ele>277</ele>
        <time>2022-09-05T06:59:38.000Z</time>
      </trkpt>
      <trkpt lat="49.83123" lon="4.79217">
        <ele>278</ele>
        <time>2022-09-05T06:59:39.000Z</time>
      </trkpt>
      <trkpt lat="49.83125" lon="4.79218">
        <ele>278</ele>
        <time>2022-09-05T06:59:40.000Z</time>
      </trkpt>
      <trkpt lat="49.83128" lon="4.79219">
        <ele>278</ele>
        <time>2022-09-05T06:59:41.000Z</time>
      </trkpt>
      <trkpt lat="49.83131" lon="4.7922">
        <ele>278</ele>
        <time>2022-09-05T06:59:42.000Z</time>
      </trkpt>
      <trkpt lat="49.83133" lon="4.79222">
        <ele>278</ele>
        <time>2022-09-05T06:59:43.000Z</time>
      </trkpt>
      <trkpt lat="49.83136" lon="4.79223">
        <ele>278</ele>
        <time>2022-09-05T06:59:44.000Z</time>
      </trkpt>
      <trkpt lat="49.83139" lon="4.79224">
        <ele>278</ele>
        <time>2022-09-05T06:59:45.000Z</time>
      </trkpt>
      <trkpt lat="49.83141" lon="4.79225">
        <ele>278</ele>
        <time>2022-09-05T06:59:46.000Z</time>
      </trkpt>
      <trkpt lat="49.83144" lon="4.79226">
        <ele>279</ele>
        <time>2022-09-05T06:59:47.000Z</time>
      </trkpt>
      <trkpt lat="49.83146" lon="4.79226">
        <ele>279</ele>
        <time>2022-09-05T06:59:48.000Z</time>
      </trkpt>
      <trkpt lat="49.83149" lon="4.79226">
        <ele>279</ele>
        <time>2022-09-05T06:59:49.000Z</time>
      </trkpt>
      <trkpt lat="49.83152" lon="4.79227">
        <ele>279</ele>
        <time>2022-09-05T06:59:50.000Z</time>
      </trkpt>
      <trkpt lat="49.83154" lon="4.79227">
        <ele>279</ele>
        <time>2022-09-05T06:59:51.000Z</time>
      </trkpt>
      <trkpt lat="49.83156" lon="4.79227">
        <ele>280</ele>
        <time>2022-09-05T06:59:52.000Z</time>
      </trkpt>
      <trkpt lat="49.83158" lon="4.79226">
        <ele>280</ele>
        <time>2022-09-05T06:59:53.000Z</time>
      </trkpt>
      <trkpt lat="49.83161" lon="4.79226">
        <ele>280</ele>
        <time>2022-09-05T06:59:54.000Z</time>
      </trkpt>
      <trkpt lat="49.83163" lon="4.79225">
        <ele>280</ele>
        <time>2022-09-05T06:59:55.000Z</time>
      </trkpt>
      <trkpt lat="49.83165" lon="4.79225">
        <ele>281</ele>
        <time>2022-09-05T06:59:56.000Z</time>
      </trkpt>
      <trkpt lat="49.83167" lon="4.79224">
        <ele>281</ele>
        <time>2022-09-05T06:59:57.000Z</time>
      </trkpt>
      <trkpt lat="49.83169" lon="4.79224">
        <ele>281</ele>
        <time>2022-09-05T06:59:58.000Z</time>
      </trkpt>
      <trkpt lat="49.83171" lon="4.79223">
        <ele>281</ele>
        <time>2022-09-05T06:59:59.000Z</time>
      </trkpt>
      <trkpt lat="49.83174" lon="4.79222">
        <ele>282</ele>
        <time>2022-09-05T07:00:00.000Z</time>
      </trkpt>
      <trkpt lat="49.83176" lon="4.79221">
        <ele>282</ele>
        <time>2022-09-05T07:00:01.000Z</time>
      </trkpt>
      <trkpt lat="49.83179" lon="4.7922">
        <ele>282</ele>
        <time>2022-09-05T07:00:02.000Z</time>
      </trkpt>
      <trkpt lat="49.83181" lon="4.79218">
        <ele>283</ele>
        <time>2022-09-05T07:00:03.000Z</time>
      </trkpt>
      <trkpt lat="49.83184" lon="4.79216">
        <ele>283</ele>
        <time>2022-09-05T07:00:04.000Z</time>
      </trkpt>
      <trkpt lat="49.83186" lon="4.79215">
        <ele>283</ele>
        <time>2022-09-05T07:00:05.000Z</time>
      </trkpt>
      <trkpt lat="49.83189" lon="4.79212">
        <ele>283</ele>
        <time>2022-09-05T07:00:06.000Z</time>
      </trkpt>
      <trkpt lat="49.83191" lon="4.79209">
        <ele>284</ele>
        <time>2022-09-05T07:00:07.000Z</time>
      </trkpt>
      <trkpt lat="49.83193" lon="4.79205">
        <ele>284</ele>
        <time>2022-09-05T07:00:08.000Z</time>
      </trkpt>
      <trkpt lat="49.83195" lon="4.79202">
        <ele>284</ele>
        <time>2022-09-05T07:00:09.000Z</time>
      </trkpt>
      <trkpt lat="49.83198" lon="4.79199">
        <ele>284</ele>
        <time>2022-09-05T07:00:10.000Z</time>
      </trkpt>
      <trkpt lat="49.83199" lon="4.79195">
        <ele>285</ele>
        <time>2022-09-05T07:00:11.000Z</time>
      </trkpt>
      <trkpt lat="49.83202" lon="4.79191">
        <ele>285</ele>
        <time>2022-09-05T07:00:12.000Z</time>
      </trkpt>
      <trkpt lat="49.83204" lon="4.79188">
        <ele>285</ele>
        <time>2022-09-05T07:00:13.000Z</time>
      </trkpt>
      <trkpt lat="49.83205" lon="4.79183">
        <ele>286</ele>
        <time>2022-09-05T07:00:14.000Z</time>
      </trkpt>
      <trkpt lat="49.83206" lon="4.79179">
        <ele>286</ele>
        <time>2022-09-05T07:00:15.000Z</time>
      </trkpt>
      <trkpt lat="49.83207" lon="4.79174">
        <ele>286</ele>
        <time>2022-09-05T07:00:16.000Z</time>
      </trkpt>
      <trkpt lat="49.83208" lon="4.7917">
        <ele>287</ele>
        <time>2022-09-05T07:00:17.000Z</time>
      </trkpt>
      <trkpt lat="49.83209" lon="4.79165">
        <ele>287</ele>
        <time>2022-09-05T07:00:18.000Z</time>
      </trkpt>
      <trkpt lat="49.8321" lon="4.79161">
        <ele>287</ele>
        <time>2022-09-05T07:00:19.000Z</time>
      </trkpt>
      <trkpt lat="49.83211" lon="4.79156">
        <ele>288</ele>
        <time>2022-09-05T07:00:20.000Z</time>
      </trkpt>
      <trkpt lat="49.83212" lon="4.79152">
        <ele>288</ele>
        <time>2022-09-05T07:00:21.000Z</time>
      </trkpt>
      <trkpt lat="49.83213" lon="4.79148">
        <ele>289</ele>
        <time>2022-09-05T07:00:22.000Z</time>
      </trkpt>
      <trkpt lat="49.83215" lon="4.79144">
        <ele>289</ele>
        <time>2022-09-05T07:00:23.000Z</time>
      </trkpt>
      <trkpt lat="49.83216" lon="4.7914">
        <ele>289</ele>
        <time>2022-09-05T07:00:24.000Z</time>
      </trkpt>
      <trkpt lat="49.83217" lon="4.79136">
        <ele>290</ele>
        <time>2022-09-05T07:00:25.000Z</time>
      </trkpt>
      <trkpt lat="49.83219" lon="4.79132">
        <ele>290</ele>
        <time>2022-09-05T07:00:26.000Z</time>
      </trkpt>
      <trkpt lat="49.83221" lon="4.79128">
        <ele>291</ele>
        <time>2022-09-05T07:00:27.000Z</time>
      </trkpt>
      <trkpt lat="49.83222" lon="4.79124">
        <ele>291</ele>
        <time>2022-09-05T07:00:28.000Z</time>
      </trkpt>
      <trkpt lat="49.83224" lon="4.7912">
        <ele>291</ele>
        <time>2022-09-05T07:00:29.000Z</time>
      </trkpt>
      <trkpt lat="49.83226" lon="4.79116">
        <ele>292</ele>
        <time>2022-09-05T07:00:30.000Z</time>
      </trkpt>
      <trkpt lat="49.83228" lon="4.79112">
        <ele>292</ele>
        <time>2022-09-05T07:00:31.000Z</time>
      </trkpt>
      <trkpt lat="49.83229" lon="4.79109">
        <ele>292</ele>
        <time>2022-09-05T07:00:32.000Z</time>
      </trkpt>
      <trkpt lat="49.83231" lon="4.79107">
        <ele>292</ele>
        <time>2022-09-05T07:00:33.000Z</time>
      </trkpt>
      <trkpt lat="49.83233" lon="4.79104">
        <ele>293</ele>
        <time>2022-09-05T07:00:34.000Z</time>
      </trkpt>
      <trkpt lat="49.83235" lon="4.79101">
        <ele>293</ele>
        <time>2022-09-05T07:00:35.000Z</time>
      </trkpt>
      <trkpt lat="49.83237" lon="4.79098">
        <ele>293</ele>
        <time>2022-09-05T07:00:36.000Z</time>
      </trkpt>
      <trkpt lat="49.8324" lon="4.79096">
        <ele>294</ele>
        <time>2022-09-05T07:00:37.000Z</time>
      </trkpt>
      <trkpt lat="49.83242" lon="4.79093">
        <ele>294</ele>
        <time>2022-09-05T07:00:38.000Z</time>
      </trkpt>
      <trkpt lat="49.83245" lon="4.79091">
        <ele>294</ele>
        <time>2022-09-05T07:00:39.000Z</time>
      </trkpt>
      <trkpt lat="49.83248" lon="4.7909">
        <ele>294</ele>
        <time>2022-09-05T07:00:40.000Z</time>
      </trkpt>
      <trkpt lat="49.83251" lon="4.79089">
        <ele>295</ele>
        <time>2022-09-05T07:00:41.000Z</time>
      </trkpt>
      <trkpt lat="49.83253" lon="4.79088">
        <ele>295</ele>
        <time>2022-09-05T07:00:42.000Z</time>
      </trkpt>
      <trkpt lat="49.83256" lon="4.79088">
        <ele>295</ele>
        <time>2022-09-05T07:00:43.000Z</time>
      </trkpt>
      <trkpt lat="49.83259" lon="4.79089">
        <ele>295</ele>
        <time>2022-09-05T07:00:44.000Z</time>
      </trkpt>
      <trkpt lat="49.83262" lon="4.7909">
        <ele>295</ele>
        <time>2022-09-05T07:00:45.000Z</time>
      </trkpt>
      <trkpt lat="49.83266" lon="4.7909">
        <ele>296</ele>
        <time>2022-09-05T07:00:46.000Z</time>
      </trkpt>
      <trkpt lat="49.8327" lon="4.79091">
        <ele>296</ele>
        <time>2022-09-05T07:00:47.000Z</time>
      </trkpt>
      <trkpt lat="49.83274" lon="4.79091">
        <ele>296</ele>
        <time>2022-09-05T07:00:48.000Z</time>
      </trkpt>
      <trkpt lat="49.83278" lon="4.7909">
        <ele>296</ele>
        <time>2022-09-05T07:00:49.000Z</time>
      </trkpt>
      <trkpt lat="49.83283" lon="4.79089">
        <ele>296</ele>
        <time>2022-09-05T07:00:50.000Z</time>
      </trkpt>
      <trkpt lat="49.83288" lon="4.79087">
        <ele>296</ele>
        <time>2022-09-05T07:00:51.000Z</time>
      </trkpt>
      <trkpt lat="49.83293" lon="4.79085">
        <ele>296</ele>
        <time>2022-09-05T07:00:52.000Z</time>
      </trkpt>
      <trkpt lat="49.83299" lon="4.79082">
        <ele>295</ele>
        <time>2022-09-05T07:00:53.000Z</time>
      </trkpt>
      <trkpt lat="49.83306" lon="4.79078">
        <ele>295</ele>
        <time>2022-09-05T07:00:54.000Z</time>
      </trkpt>
      <trkpt lat="49.83312" lon="4.79074">
        <ele>295</ele>
        <time>2022-09-05T07:00:55.000Z</time>
      </trkpt>
      <trkpt lat="49.83318" lon="4.79068">
        <ele>295</ele>
        <time>2022-09-05T07:00:56.000Z</time>
      </trkpt>
      <trkpt lat="49.83324" lon="4.7906">
        <ele>295</ele>
        <time>2022-09-05T07:00:57.000Z</time>
      </trkpt>
      <trkpt lat="49.83329" lon="4.79052">
        <ele>295</ele>
        <time>2022-09-05T07:00:58.000Z</time>
      </trkpt>
      <trkpt lat="49.83334" lon="4.79044">
        <ele>295</ele>
        <time>2022-09-05T07:00:59.000Z</time>
      </trkpt>
      <trkpt lat="49.83339" lon="4.79035">
        <ele>295</ele>
        <time>2022-09-05T07:01:00.000Z</time>
      </trkpt>
      <trkpt lat="49.83343" lon="4.79026">
        <ele>295</ele>
        <time>2022-09-05T07:01:01.000Z</time>
      </trkpt>
      <trkpt lat="49.83347" lon="4.79017">
        <ele>295</ele>
        <time>2022-09-05T07:01:02.000Z</time>
      </trkpt>
      <trkpt lat="49.83351" lon="4.79009">
        <ele>294</ele>
        <time>2022-09-05T07:01:03.000Z</time>
      </trkpt>
      <trkpt lat="49.83355" lon="4.79001">
        <ele>294</ele>
        <time>2022-09-05T07:01:04.000Z</time>
      </trkpt>
      <trkpt lat="49.83359" lon="4.78992">
        <ele>294</ele>
        <time>2022-09-05T07:01:05.000Z</time>
      </trkpt>
      <trkpt lat="49.83363" lon="4.78984">
        <ele>294</ele>
        <time>2022-09-05T07:01:06.000Z</time>
      </trkpt>
      <trkpt lat="49.83367" lon="4.78975">
        <ele>294</ele>
        <time>2022-09-05T07:01:07.000Z</time>
      </trkpt>
      <trkpt lat="49.83371" lon="4.78966">
        <ele>294</ele>
        <time>2022-09-05T07:01:08.000Z</time>
      </trkpt>
      <trkpt lat="49.83375" lon="4.78958">
        <ele>294</ele>
        <time>2022-09-05T07:01:09.000Z</time>
      </trkpt>
      <trkpt lat="49.83379" lon="4.78949">
        <ele>294</ele>
        <time>2022-09-05T07:01:10.000Z</time>
      </trkpt>
      <trkpt lat="49.83383" lon="4.78941">
        <ele>294</ele>
        <time>2022-09-05T07:01:11.000Z</time>
      </trkpt>
      <trkpt lat="49.83388" lon="4.78934">
        <ele>294</ele>
        <time>2022-09-05T07:01:12.000Z</time>
      </trkpt>
      <trkpt lat="49.83393" lon="4.78927">
        <ele>294</ele>
        <time>2022-09-05T07:01:13.000Z</time>
      </trkpt>
      <trkpt lat="49.83398" lon="4.78921">
        <ele>294</ele>
        <time>2022-09-05T07:01:14.000Z</time>
      </trkpt>
      <trkpt lat="49.83403" lon="4.78916">
        <ele>294</ele>
        <time>2022-09-05T07:01:15.000Z</time>
      </trkpt>
      <trkpt lat="49.83408" lon="4.78911">
        <ele>294</ele>
        <time>2022-09-05T07:01:16.000Z</time>
      </trkpt>
      <trkpt lat="49.83412" lon="4.78908">
        <ele>294</ele>
        <time>2022-09-05T07:01:17.000Z</time>
      </trkpt>
      <trkpt lat="49.83416" lon="4.78906">
        <ele>294</ele>
        <time>2022-09-05T07:01:18.000Z</time>
      </trkpt>
      <trkpt lat="49.8342" lon="4.78903">
        <ele>294</ele>
        <time>2022-09-05T07:01:19.000Z</time>
      </trkpt>
      <trkpt lat="49.83424" lon="4.78901">
        <ele>294</ele>
        <time>2022-09-05T07:01:20.000Z</time>
      </trkpt>
      <trkpt lat="49.83428" lon="4.78899">
        <ele>294</ele>
        <time>2022-09-05T07:01:21.000Z</time>
      </trkpt>
      <trkpt lat="49.83432" lon="4.78898">
        <ele>294</ele>
        <time>2022-09-05T07:01:22.000Z</time>
      </trkpt>
      <trkpt lat="49.83435" lon="4.78898">
        <ele>294</ele>
        <time>2022-09-05T07:01:23.000Z</time>
      </trkpt>
      <trkpt lat="49.83438" lon="4.78897">
        <ele>295</ele>
        <time>2022-09-05T07:01:24.000Z</time>
      </trkpt>
      <trkpt lat="49.83441" lon="4.78895">
        <ele>295</ele>
        <time>2022-09-05T07:01:25.000Z</time>
      </trkpt>
      <trkpt lat="49.83445" lon="4.78894">
        <ele>295</ele>
        <time>2022-09-05T07:01:26.000Z</time>
      </trkpt>
      <trkpt lat="49.83448" lon="4.78893">
        <ele>295</ele>
        <time>2022-09-05T07:01:27.000Z</time>
      </trkpt>
      <trkpt lat="49.83451" lon="4.78892">
        <ele>295</ele>
        <time>2022-09-05T07:01:28.000Z</time>
      </trkpt>
      <trkpt lat="49.83454" lon="4.78891">
        <ele>295</ele>
        <time>2022-09-05T07:01:29.000Z</time>
      </trkpt>
      <trkpt lat="49.83457" lon="4.78888">
        <ele>295</ele>
        <time>2022-09-05T07:01:30.000Z</time>
      </trkpt>
      <trkpt lat="49.8346" lon="4.78885">
        <ele>295</ele>
        <time>2022-09-05T07:01:31.000Z</time>
      </trkpt>
      <trkpt lat="49.83464" lon="4.78882">
        <ele>295</ele>
        <time>2022-09-05T07:01:32.000Z</time>
      </trkpt>
      <trkpt lat="49.83468" lon="4.78879">
        <ele>295</ele>
        <time>2022-09-05T07:01:33.000Z</time>
      </trkpt>
      <trkpt lat="49.83471" lon="4.78876">
        <ele>295</ele>
        <time>2022-09-05T07:01:34.000Z</time>
      </trkpt>
      <trkpt lat="49.83475" lon="4.78872">
        <ele>295</ele>
        <time>2022-09-05T07:01:35.000Z</time>
      </trkpt>
      <trkpt lat="49.83477" lon="4.78867">
        <ele>296</ele>
        <time>2022-09-05T07:01:36.000Z</time>
      </trkpt>
      <trkpt lat="49.83478" lon="4.78862">
        <ele>296</ele>
        <time>2022-09-05T07:01:37.000Z</time>
      </trkpt>
      <trkpt lat="49.83478" lon="4.78857">
        <ele>296</ele>
        <time>2022-09-05T07:01:38.000Z</time>
      </trkpt>
      <trkpt lat="49.83478" lon="4.78851">
        <ele>296</ele>
        <time>2022-09-05T07:01:39.000Z</time>
      </trkpt>
      <trkpt lat="49.83478" lon="4.78846">
        <ele>296</ele>
        <time>2022-09-05T07:01:40.000Z</time>
      </trkpt>
      <trkpt lat="49.83477" lon="4.7884">
        <ele>296</ele>
        <time>2022-09-05T07:01:41.000Z</time>
      </trkpt>
      <trkpt lat="49.83477" lon="4.78835">
        <ele>296</ele>
        <time>2022-09-05T07:01:42.000Z</time>
      </trkpt>
      <trkpt lat="49.83478" lon="4.7883">
        <ele>296</ele>
        <time>2022-09-05T07:01:43.000Z</time>
      </trkpt>
      <trkpt lat="49.83479" lon="4.78826">
        <ele>296</ele>
        <time>2022-09-05T07:01:44.000Z</time>
      </trkpt>
      <trkpt lat="49.83482" lon="4.78822">
        <ele>296</ele>
        <time>2022-09-05T07:01:45.000Z</time>
      </trkpt>
      <trkpt lat="49.83484" lon="4.78819">
        <ele>296</ele>
        <time>2022-09-05T07:01:46.000Z</time>
      </trkpt>
      <trkpt lat="49.83488" lon="4.78815">
        <ele>296</ele>
        <time>2022-09-05T07:01:47.000Z</time>
      </trkpt>
      <trkpt lat="49.83491" lon="4.78812">
        <ele>296</ele>
        <time>2022-09-05T07:01:48.000Z</time>
      </trkpt>
      <trkpt lat="49.83496" lon="4.78809">
        <ele>296</ele>
        <time>2022-09-05T07:01:49.000Z</time>
      </trkpt>
      <trkpt lat="49.835" lon="4.78807">
        <ele>296</ele>
        <time>2022-09-05T07:01:50.000Z</time>
      </trkpt>
      <trkpt lat="49.83503" lon="4.78805">
        <ele>296</ele>
        <time>2022-09-05T07:01:51.000Z</time>
      </trkpt>
      <trkpt lat="49.83507" lon="4.78803">
        <ele>296</ele>
        <time>2022-09-05T07:01:52.000Z</time>
      </trkpt>
      <trkpt lat="49.83509" lon="4.78799">
        <ele>296</ele>
        <time>2022-09-05T07:01:53.000Z</time>
      </trkpt>
      <trkpt lat="49.83511" lon="4.78796">
        <ele>296</ele>
        <time>2022-09-05T07:01:54.000Z</time>
      </trkpt>
      <trkpt lat="49.83513" lon="4.78792">
        <ele>296</ele>
        <time>2022-09-05T07:01:55.000Z</time>
      </trkpt>
      <trkpt lat="49.83515" lon="4.78787">
        <ele>296</ele>
        <time>2022-09-05T07:01:56.000Z</time>
      </trkpt>
      <trkpt lat="49.83516" lon="4.78783">
        <ele>296</ele>
        <time>2022-09-05T07:01:57.000Z</time>
      </trkpt>
      <trkpt lat="49.83518" lon="4.78779">
        <ele>295</ele>
        <time>2022-09-05T07:01:58.000Z</time>
      </trkpt>
      <trkpt lat="49.8352" lon="4.78776">
        <ele>295</ele>
        <time>2022-09-05T07:01:59.000Z</time>
      </trkpt>
      <trkpt lat="49.83522" lon="4.78774">
        <ele>295</ele>
        <time>2022-09-05T07:02:00.000Z</time>
      </trkpt>
      <trkpt lat="49.83523" lon="4.78772">
        <ele>295</ele>
        <time>2022-09-05T07:02:01.000Z</time>
      </trkpt>
      <trkpt lat="49.83524" lon="4.7877">
        <ele>295</ele>
        <time>2022-09-05T07:02:02.000Z</time>
      </trkpt>
      <trkpt lat="49.83525" lon="4.7877">
        <ele>295</ele>
        <time>2022-09-05T07:02:03.000Z</time>
      </trkpt>
      <trkpt lat="49.83525" lon="4.78769">
        <ele>295</ele>
        <time>2022-09-05T07:02:04.000Z</time>
      </trkpt>
      <trkpt lat="49.83525" lon="4.78769">
        <ele>295</ele>
        <time>2022-09-05T07:02:05.000Z</time>
      </trkpt>
      <trkpt lat="49.83525" lon="4.78769">
        <ele>295</ele>
        <time>2022-09-05T07:02:06.000Z</time>
      </trkpt>
      <trkpt lat="49.83526" lon="4.78769">
        <ele>295</ele>
        <time>2022-09-05T07:02:07.000Z</time>
      </trkpt>
      <trkpt lat="49.83526" lon="4.78769">
        <ele>295</ele>
        <time>2022-09-05T07:02:08.000Z</time>
      </trkpt>
      <trkpt lat="49.83527" lon="4.7877">
        <ele>295</ele>
        <time>2022-09-05T07:02:09.000Z</time>
      </trkpt>
      <trkpt lat="49.83528" lon="4.78771">
        <ele>294</ele>
        <time>2022-09-05T07:02:10.000Z</time>
      </trkpt>
      <trkpt lat="49.83528" lon="4.78772">
        <ele>294</ele>
        <time>2022-09-05T07:02:11.000Z</time>
      </trkpt>
      <trkpt lat="49.83529" lon="4.78772">
        <ele>294</ele>
        <time>2022-09-05T07:02:12.000Z</time>
      </trkpt>
      <trkpt lat="49.8353" lon="4.78772">
        <ele>294</ele>
        <time>2022-09-05T07:02:13.000Z</time>
      </trkpt>
      <trkpt lat="49.8353" lon="4.78771">
        <ele>294</ele>
        <time>2022-09-05T07:02:14.000Z</time>
      </trkpt>
      <trkpt lat="49.8353" lon="4.78771">
        <ele>294</ele>
        <time>2022-09-05T07:02:15.000Z</time>
      </trkpt>
      <trkpt lat="49.83532" lon="4.78771">
        <ele>294</ele>
        <time>2022-09-05T07:02:16.000Z</time>
      </trkpt>
      <trkpt lat="49.83533" lon="4.7877">
        <ele>294</ele>
        <time>2022-09-05T07:02:17.000Z</time>
      </trkpt>
      <trkpt lat="49.83534" lon="4.78769">
        <ele>294</ele>
        <time>2022-09-05T07:02:18.000Z</time>
      </trkpt>
      <trkpt lat="49.83536" lon="4.78769">
        <ele>294</ele>
        <time>2022-09-05T07:02:19.000Z</time>
      </trkpt>
      <trkpt lat="49.83539" lon="4.78768">
        <ele>294</ele>
        <time>2022-09-05T07:02:20.000Z</time>
      </trkpt>
      <trkpt lat="49.83541" lon="4.78768">
        <ele>294</ele>
        <time>2022-09-05T07:02:21.000Z</time>
      </trkpt>
      <trkpt lat="49.83544" lon="4.78768">
        <ele>294</ele>
        <time>2022-09-05T07:02:22.000Z</time>
      </trkpt>
      <trkpt lat="49.83547" lon="4.78767">
        <ele>294</ele>
        <time>2022-09-05T07:02:23.000Z</time>
      </trkpt>
      <trkpt lat="49.83549" lon="4.78765">
        <ele>295</ele>
        <time>2022-09-05T07:02:24.000Z</time>
      </trkpt>
      <trkpt lat="49.83551" lon="4.78764">
        <ele>295</ele>
        <time>2022-09-05T07:02:25.000Z</time>
      </trkpt>
      <trkpt lat="49.83553" lon="4.78762">
        <ele>295</ele>
        <time>2022-09-05T07:02:26.000Z</time>
      </trkpt>
      <trkpt lat="49.83554" lon="4.78762">
        <ele>295</ele>
        <time>2022-09-05T07:02:27.000Z</time>
      </trkpt>
      <trkpt lat="49.83555" lon="4.78762">
        <ele>295</ele>
        <time>2022-09-05T07:02:28.000Z</time>
      </trkpt>
      <trkpt lat="49.83555" lon="4.78762">
        <ele>295</ele>
        <time>2022-09-05T07:02:29.000Z</time>
      </trkpt>
      <trkpt lat="49.83555" lon="4.78762">
        <ele>295</ele>
        <time>2022-09-05T07:02:30.000Z</time>
      </trkpt>
      <trkpt lat="49.83555" lon="4.78761">
        <ele>295</ele>
        <time>2022-09-05T07:02:31.000Z</time>
      </trkpt>
      <trkpt lat="49.83555" lon="4.78762">
        <ele>295</ele>
        <time>2022-09-05T07:02:32.000Z</time>
      </trkpt>
      <trkpt lat="49.83554" lon="4.78762">
        <ele>295</ele>
        <time>2022-09-05T07:02:33.000Z</time>
      </trkpt>
      <trkpt lat="49.83554" lon="4.78762">
        <ele>295</ele>
        <time>2022-09-05T07:02:34.000Z</time>
      </trkpt>
      <trkpt lat="49.83555" lon="4.78762">
        <ele>295</ele>
        <time>2022-09-05T07:02:35.000Z</time>
      </trkpt>
      <trkpt lat="49.83555" lon="4.78762">
        <ele>295</ele>
        <time>2022-09-05T07:02:36.000Z</time>
      </trkpt>
      <trkpt lat="49.83555" lon="4.78762">
        <ele>295</ele>
        <time>2022-09-05T07:02:37.000Z</time>
      </trkpt>
      <trkpt lat="49.83555" lon="4.78761">
        <ele>295</ele>
        <time>2022-09-05T07:02:38.000Z</time>
      </trkpt>
      <trkpt lat="49.83556" lon="4.78761">
        <ele>295</ele>
        <time>2022-09-05T07:02:39.000Z</time>
      </trkpt>
      <trkpt lat="49.83557" lon="4.7876">
        <ele>295</ele>
        <time>2022-09-05T07:02:40.000Z</time>
      </trkpt>
      <trkpt lat="49.83559" lon="4.7876">
        <ele>295</ele>
        <time>2022-09-05T07:02:41.000Z</time>
      </trkpt>
      <trkpt lat="49.83561" lon="4.78758">
        <ele>295</ele>
        <time>2022-09-05T07:02:42.000Z</time>
      </trkpt>
      <trkpt lat="49.83563" lon="4.78756">
        <ele>295</ele>
        <time>2022-09-05T07:02:43.000Z</time>
      </trkpt>
      <trkpt lat="49.83565" lon="4.78755">
        <ele>295</ele>
        <time>2022-09-05T07:02:44.000Z</time>
      </trkpt>
      <trkpt lat="49.83567" lon="4.78754">
        <ele>295</ele>
        <time>2022-09-05T07:02:45.000Z</time>
      </trkpt>
      <trkpt lat="49.83569" lon="4.78753">
        <ele>295</ele>
        <time>2022-09-05T07:02:46.000Z</time>
      </trkpt>
      <trkpt lat="49.83571" lon="4.78751">
        <ele>295</ele>
        <time>2022-09-05T07:02:47.000Z</time>
      </trkpt>
      <trkpt lat="49.83573" lon="4.7875">
        <ele>295</ele>
        <time>2022-09-05T07:02:48.000Z</time>
      </trkpt>
      <trkpt lat="49.83575" lon="4.78748">
        <ele>295</ele>
        <time>2022-09-05T07:02:49.000Z</time>
      </trkpt>
      <trkpt lat="49.83578" lon="4.78747">
        <ele>296</ele>
        <time>2022-09-05T07:02:50.000Z</time>
      </trkpt>
      <trkpt lat="49.8358" lon="4.78745">
        <ele>296</ele>
        <time>2022-09-05T07:02:51.000Z</time>
      </trkpt>
      <trkpt lat="49.83583" lon="4.78744">
        <ele>296</ele>
        <time>2022-09-05T07:02:52.000Z</time>
      </trkpt>
      <trkpt lat="49.83586" lon="4.78742">
        <ele>296</ele>
        <time>2022-09-05T07:02:53.000Z</time>
      </trkpt>
      <trkpt lat="49.83588" lon="4.78741">
        <ele>296</ele>
        <time>2022-09-05T07:02:54.000Z</time>
      </trkpt>
      <trkpt lat="49.83591" lon="4.7874">
        <ele>296</ele>
        <time>2022-09-05T07:02:55.000Z</time>
      </trkpt>
      <trkpt lat="49.83594" lon="4.78739">
        <ele>296</ele>
        <time>2022-09-05T07:02:56.000Z</time>
      </trkpt>
      <trkpt lat="49.83597" lon="4.78738">
        <ele>296</ele>
        <time>2022-09-05T07:02:57.000Z</time>
      </trkpt>
      <trkpt lat="49.836" lon="4.78737">
        <ele>296</ele>
        <time>2022-09-05T07:02:58.000Z</time>
      </trkpt>
      <trkpt lat="49.83603" lon="4.78736">
        <ele>297</ele>
        <time>2022-09-05T07:02:59.000Z</time>
      </trkpt>
      <trkpt lat="49.83607" lon="4.78736">
        <ele>297</ele>
        <time>2022-09-05T07:03:00.000Z</time>
      </trkpt>
      <trkpt lat="49.8361" lon="4.78735">
        <ele>297</ele>
        <time>2022-09-05T07:03:01.000Z</time>
      </trkpt>
      <trkpt lat="49.83613" lon="4.78735">
        <ele>297</ele>
        <time>2022-09-05T07:03:02.000Z</time>
      </trkpt>
      <trkpt lat="49.83616" lon="4.78735">
        <ele>297</ele>
        <time>2022-09-05T07:03:03.000Z</time>
      </trkpt>
      <trkpt lat="49.83619" lon="4.78735">
        <ele>297</ele>
        <time>2022-09-05T07:03:04.000Z</time>
      </trkpt>
      <trkpt lat="49.83622" lon="4.78735">
        <ele>298</ele>
        <time>2022-09-05T07:03:05.000Z</time>
      </trkpt>
      <trkpt lat="49.83625" lon="4.78736">
        <ele>298</ele>
        <time>2022-09-05T07:03:06.000Z</time>
      </trkpt>
      <trkpt lat="49.83628" lon="4.78737">
        <ele>298</ele>
        <time>2022-09-05T07:03:07.000Z</time>
      </trkpt>
      <trkpt lat="49.8363" lon="4.78737">
        <ele>298</ele>
        <time>2022-09-05T07:03:08.000Z</time>
      </trkpt>
      <trkpt lat="49.83633" lon="4.78738">
        <ele>298</ele>
        <time>2022-09-05T07:03:09.000Z</time>
      </trkpt>
      <trkpt lat="49.83636" lon="4.78739">
        <ele>299</ele>
        <time>2022-09-05T07:03:10.000Z</time>
      </trkpt>
      <trkpt lat="49.83639" lon="4.7874">
        <ele>299</ele>
        <time>2022-09-05T07:03:11.000Z</time>
      </trkpt>
      <trkpt lat="49.83641" lon="4.7874">
        <ele>299</ele>
        <time>2022-09-05T07:03:12.000Z</time>
      </trkpt>
      <trkpt lat="49.83644" lon="4.78741">
        <ele>299</ele>
        <time>2022-09-05T07:03:13.000Z</time>
      </trkpt>
      <trkpt lat="49.83647" lon="4.78741">
        <ele>300</ele>
        <time>2022-09-05T07:03:14.000Z</time>
      </trkpt>
      <trkpt lat="49.83649" lon="4.78742">
        <ele>300</ele>
        <time>2022-09-05T07:03:15.000Z</time>
      </trkpt>
      <trkpt lat="49.83652" lon="4.78743">
        <ele>300</ele>
        <time>2022-09-05T07:03:16.000Z</time>
      </trkpt>
      <trkpt lat="49.83655" lon="4.78744">
        <ele>301</ele>
        <time>2022-09-05T07:03:17.000Z</time>
      </trkpt>
      <trkpt lat="49.83657" lon="4.78745">
        <ele>301</ele>
        <time>2022-09-05T07:03:18.000Z</time>
      </trkpt>
      <trkpt lat="49.8366" lon="4.78746">
        <ele>301</ele>
        <time>2022-09-05T07:03:19.000Z</time>
      </trkpt>
      <trkpt lat="49.83663" lon="4.78747">
        <ele>301</ele>
        <time>2022-09-05T07:03:20.000Z</time>
      </trkpt>
      <trkpt lat="49.83666" lon="4.78749">
        <ele>302</ele>
        <time>2022-09-05T07:03:21.000Z</time>
      </trkpt>
      <trkpt lat="49.83668" lon="4.7875">
        <ele>302</ele>
        <time>2022-09-05T07:03:22.000Z</time>
      </trkpt>
      <trkpt lat="49.83671" lon="4.78752">
        <ele>302</ele>
        <time>2022-09-05T07:03:23.000Z</time>
      </trkpt>
      <trkpt lat="49.83674" lon="4.78753">
        <ele>302</ele>
        <time>2022-09-05T07:03:24.000Z</time>
      </trkpt>
      <trkpt lat="49.83676" lon="4.78754">
        <ele>303</ele>
        <time>2022-09-05T07:03:25.000Z</time>
      </trkpt>
      <trkpt lat="49.83679" lon="4.78756">
        <ele>303</ele>
        <time>2022-09-05T07:03:26.000Z</time>
      </trkpt>
      <trkpt lat="49.83682" lon="4.78758">
        <ele>303</ele>
        <time>2022-09-05T07:03:27.000Z</time>
      </trkpt>
      <trkpt lat="49.83684" lon="4.7876">
        <ele>303</ele>
        <time>2022-09-05T07:03:28.000Z</time>
      </trkpt>
      <trkpt lat="49.83687" lon="4.78762">
        <ele>303</ele>
        <time>2022-09-05T07:03:29.000Z</time>
      </trkpt>
      <trkpt lat="49.8369" lon="4.78765">
        <ele>304</ele>
        <time>2022-09-05T07:03:30.000Z</time>
      </trkpt>
      <trkpt lat="49.83692" lon="4.78768">
        <ele>304</ele>
        <time>2022-09-05T07:03:31.000Z</time>
      </trkpt>
      <trkpt lat="49.83695" lon="4.7877">
        <ele>304</ele>
        <time>2022-09-05T07:03:32.000Z</time>
      </trkpt>
      <trkpt lat="49.83697" lon="4.78772">
        <ele>304</ele>
        <time>2022-09-05T07:03:33.000Z</time>
      </trkpt>
      <trkpt lat="49.837" lon="4.78774">
        <ele>305</ele>
        <time>2022-09-05T07:03:34.000Z</time>
      </trkpt>
      <trkpt lat="49.83702" lon="4.78776">
        <ele>305</ele>
        <time>2022-09-05T07:03:35.000Z</time>
      </trkpt>
      <trkpt lat="49.83704" lon="4.78777">
        <ele>305</ele>
        <time>2022-09-05T07:03:36.000Z</time>
      </trkpt>
      <trkpt lat="49.83706" lon="4.78777">
        <ele>305</ele>
        <time>2022-09-05T07:03:37.000Z</time>
      </trkpt>
      <trkpt lat="49.83708" lon="4.78778">
        <ele>305</ele>
        <time>2022-09-05T07:03:38.000Z</time>
      </trkpt>
      <trkpt lat="49.8371" lon="4.78779">
        <ele>305</ele>
        <time>2022-09-05T07:03:39.000Z</time>
      </trkpt>
      <trkpt lat="49.83712" lon="4.7878">
        <ele>306</ele>
        <time>2022-09-05T07:03:40.000Z</time>
      </trkpt>
      <trkpt lat="49.83714" lon="4.78782">
        <ele>306</ele>
        <time>2022-09-05T07:03:41.000Z</time>
      </trkpt>
      <trkpt lat="49.83716" lon="4.78783">
        <ele>306</ele>
        <time>2022-09-05T07:03:42.000Z</time>
      </trkpt>
      <trkpt lat="49.83718" lon="4.78784">
        <ele>306</ele>
        <time>2022-09-05T07:03:43.000Z</time>
      </trkpt>
      <trkpt lat="49.8372" lon="4.78785">
        <ele>306</ele>
        <time>2022-09-05T07:03:44.000Z</time>
      </trkpt>
      <trkpt lat="49.83723" lon="4.78785">
        <ele>306</ele>
        <time>2022-09-05T07:03:45.000Z</time>
      </trkpt>
      <trkpt lat="49.83725" lon="4.78786">
        <ele>307</ele>
        <time>2022-09-05T07:03:46.000Z</time>
      </trkpt>
      <trkpt lat="49.83727" lon="4.78787">
        <ele>307</ele>
        <time>2022-09-05T07:03:47.000Z</time>
      </trkpt>
      <trkpt lat="49.83729" lon="4.78787">
        <ele>307</ele>
        <time>2022-09-05T07:03:48.000Z</time>
      </trkpt>
      <trkpt lat="49.83731" lon="4.78788">
        <ele>307</ele>
        <time>2022-09-05T07:03:49.000Z</time>
      </trkpt>
      <trkpt lat="49.83733" lon="4.78789">
        <ele>308</ele>
        <time>2022-09-05T07:03:50.000Z</time>
      </trkpt>
      <trkpt lat="49.83735" lon="4.7879">
        <ele>308</ele>
        <time>2022-09-05T07:03:51.000Z</time>
      </trkpt>
      <trkpt lat="49.83738" lon="4.7879">
        <ele>308</ele>
        <time>2022-09-05T07:03:52.000Z</time>
      </trkpt>
      <trkpt lat="49.8374" lon="4.78792">
        <ele>308</ele>
        <time>2022-09-05T07:03:53.000Z</time>
      </trkpt>
      <trkpt lat="49.83743" lon="4.78793">
        <ele>309</ele>
        <time>2022-09-05T07:03:54.000Z</time>
      </trkpt>
      <trkpt lat="49.83745" lon="4.78795">
        <ele>309</ele>
        <time>2022-09-05T07:03:55.000Z</time>
      </trkpt>
      <trkpt lat="49.83748" lon="4.78798">
        <ele>309</ele>
        <time>2022-09-05T07:03:56.000Z</time>
      </trkpt>
      <trkpt lat="49.8375" lon="4.78801">
        <ele>309</ele>
        <time>2022-09-05T07:03:57.000Z</time>
      </trkpt>
      <trkpt lat="49.83753" lon="4.78804">
        <ele>310</ele>
        <time>2022-09-05T07:03:58.000Z</time>
      </trkpt>
      <trkpt lat="49.83755" lon="4.78807">
        <ele>310</ele>
        <time>2022-09-05T07:03:59.000Z</time>
      </trkpt>
      <trkpt lat="49.83758" lon="4.7881">
        <ele>310</ele>
        <time>2022-09-05T07:04:00.000Z</time>
      </trkpt>
      <trkpt lat="49.83761" lon="4.78813">
        <ele>310</ele>
        <time>2022-09-05T07:04:01.000Z</time>
      </trkpt>
      <trkpt lat="49.83763" lon="4.78815">
        <ele>310</ele>
        <time>2022-09-05T07:04:02.000Z</time>
      </trkpt>
      <trkpt lat="49.83766" lon="4.78818">
        <ele>310</ele>
        <time>2022-09-05T07:04:03.000Z</time>
      </trkpt>
      <trkpt lat="49.8377" lon="4.78821">
        <ele>311</ele>
        <time>2022-09-05T07:04:04.000Z</time>
      </trkpt>
      <trkpt lat="49.83772" lon="4.78823">
        <ele>311</ele>
        <time>2022-09-05T07:04:05.000Z</time>
      </trkpt>
      <trkpt lat="49.83775" lon="4.78825">
        <ele>311</ele>
        <time>2022-09-05T07:04:06.000Z</time>
      </trkpt>
      <trkpt lat="49.83778" lon="4.78826">
        <ele>311</ele>
        <time>2022-09-05T07:04:07.000Z</time>
      </trkpt>
      <trkpt lat="49.83781" lon="4.78827">
        <ele>311</ele>
        <time>2022-09-05T07:04:08.000Z</time>
      </trkpt>
      <trkpt lat="49.83783" lon="4.78827">
        <ele>311</ele>
        <time>2022-09-05T07:04:09.000Z</time>
      </trkpt>
      <trkpt lat="49.83786" lon="4.78828">
        <ele>311</ele>
        <time>2022-09-05T07:04:10.000Z</time>
      </trkpt>
      <trkpt lat="49.83789" lon="4.78828">
        <ele>311</ele>
        <time>2022-09-05T07:04:11.000Z</time>
      </trkpt>
      <trkpt lat="49.83791" lon="4.78829">
        <ele>311</ele>
        <time>2022-09-05T07:04:12.000Z</time>
      </trkpt>
      <trkpt lat="49.83793" lon="4.78829">
        <ele>311</ele>
        <time>2022-09-05T07:04:13.000Z</time>
      </trkpt>
      <trkpt lat="49.83795" lon="4.78829">
        <ele>312</ele>
        <time>2022-09-05T07:04:14.000Z</time>
      </trkpt>
      <trkpt lat="49.83797" lon="4.78829">
        <ele>312</ele>
        <time>2022-09-05T07:04:15.000Z</time>
      </trkpt>
      <trkpt lat="49.838" lon="4.78829">
        <ele>312</ele>
        <time>2022-09-05T07:04:16.000Z</time>
      </trkpt>
      <trkpt lat="49.83802" lon="4.78829">
        <ele>312</ele>
        <time>2022-09-05T07:04:17.000Z</time>
      </trkpt>
      <trkpt lat="49.83804" lon="4.78829">
        <ele>312</ele>
        <time>2022-09-05T07:04:18.000Z</time>
      </trkpt>
      <trkpt lat="49.83806" lon="4.7883">
        <ele>312</ele>
        <time>2022-09-05T07:04:19.000Z</time>
      </trkpt>
      <trkpt lat="49.83809" lon="4.7883">
        <ele>313</ele>
        <time>2022-09-05T07:04:20.000Z</time>
      </trkpt>
      <trkpt lat="49.83811" lon="4.7883">
        <ele>313</ele>
        <time>2022-09-05T07:04:21.000Z</time>
      </trkpt>
      <trkpt lat="49.83813" lon="4.78831">
        <ele>313</ele>
        <time>2022-09-05T07:04:22.000Z</time>
      </trkpt>
      <trkpt lat="49.83815" lon="4.78831">
        <ele>313</ele>
        <time>2022-09-05T07:04:23.000Z</time>
      </trkpt>
      <trkpt lat="49.83816" lon="4.78831">
        <ele>313</ele>
        <time>2022-09-05T07:04:24.000Z</time>
      </trkpt>
      <trkpt lat="49.83817" lon="4.78831">
        <ele>313</ele>
        <time>2022-09-05T07:04:25.000Z</time>
      </trkpt>
      <trkpt lat="49.83818" lon="4.78831">
        <ele>313</ele>
        <time>2022-09-05T07:04:26.000Z</time>
      </trkpt>
      <trkpt lat="49.83818" lon="4.78832">
        <ele>313</ele>
        <time>2022-09-05T07:04:27.000Z</time>
      </trkpt>
      <trkpt lat="49.83819" lon="4.78832">
        <ele>313</ele>
        <time>2022-09-05T07:04:28.000Z</time>
      </trkpt>
      <trkpt lat="49.8382" lon="4.78832">
        <ele>314</ele>
        <time>2022-09-05T07:04:29.000Z</time>
      </trkpt>
      <trkpt lat="49.8382" lon="4.78832">
        <ele>314</ele>
        <time>2022-09-05T07:04:30.000Z</time>
      </trkpt>
      <trkpt lat="49.83821" lon="4.78833">
        <ele>314</ele>
        <time>2022-09-05T07:04:31.000Z</time>
      </trkpt>
      <trkpt lat="49.83822" lon="4.78832">
        <ele>314</ele>
        <time>2022-09-05T07:04:32.000Z</time>
      </trkpt>
      <trkpt lat="49.83823" lon="4.78833">
        <ele>315</ele>
        <time>2022-09-05T07:04:33.000Z</time>
      </trkpt>
      <trkpt lat="49.83825" lon="4.78834">
        <ele>315</ele>
        <time>2022-09-05T07:04:34.000Z</time>
      </trkpt>
      <trkpt lat="49.83827" lon="4.78834">
        <ele>315</ele>
        <time>2022-09-05T07:04:35.000Z</time>
      </trkpt>
      <trkpt lat="49.83829" lon="4.78834">
        <ele>316</ele>
        <time>2022-09-05T07:04:36.000Z</time>
      </trkpt>
      <trkpt lat="49.83831" lon="4.78835">
        <ele>316</ele>
        <time>2022-09-05T07:04:37.000Z</time>
      </trkpt>
      <trkpt lat="49.83833" lon="4.78835">
        <ele>316</ele>
        <time>2022-09-05T07:04:38.000Z</time>
      </trkpt>
      <trkpt lat="49.83835" lon="4.78836">
        <ele>317</ele>
        <time>2022-09-05T07:04:39.000Z</time>
      </trkpt>
      <trkpt lat="49.83837" lon="4.78836">
        <ele>317</ele>
        <time>2022-09-05T07:04:40.000Z</time>
      </trkpt>
      <trkpt lat="49.83839" lon="4.78836">
        <ele>317</ele>
        <time>2022-09-05T07:04:41.000Z</time>
      </trkpt>
      <trkpt lat="49.83841" lon="4.78837">
        <ele>318</ele>
        <time>2022-09-05T07:04:42.000Z</time>
      </trkpt>
      <trkpt lat="49.83843" lon="4.78838">
        <ele>318</ele>
        <time>2022-09-05T07:04:43.000Z</time>
      </trkpt>
      <trkpt lat="49.83845" lon="4.78838">
        <ele>318</ele>
        <time>2022-09-05T07:04:44.000Z</time>
      </trkpt>
      <trkpt lat="49.83848" lon="4.78838">
        <ele>319</ele>
        <time>2022-09-05T07:04:45.000Z</time>
      </trkpt>
      <trkpt lat="49.8385" lon="4.78839">
        <ele>319</ele>
        <time>2022-09-05T07:04:46.000Z</time>
      </trkpt>
      <trkpt lat="49.83852" lon="4.78839">
        <ele>319</ele>
        <time>2022-09-05T07:04:47.000Z</time>
      </trkpt>
      <trkpt lat="49.83854" lon="4.78839">
        <ele>320</ele>
        <time>2022-09-05T07:04:48.000Z</time>
      </trkpt>
      <trkpt lat="49.83856" lon="4.7884">
        <ele>320</ele>
        <time>2022-09-05T07:04:49.000Z</time>
      </trkpt>
      <trkpt lat="49.83858" lon="4.7884">
        <ele>320</ele>
        <time>2022-09-05T07:04:50.000Z</time>
      </trkpt>
      <trkpt lat="49.83861" lon="4.78841">
        <ele>321</ele>
        <time>2022-09-05T07:04:51.000Z</time>
      </trkpt>
      <trkpt lat="49.83863" lon="4.78841">
        <ele>321</ele>
        <time>2022-09-05T07:04:52.000Z</time>
      </trkpt>
      <trkpt lat="49.83865" lon="4.78842">
        <ele>321</ele>
        <time>2022-09-05T07:04:53.000Z</time>
      </trkpt>
      <trkpt lat="49.83866" lon="4.78842">
        <ele>321</ele>
        <time>2022-09-05T07:04:54.000Z</time>
      </trkpt>
      <trkpt lat="49.83867" lon="4.78843">
        <ele>321</ele>
        <time>2022-09-05T07:04:55.000Z</time>
      </trkpt>
      <trkpt lat="49.83869" lon="4.78843">
        <ele>321</ele>
        <time>2022-09-05T07:04:56.000Z</time>
      </trkpt>
      <trkpt lat="49.83871" lon="4.78843">
        <ele>322</ele>
        <time>2022-09-05T07:04:57.000Z</time>
      </trkpt>
      <trkpt lat="49.83873" lon="4.78844">
        <ele>322</ele>
        <time>2022-09-05T07:04:58.000Z</time>
      </trkpt>
      <trkpt lat="49.83875" lon="4.78845">
        <ele>322</ele>
        <time>2022-09-05T07:04:59.000Z</time>
      </trkpt>
      <trkpt lat="49.83877" lon="4.78845">
        <ele>322</ele>
        <time>2022-09-05T07:05:00.000Z</time>
      </trkpt>
      <trkpt lat="49.83879" lon="4.78846">
        <ele>322</ele>
        <time>2022-09-05T07:05:01.000Z</time>
      </trkpt>
      <trkpt lat="49.83881" lon="4.78847">
        <ele>322</ele>
        <time>2022-09-05T07:05:02.000Z</time>
      </trkpt>
      <trkpt lat="49.83883" lon="4.78847">
        <ele>322</ele>
        <time>2022-09-05T07:05:03.000Z</time>
      </trkpt>
      <trkpt lat="49.83885" lon="4.78848">
        <ele>322</ele>
        <time>2022-09-05T07:05:04.000Z</time>
      </trkpt>
      <trkpt lat="49.83887" lon="4.78848">
        <ele>323</ele>
        <time>2022-09-05T07:05:05.000Z</time>
      </trkpt>
      <trkpt lat="49.83888" lon="4.78848">
        <ele>323</ele>
        <time>2022-09-05T07:05:06.000Z</time>
      </trkpt>
      <trkpt lat="49.83891" lon="4.78849">
        <ele>323</ele>
        <time>2022-09-05T07:05:07.000Z</time>
      </trkpt>
      <trkpt lat="49.83892" lon="4.78849">
        <ele>323</ele>
        <time>2022-09-05T07:05:08.000Z</time>
      </trkpt>
      <trkpt lat="49.83894" lon="4.7885">
        <ele>323</ele>
        <time>2022-09-05T07:05:09.000Z</time>
      </trkpt>
      <trkpt lat="49.83895" lon="4.7885">
        <ele>323</ele>
        <time>2022-09-05T07:05:10.000Z</time>
      </trkpt>
      <trkpt lat="49.83897" lon="4.78851">
        <ele>323</ele>
        <time>2022-09-05T07:05:11.000Z</time>
      </trkpt>
      <trkpt lat="49.83899" lon="4.78851">
        <ele>323</ele>
        <time>2022-09-05T07:05:12.000Z</time>
      </trkpt>
      <trkpt lat="49.83901" lon="4.78851">
        <ele>323</ele>
        <time>2022-09-05T07:05:13.000Z</time>
      </trkpt>
      <trkpt lat="49.83903" lon="4.78851">
        <ele>324</ele>
        <time>2022-09-05T07:05:14.000Z</time>
      </trkpt>
      <trkpt lat="49.83905" lon="4.78852">
        <ele>324</ele>
        <time>2022-09-05T07:05:15.000Z</time>
      </trkpt>
      <trkpt lat="49.83908" lon="4.78852">
        <ele>324</ele>
        <time>2022-09-05T07:05:16.000Z</time>
      </trkpt>
      <trkpt lat="49.8391" lon="4.78852">
        <ele>324</ele>
        <time>2022-09-05T07:05:17.000Z</time>
      </trkpt>
      <trkpt lat="49.83913" lon="4.78853">
        <ele>324</ele>
        <time>2022-09-05T07:05:18.000Z</time>
      </trkpt>
      <trkpt lat="49.83915" lon="4.78853">
        <ele>325</ele>
        <time>2022-09-05T07:05:19.000Z</time>
      </trkpt>
      <trkpt lat="49.83917" lon="4.78853">
        <ele>325</ele>
        <time>2022-09-05T07:05:20.000Z</time>
      </trkpt>
      <trkpt lat="49.83919" lon="4.78853">
        <ele>325</ele>
        <time>2022-09-05T07:05:21.000Z</time>
      </trkpt>
      <trkpt lat="49.83922" lon="4.78853">
        <ele>325</ele>
        <time>2022-09-05T07:05:22.000Z</time>
      </trkpt>
      <trkpt lat="49.83924" lon="4.78853">
        <ele>326</ele>
        <time>2022-09-05T07:05:23.000Z</time>
      </trkpt>
      <trkpt lat="49.83926" lon="4.78853">
        <ele>326</ele>
        <time>2022-09-05T07:05:24.000Z</time>
      </trkpt>
      <trkpt lat="49.83928" lon="4.78853">
        <ele>326</ele>
        <time>2022-09-05T07:05:25.000Z</time>
      </trkpt>
      <trkpt lat="49.8393" lon="4.78854">
        <ele>327</ele>
        <time>2022-09-05T07:05:26.000Z</time>
      </trkpt>
      <trkpt lat="49.83932" lon="4.78855">
        <ele>327</ele>
        <time>2022-09-05T07:05:27.000Z</time>
      </trkpt>
      <trkpt lat="49.83934" lon="4.78856">
        <ele>328</ele>
        <time>2022-09-05T07:05:28.000Z</time>
      </trkpt>
      <trkpt lat="49.83936" lon="4.78857">
        <ele>328</ele>
        <time>2022-09-05T07:05:29.000Z</time>
      </trkpt>
      <trkpt lat="49.83938" lon="4.78857">
        <ele>328</ele>
        <time>2022-09-05T07:05:30.000Z</time>
      </trkpt>
      <trkpt lat="49.8394" lon="4.78858">
        <ele>328</ele>
        <time>2022-09-05T07:05:31.000Z</time>
      </trkpt>
      <trkpt lat="49.83942" lon="4.78858">
        <ele>329</ele>
        <time>2022-09-05T07:05:32.000Z</time>
      </trkpt>
      <trkpt lat="49.83944" lon="4.78859">
        <ele>329</ele>
        <time>2022-09-05T07:05:33.000Z</time>
      </trkpt>
      <trkpt lat="49.83946" lon="4.78859">
        <ele>329</ele>
        <time>2022-09-05T07:05:34.000Z</time>
      </trkpt>
      <trkpt lat="49.83947" lon="4.78859">
        <ele>329</ele>
        <time>2022-09-05T07:05:35.000Z</time>
      </trkpt>
      <trkpt lat="49.83948" lon="4.78859">
        <ele>330</ele>
        <time>2022-09-05T07:05:36.000Z</time>
      </trkpt>
      <trkpt lat="49.83949" lon="4.7886">
        <ele>330</ele>
        <time>2022-09-05T07:05:37.000Z</time>
      </trkpt>
      <trkpt lat="49.8395" lon="4.7886">
        <ele>330</ele>
        <time>2022-09-05T07:05:38.000Z</time>
      </trkpt>
      <trkpt lat="49.83951" lon="4.7886">
        <ele>330</ele>
        <time>2022-09-05T07:05:39.000Z</time>
      </trkpt>
      <trkpt lat="49.83952" lon="4.7886">
        <ele>331</ele>
        <time>2022-09-05T07:05:40.000Z</time>
      </trkpt>
      <trkpt lat="49.83954" lon="4.78861">
        <ele>331</ele>
        <time>2022-09-05T07:05:41.000Z</time>
      </trkpt>
      <trkpt lat="49.83956" lon="4.78861">
        <ele>331</ele>
        <time>2022-09-05T07:05:42.000Z</time>
      </trkpt>
      <trkpt lat="49.83958" lon="4.78862">
        <ele>331</ele>
        <time>2022-09-05T07:05:43.000Z</time>
      </trkpt>
      <trkpt lat="49.8396" lon="4.78862">
        <ele>331</ele>
        <time>2022-09-05T07:05:44.000Z</time>
      </trkpt>
      <trkpt lat="49.83962" lon="4.78862">
        <ele>332</ele>
        <time>2022-09-05T07:05:45.000Z</time>
      </trkpt>
      <trkpt lat="49.83964" lon="4.78862">
        <ele>332</ele>
        <time>2022-09-05T07:05:46.000Z</time>
      </trkpt>
      <trkpt lat="49.83966" lon="4.78863">
        <ele>332</ele>
        <time>2022-09-05T07:05:47.000Z</time>
      </trkpt>
      <trkpt lat="49.83968" lon="4.78863">
        <ele>332</ele>
        <time>2022-09-05T07:05:48.000Z</time>
      </trkpt>
      <trkpt lat="49.8397" lon="4.78863">
        <ele>333</ele>
        <time>2022-09-05T07:05:49.000Z</time>
      </trkpt>
      <trkpt lat="49.83972" lon="4.78863">
        <ele>333</ele>
        <time>2022-09-05T07:05:50.000Z</time>
      </trkpt>
      <trkpt lat="49.83974" lon="4.78864">
        <ele>333</ele>
        <time>2022-09-05T07:05:51.000Z</time>
      </trkpt>
      <trkpt lat="49.83976" lon="4.78863">
        <ele>333</ele>
        <time>2022-09-05T07:05:52.000Z</time>
      </trkpt>
      <trkpt lat="49.83978" lon="4.78864">
        <ele>334</ele>
        <time>2022-09-05T07:05:53.000Z</time>
      </trkpt>
      <trkpt lat="49.8398" lon="4.78864">
        <ele>334</ele>
        <time>2022-09-05T07:05:54.000Z</time>
      </trkpt>
      <trkpt lat="49.83982" lon="4.78864">
        <ele>334</ele>
        <time>2022-09-05T07:05:55.000Z</time>
      </trkpt>
      <trkpt lat="49.83984" lon="4.78864">
        <ele>334</ele>
        <time>2022-09-05T07:05:56.000Z</time>
      </trkpt>
      <trkpt lat="49.83986" lon="4.78865">
        <ele>334</ele>
        <time>2022-09-05T07:05:57.000Z</time>
      </trkpt>
      <trkpt lat="49.83989" lon="4.78865">
        <ele>335</ele>
        <time>2022-09-05T07:05:58.000Z</time>
      </trkpt>
      <trkpt lat="49.83991" lon="4.78865">
        <ele>335</ele>
        <time>2022-09-05T07:05:59.000Z</time>
      </trkpt>
      <trkpt lat="49.83994" lon="4.78866">
        <ele>335</ele>
        <time>2022-09-05T07:06:00.000Z</time>
      </trkpt>
      <trkpt lat="49.83996" lon="4.78866">
        <ele>335</ele>
        <time>2022-09-05T07:06:01.000Z</time>
      </trkpt>
      <trkpt lat="49.83999" lon="4.78867">
        <ele>336</ele>
        <time>2022-09-05T07:06:02.000Z</time>
      </trkpt>
      <trkpt lat="49.84001" lon="4.78867">
        <ele>336</ele>
        <time>2022-09-05T07:06:03.000Z</time>
      </trkpt>
      <trkpt lat="49.84004" lon="4.78868">
        <ele>336</ele>
        <time>2022-09-05T07:06:04.000Z</time>
      </trkpt>
      <trkpt lat="49.84007" lon="4.78868">
        <ele>336</ele>
        <time>2022-09-05T07:06:05.000Z</time>
      </trkpt>
      <trkpt lat="49.84009" lon="4.78869">
        <ele>337</ele>
        <time>2022-09-05T07:06:06.000Z</time>
      </trkpt>
      <trkpt lat="49.84012" lon="4.78869">
        <ele>337</ele>
        <time>2022-09-05T07:06:07.000Z</time>
      </trkpt>
      <trkpt lat="49.84014" lon="4.7887">
        <ele>337</ele>
        <time>2022-09-05T07:06:08.000Z</time>
      </trkpt>
      <trkpt lat="49.84017" lon="4.7887">
        <ele>337</ele>
        <time>2022-09-05T07:06:09.000Z</time>
      </trkpt>
      <trkpt lat="49.84019" lon="4.7887">
        <ele>338</ele>
        <time>2022-09-05T07:06:10.000Z</time>
      </trkpt>
      <trkpt lat="49.84022" lon="4.78871">
        <ele>338</ele>
        <time>2022-09-05T07:06:11.000Z</time>
      </trkpt>
      <trkpt lat="49.84024" lon="4.78871">
        <ele>338</ele>
        <time>2022-09-05T07:06:12.000Z</time>
      </trkpt>
      <trkpt lat="49.84027" lon="4.78872">
        <ele>339</ele>
        <time>2022-09-05T07:06:13.000Z</time>
      </trkpt>
      <trkpt lat="49.84029" lon="4.78873">
        <ele>339</ele>
        <time>2022-09-05T07:06:14.000Z</time>
      </trkpt>
      <trkpt lat="49.84032" lon="4.78874">
        <ele>339</ele>
        <time>2022-09-05T07:06:15.000Z</time>
      </trkpt>
      <trkpt lat="49.84034" lon="4.78875">
        <ele>339</ele>
        <time>2022-09-05T07:06:16.000Z</time>
      </trkpt>
      <trkpt lat="49.84037" lon="4.78876">
        <ele>340</ele>
        <time>2022-09-05T07:06:17.000Z</time>
      </trkpt>
      <trkpt lat="49.84039" lon="4.78877">
        <ele>340</ele>
        <time>2022-09-05T07:06:18.000Z</time>
      </trkpt>
      <trkpt lat="49.84041" lon="4.78879">
        <ele>340</ele>
        <time>2022-09-05T07:06:19.000Z</time>
      </trkpt>
      <trkpt lat="49.84043" lon="4.78882">
        <ele>340</ele>
        <time>2022-09-05T07:06:20.000Z</time>
      </trkpt>
      <trkpt lat="49.84044" lon="4.78885">
        <ele>341</ele>
        <time>2022-09-05T07:06:21.000Z</time>
      </trkpt>
      <trkpt lat="49.84045" lon="4.78889">
        <ele>341</ele>
        <time>2022-09-05T07:06:22.000Z</time>
      </trkpt>
      <trkpt lat="49.84047" lon="4.78892">
        <ele>341</ele>
        <time>2022-09-05T07:06:23.000Z</time>
      </trkpt>
      <trkpt lat="49.84048" lon="4.78894">
        <ele>341</ele>
        <time>2022-09-05T07:06:24.000Z</time>
      </trkpt>
      <trkpt lat="49.84051" lon="4.78894">
        <ele>341</ele>
        <time>2022-09-05T07:06:25.000Z</time>
      </trkpt>
      <trkpt lat="49.84053" lon="4.78894">
        <ele>341</ele>
        <time>2022-09-05T07:06:26.000Z</time>
      </trkpt>
      <trkpt lat="49.84056" lon="4.78894">
        <ele>342</ele>
        <time>2022-09-05T07:06:27.000Z</time>
      </trkpt>
      <trkpt lat="49.84059" lon="4.78894">
        <ele>342</ele>
        <time>2022-09-05T07:06:28.000Z</time>
      </trkpt>
      <trkpt lat="49.84062" lon="4.78893">
        <ele>342</ele>
        <time>2022-09-05T07:06:29.000Z</time>
      </trkpt>
      <trkpt lat="49.84065" lon="4.78894">
        <ele>342</ele>
        <time>2022-09-05T07:06:30.000Z</time>
      </trkpt>
      <trkpt lat="49.84067" lon="4.78894">
        <ele>342</ele>
        <time>2022-09-05T07:06:31.000Z</time>
      </trkpt>
      <trkpt lat="49.8407" lon="4.78896">
        <ele>342</ele>
        <time>2022-09-05T07:06:32.000Z</time>
      </trkpt>
      <trkpt lat="49.84073" lon="4.78897">
        <ele>343</ele>
        <time>2022-09-05T07:06:33.000Z</time>
      </trkpt>
      <trkpt lat="49.84076" lon="4.78899">
        <ele>343</ele>
        <time>2022-09-05T07:06:34.000Z</time>
      </trkpt>
      <trkpt lat="49.84079" lon="4.789">
        <ele>343</ele>
        <time>2022-09-05T07:06:35.000Z</time>
      </trkpt>
      <trkpt lat="49.84082" lon="4.78902">
        <ele>343</ele>
        <time>2022-09-05T07:06:36.000Z</time>
      </trkpt>
      <trkpt lat="49.84086" lon="4.78903">
        <ele>344</ele>
        <time>2022-09-05T07:06:37.000Z</time>
      </trkpt>
      <trkpt lat="49.84089" lon="4.78905">
        <ele>344</ele>
        <time>2022-09-05T07:06:38.000Z</time>
      </trkpt>
      <trkpt lat="49.84092" lon="4.78906">
        <ele>344</ele>
        <time>2022-09-05T07:06:39.000Z</time>
      </trkpt>
      <trkpt lat="49.84095" lon="4.78907">
        <ele>344</ele>
        <time>2022-09-05T07:06:40.000Z</time>
      </trkpt>
      <trkpt lat="49.84098" lon="4.78908">
        <ele>345</ele>
        <time>2022-09-05T07:06:41.000Z</time>
      </trkpt>
      <trkpt lat="49.84101" lon="4.78908">
        <ele>345</ele>
        <time>2022-09-05T07:06:42.000Z</time>
      </trkpt>
      <trkpt lat="49.84104" lon="4.78909">
        <ele>345</ele>
        <time>2022-09-05T07:06:43.000Z</time>
      </trkpt>
      <trkpt lat="49.84107" lon="4.7891">
        <ele>346</ele>
        <time>2022-09-05T07:06:44.000Z</time>
      </trkpt>
      <trkpt lat="49.8411" lon="4.78911">
        <ele>346</ele>
        <time>2022-09-05T07:06:45.000Z</time>
      </trkpt>
      <trkpt lat="49.84113" lon="4.78912">
        <ele>346</ele>
        <time>2022-09-05T07:06:46.000Z</time>
      </trkpt>
      <trkpt lat="49.84116" lon="4.78912">
        <ele>346</ele>
        <time>2022-09-05T07:06:47.000Z</time>
      </trkpt>
      <trkpt lat="49.84119" lon="4.78912">
        <ele>347</ele>
        <time>2022-09-05T07:06:48.000Z</time>
      </trkpt>
      <trkpt lat="49.84122" lon="4.78913">
        <ele>347</ele>
        <time>2022-09-05T07:06:49.000Z</time>
      </trkpt>
      <trkpt lat="49.84125" lon="4.78914">
        <ele>347</ele>
        <time>2022-09-05T07:06:50.000Z</time>
      </trkpt>
      <trkpt lat="49.84129" lon="4.78915">
        <ele>347</ele>
        <time>2022-09-05T07:06:51.000Z</time>
      </trkpt>
      <trkpt lat="49.84132" lon="4.78916">
        <ele>347</ele>
        <time>2022-09-05T07:06:52.000Z</time>
      </trkpt>
      <trkpt lat="49.84135" lon="4.78917">
        <ele>347</ele>
        <time>2022-09-05T07:06:53.000Z</time>
      </trkpt>
      <trkpt lat="49.84138" lon="4.78918">
        <ele>347</ele>
        <time>2022-09-05T07:06:54.000Z</time>
      </trkpt>
      <trkpt lat="49.84142" lon="4.78919">
        <ele>347</ele>
        <time>2022-09-05T07:06:55.000Z</time>
      </trkpt>
      <trkpt lat="49.84145" lon="4.78921">
        <ele>347</ele>
        <time>2022-09-05T07:06:56.000Z</time>
      </trkpt>
      <trkpt lat="49.84148" lon="4.78922">
        <ele>348</ele>
        <time>2022-09-05T07:06:57.000Z</time>
      </trkpt>
      <trkpt lat="49.84151" lon="4.78923">
        <ele>348</ele>
        <time>2022-09-05T07:06:58.000Z</time>
      </trkpt>
      <trkpt lat="49.84154" lon="4.78925">
        <ele>348</ele>
        <time>2022-09-05T07:06:59.000Z</time>
      </trkpt>
      <trkpt lat="49.84157" lon="4.78927">
        <ele>348</ele>
        <time>2022-09-05T07:07:00.000Z</time>
      </trkpt>
      <trkpt lat="49.8416" lon="4.78929">
        <ele>348</ele>
        <time>2022-09-05T07:07:01.000Z</time>
      </trkpt>
      <trkpt lat="49.84164" lon="4.78931">
        <ele>348</ele>
        <time>2022-09-05T07:07:02.000Z</time>
      </trkpt>
      <trkpt lat="49.84166" lon="4.78933">
        <ele>349</ele>
        <time>2022-09-05T07:07:03.000Z</time>
      </trkpt>
      <trkpt lat="49.84169" lon="4.78934">
        <ele>349</ele>
        <time>2022-09-05T07:07:04.000Z</time>
      </trkpt>
      <trkpt lat="49.84171" lon="4.78936">
        <ele>349</ele>
        <time>2022-09-05T07:07:05.000Z</time>
      </trkpt>
      <trkpt lat="49.84173" lon="4.78938">
        <ele>349</ele>
        <time>2022-09-05T07:07:06.000Z</time>
      </trkpt>
      <trkpt lat="49.84175" lon="4.78939">
        <ele>350</ele>
        <time>2022-09-05T07:07:07.000Z</time>
      </trkpt>
      <trkpt lat="49.84177" lon="4.7894">
        <ele>350</ele>
        <time>2022-09-05T07:07:08.000Z</time>
      </trkpt>
      <trkpt lat="49.84179" lon="4.7894">
        <ele>350</ele>
        <time>2022-09-05T07:07:09.000Z</time>
      </trkpt>
      <trkpt lat="49.84182" lon="4.7894">
        <ele>350</ele>
        <time>2022-09-05T07:07:10.000Z</time>
      </trkpt>
      <trkpt lat="49.84184" lon="4.7894">
        <ele>350</ele>
        <time>2022-09-05T07:07:11.000Z</time>
      </trkpt>
      <trkpt lat="49.84187" lon="4.7894">
        <ele>351</ele>
        <time>2022-09-05T07:07:12.000Z</time>
      </trkpt>
      <trkpt lat="49.8419" lon="4.78939">
        <ele>351</ele>
        <time>2022-09-05T07:07:13.000Z</time>
      </trkpt>
      <trkpt lat="49.84193" lon="4.78939">
        <ele>351</ele>
        <time>2022-09-05T07:07:14.000Z</time>
      </trkpt>
      <trkpt lat="49.84196" lon="4.78938">
        <ele>352</ele>
        <time>2022-09-05T07:07:15.000Z</time>
      </trkpt>
      <trkpt lat="49.84198" lon="4.78938">
        <ele>352</ele>
        <time>2022-09-05T07:07:16.000Z</time>
      </trkpt>
      <trkpt lat="49.84201" lon="4.78936">
        <ele>352</ele>
        <time>2022-09-05T07:07:17.000Z</time>
      </trkpt>
      <trkpt lat="49.84204" lon="4.78936">
        <ele>352</ele>
        <time>2022-09-05T07:07:18.000Z</time>
      </trkpt>
      <trkpt lat="49.84206" lon="4.78935">
        <ele>352</ele>
        <time>2022-09-05T07:07:19.000Z</time>
      </trkpt>
      <trkpt lat="49.84209" lon="4.78935">
        <ele>352</ele>
        <time>2022-09-05T07:07:20.000Z</time>
      </trkpt>
      <trkpt lat="49.84211" lon="4.78935">
        <ele>352</ele>
        <time>2022-09-05T07:07:21.000Z</time>
      </trkpt>
      <trkpt lat="49.84213" lon="4.78935">
        <ele>353</ele>
        <time>2022-09-05T07:07:22.000Z</time>
      </trkpt>
      <trkpt lat="49.84215" lon="4.78936">
        <ele>353</ele>
        <time>2022-09-05T07:07:23.000Z</time>
      </trkpt>
      <trkpt lat="49.84217" lon="4.78936">
        <ele>353</ele>
        <time>2022-09-05T07:07:24.000Z</time>
      </trkpt>
      <trkpt lat="49.84219" lon="4.78936">
        <ele>353</ele>
        <time>2022-09-05T07:07:25.000Z</time>
      </trkpt>
      <trkpt lat="49.84221" lon="4.78936">
        <ele>353</ele>
        <time>2022-09-05T07:07:26.000Z</time>
      </trkpt>
      <trkpt lat="49.84223" lon="4.78936">
        <ele>353</ele>
        <time>2022-09-05T07:07:27.000Z</time>
      </trkpt>
      <trkpt lat="49.84225" lon="4.78935">
        <ele>353</ele>
        <time>2022-09-05T07:07:28.000Z</time>
      </trkpt>
      <trkpt lat="49.84227" lon="4.78934">
        <ele>353</ele>
        <time>2022-09-05T07:07:29.000Z</time>
      </trkpt>
      <trkpt lat="49.84229" lon="4.78933">
        <ele>353</ele>
        <time>2022-09-05T07:07:30.000Z</time>
      </trkpt>
      <trkpt lat="49.84231" lon="4.78932">
        <ele>353</ele>
        <time>2022-09-05T07:07:31.000Z</time>
      </trkpt>
      <trkpt lat="49.84233" lon="4.78932">
        <ele>353</ele>
        <time>2022-09-05T07:07:32.000Z</time>
      </trkpt>
      <trkpt lat="49.84235" lon="4.78932">
        <ele>354</ele>
        <time>2022-09-05T07:07:33.000Z</time>
      </trkpt>
      <trkpt lat="49.84237" lon="4.78931">
        <ele>354</ele>
        <time>2022-09-05T07:07:34.000Z</time>
      </trkpt>
      <trkpt lat="49.84239" lon="4.78931">
        <ele>354</ele>
        <time>2022-09-05T07:07:35.000Z</time>
      </trkpt>
      <trkpt lat="49.84241" lon="4.7893">
        <ele>354</ele>
        <time>2022-09-05T07:07:36.000Z</time>
      </trkpt>
      <trkpt lat="49.84244" lon="4.7893">
        <ele>354</ele>
        <time>2022-09-05T07:07:37.000Z</time>
      </trkpt>
      <trkpt lat="49.84246" lon="4.7893">
        <ele>354</ele>
        <time>2022-09-05T07:07:38.000Z</time>
      </trkpt>
      <trkpt lat="49.84247" lon="4.78931">
        <ele>355</ele>
        <time>2022-09-05T07:07:39.000Z</time>
      </trkpt>
      <trkpt lat="49.84249" lon="4.78931">
        <ele>355</ele>
        <time>2022-09-05T07:07:40.000Z</time>
      </trkpt>
      <trkpt lat="49.84251" lon="4.7893">
        <ele>355</ele>
        <time>2022-09-05T07:07:41.000Z</time>
      </trkpt>
      <trkpt lat="49.84253" lon="4.7893">
        <ele>355</ele>
        <time>2022-09-05T07:07:42.000Z</time>
      </trkpt>
      <trkpt lat="49.84256" lon="4.78931">
        <ele>355</ele>
        <time>2022-09-05T07:07:43.000Z</time>
      </trkpt>
      <trkpt lat="49.84258" lon="4.78931">
        <ele>355</ele>
        <time>2022-09-05T07:07:44.000Z</time>
      </trkpt>
      <trkpt lat="49.8426" lon="4.78931">
        <ele>355</ele>
        <time>2022-09-05T07:07:45.000Z</time>
      </trkpt>
      <trkpt lat="49.84263" lon="4.78931">
        <ele>356</ele>
        <time>2022-09-05T07:07:46.000Z</time>
      </trkpt>
      <trkpt lat="49.84266" lon="4.78931">
        <ele>356</ele>
        <time>2022-09-05T07:07:47.000Z</time>
      </trkpt>
      <trkpt lat="49.84269" lon="4.78931">
        <ele>356</ele>
        <time>2022-09-05T07:07:48.000Z</time>
      </trkpt>
      <trkpt lat="49.84272" lon="4.7893">
        <ele>356</ele>
        <time>2022-09-05T07:07:49.000Z</time>
      </trkpt>
      <trkpt lat="49.84275" lon="4.78929">
        <ele>356</ele>
        <time>2022-09-05T07:07:50.000Z</time>
      </trkpt>
      <trkpt lat="49.84278" lon="4.78929">
        <ele>356</ele>
        <time>2022-09-05T07:07:51.000Z</time>
      </trkpt>
      <trkpt lat="49.84282" lon="4.78928">
        <ele>356</ele>
        <time>2022-09-05T07:07:52.000Z</time>
      </trkpt>
      <trkpt lat="49.84286" lon="4.78928">
        <ele>356</ele>
        <time>2022-09-05T07:07:53.000Z</time>
      </trkpt>
      <trkpt lat="49.8429" lon="4.78928">
        <ele>356</ele>
        <time>2022-09-05T07:07:54.000Z</time>
      </trkpt>
      <trkpt lat="49.84294" lon="4.78927">
        <ele>356</ele>
        <time>2022-09-05T07:07:55.000Z</time>
      </trkpt>
      <trkpt lat="49.84298" lon="4.78927">
        <ele>356</ele>
        <time>2022-09-05T07:07:56.000Z</time>
      </trkpt>
      <trkpt lat="49.84301" lon="4.78927">
        <ele>356</ele>
        <time>2022-09-05T07:07:57.000Z</time>
      </trkpt>
      <trkpt lat="49.84304" lon="4.78926">
        <ele>356</ele>
        <time>2022-09-05T07:07:58.000Z</time>
      </trkpt>
      <trkpt lat="49.84308" lon="4.78926">
        <ele>356</ele>
        <time>2022-09-05T07:07:59.000Z</time>
      </trkpt>
      <trkpt lat="49.84312" lon="4.78926">
        <ele>356</ele>
        <time>2022-09-05T07:08:00.000Z</time>
      </trkpt>
      <trkpt lat="49.84315" lon="4.78926">
        <ele>356</ele>
        <time>2022-09-05T07:08:01.000Z</time>
      </trkpt>
      <trkpt lat="49.84319" lon="4.78925">
        <ele>356</ele>
        <time>2022-09-05T07:08:02.000Z</time>
      </trkpt>
      <trkpt lat="49.84323" lon="4.78925">
        <ele>357</ele>
        <time>2022-09-05T07:08:03.000Z</time>
      </trkpt>
      <trkpt lat="49.84327" lon="4.78925">
        <ele>357</ele>
        <time>2022-09-05T07:08:04.000Z</time>
      </trkpt>
      <trkpt lat="49.84331" lon="4.78925">
        <ele>357</ele>
        <time>2022-09-05T07:08:05.000Z</time>
      </trkpt>
      <trkpt lat="49.84333" lon="4.78927">
        <ele>357</ele>
        <time>2022-09-05T07:08:06.000Z</time>
      </trkpt>
      <trkpt lat="49.84336" lon="4.78927">
        <ele>358</ele>
        <time>2022-09-05T07:08:07.000Z</time>
      </trkpt>
      <trkpt lat="49.84338" lon="4.78927">
        <ele>358</ele>
        <time>2022-09-05T07:08:08.000Z</time>
      </trkpt>
      <trkpt lat="49.84341" lon="4.78927">
        <ele>358</ele>
        <time>2022-09-05T07:08:09.000Z</time>
      </trkpt>
      <trkpt lat="49.84343" lon="4.78927">
        <ele>358</ele>
        <time>2022-09-05T07:08:10.000Z</time>
      </trkpt>
      <trkpt lat="49.84346" lon="4.78927">
        <ele>358</ele>
        <time>2022-09-05T07:08:11.000Z</time>
      </trkpt>
      <trkpt lat="49.84348" lon="4.78928">
        <ele>358</ele>
        <time>2022-09-05T07:08:12.000Z</time>
      </trkpt>
      <trkpt lat="49.84351" lon="4.78927">
        <ele>358</ele>
        <time>2022-09-05T07:08:13.000Z</time>
      </trkpt>
      <trkpt lat="49.84353" lon="4.78927">
        <ele>358</ele>
        <time>2022-09-05T07:08:14.000Z</time>
      </trkpt>
      <trkpt lat="49.84355" lon="4.78927">
        <ele>358</ele>
        <time>2022-09-05T07:08:15.000Z</time>
      </trkpt>
      <trkpt lat="49.84358" lon="4.78926">
        <ele>358</ele>
        <time>2022-09-05T07:08:16.000Z</time>
      </trkpt>
      <trkpt lat="49.8436" lon="4.78926">
        <ele>358</ele>
        <time>2022-09-05T07:08:17.000Z</time>
      </trkpt>
      <trkpt lat="49.84364" lon="4.78926">
        <ele>358</ele>
        <time>2022-09-05T07:08:18.000Z</time>
      </trkpt>
      <trkpt lat="49.84367" lon="4.78926">
        <ele>358</ele>
        <time>2022-09-05T07:08:19.000Z</time>
      </trkpt>
      <trkpt lat="49.8437" lon="4.78926">
        <ele>359</ele>
        <time>2022-09-05T07:08:20.000Z</time>
      </trkpt>
      <trkpt lat="49.84373" lon="4.78926">
        <ele>359</ele>
        <time>2022-09-05T07:08:21.000Z</time>
      </trkpt>
      <trkpt lat="49.84376" lon="4.78926">
        <ele>359</ele>
        <time>2022-09-05T07:08:22.000Z</time>
      </trkpt>
      <trkpt lat="49.8438" lon="4.78925">
        <ele>359</ele>
        <time>2022-09-05T07:08:23.000Z</time>
      </trkpt>
      <trkpt lat="49.84383" lon="4.78925">
        <ele>359</ele>
        <time>2022-09-05T07:08:24.000Z</time>
      </trkpt>
      <trkpt lat="49.84386" lon="4.78925">
        <ele>359</ele>
        <time>2022-09-05T07:08:25.000Z</time>
      </trkpt>
      <trkpt lat="49.84388" lon="4.78925">
        <ele>359</ele>
        <time>2022-09-05T07:08:26.000Z</time>
      </trkpt>
      <trkpt lat="49.8439" lon="4.78925">
        <ele>359</ele>
        <time>2022-09-05T07:08:27.000Z</time>
      </trkpt>
      <trkpt lat="49.84392" lon="4.78925">
        <ele>359</ele>
        <time>2022-09-05T07:08:28.000Z</time>
      </trkpt>
      <trkpt lat="49.84393" lon="4.78925">
        <ele>359</ele>
        <time>2022-09-05T07:08:29.000Z</time>
      </trkpt>
      <trkpt lat="49.84393" lon="4.78925">
        <ele>359</ele>
        <time>2022-09-05T07:08:30.000Z</time>
      </trkpt>
      <trkpt lat="49.84393" lon="4.78925">
        <ele>359</ele>
        <time>2022-09-05T07:08:31.000Z</time>
      </trkpt>
      <trkpt lat="49.84394" lon="4.78925">
        <ele>359</ele>
        <time>2022-09-05T07:08:32.000Z</time>
      </trkpt>
      <trkpt lat="49.84395" lon="4.78926">
        <ele>359</ele>
        <time>2022-09-05T07:08:33.000Z</time>
      </trkpt>
      <trkpt lat="49.84395" lon="4.78927">
        <ele>359</ele>
        <time>2022-09-05T07:08:34.000Z</time>
      </trkpt>
      <trkpt lat="49.84396" lon="4.78927">
        <ele>359</ele>
        <time>2022-09-05T07:08:35.000Z</time>
      </trkpt>
      <trkpt lat="49.84396" lon="4.78927">
        <ele>359</ele>
        <time>2022-09-05T07:08:36.000Z</time>
      </trkpt>
      <trkpt lat="49.84397" lon="4.78927">
        <ele>359</ele>
        <time>2022-09-05T07:08:37.000Z</time>
      </trkpt>
      <trkpt lat="49.84398" lon="4.78928">
        <ele>359</ele>
        <time>2022-09-05T07:08:38.000Z</time>
      </trkpt>
      <trkpt lat="49.84399" lon="4.78928">
        <ele>359</ele>
        <time>2022-09-05T07:08:39.000Z</time>
      </trkpt>
      <trkpt lat="49.844" lon="4.78929">
        <ele>359</ele>
        <time>2022-09-05T07:08:40.000Z</time>
      </trkpt>
      <trkpt lat="49.84401" lon="4.7893">
        <ele>359</ele>
        <time>2022-09-05T07:08:41.000Z</time>
      </trkpt>
      <trkpt lat="49.84401" lon="4.78931">
        <ele>359</ele>
        <time>2022-09-05T07:08:42.000Z</time>
      </trkpt>
      <trkpt lat="49.84402" lon="4.78931">
        <ele>359</ele>
        <time>2022-09-05T07:08:43.000Z</time>
      </trkpt>
      <trkpt lat="49.84403" lon="4.78931">
        <ele>359</ele>
        <time>2022-09-05T07:08:44.000Z</time>
      </trkpt>
      <trkpt lat="49.84403" lon="4.7893">
        <ele>359</ele>
        <time>2022-09-05T07:08:45.000Z</time>
      </trkpt>
      <trkpt lat="49.84404" lon="4.7893">
        <ele>359</ele>
        <time>2022-09-05T07:08:46.000Z</time>
      </trkpt>
      <trkpt lat="49.84404" lon="4.7893">
        <ele>359</ele>
        <time>2022-09-05T07:08:47.000Z</time>
      </trkpt>
      <trkpt lat="49.84404" lon="4.7893">
        <ele>359</ele>
        <time>2022-09-05T07:08:48.000Z</time>
      </trkpt>
      <trkpt lat="49.84404" lon="4.7893">
        <ele>359</ele>
        <time>2022-09-05T07:08:49.000Z</time>
      </trkpt>
      <trkpt lat="49.84405" lon="4.7893">
        <ele>359</ele>
        <time>2022-09-05T07:08:50.000Z</time>
      </trkpt>
      <trkpt lat="49.84405" lon="4.78929">
        <ele>359</ele>
        <time>2022-09-05T07:08:51.000Z</time>
      </trkpt>
      <trkpt lat="49.84406" lon="4.78928">
        <ele>359</ele>
        <time>2022-09-05T07:08:52.000Z</time>
      </trkpt>
      <trkpt lat="49.84407" lon="4.78926">
        <ele>359</ele>
        <time>2022-09-05T07:08:53.000Z</time>
      </trkpt>
      <trkpt lat="49.84409" lon="4.78924">
        <ele>359</ele>
        <time>2022-09-05T07:08:54.000Z</time>
      </trkpt>
      <trkpt lat="49.8441" lon="4.78922">
        <ele>359</ele>
        <time>2022-09-05T07:08:55.000Z</time>
      </trkpt>
      <trkpt lat="49.84411" lon="4.78921">
        <ele>358</ele>
        <time>2022-09-05T07:08:56.000Z</time>
      </trkpt>
      <trkpt lat="49.84413" lon="4.78921">
        <ele>358</ele>
        <time>2022-09-05T07:08:57.000Z</time>
      </trkpt>
      <trkpt lat="49.84416" lon="4.78921">
        <ele>358</ele>
        <time>2022-09-05T07:08:58.000Z</time>
      </trkpt>
      <trkpt lat="49.84418" lon="4.78922">
        <ele>359</ele>
        <time>2022-09-05T07:08:59.000Z</time>
      </trkpt>
      <trkpt lat="49.84421" lon="4.78922">
        <ele>359</ele>
        <time>2022-09-05T07:09:00.000Z</time>
      </trkpt>
      <trkpt lat="49.84424" lon="4.78922">
        <ele>359</ele>
        <time>2022-09-05T07:09:01.000Z</time>
      </trkpt>
      <trkpt lat="49.84426" lon="4.78921">
        <ele>359</ele>
        <time>2022-09-05T07:09:02.000Z</time>
      </trkpt>
      <trkpt lat="49.84429" lon="4.7892">
        <ele>359</ele>
        <time>2022-09-05T07:09:03.000Z</time>
      </trkpt>
      <trkpt lat="49.84431" lon="4.7892">
        <ele>359</ele>
        <time>2022-09-05T07:09:04.000Z</time>
      </trkpt>
      <trkpt lat="49.84434" lon="4.78919">
        <ele>359</ele>
        <time>2022-09-05T07:09:05.000Z</time>
      </trkpt>
      <trkpt lat="49.84437" lon="4.78919">
        <ele>358</ele>
        <time>2022-09-05T07:09:06.000Z</time>
      </trkpt>
      <trkpt lat="49.8444" lon="4.78919">
        <ele>358</ele>
        <time>2022-09-05T07:09:07.000Z</time>
      </trkpt>
      <trkpt lat="49.84442" lon="4.78919">
        <ele>358</ele>
        <time>2022-09-05T07:09:08.000Z</time>
      </trkpt>
      <trkpt lat="49.84445" lon="4.78919">
        <ele>358</ele>
        <time>2022-09-05T07:09:09.000Z</time>
      </trkpt>
      <trkpt lat="49.84448" lon="4.78919">
        <ele>358</ele>
        <time>2022-09-05T07:09:10.000Z</time>
      </trkpt>
      <trkpt lat="49.84451" lon="4.78919">
        <ele>358</ele>
        <time>2022-09-05T07:09:11.000Z</time>
      </trkpt>
      <trkpt lat="49.84453" lon="4.7892">
        <ele>358</ele>
        <time>2022-09-05T07:09:12.000Z</time>
      </trkpt>
      <trkpt lat="49.84456" lon="4.7892">
        <ele>358</ele>
        <time>2022-09-05T07:09:13.000Z</time>
      </trkpt>
      <trkpt lat="49.84459" lon="4.7892">
        <ele>358</ele>
        <time>2022-09-05T07:09:14.000Z</time>
      </trkpt>
      <trkpt lat="49.8446" lon="4.7892">
        <ele>358</ele>
        <time>2022-09-05T07:09:15.000Z</time>
      </trkpt>
      <trkpt lat="49.84462" lon="4.7892">
        <ele>358</ele>
        <time>2022-09-05T07:09:16.000Z</time>
      </trkpt>
      <trkpt lat="49.84465" lon="4.7892">
        <ele>358</ele>
        <time>2022-09-05T07:09:17.000Z</time>
      </trkpt>
      <trkpt lat="49.84467" lon="4.7892">
        <ele>358</ele>
        <time>2022-09-05T07:09:18.000Z</time>
      </trkpt>
      <trkpt lat="49.8447" lon="4.78921">
        <ele>358</ele>
        <time>2022-09-05T07:09:19.000Z</time>
      </trkpt>
      <trkpt lat="49.84473" lon="4.78921">
        <ele>358</ele>
        <time>2022-09-05T07:09:20.000Z</time>
      </trkpt>
      <trkpt lat="49.84476" lon="4.7892">
        <ele>358</ele>
        <time>2022-09-05T07:09:21.000Z</time>
      </trkpt>
      <trkpt lat="49.84479" lon="4.7892">
        <ele>358</ele>
        <time>2022-09-05T07:09:22.000Z</time>
      </trkpt>
      <trkpt lat="49.84483" lon="4.78919">
        <ele>358</ele>
        <time>2022-09-05T07:09:23.000Z</time>
      </trkpt>
      <trkpt lat="49.84487" lon="4.78918">
        <ele>358</ele>
        <time>2022-09-05T07:09:24.000Z</time>
      </trkpt>
      <trkpt lat="49.84491" lon="4.78917">
        <ele>358</ele>
        <time>2022-09-05T07:09:25.000Z</time>
      </trkpt>
      <trkpt lat="49.84495" lon="4.78917">
        <ele>358</ele>
        <time>2022-09-05T07:09:26.000Z</time>
      </trkpt>
      <trkpt lat="49.84498" lon="4.78916">
        <ele>359</ele>
        <time>2022-09-05T07:09:27.000Z</time>
      </trkpt>
      <trkpt lat="49.84502" lon="4.78915">
        <ele>359</ele>
        <time>2022-09-05T07:09:28.000Z</time>
      </trkpt>
      <trkpt lat="49.84506" lon="4.78915">
        <ele>359</ele>
        <time>2022-09-05T07:09:29.000Z</time>
      </trkpt>
      <trkpt lat="49.84509" lon="4.78914">
        <ele>359</ele>
        <time>2022-09-05T07:09:30.000Z</time>
      </trkpt>
      <trkpt lat="49.84512" lon="4.78914">
        <ele>359</ele>
        <time>2022-09-05T07:09:31.000Z</time>
      </trkpt>
      <trkpt lat="49.84516" lon="4.78913">
        <ele>359</ele>
        <time>2022-09-05T07:09:32.000Z</time>
      </trkpt>
      <trkpt lat="49.84519" lon="4.78912">
        <ele>359</ele>
        <time>2022-09-05T07:09:33.000Z</time>
      </trkpt>
      <trkpt lat="49.84522" lon="4.78912">
        <ele>359</ele>
        <time>2022-09-05T07:09:34.000Z</time>
      </trkpt>
      <trkpt lat="49.84525" lon="4.78912">
        <ele>359</ele>
        <time>2022-09-05T07:09:35.000Z</time>
      </trkpt>
      <trkpt lat="49.84528" lon="4.78912">
        <ele>359</ele>
        <time>2022-09-05T07:09:36.000Z</time>
      </trkpt>
      <trkpt lat="49.84531" lon="4.78912">
        <ele>359</ele>
        <time>2022-09-05T07:09:37.000Z</time>
      </trkpt>
      <trkpt lat="49.84534" lon="4.78912">
        <ele>359</ele>
        <time>2022-09-05T07:09:38.000Z</time>
      </trkpt>
      <trkpt lat="49.84537" lon="4.78912">
        <ele>359</ele>
        <time>2022-09-05T07:09:39.000Z</time>
      </trkpt>
      <trkpt lat="49.8454" lon="4.78912">
        <ele>359</ele>
        <time>2022-09-05T07:09:40.000Z</time>
      </trkpt>
      <trkpt lat="49.84544" lon="4.78911">
        <ele>359</ele>
        <time>2022-09-05T07:09:41.000Z</time>
      </trkpt>
      <trkpt lat="49.84548" lon="4.78911">
        <ele>359</ele>
        <time>2022-09-05T07:09:42.000Z</time>
      </trkpt>
      <trkpt lat="49.84551" lon="4.7891">
        <ele>358</ele>
        <time>2022-09-05T07:09:43.000Z</time>
      </trkpt>
      <trkpt lat="49.84555" lon="4.7891">
        <ele>358</ele>
        <time>2022-09-05T07:09:44.000Z</time>
      </trkpt>
      <trkpt lat="49.84558" lon="4.78911">
        <ele>358</ele>
        <time>2022-09-05T07:09:45.000Z</time>
      </trkpt>
      <trkpt lat="49.8456" lon="4.78911">
        <ele>358</ele>
        <time>2022-09-05T07:09:46.000Z</time>
      </trkpt>
      <trkpt lat="49.84563" lon="4.78911">
        <ele>358</ele>
        <time>2022-09-05T07:09:47.000Z</time>
      </trkpt>
      <trkpt lat="49.84567" lon="4.78911">
        <ele>358</ele>
        <time>2022-09-05T07:09:48.000Z</time>
      </trkpt>
      <trkpt lat="49.84571" lon="4.78911">
        <ele>358</ele>
        <time>2022-09-05T07:09:49.000Z</time>
      </trkpt>
      <trkpt lat="49.84574" lon="4.78911">
        <ele>358</ele>
        <time>2022-09-05T07:09:50.000Z</time>
      </trkpt>
      <trkpt lat="49.84577" lon="4.78911">
        <ele>358</ele>
        <time>2022-09-05T07:09:51.000Z</time>
      </trkpt>
      <trkpt lat="49.8458" lon="4.78912">
        <ele>358</ele>
        <time>2022-09-05T07:09:52.000Z</time>
      </trkpt>
      <trkpt lat="49.84583" lon="4.78912">
        <ele>358</ele>
        <time>2022-09-05T07:09:53.000Z</time>
      </trkpt>
      <trkpt lat="49.84585" lon="4.78912">
        <ele>358</ele>
        <time>2022-09-05T07:09:54.000Z</time>
      </trkpt>
      <trkpt lat="49.84587" lon="4.78912">
        <ele>358</ele>
        <time>2022-09-05T07:09:55.000Z</time>
      </trkpt>
      <trkpt lat="49.8459" lon="4.78911">
        <ele>358</ele>
        <time>2022-09-05T07:09:56.000Z</time>
      </trkpt>
      <trkpt lat="49.84592" lon="4.7891">
        <ele>358</ele>
        <time>2022-09-05T07:09:57.000Z</time>
      </trkpt>
      <trkpt lat="49.84596" lon="4.7891">
        <ele>358</ele>
        <time>2022-09-05T07:09:58.000Z</time>
      </trkpt>
      <trkpt lat="49.846" lon="4.7891">
        <ele>358</ele>
        <time>2022-09-05T07:09:59.000Z</time>
      </trkpt>
      <trkpt lat="49.84604" lon="4.7891">
        <ele>358</ele>
        <time>2022-09-05T07:10:00.000Z</time>
      </trkpt>
      <trkpt lat="49.84607" lon="4.78911">
        <ele>358</ele>
        <time>2022-09-05T07:10:01.000Z</time>
      </trkpt>
      <trkpt lat="49.8461" lon="4.78911">
        <ele>358</ele>
        <time>2022-09-05T07:10:02.000Z</time>
      </trkpt>
      <trkpt lat="49.84613" lon="4.78911">
        <ele>358</ele>
        <time>2022-09-05T07:10:03.000Z</time>
      </trkpt>
      <trkpt lat="49.84617" lon="4.78911">
        <ele>358</ele>
        <time>2022-09-05T07:10:04.000Z</time>
      </trkpt>
      <trkpt lat="49.84621" lon="4.7891">
        <ele>358</ele>
        <time>2022-09-05T07:10:05.000Z</time>
      </trkpt>
      <trkpt lat="49.84625" lon="4.7891">
        <ele>358</ele>
        <time>2022-09-05T07:10:06.000Z</time>
      </trkpt>
      <trkpt lat="49.8463" lon="4.7891">
        <ele>358</ele>
        <time>2022-09-05T07:10:07.000Z</time>
      </trkpt>
      <trkpt lat="49.84634" lon="4.7891">
        <ele>358</ele>
        <time>2022-09-05T07:10:08.000Z</time>
      </trkpt>
      <trkpt lat="49.84638" lon="4.78909">
        <ele>358</ele>
        <time>2022-09-05T07:10:09.000Z</time>
      </trkpt>
      <trkpt lat="49.84643" lon="4.78908">
        <ele>358</ele>
        <time>2022-09-05T07:10:10.000Z</time>
      </trkpt>
      <trkpt lat="49.84647" lon="4.78907">
        <ele>357</ele>
        <time>2022-09-05T07:10:11.000Z</time>
      </trkpt>
      <trkpt lat="49.84651" lon="4.78906">
        <ele>357</ele>
        <time>2022-09-05T07:10:12.000Z</time>
      </trkpt>
      <trkpt lat="49.84655" lon="4.78906">
        <ele>357</ele>
        <time>2022-09-05T07:10:13.000Z</time>
      </trkpt>
      <trkpt lat="49.84659" lon="4.78906">
        <ele>357</ele>
        <time>2022-09-05T07:10:14.000Z</time>
      </trkpt>
      <trkpt lat="49.84663" lon="4.78906">
        <ele>357</ele>
        <time>2022-09-05T07:10:15.000Z</time>
      </trkpt>
      <trkpt lat="49.84668" lon="4.78905">
        <ele>357</ele>
        <time>2022-09-05T07:10:16.000Z</time>
      </trkpt>
      <trkpt lat="49.84673" lon="4.78904">
        <ele>357</ele>
        <time>2022-09-05T07:10:17.000Z</time>
      </trkpt>
      <trkpt lat="49.84678" lon="4.78903">
        <ele>357</ele>
        <time>2022-09-05T07:10:18.000Z</time>
      </trkpt>
      <trkpt lat="49.84682" lon="4.78903">
        <ele>357</ele>
        <time>2022-09-05T07:10:19.000Z</time>
      </trkpt>
      <trkpt lat="49.84686" lon="4.78903">
        <ele>356</ele>
        <time>2022-09-05T07:10:20.000Z</time>
      </trkpt>
      <trkpt lat="49.84691" lon="4.78903">
        <ele>356</ele>
        <time>2022-09-05T07:10:21.000Z</time>
      </trkpt>
      <trkpt lat="49.84695" lon="4.78903">
        <ele>356</ele>
        <time>2022-09-05T07:10:22.000Z</time>
      </trkpt>
      <trkpt lat="49.847" lon="4.78902">
        <ele>356</ele>
        <time>2022-09-05T07:10:23.000Z</time>
      </trkpt>
      <trkpt lat="49.84704" lon="4.78902">
        <ele>355</ele>
        <time>2022-09-05T07:10:24.000Z</time>
      </trkpt>
      <trkpt lat="49.84707" lon="4.78902">
        <ele>355</ele>
        <time>2022-09-05T07:10:25.000Z</time>
      </trkpt>
      <trkpt lat="49.84709" lon="4.78902">
        <ele>355</ele>
        <time>2022-09-05T07:10:26.000Z</time>
      </trkpt>
      <trkpt lat="49.84711" lon="4.78902">
        <ele>354</ele>
        <time>2022-09-05T07:10:27.000Z</time>
      </trkpt>
      <trkpt lat="49.84713" lon="4.78903">
        <ele>354</ele>
        <time>2022-09-05T07:10:28.000Z</time>
      </trkpt>
      <trkpt lat="49.84715" lon="4.78903">
        <ele>353</ele>
        <time>2022-09-05T07:10:29.000Z</time>
      </trkpt>
      <trkpt lat="49.84717" lon="4.78905">
        <ele>353</ele>
        <time>2022-09-05T07:10:30.000Z</time>
      </trkpt>
      <trkpt lat="49.84719" lon="4.78907">
        <ele>353</ele>
        <time>2022-09-05T07:10:31.000Z</time>
      </trkpt>
      <trkpt lat="49.8472" lon="4.7891">
        <ele>352</ele>
        <time>2022-09-05T07:10:32.000Z</time>
      </trkpt>
      <trkpt lat="49.84721" lon="4.78914">
        <ele>352</ele>
        <time>2022-09-05T07:10:33.000Z</time>
      </trkpt>
      <trkpt lat="49.84722" lon="4.78919">
        <ele>352</ele>
        <time>2022-09-05T07:10:34.000Z</time>
      </trkpt>
      <trkpt lat="49.84724" lon="4.78925">
        <ele>352</ele>
        <time>2022-09-05T07:10:35.000Z</time>
      </trkpt>
      <trkpt lat="49.84725" lon="4.78931">
        <ele>351</ele>
        <time>2022-09-05T07:10:36.000Z</time>
      </trkpt>
      <trkpt lat="49.84726" lon="4.78938">
        <ele>351</ele>
        <time>2022-09-05T07:10:37.000Z</time>
      </trkpt>
      <trkpt lat="49.84727" lon="4.78945">
        <ele>351</ele>
        <time>2022-09-05T07:10:38.000Z</time>
      </trkpt>
      <trkpt lat="49.84729" lon="4.78951">
        <ele>350</ele>
        <time>2022-09-05T07:10:39.000Z</time>
      </trkpt>
      <trkpt lat="49.8473" lon="4.78958">
        <ele>350</ele>
        <time>2022-09-05T07:10:40.000Z</time>
      </trkpt>
      <trkpt lat="49.84731" lon="4.78965">
        <ele>350</ele>
        <time>2022-09-05T07:10:41.000Z</time>
      </trkpt>
      <trkpt lat="49.84733" lon="4.78972">
        <ele>349</ele>
        <time>2022-09-05T07:10:42.000Z</time>
      </trkpt>
      <trkpt lat="49.84734" lon="4.7898">
        <ele>349</ele>
        <time>2022-09-05T07:10:43.000Z</time>
      </trkpt>
      <trkpt lat="49.84736" lon="4.78988">
        <ele>349</ele>
        <time>2022-09-05T07:10:44.000Z</time>
      </trkpt>
      <trkpt lat="49.84736" lon="4.78995">
        <ele>348</ele>
        <time>2022-09-05T07:10:45.000Z</time>
      </trkpt>
      <trkpt lat="49.84736" lon="4.79002">
        <ele>348</ele>
        <time>2022-09-05T07:10:46.000Z</time>
      </trkpt>
      <trkpt lat="49.84735" lon="4.79008">
        <ele>348</ele>
        <time>2022-09-05T07:10:47.000Z</time>
      </trkpt>
      <trkpt lat="49.84734" lon="4.79014">
        <ele>347</ele>
        <time>2022-09-05T07:10:48.000Z</time>
      </trkpt>
      <trkpt lat="49.84732" lon="4.79019">
        <ele>347</ele>
        <time>2022-09-05T07:10:49.000Z</time>
      </trkpt>
      <trkpt lat="49.84731" lon="4.79024">
        <ele>347</ele>
        <time>2022-09-05T07:10:50.000Z</time>
      </trkpt>
      <trkpt lat="49.84729" lon="4.79029">
        <ele>347</ele>
        <time>2022-09-05T07:10:51.000Z</time>
      </trkpt>
      <trkpt lat="49.84727" lon="4.79034">
        <ele>347</ele>
        <time>2022-09-05T07:10:52.000Z</time>
      </trkpt>
      <trkpt lat="49.84726" lon="4.79039">
        <ele>347</ele>
        <time>2022-09-05T07:10:53.000Z</time>
      </trkpt>
      <trkpt lat="49.84724" lon="4.79044">
        <ele>347</ele>
        <time>2022-09-05T07:10:54.000Z</time>
      </trkpt>
      <trkpt lat="49.84722" lon="4.79049">
        <ele>347</ele>
        <time>2022-09-05T07:10:55.000Z</time>
      </trkpt>
      <trkpt lat="49.8472" lon="4.79054">
        <ele>346</ele>
        <time>2022-09-05T07:10:56.000Z</time>
      </trkpt>
      <trkpt lat="49.84719" lon="4.79059">
        <ele>346</ele>
        <time>2022-09-05T07:10:57.000Z</time>
      </trkpt>
      <trkpt lat="49.84717" lon="4.79064">
        <ele>346</ele>
        <time>2022-09-05T07:10:58.000Z</time>
      </trkpt>
      <trkpt lat="49.84716" lon="4.79069">
        <ele>347</ele>
        <time>2022-09-05T07:10:59.000Z</time>
      </trkpt>
      <trkpt lat="49.84715" lon="4.79074">
        <ele>347</ele>
        <time>2022-09-05T07:11:00.000Z</time>
      </trkpt>
      <trkpt lat="49.84713" lon="4.79079">
        <ele>347</ele>
        <time>2022-09-05T07:11:01.000Z</time>
      </trkpt>
      <trkpt lat="49.84712" lon="4.79084">
        <ele>347</ele>
        <time>2022-09-05T07:11:02.000Z</time>
      </trkpt>
      <trkpt lat="49.84711" lon="4.79089">
        <ele>347</ele>
        <time>2022-09-05T07:11:03.000Z</time>
      </trkpt>
      <trkpt lat="49.84711" lon="4.79093">
        <ele>347</ele>
        <time>2022-09-05T07:11:04.000Z</time>
      </trkpt>
      <trkpt lat="49.84711" lon="4.79098">
        <ele>347</ele>
        <time>2022-09-05T07:11:05.000Z</time>
      </trkpt>
      <trkpt lat="49.84711" lon="4.79102">
        <ele>347</ele>
        <time>2022-09-05T07:11:06.000Z</time>
      </trkpt>
      <trkpt lat="49.84711" lon="4.79106">
        <ele>347</ele>
        <time>2022-09-05T07:11:07.000Z</time>
      </trkpt>
      <trkpt lat="49.84712" lon="4.79111">
        <ele>347</ele>
        <time>2022-09-05T07:11:08.000Z</time>
      </trkpt>
      <trkpt lat="49.84714" lon="4.79116">
        <ele>347</ele>
        <time>2022-09-05T07:11:09.000Z</time>
      </trkpt>
      <trkpt lat="49.84715" lon="4.79122">
        <ele>347</ele>
        <time>2022-09-05T07:11:10.000Z</time>
      </trkpt>
      <trkpt lat="49.84717" lon="4.79128">
        <ele>347</ele>
        <time>2022-09-05T07:11:11.000Z</time>
      </trkpt>
      <trkpt lat="49.8472" lon="4.79132">
        <ele>347</ele>
        <time>2022-09-05T07:11:12.000Z</time>
      </trkpt>
      <trkpt lat="49.84723" lon="4.79137">
        <ele>347</ele>
        <time>2022-09-05T07:11:13.000Z</time>
      </trkpt>
      <trkpt lat="49.84726" lon="4.79141">
        <ele>347</ele>
        <time>2022-09-05T07:11:14.000Z</time>
      </trkpt>
      <trkpt lat="49.84731" lon="4.79144">
        <ele>347</ele>
        <time>2022-09-05T07:11:15.000Z</time>
      </trkpt>
      <trkpt lat="49.84736" lon="4.79146">
        <ele>348</ele>
        <time>2022-09-05T07:11:16.000Z</time>
      </trkpt>
      <trkpt lat="49.8474" lon="4.79149">
        <ele>348</ele>
        <time>2022-09-05T07:11:17.000Z</time>
      </trkpt>
      <trkpt lat="49.84746" lon="4.79151">
        <ele>348</ele>
        <time>2022-09-05T07:11:18.000Z</time>
      </trkpt>
      <trkpt lat="49.84751" lon="4.79154">
        <ele>348</ele>
        <time>2022-09-05T07:11:19.000Z</time>
      </trkpt>
      <trkpt lat="49.84756" lon="4.79156">
        <ele>348</ele>
        <time>2022-09-05T07:11:20.000Z</time>
      </trkpt>
      <trkpt lat="49.84762" lon="4.79158">
        <ele>347</ele>
        <time>2022-09-05T07:11:21.000Z</time>
      </trkpt>
      <trkpt lat="49.84768" lon="4.79159">
        <ele>347</ele>
        <time>2022-09-05T07:11:22.000Z</time>
      </trkpt>
      <trkpt lat="49.84774" lon="4.7916">
        <ele>347</ele>
        <time>2022-09-05T07:11:23.000Z</time>
      </trkpt>
      <trkpt lat="49.8478" lon="4.79161">
        <ele>347</ele>
        <time>2022-09-05T07:11:24.000Z</time>
      </trkpt>
      <trkpt lat="49.84785" lon="4.7916">
        <ele>347</ele>
        <time>2022-09-05T07:11:25.000Z</time>
      </trkpt>
      <trkpt lat="49.8479" lon="4.79159">
        <ele>347</ele>
        <time>2022-09-05T07:11:26.000Z</time>
      </trkpt>
      <trkpt lat="49.84796" lon="4.79157">
        <ele>347</ele>
        <time>2022-09-05T07:11:27.000Z</time>
      </trkpt>
      <trkpt lat="49.84801" lon="4.79153">
        <ele>346</ele>
        <time>2022-09-05T07:11:28.000Z</time>
      </trkpt>
      <trkpt lat="49.84807" lon="4.79148">
        <ele>346</ele>
        <time>2022-09-05T07:11:29.000Z</time>
      </trkpt>
      <trkpt lat="49.84812" lon="4.79143">
        <ele>346</ele>
        <time>2022-09-05T07:11:30.000Z</time>
      </trkpt>
      <trkpt lat="49.84818" lon="4.79138">
        <ele>346</ele>
        <time>2022-09-05T07:11:31.000Z</time>
      </trkpt>
      <trkpt lat="49.84823" lon="4.79132">
        <ele>346</ele>
        <time>2022-09-05T07:11:32.000Z</time>
      </trkpt>
      <trkpt lat="49.84827" lon="4.79125">
        <ele>346</ele>
        <time>2022-09-05T07:11:33.000Z</time>
      </trkpt>
      <trkpt lat="49.84831" lon="4.7912">
        <ele>346</ele>
        <time>2022-09-05T07:11:34.000Z</time>
      </trkpt>
      <trkpt lat="49.84835" lon="4.79115">
        <ele>345</ele>
        <time>2022-09-05T07:11:35.000Z</time>
      </trkpt>
      <trkpt lat="49.84839" lon="4.7911">
        <ele>345</ele>
        <time>2022-09-05T07:11:36.000Z</time>
      </trkpt>
      <trkpt lat="49.84842" lon="4.79106">
        <ele>345</ele>
        <time>2022-09-05T07:11:37.000Z</time>
      </trkpt>
      <trkpt lat="49.84844" lon="4.79101">
        <ele>345</ele>
        <time>2022-09-05T07:11:38.000Z</time>
      </trkpt>
      <trkpt lat="49.84847" lon="4.79098">
        <ele>345</ele>
        <time>2022-09-05T07:11:39.000Z</time>
      </trkpt>
      <trkpt lat="49.84849" lon="4.79095">
        <ele>345</ele>
        <time>2022-09-05T07:11:40.000Z</time>
      </trkpt>
      <trkpt lat="49.84852" lon="4.79092">
        <ele>345</ele>
        <time>2022-09-05T07:11:41.000Z</time>
      </trkpt>
      <trkpt lat="49.84854" lon="4.79089">
        <ele>345</ele>
        <time>2022-09-05T07:11:42.000Z</time>
      </trkpt>
      <trkpt lat="49.84856" lon="4.79086">
        <ele>345</ele>
        <time>2022-09-05T07:11:43.000Z</time>
      </trkpt>
      <trkpt lat="49.84858" lon="4.79083">
        <ele>345</ele>
        <time>2022-09-05T07:11:44.000Z</time>
      </trkpt>
      <trkpt lat="49.8486" lon="4.7908">
        <ele>345</ele>
        <time>2022-09-05T07:11:45.000Z</time>
      </trkpt>
      <trkpt lat="49.84862" lon="4.79077">
        <ele>345</ele>
        <time>2022-09-05T07:11:46.000Z</time>
      </trkpt>
      <trkpt lat="49.84863" lon="4.79075">
        <ele>345</ele>
        <time>2022-09-05T07:11:47.000Z</time>
      </trkpt>
      <trkpt lat="49.84864" lon="4.79073">
        <ele>345</ele>
        <time>2022-09-05T07:11:48.000Z</time>
      </trkpt>
      <trkpt lat="49.84867" lon="4.7907">
        <ele>346</ele>
        <time>2022-09-05T07:11:49.000Z</time>
      </trkpt>
      <trkpt lat="49.84869" lon="4.79067">
        <ele>346</ele>
        <time>2022-09-05T07:11:50.000Z</time>
      </trkpt>
      <trkpt lat="49.84872" lon="4.79064">
        <ele>346</ele>
        <time>2022-09-05T07:11:51.000Z</time>
      </trkpt>
      <trkpt lat="49.84875" lon="4.79061">
        <ele>346</ele>
        <time>2022-09-05T07:11:52.000Z</time>
      </trkpt>
      <trkpt lat="49.84878" lon="4.79059">
        <ele>346</ele>
        <time>2022-09-05T07:11:53.000Z</time>
      </trkpt>
      <trkpt lat="49.84881" lon="4.79056">
        <ele>346</ele>
        <time>2022-09-05T07:11:54.000Z</time>
      </trkpt>
      <trkpt lat="49.84883" lon="4.79053">
        <ele>346</ele>
        <time>2022-09-05T07:11:55.000Z</time>
      </trkpt>
      <trkpt lat="49.84887" lon="4.7905">
        <ele>346</ele>
        <time>2022-09-05T07:11:56.000Z</time>
      </trkpt>
      <trkpt lat="49.8489" lon="4.79046">
        <ele>347</ele>
        <time>2022-09-05T07:11:57.000Z</time>
      </trkpt>
      <trkpt lat="49.84895" lon="4.79042">
        <ele>347</ele>
        <time>2022-09-05T07:11:58.000Z</time>
      </trkpt>
      <trkpt lat="49.84899" lon="4.79039">
        <ele>347</ele>
        <time>2022-09-05T07:11:59.000Z</time>
      </trkpt>
      <trkpt lat="49.84902" lon="4.79036">
        <ele>347</ele>
        <time>2022-09-05T07:12:00.000Z</time>
      </trkpt>
      <trkpt lat="49.84905" lon="4.79032">
        <ele>346</ele>
        <time>2022-09-05T07:12:01.000Z</time>
      </trkpt>
      <trkpt lat="49.84909" lon="4.79028">
        <ele>346</ele>
        <time>2022-09-05T07:12:02.000Z</time>
      </trkpt>
      <trkpt lat="49.84913" lon="4.79025">
        <ele>346</ele>
        <time>2022-09-05T07:12:03.000Z</time>
      </trkpt>
      <trkpt lat="49.84916" lon="4.7902">
        <ele>346</ele>
        <time>2022-09-05T07:12:04.000Z</time>
      </trkpt>
      <trkpt lat="49.8492" lon="4.79016">
        <ele>346</ele>
        <time>2022-09-05T07:12:05.000Z</time>
      </trkpt>
      <trkpt lat="49.84923" lon="4.79011">
        <ele>346</ele>
        <time>2022-09-05T07:12:06.000Z</time>
      </trkpt>
      <trkpt lat="49.84926" lon="4.79007">
        <ele>346</ele>
        <time>2022-09-05T07:12:07.000Z</time>
      </trkpt>
      <trkpt lat="49.84929" lon="4.79003">
        <ele>346</ele>
        <time>2022-09-05T07:12:08.000Z</time>
      </trkpt>
      <trkpt lat="49.84932" lon="4.79">
        <ele>346</ele>
        <time>2022-09-05T07:12:09.000Z</time>
      </trkpt>
      <trkpt lat="49.84935" lon="4.78998">
        <ele>346</ele>
        <time>2022-09-05T07:12:10.000Z</time>
      </trkpt>
      <trkpt lat="49.84938" lon="4.78995">
        <ele>346</ele>
        <time>2022-09-05T07:12:11.000Z</time>
      </trkpt>
      <trkpt lat="49.84942" lon="4.78991">
        <ele>346</ele>
        <time>2022-09-05T07:12:12.000Z</time>
      </trkpt>
      <trkpt lat="49.84945" lon="4.78988">
        <ele>346</ele>
        <time>2022-09-05T07:12:13.000Z</time>
      </trkpt>
      <trkpt lat="49.84947" lon="4.78983">
        <ele>347</ele>
        <time>2022-09-05T07:12:14.000Z</time>
      </trkpt>
      <trkpt lat="49.84949" lon="4.78977">
        <ele>347</ele>
        <time>2022-09-05T07:12:15.000Z</time>
      </trkpt>
      <trkpt lat="49.84951" lon="4.7897">
        <ele>347</ele>
        <time>2022-09-05T07:12:16.000Z</time>
      </trkpt>
      <trkpt lat="49.84953" lon="4.78962">
        <ele>347</ele>
        <time>2022-09-05T07:12:17.000Z</time>
      </trkpt>
      <trkpt lat="49.84956" lon="4.78955">
        <ele>347</ele>
        <time>2022-09-05T07:12:18.000Z</time>
      </trkpt>
      <trkpt lat="49.8496" lon="4.78948">
        <ele>347</ele>
        <time>2022-09-05T07:12:19.000Z</time>
      </trkpt>
      <trkpt lat="49.84963" lon="4.78941">
        <ele>347</ele>
        <time>2022-09-05T07:12:20.000Z</time>
      </trkpt>
      <trkpt lat="49.84968" lon="4.78933">
        <ele>347</ele>
        <time>2022-09-05T07:12:21.000Z</time>
      </trkpt>
      <trkpt lat="49.84973" lon="4.78925">
        <ele>347</ele>
        <time>2022-09-05T07:12:22.000Z</time>
      </trkpt>
      <trkpt lat="49.84978" lon="4.78917">
        <ele>347</ele>
        <time>2022-09-05T07:12:23.000Z</time>
      </trkpt>
      <trkpt lat="49.84983" lon="4.7891">
        <ele>347</ele>
        <time>2022-09-05T07:12:24.000Z</time>
      </trkpt>
      <trkpt lat="49.84989" lon="4.78904">
        <ele>347</ele>
        <time>2022-09-05T07:12:25.000Z</time>
      </trkpt>
      <trkpt lat="49.84994" lon="4.78898">
        <ele>347</ele>
        <time>2022-09-05T07:12:26.000Z</time>
      </trkpt>
      <trkpt lat="49.85" lon="4.78892">
        <ele>347</ele>
        <time>2022-09-05T07:12:27.000Z</time>
      </trkpt>
      <trkpt lat="49.85005" lon="4.78885">
        <ele>347</ele>
        <time>2022-09-05T07:12:28.000Z</time>
      </trkpt>
      <trkpt lat="49.85009" lon="4.78877">
        <ele>347</ele>
        <time>2022-09-05T07:12:29.000Z</time>
      </trkpt>
      <trkpt lat="49.85014" lon="4.7887">
        <ele>346</ele>
        <time>2022-09-05T07:12:30.000Z</time>
      </trkpt>
      <trkpt lat="49.85019" lon="4.78862">
        <ele>346</ele>
        <time>2022-09-05T07:12:31.000Z</time>
      </trkpt>
      <trkpt lat="49.85024" lon="4.78856">
        <ele>346</ele>
        <time>2022-09-05T07:12:32.000Z</time>
      </trkpt>
      <trkpt lat="49.8503" lon="4.7885">
        <ele>346</ele>
        <time>2022-09-05T07:12:33.000Z</time>
      </trkpt>
      <trkpt lat="49.85036" lon="4.78844">
        <ele>345</ele>
        <time>2022-09-05T07:12:34.000Z</time>
      </trkpt>
      <trkpt lat="49.85042" lon="4.78838">
        <ele>345</ele>
        <time>2022-09-05T07:12:35.000Z</time>
      </trkpt>
      <trkpt lat="49.85047" lon="4.78831">
        <ele>345</ele>
        <time>2022-09-05T07:12:36.000Z</time>
      </trkpt>
      <trkpt lat="49.85051" lon="4.78824">
        <ele>345</ele>
        <time>2022-09-05T07:12:37.000Z</time>
      </trkpt>
      <trkpt lat="49.85056" lon="4.78816">
        <ele>344</ele>
        <time>2022-09-05T07:12:38.000Z</time>
      </trkpt>
      <trkpt lat="49.8506" lon="4.78808">
        <ele>344</ele>
        <time>2022-09-05T07:12:39.000Z</time>
      </trkpt>
      <trkpt lat="49.85064" lon="4.78799">
        <ele>344</ele>
        <time>2022-09-05T07:12:40.000Z</time>
      </trkpt>
      <trkpt lat="49.85067" lon="4.7879">
        <ele>344</ele>
        <time>2022-09-05T07:12:41.000Z</time>
      </trkpt>
      <trkpt lat="49.8507" lon="4.78781">
        <ele>343</ele>
        <time>2022-09-05T07:12:42.000Z</time>
      </trkpt>
      <trkpt lat="49.85073" lon="4.78773">
        <ele>343</ele>
        <time>2022-09-05T07:12:43.000Z</time>
      </trkpt>
      <trkpt lat="49.85077" lon="4.78765">
        <ele>343</ele>
        <time>2022-09-05T07:12:44.000Z</time>
      </trkpt>
      <trkpt lat="49.8508" lon="4.78758">
        <ele>343</ele>
        <time>2022-09-05T07:12:45.000Z</time>
      </trkpt>
      <trkpt lat="49.85084" lon="4.78751">
        <ele>342</ele>
        <time>2022-09-05T07:12:46.000Z</time>
      </trkpt>
      <trkpt lat="49.85089" lon="4.78744">
        <ele>342</ele>
        <time>2022-09-05T07:12:47.000Z</time>
      </trkpt>
      <trkpt lat="49.85093" lon="4.78737">
        <ele>342</ele>
        <time>2022-09-05T07:12:48.000Z</time>
      </trkpt>
      <trkpt lat="49.85098" lon="4.78731">
        <ele>342</ele>
        <time>2022-09-05T07:12:49.000Z</time>
      </trkpt>
      <trkpt lat="49.85102" lon="4.78725">
        <ele>342</ele>
        <time>2022-09-05T07:12:50.000Z</time>
      </trkpt>
      <trkpt lat="49.85108" lon="4.78718">
        <ele>341</ele>
        <time>2022-09-05T07:12:51.000Z</time>
      </trkpt>
      <trkpt lat="49.85113" lon="4.78711">
        <ele>341</ele>
        <time>2022-09-05T07:12:52.000Z</time>
      </trkpt>
      <trkpt lat="49.85118" lon="4.78703">
        <ele>341</ele>
        <time>2022-09-05T07:12:53.000Z</time>
      </trkpt>
      <trkpt lat="49.85122" lon="4.78695">
        <ele>341</ele>
        <time>2022-09-05T07:12:54.000Z</time>
      </trkpt>
      <trkpt lat="49.85128" lon="4.78687">
        <ele>341</ele>
        <time>2022-09-05T07:12:55.000Z</time>
      </trkpt>
      <trkpt lat="49.85133" lon="4.78679">
        <ele>340</ele>
        <time>2022-09-05T07:12:56.000Z</time>
      </trkpt>
      <trkpt lat="49.85138" lon="4.78672">
        <ele>340</ele>
        <time>2022-09-05T07:12:57.000Z</time>
      </trkpt>
      <trkpt lat="49.85142" lon="4.78665">
        <ele>340</ele>
        <time>2022-09-05T07:12:58.000Z</time>
      </trkpt>
      <trkpt lat="49.85146" lon="4.78659">
        <ele>340</ele>
        <time>2022-09-05T07:12:59.000Z</time>
      </trkpt>
      <trkpt lat="49.85151" lon="4.78653">
        <ele>340</ele>
        <time>2022-09-05T07:13:00.000Z</time>
      </trkpt>
      <trkpt lat="49.85156" lon="4.78648">
        <ele>339</ele>
        <time>2022-09-05T07:13:01.000Z</time>
      </trkpt>
      <trkpt lat="49.8516" lon="4.78642">
        <ele>339</ele>
        <time>2022-09-05T07:13:02.000Z</time>
      </trkpt>
      <trkpt lat="49.85165" lon="4.78637">
        <ele>339</ele>
        <time>2022-09-05T07:13:03.000Z</time>
      </trkpt>
      <trkpt lat="49.85171" lon="4.78631">
        <ele>339</ele>
        <time>2022-09-05T07:13:04.000Z</time>
      </trkpt>
      <trkpt lat="49.85176" lon="4.78625">
        <ele>338</ele>
        <time>2022-09-05T07:13:05.000Z</time>
      </trkpt>
      <trkpt lat="49.85181" lon="4.78618">
        <ele>338</ele>
        <time>2022-09-05T07:13:06.000Z</time>
      </trkpt>
      <trkpt lat="49.85186" lon="4.7861">
        <ele>338</ele>
        <time>2022-09-05T07:13:07.000Z</time>
      </trkpt>
      <trkpt lat="49.85192" lon="4.78603">
        <ele>338</ele>
        <time>2022-09-05T07:13:08.000Z</time>
      </trkpt>
      <trkpt lat="49.85198" lon="4.78596">
        <ele>338</ele>
        <time>2022-09-05T07:13:09.000Z</time>
      </trkpt>
      <trkpt lat="49.85203" lon="4.78589">
        <ele>337</ele>
        <time>2022-09-05T07:13:10.000Z</time>
      </trkpt>
      <trkpt lat="49.85208" lon="4.78582">
        <ele>337</ele>
        <time>2022-09-05T07:13:11.000Z</time>
      </trkpt>
      <trkpt lat="49.85214" lon="4.78576">
        <ele>337</ele>
        <time>2022-09-05T07:13:12.000Z</time>
      </trkpt>
      <trkpt lat="49.85219" lon="4.78569">
        <ele>337</ele>
        <time>2022-09-05T07:13:13.000Z</time>
      </trkpt>
      <trkpt lat="49.85224" lon="4.78562">
        <ele>337</ele>
        <time>2022-09-05T07:13:14.000Z</time>
      </trkpt>
      <trkpt lat="49.8523" lon="4.78555">
        <ele>337</ele>
        <time>2022-09-05T07:13:15.000Z</time>
      </trkpt>
      <trkpt lat="49.85235" lon="4.78548">
        <ele>337</ele>
        <time>2022-09-05T07:13:16.000Z</time>
      </trkpt>
      <trkpt lat="49.8524" lon="4.78541">
        <ele>337</ele>
        <time>2022-09-05T07:13:17.000Z</time>
      </trkpt>
      <trkpt lat="49.85245" lon="4.78535">
        <ele>336</ele>
        <time>2022-09-05T07:13:18.000Z</time>
      </trkpt>
      <trkpt lat="49.8525" lon="4.78529">
        <ele>336</ele>
        <time>2022-09-05T07:13:19.000Z</time>
      </trkpt>
      <trkpt lat="49.85255" lon="4.78522">
        <ele>336</ele>
        <time>2022-09-05T07:13:20.000Z</time>
      </trkpt>
      <trkpt lat="49.85259" lon="4.78515">
        <ele>336</ele>
        <time>2022-09-05T07:13:21.000Z</time>
      </trkpt>
      <trkpt lat="49.85263" lon="4.78509">
        <ele>336</ele>
        <time>2022-09-05T07:13:22.000Z</time>
      </trkpt>
      <trkpt lat="49.85267" lon="4.78504">
        <ele>335</ele>
        <time>2022-09-05T07:13:23.000Z</time>
      </trkpt>
      <trkpt lat="49.85272" lon="4.78499">
        <ele>335</ele>
        <time>2022-09-05T07:13:24.000Z</time>
      </trkpt>
      <trkpt lat="49.85276" lon="4.78492">
        <ele>335</ele>
        <time>2022-09-05T07:13:25.000Z</time>
      </trkpt>
      <trkpt lat="49.85281" lon="4.78485">
        <ele>335</ele>
        <time>2022-09-05T07:13:26.000Z</time>
      </trkpt>
      <trkpt lat="49.85285" lon="4.78477">
        <ele>335</ele>
        <time>2022-09-05T07:13:27.000Z</time>
      </trkpt>
      <trkpt lat="49.85289" lon="4.78469">
        <ele>334</ele>
        <time>2022-09-05T07:13:28.000Z</time>
      </trkpt>
      <trkpt lat="49.85293" lon="4.7846">
        <ele>334</ele>
        <time>2022-09-05T07:13:29.000Z</time>
      </trkpt>
      <trkpt lat="49.85298" lon="4.78452">
        <ele>334</ele>
        <time>2022-09-05T07:13:30.000Z</time>
      </trkpt>
      <trkpt lat="49.85304" lon="4.78443">
        <ele>334</ele>
        <time>2022-09-05T07:13:31.000Z</time>
      </trkpt>
      <trkpt lat="49.85309" lon="4.78434">
        <ele>334</ele>
        <time>2022-09-05T07:13:32.000Z</time>
      </trkpt>
      <trkpt lat="49.85315" lon="4.78423">
        <ele>333</ele>
        <time>2022-09-05T07:13:33.000Z</time>
      </trkpt>
      <trkpt lat="49.8532" lon="4.78412">
        <ele>333</ele>
        <time>2022-09-05T07:13:34.000Z</time>
      </trkpt>
      <trkpt lat="49.85325" lon="4.78402">
        <ele>333</ele>
        <time>2022-09-05T07:13:35.000Z</time>
      </trkpt>
      <trkpt lat="49.85331" lon="4.78393">
        <ele>332</ele>
        <time>2022-09-05T07:13:36.000Z</time>
      </trkpt>
      <trkpt lat="49.85336" lon="4.78385">
        <ele>332</ele>
        <time>2022-09-05T07:13:37.000Z</time>
      </trkpt>
      <trkpt lat="49.85341" lon="4.78377">
        <ele>332</ele>
        <time>2022-09-05T07:13:38.000Z</time>
      </trkpt>
      <trkpt lat="49.85345" lon="4.78369">
        <ele>331</ele>
        <time>2022-09-05T07:13:39.000Z</time>
      </trkpt>
      <trkpt lat="49.85349" lon="4.7836">
        <ele>331</ele>
        <time>2022-09-05T07:13:40.000Z</time>
      </trkpt>
      <trkpt lat="49.85353" lon="4.78351">
        <ele>330</ele>
        <time>2022-09-05T07:13:41.000Z</time>
      </trkpt>
      <trkpt lat="49.85358" lon="4.78342">
        <ele>330</ele>
        <time>2022-09-05T07:13:42.000Z</time>
      </trkpt>
      <trkpt lat="49.85364" lon="4.78334">
        <ele>329</ele>
        <time>2022-09-05T07:13:43.000Z</time>
      </trkpt>
      <trkpt lat="49.85369" lon="4.78324">
        <ele>328</ele>
        <time>2022-09-05T07:13:44.000Z</time>
      </trkpt>
      <trkpt lat="49.85375" lon="4.78316">
        <ele>328</ele>
        <time>2022-09-05T07:13:45.000Z</time>
      </trkpt>
      <trkpt lat="49.85382" lon="4.78307">
        <ele>327</ele>
        <time>2022-09-05T07:13:46.000Z</time>
      </trkpt>
      <trkpt lat="49.85388" lon="4.78298">
        <ele>326</ele>
        <time>2022-09-05T07:13:47.000Z</time>
      </trkpt>
      <trkpt lat="49.85395" lon="4.7829">
        <ele>325</ele>
        <time>2022-09-05T07:13:48.000Z</time>
      </trkpt>
      <trkpt lat="49.85403" lon="4.78281">
        <ele>324</ele>
        <time>2022-09-05T07:13:49.000Z</time>
      </trkpt>
      <trkpt lat="49.8541" lon="4.78273">
        <ele>323</ele>
        <time>2022-09-05T07:13:50.000Z</time>
      </trkpt>
      <trkpt lat="49.85418" lon="4.78265">
        <ele>322</ele>
        <time>2022-09-05T07:13:51.000Z</time>
      </trkpt>
      <trkpt lat="49.85426" lon="4.78257">
        <ele>321</ele>
        <time>2022-09-05T07:13:52.000Z</time>
      </trkpt>
      <trkpt lat="49.85433" lon="4.7825">
        <ele>320</ele>
        <time>2022-09-05T07:13:53.000Z</time>
      </trkpt>
      <trkpt lat="49.8544" lon="4.78243">
        <ele>319</ele>
        <time>2022-09-05T07:13:54.000Z</time>
      </trkpt>
      <trkpt lat="49.85446" lon="4.78236">
        <ele>318</ele>
        <time>2022-09-05T07:13:55.000Z</time>
      </trkpt>
      <trkpt lat="49.85451" lon="4.78229">
        <ele>317</ele>
        <time>2022-09-05T07:13:56.000Z</time>
      </trkpt>
      <trkpt lat="49.85457" lon="4.78221">
        <ele>317</ele>
        <time>2022-09-05T07:13:57.000Z</time>
      </trkpt>
      <trkpt lat="49.85463" lon="4.78214">
        <ele>316</ele>
        <time>2022-09-05T07:13:58.000Z</time>
      </trkpt>
      <trkpt lat="49.85468" lon="4.78207">
        <ele>315</ele>
        <time>2022-09-05T07:13:59.000Z</time>
      </trkpt>
      <trkpt lat="49.85472" lon="4.78199">
        <ele>315</ele>
        <time>2022-09-05T07:14:00.000Z</time>
      </trkpt>
      <trkpt lat="49.85476" lon="4.78191">
        <ele>314</ele>
        <time>2022-09-05T07:14:01.000Z</time>
      </trkpt>
      <trkpt lat="49.85479" lon="4.78181">
        <ele>314</ele>
        <time>2022-09-05T07:14:02.000Z</time>
      </trkpt>
      <trkpt lat="49.85482" lon="4.78171">
        <ele>313</ele>
        <time>2022-09-05T07:14:03.000Z</time>
      </trkpt>
      <trkpt lat="49.85486" lon="4.78161">
        <ele>313</ele>
        <time>2022-09-05T07:14:04.000Z</time>
      </trkpt>
      <trkpt lat="49.85491" lon="4.78151">
        <ele>313</ele>
        <time>2022-09-05T07:14:05.000Z</time>
      </trkpt>
      <trkpt lat="49.85496" lon="4.78142">
        <ele>312</ele>
        <time>2022-09-05T07:14:06.000Z</time>
      </trkpt>
      <trkpt lat="49.85501" lon="4.78132">
        <ele>312</ele>
        <time>2022-09-05T07:14:07.000Z</time>
      </trkpt>
      <trkpt lat="49.85505" lon="4.78122">
        <ele>312</ele>
        <time>2022-09-05T07:14:08.000Z</time>
      </trkpt>
      <trkpt lat="49.85509" lon="4.78113">
        <ele>312</ele>
        <time>2022-09-05T07:14:09.000Z</time>
      </trkpt>
      <trkpt lat="49.85512" lon="4.78104">
        <ele>311</ele>
        <time>2022-09-05T07:14:10.000Z</time>
      </trkpt>
      <trkpt lat="49.85516" lon="4.78096">
        <ele>311</ele>
        <time>2022-09-05T07:14:11.000Z</time>
      </trkpt>
      <trkpt lat="49.8552" lon="4.78087">
        <ele>311</ele>
        <time>2022-09-05T07:14:12.000Z</time>
      </trkpt>
      <trkpt lat="49.85524" lon="4.78079">
        <ele>311</ele>
        <time>2022-09-05T07:14:13.000Z</time>
      </trkpt>
      <trkpt lat="49.85528" lon="4.78071">
        <ele>311</ele>
        <time>2022-09-05T07:14:14.000Z</time>
      </trkpt>
      <trkpt lat="49.85531" lon="4.78062">
        <ele>311</ele>
        <time>2022-09-05T07:14:15.000Z</time>
      </trkpt>
      <trkpt lat="49.85534" lon="4.78053">
        <ele>311</ele>
        <time>2022-09-05T07:14:16.000Z</time>
      </trkpt>
      <trkpt lat="49.85535" lon="4.78043">
        <ele>311</ele>
        <time>2022-09-05T07:14:17.000Z</time>
      </trkpt>
      <trkpt lat="49.85537" lon="4.78034">
        <ele>311</ele>
        <time>2022-09-05T07:14:18.000Z</time>
      </trkpt>
      <trkpt lat="49.85539" lon="4.78025">
        <ele>311</ele>
        <time>2022-09-05T07:14:19.000Z</time>
      </trkpt>
      <trkpt lat="49.8554" lon="4.78016">
        <ele>311</ele>
        <time>2022-09-05T07:14:20.000Z</time>
      </trkpt>
      <trkpt lat="49.85542" lon="4.78007">
        <ele>312</ele>
        <time>2022-09-05T07:14:21.000Z</time>
      </trkpt>
      <trkpt lat="49.85545" lon="4.77999">
        <ele>312</ele>
        <time>2022-09-05T07:14:22.000Z</time>
      </trkpt>
      <trkpt lat="49.85548" lon="4.77992">
        <ele>311</ele>
        <time>2022-09-05T07:14:23.000Z</time>
      </trkpt>
      <trkpt lat="49.85552" lon="4.77984">
        <ele>311</ele>
        <time>2022-09-05T07:14:24.000Z</time>
      </trkpt>
      <trkpt lat="49.85555" lon="4.77977">
        <ele>311</ele>
        <time>2022-09-05T07:14:25.000Z</time>
      </trkpt>
      <trkpt lat="49.85558" lon="4.77968">
        <ele>311</ele>
        <time>2022-09-05T07:14:26.000Z</time>
      </trkpt>
      <trkpt lat="49.85561" lon="4.7796">
        <ele>311</ele>
        <time>2022-09-05T07:14:27.000Z</time>
      </trkpt>
      <trkpt lat="49.85564" lon="4.77951">
        <ele>311</ele>
        <time>2022-09-05T07:14:28.000Z</time>
      </trkpt>
      <trkpt lat="49.85567" lon="4.77941">
        <ele>311</ele>
        <time>2022-09-05T07:14:29.000Z</time>
      </trkpt>
      <trkpt lat="49.8557" lon="4.77932">
        <ele>311</ele>
        <time>2022-09-05T07:14:30.000Z</time>
      </trkpt>
      <trkpt lat="49.85571" lon="4.77922">
        <ele>311</ele>
        <time>2022-09-05T07:14:31.000Z</time>
      </trkpt>
      <trkpt lat="49.85572" lon="4.77913">
        <ele>311</ele>
        <time>2022-09-05T07:14:32.000Z</time>
      </trkpt>
      <trkpt lat="49.85574" lon="4.77905">
        <ele>311</ele>
        <time>2022-09-05T07:14:33.000Z</time>
      </trkpt>
      <trkpt lat="49.85576" lon="4.77897">
        <ele>310</ele>
        <time>2022-09-05T07:14:34.000Z</time>
      </trkpt>
      <trkpt lat="49.85579" lon="4.7789">
        <ele>310</ele>
        <time>2022-09-05T07:14:35.000Z</time>
      </trkpt>
      <trkpt lat="49.85581" lon="4.77883">
        <ele>310</ele>
        <time>2022-09-05T07:14:36.000Z</time>
      </trkpt>
      <trkpt lat="49.85584" lon="4.77876">
        <ele>310</ele>
        <time>2022-09-05T07:14:37.000Z</time>
      </trkpt>
      <trkpt lat="49.85588" lon="4.77869">
        <ele>310</ele>
        <time>2022-09-05T07:14:38.000Z</time>
      </trkpt>
      <trkpt lat="49.85592" lon="4.77862">
        <ele>310</ele>
        <time>2022-09-05T07:14:39.000Z</time>
      </trkpt>
      <trkpt lat="49.85597" lon="4.77856">
        <ele>309</ele>
        <time>2022-09-05T07:14:40.000Z</time>
      </trkpt>
      <trkpt lat="49.85601" lon="4.77852">
        <ele>309</ele>
        <time>2022-09-05T07:14:41.000Z</time>
      </trkpt>
      <trkpt lat="49.85605" lon="4.77847">
        <ele>309</ele>
        <time>2022-09-05T07:14:42.000Z</time>
      </trkpt>
      <trkpt lat="49.85609" lon="4.77842">
        <ele>309</ele>
        <time>2022-09-05T07:14:43.000Z</time>
      </trkpt>
      <trkpt lat="49.85613" lon="4.77837">
        <ele>309</ele>
        <time>2022-09-05T07:14:44.000Z</time>
      </trkpt>
      <trkpt lat="49.85617" lon="4.77833">
        <ele>309</ele>
        <time>2022-09-05T07:14:45.000Z</time>
      </trkpt>
      <trkpt lat="49.85621" lon="4.77829">
        <ele>309</ele>
        <time>2022-09-05T07:14:46.000Z</time>
      </trkpt>
      <trkpt lat="49.85624" lon="4.77826">
        <ele>309</ele>
        <time>2022-09-05T07:14:47.000Z</time>
      </trkpt>
      <trkpt lat="49.85627" lon="4.77823">
        <ele>309</ele>
        <time>2022-09-05T07:14:48.000Z</time>
      </trkpt>
      <trkpt lat="49.85631" lon="4.7782">
        <ele>309</ele>
        <time>2022-09-05T07:14:49.000Z</time>
      </trkpt>
      <trkpt lat="49.85634" lon="4.77817">
        <ele>309</ele>
        <time>2022-09-05T07:14:50.000Z</time>
      </trkpt>
      <trkpt lat="49.85637" lon="4.77814">
        <ele>309</ele>
        <time>2022-09-05T07:14:51.000Z</time>
      </trkpt>
      <trkpt lat="49.85639" lon="4.77811">
        <ele>309</ele>
        <time>2022-09-05T07:14:52.000Z</time>
      </trkpt>
      <trkpt lat="49.85643" lon="4.77807">
        <ele>308</ele>
        <time>2022-09-05T07:14:53.000Z</time>
      </trkpt>
      <trkpt lat="49.85647" lon="4.77804">
        <ele>308</ele>
        <time>2022-09-05T07:14:54.000Z</time>
      </trkpt>
      <trkpt lat="49.8565" lon="4.77802">
        <ele>308</ele>
        <time>2022-09-05T07:14:55.000Z</time>
      </trkpt>
      <trkpt lat="49.85653" lon="4.778">
        <ele>308</ele>
        <time>2022-09-05T07:14:56.000Z</time>
      </trkpt>
      <trkpt lat="49.85656" lon="4.778">
        <ele>308</ele>
        <time>2022-09-05T07:14:57.000Z</time>
      </trkpt>
      <trkpt lat="49.85659" lon="4.778">
        <ele>308</ele>
        <time>2022-09-05T07:14:58.000Z</time>
      </trkpt>
      <trkpt lat="49.85662" lon="4.77799">
        <ele>308</ele>
        <time>2022-09-05T07:14:59.000Z</time>
      </trkpt>
      <trkpt lat="49.85665" lon="4.77798">
        <ele>308</ele>
        <time>2022-09-05T07:15:00.000Z</time>
      </trkpt>
      <trkpt lat="49.85667" lon="4.77795">
        <ele>308</ele>
        <time>2022-09-05T07:15:01.000Z</time>
      </trkpt>
      <trkpt lat="49.8567" lon="4.77792">
        <ele>308</ele>
        <time>2022-09-05T07:15:02.000Z</time>
      </trkpt>
      <trkpt lat="49.85671" lon="4.77791">
        <ele>308</ele>
        <time>2022-09-05T07:15:03.000Z</time>
      </trkpt>
      <trkpt lat="49.85672" lon="4.77792">
        <ele>308</ele>
        <time>2022-09-05T07:15:04.000Z</time>
      </trkpt>
      <trkpt lat="49.85671" lon="4.77794">
        <ele>309</ele>
        <time>2022-09-05T07:15:05.000Z</time>
      </trkpt>
      <trkpt lat="49.8567" lon="4.77793">
        <ele>309</ele>
        <time>2022-09-05T07:15:06.000Z</time>
      </trkpt>
      <trkpt lat="49.85669" lon="4.77792">
        <ele>309</ele>
        <time>2022-09-05T07:15:07.000Z</time>
      </trkpt>
      <trkpt lat="49.85668" lon="4.77793">
        <ele>309</ele>
        <time>2022-09-05T07:15:08.000Z</time>
      </trkpt>
      <trkpt lat="49.85668" lon="4.77795">
        <ele>309</ele>
        <time>2022-09-05T07:15:09.000Z</time>
      </trkpt>
      <trkpt lat="49.85669" lon="4.77797">
        <ele>309</ele>
        <time>2022-09-05T07:15:10.000Z</time>
      </trkpt>
      <trkpt lat="49.8567" lon="4.77799">
        <ele>309</ele>
        <time>2022-09-05T07:15:11.000Z</time>
      </trkpt>
      <trkpt lat="49.85671" lon="4.77801">
        <ele>309</ele>
        <time>2022-09-05T07:15:12.000Z</time>
      </trkpt>
      <trkpt lat="49.85672" lon="4.77804">
        <ele>309</ele>
        <time>2022-09-05T07:15:13.000Z</time>
      </trkpt>
      <trkpt lat="49.85673" lon="4.77804">
        <ele>309</ele>
        <time>2022-09-05T07:15:14.000Z</time>
      </trkpt>
      <trkpt lat="49.85674" lon="4.77804">
        <ele>309</ele>
        <time>2022-09-05T07:15:15.000Z</time>
      </trkpt>
      <trkpt lat="49.85675" lon="4.77804">
        <ele>309</ele>
        <time>2022-09-05T07:15:16.000Z</time>
      </trkpt>
      <trkpt lat="49.85677" lon="4.77804">
        <ele>309</ele>
        <time>2022-09-05T07:15:17.000Z</time>
      </trkpt>
      <trkpt lat="49.85679" lon="4.77804">
        <ele>308</ele>
        <time>2022-09-05T07:15:18.000Z</time>
      </trkpt>
      <trkpt lat="49.85682" lon="4.77804">
        <ele>308</ele>
        <time>2022-09-05T07:15:19.000Z</time>
      </trkpt>
      <trkpt lat="49.85685" lon="4.77803">
        <ele>308</ele>
        <time>2022-09-05T07:15:20.000Z</time>
      </trkpt>
      <trkpt lat="49.85688" lon="4.77802">
        <ele>308</ele>
        <time>2022-09-05T07:15:21.000Z</time>
      </trkpt>
      <trkpt lat="49.85691" lon="4.77802">
        <ele>308</ele>
        <time>2022-09-05T07:15:22.000Z</time>
      </trkpt>
      <trkpt lat="49.85694" lon="4.77801">
        <ele>308</ele>
        <time>2022-09-05T07:15:23.000Z</time>
      </trkpt>
      <trkpt lat="49.85697" lon="4.77799">
        <ele>308</ele>
        <time>2022-09-05T07:15:24.000Z</time>
      </trkpt>
      <trkpt lat="49.857" lon="4.77796">
        <ele>307</ele>
        <time>2022-09-05T07:15:25.000Z</time>
      </trkpt>
      <trkpt lat="49.85704" lon="4.77792">
        <ele>307</ele>
        <time>2022-09-05T07:15:26.000Z</time>
      </trkpt>
      <trkpt lat="49.85709" lon="4.77789">
        <ele>307</ele>
        <time>2022-09-05T07:15:27.000Z</time>
      </trkpt>
      <trkpt lat="49.85714" lon="4.77787">
        <ele>307</ele>
        <time>2022-09-05T07:15:28.000Z</time>
      </trkpt>
      <trkpt lat="49.85719" lon="4.77785">
        <ele>307</ele>
        <time>2022-09-05T07:15:29.000Z</time>
      </trkpt>
      <trkpt lat="49.85724" lon="4.77783">
        <ele>307</ele>
        <time>2022-09-05T07:15:30.000Z</time>
      </trkpt>
      <trkpt lat="49.8573" lon="4.77781">
        <ele>307</ele>
        <time>2022-09-05T07:15:31.000Z</time>
      </trkpt>
      <trkpt lat="49.85735" lon="4.77778">
        <ele>307</ele>
        <time>2022-09-05T07:15:32.000Z</time>
      </trkpt>
      <trkpt lat="49.85739" lon="4.77775">
        <ele>306</ele>
        <time>2022-09-05T07:15:33.000Z</time>
      </trkpt>
      <trkpt lat="49.85743" lon="4.77772">
        <ele>306</ele>
        <time>2022-09-05T07:15:34.000Z</time>
      </trkpt>
      <trkpt lat="49.85746" lon="4.77769">
        <ele>306</ele>
        <time>2022-09-05T07:15:35.000Z</time>
      </trkpt>
      <trkpt lat="49.85749" lon="4.77765">
        <ele>306</ele>
        <time>2022-09-05T07:15:36.000Z</time>
      </trkpt>
      <trkpt lat="49.85751" lon="4.77762">
        <ele>306</ele>
        <time>2022-09-05T07:15:37.000Z</time>
      </trkpt>
      <trkpt lat="49.85754" lon="4.77759">
        <ele>306</ele>
        <time>2022-09-05T07:15:38.000Z</time>
      </trkpt>
      <trkpt lat="49.85757" lon="4.77755">
        <ele>306</ele>
        <time>2022-09-05T07:15:39.000Z</time>
      </trkpt>
      <trkpt lat="49.8576" lon="4.77752">
        <ele>305</ele>
        <time>2022-09-05T07:15:40.000Z</time>
      </trkpt>
      <trkpt lat="49.85762" lon="4.77748">
        <ele>305</ele>
        <time>2022-09-05T07:15:41.000Z</time>
      </trkpt>
      <trkpt lat="49.85764" lon="4.77744">
        <ele>305</ele>
        <time>2022-09-05T07:15:42.000Z</time>
      </trkpt>
      <trkpt lat="49.85767" lon="4.7774">
        <ele>305</ele>
        <time>2022-09-05T07:15:43.000Z</time>
      </trkpt>
      <trkpt lat="49.85769" lon="4.77736">
        <ele>305</ele>
        <time>2022-09-05T07:15:44.000Z</time>
      </trkpt>
      <trkpt lat="49.85771" lon="4.77731">
        <ele>305</ele>
        <time>2022-09-05T07:15:45.000Z</time>
      </trkpt>
      <trkpt lat="49.85771" lon="4.77726">
        <ele>305</ele>
        <time>2022-09-05T07:15:46.000Z</time>
      </trkpt>
      <trkpt lat="49.8577" lon="4.77721">
        <ele>304</ele>
        <time>2022-09-05T07:15:47.000Z</time>
      </trkpt>
      <trkpt lat="49.85769" lon="4.77717">
        <ele>304</ele>
        <time>2022-09-05T07:15:48.000Z</time>
      </trkpt>
      <trkpt lat="49.85768" lon="4.77715">
        <ele>304</ele>
        <time>2022-09-05T07:15:49.000Z</time>
      </trkpt>
      <trkpt lat="49.85768" lon="4.77712">
        <ele>303</ele>
        <time>2022-09-05T07:15:50.000Z</time>
      </trkpt>
      <trkpt lat="49.85767" lon="4.77709">
        <ele>303</ele>
        <time>2022-09-05T07:15:51.000Z</time>
      </trkpt>
      <trkpt lat="49.85767" lon="4.77704">
        <ele>303</ele>
        <time>2022-09-05T07:15:52.000Z</time>
      </trkpt>
      <trkpt lat="49.85768" lon="4.777">
        <ele>302</ele>
        <time>2022-09-05T07:15:53.000Z</time>
      </trkpt>
      <trkpt lat="49.85768" lon="4.77694">
        <ele>302</ele>
        <time>2022-09-05T07:15:54.000Z</time>
      </trkpt>
      <trkpt lat="49.85768" lon="4.77686">
        <ele>302</ele>
        <time>2022-09-05T07:15:55.000Z</time>
      </trkpt>
      <trkpt lat="49.85768" lon="4.77678">
        <ele>301</ele>
        <time>2022-09-05T07:15:56.000Z</time>
      </trkpt>
      <trkpt lat="49.85768" lon="4.77669">
        <ele>301</ele>
        <time>2022-09-05T07:15:57.000Z</time>
      </trkpt>
      <trkpt lat="49.85769" lon="4.77659">
        <ele>301</ele>
        <time>2022-09-05T07:15:58.000Z</time>
      </trkpt>
      <trkpt lat="49.85771" lon="4.7765">
        <ele>300</ele>
        <time>2022-09-05T07:15:59.000Z</time>
      </trkpt>
      <trkpt lat="49.85774" lon="4.77641">
        <ele>300</ele>
        <time>2022-09-05T07:16:00.000Z</time>
      </trkpt>
      <trkpt lat="49.85777" lon="4.77633">
        <ele>299</ele>
        <time>2022-09-05T07:16:01.000Z</time>
      </trkpt>
      <trkpt lat="49.85778" lon="4.77623">
        <ele>299</ele>
        <time>2022-09-05T07:16:02.000Z</time>
      </trkpt>
      <trkpt lat="49.85779" lon="4.77614">
        <ele>299</ele>
        <time>2022-09-05T07:16:03.000Z</time>
      </trkpt>
      <trkpt lat="49.85779" lon="4.77606">
        <ele>298</ele>
        <time>2022-09-05T07:16:04.000Z</time>
      </trkpt>
      <trkpt lat="49.85778" lon="4.77598">
        <ele>298</ele>
        <time>2022-09-05T07:16:05.000Z</time>
      </trkpt>
      <trkpt lat="49.85777" lon="4.77591">
        <ele>298</ele>
        <time>2022-09-05T07:16:06.000Z</time>
      </trkpt>
      <trkpt lat="49.85775" lon="4.77584">
        <ele>297</ele>
        <time>2022-09-05T07:16:07.000Z</time>
      </trkpt>
      <trkpt lat="49.85773" lon="4.77577">
        <ele>297</ele>
        <time>2022-09-05T07:16:08.000Z</time>
      </trkpt>
      <trkpt lat="49.85772" lon="4.77572">
        <ele>296</ele>
        <time>2022-09-05T07:16:09.000Z</time>
      </trkpt>
      <trkpt lat="49.8577" lon="4.77567">
        <ele>296</ele>
        <time>2022-09-05T07:16:10.000Z</time>
      </trkpt>
      <trkpt lat="49.8577" lon="4.77564">
        <ele>296</ele>
        <time>2022-09-05T07:16:11.000Z</time>
      </trkpt>
      <trkpt lat="49.85769" lon="4.77561">
        <ele>295</ele>
        <time>2022-09-05T07:16:12.000Z</time>
      </trkpt>
      <trkpt lat="49.85769" lon="4.77557">
        <ele>295</ele>
        <time>2022-09-05T07:16:13.000Z</time>
      </trkpt>
      <trkpt lat="49.85768" lon="4.77554">
        <ele>295</ele>
        <time>2022-09-05T07:16:14.000Z</time>
      </trkpt>
      <trkpt lat="49.85768" lon="4.77552">
        <ele>294</ele>
        <time>2022-09-05T07:16:15.000Z</time>
      </trkpt>
      <trkpt lat="49.85768" lon="4.77551">
        <ele>294</ele>
        <time>2022-09-05T07:16:16.000Z</time>
      </trkpt>
      <trkpt lat="49.85769" lon="4.77551">
        <ele>293</ele>
        <time>2022-09-05T07:16:17.000Z</time>
      </trkpt>
      <trkpt lat="49.85769" lon="4.77551">
        <ele>293</ele>
        <time>2022-09-05T07:16:18.000Z</time>
      </trkpt>
      <trkpt lat="49.85769" lon="4.7755">
        <ele>292</ele>
        <time>2022-09-05T07:16:19.000Z</time>
      </trkpt>
      <trkpt lat="49.8577" lon="4.77549">
        <ele>292</ele>
        <time>2022-09-05T07:16:20.000Z</time>
      </trkpt>
      <trkpt lat="49.8577" lon="4.77548">
        <ele>292</ele>
        <time>2022-09-05T07:16:21.000Z</time>
      </trkpt>
      <trkpt lat="49.85771" lon="4.77546">
        <ele>291</ele>
        <time>2022-09-05T07:16:22.000Z</time>
      </trkpt>
      <trkpt lat="49.85771" lon="4.77546">
        <ele>291</ele>
        <time>2022-09-05T07:16:23.000Z</time>
      </trkpt>
      <trkpt lat="49.85771" lon="4.77546">
        <ele>291</ele>
        <time>2022-09-05T07:16:24.000Z</time>
      </trkpt>
      <trkpt lat="49.85771" lon="4.77545">
        <ele>290</ele>
        <time>2022-09-05T07:16:25.000Z</time>
      </trkpt>
      <trkpt lat="49.85771" lon="4.77545">
        <ele>290</ele>
        <time>2022-09-05T07:16:26.000Z</time>
      </trkpt>
      <trkpt lat="49.85771" lon="4.77545">
        <ele>290</ele>
        <time>2022-09-05T07:16:27.000Z</time>
      </trkpt>
      <trkpt lat="49.85771" lon="4.77545">
        <ele>290</ele>
        <time>2022-09-05T07:16:28.000Z</time>
      </trkpt>
      <trkpt lat="49.85771" lon="4.77544">
        <ele>290</ele>
        <time>2022-09-05T07:16:29.000Z</time>
      </trkpt>
      <trkpt lat="49.8577" lon="4.77542">
        <ele>289</ele>
        <time>2022-09-05T07:16:30.000Z</time>
      </trkpt>
      <trkpt lat="49.85769" lon="4.7754">
        <ele>289</ele>
        <time>2022-09-05T07:16:31.000Z</time>
      </trkpt>
      <trkpt lat="49.85767" lon="4.77537">
        <ele>289</ele>
        <time>2022-09-05T07:16:32.000Z</time>
      </trkpt>
      <trkpt lat="49.85766" lon="4.77534">
        <ele>288</ele>
        <time>2022-09-05T07:16:33.000Z</time>
      </trkpt>
      <trkpt lat="49.85764" lon="4.77531">
        <ele>288</ele>
        <time>2022-09-05T07:16:34.000Z</time>
      </trkpt>
      <trkpt lat="49.85763" lon="4.77527">
        <ele>288</ele>
        <time>2022-09-05T07:16:35.000Z</time>
      </trkpt>
      <trkpt lat="49.85762" lon="4.77523">
        <ele>287</ele>
        <time>2022-09-05T07:16:36.000Z</time>
      </trkpt>
      <trkpt lat="49.85761" lon="4.77519">
        <ele>287</ele>
        <time>2022-09-05T07:16:37.000Z</time>
      </trkpt>
      <trkpt lat="49.8576" lon="4.77516">
        <ele>286</ele>
        <time>2022-09-05T07:16:38.000Z</time>
      </trkpt>
      <trkpt lat="49.85759" lon="4.77513">
        <ele>286</ele>
        <time>2022-09-05T07:16:39.000Z</time>
      </trkpt>
      <trkpt lat="49.85759" lon="4.77509">
        <ele>285</ele>
        <time>2022-09-05T07:16:40.000Z</time>
      </trkpt>
      <trkpt lat="49.85758" lon="4.77505">
        <ele>285</ele>
        <time>2022-09-05T07:16:41.000Z</time>
      </trkpt>
      <trkpt lat="49.85757" lon="4.77502">
        <ele>285</ele>
        <time>2022-09-05T07:16:42.000Z</time>
      </trkpt>
      <trkpt lat="49.85757" lon="4.77498">
        <ele>284</ele>
        <time>2022-09-05T07:16:43.000Z</time>
      </trkpt>
      <trkpt lat="49.85756" lon="4.77494">
        <ele>284</ele>
        <time>2022-09-05T07:16:44.000Z</time>
      </trkpt>
      <trkpt lat="49.85755" lon="4.7749">
        <ele>284</ele>
        <time>2022-09-05T07:16:45.000Z</time>
      </trkpt>
      <trkpt lat="49.85753" lon="4.77486">
        <ele>283</ele>
        <time>2022-09-05T07:16:46.000Z</time>
      </trkpt>
      <trkpt lat="49.85752" lon="4.77482">
        <ele>283</ele>
        <time>2022-09-05T07:16:47.000Z</time>
      </trkpt>
      <trkpt lat="49.85751" lon="4.77479">
        <ele>283</ele>
        <time>2022-09-05T07:16:48.000Z</time>
      </trkpt>
      <trkpt lat="49.85749" lon="4.77475">
        <ele>283</ele>
        <time>2022-09-05T07:16:49.000Z</time>
      </trkpt>
      <trkpt lat="49.85747" lon="4.77471">
        <ele>283</ele>
        <time>2022-09-05T07:16:50.000Z</time>
      </trkpt>
      <trkpt lat="49.85745" lon="4.77465">
        <ele>282</ele>
        <time>2022-09-05T07:16:51.000Z</time>
      </trkpt>
      <trkpt lat="49.85744" lon="4.7746">
        <ele>282</ele>
        <time>2022-09-05T07:16:52.000Z</time>
      </trkpt>
      <trkpt lat="49.85743" lon="4.77454">
        <ele>282</ele>
        <time>2022-09-05T07:16:53.000Z</time>
      </trkpt>
      <trkpt lat="49.85742" lon="4.77447">
        <ele>281</ele>
        <time>2022-09-05T07:16:54.000Z</time>
      </trkpt>
      <trkpt lat="49.85741" lon="4.7744">
        <ele>281</ele>
        <time>2022-09-05T07:16:55.000Z</time>
      </trkpt>
      <trkpt lat="49.8574" lon="4.77432">
        <ele>281</ele>
        <time>2022-09-05T07:16:56.000Z</time>
      </trkpt>
      <trkpt lat="49.8574" lon="4.77425">
        <ele>280</ele>
        <time>2022-09-05T07:16:57.000Z</time>
      </trkpt>
      <trkpt lat="49.85739" lon="4.77419">
        <ele>280</ele>
        <time>2022-09-05T07:16:58.000Z</time>
      </trkpt>
      <trkpt lat="49.85739" lon="4.77413">
        <ele>280</ele>
        <time>2022-09-05T07:16:59.000Z</time>
      </trkpt>
      <trkpt lat="49.85738" lon="4.77408">
        <ele>279</ele>
        <time>2022-09-05T07:17:00.000Z</time>
      </trkpt>
      <trkpt lat="49.85738" lon="4.77403">
        <ele>279</ele>
        <time>2022-09-05T07:17:01.000Z</time>
      </trkpt>
      <trkpt lat="49.85738" lon="4.77398">
        <ele>278</ele>
        <time>2022-09-05T07:17:02.000Z</time>
      </trkpt>
      <trkpt lat="49.85737" lon="4.77391">
        <ele>278</ele>
        <time>2022-09-05T07:17:03.000Z</time>
      </trkpt>
      <trkpt lat="49.85738" lon="4.77384">
        <ele>278</ele>
        <time>2022-09-05T07:17:04.000Z</time>
      </trkpt>
      <trkpt lat="49.85738" lon="4.77376">
        <ele>277</ele>
        <time>2022-09-05T07:17:05.000Z</time>
      </trkpt>
      <trkpt lat="49.85738" lon="4.77369">
        <ele>277</ele>
        <time>2022-09-05T07:17:06.000Z</time>
      </trkpt>
      <trkpt lat="49.85737" lon="4.77361">
        <ele>276</ele>
        <time>2022-09-05T07:17:07.000Z</time>
      </trkpt>
      <trkpt lat="49.85736" lon="4.77353">
        <ele>276</ele>
        <time>2022-09-05T07:17:08.000Z</time>
      </trkpt>
      <trkpt lat="49.85734" lon="4.77345">
        <ele>276</ele>
        <time>2022-09-05T07:17:09.000Z</time>
      </trkpt>
      <trkpt lat="49.85732" lon="4.77337">
        <ele>275</ele>
        <time>2022-09-05T07:17:10.000Z</time>
      </trkpt>
      <trkpt lat="49.85731" lon="4.77329">
        <ele>275</ele>
        <time>2022-09-05T07:17:11.000Z</time>
      </trkpt>
      <trkpt lat="49.85729" lon="4.77322">
        <ele>275</ele>
        <time>2022-09-05T07:17:12.000Z</time>
      </trkpt>
      <trkpt lat="49.85727" lon="4.77314">
        <ele>274</ele>
        <time>2022-09-05T07:17:13.000Z</time>
      </trkpt>
      <trkpt lat="49.85726" lon="4.77306">
        <ele>274</ele>
        <time>2022-09-05T07:17:14.000Z</time>
      </trkpt>
      <trkpt lat="49.85724" lon="4.77299">
        <ele>273</ele>
        <time>2022-09-05T07:17:15.000Z</time>
      </trkpt>
      <trkpt lat="49.85723" lon="4.77292">
        <ele>272</ele>
        <time>2022-09-05T07:17:16.000Z</time>
      </trkpt>
      <trkpt lat="49.85722" lon="4.77285">
        <ele>272</ele>
        <time>2022-09-05T07:17:17.000Z</time>
      </trkpt>
      <trkpt lat="49.8572" lon="4.77278">
        <ele>271</ele>
        <time>2022-09-05T07:17:18.000Z</time>
      </trkpt>
      <trkpt lat="49.85719" lon="4.77272">
        <ele>271</ele>
        <time>2022-09-05T07:17:19.000Z</time>
      </trkpt>
      <trkpt lat="49.85717" lon="4.77266">
        <ele>270</ele>
        <time>2022-09-05T07:17:20.000Z</time>
      </trkpt>
      <trkpt lat="49.85716" lon="4.7726">
        <ele>270</ele>
        <time>2022-09-05T07:17:21.000Z</time>
      </trkpt>
      <trkpt lat="49.85714" lon="4.77254">
        <ele>269</ele>
        <time>2022-09-05T07:17:22.000Z</time>
      </trkpt>
      <trkpt lat="49.85713" lon="4.77247">
        <ele>268</ele>
        <time>2022-09-05T07:17:23.000Z</time>
      </trkpt>
      <trkpt lat="49.85712" lon="4.77239">
        <ele>268</ele>
        <time>2022-09-05T07:17:24.000Z</time>
      </trkpt>
      <trkpt lat="49.85712" lon="4.77232">
        <ele>267</ele>
        <time>2022-09-05T07:17:25.000Z</time>
      </trkpt>
      <trkpt lat="49.85712" lon="4.77225">
        <ele>266</ele>
        <time>2022-09-05T07:17:26.000Z</time>
      </trkpt>
      <trkpt lat="49.85713" lon="4.77221">
        <ele>266</ele>
        <time>2022-09-05T07:17:27.000Z</time>
      </trkpt>
      <trkpt lat="49.85714" lon="4.77216">
        <ele>265</ele>
        <time>2022-09-05T07:17:28.000Z</time>
      </trkpt>
      <trkpt lat="49.85716" lon="4.77211">
        <ele>265</ele>
        <time>2022-09-05T07:17:29.000Z</time>
      </trkpt>
      <trkpt lat="49.85717" lon="4.77207">
        <ele>264</ele>
        <time>2022-09-05T07:17:30.000Z</time>
      </trkpt>
      <trkpt lat="49.85718" lon="4.77203">
        <ele>263</ele>
        <time>2022-09-05T07:17:31.000Z</time>
      </trkpt>
      <trkpt lat="49.85718" lon="4.77198">
        <ele>263</ele>
        <time>2022-09-05T07:17:32.000Z</time>
      </trkpt>
      <trkpt lat="49.85718" lon="4.77195">
        <ele>262</ele>
        <time>2022-09-05T07:17:33.000Z</time>
      </trkpt>
      <trkpt lat="49.85717" lon="4.77192">
        <ele>261</ele>
        <time>2022-09-05T07:17:34.000Z</time>
      </trkpt>
      <trkpt lat="49.85716" lon="4.77188">
        <ele>261</ele>
        <time>2022-09-05T07:17:35.000Z</time>
      </trkpt>
      <trkpt lat="49.85714" lon="4.77182">
        <ele>260</ele>
        <time>2022-09-05T07:17:36.000Z</time>
      </trkpt>
      <trkpt lat="49.85711" lon="4.77175">
        <ele>260</ele>
        <time>2022-09-05T07:17:37.000Z</time>
      </trkpt>
      <trkpt lat="49.85708" lon="4.77166">
        <ele>259</ele>
        <time>2022-09-05T07:17:38.000Z</time>
      </trkpt>
      <trkpt lat="49.85705" lon="4.77156">
        <ele>258</ele>
        <time>2022-09-05T07:17:39.000Z</time>
      </trkpt>
      <trkpt lat="49.85702" lon="4.77147">
        <ele>257</ele>
        <time>2022-09-05T07:17:40.000Z</time>
      </trkpt>
      <trkpt lat="49.857" lon="4.77138">
        <ele>256</ele>
        <time>2022-09-05T07:17:41.000Z</time>
      </trkpt>
      <trkpt lat="49.85698" lon="4.77128">
        <ele>256</ele>
        <time>2022-09-05T07:17:42.000Z</time>
      </trkpt>
      <trkpt lat="49.85696" lon="4.77119">
        <ele>255</ele>
        <time>2022-09-05T07:17:43.000Z</time>
      </trkpt>
      <trkpt lat="49.85693" lon="4.77109">
        <ele>254</ele>
        <time>2022-09-05T07:17:44.000Z</time>
      </trkpt>
      <trkpt lat="49.8569" lon="4.77099">
        <ele>253</ele>
        <time>2022-09-05T07:17:45.000Z</time>
      </trkpt>
      <trkpt lat="49.85687" lon="4.7709">
        <ele>252</ele>
        <time>2022-09-05T07:17:46.000Z</time>
      </trkpt>
      <trkpt lat="49.85683" lon="4.77082">
        <ele>251</ele>
        <time>2022-09-05T07:17:47.000Z</time>
      </trkpt>
      <trkpt lat="49.8568" lon="4.77073">
        <ele>251</ele>
        <time>2022-09-05T07:17:48.000Z</time>
      </trkpt>
      <trkpt lat="49.85677" lon="4.77065">
        <ele>250</ele>
        <time>2022-09-05T07:17:49.000Z</time>
      </trkpt>
      <trkpt lat="49.85673" lon="4.77056">
        <ele>249</ele>
        <time>2022-09-05T07:17:50.000Z</time>
      </trkpt>
      <trkpt lat="49.85669" lon="4.77047">
        <ele>248</ele>
        <time>2022-09-05T07:17:51.000Z</time>
      </trkpt>
      <trkpt lat="49.85665" lon="4.77038">
        <ele>247</ele>
        <time>2022-09-05T07:17:52.000Z</time>
      </trkpt>
      <trkpt lat="49.85661" lon="4.77029">
        <ele>246</ele>
        <time>2022-09-05T07:17:53.000Z</time>
      </trkpt>
      <trkpt lat="49.85656" lon="4.7702">
        <ele>245</ele>
        <time>2022-09-05T07:17:54.000Z</time>
      </trkpt>
      <trkpt lat="49.85652" lon="4.77011">
        <ele>244</ele>
        <time>2022-09-05T07:17:55.000Z</time>
      </trkpt>
      <trkpt lat="49.85647" lon="4.77001">
        <ele>243</ele>
        <time>2022-09-05T07:17:56.000Z</time>
      </trkpt>
      <trkpt lat="49.85642" lon="4.76991">
        <ele>242</ele>
        <time>2022-09-05T07:17:57.000Z</time>
      </trkpt>
      <trkpt lat="49.85638" lon="4.76981">
        <ele>240</ele>
        <time>2022-09-05T07:17:58.000Z</time>
      </trkpt>
      <trkpt lat="49.85633" lon="4.7697">
        <ele>239</ele>
        <time>2022-09-05T07:17:59.000Z</time>
      </trkpt>
      <trkpt lat="49.85628" lon="4.7696">
        <ele>238</ele>
        <time>2022-09-05T07:18:00.000Z</time>
      </trkpt>
      <trkpt lat="49.85624" lon="4.76949">
        <ele>237</ele>
        <time>2022-09-05T07:18:01.000Z</time>
      </trkpt>
      <trkpt lat="49.8562" lon="4.76938">
        <ele>235</ele>
        <time>2022-09-05T07:18:02.000Z</time>
      </trkpt>
      <trkpt lat="49.85616" lon="4.76927">
        <ele>233</ele>
        <time>2022-09-05T07:18:03.000Z</time>
      </trkpt>
      <trkpt lat="49.85614" lon="4.76916">
        <ele>231</ele>
        <time>2022-09-05T07:18:04.000Z</time>
      </trkpt>
      <trkpt lat="49.85612" lon="4.76905">
        <ele>229</ele>
        <time>2022-09-05T07:18:05.000Z</time>
      </trkpt>
      <trkpt lat="49.85612" lon="4.76894">
        <ele>227</ele>
        <time>2022-09-05T07:18:06.000Z</time>
      </trkpt>
      <trkpt lat="49.85611" lon="4.76883">
        <ele>225</ele>
        <time>2022-09-05T07:18:07.000Z</time>
      </trkpt>
      <trkpt lat="49.85611" lon="4.76873">
        <ele>222</ele>
        <time>2022-09-05T07:18:08.000Z</time>
      </trkpt>
      <trkpt lat="49.85611" lon="4.76864">
        <ele>220</ele>
        <time>2022-09-05T07:18:09.000Z</time>
      </trkpt>
      <trkpt lat="49.85611" lon="4.76856">
        <ele>218</ele>
        <time>2022-09-05T07:18:10.000Z</time>
      </trkpt>
      <trkpt lat="49.85612" lon="4.76849">
        <ele>216</ele>
        <time>2022-09-05T07:18:11.000Z</time>
      </trkpt>
      <trkpt lat="49.85612" lon="4.76842">
        <ele>214</ele>
        <time>2022-09-05T07:18:12.000Z</time>
      </trkpt>
      <trkpt lat="49.85612" lon="4.76836">
        <ele>212</ele>
        <time>2022-09-05T07:18:13.000Z</time>
      </trkpt>
      <trkpt lat="49.85612" lon="4.7683">
        <ele>211</ele>
        <time>2022-09-05T07:18:14.000Z</time>
      </trkpt>
      <trkpt lat="49.85612" lon="4.76824">
        <ele>209</ele>
        <time>2022-09-05T07:18:15.000Z</time>
      </trkpt>
      <trkpt lat="49.85613" lon="4.76818">
        <ele>208</ele>
        <time>2022-09-05T07:18:16.000Z</time>
      </trkpt>
      <trkpt lat="49.85613" lon="4.76811">
        <ele>206</ele>
        <time>2022-09-05T07:18:17.000Z</time>
      </trkpt>
      <trkpt lat="49.85614" lon="4.76805">
        <ele>205</ele>
        <time>2022-09-05T07:18:18.000Z</time>
      </trkpt>
      <trkpt lat="49.85614" lon="4.76799">
        <ele>203</ele>
        <time>2022-09-05T07:18:19.000Z</time>
      </trkpt>
      <trkpt lat="49.85615" lon="4.76793">
        <ele>202</ele>
        <time>2022-09-05T07:18:20.000Z</time>
      </trkpt>
      <trkpt lat="49.85616" lon="4.76788">
        <ele>201</ele>
        <time>2022-09-05T07:18:21.000Z</time>
      </trkpt>
      <trkpt lat="49.85618" lon="4.76783">
        <ele>200</ele>
        <time>2022-09-05T07:18:22.000Z</time>
      </trkpt>
      <trkpt lat="49.8562" lon="4.76779">
        <ele>199</ele>
        <time>2022-09-05T07:18:23.000Z</time>
      </trkpt>
      <trkpt lat="49.85624" lon="4.76776">
        <ele>197</ele>
        <time>2022-09-05T07:18:24.000Z</time>
      </trkpt>
      <trkpt lat="49.85628" lon="4.76772">
        <ele>196</ele>
        <time>2022-09-05T07:18:25.000Z</time>
      </trkpt>
      <trkpt lat="49.85633" lon="4.76767">
        <ele>195</ele>
        <time>2022-09-05T07:18:26.000Z</time>
      </trkpt>
      <trkpt lat="49.85637" lon="4.76763">
        <ele>194</ele>
        <time>2022-09-05T07:18:27.000Z</time>
      </trkpt>
      <trkpt lat="49.85642" lon="4.76758">
        <ele>193</ele>
        <time>2022-09-05T07:18:28.000Z</time>
      </trkpt>
      <trkpt lat="49.85646" lon="4.76754">
        <ele>192</ele>
        <time>2022-09-05T07:18:29.000Z</time>
      </trkpt>
      <trkpt lat="49.85651" lon="4.7675">
        <ele>191</ele>
        <time>2022-09-05T07:18:30.000Z</time>
      </trkpt>
      <trkpt lat="49.85656" lon="4.76746">
        <ele>190</ele>
        <time>2022-09-05T07:18:31.000Z</time>
      </trkpt>
      <trkpt lat="49.85661" lon="4.76741">
        <ele>189</ele>
        <time>2022-09-05T07:18:32.000Z</time>
      </trkpt>
      <trkpt lat="49.85666" lon="4.76736">
        <ele>189</ele>
        <time>2022-09-05T07:18:33.000Z</time>
      </trkpt>
      <trkpt lat="49.8567" lon="4.7673">
        <ele>188</ele>
        <time>2022-09-05T07:18:34.000Z</time>
      </trkpt>
      <trkpt lat="49.85675" lon="4.76725">
        <ele>188</ele>
        <time>2022-09-05T07:18:35.000Z</time>
      </trkpt>
      <trkpt lat="49.85679" lon="4.7672">
        <ele>187</ele>
        <time>2022-09-05T07:18:36.000Z</time>
      </trkpt>
      <trkpt lat="49.85682" lon="4.76716">
        <ele>187</ele>
        <time>2022-09-05T07:18:37.000Z</time>
      </trkpt>
      <trkpt lat="49.85686" lon="4.76713">
        <ele>187</ele>
        <time>2022-09-05T07:18:38.000Z</time>
      </trkpt>
      <trkpt lat="49.85689" lon="4.7671">
        <ele>187</ele>
        <time>2022-09-05T07:18:39.000Z</time>
      </trkpt>
      <trkpt lat="49.85693" lon="4.76708">
        <ele>186</ele>
        <time>2022-09-05T07:18:40.000Z</time>
      </trkpt>
      <trkpt lat="49.85696" lon="4.76707">
        <ele>186</ele>
        <time>2022-09-05T07:18:41.000Z</time>
      </trkpt>
      <trkpt lat="49.85699" lon="4.76705">
        <ele>186</ele>
        <time>2022-09-05T07:18:42.000Z</time>
      </trkpt>
      <trkpt lat="49.85703" lon="4.76703">
        <ele>186</ele>
        <time>2022-09-05T07:18:43.000Z</time>
      </trkpt>
      <trkpt lat="49.85707" lon="4.76702">
        <ele>186</ele>
        <time>2022-09-05T07:18:44.000Z</time>
      </trkpt>
      <trkpt lat="49.85711" lon="4.76701">
        <ele>186</ele>
        <time>2022-09-05T07:18:45.000Z</time>
      </trkpt>
      <trkpt lat="49.85716" lon="4.76699">
        <ele>186</ele>
        <time>2022-09-05T07:18:46.000Z</time>
      </trkpt>
      <trkpt lat="49.8572" lon="4.76698">
        <ele>186</ele>
        <time>2022-09-05T07:18:47.000Z</time>
      </trkpt>
      <trkpt lat="49.85725" lon="4.76695">
        <ele>186</ele>
        <time>2022-09-05T07:18:48.000Z</time>
      </trkpt>
      <trkpt lat="49.85729" lon="4.76694">
        <ele>186</ele>
        <time>2022-09-05T07:18:49.000Z</time>
      </trkpt>
      <trkpt lat="49.85733" lon="4.76693">
        <ele>186</ele>
        <time>2022-09-05T07:18:50.000Z</time>
      </trkpt>
      <trkpt lat="49.85738" lon="4.76692">
        <ele>185</ele>
        <time>2022-09-05T07:18:51.000Z</time>
      </trkpt>
      <trkpt lat="49.85742" lon="4.76691">
        <ele>185</ele>
        <time>2022-09-05T07:18:52.000Z</time>
      </trkpt>
      <trkpt lat="49.85747" lon="4.7669">
        <ele>185</ele>
        <time>2022-09-05T07:18:53.000Z</time>
      </trkpt>
      <trkpt lat="49.85751" lon="4.76688">
        <ele>185</ele>
        <time>2022-09-05T07:18:54.000Z</time>
      </trkpt>
      <trkpt lat="49.85755" lon="4.76686">
        <ele>185</ele>
        <time>2022-09-05T07:18:55.000Z</time>
      </trkpt>
      <trkpt lat="49.85759" lon="4.76684">
        <ele>185</ele>
        <time>2022-09-05T07:18:56.000Z</time>
      </trkpt>
      <trkpt lat="49.85763" lon="4.76683">
        <ele>185</ele>
        <time>2022-09-05T07:18:57.000Z</time>
      </trkpt>
      <trkpt lat="49.85767" lon="4.76681">
        <ele>185</ele>
        <time>2022-09-05T07:18:58.000Z</time>
      </trkpt>
      <trkpt lat="49.85771" lon="4.7668">
        <ele>185</ele>
        <time>2022-09-05T07:18:59.000Z</time>
      </trkpt>
      <trkpt lat="49.85774" lon="4.76678">
        <ele>185</ele>
        <time>2022-09-05T07:19:00.000Z</time>
      </trkpt>
      <trkpt lat="49.85777" lon="4.76678">
        <ele>185</ele>
        <time>2022-09-05T07:19:01.000Z</time>
      </trkpt>
      <trkpt lat="49.85781" lon="4.76676">
        <ele>185</ele>
        <time>2022-09-05T07:19:02.000Z</time>
      </trkpt>
      <trkpt lat="49.85784" lon="4.76674">
        <ele>185</ele>
        <time>2022-09-05T07:19:03.000Z</time>
      </trkpt>
      <trkpt lat="49.85788" lon="4.76671">
        <ele>185</ele>
        <time>2022-09-05T07:19:04.000Z</time>
      </trkpt>
      <trkpt lat="49.85793" lon="4.76668">
        <ele>185</ele>
        <time>2022-09-05T07:19:05.000Z</time>
      </trkpt>
      <trkpt lat="49.85798" lon="4.76665">
        <ele>185</ele>
        <time>2022-09-05T07:19:06.000Z</time>
      </trkpt>
      <trkpt lat="49.85803" lon="4.76663">
        <ele>185</ele>
        <time>2022-09-05T07:19:07.000Z</time>
      </trkpt>
      <trkpt lat="49.85807" lon="4.76662">
        <ele>185</ele>
        <time>2022-09-05T07:19:08.000Z</time>
      </trkpt>
      <trkpt lat="49.85812" lon="4.76662">
        <ele>185</ele>
        <time>2022-09-05T07:19:09.000Z</time>
      </trkpt>
      <trkpt lat="49.85816" lon="4.76661">
        <ele>185</ele>
        <time>2022-09-05T07:19:10.000Z</time>
      </trkpt>
      <trkpt lat="49.8582" lon="4.7666">
        <ele>185</ele>
        <time>2022-09-05T07:19:11.000Z</time>
      </trkpt>
      <trkpt lat="49.85823" lon="4.76661">
        <ele>185</ele>
        <time>2022-09-05T07:19:12.000Z</time>
      </trkpt>
      <trkpt lat="49.85826" lon="4.76661">
        <ele>186</ele>
        <time>2022-09-05T07:19:13.000Z</time>
      </trkpt>
      <trkpt lat="49.85829" lon="4.76661">
        <ele>186</ele>
        <time>2022-09-05T07:19:14.000Z</time>
      </trkpt>
      <trkpt lat="49.85831" lon="4.7666">
        <ele>186</ele>
        <time>2022-09-05T07:19:15.000Z</time>
      </trkpt>
      <trkpt lat="49.85834" lon="4.7666">
        <ele>186</ele>
        <time>2022-09-05T07:19:16.000Z</time>
      </trkpt>
      <trkpt lat="49.85836" lon="4.7666">
        <ele>186</ele>
        <time>2022-09-05T07:19:17.000Z</time>
      </trkpt>
      <trkpt lat="49.85839" lon="4.7666">
        <ele>186</ele>
        <time>2022-09-05T07:19:18.000Z</time>
      </trkpt>
      <trkpt lat="49.85841" lon="4.76661">
        <ele>186</ele>
        <time>2022-09-05T07:19:19.000Z</time>
      </trkpt>
      <trkpt lat="49.85843" lon="4.76661">
        <ele>187</ele>
        <time>2022-09-05T07:19:20.000Z</time>
      </trkpt>
      <trkpt lat="49.85845" lon="4.76661">
        <ele>187</ele>
        <time>2022-09-05T07:19:21.000Z</time>
      </trkpt>
      <trkpt lat="49.85847" lon="4.76662">
        <ele>187</ele>
        <time>2022-09-05T07:19:22.000Z</time>
      </trkpt>
      <trkpt lat="49.85849" lon="4.76662">
        <ele>187</ele>
        <time>2022-09-05T07:19:23.000Z</time>
      </trkpt>
      <trkpt lat="49.85852" lon="4.76662">
        <ele>187</ele>
        <time>2022-09-05T07:19:24.000Z</time>
      </trkpt>
      <trkpt lat="49.85854" lon="4.76662">
        <ele>187</ele>
        <time>2022-09-05T07:19:25.000Z</time>
      </trkpt>
      <trkpt lat="49.85857" lon="4.76662">
        <ele>188</ele>
        <time>2022-09-05T07:19:26.000Z</time>
      </trkpt>
      <trkpt lat="49.85858" lon="4.76663">
        <ele>188</ele>
        <time>2022-09-05T07:19:27.000Z</time>
      </trkpt>
      <trkpt lat="49.8586" lon="4.76664">
        <ele>188</ele>
        <time>2022-09-05T07:19:28.000Z</time>
      </trkpt>
      <trkpt lat="49.85862" lon="4.76664">
        <ele>188</ele>
        <time>2022-09-05T07:19:29.000Z</time>
      </trkpt>
      <trkpt lat="49.85864" lon="4.76664">
        <ele>188</ele>
        <time>2022-09-05T07:19:30.000Z</time>
      </trkpt>
      <trkpt lat="49.85865" lon="4.76664">
        <ele>189</ele>
        <time>2022-09-05T07:19:31.000Z</time>
      </trkpt>
      <trkpt lat="49.85868" lon="4.76664">
        <ele>189</ele>
        <time>2022-09-05T07:19:32.000Z</time>
      </trkpt>
      <trkpt lat="49.8587" lon="4.76665">
        <ele>189</ele>
        <time>2022-09-05T07:19:33.000Z</time>
      </trkpt>
      <trkpt lat="49.85872" lon="4.76665">
        <ele>189</ele>
        <time>2022-09-05T07:19:34.000Z</time>
      </trkpt>
      <trkpt lat="49.85874" lon="4.76666">
        <ele>189</ele>
        <time>2022-09-05T07:19:35.000Z</time>
      </trkpt>
      <trkpt lat="49.85876" lon="4.76666">
        <ele>189</ele>
        <time>2022-09-05T07:19:36.000Z</time>
      </trkpt>
      <trkpt lat="49.85879" lon="4.76666">
        <ele>190</ele>
        <time>2022-09-05T07:19:37.000Z</time>
      </trkpt>
      <trkpt lat="49.85881" lon="4.76667">
        <ele>190</ele>
        <time>2022-09-05T07:19:38.000Z</time>
      </trkpt>
      <trkpt lat="49.85884" lon="4.76667">
        <ele>190</ele>
        <time>2022-09-05T07:19:39.000Z</time>
      </trkpt>
      <trkpt lat="49.85886" lon="4.76667">
        <ele>190</ele>
        <time>2022-09-05T07:19:40.000Z</time>
      </trkpt>
      <trkpt lat="49.85888" lon="4.76668">
        <ele>190</ele>
        <time>2022-09-05T07:19:41.000Z</time>
      </trkpt>
      <trkpt lat="49.8589" lon="4.76667">
        <ele>190</ele>
        <time>2022-09-05T07:19:42.000Z</time>
      </trkpt>
      <trkpt lat="49.85892" lon="4.76668">
        <ele>190</ele>
        <time>2022-09-05T07:19:43.000Z</time>
      </trkpt>
      <trkpt lat="49.85894" lon="4.76668">
        <ele>190</ele>
        <time>2022-09-05T07:19:44.000Z</time>
      </trkpt>
      <trkpt lat="49.85896" lon="4.76669">
        <ele>190</ele>
        <time>2022-09-05T07:19:45.000Z</time>
      </trkpt>
      <trkpt lat="49.85897" lon="4.76669">
        <ele>190</ele>
        <time>2022-09-05T07:19:46.000Z</time>
      </trkpt>
      <trkpt lat="49.85899" lon="4.76669">
        <ele>191</ele>
        <time>2022-09-05T07:19:47.000Z</time>
      </trkpt>
      <trkpt lat="49.85901" lon="4.7667">
        <ele>191</ele>
        <time>2022-09-05T07:19:48.000Z</time>
      </trkpt>
      <trkpt lat="49.85903" lon="4.7667">
        <ele>191</ele>
        <time>2022-09-05T07:19:49.000Z</time>
      </trkpt>
      <trkpt lat="49.85905" lon="4.76671">
        <ele>191</ele>
        <time>2022-09-05T07:19:50.000Z</time>
      </trkpt>
      <trkpt lat="49.85907" lon="4.76671">
        <ele>192</ele>
        <time>2022-09-05T07:19:51.000Z</time>
      </trkpt>
      <trkpt lat="49.85908" lon="4.76671">
        <ele>192</ele>
        <time>2022-09-05T07:19:52.000Z</time>
      </trkpt>
      <trkpt lat="49.8591" lon="4.76672">
        <ele>192</ele>
        <time>2022-09-05T07:19:53.000Z</time>
      </trkpt>
      <trkpt lat="49.85912" lon="4.76673">
        <ele>192</ele>
        <time>2022-09-05T07:19:54.000Z</time>
      </trkpt>
      <trkpt lat="49.85914" lon="4.76674">
        <ele>192</ele>
        <time>2022-09-05T07:19:55.000Z</time>
      </trkpt>
      <trkpt lat="49.85916" lon="4.76674">
        <ele>192</ele>
        <time>2022-09-05T07:19:56.000Z</time>
      </trkpt>
      <trkpt lat="49.85918" lon="4.76674">
        <ele>192</ele>
        <time>2022-09-05T07:19:57.000Z</time>
      </trkpt>
      <trkpt lat="49.85919" lon="4.76674">
        <ele>192</ele>
        <time>2022-09-05T07:19:58.000Z</time>
      </trkpt>
      <trkpt lat="49.85921" lon="4.76675">
        <ele>192</ele>
        <time>2022-09-05T07:19:59.000Z</time>
      </trkpt>
      <trkpt lat="49.85924" lon="4.76675">
        <ele>193</ele>
        <time>2022-09-05T07:20:00.000Z</time>
      </trkpt>
      <trkpt lat="49.85926" lon="4.76676">
        <ele>193</ele>
        <time>2022-09-05T07:20:01.000Z</time>
      </trkpt>
      <trkpt lat="49.85928" lon="4.76676">
        <ele>193</ele>
        <time>2022-09-05T07:20:02.000Z</time>
      </trkpt>
      <trkpt lat="49.8593" lon="4.76676">
        <ele>193</ele>
        <time>2022-09-05T07:20:03.000Z</time>
      </trkpt>
      <trkpt lat="49.85932" lon="4.76677">
        <ele>193</ele>
        <time>2022-09-05T07:20:04.000Z</time>
      </trkpt>
      <trkpt lat="49.85934" lon="4.76677">
        <ele>193</ele>
        <time>2022-09-05T07:20:05.000Z</time>
      </trkpt>
      <trkpt lat="49.85936" lon="4.76678">
        <ele>194</ele>
        <time>2022-09-05T07:20:06.000Z</time>
      </trkpt>
      <trkpt lat="49.85938" lon="4.76679">
        <ele>194</ele>
        <time>2022-09-05T07:20:07.000Z</time>
      </trkpt>
      <trkpt lat="49.8594" lon="4.76679">
        <ele>194</ele>
        <time>2022-09-05T07:20:08.000Z</time>
      </trkpt>
      <trkpt lat="49.85942" lon="4.76679">
        <ele>194</ele>
        <time>2022-09-05T07:20:09.000Z</time>
      </trkpt>
      <trkpt lat="49.85944" lon="4.7668">
        <ele>195</ele>
        <time>2022-09-05T07:20:10.000Z</time>
      </trkpt>
      <trkpt lat="49.85946" lon="4.76681">
        <ele>195</ele>
        <time>2022-09-05T07:20:11.000Z</time>
      </trkpt>
      <trkpt lat="49.85948" lon="4.76681">
        <ele>195</ele>
        <time>2022-09-05T07:20:12.000Z</time>
      </trkpt>
      <trkpt lat="49.8595" lon="4.76681">
        <ele>196</ele>
        <time>2022-09-05T07:20:13.000Z</time>
      </trkpt>
      <trkpt lat="49.85952" lon="4.76681">
        <ele>196</ele>
        <time>2022-09-05T07:20:14.000Z</time>
      </trkpt>
      <trkpt lat="49.85954" lon="4.76682">
        <ele>197</ele>
        <time>2022-09-05T07:20:15.000Z</time>
      </trkpt>
      <trkpt lat="49.85956" lon="4.76682">
        <ele>197</ele>
        <time>2022-09-05T07:20:16.000Z</time>
      </trkpt>
      <trkpt lat="49.85958" lon="4.76682">
        <ele>198</ele>
        <time>2022-09-05T07:20:17.000Z</time>
      </trkpt>
      <trkpt lat="49.85959" lon="4.7668">
        <ele>198</ele>
        <time>2022-09-05T07:20:18.000Z</time>
      </trkpt>
      <trkpt lat="49.85961" lon="4.76677">
        <ele>198</ele>
        <time>2022-09-05T07:20:19.000Z</time>
      </trkpt>
      <trkpt lat="49.85964" lon="4.76673">
        <ele>199</ele>
        <time>2022-09-05T07:20:20.000Z</time>
      </trkpt>
      <trkpt lat="49.85968" lon="4.7667">
        <ele>199</ele>
        <time>2022-09-05T07:20:21.000Z</time>
      </trkpt>
      <trkpt lat="49.85973" lon="4.76667">
        <ele>199</ele>
        <time>2022-09-05T07:20:22.000Z</time>
      </trkpt>
      <trkpt lat="49.85978" lon="4.76665">
        <ele>199</ele>
        <time>2022-09-05T07:20:23.000Z</time>
      </trkpt>
      <trkpt lat="49.85983" lon="4.76662">
        <ele>199</ele>
        <time>2022-09-05T07:20:24.000Z</time>
      </trkpt>
      <trkpt lat="49.85989" lon="4.7666">
        <ele>199</ele>
        <time>2022-09-05T07:20:25.000Z</time>
      </trkpt>
      <trkpt lat="49.85995" lon="4.76657">
        <ele>199</ele>
        <time>2022-09-05T07:20:26.000Z</time>
      </trkpt>
      <trkpt lat="49.86001" lon="4.76655">
        <ele>199</ele>
        <time>2022-09-05T07:20:27.000Z</time>
      </trkpt>
      <trkpt lat="49.86008" lon="4.76655">
        <ele>199</ele>
        <time>2022-09-05T07:20:28.000Z</time>
      </trkpt>
      <trkpt lat="49.86016" lon="4.76655">
        <ele>199</ele>
        <time>2022-09-05T07:20:29.000Z</time>
      </trkpt>
      <trkpt lat="49.86024" lon="4.76657">
        <ele>199</ele>
        <time>2022-09-05T07:20:30.000Z</time>
      </trkpt>
      <trkpt lat="49.86033" lon="4.76659">
        <ele>198</ele>
        <time>2022-09-05T07:20:31.000Z</time>
      </trkpt>
      <trkpt lat="49.86043" lon="4.76661">
        <ele>198</ele>
        <time>2022-09-05T07:20:32.000Z</time>
      </trkpt>
      <trkpt lat="49.86052" lon="4.76665">
        <ele>197</ele>
        <time>2022-09-05T07:20:33.000Z</time>
      </trkpt>
      <trkpt lat="49.86062" lon="4.76668">
        <ele>197</ele>
        <time>2022-09-05T07:20:34.000Z</time>
      </trkpt>
      <trkpt lat="49.86072" lon="4.7667">
        <ele>196</ele>
        <time>2022-09-05T07:20:35.000Z</time>
      </trkpt>
      <trkpt lat="49.86082" lon="4.76672">
        <ele>195</ele>
        <time>2022-09-05T07:20:36.000Z</time>
      </trkpt>
      <trkpt lat="49.86091" lon="4.76674">
        <ele>194</ele>
        <time>2022-09-05T07:20:37.000Z</time>
      </trkpt>
      <trkpt lat="49.86101" lon="4.76674">
        <ele>192</ele>
        <time>2022-09-05T07:20:38.000Z</time>
      </trkpt>
      <trkpt lat="49.8611" lon="4.76673">
        <ele>192</ele>
        <time>2022-09-05T07:20:39.000Z</time>
      </trkpt>
      <trkpt lat="49.86119" lon="4.76671">
        <ele>191</ele>
        <time>2022-09-05T07:20:40.000Z</time>
      </trkpt>
      <trkpt lat="49.86127" lon="4.76668">
        <ele>190</ele>
        <time>2022-09-05T07:20:41.000Z</time>
      </trkpt>
      <trkpt lat="49.86134" lon="4.76664">
        <ele>189</ele>
        <time>2022-09-05T07:20:42.000Z</time>
      </trkpt>
      <trkpt lat="49.8614" lon="4.76659">
        <ele>188</ele>
        <time>2022-09-05T07:20:43.000Z</time>
      </trkpt>
      <trkpt lat="49.86144" lon="4.76651">
        <ele>187</ele>
        <time>2022-09-05T07:20:44.000Z</time>
      </trkpt>
      <trkpt lat="49.86147" lon="4.76642">
        <ele>186</ele>
        <time>2022-09-05T07:20:45.000Z</time>
      </trkpt>
      <trkpt lat="49.86147" lon="4.76632">
        <ele>186</ele>
        <time>2022-09-05T07:20:46.000Z</time>
      </trkpt>
      <trkpt lat="49.86146" lon="4.76621">
        <ele>185</ele>
        <time>2022-09-05T07:20:47.000Z</time>
      </trkpt>
      <trkpt lat="49.86143" lon="4.7661">
        <ele>184</ele>
        <time>2022-09-05T07:20:48.000Z</time>
      </trkpt>
      <trkpt lat="49.8614" lon="4.76598">
        <ele>183</ele>
        <time>2022-09-05T07:20:49.000Z</time>
      </trkpt>
      <trkpt lat="49.86136" lon="4.76586">
        <ele>182</ele>
        <time>2022-09-05T07:20:50.000Z</time>
      </trkpt>
      <trkpt lat="49.86134" lon="4.76573">
        <ele>180</ele>
        <time>2022-09-05T07:20:51.000Z</time>
      </trkpt>
      <trkpt lat="49.86131" lon="4.76559">
        <ele>179</ele>
        <time>2022-09-05T07:20:52.000Z</time>
      </trkpt>
      <trkpt lat="49.8613" lon="4.76545">
        <ele>178</ele>
        <time>2022-09-05T07:20:53.000Z</time>
      </trkpt>
      <trkpt lat="49.86128" lon="4.76529">
        <ele>176</ele>
        <time>2022-09-05T07:20:54.000Z</time>
      </trkpt>
      <trkpt lat="49.86126" lon="4.76514">
        <ele>175</ele>
        <time>2022-09-05T07:20:55.000Z</time>
      </trkpt>
      <trkpt lat="49.86124" lon="4.76498">
        <ele>173</ele>
        <time>2022-09-05T07:20:56.000Z</time>
      </trkpt>
      <trkpt lat="49.86122" lon="4.76483">
        <ele>172</ele>
        <time>2022-09-05T07:20:57.000Z</time>
      </trkpt>
      <trkpt lat="49.86119" lon="4.76468">
        <ele>171</ele>
        <time>2022-09-05T07:20:58.000Z</time>
      </trkpt>
      <trkpt lat="49.86115" lon="4.76453">
        <ele>169</ele>
        <time>2022-09-05T07:20:59.000Z</time>
      </trkpt>
      <trkpt lat="49.86113" lon="4.76438">
        <ele>168</ele>
        <time>2022-09-05T07:21:00.000Z</time>
      </trkpt>
      <trkpt lat="49.8611" lon="4.76423">
        <ele>167</ele>
        <time>2022-09-05T07:21:01.000Z</time>
      </trkpt>
      <trkpt lat="49.86108" lon="4.76409">
        <ele>166</ele>
        <time>2022-09-05T07:21:02.000Z</time>
      </trkpt>
      <trkpt lat="49.86106" lon="4.76394">
        <ele>165</ele>
        <time>2022-09-05T07:21:03.000Z</time>
      </trkpt>
      <trkpt lat="49.86103" lon="4.7638">
        <ele>163</ele>
        <time>2022-09-05T07:21:04.000Z</time>
      </trkpt>
      <trkpt lat="49.861" lon="4.76369">
        <ele>163</ele>
        <time>2022-09-05T07:21:05.000Z</time>
      </trkpt>
      <trkpt lat="49.86097" lon="4.7636">
        <ele>162</ele>
        <time>2022-09-05T07:21:06.000Z</time>
      </trkpt>
      <trkpt lat="49.86094" lon="4.76352">
        <ele>161</ele>
        <time>2022-09-05T07:21:07.000Z</time>
      </trkpt>
      <trkpt lat="49.86091" lon="4.76344">
        <ele>160</ele>
        <time>2022-09-05T07:21:08.000Z</time>
      </trkpt>
      <trkpt lat="49.86089" lon="4.76339">
        <ele>160</ele>
        <time>2022-09-05T07:21:09.000Z</time>
      </trkpt>
      <trkpt lat="49.86087" lon="4.76336">
        <ele>159</ele>
        <time>2022-09-05T07:21:10.000Z</time>
      </trkpt>
      <trkpt lat="49.86086" lon="4.76333">
        <ele>159</ele>
        <time>2022-09-05T07:21:11.000Z</time>
      </trkpt>
      <trkpt lat="49.86087" lon="4.7633">
        <ele>159</ele>
        <time>2022-09-05T07:21:12.000Z</time>
      </trkpt>
      <trkpt lat="49.86089" lon="4.76328">
        <ele>159</ele>
        <time>2022-09-05T07:21:13.000Z</time>
      </trkpt>
      <trkpt lat="49.8609" lon="4.76326">
        <ele>158</ele>
        <time>2022-09-05T07:21:14.000Z</time>
      </trkpt>
      <trkpt lat="49.86092" lon="4.76325">
        <ele>158</ele>
        <time>2022-09-05T07:21:15.000Z</time>
      </trkpt>
      <trkpt lat="49.86094" lon="4.76325">
        <ele>158</ele>
        <time>2022-09-05T07:21:16.000Z</time>
      </trkpt>
      <trkpt lat="49.86097" lon="4.76324">
        <ele>158</ele>
        <time>2022-09-05T07:21:17.000Z</time>
      </trkpt>
      <trkpt lat="49.861" lon="4.76324">
        <ele>158</ele>
        <time>2022-09-05T07:21:18.000Z</time>
      </trkpt>
      <trkpt lat="49.86103" lon="4.76324">
        <ele>158</ele>
        <time>2022-09-05T07:21:19.000Z</time>
      </trkpt>
      <trkpt lat="49.86106" lon="4.76324">
        <ele>157</ele>
        <time>2022-09-05T07:21:20.000Z</time>
      </trkpt>
      <trkpt lat="49.8611" lon="4.76324">
        <ele>157</ele>
        <time>2022-09-05T07:21:21.000Z</time>
      </trkpt>
      <trkpt lat="49.86114" lon="4.76325">
        <ele>157</ele>
        <time>2022-09-05T07:21:22.000Z</time>
      </trkpt>
      <trkpt lat="49.86118" lon="4.76325">
        <ele>157</ele>
        <time>2022-09-05T07:21:23.000Z</time>
      </trkpt>
      <trkpt lat="49.86122" lon="4.76325">
        <ele>157</ele>
        <time>2022-09-05T07:21:24.000Z</time>
      </trkpt>
      <trkpt lat="49.86126" lon="4.76326">
        <ele>157</ele>
        <time>2022-09-05T07:21:25.000Z</time>
      </trkpt>
      <trkpt lat="49.8613" lon="4.76326">
        <ele>157</ele>
        <time>2022-09-05T07:21:26.000Z</time>
      </trkpt>
      <trkpt lat="49.86134" lon="4.76327">
        <ele>157</ele>
        <time>2022-09-05T07:21:27.000Z</time>
      </trkpt>
      <trkpt lat="49.86138" lon="4.76327">
        <ele>157</ele>
        <time>2022-09-05T07:21:28.000Z</time>
      </trkpt>
      <trkpt lat="49.86143" lon="4.76327">
        <ele>157</ele>
        <time>2022-09-05T07:21:29.000Z</time>
      </trkpt>
      <trkpt lat="49.86147" lon="4.76328">
        <ele>157</ele>
        <time>2022-09-05T07:21:30.000Z</time>
      </trkpt>
      <trkpt lat="49.86151" lon="4.76328">
        <ele>156</ele>
        <time>2022-09-05T07:21:31.000Z</time>
      </trkpt>
      <trkpt lat="49.86154" lon="4.76329">
        <ele>156</ele>
        <time>2022-09-05T07:21:32.000Z</time>
      </trkpt>
      <trkpt lat="49.86158" lon="4.76329">
        <ele>156</ele>
        <time>2022-09-05T07:21:33.000Z</time>
      </trkpt>
      <trkpt lat="49.86162" lon="4.7633">
        <ele>156</ele>
        <time>2022-09-05T07:21:34.000Z</time>
      </trkpt>
      <trkpt lat="49.86166" lon="4.7633">
        <ele>156</ele>
        <time>2022-09-05T07:21:35.000Z</time>
      </trkpt>
      <trkpt lat="49.8617" lon="4.76329">
        <ele>156</ele>
        <time>2022-09-05T07:21:36.000Z</time>
      </trkpt>
      <trkpt lat="49.86174" lon="4.76327">
        <ele>156</ele>
        <time>2022-09-05T07:21:37.000Z</time>
      </trkpt>
      <trkpt lat="49.86178" lon="4.76326">
        <ele>156</ele>
        <time>2022-09-05T07:21:38.000Z</time>
      </trkpt>
      <trkpt lat="49.86182" lon="4.76326">
        <ele>156</ele>
        <time>2022-09-05T07:21:39.000Z</time>
      </trkpt>
      <trkpt lat="49.86186" lon="4.76326">
        <ele>156</ele>
        <time>2022-09-05T07:21:40.000Z</time>
      </trkpt>
      <trkpt lat="49.86189" lon="4.76327">
        <ele>156</ele>
        <time>2022-09-05T07:21:41.000Z</time>
      </trkpt>
      <trkpt lat="49.86192" lon="4.76327">
        <ele>156</ele>
        <time>2022-09-05T07:21:42.000Z</time>
      </trkpt>
      <trkpt lat="49.86195" lon="4.76328">
        <ele>156</ele>
        <time>2022-09-05T07:21:43.000Z</time>
      </trkpt>
      <trkpt lat="49.86199" lon="4.76329">
        <ele>156</ele>
        <time>2022-09-05T07:21:44.000Z</time>
      </trkpt>
      <trkpt lat="49.86202" lon="4.76329">
        <ele>156</ele>
        <time>2022-09-05T07:21:45.000Z</time>
      </trkpt>
      <trkpt lat="49.86206" lon="4.76329">
        <ele>155</ele>
        <time>2022-09-05T07:21:46.000Z</time>
      </trkpt>
      <trkpt lat="49.8621" lon="4.7633">
        <ele>155</ele>
        <time>2022-09-05T07:21:47.000Z</time>
      </trkpt>
      <trkpt lat="49.86214" lon="4.7633">
        <ele>155</ele>
        <time>2022-09-05T07:21:48.000Z</time>
      </trkpt>
      <trkpt lat="49.86218" lon="4.7633">
        <ele>155</ele>
        <time>2022-09-05T07:21:49.000Z</time>
      </trkpt>
      <trkpt lat="49.86222" lon="4.7633">
        <ele>155</ele>
        <time>2022-09-05T07:21:50.000Z</time>
      </trkpt>
      <trkpt lat="49.86227" lon="4.76329">
        <ele>155</ele>
        <time>2022-09-05T07:21:51.000Z</time>
      </trkpt>
      <trkpt lat="49.86231" lon="4.76328">
        <ele>155</ele>
        <time>2022-09-05T07:21:52.000Z</time>
      </trkpt>
      <trkpt lat="49.86236" lon="4.76327">
        <ele>155</ele>
        <time>2022-09-05T07:21:53.000Z</time>
      </trkpt>
      <trkpt lat="49.8624" lon="4.76326">
        <ele>155</ele>
        <time>2022-09-05T07:21:54.000Z</time>
      </trkpt>
      <trkpt lat="49.86245" lon="4.76325">
        <ele>155</ele>
        <time>2022-09-05T07:21:55.000Z</time>
      </trkpt>
      <trkpt lat="49.86249" lon="4.76323">
        <ele>155</ele>
        <time>2022-09-05T07:21:56.000Z</time>
      </trkpt>
      <trkpt lat="49.86253" lon="4.76321">
        <ele>155</ele>
        <time>2022-09-05T07:21:57.000Z</time>
      </trkpt>
      <trkpt lat="49.86257" lon="4.76319">
        <ele>155</ele>
        <time>2022-09-05T07:21:58.000Z</time>
      </trkpt>
      <trkpt lat="49.86261" lon="4.76317">
        <ele>155</ele>
        <time>2022-09-05T07:21:59.000Z</time>
      </trkpt>
      <trkpt lat="49.86265" lon="4.76315">
        <ele>155</ele>
        <time>2022-09-05T07:22:00.000Z</time>
      </trkpt>
      <trkpt lat="49.86268" lon="4.76313">
        <ele>155</ele>
        <time>2022-09-05T07:22:01.000Z</time>
      </trkpt>
      <trkpt lat="49.86271" lon="4.76311">
        <ele>155</ele>
        <time>2022-09-05T07:22:02.000Z</time>
      </trkpt>
      <trkpt lat="49.86274" lon="4.76309">
        <ele>156</ele>
        <time>2022-09-05T07:22:03.000Z</time>
      </trkpt>
      <trkpt lat="49.86276" lon="4.76308">
        <ele>156</ele>
        <time>2022-09-05T07:22:04.000Z</time>
      </trkpt>
      <trkpt lat="49.86279" lon="4.76307">
        <ele>156</ele>
        <time>2022-09-05T07:22:05.000Z</time>
      </trkpt>
      <trkpt lat="49.86282" lon="4.76306">
        <ele>156</ele>
        <time>2022-09-05T07:22:06.000Z</time>
      </trkpt>
      <trkpt lat="49.86285" lon="4.76306">
        <ele>156</ele>
        <time>2022-09-05T07:22:07.000Z</time>
      </trkpt>
      <trkpt lat="49.86288" lon="4.76307">
        <ele>156</ele>
        <time>2022-09-05T07:22:08.000Z</time>
      </trkpt>
      <trkpt lat="49.86291" lon="4.76308">
        <ele>156</ele>
        <time>2022-09-05T07:22:09.000Z</time>
      </trkpt>
      <trkpt lat="49.86293" lon="4.7631">
        <ele>156</ele>
        <time>2022-09-05T07:22:10.000Z</time>
      </trkpt>
      <trkpt lat="49.86296" lon="4.76313">
        <ele>156</ele>
        <time>2022-09-05T07:22:11.000Z</time>
      </trkpt>
      <trkpt lat="49.86298" lon="4.76316">
        <ele>156</ele>
        <time>2022-09-05T07:22:12.000Z</time>
      </trkpt>
      <trkpt lat="49.863" lon="4.76319">
        <ele>157</ele>
        <time>2022-09-05T07:22:13.000Z</time>
      </trkpt>
      <trkpt lat="49.86303" lon="4.76321">
        <ele>157</ele>
        <time>2022-09-05T07:22:14.000Z</time>
      </trkpt>
      <trkpt lat="49.86305" lon="4.76324">
        <ele>157</ele>
        <time>2022-09-05T07:22:15.000Z</time>
      </trkpt>
      <trkpt lat="49.86308" lon="4.76327">
        <ele>157</ele>
        <time>2022-09-05T07:22:16.000Z</time>
      </trkpt>
      <trkpt lat="49.8631" lon="4.76329">
        <ele>157</ele>
        <time>2022-09-05T07:22:17.000Z</time>
      </trkpt>
      <trkpt lat="49.86312" lon="4.76332">
        <ele>158</ele>
        <time>2022-09-05T07:22:18.000Z</time>
      </trkpt>
      <trkpt lat="49.86315" lon="4.76335">
        <ele>158</ele>
        <time>2022-09-05T07:22:19.000Z</time>
      </trkpt>
      <trkpt lat="49.86317" lon="4.76337">
        <ele>158</ele>
        <time>2022-09-05T07:22:20.000Z</time>
      </trkpt>
      <trkpt lat="49.86319" lon="4.7634">
        <ele>158</ele>
        <time>2022-09-05T07:22:21.000Z</time>
      </trkpt>
      <trkpt lat="49.86321" lon="4.76343">
        <ele>159</ele>
        <time>2022-09-05T07:22:22.000Z</time>
      </trkpt>
      <trkpt lat="49.86323" lon="4.76345">
        <ele>159</ele>
        <time>2022-09-05T07:22:23.000Z</time>
      </trkpt>
      <trkpt lat="49.86326" lon="4.76347">
        <ele>159</ele>
        <time>2022-09-05T07:22:24.000Z</time>
      </trkpt>
      <trkpt lat="49.86328" lon="4.76349">
        <ele>159</ele>
        <time>2022-09-05T07:22:25.000Z</time>
      </trkpt>
      <trkpt lat="49.8633" lon="4.76351">
        <ele>160</ele>
        <time>2022-09-05T07:22:26.000Z</time>
      </trkpt>
      <trkpt lat="49.86332" lon="4.76353">
        <ele>160</ele>
        <time>2022-09-05T07:22:27.000Z</time>
      </trkpt>
      <trkpt lat="49.86334" lon="4.76354">
        <ele>160</ele>
        <time>2022-09-05T07:22:28.000Z</time>
      </trkpt>
      <trkpt lat="49.86336" lon="4.76356">
        <ele>160</ele>
        <time>2022-09-05T07:22:29.000Z</time>
      </trkpt>
      <trkpt lat="49.86339" lon="4.76358">
        <ele>161</ele>
        <time>2022-09-05T07:22:30.000Z</time>
      </trkpt>
      <trkpt lat="49.86341" lon="4.7636">
        <ele>161</ele>
        <time>2022-09-05T07:22:31.000Z</time>
      </trkpt>
      <trkpt lat="49.86343" lon="4.76361">
        <ele>161</ele>
        <time>2022-09-05T07:22:32.000Z</time>
      </trkpt>
      <trkpt lat="49.86345" lon="4.76362">
        <ele>161</ele>
        <time>2022-09-05T07:22:33.000Z</time>
      </trkpt>
      <trkpt lat="49.86348" lon="4.76364">
        <ele>161</ele>
        <time>2022-09-05T07:22:34.000Z</time>
      </trkpt>
      <trkpt lat="49.8635" lon="4.76365">
        <ele>162</ele>
        <time>2022-09-05T07:22:35.000Z</time>
      </trkpt>
      <trkpt lat="49.86353" lon="4.76367">
        <ele>162</ele>
        <time>2022-09-05T07:22:36.000Z</time>
      </trkpt>
      <trkpt lat="49.86355" lon="4.76368">
        <ele>162</ele>
        <time>2022-09-05T07:22:37.000Z</time>
      </trkpt>
      <trkpt lat="49.86357" lon="4.76369">
        <ele>162</ele>
        <time>2022-09-05T07:22:38.000Z</time>
      </trkpt>
      <trkpt lat="49.8636" lon="4.76371">
        <ele>163</ele>
        <time>2022-09-05T07:22:39.000Z</time>
      </trkpt>
      <trkpt lat="49.86362" lon="4.76372">
        <ele>163</ele>
        <time>2022-09-05T07:22:40.000Z</time>
      </trkpt>
      <trkpt lat="49.86363" lon="4.76373">
        <ele>163</ele>
        <time>2022-09-05T07:22:41.000Z</time>
      </trkpt>
      <trkpt lat="49.86365" lon="4.76374">
        <ele>163</ele>
        <time>2022-09-05T07:22:42.000Z</time>
      </trkpt>
      <trkpt lat="49.86367" lon="4.76375">
        <ele>163</ele>
        <time>2022-09-05T07:22:43.000Z</time>
      </trkpt>
      <trkpt lat="49.86369" lon="4.76376">
        <ele>164</ele>
        <time>2022-09-05T07:22:44.000Z</time>
      </trkpt>
      <trkpt lat="49.8637" lon="4.76377">
        <ele>164</ele>
        <time>2022-09-05T07:22:45.000Z</time>
      </trkpt>
      <trkpt lat="49.86371" lon="4.76377">
        <ele>164</ele>
        <time>2022-09-05T07:22:46.000Z</time>
      </trkpt>
      <trkpt lat="49.86372" lon="4.76378">
        <ele>165</ele>
        <time>2022-09-05T07:22:47.000Z</time>
      </trkpt>
      <trkpt lat="49.86373" lon="4.76378">
        <ele>165</ele>
        <time>2022-09-05T07:22:48.000Z</time>
      </trkpt>
      <trkpt lat="49.86375" lon="4.76379">
        <ele>165</ele>
        <time>2022-09-05T07:22:49.000Z</time>
      </trkpt>
      <trkpt lat="49.86377" lon="4.76379">
        <ele>165</ele>
        <time>2022-09-05T07:22:50.000Z</time>
      </trkpt>
      <trkpt lat="49.86379" lon="4.76379">
        <ele>166</ele>
        <time>2022-09-05T07:22:51.000Z</time>
      </trkpt>
      <trkpt lat="49.8638" lon="4.7638">
        <ele>166</ele>
        <time>2022-09-05T07:22:52.000Z</time>
      </trkpt>
      <trkpt lat="49.86382" lon="4.7638">
        <ele>166</ele>
        <time>2022-09-05T07:22:53.000Z</time>
      </trkpt>
      <trkpt lat="49.86384" lon="4.7638">
        <ele>166</ele>
        <time>2022-09-05T07:22:54.000Z</time>
      </trkpt>
      <trkpt lat="49.86386" lon="4.7638">
        <ele>167</ele>
        <time>2022-09-05T07:22:55.000Z</time>
      </trkpt>
      <trkpt lat="49.86387" lon="4.76381">
        <ele>167</ele>
        <time>2022-09-05T07:22:56.000Z</time>
      </trkpt>
      <trkpt lat="49.86389" lon="4.76381">
        <ele>167</ele>
        <time>2022-09-05T07:22:57.000Z</time>
      </trkpt>
      <trkpt lat="49.86391" lon="4.76381">
        <ele>168</ele>
        <time>2022-09-05T07:22:58.000Z</time>
      </trkpt>
      <trkpt lat="49.86393" lon="4.76382">
        <ele>168</ele>
        <time>2022-09-05T07:22:59.000Z</time>
      </trkpt>
      <trkpt lat="49.86395" lon="4.76382">
        <ele>168</ele>
        <time>2022-09-05T07:23:00.000Z</time>
      </trkpt>
      <trkpt lat="49.86398" lon="4.76383">
        <ele>169</ele>
        <time>2022-09-05T07:23:01.000Z</time>
      </trkpt>
      <trkpt lat="49.864" lon="4.76383">
        <ele>169</ele>
        <time>2022-09-05T07:23:02.000Z</time>
      </trkpt>
      <trkpt lat="49.86402" lon="4.76384">
        <ele>169</ele>
        <time>2022-09-05T07:23:03.000Z</time>
      </trkpt>
      <trkpt lat="49.86404" lon="4.76385">
        <ele>169</ele>
        <time>2022-09-05T07:23:04.000Z</time>
      </trkpt>
      <trkpt lat="49.86406" lon="4.76385">
        <ele>170</ele>
        <time>2022-09-05T07:23:05.000Z</time>
      </trkpt>
      <trkpt lat="49.86408" lon="4.76386">
        <ele>170</ele>
        <time>2022-09-05T07:23:06.000Z</time>
      </trkpt>
      <trkpt lat="49.8641" lon="4.76387">
        <ele>170</ele>
        <time>2022-09-05T07:23:07.000Z</time>
      </trkpt>
      <trkpt lat="49.86412" lon="4.76388">
        <ele>170</ele>
        <time>2022-09-05T07:23:08.000Z</time>
      </trkpt>
      <trkpt lat="49.86414" lon="4.76388">
        <ele>171</ele>
        <time>2022-09-05T07:23:09.000Z</time>
      </trkpt>
      <trkpt lat="49.86415" lon="4.76389">
        <ele>171</ele>
        <time>2022-09-05T07:23:10.000Z</time>
      </trkpt>
      <trkpt lat="49.86417" lon="4.7639">
        <ele>171</ele>
        <time>2022-09-05T07:23:11.000Z</time>
      </trkpt>
      <trkpt lat="49.86418" lon="4.76391">
        <ele>171</ele>
        <time>2022-09-05T07:23:12.000Z</time>
      </trkpt>
      <trkpt lat="49.8642" lon="4.76392">
        <ele>171</ele>
        <time>2022-09-05T07:23:13.000Z</time>
      </trkpt>
      <trkpt lat="49.86421" lon="4.76393">
        <ele>171</ele>
        <time>2022-09-05T07:23:14.000Z</time>
      </trkpt>
      <trkpt lat="49.86423" lon="4.76394">
        <ele>172</ele>
        <time>2022-09-05T07:23:15.000Z</time>
      </trkpt>
      <trkpt lat="49.86424" lon="4.76394">
        <ele>172</ele>
        <time>2022-09-05T07:23:16.000Z</time>
      </trkpt>
      <trkpt lat="49.86425" lon="4.76395">
        <ele>172</ele>
        <time>2022-09-05T07:23:17.000Z</time>
      </trkpt>
      <trkpt lat="49.86426" lon="4.76394">
        <ele>172</ele>
        <time>2022-09-05T07:23:18.000Z</time>
      </trkpt>
      <trkpt lat="49.86428" lon="4.76395">
        <ele>172</ele>
        <time>2022-09-05T07:23:19.000Z</time>
      </trkpt>
      <trkpt lat="49.8643" lon="4.76395">
        <ele>172</ele>
        <time>2022-09-05T07:23:20.000Z</time>
      </trkpt>
      <trkpt lat="49.86432" lon="4.76395">
        <ele>173</ele>
        <time>2022-09-05T07:23:21.000Z</time>
      </trkpt>
      <trkpt lat="49.86433" lon="4.76395">
        <ele>173</ele>
        <time>2022-09-05T07:23:22.000Z</time>
      </trkpt>
      <trkpt lat="49.86435" lon="4.76395">
        <ele>173</ele>
        <time>2022-09-05T07:23:23.000Z</time>
      </trkpt>
      <trkpt lat="49.86436" lon="4.76394">
        <ele>174</ele>
        <time>2022-09-05T07:23:24.000Z</time>
      </trkpt>
      <trkpt lat="49.86438" lon="4.76395">
        <ele>174</ele>
        <time>2022-09-05T07:23:25.000Z</time>
      </trkpt>
      <trkpt lat="49.86439" lon="4.76395">
        <ele>174</ele>
        <time>2022-09-05T07:23:26.000Z</time>
      </trkpt>
      <trkpt lat="49.8644" lon="4.76395">
        <ele>175</ele>
        <time>2022-09-05T07:23:27.000Z</time>
      </trkpt>
      <trkpt lat="49.86441" lon="4.76394">
        <ele>175</ele>
        <time>2022-09-05T07:23:28.000Z</time>
      </trkpt>
      <trkpt lat="49.86442" lon="4.76394">
        <ele>175</ele>
        <time>2022-09-05T07:23:29.000Z</time>
      </trkpt>
      <trkpt lat="49.86443" lon="4.76393">
        <ele>176</ele>
        <time>2022-09-05T07:23:30.000Z</time>
      </trkpt>
      <trkpt lat="49.86445" lon="4.76392">
        <ele>176</ele>
        <time>2022-09-05T07:23:31.000Z</time>
      </trkpt>
      <trkpt lat="49.86446" lon="4.76391">
        <ele>177</ele>
        <time>2022-09-05T07:23:32.000Z</time>
      </trkpt>
      <trkpt lat="49.86448" lon="4.7639">
        <ele>177</ele>
        <time>2022-09-05T07:23:33.000Z</time>
      </trkpt>
      <trkpt lat="49.8645" lon="4.76389">
        <ele>177</ele>
        <time>2022-09-05T07:23:34.000Z</time>
      </trkpt>
      <trkpt lat="49.86451" lon="4.76389">
        <ele>178</ele>
        <time>2022-09-05T07:23:35.000Z</time>
      </trkpt>
      <trkpt lat="49.86453" lon="4.76388">
        <ele>178</ele>
        <time>2022-09-05T07:23:36.000Z</time>
      </trkpt>
      <trkpt lat="49.86454" lon="4.76388">
        <ele>179</ele>
        <time>2022-09-05T07:23:37.000Z</time>
      </trkpt>
      <trkpt lat="49.86455" lon="4.76387">
        <ele>179</ele>
        <time>2022-09-05T07:23:38.000Z</time>
      </trkpt>
      <trkpt lat="49.86456" lon="4.76386">
        <ele>180</ele>
        <time>2022-09-05T07:23:39.000Z</time>
      </trkpt>
      <trkpt lat="49.86458" lon="4.76385">
        <ele>181</ele>
        <time>2022-09-05T07:23:40.000Z</time>
      </trkpt>
      <trkpt lat="49.86459" lon="4.76384">
        <ele>181</ele>
        <time>2022-09-05T07:23:41.000Z</time>
      </trkpt>
      <trkpt lat="49.8646" lon="4.76383">
        <ele>182</ele>
        <time>2022-09-05T07:23:42.000Z</time>
      </trkpt>
      <trkpt lat="49.86462" lon="4.76383">
        <ele>182</ele>
        <time>2022-09-05T07:23:43.000Z</time>
      </trkpt>
      <trkpt lat="49.86463" lon="4.76382">
        <ele>183</ele>
        <time>2022-09-05T07:23:44.000Z</time>
      </trkpt>
      <trkpt lat="49.86463" lon="4.76381">
        <ele>183</ele>
        <time>2022-09-05T07:23:45.000Z</time>
      </trkpt>
      <trkpt lat="49.86463" lon="4.76382">
        <ele>184</ele>
        <time>2022-09-05T07:23:46.000Z</time>
      </trkpt>
      <trkpt lat="49.86463" lon="4.76381">
        <ele>184</ele>
        <time>2022-09-05T07:23:47.000Z</time>
      </trkpt>
      <trkpt lat="49.86463" lon="4.76382">
        <ele>185</ele>
        <time>2022-09-05T07:23:48.000Z</time>
      </trkpt>
      <trkpt lat="49.86463" lon="4.76382">
        <ele>185</ele>
        <time>2022-09-05T07:23:49.000Z</time>
      </trkpt>
      <trkpt lat="49.86463" lon="4.76382">
        <ele>186</ele>
        <time>2022-09-05T07:23:50.000Z</time>
      </trkpt>
      <trkpt lat="49.86463" lon="4.76382">
        <ele>186</ele>
        <time>2022-09-05T07:23:51.000Z</time>
      </trkpt>
      <trkpt lat="49.86462" lon="4.76382">
        <ele>186</ele>
        <time>2022-09-05T07:23:52.000Z</time>
      </trkpt>
      <trkpt lat="49.86461" lon="4.76383">
        <ele>187</ele>
        <time>2022-09-05T07:23:53.000Z</time>
      </trkpt>
      <trkpt lat="49.86459" lon="4.76384">
        <ele>187</ele>
        <time>2022-09-05T07:23:54.000Z</time>
      </trkpt>
      <trkpt lat="49.86457" lon="4.76385">
        <ele>187</ele>
        <time>2022-09-05T07:23:55.000Z</time>
      </trkpt>
      <trkpt lat="49.86455" lon="4.76386">
        <ele>188</ele>
        <time>2022-09-05T07:23:56.000Z</time>
      </trkpt>
      <trkpt lat="49.86453" lon="4.76387">
        <ele>188</ele>
        <time>2022-09-05T07:23:57.000Z</time>
      </trkpt>
      <trkpt lat="49.8645" lon="4.76388">
        <ele>188</ele>
        <time>2022-09-05T07:23:58.000Z</time>
      </trkpt>
      <trkpt lat="49.86448" lon="4.76389">
        <ele>188</ele>
        <time>2022-09-05T07:23:59.000Z</time>
      </trkpt>
      <trkpt lat="49.86446" lon="4.7639">
        <ele>189</ele>
        <time>2022-09-05T07:24:00.000Z</time>
      </trkpt>
      <trkpt lat="49.86444" lon="4.7639">
        <ele>189</ele>
        <time>2022-09-05T07:24:01.000Z</time>
      </trkpt>
      <trkpt lat="49.86442" lon="4.76391">
        <ele>189</ele>
        <time>2022-09-05T07:24:02.000Z</time>
      </trkpt>
      <trkpt lat="49.8644" lon="4.76392">
        <ele>189</ele>
        <time>2022-09-05T07:24:03.000Z</time>
      </trkpt>
      <trkpt lat="49.86437" lon="4.76392">
        <ele>189</ele>
        <time>2022-09-05T07:24:04.000Z</time>
      </trkpt>
      <trkpt lat="49.86433" lon="4.76392">
        <ele>189</ele>
        <time>2022-09-05T07:24:05.000Z</time>
      </trkpt>
      <trkpt lat="49.8643" lon="4.76392">
        <ele>189</ele>
        <time>2022-09-05T07:24:06.000Z</time>
      </trkpt>
      <trkpt lat="49.86426" lon="4.76392">
        <ele>189</ele>
        <time>2022-09-05T07:24:07.000Z</time>
      </trkpt>
      <trkpt lat="49.86422" lon="4.76391">
        <ele>189</ele>
        <time>2022-09-05T07:24:08.000Z</time>
      </trkpt>
      <trkpt lat="49.86419" lon="4.7639">
        <ele>189</ele>
        <time>2022-09-05T07:24:09.000Z</time>
      </trkpt>
      <trkpt lat="49.86415" lon="4.76388">
        <ele>189</ele>
        <time>2022-09-05T07:24:10.000Z</time>
      </trkpt>
      <trkpt lat="49.86411" lon="4.76386">
        <ele>189</ele>
        <time>2022-09-05T07:24:11.000Z</time>
      </trkpt>
      <trkpt lat="49.86407" lon="4.76384">
        <ele>189</ele>
        <time>2022-09-05T07:24:12.000Z</time>
      </trkpt>
      <trkpt lat="49.86403" lon="4.76383">
        <ele>188</ele>
        <time>2022-09-05T07:24:13.000Z</time>
      </trkpt>
      <trkpt lat="49.864" lon="4.76382">
        <ele>188</ele>
        <time>2022-09-05T07:24:14.000Z</time>
      </trkpt>
      <trkpt lat="49.86396" lon="4.76381">
        <ele>187</ele>
        <time>2022-09-05T07:24:15.000Z</time>
      </trkpt>
      <trkpt lat="49.86392" lon="4.7638">
        <ele>187</ele>
        <time>2022-09-05T07:24:16.000Z</time>
      </trkpt>
      <trkpt lat="49.86389" lon="4.76379">
        <ele>186</ele>
        <time>2022-09-05T07:24:17.000Z</time>
      </trkpt>
      <trkpt lat="49.86385" lon="4.76379">
        <ele>185</ele>
        <time>2022-09-05T07:24:18.000Z</time>
      </trkpt>
      <trkpt lat="49.86381" lon="4.76378">
        <ele>185</ele>
        <time>2022-09-05T07:24:19.000Z</time>
      </trkpt>
      <trkpt lat="49.86378" lon="4.76377">
        <ele>184</ele>
        <time>2022-09-05T07:24:20.000Z</time>
      </trkpt>
      <trkpt lat="49.86375" lon="4.76377">
        <ele>183</ele>
        <time>2022-09-05T07:24:21.000Z</time>
      </trkpt>
      <trkpt lat="49.86373" lon="4.76377">
        <ele>183</ele>
        <time>2022-09-05T07:24:22.000Z</time>
      </trkpt>
      <trkpt lat="49.8637" lon="4.76376">
        <ele>182</ele>
        <time>2022-09-05T07:24:23.000Z</time>
      </trkpt>
      <trkpt lat="49.86367" lon="4.76375">
        <ele>182</ele>
        <time>2022-09-05T07:24:24.000Z</time>
      </trkpt>
      <trkpt lat="49.86365" lon="4.76374">
        <ele>181</ele>
        <time>2022-09-05T07:24:25.000Z</time>
      </trkpt>
      <trkpt lat="49.86364" lon="4.76372">
        <ele>181</ele>
        <time>2022-09-05T07:24:26.000Z</time>
      </trkpt>
      <trkpt lat="49.86364" lon="4.7637">
        <ele>180</ele>
        <time>2022-09-05T07:24:27.000Z</time>
      </trkpt>
      <trkpt lat="49.86365" lon="4.76369">
        <ele>180</ele>
        <time>2022-09-05T07:24:28.000Z</time>
      </trkpt>
      <trkpt lat="49.86366" lon="4.76368">
        <ele>179</ele>
        <time>2022-09-05T07:24:29.000Z</time>
      </trkpt>
      <trkpt lat="49.86367" lon="4.76368">
        <ele>179</ele>
        <time>2022-09-05T07:24:30.000Z</time>
      </trkpt>
      <trkpt lat="49.86369" lon="4.76367">
        <ele>178</ele>
        <time>2022-09-05T07:24:31.000Z</time>
      </trkpt>
      <trkpt lat="49.86369" lon="4.76367">
        <ele>178</ele>
        <time>2022-09-05T07:24:32.000Z</time>
      </trkpt>
      <trkpt lat="49.8637" lon="4.76367">
        <ele>178</ele>
        <time>2022-09-05T07:24:33.000Z</time>
      </trkpt>
      <trkpt lat="49.8637" lon="4.76367">
        <ele>177</ele>
        <time>2022-09-05T07:24:34.000Z</time>
      </trkpt>
      <trkpt lat="49.8637" lon="4.76367">
        <ele>177</ele>
        <time>2022-09-05T07:24:35.000Z</time>
      </trkpt>
      <trkpt lat="49.86369" lon="4.76367">
        <ele>177</ele>
        <time>2022-09-05T07:24:36.000Z</time>
      </trkpt>
      <trkpt lat="49.86369" lon="4.76368">
        <ele>177</ele>
        <time>2022-09-05T07:24:37.000Z</time>
      </trkpt>
      <trkpt lat="49.86368" lon="4.76368">
        <ele>176</ele>
        <time>2022-09-05T07:24:38.000Z</time>
      </trkpt>
      <trkpt lat="49.86366" lon="4.76369">
        <ele>176</ele>
        <time>2022-09-05T07:24:39.000Z</time>
      </trkpt>
      <trkpt lat="49.86365" lon="4.7637">
        <ele>176</ele>
        <time>2022-09-05T07:24:40.000Z</time>
      </trkpt>
      <trkpt lat="49.86365" lon="4.76371">
        <ele>176</ele>
        <time>2022-09-05T07:24:41.000Z</time>
      </trkpt>
      <trkpt lat="49.86364" lon="4.76371">
        <ele>176</ele>
        <time>2022-09-05T07:24:42.000Z</time>
      </trkpt>
      <trkpt lat="49.86363" lon="4.76372">
        <ele>175</ele>
        <time>2022-09-05T07:24:43.000Z</time>
      </trkpt>
      <trkpt lat="49.86362" lon="4.76371">
        <ele>175</ele>
        <time>2022-09-05T07:24:44.000Z</time>
      </trkpt>
      <trkpt lat="49.8636" lon="4.76371">
        <ele>175</ele>
        <time>2022-09-05T07:24:45.000Z</time>
      </trkpt>
      <trkpt lat="49.86357" lon="4.7637">
        <ele>174</ele>
        <time>2022-09-05T07:24:46.000Z</time>
      </trkpt>
      <trkpt lat="49.86353" lon="4.76368">
        <ele>174</ele>
        <time>2022-09-05T07:24:47.000Z</time>
      </trkpt>
      <trkpt lat="49.86349" lon="4.76365">
        <ele>174</ele>
        <time>2022-09-05T07:24:48.000Z</time>
      </trkpt>
      <trkpt lat="49.86344" lon="4.76362">
        <ele>173</ele>
        <time>2022-09-05T07:24:49.000Z</time>
      </trkpt>
      <trkpt lat="49.86339" lon="4.76359">
        <ele>173</ele>
        <time>2022-09-05T07:24:50.000Z</time>
      </trkpt>
      <trkpt lat="49.86333" lon="4.76355">
        <ele>172</ele>
        <time>2022-09-05T07:24:51.000Z</time>
      </trkpt>
      <trkpt lat="49.86328" lon="4.76351">
        <ele>172</ele>
        <time>2022-09-05T07:24:52.000Z</time>
      </trkpt>
      <trkpt lat="49.86322" lon="4.76346">
        <ele>171</ele>
        <time>2022-09-05T07:24:53.000Z</time>
      </trkpt>
      <trkpt lat="49.86317" lon="4.76341">
        <ele>170</ele>
        <time>2022-09-05T07:24:54.000Z</time>
      </trkpt>
      <trkpt lat="49.86311" lon="4.76334">
        <ele>169</ele>
        <time>2022-09-05T07:24:55.000Z</time>
      </trkpt>
      <trkpt lat="49.86305" lon="4.76327">
        <ele>168</ele>
        <time>2022-09-05T07:24:56.000Z</time>
      </trkpt>
      <trkpt lat="49.86299" lon="4.7632">
        <ele>167</ele>
        <time>2022-09-05T07:24:57.000Z</time>
      </trkpt>
      <trkpt lat="49.86293" lon="4.76313">
        <ele>166</ele>
        <time>2022-09-05T07:24:58.000Z</time>
      </trkpt>
      <trkpt lat="49.86287" lon="4.76306">
        <ele>165</ele>
        <time>2022-09-05T07:24:59.000Z</time>
      </trkpt>
      <trkpt lat="49.86281" lon="4.76298">
        <ele>164</ele>
        <time>2022-09-05T07:25:00.000Z</time>
      </trkpt>
      <trkpt lat="49.86275" lon="4.7629">
        <ele>163</ele>
        <time>2022-09-05T07:25:01.000Z</time>
      </trkpt>
      <trkpt lat="49.86269" lon="4.76283">
        <ele>162</ele>
        <time>2022-09-05T07:25:02.000Z</time>
      </trkpt>
      <trkpt lat="49.86262" lon="4.76276">
        <ele>161</ele>
        <time>2022-09-05T07:25:03.000Z</time>
      </trkpt>
      <trkpt lat="49.86255" lon="4.76268">
        <ele>160</ele>
        <time>2022-09-05T07:25:04.000Z</time>
      </trkpt>
      <trkpt lat="49.86248" lon="4.76261">
        <ele>160</ele>
        <time>2022-09-05T07:25:05.000Z</time>
      </trkpt>
      <trkpt lat="49.86241" lon="4.76253">
        <ele>159</ele>
        <time>2022-09-05T07:25:06.000Z</time>
      </trkpt>
      <trkpt lat="49.86234" lon="4.76245">
        <ele>158</ele>
        <time>2022-09-05T07:25:07.000Z</time>
      </trkpt>
      <trkpt lat="49.86228" lon="4.76238">
        <ele>157</ele>
        <time>2022-09-05T07:25:08.000Z</time>
      </trkpt>
      <trkpt lat="49.86221" lon="4.76231">
        <ele>156</ele>
        <time>2022-09-05T07:25:09.000Z</time>
      </trkpt>
      <trkpt lat="49.86216" lon="4.76225">
        <ele>155</ele>
        <time>2022-09-05T07:25:10.000Z</time>
      </trkpt>
      <trkpt lat="49.86212" lon="4.76219">
        <ele>154</ele>
        <time>2022-09-05T07:25:11.000Z</time>
      </trkpt>
      <trkpt lat="49.86211" lon="4.76212">
        <ele>154</ele>
        <time>2022-09-05T07:25:12.000Z</time>
      </trkpt>
      <trkpt lat="49.86212" lon="4.76204">
        <ele>153</ele>
        <time>2022-09-05T07:25:13.000Z</time>
      </trkpt>
      <trkpt lat="49.86215" lon="4.76199">
        <ele>153</ele>
        <time>2022-09-05T07:25:14.000Z</time>
      </trkpt>
      <trkpt lat="49.86219" lon="4.76197">
        <ele>153</ele>
        <time>2022-09-05T07:25:15.000Z</time>
      </trkpt>
      <trkpt lat="49.86222" lon="4.76195">
        <ele>153</ele>
        <time>2022-09-05T07:25:16.000Z</time>
      </trkpt>
      <trkpt lat="49.86225" lon="4.76193">
        <ele>153</ele>
        <time>2022-09-05T07:25:17.000Z</time>
      </trkpt>
      <trkpt lat="49.86228" lon="4.76191">
        <ele>152</ele>
        <time>2022-09-05T07:25:18.000Z</time>
      </trkpt>
      <trkpt lat="49.86231" lon="4.7619">
        <ele>152</ele>
        <time>2022-09-05T07:25:19.000Z</time>
      </trkpt>
      <trkpt lat="49.86233" lon="4.76187">
        <ele>152</ele>
        <time>2022-09-05T07:25:20.000Z</time>
      </trkpt>
      <trkpt lat="49.86236" lon="4.76185">
        <ele>152</ele>
        <time>2022-09-05T07:25:21.000Z</time>
      </trkpt>
      <trkpt lat="49.86238" lon="4.76183">
        <ele>152</ele>
        <time>2022-09-05T07:25:22.000Z</time>
      </trkpt>
      <trkpt lat="49.86241" lon="4.7618">
        <ele>152</ele>
        <time>2022-09-05T07:25:23.000Z</time>
      </trkpt>
      <trkpt lat="49.86243" lon="4.76178">
        <ele>152</ele>
        <time>2022-09-05T07:25:24.000Z</time>
      </trkpt>
      <trkpt lat="49.86245" lon="4.76175">
        <ele>152</ele>
        <time>2022-09-05T07:25:25.000Z</time>
      </trkpt>
      <trkpt lat="49.86248" lon="4.76173">
        <ele>152</ele>
        <time>2022-09-05T07:25:26.000Z</time>
      </trkpt>
      <trkpt lat="49.8625" lon="4.7617">
        <ele>152</ele>
        <time>2022-09-05T07:25:27.000Z</time>
      </trkpt>
      <trkpt lat="49.86253" lon="4.76167">
        <ele>152</ele>
        <time>2022-09-05T07:25:28.000Z</time>
      </trkpt>
      <trkpt lat="49.86255" lon="4.76165">
        <ele>152</ele>
        <time>2022-09-05T07:25:29.000Z</time>
      </trkpt>
      <trkpt lat="49.86258" lon="4.76162">
        <ele>152</ele>
        <time>2022-09-05T07:25:30.000Z</time>
      </trkpt>
      <trkpt lat="49.8626" lon="4.76159">
        <ele>152</ele>
        <time>2022-09-05T07:25:31.000Z</time>
      </trkpt>
      <trkpt lat="49.86263" lon="4.76157">
        <ele>152</ele>
        <time>2022-09-05T07:25:32.000Z</time>
      </trkpt>
      <trkpt lat="49.86265" lon="4.76154">
        <ele>152</ele>
        <time>2022-09-05T07:25:33.000Z</time>
      </trkpt>
      <trkpt lat="49.86268" lon="4.76152">
        <ele>152</ele>
        <time>2022-09-05T07:25:34.000Z</time>
      </trkpt>
      <trkpt lat="49.8627" lon="4.76149">
        <ele>152</ele>
        <time>2022-09-05T07:25:35.000Z</time>
      </trkpt>
      <trkpt lat="49.86272" lon="4.76147">
        <ele>153</ele>
        <time>2022-09-05T07:25:36.000Z</time>
      </trkpt>
      <trkpt lat="49.86275" lon="4.76144">
        <ele>153</ele>
        <time>2022-09-05T07:25:37.000Z</time>
      </trkpt>
      <trkpt lat="49.86277" lon="4.76141">
        <ele>153</ele>
        <time>2022-09-05T07:25:38.000Z</time>
      </trkpt>
      <trkpt lat="49.86279" lon="4.76139">
        <ele>153</ele>
        <time>2022-09-05T07:25:39.000Z</time>
      </trkpt>
      <trkpt lat="49.86282" lon="4.76136">
        <ele>153</ele>
        <time>2022-09-05T07:25:40.000Z</time>
      </trkpt>
      <trkpt lat="49.86284" lon="4.76134">
        <ele>153</ele>
        <time>2022-09-05T07:25:41.000Z</time>
      </trkpt>
      <trkpt lat="49.86286" lon="4.76131">
        <ele>153</ele>
        <time>2022-09-05T07:25:42.000Z</time>
      </trkpt>
      <trkpt lat="49.86289" lon="4.76128">
        <ele>154</ele>
        <time>2022-09-05T07:25:43.000Z</time>
      </trkpt>
      <trkpt lat="49.86291" lon="4.76125">
        <ele>154</ele>
        <time>2022-09-05T07:25:44.000Z</time>
      </trkpt>
      <trkpt lat="49.86293" lon="4.76123">
        <ele>154</ele>
        <time>2022-09-05T07:25:45.000Z</time>
      </trkpt>
      <trkpt lat="49.86296" lon="4.7612">
        <ele>154</ele>
        <time>2022-09-05T07:25:46.000Z</time>
      </trkpt>
      <trkpt lat="49.86298" lon="4.76118">
        <ele>154</ele>
        <time>2022-09-05T07:25:47.000Z</time>
      </trkpt>
      <trkpt lat="49.863" lon="4.76115">
        <ele>155</ele>
        <time>2022-09-05T07:25:48.000Z</time>
      </trkpt>
      <trkpt lat="49.86302" lon="4.76112">
        <ele>155</ele>
        <time>2022-09-05T07:25:49.000Z</time>
      </trkpt>
      <trkpt lat="49.86305" lon="4.7611">
        <ele>155</ele>
        <time>2022-09-05T07:25:50.000Z</time>
      </trkpt>
      <trkpt lat="49.86307" lon="4.76108">
        <ele>155</ele>
        <time>2022-09-05T07:25:51.000Z</time>
      </trkpt>
      <trkpt lat="49.86309" lon="4.76105">
        <ele>156</ele>
        <time>2022-09-05T07:25:52.000Z</time>
      </trkpt>
      <trkpt lat="49.86312" lon="4.76103">
        <ele>156</ele>
        <time>2022-09-05T07:25:53.000Z</time>
      </trkpt>
      <trkpt lat="49.86314" lon="4.76101">
        <ele>156</ele>
        <time>2022-09-05T07:25:54.000Z</time>
      </trkpt>
      <trkpt lat="49.86316" lon="4.76098">
        <ele>156</ele>
        <time>2022-09-05T07:25:55.000Z</time>
      </trkpt>
      <trkpt lat="49.86319" lon="4.76095">
        <ele>156</ele>
        <time>2022-09-05T07:25:56.000Z</time>
      </trkpt>
      <trkpt lat="49.86321" lon="4.76093">
        <ele>157</ele>
        <time>2022-09-05T07:25:57.000Z</time>
      </trkpt>
      <trkpt lat="49.86323" lon="4.7609">
        <ele>157</ele>
        <time>2022-09-05T07:25:58.000Z</time>
      </trkpt>
      <trkpt lat="49.86326" lon="4.76088">
        <ele>157</ele>
        <time>2022-09-05T07:25:59.000Z</time>
      </trkpt>
      <trkpt lat="49.86328" lon="4.76085">
        <ele>157</ele>
        <time>2022-09-05T07:26:00.000Z</time>
      </trkpt>
      <trkpt lat="49.8633" lon="4.76083">
        <ele>158</ele>
        <time>2022-09-05T07:26:01.000Z</time>
      </trkpt>
      <trkpt lat="49.86332" lon="4.7608">
        <ele>158</ele>
        <time>2022-09-05T07:26:02.000Z</time>
      </trkpt>
      <trkpt lat="49.86335" lon="4.76078">
        <ele>158</ele>
        <time>2022-09-05T07:26:03.000Z</time>
      </trkpt>
      <trkpt lat="49.86337" lon="4.76076">
        <ele>158</ele>
        <time>2022-09-05T07:26:04.000Z</time>
      </trkpt>
      <trkpt lat="49.86339" lon="4.76073">
        <ele>159</ele>
        <time>2022-09-05T07:26:05.000Z</time>
      </trkpt>
      <trkpt lat="49.86341" lon="4.76071">
        <ele>159</ele>
        <time>2022-09-05T07:26:06.000Z</time>
      </trkpt>
      <trkpt lat="49.86343" lon="4.76069">
        <ele>159</ele>
        <time>2022-09-05T07:26:07.000Z</time>
      </trkpt>
      <trkpt lat="49.86344" lon="4.76067">
        <ele>159</ele>
        <time>2022-09-05T07:26:08.000Z</time>
      </trkpt>
      <trkpt lat="49.86346" lon="4.76065">
        <ele>160</ele>
        <time>2022-09-05T07:26:09.000Z</time>
      </trkpt>
      <trkpt lat="49.86348" lon="4.76063">
        <ele>160</ele>
        <time>2022-09-05T07:26:10.000Z</time>
      </trkpt>
      <trkpt lat="49.8635" lon="4.7606">
        <ele>160</ele>
        <time>2022-09-05T07:26:11.000Z</time>
      </trkpt>
      <trkpt lat="49.86352" lon="4.76058">
        <ele>160</ele>
        <time>2022-09-05T07:26:12.000Z</time>
      </trkpt>
      <trkpt lat="49.86353" lon="4.76055">
        <ele>161</ele>
        <time>2022-09-05T07:26:13.000Z</time>
      </trkpt>
      <trkpt lat="49.86355" lon="4.76053">
        <ele>161</ele>
        <time>2022-09-05T07:26:14.000Z</time>
      </trkpt>
      <trkpt lat="49.86357" lon="4.7605">
        <ele>161</ele>
        <time>2022-09-05T07:26:15.000Z</time>
      </trkpt>
      <trkpt lat="49.86359" lon="4.76048">
        <ele>161</ele>
        <time>2022-09-05T07:26:16.000Z</time>
      </trkpt>
      <trkpt lat="49.8636" lon="4.76045">
        <ele>162</ele>
        <time>2022-09-05T07:26:17.000Z</time>
      </trkpt>
      <trkpt lat="49.86362" lon="4.76043">
        <ele>162</ele>
        <time>2022-09-05T07:26:18.000Z</time>
      </trkpt>
      <trkpt lat="49.86363" lon="4.7604">
        <ele>162</ele>
        <time>2022-09-05T07:26:19.000Z</time>
      </trkpt>
      <trkpt lat="49.86365" lon="4.76038">
        <ele>162</ele>
        <time>2022-09-05T07:26:20.000Z</time>
      </trkpt>
      <trkpt lat="49.86367" lon="4.76035">
        <ele>162</ele>
        <time>2022-09-05T07:26:21.000Z</time>
      </trkpt>
      <trkpt lat="49.86368" lon="4.76032">
        <ele>163</ele>
        <time>2022-09-05T07:26:22.000Z</time>
      </trkpt>
      <trkpt lat="49.86369" lon="4.7603">
        <ele>163</ele>
        <time>2022-09-05T07:26:23.000Z</time>
      </trkpt>
      <trkpt lat="49.86371" lon="4.76027">
        <ele>163</ele>
        <time>2022-09-05T07:26:24.000Z</time>
      </trkpt>
      <trkpt lat="49.86372" lon="4.76024">
        <ele>163</ele>
        <time>2022-09-05T07:26:25.000Z</time>
      </trkpt>
      <trkpt lat="49.86374" lon="4.76021">
        <ele>164</ele>
        <time>2022-09-05T07:26:26.000Z</time>
      </trkpt>
      <trkpt lat="49.86375" lon="4.76019">
        <ele>164</ele>
        <time>2022-09-05T07:26:27.000Z</time>
      </trkpt>
      <trkpt lat="49.86376" lon="4.76016">
        <ele>164</ele>
        <time>2022-09-05T07:26:28.000Z</time>
      </trkpt>
      <trkpt lat="49.86378" lon="4.76013">
        <ele>164</ele>
        <time>2022-09-05T07:26:29.000Z</time>
      </trkpt>
      <trkpt lat="49.86379" lon="4.76011">
        <ele>164</ele>
        <time>2022-09-05T07:26:30.000Z</time>
      </trkpt>
      <trkpt lat="49.86381" lon="4.76009">
        <ele>164</ele>
        <time>2022-09-05T07:26:31.000Z</time>
      </trkpt>
      <trkpt lat="49.86382" lon="4.76006">
        <ele>165</ele>
        <time>2022-09-05T07:26:32.000Z</time>
      </trkpt>
      <trkpt lat="49.86384" lon="4.76004">
        <ele>165</ele>
        <time>2022-09-05T07:26:33.000Z</time>
      </trkpt>
      <trkpt lat="49.86385" lon="4.76001">
        <ele>165</ele>
        <time>2022-09-05T07:26:34.000Z</time>
      </trkpt>
      <trkpt lat="49.86386" lon="4.75999">
        <ele>165</ele>
        <time>2022-09-05T07:26:35.000Z</time>
      </trkpt>
      <trkpt lat="49.86388" lon="4.75996">
        <ele>166</ele>
        <time>2022-09-05T07:26:36.000Z</time>
      </trkpt>
      <trkpt lat="49.86389" lon="4.75994">
        <ele>166</ele>
        <time>2022-09-05T07:26:37.000Z</time>
      </trkpt>
      <trkpt lat="49.86391" lon="4.75991">
        <ele>166</ele>
        <time>2022-09-05T07:26:38.000Z</time>
      </trkpt>
      <trkpt lat="49.86392" lon="4.75988">
        <ele>166</ele>
        <time>2022-09-05T07:26:39.000Z</time>
      </trkpt>
      <trkpt lat="49.86394" lon="4.75986">
        <ele>167</ele>
        <time>2022-09-05T07:26:40.000Z</time>
      </trkpt>
      <trkpt lat="49.86395" lon="4.75984">
        <ele>167</ele>
        <time>2022-09-05T07:26:41.000Z</time>
      </trkpt>
      <trkpt lat="49.86397" lon="4.75981">
        <ele>167</ele>
        <time>2022-09-05T07:26:42.000Z</time>
      </trkpt>
      <trkpt lat="49.86398" lon="4.75979">
        <ele>167</ele>
        <time>2022-09-05T07:26:43.000Z</time>
      </trkpt>
      <trkpt lat="49.86399" lon="4.75976">
        <ele>168</ele>
        <time>2022-09-05T07:26:44.000Z</time>
      </trkpt>
      <trkpt lat="49.86401" lon="4.75974">
        <ele>168</ele>
        <time>2022-09-05T07:26:45.000Z</time>
      </trkpt>
      <trkpt lat="49.86402" lon="4.75971">
        <ele>168</ele>
        <time>2022-09-05T07:26:46.000Z</time>
      </trkpt>
      <trkpt lat="49.86403" lon="4.75969">
        <ele>168</ele>
        <time>2022-09-05T07:26:47.000Z</time>
      </trkpt>
      <trkpt lat="49.86405" lon="4.75967">
        <ele>169</ele>
        <time>2022-09-05T07:26:48.000Z</time>
      </trkpt>
      <trkpt lat="49.86407" lon="4.75965">
        <ele>169</ele>
        <time>2022-09-05T07:26:49.000Z</time>
      </trkpt>
      <trkpt lat="49.86408" lon="4.75963">
        <ele>169</ele>
        <time>2022-09-05T07:26:50.000Z</time>
      </trkpt>
      <trkpt lat="49.8641" lon="4.75961">
        <ele>170</ele>
        <time>2022-09-05T07:26:51.000Z</time>
      </trkpt>
      <trkpt lat="49.86411" lon="4.75959">
        <ele>170</ele>
        <time>2022-09-05T07:26:52.000Z</time>
      </trkpt>
      <trkpt lat="49.86413" lon="4.75957">
        <ele>171</ele>
        <time>2022-09-05T07:26:53.000Z</time>
      </trkpt>
      <trkpt lat="49.86414" lon="4.75955">
        <ele>171</ele>
        <time>2022-09-05T07:26:54.000Z</time>
      </trkpt>
      <trkpt lat="49.86416" lon="4.75954">
        <ele>171</ele>
        <time>2022-09-05T07:26:55.000Z</time>
      </trkpt>
      <trkpt lat="49.86418" lon="4.75952">
        <ele>172</ele>
        <time>2022-09-05T07:26:56.000Z</time>
      </trkpt>
      <trkpt lat="49.8642" lon="4.7595">
        <ele>172</ele>
        <time>2022-09-05T07:26:57.000Z</time>
      </trkpt>
      <trkpt lat="49.86421" lon="4.75949">
        <ele>172</ele>
        <time>2022-09-05T07:26:58.000Z</time>
      </trkpt>
      <trkpt lat="49.86423" lon="4.75948">
        <ele>173</ele>
        <time>2022-09-05T07:26:59.000Z</time>
      </trkpt>
      <trkpt lat="49.86425" lon="4.75947">
        <ele>173</ele>
        <time>2022-09-05T07:27:00.000Z</time>
      </trkpt>
      <trkpt lat="49.86427" lon="4.75946">
        <ele>173</ele>
        <time>2022-09-05T07:27:01.000Z</time>
      </trkpt>
      <trkpt lat="49.86429" lon="4.75945">
        <ele>174</ele>
        <time>2022-09-05T07:27:02.000Z</time>
      </trkpt>
      <trkpt lat="49.86431" lon="4.75944">
        <ele>174</ele>
        <time>2022-09-05T07:27:03.000Z</time>
      </trkpt>
      <trkpt lat="49.86433" lon="4.75944">
        <ele>174</ele>
        <time>2022-09-05T07:27:04.000Z</time>
      </trkpt>
      <trkpt lat="49.86435" lon="4.75943">
        <ele>174</ele>
        <time>2022-09-05T07:27:05.000Z</time>
      </trkpt>
      <trkpt lat="49.86438" lon="4.75943">
        <ele>175</ele>
        <time>2022-09-05T07:27:06.000Z</time>
      </trkpt>
      <trkpt lat="49.86439" lon="4.75944">
        <ele>175</ele>
        <time>2022-09-05T07:27:07.000Z</time>
      </trkpt>
      <trkpt lat="49.86441" lon="4.75946">
        <ele>175</ele>
        <time>2022-09-05T07:27:08.000Z</time>
      </trkpt>
      <trkpt lat="49.86443" lon="4.75947">
        <ele>175</ele>
        <time>2022-09-05T07:27:09.000Z</time>
      </trkpt>
      <trkpt lat="49.86444" lon="4.75948">
        <ele>176</ele>
        <time>2022-09-05T07:27:10.000Z</time>
      </trkpt>
      <trkpt lat="49.86446" lon="4.7595">
        <ele>176</ele>
        <time>2022-09-05T07:27:11.000Z</time>
      </trkpt>
      <trkpt lat="49.86447" lon="4.75952">
        <ele>176</ele>
        <time>2022-09-05T07:27:12.000Z</time>
      </trkpt>
      <trkpt lat="49.86449" lon="4.75954">
        <ele>176</ele>
        <time>2022-09-05T07:27:13.000Z</time>
      </trkpt>
      <trkpt lat="49.86451" lon="4.75956">
        <ele>177</ele>
        <time>2022-09-05T07:27:14.000Z</time>
      </trkpt>
      <trkpt lat="49.86452" lon="4.75957">
        <ele>177</ele>
        <time>2022-09-05T07:27:15.000Z</time>
      </trkpt>
      <trkpt lat="49.86454" lon="4.75959">
        <ele>177</ele>
        <time>2022-09-05T07:27:16.000Z</time>
      </trkpt>
      <trkpt lat="49.86456" lon="4.7596">
        <ele>178</ele>
        <time>2022-09-05T07:27:17.000Z</time>
      </trkpt>
      <trkpt lat="49.86457" lon="4.75962">
        <ele>178</ele>
        <time>2022-09-05T07:27:18.000Z</time>
      </trkpt>
      <trkpt lat="49.86459" lon="4.75964">
        <ele>178</ele>
        <time>2022-09-05T07:27:19.000Z</time>
      </trkpt>
      <trkpt lat="49.8646" lon="4.75966">
        <ele>178</ele>
        <time>2022-09-05T07:27:20.000Z</time>
      </trkpt>
      <trkpt lat="49.86462" lon="4.75968">
        <ele>179</ele>
        <time>2022-09-05T07:27:21.000Z</time>
      </trkpt>
      <trkpt lat="49.86463" lon="4.7597">
        <ele>179</ele>
        <time>2022-09-05T07:27:22.000Z</time>
      </trkpt>
      <trkpt lat="49.86465" lon="4.75972">
        <ele>179</ele>
        <time>2022-09-05T07:27:23.000Z</time>
      </trkpt>
      <trkpt lat="49.86466" lon="4.75974">
        <ele>180</ele>
        <time>2022-09-05T07:27:24.000Z</time>
      </trkpt>
      <trkpt lat="49.86468" lon="4.75977">
        <ele>180</ele>
        <time>2022-09-05T07:27:25.000Z</time>
      </trkpt>
      <trkpt lat="49.86469" lon="4.75979">
        <ele>180</ele>
        <time>2022-09-05T07:27:26.000Z</time>
      </trkpt>
      <trkpt lat="49.86471" lon="4.75981">
        <ele>181</ele>
        <time>2022-09-05T07:27:27.000Z</time>
      </trkpt>
      <trkpt lat="49.86472" lon="4.75983">
        <ele>181</ele>
        <time>2022-09-05T07:27:28.000Z</time>
      </trkpt>
      <trkpt lat="49.86474" lon="4.75985">
        <ele>181</ele>
        <time>2022-09-05T07:27:29.000Z</time>
      </trkpt>
      <trkpt lat="49.86475" lon="4.75987">
        <ele>182</ele>
        <time>2022-09-05T07:27:30.000Z</time>
      </trkpt>
      <trkpt lat="49.86477" lon="4.75989">
        <ele>182</ele>
        <time>2022-09-05T07:27:31.000Z</time>
      </trkpt>
      <trkpt lat="49.86478" lon="4.75991">
        <ele>182</ele>
        <time>2022-09-05T07:27:32.000Z</time>
      </trkpt>
      <trkpt lat="49.8648" lon="4.75993">
        <ele>182</ele>
        <time>2022-09-05T07:27:33.000Z</time>
      </trkpt>
      <trkpt lat="49.86481" lon="4.75995">
        <ele>183</ele>
        <time>2022-09-05T07:27:34.000Z</time>
      </trkpt>
      <trkpt lat="49.86483" lon="4.75997">
        <ele>183</ele>
        <time>2022-09-05T07:27:35.000Z</time>
      </trkpt>
      <trkpt lat="49.86485" lon="4.75999">
        <ele>183</ele>
        <time>2022-09-05T07:27:36.000Z</time>
      </trkpt>
      <trkpt lat="49.86486" lon="4.76002">
        <ele>184</ele>
        <time>2022-09-05T07:27:37.000Z</time>
      </trkpt>
      <trkpt lat="49.86487" lon="4.76004">
        <ele>184</ele>
        <time>2022-09-05T07:27:38.000Z</time>
      </trkpt>
      <trkpt lat="49.86489" lon="4.76006">
        <ele>184</ele>
        <time>2022-09-05T07:27:39.000Z</time>
      </trkpt>
      <trkpt lat="49.8649" lon="4.76008">
        <ele>184</ele>
        <time>2022-09-05T07:27:40.000Z</time>
      </trkpt>
      <trkpt lat="49.86492" lon="4.76011">
        <ele>185</ele>
        <time>2022-09-05T07:27:41.000Z</time>
      </trkpt>
      <trkpt lat="49.86493" lon="4.76013">
        <ele>185</ele>
        <time>2022-09-05T07:27:42.000Z</time>
      </trkpt>
      <trkpt lat="49.86495" lon="4.76015">
        <ele>185</ele>
        <time>2022-09-05T07:27:43.000Z</time>
      </trkpt>
      <trkpt lat="49.86496" lon="4.76017">
        <ele>186</ele>
        <time>2022-09-05T07:27:44.000Z</time>
      </trkpt>
      <trkpt lat="49.86498" lon="4.76019">
        <ele>186</ele>
        <time>2022-09-05T07:27:45.000Z</time>
      </trkpt>
      <trkpt lat="49.86499" lon="4.76021">
        <ele>186</ele>
        <time>2022-09-05T07:27:46.000Z</time>
      </trkpt>
      <trkpt lat="49.86501" lon="4.76023">
        <ele>187</ele>
        <time>2022-09-05T07:27:47.000Z</time>
      </trkpt>
      <trkpt lat="49.86502" lon="4.76026">
        <ele>187</ele>
        <time>2022-09-05T07:27:48.000Z</time>
      </trkpt>
      <trkpt lat="49.86504" lon="4.76028">
        <ele>187</ele>
        <time>2022-09-05T07:27:49.000Z</time>
      </trkpt>
      <trkpt lat="49.86506" lon="4.7603">
        <ele>187</ele>
        <time>2022-09-05T07:27:50.000Z</time>
      </trkpt>
      <trkpt lat="49.86507" lon="4.76032">
        <ele>188</ele>
        <time>2022-09-05T07:27:51.000Z</time>
      </trkpt>
      <trkpt lat="49.86509" lon="4.76035">
        <ele>188</ele>
        <time>2022-09-05T07:27:52.000Z</time>
      </trkpt>
      <trkpt lat="49.8651" lon="4.76037">
        <ele>188</ele>
        <time>2022-09-05T07:27:53.000Z</time>
      </trkpt>
      <trkpt lat="49.86512" lon="4.7604">
        <ele>189</ele>
        <time>2022-09-05T07:27:54.000Z</time>
      </trkpt>
      <trkpt lat="49.86513" lon="4.76042">
        <ele>189</ele>
        <time>2022-09-05T07:27:55.000Z</time>
      </trkpt>
      <trkpt lat="49.86515" lon="4.76044">
        <ele>189</ele>
        <time>2022-09-05T07:27:56.000Z</time>
      </trkpt>
      <trkpt lat="49.86516" lon="4.76046">
        <ele>190</ele>
        <time>2022-09-05T07:27:57.000Z</time>
      </trkpt>
      <trkpt lat="49.86518" lon="4.76048">
        <ele>190</ele>
        <time>2022-09-05T07:27:58.000Z</time>
      </trkpt>
      <trkpt lat="49.86519" lon="4.7605">
        <ele>190</ele>
        <time>2022-09-05T07:27:59.000Z</time>
      </trkpt>
      <trkpt lat="49.86521" lon="4.76052">
        <ele>190</ele>
        <time>2022-09-05T07:28:00.000Z</time>
      </trkpt>
      <trkpt lat="49.86522" lon="4.76055">
        <ele>191</ele>
        <time>2022-09-05T07:28:01.000Z</time>
      </trkpt>
      <trkpt lat="49.86524" lon="4.76057">
        <ele>191</ele>
        <time>2022-09-05T07:28:02.000Z</time>
      </trkpt>
      <trkpt lat="49.86526" lon="4.76059">
        <ele>191</ele>
        <time>2022-09-05T07:28:03.000Z</time>
      </trkpt>
      <trkpt lat="49.86527" lon="4.76061">
        <ele>191</ele>
        <time>2022-09-05T07:28:04.000Z</time>
      </trkpt>
      <trkpt lat="49.86529" lon="4.76063">
        <ele>192</ele>
        <time>2022-09-05T07:28:05.000Z</time>
      </trkpt>
      <trkpt lat="49.8653" lon="4.76066">
        <ele>192</ele>
        <time>2022-09-05T07:28:06.000Z</time>
      </trkpt>
      <trkpt lat="49.86532" lon="4.76068">
        <ele>192</ele>
        <time>2022-09-05T07:28:07.000Z</time>
      </trkpt>
      <trkpt lat="49.86533" lon="4.7607">
        <ele>192</ele>
        <time>2022-09-05T07:28:08.000Z</time>
      </trkpt>
      <trkpt lat="49.86535" lon="4.76072">
        <ele>193</ele>
        <time>2022-09-05T07:28:09.000Z</time>
      </trkpt>
      <trkpt lat="49.86536" lon="4.76073">
        <ele>193</ele>
        <time>2022-09-05T07:28:10.000Z</time>
      </trkpt>
      <trkpt lat="49.86538" lon="4.76076">
        <ele>193</ele>
        <time>2022-09-05T07:28:11.000Z</time>
      </trkpt>
      <trkpt lat="49.8654" lon="4.76078">
        <ele>193</ele>
        <time>2022-09-05T07:28:12.000Z</time>
      </trkpt>
      <trkpt lat="49.86541" lon="4.7608">
        <ele>193</ele>
        <time>2022-09-05T07:28:13.000Z</time>
      </trkpt>
      <trkpt lat="49.86543" lon="4.76082">
        <ele>194</ele>
        <time>2022-09-05T07:28:14.000Z</time>
      </trkpt>
      <trkpt lat="49.86544" lon="4.76085">
        <ele>194</ele>
        <time>2022-09-05T07:28:15.000Z</time>
      </trkpt>
      <trkpt lat="49.86545" lon="4.76087">
        <ele>194</ele>
        <time>2022-09-05T07:28:16.000Z</time>
      </trkpt>
      <trkpt lat="49.86547" lon="4.7609">
        <ele>195</ele>
        <time>2022-09-05T07:28:17.000Z</time>
      </trkpt>
      <trkpt lat="49.86548" lon="4.76092">
        <ele>195</ele>
        <time>2022-09-05T07:28:18.000Z</time>
      </trkpt>
      <trkpt lat="49.86549" lon="4.76095">
        <ele>195</ele>
        <time>2022-09-05T07:28:19.000Z</time>
      </trkpt>
      <trkpt lat="49.8655" lon="4.76097">
        <ele>196</ele>
        <time>2022-09-05T07:28:20.000Z</time>
      </trkpt>
      <trkpt lat="49.86552" lon="4.76099">
        <ele>196</ele>
        <time>2022-09-05T07:28:21.000Z</time>
      </trkpt>
      <trkpt lat="49.86554" lon="4.76101">
        <ele>196</ele>
        <time>2022-09-05T07:28:22.000Z</time>
      </trkpt>
      <trkpt lat="49.86556" lon="4.76103">
        <ele>196</ele>
        <time>2022-09-05T07:28:23.000Z</time>
      </trkpt>
      <trkpt lat="49.86557" lon="4.76105">
        <ele>197</ele>
        <time>2022-09-05T07:28:24.000Z</time>
      </trkpt>
      <trkpt lat="49.86559" lon="4.76107">
        <ele>197</ele>
        <time>2022-09-05T07:28:25.000Z</time>
      </trkpt>
      <trkpt lat="49.86561" lon="4.76109">
        <ele>197</ele>
        <time>2022-09-05T07:28:26.000Z</time>
      </trkpt>
      <trkpt lat="49.86562" lon="4.76111">
        <ele>197</ele>
        <time>2022-09-05T07:28:27.000Z</time>
      </trkpt>
      <trkpt lat="49.86564" lon="4.76113">
        <ele>198</ele>
        <time>2022-09-05T07:28:28.000Z</time>
      </trkpt>
      <trkpt lat="49.86565" lon="4.76115">
        <ele>198</ele>
        <time>2022-09-05T07:28:29.000Z</time>
      </trkpt>
      <trkpt lat="49.86566" lon="4.76117">
        <ele>199</ele>
        <time>2022-09-05T07:28:30.000Z</time>
      </trkpt>
      <trkpt lat="49.86568" lon="4.7612">
        <ele>199</ele>
        <time>2022-09-05T07:28:31.000Z</time>
      </trkpt>
      <trkpt lat="49.86569" lon="4.76122">
        <ele>199</ele>
        <time>2022-09-05T07:28:32.000Z</time>
      </trkpt>
      <trkpt lat="49.86571" lon="4.76124">
        <ele>200</ele>
        <time>2022-09-05T07:28:33.000Z</time>
      </trkpt>
      <trkpt lat="49.86572" lon="4.76126">
        <ele>200</ele>
        <time>2022-09-05T07:28:34.000Z</time>
      </trkpt>
      <trkpt lat="49.86573" lon="4.76128">
        <ele>201</ele>
        <time>2022-09-05T07:28:35.000Z</time>
      </trkpt>
      <trkpt lat="49.86574" lon="4.7613">
        <ele>201</ele>
        <time>2022-09-05T07:28:36.000Z</time>
      </trkpt>
      <trkpt lat="49.86575" lon="4.76131">
        <ele>202</ele>
        <time>2022-09-05T07:28:37.000Z</time>
      </trkpt>
      <trkpt lat="49.86577" lon="4.76133">
        <ele>202</ele>
        <time>2022-09-05T07:28:38.000Z</time>
      </trkpt>
      <trkpt lat="49.86578" lon="4.76135">
        <ele>202</ele>
        <time>2022-09-05T07:28:39.000Z</time>
      </trkpt>
      <trkpt lat="49.86579" lon="4.76136">
        <ele>203</ele>
        <time>2022-09-05T07:28:40.000Z</time>
      </trkpt>
      <trkpt lat="49.86581" lon="4.76138">
        <ele>203</ele>
        <time>2022-09-05T07:28:41.000Z</time>
      </trkpt>
      <trkpt lat="49.86583" lon="4.7614">
        <ele>203</ele>
        <time>2022-09-05T07:28:42.000Z</time>
      </trkpt>
      <trkpt lat="49.86585" lon="4.76141">
        <ele>203</ele>
        <time>2022-09-05T07:28:43.000Z</time>
      </trkpt>
      <trkpt lat="49.86586" lon="4.76143">
        <ele>203</ele>
        <time>2022-09-05T07:28:44.000Z</time>
      </trkpt>
      <trkpt lat="49.86588" lon="4.76145">
        <ele>204</ele>
        <time>2022-09-05T07:28:45.000Z</time>
      </trkpt>
      <trkpt lat="49.86589" lon="4.76147">
        <ele>204</ele>
        <time>2022-09-05T07:28:46.000Z</time>
      </trkpt>
      <trkpt lat="49.86591" lon="4.76149">
        <ele>204</ele>
        <time>2022-09-05T07:28:47.000Z</time>
      </trkpt>
      <trkpt lat="49.86592" lon="4.7615">
        <ele>205</ele>
        <time>2022-09-05T07:28:48.000Z</time>
      </trkpt>
      <trkpt lat="49.86593" lon="4.76152">
        <ele>205</ele>
        <time>2022-09-05T07:28:49.000Z</time>
      </trkpt>
      <trkpt lat="49.86595" lon="4.76153">
        <ele>205</ele>
        <time>2022-09-05T07:28:50.000Z</time>
      </trkpt>
      <trkpt lat="49.86596" lon="4.76155">
        <ele>206</ele>
        <time>2022-09-05T07:28:51.000Z</time>
      </trkpt>
      <trkpt lat="49.86597" lon="4.76155">
        <ele>206</ele>
        <time>2022-09-05T07:28:52.000Z</time>
      </trkpt>
      <trkpt lat="49.86598" lon="4.76156">
        <ele>207</ele>
        <time>2022-09-05T07:28:53.000Z</time>
      </trkpt>
      <trkpt lat="49.86599" lon="4.76158">
        <ele>207</ele>
        <time>2022-09-05T07:28:54.000Z</time>
      </trkpt>
      <trkpt lat="49.86599" lon="4.76161">
        <ele>208</ele>
        <time>2022-09-05T07:28:55.000Z</time>
      </trkpt>
      <trkpt lat="49.866" lon="4.76164">
        <ele>208</ele>
        <time>2022-09-05T07:28:56.000Z</time>
      </trkpt>
      <trkpt lat="49.866" lon="4.76167">
        <ele>209</ele>
        <time>2022-09-05T07:28:57.000Z</time>
      </trkpt>
      <trkpt lat="49.86601" lon="4.7617">
        <ele>209</ele>
        <time>2022-09-05T07:28:58.000Z</time>
      </trkpt>
      <trkpt lat="49.86601" lon="4.76174">
        <ele>210</ele>
        <time>2022-09-05T07:28:59.000Z</time>
      </trkpt>
      <trkpt lat="49.86602" lon="4.76177">
        <ele>210</ele>
        <time>2022-09-05T07:29:00.000Z</time>
      </trkpt>
      <trkpt lat="49.86603" lon="4.76181">
        <ele>211</ele>
        <time>2022-09-05T07:29:01.000Z</time>
      </trkpt>
      <trkpt lat="49.86603" lon="4.76184">
        <ele>211</ele>
        <time>2022-09-05T07:29:02.000Z</time>
      </trkpt>
      <trkpt lat="49.86603" lon="4.76187">
        <ele>212</ele>
        <time>2022-09-05T07:29:03.000Z</time>
      </trkpt>
      <trkpt lat="49.86604" lon="4.76191">
        <ele>212</ele>
        <time>2022-09-05T07:29:04.000Z</time>
      </trkpt>
      <trkpt lat="49.86605" lon="4.76194">
        <ele>213</ele>
        <time>2022-09-05T07:29:05.000Z</time>
      </trkpt>
      <trkpt lat="49.86605" lon="4.76197">
        <ele>213</ele>
        <time>2022-09-05T07:29:06.000Z</time>
      </trkpt>
      <trkpt lat="49.86606" lon="4.76201">
        <ele>213</ele>
        <time>2022-09-05T07:29:07.000Z</time>
      </trkpt>
      <trkpt lat="49.86607" lon="4.76205">
        <ele>214</ele>
        <time>2022-09-05T07:29:08.000Z</time>
      </trkpt>
      <trkpt lat="49.86608" lon="4.76209">
        <ele>214</ele>
        <time>2022-09-05T07:29:09.000Z</time>
      </trkpt>
      <trkpt lat="49.86608" lon="4.76213">
        <ele>214</ele>
        <time>2022-09-05T07:29:10.000Z</time>
      </trkpt>
      <trkpt lat="49.86609" lon="4.76217">
        <ele>215</ele>
        <time>2022-09-05T07:29:11.000Z</time>
      </trkpt>
      <trkpt lat="49.8661" lon="4.76223">
        <ele>215</ele>
        <time>2022-09-05T07:29:12.000Z</time>
      </trkpt>
      <trkpt lat="49.86611" lon="4.76227">
        <ele>215</ele>
        <time>2022-09-05T07:29:13.000Z</time>
      </trkpt>
      <trkpt lat="49.86612" lon="4.76232">
        <ele>215</ele>
        <time>2022-09-05T07:29:14.000Z</time>
      </trkpt>
      <trkpt lat="49.86613" lon="4.76237">
        <ele>216</ele>
        <time>2022-09-05T07:29:15.000Z</time>
      </trkpt>
      <trkpt lat="49.86614" lon="4.76241">
        <ele>216</ele>
        <time>2022-09-05T07:29:16.000Z</time>
      </trkpt>
      <trkpt lat="49.86614" lon="4.76244">
        <ele>216</ele>
        <time>2022-09-05T07:29:17.000Z</time>
      </trkpt>
      <trkpt lat="49.86614" lon="4.76247">
        <ele>216</ele>
        <time>2022-09-05T07:29:18.000Z</time>
      </trkpt>
      <trkpt lat="49.86614" lon="4.76249">
        <ele>217</ele>
        <time>2022-09-05T07:29:19.000Z</time>
      </trkpt>
      <trkpt lat="49.86613" lon="4.76252">
        <ele>217</ele>
        <time>2022-09-05T07:29:20.000Z</time>
      </trkpt>
      <trkpt lat="49.86612" lon="4.76253">
        <ele>217</ele>
        <time>2022-09-05T07:29:21.000Z</time>
      </trkpt>
      <trkpt lat="49.86611" lon="4.76255">
        <ele>217</ele>
        <time>2022-09-05T07:29:22.000Z</time>
      </trkpt>
      <trkpt lat="49.86609" lon="4.76257">
        <ele>217</ele>
        <time>2022-09-05T07:29:23.000Z</time>
      </trkpt>
      <trkpt lat="49.86608" lon="4.76259">
        <ele>218</ele>
        <time>2022-09-05T07:29:24.000Z</time>
      </trkpt>
      <trkpt lat="49.86606" lon="4.76262">
        <ele>218</ele>
        <time>2022-09-05T07:29:25.000Z</time>
      </trkpt>
      <trkpt lat="49.86603" lon="4.76264">
        <ele>218</ele>
        <time>2022-09-05T07:29:26.000Z</time>
      </trkpt>
      <trkpt lat="49.866" lon="4.76266">
        <ele>218</ele>
        <time>2022-09-05T07:29:27.000Z</time>
      </trkpt>
      <trkpt lat="49.86597" lon="4.7627">
        <ele>218</ele>
        <time>2022-09-05T07:29:28.000Z</time>
      </trkpt>
      <trkpt lat="49.86593" lon="4.76274">
        <ele>218</ele>
        <time>2022-09-05T07:29:29.000Z</time>
      </trkpt>
      <trkpt lat="49.86589" lon="4.76279">
        <ele>218</ele>
        <time>2022-09-05T07:29:30.000Z</time>
      </trkpt>
      <trkpt lat="49.86585" lon="4.76284">
        <ele>218</ele>
        <time>2022-09-05T07:29:31.000Z</time>
      </trkpt>
      <trkpt lat="49.86581" lon="4.76289">
        <ele>218</ele>
        <time>2022-09-05T07:29:32.000Z</time>
      </trkpt>
      <trkpt lat="49.86578" lon="4.76294">
        <ele>218</ele>
        <time>2022-09-05T07:29:33.000Z</time>
      </trkpt>
      <trkpt lat="49.86574" lon="4.76298">
        <ele>218</ele>
        <time>2022-09-05T07:29:34.000Z</time>
      </trkpt>
      <trkpt lat="49.86569" lon="4.76302">
        <ele>218</ele>
        <time>2022-09-05T07:29:35.000Z</time>
      </trkpt>
      <trkpt lat="49.86565" lon="4.76306">
        <ele>218</ele>
        <time>2022-09-05T07:29:36.000Z</time>
      </trkpt>
      <trkpt lat="49.86561" lon="4.7631">
        <ele>218</ele>
        <time>2022-09-05T07:29:37.000Z</time>
      </trkpt>
      <trkpt lat="49.86557" lon="4.76313">
        <ele>217</ele>
        <time>2022-09-05T07:29:38.000Z</time>
      </trkpt>
      <trkpt lat="49.86553" lon="4.76316">
        <ele>217</ele>
        <time>2022-09-05T07:29:39.000Z</time>
      </trkpt>
      <trkpt lat="49.86551" lon="4.76319">
        <ele>217</ele>
        <time>2022-09-05T07:29:40.000Z</time>
      </trkpt>
      <trkpt lat="49.86549" lon="4.76321">
        <ele>217</ele>
        <time>2022-09-05T07:29:41.000Z</time>
      </trkpt>
      <trkpt lat="49.86549" lon="4.76323">
        <ele>216</ele>
        <time>2022-09-05T07:29:42.000Z</time>
      </trkpt>
      <trkpt lat="49.86548" lon="4.76323">
        <ele>216</ele>
        <time>2022-09-05T07:29:43.000Z</time>
      </trkpt>
      <trkpt lat="49.86546" lon="4.76324">
        <ele>216</ele>
        <time>2022-09-05T07:29:44.000Z</time>
      </trkpt>
      <trkpt lat="49.86544" lon="4.76326">
        <ele>215</ele>
        <time>2022-09-05T07:29:45.000Z</time>
      </trkpt>
      <trkpt lat="49.86542" lon="4.76327">
        <ele>215</ele>
        <time>2022-09-05T07:29:46.000Z</time>
      </trkpt>
      <trkpt lat="49.86539" lon="4.76328">
        <ele>214</ele>
        <time>2022-09-05T07:29:47.000Z</time>
      </trkpt>
      <trkpt lat="49.86537" lon="4.76331">
        <ele>214</ele>
        <time>2022-09-05T07:29:48.000Z</time>
      </trkpt>
      <trkpt lat="49.86535" lon="4.76333">
        <ele>213</ele>
        <time>2022-09-05T07:29:49.000Z</time>
      </trkpt>
      <trkpt lat="49.86533" lon="4.76335">
        <ele>213</ele>
        <time>2022-09-05T07:29:50.000Z</time>
      </trkpt>
      <trkpt lat="49.86532" lon="4.76336">
        <ele>213</ele>
        <time>2022-09-05T07:29:51.000Z</time>
      </trkpt>
      <trkpt lat="49.86531" lon="4.76337">
        <ele>212</ele>
        <time>2022-09-05T07:29:52.000Z</time>
      </trkpt>
      <trkpt lat="49.86531" lon="4.76337">
        <ele>212</ele>
        <time>2022-09-05T07:29:53.000Z</time>
      </trkpt>
      <trkpt lat="49.86531" lon="4.76337">
        <ele>212</ele>
        <time>2022-09-05T07:29:54.000Z</time>
      </trkpt>
      <trkpt lat="49.86531" lon="4.76337">
        <ele>211</ele>
        <time>2022-09-05T07:29:55.000Z</time>
      </trkpt>
      <trkpt lat="49.8653" lon="4.76338">
        <ele>211</ele>
        <time>2022-09-05T07:29:56.000Z</time>
      </trkpt>
      <trkpt lat="49.86529" lon="4.7634">
        <ele>211</ele>
        <time>2022-09-05T07:29:57.000Z</time>
      </trkpt>
      <trkpt lat="49.86528" lon="4.76342">
        <ele>210</ele>
        <time>2022-09-05T07:29:58.000Z</time>
      </trkpt>
      <trkpt lat="49.86526" lon="4.76343">
        <ele>210</ele>
        <time>2022-09-05T07:29:59.000Z</time>
      </trkpt>
      <trkpt lat="49.86524" lon="4.76345">
        <ele>210</ele>
        <time>2022-09-05T07:30:00.000Z</time>
      </trkpt>
      <trkpt lat="49.86523" lon="4.76347">
        <ele>210</ele>
        <time>2022-09-05T07:30:01.000Z</time>
      </trkpt>
      <trkpt lat="49.8652" lon="4.7635">
        <ele>209</ele>
        <time>2022-09-05T07:30:02.000Z</time>
      </trkpt>
      <trkpt lat="49.86517" lon="4.76353">
        <ele>209</ele>
        <time>2022-09-05T07:30:03.000Z</time>
      </trkpt>
      <trkpt lat="49.86514" lon="4.76357">
        <ele>209</ele>
        <time>2022-09-05T07:30:04.000Z</time>
      </trkpt>
      <trkpt lat="49.8651" lon="4.7636">
        <ele>208</ele>
        <time>2022-09-05T07:30:05.000Z</time>
      </trkpt>
      <trkpt lat="49.86507" lon="4.76363">
        <ele>208</ele>
        <time>2022-09-05T07:30:06.000Z</time>
      </trkpt>
      <trkpt lat="49.86504" lon="4.76365">
        <ele>208</ele>
        <time>2022-09-05T07:30:07.000Z</time>
      </trkpt>
      <trkpt lat="49.86502" lon="4.76369">
        <ele>208</ele>
        <time>2022-09-05T07:30:08.000Z</time>
      </trkpt>
      <trkpt lat="49.86498" lon="4.76372">
        <ele>208</ele>
        <time>2022-09-05T07:30:09.000Z</time>
      </trkpt>
      <trkpt lat="49.86495" lon="4.76375">
        <ele>207</ele>
        <time>2022-09-05T07:30:10.000Z</time>
      </trkpt>
      <trkpt lat="49.86493" lon="4.76377">
        <ele>207</ele>
        <time>2022-09-05T07:30:11.000Z</time>
      </trkpt>
      <trkpt lat="49.8649" lon="4.76379">
        <ele>207</ele>
        <time>2022-09-05T07:30:12.000Z</time>
      </trkpt>
      <trkpt lat="49.86488" lon="4.76381">
        <ele>207</ele>
        <time>2022-09-05T07:30:13.000Z</time>
      </trkpt>
      <trkpt lat="49.86487" lon="4.76382">
        <ele>206</ele>
        <time>2022-09-05T07:30:14.000Z</time>
      </trkpt>
      <trkpt lat="49.86486" lon="4.76382">
        <ele>206</ele>
        <time>2022-09-05T07:30:15.000Z</time>
      </trkpt>
      <trkpt lat="49.86485" lon="4.76382">
        <ele>206</ele>
        <time>2022-09-05T07:30:16.000Z</time>
      </trkpt>
      <trkpt lat="49.86485" lon="4.76382">
        <ele>206</ele>
        <time>2022-09-05T07:30:17.000Z</time>
      </trkpt>
      <trkpt lat="49.86485" lon="4.76382">
        <ele>205</ele>
        <time>2022-09-05T07:30:18.000Z</time>
      </trkpt>
      <trkpt lat="49.86484" lon="4.76381">
        <ele>205</ele>
        <time>2022-09-05T07:30:19.000Z</time>
      </trkpt>
      <trkpt lat="49.86484" lon="4.76381">
        <ele>205</ele>
        <time>2022-09-05T07:30:20.000Z</time>
      </trkpt>
      <trkpt lat="49.86484" lon="4.76381">
        <ele>205</ele>
        <time>2022-09-05T07:30:21.000Z</time>
      </trkpt>
      <trkpt lat="49.86484" lon="4.7638">
        <ele>204</ele>
        <time>2022-09-05T07:30:22.000Z</time>
      </trkpt>
      <trkpt lat="49.86485" lon="4.76379">
        <ele>204</ele>
        <time>2022-09-05T07:30:23.000Z</time>
      </trkpt>
      <trkpt lat="49.86485" lon="4.76378">
        <ele>204</ele>
        <time>2022-09-05T07:30:24.000Z</time>
      </trkpt>
      <trkpt lat="49.86485" lon="4.76378">
        <ele>203</ele>
        <time>2022-09-05T07:30:25.000Z</time>
      </trkpt>
      <trkpt lat="49.86485" lon="4.76378">
        <ele>203</ele>
        <time>2022-09-05T07:30:26.000Z</time>
      </trkpt>
      <trkpt lat="49.86485" lon="4.76377">
        <ele>203</ele>
        <time>2022-09-05T07:30:27.000Z</time>
      </trkpt>
      <trkpt lat="49.86484" lon="4.76377">
        <ele>202</ele>
        <time>2022-09-05T07:30:28.000Z</time>
      </trkpt>
      <trkpt lat="49.86484" lon="4.76377">
        <ele>202</ele>
        <time>2022-09-05T07:30:29.000Z</time>
      </trkpt>
      <trkpt lat="49.86485" lon="4.76376">
        <ele>202</ele>
        <time>2022-09-05T07:30:30.000Z</time>
      </trkpt>
      <trkpt lat="49.86486" lon="4.76375">
        <ele>202</ele>
        <time>2022-09-05T07:30:31.000Z</time>
      </trkpt>
      <trkpt lat="49.86487" lon="4.76374">
        <ele>201</ele>
        <time>2022-09-05T07:30:32.000Z</time>
      </trkpt>
      <trkpt lat="49.86489" lon="4.76372">
        <ele>201</ele>
        <time>2022-09-05T07:30:33.000Z</time>
      </trkpt>
      <trkpt lat="49.8649" lon="4.7637">
        <ele>201</ele>
        <time>2022-09-05T07:30:34.000Z</time>
      </trkpt>
      <trkpt lat="49.86492" lon="4.76369">
        <ele>201</ele>
        <time>2022-09-05T07:30:35.000Z</time>
      </trkpt>
      <trkpt lat="49.86493" lon="4.76366">
        <ele>201</ele>
        <time>2022-09-05T07:30:36.000Z</time>
      </trkpt>
      <trkpt lat="49.86495" lon="4.76365">
        <ele>201</ele>
        <time>2022-09-05T07:30:37.000Z</time>
      </trkpt>
      <trkpt lat="49.86498" lon="4.76363">
        <ele>200</ele>
        <time>2022-09-05T07:30:38.000Z</time>
      </trkpt>
      <trkpt lat="49.865" lon="4.76361">
        <ele>200</ele>
        <time>2022-09-05T07:30:39.000Z</time>
      </trkpt>
      <trkpt lat="49.86502" lon="4.76358">
        <ele>200</ele>
        <time>2022-09-05T07:30:40.000Z</time>
      </trkpt>
      <trkpt lat="49.86504" lon="4.76357">
        <ele>200</ele>
        <time>2022-09-05T07:30:41.000Z</time>
      </trkpt>
      <trkpt lat="49.86505" lon="4.76355">
        <ele>200</ele>
        <time>2022-09-05T07:30:42.000Z</time>
      </trkpt>
      <trkpt lat="49.86507" lon="4.76354">
        <ele>200</ele>
        <time>2022-09-05T07:30:43.000Z</time>
      </trkpt>
      <trkpt lat="49.86508" lon="4.76352">
        <ele>200</ele>
        <time>2022-09-05T07:30:44.000Z</time>
      </trkpt>
      <trkpt lat="49.8651" lon="4.76351">
        <ele>200</ele>
        <time>2022-09-05T07:30:45.000Z</time>
      </trkpt>
      <trkpt lat="49.86512" lon="4.76349">
        <ele>200</ele>
        <time>2022-09-05T07:30:46.000Z</time>
      </trkpt>
      <trkpt lat="49.86513" lon="4.76348">
        <ele>200</ele>
        <time>2022-09-05T07:30:47.000Z</time>
      </trkpt>
      <trkpt lat="49.86515" lon="4.76346">
        <ele>200</ele>
        <time>2022-09-05T07:30:48.000Z</time>
      </trkpt>
      <trkpt lat="49.86516" lon="4.76345">
        <ele>200</ele>
        <time>2022-09-05T07:30:49.000Z</time>
      </trkpt>
      <trkpt lat="49.86517" lon="4.76344">
        <ele>200</ele>
        <time>2022-09-05T07:30:50.000Z</time>
      </trkpt>
      <trkpt lat="49.86518" lon="4.76343">
        <ele>200</ele>
        <time>2022-09-05T07:30:51.000Z</time>
      </trkpt>
      <trkpt lat="49.8652" lon="4.76343">
        <ele>200</ele>
        <time>2022-09-05T07:30:52.000Z</time>
      </trkpt>
      <trkpt lat="49.86521" lon="4.76342">
        <ele>200</ele>
        <time>2022-09-05T07:30:53.000Z</time>
      </trkpt>
      <trkpt lat="49.86521" lon="4.76342">
        <ele>200</ele>
        <time>2022-09-05T07:30:54.000Z</time>
      </trkpt>
      <trkpt lat="49.86522" lon="4.76341">
        <ele>199</ele>
        <time>2022-09-05T07:30:55.000Z</time>
      </trkpt>
      <trkpt lat="49.86524" lon="4.76341">
        <ele>199</ele>
        <time>2022-09-05T07:30:56.000Z</time>
      </trkpt>
      <trkpt lat="49.86525" lon="4.76342">
        <ele>199</ele>
        <time>2022-09-05T07:30:57.000Z</time>
      </trkpt>
      <trkpt lat="49.86526" lon="4.76344">
        <ele>199</ele>
        <time>2022-09-05T07:30:58.000Z</time>
      </trkpt>
      <trkpt lat="49.86526" lon="4.76347">
        <ele>199</ele>
        <time>2022-09-05T07:30:59.000Z</time>
      </trkpt>
      <trkpt lat="49.86526" lon="4.76349">
        <ele>199</ele>
        <time>2022-09-05T07:31:00.000Z</time>
      </trkpt>
      <trkpt lat="49.86526" lon="4.76351">
        <ele>199</ele>
        <time>2022-09-05T07:31:01.000Z</time>
      </trkpt>
      <trkpt lat="49.86525" lon="4.76353">
        <ele>199</ele>
        <time>2022-09-05T07:31:02.000Z</time>
      </trkpt>
      <trkpt lat="49.86524" lon="4.76355">
        <ele>199</ele>
        <time>2022-09-05T07:31:03.000Z</time>
      </trkpt>
      <trkpt lat="49.86523" lon="4.76358">
        <ele>199</ele>
        <time>2022-09-05T07:31:04.000Z</time>
      </trkpt>
      <trkpt lat="49.86521" lon="4.7636">
        <ele>199</ele>
        <time>2022-09-05T07:31:05.000Z</time>
      </trkpt>
      <trkpt lat="49.86519" lon="4.76362">
        <ele>199</ele>
        <time>2022-09-05T07:31:06.000Z</time>
      </trkpt>
      <trkpt lat="49.86518" lon="4.76364">
        <ele>199</ele>
        <time>2022-09-05T07:31:07.000Z</time>
      </trkpt>
      <trkpt lat="49.86517" lon="4.76366">
        <ele>199</ele>
        <time>2022-09-05T07:31:08.000Z</time>
      </trkpt>
      <trkpt lat="49.86516" lon="4.76368">
        <ele>199</ele>
        <time>2022-09-05T07:31:09.000Z</time>
      </trkpt>
      <trkpt lat="49.86516" lon="4.76369">
        <ele>199</ele>
        <time>2022-09-05T07:31:10.000Z</time>
      </trkpt>
      <trkpt lat="49.86516" lon="4.76369">
        <ele>199</ele>
        <time>2022-09-05T07:31:11.000Z</time>
      </trkpt>
      <trkpt lat="49.86515" lon="4.76371">
        <ele>199</ele>
        <time>2022-09-05T07:31:12.000Z</time>
      </trkpt>
      <trkpt lat="49.86514" lon="4.76372">
        <ele>199</ele>
        <time>2022-09-05T07:31:13.000Z</time>
      </trkpt>
      <trkpt lat="49.86513" lon="4.76375">
        <ele>200</ele>
        <time>2022-09-05T07:31:14.000Z</time>
      </trkpt>
      <trkpt lat="49.86512" lon="4.76377">
        <ele>200</ele>
        <time>2022-09-05T07:31:15.000Z</time>
      </trkpt>
      <trkpt lat="49.86512" lon="4.7638">
        <ele>200</ele>
        <time>2022-09-05T07:31:16.000Z</time>
      </trkpt>
      <trkpt lat="49.86512" lon="4.76383">
        <ele>200</ele>
        <time>2022-09-05T07:31:17.000Z</time>
      </trkpt>
      <trkpt lat="49.86512" lon="4.76384">
        <ele>200</ele>
        <time>2022-09-05T07:31:18.000Z</time>
      </trkpt>
      <trkpt lat="49.86512" lon="4.76384">
        <ele>200</ele>
        <time>2022-09-05T07:31:19.000Z</time>
      </trkpt>
      <trkpt lat="49.86512" lon="4.76383">
        <ele>200</ele>
        <time>2022-09-05T07:31:20.000Z</time>
      </trkpt>
      <trkpt lat="49.86512" lon="4.76383">
        <ele>200</ele>
        <time>2022-09-05T07:31:21.000Z</time>
      </trkpt>
      <trkpt lat="49.86513" lon="4.76382">
        <ele>200</ele>
        <time>2022-09-05T07:31:22.000Z</time>
      </trkpt>
      <trkpt lat="49.86513" lon="4.7638">
        <ele>200</ele>
        <time>2022-09-05T07:31:23.000Z</time>
      </trkpt>
      <trkpt lat="49.86513" lon="4.76376">
        <ele>200</ele>
        <time>2022-09-05T07:31:24.000Z</time>
      </trkpt>
      <trkpt lat="49.86514" lon="4.76373">
        <ele>200</ele>
        <time>2022-09-05T07:31:25.000Z</time>
      </trkpt>
      <trkpt lat="49.86516" lon="4.76371">
        <ele>200</ele>
        <time>2022-09-05T07:31:26.000Z</time>
      </trkpt>
      <trkpt lat="49.86517" lon="4.76368">
        <ele>200</ele>
        <time>2022-09-05T07:31:27.000Z</time>
      </trkpt>
      <trkpt lat="49.86519" lon="4.76367">
        <ele>200</ele>
        <time>2022-09-05T07:31:28.000Z</time>
      </trkpt>
      <trkpt lat="49.8652" lon="4.76365">
        <ele>200</ele>
        <time>2022-09-05T07:31:29.000Z</time>
      </trkpt>
      <trkpt lat="49.86523" lon="4.76363">
        <ele>200</ele>
        <time>2022-09-05T07:31:30.000Z</time>
      </trkpt>
      <trkpt lat="49.86525" lon="4.7636">
        <ele>200</ele>
        <time>2022-09-05T07:31:31.000Z</time>
      </trkpt>
      <trkpt lat="49.86528" lon="4.76357">
        <ele>200</ele>
        <time>2022-09-05T07:31:32.000Z</time>
      </trkpt>
      <trkpt lat="49.86529" lon="4.76354">
        <ele>200</ele>
        <time>2022-09-05T07:31:33.000Z</time>
      </trkpt>
      <trkpt lat="49.8653" lon="4.76352">
        <ele>200</ele>
        <time>2022-09-05T07:31:34.000Z</time>
      </trkpt>
      <trkpt lat="49.86531" lon="4.76349">
        <ele>200</ele>
        <time>2022-09-05T07:31:35.000Z</time>
      </trkpt>
      <trkpt lat="49.86531" lon="4.76345">
        <ele>200</ele>
        <time>2022-09-05T07:31:36.000Z</time>
      </trkpt>
      <trkpt lat="49.86531" lon="4.76341">
        <ele>200</ele>
        <time>2022-09-05T07:31:37.000Z</time>
      </trkpt>
      <trkpt lat="49.86531" lon="4.76338">
        <ele>200</ele>
        <time>2022-09-05T07:31:38.000Z</time>
      </trkpt>
      <trkpt lat="49.86532" lon="4.76336">
        <ele>200</ele>
        <time>2022-09-05T07:31:39.000Z</time>
      </trkpt>
      <trkpt lat="49.86533" lon="4.76334">
        <ele>200</ele>
        <time>2022-09-05T07:31:40.000Z</time>
      </trkpt>
      <trkpt lat="49.86534" lon="4.76333">
        <ele>200</ele>
        <time>2022-09-05T07:31:41.000Z</time>
      </trkpt>
      <trkpt lat="49.86535" lon="4.76332">
        <ele>200</ele>
        <time>2022-09-05T07:31:42.000Z</time>
      </trkpt>
      <trkpt lat="49.86537" lon="4.76331">
        <ele>200</ele>
        <time>2022-09-05T07:31:43.000Z</time>
      </trkpt>
      <trkpt lat="49.86538" lon="4.7633">
        <ele>200</ele>
        <time>2022-09-05T07:31:44.000Z</time>
      </trkpt>
      <trkpt lat="49.86539" lon="4.76328">
        <ele>200</ele>
        <time>2022-09-05T07:31:45.000Z</time>
      </trkpt>
      <trkpt lat="49.8654" lon="4.76327">
        <ele>200</ele>
        <time>2022-09-05T07:31:46.000Z</time>
      </trkpt>
      <trkpt lat="49.86541" lon="4.76326">
        <ele>200</ele>
        <time>2022-09-05T07:31:47.000Z</time>
      </trkpt>
      <trkpt lat="49.86542" lon="4.76325">
        <ele>200</ele>
        <time>2022-09-05T07:31:48.000Z</time>
      </trkpt>
      <trkpt lat="49.86543" lon="4.76323">
        <ele>200</ele>
        <time>2022-09-05T07:31:49.000Z</time>
      </trkpt>
      <trkpt lat="49.86545" lon="4.76322">
        <ele>200</ele>
        <time>2022-09-05T07:31:50.000Z</time>
      </trkpt>
      <trkpt lat="49.86546" lon="4.7632">
        <ele>200</ele>
        <time>2022-09-05T07:31:51.000Z</time>
      </trkpt>
      <trkpt lat="49.86547" lon="4.76318">
        <ele>200</ele>
        <time>2022-09-05T07:31:52.000Z</time>
      </trkpt>
      <trkpt lat="49.86548" lon="4.76317">
        <ele>200</ele>
        <time>2022-09-05T07:31:53.000Z</time>
      </trkpt>
      <trkpt lat="49.8655" lon="4.76315">
        <ele>201</ele>
        <time>2022-09-05T07:31:54.000Z</time>
      </trkpt>
      <trkpt lat="49.86552" lon="4.76314">
        <ele>201</ele>
        <time>2022-09-05T07:31:55.000Z</time>
      </trkpt>
      <trkpt lat="49.86553" lon="4.76312">
        <ele>201</ele>
        <time>2022-09-05T07:31:56.000Z</time>
      </trkpt>
      <trkpt lat="49.86554" lon="4.76311">
        <ele>202</ele>
        <time>2022-09-05T07:31:57.000Z</time>
      </trkpt>
      <trkpt lat="49.86556" lon="4.7631">
        <ele>202</ele>
        <time>2022-09-05T07:31:58.000Z</time>
      </trkpt>
      <trkpt lat="49.86558" lon="4.76308">
        <ele>202</ele>
        <time>2022-09-05T07:31:59.000Z</time>
      </trkpt>
      <trkpt lat="49.8656" lon="4.76307">
        <ele>202</ele>
        <time>2022-09-05T07:32:00.000Z</time>
      </trkpt>
      <trkpt lat="49.86562" lon="4.76305">
        <ele>203</ele>
        <time>2022-09-05T07:32:01.000Z</time>
      </trkpt>
      <trkpt lat="49.86564" lon="4.76304">
        <ele>203</ele>
        <time>2022-09-05T07:32:02.000Z</time>
      </trkpt>
      <trkpt lat="49.86566" lon="4.76302">
        <ele>203</ele>
        <time>2022-09-05T07:32:03.000Z</time>
      </trkpt>
      <trkpt lat="49.86567" lon="4.76301">
        <ele>204</ele>
        <time>2022-09-05T07:32:04.000Z</time>
      </trkpt>
      <trkpt lat="49.86568" lon="4.763">
        <ele>204</ele>
        <time>2022-09-05T07:32:05.000Z</time>
      </trkpt>
      <trkpt lat="49.86569" lon="4.763">
        <ele>204</ele>
        <time>2022-09-05T07:32:06.000Z</time>
      </trkpt>
      <trkpt lat="49.8657" lon="4.76299">
        <ele>204</ele>
        <time>2022-09-05T07:32:07.000Z</time>
      </trkpt>
      <trkpt lat="49.86571" lon="4.76297">
        <ele>205</ele>
        <time>2022-09-05T07:32:08.000Z</time>
      </trkpt>
      <trkpt lat="49.86573" lon="4.76296">
        <ele>205</ele>
        <time>2022-09-05T07:32:09.000Z</time>
      </trkpt>
      <trkpt lat="49.86574" lon="4.76295">
        <ele>205</ele>
        <time>2022-09-05T07:32:10.000Z</time>
      </trkpt>
      <trkpt lat="49.86575" lon="4.76293">
        <ele>205</ele>
        <time>2022-09-05T07:32:11.000Z</time>
      </trkpt>
      <trkpt lat="49.86575" lon="4.76292">
        <ele>206</ele>
        <time>2022-09-05T07:32:12.000Z</time>
      </trkpt>
      <trkpt lat="49.86576" lon="4.76291">
        <ele>206</ele>
        <time>2022-09-05T07:32:13.000Z</time>
      </trkpt>
      <trkpt lat="49.86577" lon="4.7629">
        <ele>206</ele>
        <time>2022-09-05T07:32:14.000Z</time>
      </trkpt>
      <trkpt lat="49.86578" lon="4.76289">
        <ele>206</ele>
        <time>2022-09-05T07:32:15.000Z</time>
      </trkpt>
      <trkpt lat="49.8658" lon="4.76287">
        <ele>207</ele>
        <time>2022-09-05T07:32:16.000Z</time>
      </trkpt>
      <trkpt lat="49.86581" lon="4.76286">
        <ele>207</ele>
        <time>2022-09-05T07:32:17.000Z</time>
      </trkpt>
      <trkpt lat="49.86583" lon="4.76285">
        <ele>207</ele>
        <time>2022-09-05T07:32:18.000Z</time>
      </trkpt>
      <trkpt lat="49.86586" lon="4.76283">
        <ele>208</ele>
        <time>2022-09-05T07:32:19.000Z</time>
      </trkpt>
      <trkpt lat="49.86587" lon="4.76282">
        <ele>208</ele>
        <time>2022-09-05T07:32:20.000Z</time>
      </trkpt>
      <trkpt lat="49.86588" lon="4.76282">
        <ele>208</ele>
        <time>2022-09-05T07:32:21.000Z</time>
      </trkpt>
      <trkpt lat="49.86589" lon="4.76281">
        <ele>209</ele>
        <time>2022-09-05T07:32:22.000Z</time>
      </trkpt>
      <trkpt lat="49.8659" lon="4.7628">
        <ele>209</ele>
        <time>2022-09-05T07:32:23.000Z</time>
      </trkpt>
      <trkpt lat="49.86592" lon="4.76278">
        <ele>209</ele>
        <time>2022-09-05T07:32:24.000Z</time>
      </trkpt>
      <trkpt lat="49.86593" lon="4.76275">
        <ele>210</ele>
        <time>2022-09-05T07:32:25.000Z</time>
      </trkpt>
      <trkpt lat="49.86594" lon="4.76273">
        <ele>210</ele>
        <time>2022-09-05T07:32:26.000Z</time>
      </trkpt>
      <trkpt lat="49.86594" lon="4.7627">
        <ele>210</ele>
        <time>2022-09-05T07:32:27.000Z</time>
      </trkpt>
      <trkpt lat="49.86595" lon="4.76266">
        <ele>210</ele>
        <time>2022-09-05T07:32:28.000Z</time>
      </trkpt>
      <trkpt lat="49.86595" lon="4.76262">
        <ele>211</ele>
        <time>2022-09-05T07:32:29.000Z</time>
      </trkpt>
      <trkpt lat="49.86596" lon="4.76258">
        <ele>211</ele>
        <time>2022-09-05T07:32:30.000Z</time>
      </trkpt>
      <trkpt lat="49.86596" lon="4.76254">
        <ele>211</ele>
        <time>2022-09-05T07:32:31.000Z</time>
      </trkpt>
      <trkpt lat="49.86596" lon="4.7625">
        <ele>211</ele>
        <time>2022-09-05T07:32:32.000Z</time>
      </trkpt>
      <trkpt lat="49.86596" lon="4.76246">
        <ele>211</ele>
        <time>2022-09-05T07:32:33.000Z</time>
      </trkpt>
      <trkpt lat="49.86596" lon="4.76242">
        <ele>211</ele>
        <time>2022-09-05T07:32:34.000Z</time>
      </trkpt>
      <trkpt lat="49.86596" lon="4.76238">
        <ele>211</ele>
        <time>2022-09-05T07:32:35.000Z</time>
      </trkpt>
      <trkpt lat="49.86596" lon="4.76233">
        <ele>211</ele>
        <time>2022-09-05T07:32:36.000Z</time>
      </trkpt>
      <trkpt lat="49.86595" lon="4.76228">
        <ele>211</ele>
        <time>2022-09-05T07:32:37.000Z</time>
      </trkpt>
      <trkpt lat="49.86595" lon="4.76224">
        <ele>211</ele>
        <time>2022-09-05T07:32:38.000Z</time>
      </trkpt>
      <trkpt lat="49.86595" lon="4.7622">
        <ele>211</ele>
        <time>2022-09-05T07:32:39.000Z</time>
      </trkpt>
      <trkpt lat="49.86596" lon="4.76215">
        <ele>211</ele>
        <time>2022-09-05T07:32:40.000Z</time>
      </trkpt>
      <trkpt lat="49.86596" lon="4.76211">
        <ele>211</ele>
        <time>2022-09-05T07:32:41.000Z</time>
      </trkpt>
      <trkpt lat="49.86596" lon="4.76207">
        <ele>211</ele>
        <time>2022-09-05T07:32:42.000Z</time>
      </trkpt>
      <trkpt lat="49.86596" lon="4.76203">
        <ele>211</ele>
        <time>2022-09-05T07:32:43.000Z</time>
      </trkpt>
      <trkpt lat="49.86596" lon="4.76198">
        <ele>211</ele>
        <time>2022-09-05T07:32:44.000Z</time>
      </trkpt>
      <trkpt lat="49.86596" lon="4.76194">
        <ele>211</ele>
        <time>2022-09-05T07:32:45.000Z</time>
      </trkpt>
      <trkpt lat="49.86597" lon="4.7619">
        <ele>211</ele>
        <time>2022-09-05T07:32:46.000Z</time>
      </trkpt>
      <trkpt lat="49.86597" lon="4.76186">
        <ele>211</ele>
        <time>2022-09-05T07:32:47.000Z</time>
      </trkpt>
      <trkpt lat="49.86597" lon="4.76182">
        <ele>211</ele>
        <time>2022-09-05T07:32:48.000Z</time>
      </trkpt>
      <trkpt lat="49.86597" lon="4.76179">
        <ele>211</ele>
        <time>2022-09-05T07:32:49.000Z</time>
      </trkpt>
      <trkpt lat="49.86598" lon="4.76176">
        <ele>211</ele>
        <time>2022-09-05T07:32:50.000Z</time>
      </trkpt>
      <trkpt lat="49.86599" lon="4.76173">
        <ele>212</ele>
        <time>2022-09-05T07:32:51.000Z</time>
      </trkpt>
      <trkpt lat="49.86601" lon="4.7617">
        <ele>212</ele>
        <time>2022-09-05T07:32:52.000Z</time>
      </trkpt>
      <trkpt lat="49.86602" lon="4.76168">
        <ele>212</ele>
        <time>2022-09-05T07:32:53.000Z</time>
      </trkpt>
      <trkpt lat="49.86602" lon="4.76168">
        <ele>212</ele>
        <time>2022-09-05T07:32:54.000Z</time>
      </trkpt>
      <trkpt lat="49.86603" lon="4.76168">
        <ele>212</ele>
        <time>2022-09-05T07:32:55.000Z</time>
      </trkpt>
      <trkpt lat="49.86604" lon="4.76169">
        <ele>212</ele>
        <time>2022-09-05T07:32:56.000Z</time>
      </trkpt>
      <trkpt lat="49.86605" lon="4.76169">
        <ele>213</ele>
        <time>2022-09-05T07:32:57.000Z</time>
      </trkpt>
      <trkpt lat="49.86606" lon="4.76169">
        <ele>213</ele>
        <time>2022-09-05T07:32:58.000Z</time>
      </trkpt>
      <trkpt lat="49.86607" lon="4.7617">
        <ele>213</ele>
        <time>2022-09-05T07:32:59.000Z</time>
      </trkpt>
      <trkpt lat="49.86609" lon="4.76171">
        <ele>214</ele>
        <time>2022-09-05T07:33:00.000Z</time>
      </trkpt>
      <trkpt lat="49.8661" lon="4.76171">
        <ele>214</ele>
        <time>2022-09-05T07:33:01.000Z</time>
      </trkpt>
      <trkpt lat="49.86611" lon="4.76172">
        <ele>214</ele>
        <time>2022-09-05T07:33:02.000Z</time>
      </trkpt>
      <trkpt lat="49.86612" lon="4.76173">
        <ele>215</ele>
        <time>2022-09-05T07:33:03.000Z</time>
      </trkpt>
      <trkpt lat="49.86614" lon="4.76174">
        <ele>215</ele>
        <time>2022-09-05T07:33:04.000Z</time>
      </trkpt>
      <trkpt lat="49.86615" lon="4.76174">
        <ele>215</ele>
        <time>2022-09-05T07:33:05.000Z</time>
      </trkpt>
      <trkpt lat="49.86617" lon="4.76175">
        <ele>216</ele>
        <time>2022-09-05T07:33:06.000Z</time>
      </trkpt>
      <trkpt lat="49.86618" lon="4.76175">
        <ele>216</ele>
        <time>2022-09-05T07:33:07.000Z</time>
      </trkpt>
      <trkpt lat="49.86619" lon="4.76176">
        <ele>216</ele>
        <time>2022-09-05T07:33:08.000Z</time>
      </trkpt>
      <trkpt lat="49.8662" lon="4.76177">
        <ele>217</ele>
        <time>2022-09-05T07:33:09.000Z</time>
      </trkpt>
      <trkpt lat="49.86621" lon="4.76177">
        <ele>217</ele>
        <time>2022-09-05T07:33:10.000Z</time>
      </trkpt>
      <trkpt lat="49.86622" lon="4.76177">
        <ele>217</ele>
        <time>2022-09-05T07:33:11.000Z</time>
      </trkpt>
      <trkpt lat="49.86623" lon="4.76177">
        <ele>218</ele>
        <time>2022-09-05T07:33:12.000Z</time>
      </trkpt>
      <trkpt lat="49.86624" lon="4.76177">
        <ele>218</ele>
        <time>2022-09-05T07:33:13.000Z</time>
      </trkpt>
      <trkpt lat="49.86625" lon="4.76178">
        <ele>218</ele>
        <time>2022-09-05T07:33:14.000Z</time>
      </trkpt>
      <trkpt lat="49.86626" lon="4.76178">
        <ele>219</ele>
        <time>2022-09-05T07:33:15.000Z</time>
      </trkpt>
      <trkpt lat="49.86628" lon="4.76179">
        <ele>219</ele>
        <time>2022-09-05T07:33:16.000Z</time>
      </trkpt>
      <trkpt lat="49.86629" lon="4.76179">
        <ele>219</ele>
        <time>2022-09-05T07:33:17.000Z</time>
      </trkpt>
      <trkpt lat="49.8663" lon="4.7618">
        <ele>220</ele>
        <time>2022-09-05T07:33:18.000Z</time>
      </trkpt>
      <trkpt lat="49.86632" lon="4.7618">
        <ele>220</ele>
        <time>2022-09-05T07:33:19.000Z</time>
      </trkpt>
      <trkpt lat="49.86633" lon="4.7618">
        <ele>220</ele>
        <time>2022-09-05T07:33:20.000Z</time>
      </trkpt>
      <trkpt lat="49.86635" lon="4.76181">
        <ele>221</ele>
        <time>2022-09-05T07:33:21.000Z</time>
      </trkpt>
      <trkpt lat="49.86636" lon="4.76181">
        <ele>221</ele>
        <time>2022-09-05T07:33:22.000Z</time>
      </trkpt>
      <trkpt lat="49.86638" lon="4.76182">
        <ele>221</ele>
        <time>2022-09-05T07:33:23.000Z</time>
      </trkpt>
      <trkpt lat="49.8664" lon="4.76183">
        <ele>222</ele>
        <time>2022-09-05T07:33:24.000Z</time>
      </trkpt>
      <trkpt lat="49.86641" lon="4.76183">
        <ele>222</ele>
        <time>2022-09-05T07:33:25.000Z</time>
      </trkpt>
      <trkpt lat="49.86642" lon="4.76184">
        <ele>222</ele>
        <time>2022-09-05T07:33:26.000Z</time>
      </trkpt>
      <trkpt lat="49.86643" lon="4.76184">
        <ele>222</ele>
        <time>2022-09-05T07:33:27.000Z</time>
      </trkpt>
      <trkpt lat="49.86645" lon="4.76185">
        <ele>223</ele>
        <time>2022-09-05T07:33:28.000Z</time>
      </trkpt>
      <trkpt lat="49.86646" lon="4.76186">
        <ele>223</ele>
        <time>2022-09-05T07:33:29.000Z</time>
      </trkpt>
      <trkpt lat="49.86648" lon="4.76186">
        <ele>223</ele>
        <time>2022-09-05T07:33:30.000Z</time>
      </trkpt>
      <trkpt lat="49.86649" lon="4.76187">
        <ele>224</ele>
        <time>2022-09-05T07:33:31.000Z</time>
      </trkpt>
      <trkpt lat="49.8665" lon="4.76188">
        <ele>224</ele>
        <time>2022-09-05T07:33:32.000Z</time>
      </trkpt>
      <trkpt lat="49.86651" lon="4.76188">
        <ele>224</ele>
        <time>2022-09-05T07:33:33.000Z</time>
      </trkpt>
      <trkpt lat="49.86653" lon="4.76189">
        <ele>225</ele>
        <time>2022-09-05T07:33:34.000Z</time>
      </trkpt>
      <trkpt lat="49.86654" lon="4.76189">
        <ele>225</ele>
        <time>2022-09-05T07:33:35.000Z</time>
      </trkpt>
      <trkpt lat="49.86656" lon="4.7619">
        <ele>225</ele>
        <time>2022-09-05T07:33:36.000Z</time>
      </trkpt>
      <trkpt lat="49.86658" lon="4.7619">
        <ele>226</ele>
        <time>2022-09-05T07:33:37.000Z</time>
      </trkpt>
      <trkpt lat="49.8666" lon="4.76191">
        <ele>226</ele>
        <time>2022-09-05T07:33:38.000Z</time>
      </trkpt>
      <trkpt lat="49.86661" lon="4.76191">
        <ele>226</ele>
        <time>2022-09-05T07:33:39.000Z</time>
      </trkpt>
      <trkpt lat="49.86664" lon="4.76191">
        <ele>227</ele>
        <time>2022-09-05T07:33:40.000Z</time>
      </trkpt>
      <trkpt lat="49.86665" lon="4.76192">
        <ele>227</ele>
        <time>2022-09-05T07:33:41.000Z</time>
      </trkpt>
      <trkpt lat="49.86667" lon="4.76192">
        <ele>227</ele>
        <time>2022-09-05T07:33:42.000Z</time>
      </trkpt>
      <trkpt lat="49.86668" lon="4.76193">
        <ele>228</ele>
        <time>2022-09-05T07:33:43.000Z</time>
      </trkpt>
      <trkpt lat="49.8667" lon="4.76194">
        <ele>228</ele>
        <time>2022-09-05T07:33:44.000Z</time>
      </trkpt>
      <trkpt lat="49.86671" lon="4.76195">
        <ele>228</ele>
        <time>2022-09-05T07:33:45.000Z</time>
      </trkpt>
      <trkpt lat="49.86672" lon="4.76196">
        <ele>228</ele>
        <time>2022-09-05T07:33:46.000Z</time>
      </trkpt>
      <trkpt lat="49.86674" lon="4.76196">
        <ele>229</ele>
        <time>2022-09-05T07:33:47.000Z</time>
      </trkpt>
      <trkpt lat="49.86676" lon="4.76196">
        <ele>229</ele>
        <time>2022-09-05T07:33:48.000Z</time>
      </trkpt>
      <trkpt lat="49.86678" lon="4.76197">
        <ele>229</ele>
        <time>2022-09-05T07:33:49.000Z</time>
      </trkpt>
      <trkpt lat="49.86679" lon="4.76198">
        <ele>229</ele>
        <time>2022-09-05T07:33:50.000Z</time>
      </trkpt>
      <trkpt lat="49.86681" lon="4.76199">
        <ele>230</ele>
        <time>2022-09-05T07:33:51.000Z</time>
      </trkpt>
      <trkpt lat="49.86682" lon="4.762">
        <ele>230</ele>
        <time>2022-09-05T07:33:52.000Z</time>
      </trkpt>
      <trkpt lat="49.86684" lon="4.762">
        <ele>230</ele>
        <time>2022-09-05T07:33:53.000Z</time>
      </trkpt>
      <trkpt lat="49.86686" lon="4.76201">
        <ele>230</ele>
        <time>2022-09-05T07:33:54.000Z</time>
      </trkpt>
      <trkpt lat="49.86687" lon="4.76202">
        <ele>231</ele>
        <time>2022-09-05T07:33:55.000Z</time>
      </trkpt>
      <trkpt lat="49.86688" lon="4.76203">
        <ele>231</ele>
        <time>2022-09-05T07:33:56.000Z</time>
      </trkpt>
      <trkpt lat="49.8669" lon="4.76204">
        <ele>231</ele>
        <time>2022-09-05T07:33:57.000Z</time>
      </trkpt>
      <trkpt lat="49.86691" lon="4.76205">
        <ele>231</ele>
        <time>2022-09-05T07:33:58.000Z</time>
      </trkpt>
      <trkpt lat="49.86692" lon="4.76206">
        <ele>231</ele>
        <time>2022-09-05T07:33:59.000Z</time>
      </trkpt>
      <trkpt lat="49.86694" lon="4.76208">
        <ele>232</ele>
        <time>2022-09-05T07:34:00.000Z</time>
      </trkpt>
      <trkpt lat="49.86696" lon="4.7621">
        <ele>232</ele>
        <time>2022-09-05T07:34:01.000Z</time>
      </trkpt>
      <trkpt lat="49.86698" lon="4.76212">
        <ele>232</ele>
        <time>2022-09-05T07:34:02.000Z</time>
      </trkpt>
      <trkpt lat="49.86701" lon="4.76213">
        <ele>232</ele>
        <time>2022-09-05T07:34:03.000Z</time>
      </trkpt>
      <trkpt lat="49.86703" lon="4.76215">
        <ele>233</ele>
        <time>2022-09-05T07:34:04.000Z</time>
      </trkpt>
      <trkpt lat="49.86704" lon="4.76217">
        <ele>233</ele>
        <time>2022-09-05T07:34:05.000Z</time>
      </trkpt>
      <trkpt lat="49.86706" lon="4.76219">
        <ele>233</ele>
        <time>2022-09-05T07:34:06.000Z</time>
      </trkpt>
      <trkpt lat="49.86708" lon="4.7622">
        <ele>234</ele>
        <time>2022-09-05T07:34:07.000Z</time>
      </trkpt>
      <trkpt lat="49.86711" lon="4.76221">
        <ele>234</ele>
        <time>2022-09-05T07:34:08.000Z</time>
      </trkpt>
      <trkpt lat="49.86713" lon="4.76223">
        <ele>234</ele>
        <time>2022-09-05T07:34:09.000Z</time>
      </trkpt>
      <trkpt lat="49.86715" lon="4.76225">
        <ele>234</ele>
        <time>2022-09-05T07:34:10.000Z</time>
      </trkpt>
      <trkpt lat="49.86717" lon="4.76227">
        <ele>234</ele>
        <time>2022-09-05T07:34:11.000Z</time>
      </trkpt>
      <trkpt lat="49.86718" lon="4.76229">
        <ele>234</ele>
        <time>2022-09-05T07:34:12.000Z</time>
      </trkpt>
      <trkpt lat="49.8672" lon="4.76231">
        <ele>234</ele>
        <time>2022-09-05T07:34:13.000Z</time>
      </trkpt>
      <trkpt lat="49.86721" lon="4.76233">
        <ele>234</ele>
        <time>2022-09-05T07:34:14.000Z</time>
      </trkpt>
      <trkpt lat="49.86722" lon="4.76235">
        <ele>235</ele>
        <time>2022-09-05T07:34:15.000Z</time>
      </trkpt>
      <trkpt lat="49.86723" lon="4.76236">
        <ele>235</ele>
        <time>2022-09-05T07:34:16.000Z</time>
      </trkpt>
      <trkpt lat="49.86724" lon="4.76238">
        <ele>235</ele>
        <time>2022-09-05T07:34:17.000Z</time>
      </trkpt>
      <trkpt lat="49.86726" lon="4.7624">
        <ele>235</ele>
        <time>2022-09-05T07:34:18.000Z</time>
      </trkpt>
      <trkpt lat="49.86727" lon="4.76243">
        <ele>235</ele>
        <time>2022-09-05T07:34:19.000Z</time>
      </trkpt>
      <trkpt lat="49.86728" lon="4.76245">
        <ele>235</ele>
        <time>2022-09-05T07:34:20.000Z</time>
      </trkpt>
      <trkpt lat="49.86729" lon="4.76247">
        <ele>236</ele>
        <time>2022-09-05T07:34:21.000Z</time>
      </trkpt>
      <trkpt lat="49.86731" lon="4.7625">
        <ele>236</ele>
        <time>2022-09-05T07:34:22.000Z</time>
      </trkpt>
      <trkpt lat="49.86732" lon="4.76252">
        <ele>236</ele>
        <time>2022-09-05T07:34:23.000Z</time>
      </trkpt>
      <trkpt lat="49.86732" lon="4.76254">
        <ele>236</ele>
        <time>2022-09-05T07:34:24.000Z</time>
      </trkpt>
      <trkpt lat="49.86734" lon="4.76256">
        <ele>237</ele>
        <time>2022-09-05T07:34:25.000Z</time>
      </trkpt>
      <trkpt lat="49.86735" lon="4.76258">
        <ele>237</ele>
        <time>2022-09-05T07:34:26.000Z</time>
      </trkpt>
      <trkpt lat="49.86737" lon="4.7626">
        <ele>237</ele>
        <time>2022-09-05T07:34:27.000Z</time>
      </trkpt>
      <trkpt lat="49.86738" lon="4.76262">
        <ele>237</ele>
        <time>2022-09-05T07:34:28.000Z</time>
      </trkpt>
      <trkpt lat="49.8674" lon="4.76265">
        <ele>238</ele>
        <time>2022-09-05T07:34:29.000Z</time>
      </trkpt>
      <trkpt lat="49.86741" lon="4.76267">
        <ele>238</ele>
        <time>2022-09-05T07:34:30.000Z</time>
      </trkpt>
      <trkpt lat="49.86742" lon="4.7627">
        <ele>238</ele>
        <time>2022-09-05T07:34:31.000Z</time>
      </trkpt>
      <trkpt lat="49.86744" lon="4.76272">
        <ele>238</ele>
        <time>2022-09-05T07:34:32.000Z</time>
      </trkpt>
      <trkpt lat="49.86745" lon="4.76274">
        <ele>239</ele>
        <time>2022-09-05T07:34:33.000Z</time>
      </trkpt>
      <trkpt lat="49.86746" lon="4.76275">
        <ele>239</ele>
        <time>2022-09-05T07:34:34.000Z</time>
      </trkpt>
      <trkpt lat="49.86747" lon="4.76277">
        <ele>239</ele>
        <time>2022-09-05T07:34:35.000Z</time>
      </trkpt>
      <trkpt lat="49.86749" lon="4.76278">
        <ele>239</ele>
        <time>2022-09-05T07:34:36.000Z</time>
      </trkpt>
      <trkpt lat="49.8675" lon="4.7628">
        <ele>240</ele>
        <time>2022-09-05T07:34:37.000Z</time>
      </trkpt>
      <trkpt lat="49.86752" lon="4.76282">
        <ele>240</ele>
        <time>2022-09-05T07:34:38.000Z</time>
      </trkpt>
      <trkpt lat="49.86753" lon="4.76283">
        <ele>241</ele>
        <time>2022-09-05T07:34:39.000Z</time>
      </trkpt>
      <trkpt lat="49.86756" lon="4.76284">
        <ele>241</ele>
        <time>2022-09-05T07:34:40.000Z</time>
      </trkpt>
      <trkpt lat="49.86757" lon="4.76286">
        <ele>241</ele>
        <time>2022-09-05T07:34:41.000Z</time>
      </trkpt>
      <trkpt lat="49.86759" lon="4.76287">
        <ele>242</ele>
        <time>2022-09-05T07:34:42.000Z</time>
      </trkpt>
      <trkpt lat="49.8676" lon="4.76289">
        <ele>242</ele>
        <time>2022-09-05T07:34:43.000Z</time>
      </trkpt>
      <trkpt lat="49.86761" lon="4.76291">
        <ele>243</ele>
        <time>2022-09-05T07:34:44.000Z</time>
      </trkpt>
      <trkpt lat="49.86762" lon="4.76292">
        <ele>243</ele>
        <time>2022-09-05T07:34:45.000Z</time>
      </trkpt>
      <trkpt lat="49.86762" lon="4.76294">
        <ele>243</ele>
        <time>2022-09-05T07:34:46.000Z</time>
      </trkpt>
      <trkpt lat="49.86763" lon="4.76295">
        <ele>244</ele>
        <time>2022-09-05T07:34:47.000Z</time>
      </trkpt>
      <trkpt lat="49.86765" lon="4.76296">
        <ele>244</ele>
        <time>2022-09-05T07:34:48.000Z</time>
      </trkpt>
      <trkpt lat="49.86766" lon="4.76298">
        <ele>244</ele>
        <time>2022-09-05T07:34:49.000Z</time>
      </trkpt>
      <trkpt lat="49.86767" lon="4.76299">
        <ele>245</ele>
        <time>2022-09-05T07:34:50.000Z</time>
      </trkpt>
      <trkpt lat="49.86768" lon="4.763">
        <ele>245</ele>
        <time>2022-09-05T07:34:51.000Z</time>
      </trkpt>
      <trkpt lat="49.86769" lon="4.76301">
        <ele>246</ele>
        <time>2022-09-05T07:34:52.000Z</time>
      </trkpt>
      <trkpt lat="49.86771" lon="4.76303">
        <ele>246</ele>
        <time>2022-09-05T07:34:53.000Z</time>
      </trkpt>
      <trkpt lat="49.86772" lon="4.76304">
        <ele>246</ele>
        <time>2022-09-05T07:34:54.000Z</time>
      </trkpt>
      <trkpt lat="49.86774" lon="4.76305">
        <ele>246</ele>
        <time>2022-09-05T07:34:55.000Z</time>
      </trkpt>
      <trkpt lat="49.86775" lon="4.76307">
        <ele>247</ele>
        <time>2022-09-05T07:34:56.000Z</time>
      </trkpt>
      <trkpt lat="49.86777" lon="4.76308">
        <ele>247</ele>
        <time>2022-09-05T07:34:57.000Z</time>
      </trkpt>
      <trkpt lat="49.86778" lon="4.7631">
        <ele>247</ele>
        <time>2022-09-05T07:34:58.000Z</time>
      </trkpt>
      <trkpt lat="49.86779" lon="4.76312">
        <ele>247</ele>
        <time>2022-09-05T07:34:59.000Z</time>
      </trkpt>
      <trkpt lat="49.86781" lon="4.76314">
        <ele>248</ele>
        <time>2022-09-05T07:35:00.000Z</time>
      </trkpt>
      <trkpt lat="49.86783" lon="4.76316">
        <ele>248</ele>
        <time>2022-09-05T07:35:01.000Z</time>
      </trkpt>
      <trkpt lat="49.86784" lon="4.76318">
        <ele>248</ele>
        <time>2022-09-05T07:35:02.000Z</time>
      </trkpt>
      <trkpt lat="49.86785" lon="4.7632">
        <ele>248</ele>
        <time>2022-09-05T07:35:03.000Z</time>
      </trkpt>
      <trkpt lat="49.86786" lon="4.76321">
        <ele>249</ele>
        <time>2022-09-05T07:35:04.000Z</time>
      </trkpt>
      <trkpt lat="49.86788" lon="4.76323">
        <ele>249</ele>
        <time>2022-09-05T07:35:05.000Z</time>
      </trkpt>
      <trkpt lat="49.86789" lon="4.76325">
        <ele>249</ele>
        <time>2022-09-05T07:35:06.000Z</time>
      </trkpt>
      <trkpt lat="49.86791" lon="4.76327">
        <ele>249</ele>
        <time>2022-09-05T07:35:07.000Z</time>
      </trkpt>
      <trkpt lat="49.86793" lon="4.76329">
        <ele>249</ele>
        <time>2022-09-05T07:35:08.000Z</time>
      </trkpt>
      <trkpt lat="49.86795" lon="4.76331">
        <ele>249</ele>
        <time>2022-09-05T07:35:09.000Z</time>
      </trkpt>
      <trkpt lat="49.86796" lon="4.76333">
        <ele>249</ele>
        <time>2022-09-05T07:35:10.000Z</time>
      </trkpt>
      <trkpt lat="49.86797" lon="4.76335">
        <ele>249</ele>
        <time>2022-09-05T07:35:11.000Z</time>
      </trkpt>
      <trkpt lat="49.86798" lon="4.76336">
        <ele>249</ele>
        <time>2022-09-05T07:35:12.000Z</time>
      </trkpt>
      <trkpt lat="49.868" lon="4.76338">
        <ele>249</ele>
        <time>2022-09-05T07:35:13.000Z</time>
      </trkpt>
      <trkpt lat="49.86801" lon="4.7634">
        <ele>249</ele>
        <time>2022-09-05T07:35:14.000Z</time>
      </trkpt>
      <trkpt lat="49.86803" lon="4.76343">
        <ele>249</ele>
        <time>2022-09-05T07:35:15.000Z</time>
      </trkpt>
      <trkpt lat="49.86804" lon="4.76345">
        <ele>249</ele>
        <time>2022-09-05T07:35:16.000Z</time>
      </trkpt>
      <trkpt lat="49.86806" lon="4.76347">
        <ele>249</ele>
        <time>2022-09-05T07:35:17.000Z</time>
      </trkpt>
      <trkpt lat="49.86807" lon="4.76349">
        <ele>249</ele>
        <time>2022-09-05T07:35:18.000Z</time>
      </trkpt>
      <trkpt lat="49.86808" lon="4.76351">
        <ele>249</ele>
        <time>2022-09-05T07:35:19.000Z</time>
      </trkpt>
      <trkpt lat="49.8681" lon="4.76353">
        <ele>249</ele>
        <time>2022-09-05T07:35:20.000Z</time>
      </trkpt>
      <trkpt lat="49.86811" lon="4.76355">
        <ele>249</ele>
        <time>2022-09-05T07:35:21.000Z</time>
      </trkpt>
      <trkpt lat="49.86813" lon="4.76357">
        <ele>249</ele>
        <time>2022-09-05T07:35:22.000Z</time>
      </trkpt>
      <trkpt lat="49.86814" lon="4.76359">
        <ele>249</ele>
        <time>2022-09-05T07:35:23.000Z</time>
      </trkpt>
      <trkpt lat="49.86815" lon="4.7636">
        <ele>249</ele>
        <time>2022-09-05T07:35:24.000Z</time>
      </trkpt>
      <trkpt lat="49.86817" lon="4.76362">
        <ele>249</ele>
        <time>2022-09-05T07:35:25.000Z</time>
      </trkpt>
      <trkpt lat="49.86818" lon="4.76364">
        <ele>250</ele>
        <time>2022-09-05T07:35:26.000Z</time>
      </trkpt>
      <trkpt lat="49.86819" lon="4.76366">
        <ele>250</ele>
        <time>2022-09-05T07:35:27.000Z</time>
      </trkpt>
      <trkpt lat="49.86821" lon="4.76367">
        <ele>250</ele>
        <time>2022-09-05T07:35:28.000Z</time>
      </trkpt>
      <trkpt lat="49.86822" lon="4.76369">
        <ele>250</ele>
        <time>2022-09-05T07:35:29.000Z</time>
      </trkpt>
      <trkpt lat="49.86824" lon="4.76371">
        <ele>250</ele>
        <time>2022-09-05T07:35:30.000Z</time>
      </trkpt>
      <trkpt lat="49.86825" lon="4.76372">
        <ele>250</ele>
        <time>2022-09-05T07:35:31.000Z</time>
      </trkpt>
      <trkpt lat="49.86826" lon="4.76374">
        <ele>251</ele>
        <time>2022-09-05T07:35:32.000Z</time>
      </trkpt>
      <trkpt lat="49.86828" lon="4.76375">
        <ele>251</ele>
        <time>2022-09-05T07:35:33.000Z</time>
      </trkpt>
      <trkpt lat="49.86829" lon="4.76377">
        <ele>251</ele>
        <time>2022-09-05T07:35:34.000Z</time>
      </trkpt>
      <trkpt lat="49.86831" lon="4.76379">
        <ele>251</ele>
        <time>2022-09-05T07:35:35.000Z</time>
      </trkpt>
      <trkpt lat="49.86832" lon="4.76382">
        <ele>252</ele>
        <time>2022-09-05T07:35:36.000Z</time>
      </trkpt>
      <trkpt lat="49.86833" lon="4.76384">
        <ele>252</ele>
        <time>2022-09-05T07:35:37.000Z</time>
      </trkpt>
      <trkpt lat="49.86835" lon="4.76386">
        <ele>252</ele>
        <time>2022-09-05T07:35:38.000Z</time>
      </trkpt>
      <trkpt lat="49.86836" lon="4.76389">
        <ele>252</ele>
        <time>2022-09-05T07:35:39.000Z</time>
      </trkpt>
      <trkpt lat="49.86838" lon="4.7639">
        <ele>253</ele>
        <time>2022-09-05T07:35:40.000Z</time>
      </trkpt>
      <trkpt lat="49.86839" lon="4.76392">
        <ele>253</ele>
        <time>2022-09-05T07:35:41.000Z</time>
      </trkpt>
      <trkpt lat="49.86841" lon="4.76394">
        <ele>254</ele>
        <time>2022-09-05T07:35:42.000Z</time>
      </trkpt>
      <trkpt lat="49.86843" lon="4.76395">
        <ele>254</ele>
        <time>2022-09-05T07:35:43.000Z</time>
      </trkpt>
      <trkpt lat="49.86844" lon="4.76397">
        <ele>254</ele>
        <time>2022-09-05T07:35:44.000Z</time>
      </trkpt>
      <trkpt lat="49.86846" lon="4.76399">
        <ele>255</ele>
        <time>2022-09-05T07:35:45.000Z</time>
      </trkpt>
      <trkpt lat="49.86848" lon="4.76401">
        <ele>255</ele>
        <time>2022-09-05T07:35:46.000Z</time>
      </trkpt>
      <trkpt lat="49.86849" lon="4.76402">
        <ele>255</ele>
        <time>2022-09-05T07:35:47.000Z</time>
      </trkpt>
      <trkpt lat="49.8685" lon="4.76403">
        <ele>255</ele>
        <time>2022-09-05T07:35:48.000Z</time>
      </trkpt>
      <trkpt lat="49.86851" lon="4.76403">
        <ele>255</ele>
        <time>2022-09-05T07:35:49.000Z</time>
      </trkpt>
      <trkpt lat="49.86851" lon="4.76403">
        <ele>255</ele>
        <time>2022-09-05T07:35:50.000Z</time>
      </trkpt>
      <trkpt lat="49.86852" lon="4.76401">
        <ele>255</ele>
        <time>2022-09-05T07:35:51.000Z</time>
      </trkpt>
      <trkpt lat="49.86852" lon="4.764">
        <ele>255</ele>
        <time>2022-09-05T07:35:52.000Z</time>
      </trkpt>
      <trkpt lat="49.86852" lon="4.76398">
        <ele>255</ele>
        <time>2022-09-05T07:35:53.000Z</time>
      </trkpt>
      <trkpt lat="49.86852" lon="4.76396">
        <ele>255</ele>
        <time>2022-09-05T07:35:54.000Z</time>
      </trkpt>
      <trkpt lat="49.86851" lon="4.76393">
        <ele>255</ele>
        <time>2022-09-05T07:35:55.000Z</time>
      </trkpt>
      <trkpt lat="49.8685" lon="4.76389">
        <ele>255</ele>
        <time>2022-09-05T07:35:56.000Z</time>
      </trkpt>
      <trkpt lat="49.86849" lon="4.76385">
        <ele>256</ele>
        <time>2022-09-05T07:35:57.000Z</time>
      </trkpt>
      <trkpt lat="49.86847" lon="4.7638">
        <ele>256</ele>
        <time>2022-09-05T07:35:58.000Z</time>
      </trkpt>
      <trkpt lat="49.86845" lon="4.76375">
        <ele>256</ele>
        <time>2022-09-05T07:35:59.000Z</time>
      </trkpt>
      <trkpt lat="49.86844" lon="4.76371">
        <ele>256</ele>
        <time>2022-09-05T07:36:00.000Z</time>
      </trkpt>
      <trkpt lat="49.86842" lon="4.76366">
        <ele>256</ele>
        <time>2022-09-05T07:36:01.000Z</time>
      </trkpt>
      <trkpt lat="49.86841" lon="4.76361">
        <ele>256</ele>
        <time>2022-09-05T07:36:02.000Z</time>
      </trkpt>
      <trkpt lat="49.86839" lon="4.76356">
        <ele>256</ele>
        <time>2022-09-05T07:36:03.000Z</time>
      </trkpt>
      <trkpt lat="49.86838" lon="4.76352">
        <ele>256</ele>
        <time>2022-09-05T07:36:04.000Z</time>
      </trkpt>
      <trkpt lat="49.86837" lon="4.76347">
        <ele>256</ele>
        <time>2022-09-05T07:36:05.000Z</time>
      </trkpt>
      <trkpt lat="49.86835" lon="4.76342">
        <ele>256</ele>
        <time>2022-09-05T07:36:06.000Z</time>
      </trkpt>
      <trkpt lat="49.86834" lon="4.76337">
        <ele>256</ele>
        <time>2022-09-05T07:36:07.000Z</time>
      </trkpt>
      <trkpt lat="49.86832" lon="4.76331">
        <ele>256</ele>
        <time>2022-09-05T07:36:08.000Z</time>
      </trkpt>
      <trkpt lat="49.8683" lon="4.76325">
        <ele>256</ele>
        <time>2022-09-05T07:36:09.000Z</time>
      </trkpt>
      <trkpt lat="49.86828" lon="4.76318">
        <ele>256</ele>
        <time>2022-09-05T07:36:10.000Z</time>
      </trkpt>
      <trkpt lat="49.86826" lon="4.76312">
        <ele>256</ele>
        <time>2022-09-05T07:36:11.000Z</time>
      </trkpt>
      <trkpt lat="49.86825" lon="4.76305">
        <ele>256</ele>
        <time>2022-09-05T07:36:12.000Z</time>
      </trkpt>
      <trkpt lat="49.86823" lon="4.76298">
        <ele>256</ele>
        <time>2022-09-05T07:36:13.000Z</time>
      </trkpt>
      <trkpt lat="49.86821" lon="4.76292">
        <ele>256</ele>
        <time>2022-09-05T07:36:14.000Z</time>
      </trkpt>
      <trkpt lat="49.86819" lon="4.76286">
        <ele>256</ele>
        <time>2022-09-05T07:36:15.000Z</time>
      </trkpt>
      <trkpt lat="49.86818" lon="4.76281">
        <ele>256</ele>
        <time>2022-09-05T07:36:16.000Z</time>
      </trkpt>
      <trkpt lat="49.86817" lon="4.76276">
        <ele>256</ele>
        <time>2022-09-05T07:36:17.000Z</time>
      </trkpt>
      <trkpt lat="49.86816" lon="4.76271">
        <ele>256</ele>
        <time>2022-09-05T07:36:18.000Z</time>
      </trkpt>
      <trkpt lat="49.86815" lon="4.76266">
        <ele>256</ele>
        <time>2022-09-05T07:36:19.000Z</time>
      </trkpt>
      <trkpt lat="49.86815" lon="4.76261">
        <ele>256</ele>
        <time>2022-09-05T07:36:20.000Z</time>
      </trkpt>
      <trkpt lat="49.86814" lon="4.76255">
        <ele>256</ele>
        <time>2022-09-05T07:36:21.000Z</time>
      </trkpt>
      <trkpt lat="49.86812" lon="4.76249">
        <ele>256</ele>
        <time>2022-09-05T07:36:22.000Z</time>
      </trkpt>
      <trkpt lat="49.8681" lon="4.76242">
        <ele>256</ele>
        <time>2022-09-05T07:36:23.000Z</time>
      </trkpt>
      <trkpt lat="49.86809" lon="4.76236">
        <ele>256</ele>
        <time>2022-09-05T07:36:24.000Z</time>
      </trkpt>
      <trkpt lat="49.86806" lon="4.76229">
        <ele>256</ele>
        <time>2022-09-05T07:36:25.000Z</time>
      </trkpt>
      <trkpt lat="49.86805" lon="4.76222">
        <ele>256</ele>
        <time>2022-09-05T07:36:26.000Z</time>
      </trkpt>
      <trkpt lat="49.86804" lon="4.76214">
        <ele>256</ele>
        <time>2022-09-05T07:36:27.000Z</time>
      </trkpt>
      <trkpt lat="49.86802" lon="4.76208">
        <ele>256</ele>
        <time>2022-09-05T07:36:28.000Z</time>
      </trkpt>
      <trkpt lat="49.868" lon="4.762">
        <ele>256</ele>
        <time>2022-09-05T07:36:29.000Z</time>
      </trkpt>
      <trkpt lat="49.86799" lon="4.76193">
        <ele>256</ele>
        <time>2022-09-05T07:36:30.000Z</time>
      </trkpt>
      <trkpt lat="49.86798" lon="4.76186">
        <ele>256</ele>
        <time>2022-09-05T07:36:31.000Z</time>
      </trkpt>
      <trkpt lat="49.86796" lon="4.76179">
        <ele>256</ele>
        <time>2022-09-05T07:36:32.000Z</time>
      </trkpt>
      <trkpt lat="49.86793" lon="4.76171">
        <ele>256</ele>
        <time>2022-09-05T07:36:33.000Z</time>
      </trkpt>
      <trkpt lat="49.86791" lon="4.76163">
        <ele>256</ele>
        <time>2022-09-05T07:36:34.000Z</time>
      </trkpt>
      <trkpt lat="49.8679" lon="4.76155">
        <ele>256</ele>
        <time>2022-09-05T07:36:35.000Z</time>
      </trkpt>
      <trkpt lat="49.86788" lon="4.76147">
        <ele>256</ele>
        <time>2022-09-05T07:36:36.000Z</time>
      </trkpt>
      <trkpt lat="49.86786" lon="4.76141">
        <ele>255</ele>
        <time>2022-09-05T07:36:37.000Z</time>
      </trkpt>
      <trkpt lat="49.86784" lon="4.76135">
        <ele>255</ele>
        <time>2022-09-05T07:36:38.000Z</time>
      </trkpt>
      <trkpt lat="49.86783" lon="4.76128">
        <ele>255</ele>
        <time>2022-09-05T07:36:39.000Z</time>
      </trkpt>
      <trkpt lat="49.86781" lon="4.76121">
        <ele>255</ele>
        <time>2022-09-05T07:36:40.000Z</time>
      </trkpt>
      <trkpt lat="49.86779" lon="4.76114">
        <ele>255</ele>
        <time>2022-09-05T07:36:41.000Z</time>
      </trkpt>
      <trkpt lat="49.86777" lon="4.76108">
        <ele>255</ele>
        <time>2022-09-05T07:36:42.000Z</time>
      </trkpt>
      <trkpt lat="49.86776" lon="4.76101">
        <ele>255</ele>
        <time>2022-09-05T07:36:43.000Z</time>
      </trkpt>
      <trkpt lat="49.86775" lon="4.76094">
        <ele>255</ele>
        <time>2022-09-05T07:36:44.000Z</time>
      </trkpt>
      <trkpt lat="49.86774" lon="4.76087">
        <ele>255</ele>
        <time>2022-09-05T07:36:45.000Z</time>
      </trkpt>
      <trkpt lat="49.86772" lon="4.76079">
        <ele>255</ele>
        <time>2022-09-05T07:36:46.000Z</time>
      </trkpt>
      <trkpt lat="49.86771" lon="4.76072">
        <ele>255</ele>
        <time>2022-09-05T07:36:47.000Z</time>
      </trkpt>
      <trkpt lat="49.86768" lon="4.76065">
        <ele>255</ele>
        <time>2022-09-05T07:36:48.000Z</time>
      </trkpt>
      <trkpt lat="49.86767" lon="4.76056">
        <ele>255</ele>
        <time>2022-09-05T07:36:49.000Z</time>
      </trkpt>
      <trkpt lat="49.86765" lon="4.76048">
        <ele>255</ele>
        <time>2022-09-05T07:36:50.000Z</time>
      </trkpt>
      <trkpt lat="49.86763" lon="4.7604">
        <ele>255</ele>
        <time>2022-09-05T07:36:51.000Z</time>
      </trkpt>
      <trkpt lat="49.86762" lon="4.76033">
        <ele>255</ele>
        <time>2022-09-05T07:36:52.000Z</time>
      </trkpt>
      <trkpt lat="49.8676" lon="4.76026">
        <ele>255</ele>
        <time>2022-09-05T07:36:53.000Z</time>
      </trkpt>
      <trkpt lat="49.86758" lon="4.76019">
        <ele>255</ele>
        <time>2022-09-05T07:36:54.000Z</time>
      </trkpt>
      <trkpt lat="49.86756" lon="4.76012">
        <ele>255</ele>
        <time>2022-09-05T07:36:55.000Z</time>
      </trkpt>
      <trkpt lat="49.86755" lon="4.76005">
        <ele>255</ele>
        <time>2022-09-05T07:36:56.000Z</time>
      </trkpt>
      <trkpt lat="49.86753" lon="4.75997">
        <ele>255</ele>
        <time>2022-09-05T07:36:57.000Z</time>
      </trkpt>
      <trkpt lat="49.86752" lon="4.7599">
        <ele>254</ele>
        <time>2022-09-05T07:36:58.000Z</time>
      </trkpt>
      <trkpt lat="49.8675" lon="4.75982">
        <ele>254</ele>
        <time>2022-09-05T07:36:59.000Z</time>
      </trkpt>
      <trkpt lat="49.86748" lon="4.75976">
        <ele>254</ele>
        <time>2022-09-05T07:37:00.000Z</time>
      </trkpt>
      <trkpt lat="49.86746" lon="4.75969">
        <ele>254</ele>
        <time>2022-09-05T07:37:01.000Z</time>
      </trkpt>
      <trkpt lat="49.86744" lon="4.75962">
        <ele>254</ele>
        <time>2022-09-05T07:37:02.000Z</time>
      </trkpt>
      <trkpt lat="49.86742" lon="4.75955">
        <ele>254</ele>
        <time>2022-09-05T07:37:03.000Z</time>
      </trkpt>
      <trkpt lat="49.86739" lon="4.75948">
        <ele>253</ele>
        <time>2022-09-05T07:37:04.000Z</time>
      </trkpt>
      <trkpt lat="49.86737" lon="4.7594">
        <ele>253</ele>
        <time>2022-09-05T07:37:05.000Z</time>
      </trkpt>
      <trkpt lat="49.86735" lon="4.75934">
        <ele>253</ele>
        <time>2022-09-05T07:37:06.000Z</time>
      </trkpt>
      <trkpt lat="49.86733" lon="4.75926">
        <ele>253</ele>
        <time>2022-09-05T07:37:07.000Z</time>
      </trkpt>
      <trkpt lat="49.86731" lon="4.75919">
        <ele>253</ele>
        <time>2022-09-05T07:37:08.000Z</time>
      </trkpt>
      <trkpt lat="49.8673" lon="4.75912">
        <ele>253</ele>
        <time>2022-09-05T07:37:09.000Z</time>
      </trkpt>
      <trkpt lat="49.86728" lon="4.75905">
        <ele>253</ele>
        <time>2022-09-05T07:37:10.000Z</time>
      </trkpt>
      <trkpt lat="49.86727" lon="4.75897">
        <ele>252</ele>
        <time>2022-09-05T07:37:11.000Z</time>
      </trkpt>
      <trkpt lat="49.86725" lon="4.75889">
        <ele>252</ele>
        <time>2022-09-05T07:37:12.000Z</time>
      </trkpt>
      <trkpt lat="49.86722" lon="4.75882">
        <ele>252</ele>
        <time>2022-09-05T07:37:13.000Z</time>
      </trkpt>
      <trkpt lat="49.86719" lon="4.75874">
        <ele>252</ele>
        <time>2022-09-05T07:37:14.000Z</time>
      </trkpt>
      <trkpt lat="49.86717" lon="4.75866">
        <ele>251</ele>
        <time>2022-09-05T07:37:15.000Z</time>
      </trkpt>
      <trkpt lat="49.86715" lon="4.75858">
        <ele>251</ele>
        <time>2022-09-05T07:37:16.000Z</time>
      </trkpt>
      <trkpt lat="49.86713" lon="4.7585">
        <ele>251</ele>
        <time>2022-09-05T07:37:17.000Z</time>
      </trkpt>
      <trkpt lat="49.86711" lon="4.75843">
        <ele>251</ele>
        <time>2022-09-05T07:37:18.000Z</time>
      </trkpt>
      <trkpt lat="49.8671" lon="4.75835">
        <ele>251</ele>
        <time>2022-09-05T07:37:19.000Z</time>
      </trkpt>
      <trkpt lat="49.86708" lon="4.75827">
        <ele>250</ele>
        <time>2022-09-05T07:37:20.000Z</time>
      </trkpt>
      <trkpt lat="49.86705" lon="4.75819">
        <ele>250</ele>
        <time>2022-09-05T07:37:21.000Z</time>
      </trkpt>
      <trkpt lat="49.86703" lon="4.7581">
        <ele>250</ele>
        <time>2022-09-05T07:37:22.000Z</time>
      </trkpt>
      <trkpt lat="49.86701" lon="4.75802">
        <ele>250</ele>
        <time>2022-09-05T07:37:23.000Z</time>
      </trkpt>
      <trkpt lat="49.86699" lon="4.75794">
        <ele>250</ele>
        <time>2022-09-05T07:37:24.000Z</time>
      </trkpt>
      <trkpt lat="49.86697" lon="4.75786">
        <ele>250</ele>
        <time>2022-09-05T07:37:25.000Z</time>
      </trkpt>
      <trkpt lat="49.86695" lon="4.75779">
        <ele>250</ele>
        <time>2022-09-05T07:37:26.000Z</time>
      </trkpt>
      <trkpt lat="49.86693" lon="4.75771">
        <ele>250</ele>
        <time>2022-09-05T07:37:27.000Z</time>
      </trkpt>
      <trkpt lat="49.86691" lon="4.75762">
        <ele>249</ele>
        <time>2022-09-05T07:37:28.000Z</time>
      </trkpt>
      <trkpt lat="49.8669" lon="4.75754">
        <ele>249</ele>
        <time>2022-09-05T07:37:29.000Z</time>
      </trkpt>
      <trkpt lat="49.86688" lon="4.75746">
        <ele>249</ele>
        <time>2022-09-05T07:37:30.000Z</time>
      </trkpt>
      <trkpt lat="49.86687" lon="4.75739">
        <ele>249</ele>
        <time>2022-09-05T07:37:31.000Z</time>
      </trkpt>
      <trkpt lat="49.86686" lon="4.75731">
        <ele>249</ele>
        <time>2022-09-05T07:37:32.000Z</time>
      </trkpt>
      <trkpt lat="49.86684" lon="4.75723">
        <ele>249</ele>
        <time>2022-09-05T07:37:33.000Z</time>
      </trkpt>
      <trkpt lat="49.86683" lon="4.75716">
        <ele>248</ele>
        <time>2022-09-05T07:37:34.000Z</time>
      </trkpt>
      <trkpt lat="49.86682" lon="4.75709">
        <ele>248</ele>
        <time>2022-09-05T07:37:35.000Z</time>
      </trkpt>
      <trkpt lat="49.86682" lon="4.75703">
        <ele>248</ele>
        <time>2022-09-05T07:37:36.000Z</time>
      </trkpt>
      <trkpt lat="49.86682" lon="4.75698">
        <ele>248</ele>
        <time>2022-09-05T07:37:37.000Z</time>
      </trkpt>
      <trkpt lat="49.86681" lon="4.75694">
        <ele>248</ele>
        <time>2022-09-05T07:37:38.000Z</time>
      </trkpt>
      <trkpt lat="49.86682" lon="4.75689">
        <ele>248</ele>
        <time>2022-09-05T07:37:39.000Z</time>
      </trkpt>
      <trkpt lat="49.86682" lon="4.75684">
        <ele>248</ele>
        <time>2022-09-05T07:37:40.000Z</time>
      </trkpt>
      <trkpt lat="49.86682" lon="4.75679">
        <ele>248</ele>
        <time>2022-09-05T07:37:41.000Z</time>
      </trkpt>
      <trkpt lat="49.86683" lon="4.75674">
        <ele>247</ele>
        <time>2022-09-05T07:37:42.000Z</time>
      </trkpt>
      <trkpt lat="49.86682" lon="4.75669">
        <ele>247</ele>
        <time>2022-09-05T07:37:43.000Z</time>
      </trkpt>
      <trkpt lat="49.86682" lon="4.75664">
        <ele>247</ele>
        <time>2022-09-05T07:37:44.000Z</time>
      </trkpt>
      <trkpt lat="49.86681" lon="4.7566">
        <ele>247</ele>
        <time>2022-09-05T07:37:45.000Z</time>
      </trkpt>
      <trkpt lat="49.8668" lon="4.75656">
        <ele>247</ele>
        <time>2022-09-05T07:37:46.000Z</time>
      </trkpt>
      <trkpt lat="49.86679" lon="4.7565">
        <ele>247</ele>
        <time>2022-09-05T07:37:47.000Z</time>
      </trkpt>
      <trkpt lat="49.86679" lon="4.75645">
        <ele>247</ele>
        <time>2022-09-05T07:37:48.000Z</time>
      </trkpt>
      <trkpt lat="49.86678" lon="4.75641">
        <ele>247</ele>
        <time>2022-09-05T07:37:49.000Z</time>
      </trkpt>
      <trkpt lat="49.86678" lon="4.75637">
        <ele>247</ele>
        <time>2022-09-05T07:37:50.000Z</time>
      </trkpt>
      <trkpt lat="49.86678" lon="4.75633">
        <ele>246</ele>
        <time>2022-09-05T07:37:51.000Z</time>
      </trkpt>
      <trkpt lat="49.86678" lon="4.75628">
        <ele>246</ele>
        <time>2022-09-05T07:37:52.000Z</time>
      </trkpt>
      <trkpt lat="49.86678" lon="4.75623">
        <ele>246</ele>
        <time>2022-09-05T07:37:53.000Z</time>
      </trkpt>
      <trkpt lat="49.86678" lon="4.75618">
        <ele>246</ele>
        <time>2022-09-05T07:37:54.000Z</time>
      </trkpt>
      <trkpt lat="49.86676" lon="4.75613">
        <ele>246</ele>
        <time>2022-09-05T07:37:55.000Z</time>
      </trkpt>
      <trkpt lat="49.86675" lon="4.75608">
        <ele>246</ele>
        <time>2022-09-05T07:37:56.000Z</time>
      </trkpt>
      <trkpt lat="49.86674" lon="4.75605">
        <ele>246</ele>
        <time>2022-09-05T07:37:57.000Z</time>
      </trkpt>
      <trkpt lat="49.86673" lon="4.75602">
        <ele>246</ele>
        <time>2022-09-05T07:37:58.000Z</time>
      </trkpt>
      <trkpt lat="49.86673" lon="4.75599">
        <ele>246</ele>
        <time>2022-09-05T07:37:59.000Z</time>
      </trkpt>
      <trkpt lat="49.86671" lon="4.75595">
        <ele>246</ele>
        <time>2022-09-05T07:38:00.000Z</time>
      </trkpt>
      <trkpt lat="49.8667" lon="4.75591">
        <ele>246</ele>
        <time>2022-09-05T07:38:01.000Z</time>
      </trkpt>
      <trkpt lat="49.86669" lon="4.75586">
        <ele>246</ele>
        <time>2022-09-05T07:38:02.000Z</time>
      </trkpt>
      <trkpt lat="49.8667" lon="4.75582">
        <ele>246</ele>
        <time>2022-09-05T07:38:03.000Z</time>
      </trkpt>
      <trkpt lat="49.8667" lon="4.75577">
        <ele>246</ele>
        <time>2022-09-05T07:38:04.000Z</time>
      </trkpt>
      <trkpt lat="49.8667" lon="4.75573">
        <ele>245</ele>
        <time>2022-09-05T07:38:05.000Z</time>
      </trkpt>
      <trkpt lat="49.86671" lon="4.75568">
        <ele>245</ele>
        <time>2022-09-05T07:38:06.000Z</time>
      </trkpt>
      <trkpt lat="49.86672" lon="4.75562">
        <ele>245</ele>
        <time>2022-09-05T07:38:07.000Z</time>
      </trkpt>
      <trkpt lat="49.86672" lon="4.75556">
        <ele>245</ele>
        <time>2022-09-05T07:38:08.000Z</time>
      </trkpt>
      <trkpt lat="49.86671" lon="4.7555">
        <ele>244</ele>
        <time>2022-09-05T07:38:09.000Z</time>
      </trkpt>
      <trkpt lat="49.8667" lon="4.75543">
        <ele>244</ele>
        <time>2022-09-05T07:38:10.000Z</time>
      </trkpt>
      <trkpt lat="49.86669" lon="4.75536">
        <ele>244</ele>
        <time>2022-09-05T07:38:11.000Z</time>
      </trkpt>
      <trkpt lat="49.86668" lon="4.7553">
        <ele>244</ele>
        <time>2022-09-05T07:38:12.000Z</time>
      </trkpt>
      <trkpt lat="49.86666" lon="4.75523">
        <ele>244</ele>
        <time>2022-09-05T07:38:13.000Z</time>
      </trkpt>
      <trkpt lat="49.86664" lon="4.75515">
        <ele>244</ele>
        <time>2022-09-05T07:38:14.000Z</time>
      </trkpt>
      <trkpt lat="49.86662" lon="4.75508">
        <ele>244</ele>
        <time>2022-09-05T07:38:15.000Z</time>
      </trkpt>
      <trkpt lat="49.86661" lon="4.755">
        <ele>243</ele>
        <time>2022-09-05T07:38:16.000Z</time>
      </trkpt>
      <trkpt lat="49.8666" lon="4.75494">
        <ele>243</ele>
        <time>2022-09-05T07:38:17.000Z</time>
      </trkpt>
      <trkpt lat="49.8666" lon="4.75488">
        <ele>243</ele>
        <time>2022-09-05T07:38:18.000Z</time>
      </trkpt>
      <trkpt lat="49.8666" lon="4.75482">
        <ele>243</ele>
        <time>2022-09-05T07:38:19.000Z</time>
      </trkpt>
      <trkpt lat="49.86661" lon="4.75477">
        <ele>243</ele>
        <time>2022-09-05T07:38:20.000Z</time>
      </trkpt>
      <trkpt lat="49.86662" lon="4.75473">
        <ele>243</ele>
        <time>2022-09-05T07:38:21.000Z</time>
      </trkpt>
      <trkpt lat="49.86662" lon="4.75468">
        <ele>243</ele>
        <time>2022-09-05T07:38:22.000Z</time>
      </trkpt>
      <trkpt lat="49.86663" lon="4.75462">
        <ele>243</ele>
        <time>2022-09-05T07:38:23.000Z</time>
      </trkpt>
      <trkpt lat="49.86663" lon="4.75457">
        <ele>242</ele>
        <time>2022-09-05T07:38:24.000Z</time>
      </trkpt>
      <trkpt lat="49.86662" lon="4.75453">
        <ele>242</ele>
        <time>2022-09-05T07:38:25.000Z</time>
      </trkpt>
      <trkpt lat="49.86662" lon="4.75451">
        <ele>242</ele>
        <time>2022-09-05T07:38:26.000Z</time>
      </trkpt>
      <trkpt lat="49.86662" lon="4.75451">
        <ele>242</ele>
        <time>2022-09-05T07:38:27.000Z</time>
      </trkpt>
      <trkpt lat="49.86662" lon="4.7545">
        <ele>242</ele>
        <time>2022-09-05T07:38:28.000Z</time>
      </trkpt>
      <trkpt lat="49.86662" lon="4.75449">
        <ele>242</ele>
        <time>2022-09-05T07:38:29.000Z</time>
      </trkpt>
      <trkpt lat="49.86662" lon="4.75449">
        <ele>242</ele>
        <time>2022-09-05T07:38:30.000Z</time>
      </trkpt>
      <trkpt lat="49.86662" lon="4.75449">
        <ele>242</ele>
        <time>2022-09-05T07:38:31.000Z</time>
      </trkpt>
      <trkpt lat="49.86662" lon="4.75449">
        <ele>242</ele>
        <time>2022-09-05T07:38:32.000Z</time>
      </trkpt>
      <trkpt lat="49.86662" lon="4.75448">
        <ele>242</ele>
        <time>2022-09-05T07:38:33.000Z</time>
      </trkpt>
      <trkpt lat="49.86662" lon="4.75448">
        <ele>242</ele>
        <time>2022-09-05T07:38:34.000Z</time>
      </trkpt>
      <trkpt lat="49.86662" lon="4.75447">
        <ele>242</ele>
        <time>2022-09-05T07:38:35.000Z</time>
      </trkpt>
      <trkpt lat="49.86662" lon="4.75447">
        <ele>242</ele>
        <time>2022-09-05T07:38:36.000Z</time>
      </trkpt>
      <trkpt lat="49.86662" lon="4.75447">
        <ele>242</ele>
        <time>2022-09-05T07:38:37.000Z</time>
      </trkpt>
      <trkpt lat="49.86662" lon="4.75447">
        <ele>242</ele>
        <time>2022-09-05T07:38:38.000Z</time>
      </trkpt>
      <trkpt lat="49.86662" lon="4.75446">
        <ele>242</ele>
        <time>2022-09-05T07:38:39.000Z</time>
      </trkpt>
      <trkpt lat="49.86662" lon="4.75446">
        <ele>242</ele>
        <time>2022-09-05T07:38:40.000Z</time>
      </trkpt>
      <trkpt lat="49.86662" lon="4.75446">
        <ele>242</ele>
        <time>2022-09-05T07:38:41.000Z</time>
      </trkpt>
      <trkpt lat="49.86662" lon="4.75446">
        <ele>242</ele>
        <time>2022-09-05T07:38:42.000Z</time>
      </trkpt>
      <trkpt lat="49.86662" lon="4.75446">
        <ele>242</ele>
        <time>2022-09-05T07:38:43.000Z</time>
      </trkpt>
      <trkpt lat="49.86662" lon="4.75446">
        <ele>242</ele>
        <time>2022-09-05T07:38:44.000Z</time>
      </trkpt>
      <trkpt lat="49.86662" lon="4.75445">
        <ele>242</ele>
        <time>2022-09-05T07:38:45.000Z</time>
      </trkpt>
      <trkpt lat="49.86662" lon="4.75445">
        <ele>242</ele>
        <time>2022-09-05T07:38:46.000Z</time>
      </trkpt>
      <trkpt lat="49.86662" lon="4.75445">
        <ele>242</ele>
        <time>2022-09-05T07:38:47.000Z</time>
      </trkpt>
      <trkpt lat="49.86662" lon="4.75445">
        <ele>242</ele>
        <time>2022-09-05T07:38:48.000Z</time>
      </trkpt>
      <trkpt lat="49.86662" lon="4.75445">
        <ele>242</ele>
        <time>2022-09-05T07:38:49.000Z</time>
      </trkpt>
      <trkpt lat="49.86662" lon="4.75445">
        <ele>242</ele>
        <time>2022-09-05T07:38:50.000Z</time>
      </trkpt>
      <trkpt lat="49.86662" lon="4.75445">
        <ele>242</ele>
        <time>2022-09-05T07:38:51.000Z</time>
      </trkpt>
      <trkpt lat="49.86662" lon="4.75445">
        <ele>242</ele>
        <time>2022-09-05T07:38:52.000Z</time>
      </trkpt>
      <trkpt lat="49.86662" lon="4.75444">
        <ele>242</ele>
        <time>2022-09-05T07:38:53.000Z</time>
      </trkpt>
      <trkpt lat="49.86662" lon="4.75445">
        <ele>242</ele>
        <time>2022-09-05T07:38:54.000Z</time>
      </trkpt>
      <trkpt lat="49.86663" lon="4.75446">
        <ele>242</ele>
        <time>2022-09-05T07:38:55.000Z</time>
      </trkpt>
      <trkpt lat="49.86663" lon="4.75448">
        <ele>242</ele>
        <time>2022-09-05T07:38:56.000Z</time>
      </trkpt>
      <trkpt lat="49.86663" lon="4.7545">
        <ele>242</ele>
        <time>2022-09-05T07:38:57.000Z</time>
      </trkpt>
      <trkpt lat="49.86663" lon="4.75452">
        <ele>242</ele>
        <time>2022-09-05T07:38:58.000Z</time>
      </trkpt>
      <trkpt lat="49.86663" lon="4.75456">
        <ele>243</ele>
        <time>2022-09-05T07:38:59.000Z</time>
      </trkpt>
      <trkpt lat="49.86662" lon="4.7546">
        <ele>243</ele>
        <time>2022-09-05T07:39:00.000Z</time>
      </trkpt>
      <trkpt lat="49.86662" lon="4.75464">
        <ele>243</ele>
        <time>2022-09-05T07:39:01.000Z</time>
      </trkpt>
      <trkpt lat="49.86662" lon="4.75469">
        <ele>243</ele>
        <time>2022-09-05T07:39:02.000Z</time>
      </trkpt>
      <trkpt lat="49.86662" lon="4.75474">
        <ele>243</ele>
        <time>2022-09-05T07:39:03.000Z</time>
      </trkpt>
      <trkpt lat="49.86663" lon="4.75478">
        <ele>243</ele>
        <time>2022-09-05T07:39:04.000Z</time>
      </trkpt>
      <trkpt lat="49.86663" lon="4.75481">
        <ele>243</ele>
        <time>2022-09-05T07:39:05.000Z</time>
      </trkpt>
      <trkpt lat="49.86664" lon="4.75485">
        <ele>243</ele>
        <time>2022-09-05T07:39:06.000Z</time>
      </trkpt>
      <trkpt lat="49.86664" lon="4.75489">
        <ele>243</ele>
        <time>2022-09-05T07:39:07.000Z</time>
      </trkpt>
      <trkpt lat="49.86664" lon="4.75493">
        <ele>243</ele>
        <time>2022-09-05T07:39:08.000Z</time>
      </trkpt>
      <trkpt lat="49.86664" lon="4.75496">
        <ele>243</ele>
        <time>2022-09-05T07:39:09.000Z</time>
      </trkpt>
      <trkpt lat="49.86665" lon="4.75499">
        <ele>243</ele>
        <time>2022-09-05T07:39:10.000Z</time>
      </trkpt>
      <trkpt lat="49.86666" lon="4.75502">
        <ele>243</ele>
        <time>2022-09-05T07:39:11.000Z</time>
      </trkpt>
      <trkpt lat="49.86667" lon="4.75505">
        <ele>243</ele>
        <time>2022-09-05T07:39:12.000Z</time>
      </trkpt>
      <trkpt lat="49.86668" lon="4.75508">
        <ele>244</ele>
        <time>2022-09-05T07:39:13.000Z</time>
      </trkpt>
      <trkpt lat="49.86669" lon="4.75511">
        <ele>244</ele>
        <time>2022-09-05T07:39:14.000Z</time>
      </trkpt>
      <trkpt lat="49.8667" lon="4.75513">
        <ele>244</ele>
        <time>2022-09-05T07:39:15.000Z</time>
      </trkpt>
      <trkpt lat="49.86671" lon="4.75516">
        <ele>244</ele>
        <time>2022-09-05T07:39:16.000Z</time>
      </trkpt>
      <trkpt lat="49.86672" lon="4.75518">
        <ele>244</ele>
        <time>2022-09-05T07:39:17.000Z</time>
      </trkpt>
      <trkpt lat="49.86674" lon="4.75521">
        <ele>244</ele>
        <time>2022-09-05T07:39:18.000Z</time>
      </trkpt>
      <trkpt lat="49.86675" lon="4.75524">
        <ele>244</ele>
        <time>2022-09-05T07:39:19.000Z</time>
      </trkpt>
      <trkpt lat="49.86676" lon="4.75526">
        <ele>245</ele>
        <time>2022-09-05T07:39:20.000Z</time>
      </trkpt>
      <trkpt lat="49.86677" lon="4.75528">
        <ele>245</ele>
        <time>2022-09-05T07:39:21.000Z</time>
      </trkpt>
      <trkpt lat="49.86678" lon="4.75531">
        <ele>245</ele>
        <time>2022-09-05T07:39:22.000Z</time>
      </trkpt>
      <trkpt lat="49.86679" lon="4.75534">
        <ele>245</ele>
        <time>2022-09-05T07:39:23.000Z</time>
      </trkpt>
      <trkpt lat="49.8668" lon="4.75536">
        <ele>245</ele>
        <time>2022-09-05T07:39:24.000Z</time>
      </trkpt>
      <trkpt lat="49.86682" lon="4.75538">
        <ele>246</ele>
        <time>2022-09-05T07:39:25.000Z</time>
      </trkpt>
      <trkpt lat="49.86683" lon="4.7554">
        <ele>246</ele>
        <time>2022-09-05T07:39:26.000Z</time>
      </trkpt>
      <trkpt lat="49.86684" lon="4.75543">
        <ele>246</ele>
        <time>2022-09-05T07:39:27.000Z</time>
      </trkpt>
      <trkpt lat="49.86686" lon="4.75546">
        <ele>246</ele>
        <time>2022-09-05T07:39:28.000Z</time>
      </trkpt>
      <trkpt lat="49.86687" lon="4.75548">
        <ele>247</ele>
        <time>2022-09-05T07:39:29.000Z</time>
      </trkpt>
      <trkpt lat="49.86689" lon="4.75551">
        <ele>247</ele>
        <time>2022-09-05T07:39:30.000Z</time>
      </trkpt>
      <trkpt lat="49.8669" lon="4.75554">
        <ele>247</ele>
        <time>2022-09-05T07:39:31.000Z</time>
      </trkpt>
      <trkpt lat="49.86691" lon="4.75556">
        <ele>248</ele>
        <time>2022-09-05T07:39:32.000Z</time>
      </trkpt>
      <trkpt lat="49.86692" lon="4.75558">
        <ele>248</ele>
        <time>2022-09-05T07:39:33.000Z</time>
      </trkpt>
      <trkpt lat="49.86693" lon="4.7556">
        <ele>248</ele>
        <time>2022-09-05T07:39:34.000Z</time>
      </trkpt>
      <trkpt lat="49.86694" lon="4.75562">
        <ele>248</ele>
        <time>2022-09-05T07:39:35.000Z</time>
      </trkpt>
      <trkpt lat="49.86695" lon="4.75565">
        <ele>249</ele>
        <time>2022-09-05T07:39:36.000Z</time>
      </trkpt>
      <trkpt lat="49.86696" lon="4.75567">
        <ele>249</ele>
        <time>2022-09-05T07:39:37.000Z</time>
      </trkpt>
      <trkpt lat="49.86697" lon="4.7557">
        <ele>250</ele>
        <time>2022-09-05T07:39:38.000Z</time>
      </trkpt>
      <trkpt lat="49.86697" lon="4.75571">
        <ele>250</ele>
        <time>2022-09-05T07:39:39.000Z</time>
      </trkpt>
      <trkpt lat="49.86697" lon="4.75573">
        <ele>250</ele>
        <time>2022-09-05T07:39:40.000Z</time>
      </trkpt>
      <trkpt lat="49.86697" lon="4.75575">
        <ele>251</ele>
        <time>2022-09-05T07:39:41.000Z</time>
      </trkpt>
      <trkpt lat="49.86697" lon="4.75577">
        <ele>251</ele>
        <time>2022-09-05T07:39:42.000Z</time>
      </trkpt>
      <trkpt lat="49.86697" lon="4.7558">
        <ele>251</ele>
        <time>2022-09-05T07:39:43.000Z</time>
      </trkpt>
      <trkpt lat="49.86697" lon="4.75583">
        <ele>251</ele>
        <time>2022-09-05T07:39:44.000Z</time>
      </trkpt>
      <trkpt lat="49.86696" lon="4.75585">
        <ele>252</ele>
        <time>2022-09-05T07:39:45.000Z</time>
      </trkpt>
      <trkpt lat="49.86696" lon="4.75587">
        <ele>252</ele>
        <time>2022-09-05T07:39:46.000Z</time>
      </trkpt>
      <trkpt lat="49.86696" lon="4.75589">
        <ele>252</ele>
        <time>2022-09-05T07:39:47.000Z</time>
      </trkpt>
      <trkpt lat="49.86696" lon="4.75591">
        <ele>252</ele>
        <time>2022-09-05T07:39:48.000Z</time>
      </trkpt>
      <trkpt lat="49.86696" lon="4.75593">
        <ele>252</ele>
        <time>2022-09-05T07:39:49.000Z</time>
      </trkpt>
      <trkpt lat="49.86697" lon="4.75596">
        <ele>252</ele>
        <time>2022-09-05T07:39:50.000Z</time>
      </trkpt>
      <trkpt lat="49.86698" lon="4.75598">
        <ele>252</ele>
        <time>2022-09-05T07:39:51.000Z</time>
      </trkpt>
      <trkpt lat="49.86698" lon="4.75598">
        <ele>252</ele>
        <time>2022-09-05T07:39:52.000Z</time>
      </trkpt>
      <trkpt lat="49.86699" lon="4.75599">
        <ele>253</ele>
        <time>2022-09-05T07:39:53.000Z</time>
      </trkpt>
      <trkpt lat="49.867" lon="4.75601">
        <ele>253</ele>
        <time>2022-09-05T07:39:54.000Z</time>
      </trkpt>
      <trkpt lat="49.867" lon="4.75602">
        <ele>253</ele>
        <time>2022-09-05T07:39:55.000Z</time>
      </trkpt>
      <trkpt lat="49.86701" lon="4.75603">
        <ele>253</ele>
        <time>2022-09-05T07:39:56.000Z</time>
      </trkpt>
      <trkpt lat="49.86702" lon="4.75604">
        <ele>253</ele>
        <time>2022-09-05T07:39:57.000Z</time>
      </trkpt>
      <trkpt lat="49.86702" lon="4.75605">
        <ele>254</ele>
        <time>2022-09-05T07:39:58.000Z</time>
      </trkpt>
      <trkpt lat="49.86702" lon="4.75606">
        <ele>254</ele>
        <time>2022-09-05T07:39:59.000Z</time>
      </trkpt>
      <trkpt lat="49.86703" lon="4.75607">
        <ele>254</ele>
        <time>2022-09-05T07:40:00.000Z</time>
      </trkpt>
      <trkpt lat="49.86704" lon="4.75608">
        <ele>254</ele>
        <time>2022-09-05T07:40:01.000Z</time>
      </trkpt>
      <trkpt lat="49.86704" lon="4.75608">
        <ele>255</ele>
        <time>2022-09-05T07:40:02.000Z</time>
      </trkpt>
      <trkpt lat="49.86704" lon="4.75608">
        <ele>255</ele>
        <time>2022-09-05T07:40:03.000Z</time>
      </trkpt>
      <trkpt lat="49.86705" lon="4.75608">
        <ele>255</ele>
        <time>2022-09-05T07:40:04.000Z</time>
      </trkpt>
      <trkpt lat="49.86706" lon="4.75608">
        <ele>255</ele>
        <time>2022-09-05T07:40:05.000Z</time>
      </trkpt>
      <trkpt lat="49.86707" lon="4.75608">
        <ele>255</ele>
        <time>2022-09-05T07:40:06.000Z</time>
      </trkpt>
      <trkpt lat="49.86707" lon="4.75608">
        <ele>256</ele>
        <time>2022-09-05T07:40:07.000Z</time>
      </trkpt>
      <trkpt lat="49.86708" lon="4.75609">
        <ele>256</ele>
        <time>2022-09-05T07:40:08.000Z</time>
      </trkpt>
      <trkpt lat="49.86709" lon="4.7561">
        <ele>256</ele>
        <time>2022-09-05T07:40:09.000Z</time>
      </trkpt>
      <trkpt lat="49.86709" lon="4.75611">
        <ele>256</ele>
        <time>2022-09-05T07:40:10.000Z</time>
      </trkpt>
      <trkpt lat="49.8671" lon="4.75611">
        <ele>256</ele>
        <time>2022-09-05T07:40:11.000Z</time>
      </trkpt>
      <trkpt lat="49.8671" lon="4.75611">
        <ele>257</ele>
        <time>2022-09-05T07:40:12.000Z</time>
      </trkpt>
      <trkpt lat="49.86711" lon="4.75612">
        <ele>257</ele>
        <time>2022-09-05T07:40:13.000Z</time>
      </trkpt>
      <trkpt lat="49.86712" lon="4.75613">
        <ele>257</ele>
        <time>2022-09-05T07:40:14.000Z</time>
      </trkpt>
      <trkpt lat="49.86713" lon="4.75615">
        <ele>257</ele>
        <time>2022-09-05T07:40:15.000Z</time>
      </trkpt>
      <trkpt lat="49.86714" lon="4.75616">
        <ele>257</ele>
        <time>2022-09-05T07:40:16.000Z</time>
      </trkpt>
      <trkpt lat="49.86714" lon="4.75618">
        <ele>257</ele>
        <time>2022-09-05T07:40:17.000Z</time>
      </trkpt>
      <trkpt lat="49.86715" lon="4.7562">
        <ele>257</ele>
        <time>2022-09-05T07:40:18.000Z</time>
      </trkpt>
      <trkpt lat="49.86717" lon="4.75622">
        <ele>258</ele>
        <time>2022-09-05T07:40:19.000Z</time>
      </trkpt>
      <trkpt lat="49.86718" lon="4.75624">
        <ele>258</ele>
        <time>2022-09-05T07:40:20.000Z</time>
      </trkpt>
      <trkpt lat="49.86719" lon="4.75627">
        <ele>258</ele>
        <time>2022-09-05T07:40:21.000Z</time>
      </trkpt>
      <trkpt lat="49.86721" lon="4.7563">
        <ele>258</ele>
        <time>2022-09-05T07:40:22.000Z</time>
      </trkpt>
      <trkpt lat="49.86722" lon="4.75633">
        <ele>258</ele>
        <time>2022-09-05T07:40:23.000Z</time>
      </trkpt>
      <trkpt lat="49.86723" lon="4.75635">
        <ele>258</ele>
        <time>2022-09-05T07:40:24.000Z</time>
      </trkpt>
      <trkpt lat="49.86724" lon="4.75637">
        <ele>258</ele>
        <time>2022-09-05T07:40:25.000Z</time>
      </trkpt>
      <trkpt lat="49.86725" lon="4.7564">
        <ele>259</ele>
        <time>2022-09-05T07:40:26.000Z</time>
      </trkpt>
      <trkpt lat="49.86726" lon="4.75643">
        <ele>259</ele>
        <time>2022-09-05T07:40:27.000Z</time>
      </trkpt>
      <trkpt lat="49.86727" lon="4.75646">
        <ele>259</ele>
        <time>2022-09-05T07:40:28.000Z</time>
      </trkpt>
      <trkpt lat="49.86729" lon="4.75649">
        <ele>259</ele>
        <time>2022-09-05T07:40:29.000Z</time>
      </trkpt>
      <trkpt lat="49.8673" lon="4.75653">
        <ele>259</ele>
        <time>2022-09-05T07:40:30.000Z</time>
      </trkpt>
      <trkpt lat="49.86731" lon="4.75655">
        <ele>259</ele>
        <time>2022-09-05T07:40:31.000Z</time>
      </trkpt>
      <trkpt lat="49.86732" lon="4.75658">
        <ele>259</ele>
        <time>2022-09-05T07:40:32.000Z</time>
      </trkpt>
      <trkpt lat="49.86733" lon="4.7566">
        <ele>259</ele>
        <time>2022-09-05T07:40:33.000Z</time>
      </trkpt>
      <trkpt lat="49.86735" lon="4.75663">
        <ele>259</ele>
        <time>2022-09-05T07:40:34.000Z</time>
      </trkpt>
      <trkpt lat="49.86736" lon="4.75665">
        <ele>260</ele>
        <time>2022-09-05T07:40:35.000Z</time>
      </trkpt>
      <trkpt lat="49.86737" lon="4.75667">
        <ele>260</ele>
        <time>2022-09-05T07:40:36.000Z</time>
      </trkpt>
      <trkpt lat="49.86738" lon="4.7567">
        <ele>260</ele>
        <time>2022-09-05T07:40:37.000Z</time>
      </trkpt>
      <trkpt lat="49.8674" lon="4.75672">
        <ele>260</ele>
        <time>2022-09-05T07:40:38.000Z</time>
      </trkpt>
      <trkpt lat="49.86742" lon="4.75675">
        <ele>260</ele>
        <time>2022-09-05T07:40:39.000Z</time>
      </trkpt>
      <trkpt lat="49.86743" lon="4.75677">
        <ele>260</ele>
        <time>2022-09-05T07:40:40.000Z</time>
      </trkpt>
      <trkpt lat="49.86744" lon="4.75679">
        <ele>261</ele>
        <time>2022-09-05T07:40:41.000Z</time>
      </trkpt>
      <trkpt lat="49.86745" lon="4.75682">
        <ele>261</ele>
        <time>2022-09-05T07:40:42.000Z</time>
      </trkpt>
      <trkpt lat="49.86747" lon="4.75684">
        <ele>261</ele>
        <time>2022-09-05T07:40:43.000Z</time>
      </trkpt>
      <trkpt lat="49.86748" lon="4.75687">
        <ele>261</ele>
        <time>2022-09-05T07:40:44.000Z</time>
      </trkpt>
      <trkpt lat="49.8675" lon="4.7569">
        <ele>261</ele>
        <time>2022-09-05T07:40:45.000Z</time>
      </trkpt>
      <trkpt lat="49.86751" lon="4.75692">
        <ele>262</ele>
        <time>2022-09-05T07:40:46.000Z</time>
      </trkpt>
      <trkpt lat="49.86752" lon="4.75695">
        <ele>262</ele>
        <time>2022-09-05T07:40:47.000Z</time>
      </trkpt>
      <trkpt lat="49.86753" lon="4.75697">
        <ele>262</ele>
        <time>2022-09-05T07:40:48.000Z</time>
      </trkpt>
      <trkpt lat="49.86754" lon="4.757">
        <ele>262</ele>
        <time>2022-09-05T07:40:49.000Z</time>
      </trkpt>
      <trkpt lat="49.86755" lon="4.75703">
        <ele>263</ele>
        <time>2022-09-05T07:40:50.000Z</time>
      </trkpt>
      <trkpt lat="49.86756" lon="4.75705">
        <ele>263</ele>
        <time>2022-09-05T07:40:51.000Z</time>
      </trkpt>
      <trkpt lat="49.86757" lon="4.75707">
        <ele>263</ele>
        <time>2022-09-05T07:40:52.000Z</time>
      </trkpt>
      <trkpt lat="49.86757" lon="4.7571">
        <ele>264</ele>
        <time>2022-09-05T07:40:53.000Z</time>
      </trkpt>
      <trkpt lat="49.86757" lon="4.75712">
        <ele>264</ele>
        <time>2022-09-05T07:40:54.000Z</time>
      </trkpt>
      <trkpt lat="49.86758" lon="4.75713">
        <ele>264</ele>
        <time>2022-09-05T07:40:55.000Z</time>
      </trkpt>
      <trkpt lat="49.86758" lon="4.75715">
        <ele>264</ele>
        <time>2022-09-05T07:40:56.000Z</time>
      </trkpt>
      <trkpt lat="49.86758" lon="4.75716">
        <ele>265</ele>
        <time>2022-09-05T07:40:57.000Z</time>
      </trkpt>
      <trkpt lat="49.86758" lon="4.75718">
        <ele>265</ele>
        <time>2022-09-05T07:40:58.000Z</time>
      </trkpt>
      <trkpt lat="49.86759" lon="4.75719">
        <ele>265</ele>
        <time>2022-09-05T07:40:59.000Z</time>
      </trkpt>
      <trkpt lat="49.8676" lon="4.75721">
        <ele>265</ele>
        <time>2022-09-05T07:41:00.000Z</time>
      </trkpt>
      <trkpt lat="49.86761" lon="4.75724">
        <ele>266</ele>
        <time>2022-09-05T07:41:01.000Z</time>
      </trkpt>
      <trkpt lat="49.86762" lon="4.75726">
        <ele>266</ele>
        <time>2022-09-05T07:41:02.000Z</time>
      </trkpt>
      <trkpt lat="49.86763" lon="4.75729">
        <ele>266</ele>
        <time>2022-09-05T07:41:03.000Z</time>
      </trkpt>
      <trkpt lat="49.86764" lon="4.75731">
        <ele>266</ele>
        <time>2022-09-05T07:41:04.000Z</time>
      </trkpt>
      <trkpt lat="49.86765" lon="4.75734">
        <ele>267</ele>
        <time>2022-09-05T07:41:05.000Z</time>
      </trkpt>
      <trkpt lat="49.86766" lon="4.75736">
        <ele>267</ele>
        <time>2022-09-05T07:41:06.000Z</time>
      </trkpt>
      <trkpt lat="49.86767" lon="4.75738">
        <ele>267</ele>
        <time>2022-09-05T07:41:07.000Z</time>
      </trkpt>
      <trkpt lat="49.86768" lon="4.7574">
        <ele>267</ele>
        <time>2022-09-05T07:41:08.000Z</time>
      </trkpt>
      <trkpt lat="49.8677" lon="4.75743">
        <ele>268</ele>
        <time>2022-09-05T07:41:09.000Z</time>
      </trkpt>
      <trkpt lat="49.86771" lon="4.75745">
        <ele>268</ele>
        <time>2022-09-05T07:41:10.000Z</time>
      </trkpt>
      <trkpt lat="49.86772" lon="4.75748">
        <ele>268</ele>
        <time>2022-09-05T07:41:11.000Z</time>
      </trkpt>
      <trkpt lat="49.86773" lon="4.75752">
        <ele>268</ele>
        <time>2022-09-05T07:41:12.000Z</time>
      </trkpt>
      <trkpt lat="49.86774" lon="4.75755">
        <ele>269</ele>
        <time>2022-09-05T07:41:13.000Z</time>
      </trkpt>
      <trkpt lat="49.86775" lon="4.75757">
        <ele>269</ele>
        <time>2022-09-05T07:41:14.000Z</time>
      </trkpt>
      <trkpt lat="49.86777" lon="4.7576">
        <ele>269</ele>
        <time>2022-09-05T07:41:15.000Z</time>
      </trkpt>
      <trkpt lat="49.86778" lon="4.75763">
        <ele>269</ele>
        <time>2022-09-05T07:41:16.000Z</time>
      </trkpt>
      <trkpt lat="49.86779" lon="4.75765">
        <ele>269</ele>
        <time>2022-09-05T07:41:17.000Z</time>
      </trkpt>
      <trkpt lat="49.8678" lon="4.75768">
        <ele>270</ele>
        <time>2022-09-05T07:41:18.000Z</time>
      </trkpt>
      <trkpt lat="49.86781" lon="4.7577">
        <ele>270</ele>
        <time>2022-09-05T07:41:19.000Z</time>
      </trkpt>
      <trkpt lat="49.86783" lon="4.75772">
        <ele>271</ele>
        <time>2022-09-05T07:41:20.000Z</time>
      </trkpt>
      <trkpt lat="49.86784" lon="4.75773">
        <ele>271</ele>
        <time>2022-09-05T07:41:21.000Z</time>
      </trkpt>
      <trkpt lat="49.86785" lon="4.75773">
        <ele>271</ele>
        <time>2022-09-05T07:41:22.000Z</time>
      </trkpt>
      <trkpt lat="49.86785" lon="4.75774">
        <ele>272</ele>
        <time>2022-09-05T07:41:23.000Z</time>
      </trkpt>
      <trkpt lat="49.86785" lon="4.75774">
        <ele>272</ele>
        <time>2022-09-05T07:41:24.000Z</time>
      </trkpt>
      <trkpt lat="49.86785" lon="4.75775">
        <ele>272</ele>
        <time>2022-09-05T07:41:25.000Z</time>
      </trkpt>
      <trkpt lat="49.86786" lon="4.75775">
        <ele>272</ele>
        <time>2022-09-05T07:41:26.000Z</time>
      </trkpt>
      <trkpt lat="49.86786" lon="4.75776">
        <ele>272</ele>
        <time>2022-09-05T07:41:27.000Z</time>
      </trkpt>
      <trkpt lat="49.86786" lon="4.75776">
        <ele>273</ele>
        <time>2022-09-05T07:41:28.000Z</time>
      </trkpt>
      <trkpt lat="49.86786" lon="4.75776">
        <ele>273</ele>
        <time>2022-09-05T07:41:29.000Z</time>
      </trkpt>
      <trkpt lat="49.86786" lon="4.75776">
        <ele>273</ele>
        <time>2022-09-05T07:41:30.000Z</time>
      </trkpt>
      <trkpt lat="49.86787" lon="4.75777">
        <ele>274</ele>
        <time>2022-09-05T07:41:31.000Z</time>
      </trkpt>
      <trkpt lat="49.86787" lon="4.75777">
        <ele>274</ele>
        <time>2022-09-05T07:41:32.000Z</time>
      </trkpt>
      <trkpt lat="49.86787" lon="4.75777">
        <ele>274</ele>
        <time>2022-09-05T07:41:33.000Z</time>
      </trkpt>
      <trkpt lat="49.86787" lon="4.75777">
        <ele>274</ele>
        <time>2022-09-05T07:41:34.000Z</time>
      </trkpt>
      <trkpt lat="49.86787" lon="4.75777">
        <ele>274</ele>
        <time>2022-09-05T07:41:35.000Z</time>
      </trkpt>
      <trkpt lat="49.86787" lon="4.75777">
        <ele>274</ele>
        <time>2022-09-05T07:41:36.000Z</time>
      </trkpt>
      <trkpt lat="49.86787" lon="4.75777">
        <ele>275</ele>
        <time>2022-09-05T07:41:37.000Z</time>
      </trkpt>
      <trkpt lat="49.86787" lon="4.75778">
        <ele>275</ele>
        <time>2022-09-05T07:41:38.000Z</time>
      </trkpt>
      <trkpt lat="49.86787" lon="4.75778">
        <ele>275</ele>
        <time>2022-09-05T07:41:39.000Z</time>
      </trkpt>
      <trkpt lat="49.86787" lon="4.75778">
        <ele>275</ele>
        <time>2022-09-05T07:41:40.000Z</time>
      </trkpt>
      <trkpt lat="49.86788" lon="4.75778">
        <ele>275</ele>
        <time>2022-09-05T07:41:41.000Z</time>
      </trkpt>
      <trkpt lat="49.86788" lon="4.75778">
        <ele>275</ele>
        <time>2022-09-05T07:41:42.000Z</time>
      </trkpt>
      <trkpt lat="49.86788" lon="4.75778">
        <ele>275</ele>
        <time>2022-09-05T07:41:43.000Z</time>
      </trkpt>
      <trkpt lat="49.86788" lon="4.75778">
        <ele>275</ele>
        <time>2022-09-05T07:41:44.000Z</time>
      </trkpt>
      <trkpt lat="49.86788" lon="4.75778">
        <ele>275</ele>
        <time>2022-09-05T07:41:45.000Z</time>
      </trkpt>
      <trkpt lat="49.86788" lon="4.75778">
        <ele>275</ele>
        <time>2022-09-05T07:41:46.000Z</time>
      </trkpt>
      <trkpt lat="49.86788" lon="4.75778">
        <ele>275</ele>
        <time>2022-09-05T07:41:47.000Z</time>
      </trkpt>
      <trkpt lat="49.86788" lon="4.75778">
        <ele>275</ele>
        <time>2022-09-05T07:41:48.000Z</time>
      </trkpt>
      <trkpt lat="49.86788" lon="4.75778">
        <ele>276</ele>
        <time>2022-09-05T07:41:49.000Z</time>
      </trkpt>
      <trkpt lat="49.86788" lon="4.75778">
        <ele>276</ele>
        <time>2022-09-05T07:41:50.000Z</time>
      </trkpt>
      <trkpt lat="49.86788" lon="4.75778">
        <ele>276</ele>
        <time>2022-09-05T07:41:51.000Z</time>
      </trkpt>
      <trkpt lat="49.86788" lon="4.75778">
        <ele>276</ele>
        <time>2022-09-05T07:41:52.000Z</time>
      </trkpt>
      <trkpt lat="49.86788" lon="4.75778">
        <ele>276</ele>
        <time>2022-09-05T07:41:53.000Z</time>
      </trkpt>
      <trkpt lat="49.86788" lon="4.75778">
        <ele>276</ele>
        <time>2022-09-05T07:41:54.000Z</time>
      </trkpt>
      <trkpt lat="49.86788" lon="4.75778">
        <ele>276</ele>
        <time>2022-09-05T07:41:55.000Z</time>
      </trkpt>
      <trkpt lat="49.86788" lon="4.75778">
        <ele>276</ele>
        <time>2022-09-05T07:41:56.000Z</time>
      </trkpt>
      <trkpt lat="49.86788" lon="4.75778">
        <ele>276</ele>
        <time>2022-09-05T07:41:57.000Z</time>
      </trkpt>
      <trkpt lat="49.86788" lon="4.75778">
        <ele>276</ele>
        <time>2022-09-05T07:41:58.000Z</time>
      </trkpt>
      <trkpt lat="49.86788" lon="4.75777">
        <ele>276</ele>
        <time>2022-09-05T07:41:59.000Z</time>
      </trkpt>
      <trkpt lat="49.86789" lon="4.75777">
        <ele>276</ele>
        <time>2022-09-05T07:42:00.000Z</time>
      </trkpt>
      <trkpt lat="49.86789" lon="4.75777">
        <ele>276</ele>
        <time>2022-09-05T07:42:01.000Z</time>
      </trkpt>
      <trkpt lat="49.86789" lon="4.75777">
        <ele>276</ele>
        <time>2022-09-05T07:42:02.000Z</time>
      </trkpt>
      <trkpt lat="49.86789" lon="4.75777">
        <ele>276</ele>
        <time>2022-09-05T07:42:03.000Z</time>
      </trkpt>
      <trkpt lat="49.86789" lon="4.75778">
        <ele>276</ele>
        <time>2022-09-05T07:42:04.000Z</time>
      </trkpt>
      <trkpt lat="49.86789" lon="4.75779">
        <ele>276</ele>
        <time>2022-09-05T07:42:05.000Z</time>
      </trkpt>
      <trkpt lat="49.86789" lon="4.75781">
        <ele>276</ele>
        <time>2022-09-05T07:42:06.000Z</time>
      </trkpt>
      <trkpt lat="49.8679" lon="4.75783">
        <ele>276</ele>
        <time>2022-09-05T07:42:07.000Z</time>
      </trkpt>
      <trkpt lat="49.8679" lon="4.75785">
        <ele>276</ele>
        <time>2022-09-05T07:42:08.000Z</time>
      </trkpt>
      <trkpt lat="49.86791" lon="4.75788">
        <ele>276</ele>
        <time>2022-09-05T07:42:09.000Z</time>
      </trkpt>
      <trkpt lat="49.86791" lon="4.75791">
        <ele>276</ele>
        <time>2022-09-05T07:42:10.000Z</time>
      </trkpt>
      <trkpt lat="49.8679" lon="4.75793">
        <ele>276</ele>
        <time>2022-09-05T07:42:11.000Z</time>
      </trkpt>
      <trkpt lat="49.8679" lon="4.75795">
        <ele>276</ele>
        <time>2022-09-05T07:42:12.000Z</time>
      </trkpt>
      <trkpt lat="49.86791" lon="4.75798">
        <ele>276</ele>
        <time>2022-09-05T07:42:13.000Z</time>
      </trkpt>
      <trkpt lat="49.86791" lon="4.758">
        <ele>276</ele>
        <time>2022-09-05T07:42:14.000Z</time>
      </trkpt>
      <trkpt lat="49.86792" lon="4.75803">
        <ele>276</ele>
        <time>2022-09-05T07:42:15.000Z</time>
      </trkpt>
      <trkpt lat="49.86792" lon="4.75806">
        <ele>276</ele>
        <time>2022-09-05T07:42:16.000Z</time>
      </trkpt>
      <trkpt lat="49.86793" lon="4.75809">
        <ele>277</ele>
        <time>2022-09-05T07:42:17.000Z</time>
      </trkpt>
      <trkpt lat="49.86793" lon="4.75812">
        <ele>277</ele>
        <time>2022-09-05T07:42:18.000Z</time>
      </trkpt>
      <trkpt lat="49.86794" lon="4.75815">
        <ele>277</ele>
        <time>2022-09-05T07:42:19.000Z</time>
      </trkpt>
      <trkpt lat="49.86795" lon="4.75819">
        <ele>277</ele>
        <time>2022-09-05T07:42:20.000Z</time>
      </trkpt>
      <trkpt lat="49.86795" lon="4.75823">
        <ele>277</ele>
        <time>2022-09-05T07:42:21.000Z</time>
      </trkpt>
      <trkpt lat="49.86796" lon="4.75828">
        <ele>277</ele>
        <time>2022-09-05T07:42:22.000Z</time>
      </trkpt>
      <trkpt lat="49.86796" lon="4.75833">
        <ele>277</ele>
        <time>2022-09-05T07:42:23.000Z</time>
      </trkpt>
      <trkpt lat="49.86797" lon="4.75837">
        <ele>277</ele>
        <time>2022-09-05T07:42:24.000Z</time>
      </trkpt>
      <trkpt lat="49.86798" lon="4.75843">
        <ele>277</ele>
        <time>2022-09-05T07:42:25.000Z</time>
      </trkpt>
      <trkpt lat="49.86798" lon="4.75848">
        <ele>277</ele>
        <time>2022-09-05T07:42:26.000Z</time>
      </trkpt>
      <trkpt lat="49.86799" lon="4.75852">
        <ele>277</ele>
        <time>2022-09-05T07:42:27.000Z</time>
      </trkpt>
      <trkpt lat="49.86799" lon="4.75856">
        <ele>277</ele>
        <time>2022-09-05T07:42:28.000Z</time>
      </trkpt>
      <trkpt lat="49.86798" lon="4.75859">
        <ele>277</ele>
        <time>2022-09-05T07:42:29.000Z</time>
      </trkpt>
      <trkpt lat="49.86798" lon="4.75862">
        <ele>276</ele>
        <time>2022-09-05T07:42:30.000Z</time>
      </trkpt>
      <trkpt lat="49.86797" lon="4.75865">
        <ele>276</ele>
        <time>2022-09-05T07:42:31.000Z</time>
      </trkpt>
      <trkpt lat="49.86797" lon="4.75867">
        <ele>276</ele>
        <time>2022-09-05T07:42:32.000Z</time>
      </trkpt>
      <trkpt lat="49.86797" lon="4.75868">
        <ele>276</ele>
        <time>2022-09-05T07:42:33.000Z</time>
      </trkpt>
      <trkpt lat="49.86797" lon="4.7587">
        <ele>276</ele>
        <time>2022-09-05T07:42:34.000Z</time>
      </trkpt>
      <trkpt lat="49.86797" lon="4.75871">
        <ele>276</ele>
        <time>2022-09-05T07:42:35.000Z</time>
      </trkpt>
      <trkpt lat="49.86797" lon="4.75872">
        <ele>275</ele>
        <time>2022-09-05T07:42:36.000Z</time>
      </trkpt>
      <trkpt lat="49.86798" lon="4.75874">
        <ele>275</ele>
        <time>2022-09-05T07:42:37.000Z</time>
      </trkpt>
      <trkpt lat="49.86798" lon="4.75877">
        <ele>275</ele>
        <time>2022-09-05T07:42:38.000Z</time>
      </trkpt>
      <trkpt lat="49.86798" lon="4.7588">
        <ele>275</ele>
        <time>2022-09-05T07:42:39.000Z</time>
      </trkpt>
      <trkpt lat="49.86797" lon="4.75884">
        <ele>275</ele>
        <time>2022-09-05T07:42:40.000Z</time>
      </trkpt>
      <trkpt lat="49.86797" lon="4.75889">
        <ele>274</ele>
        <time>2022-09-05T07:42:41.000Z</time>
      </trkpt>
      <trkpt lat="49.86796" lon="4.75894">
        <ele>274</ele>
        <time>2022-09-05T07:42:42.000Z</time>
      </trkpt>
      <trkpt lat="49.86796" lon="4.75899">
        <ele>274</ele>
        <time>2022-09-05T07:42:43.000Z</time>
      </trkpt>
      <trkpt lat="49.86796" lon="4.75903">
        <ele>274</ele>
        <time>2022-09-05T07:42:44.000Z</time>
      </trkpt>
      <trkpt lat="49.86796" lon="4.75907">
        <ele>274</ele>
        <time>2022-09-05T07:42:45.000Z</time>
      </trkpt>
      <trkpt lat="49.86796" lon="4.75912">
        <ele>274</ele>
        <time>2022-09-05T07:42:46.000Z</time>
      </trkpt>
      <trkpt lat="49.86797" lon="4.75917">
        <ele>273</ele>
        <time>2022-09-05T07:42:47.000Z</time>
      </trkpt>
      <trkpt lat="49.86796" lon="4.7592">
        <ele>273</ele>
        <time>2022-09-05T07:42:48.000Z</time>
      </trkpt>
      <trkpt lat="49.86796" lon="4.75923">
        <ele>273</ele>
        <time>2022-09-05T07:42:49.000Z</time>
      </trkpt>
      <trkpt lat="49.86796" lon="4.75925">
        <ele>273</ele>
        <time>2022-09-05T07:42:50.000Z</time>
      </trkpt>
      <trkpt lat="49.86796" lon="4.75927">
        <ele>273</ele>
        <time>2022-09-05T07:42:51.000Z</time>
      </trkpt>
      <trkpt lat="49.86795" lon="4.7593">
        <ele>273</ele>
        <time>2022-09-05T07:42:52.000Z</time>
      </trkpt>
      <trkpt lat="49.86795" lon="4.75933">
        <ele>273</ele>
        <time>2022-09-05T07:42:53.000Z</time>
      </trkpt>
      <trkpt lat="49.86795" lon="4.75935">
        <ele>273</ele>
        <time>2022-09-05T07:42:54.000Z</time>
      </trkpt>
      <trkpt lat="49.86796" lon="4.75939">
        <ele>273</ele>
        <time>2022-09-05T07:42:55.000Z</time>
      </trkpt>
      <trkpt lat="49.86796" lon="4.75943">
        <ele>273</ele>
        <time>2022-09-05T07:42:56.000Z</time>
      </trkpt>
      <trkpt lat="49.86796" lon="4.75947">
        <ele>273</ele>
        <time>2022-09-05T07:42:57.000Z</time>
      </trkpt>
      <trkpt lat="49.86797" lon="4.75951">
        <ele>273</ele>
        <time>2022-09-05T07:42:58.000Z</time>
      </trkpt>
      <trkpt lat="49.86797" lon="4.75954">
        <ele>273</ele>
        <time>2022-09-05T07:42:59.000Z</time>
      </trkpt>
      <trkpt lat="49.86797" lon="4.75957">
        <ele>273</ele>
        <time>2022-09-05T07:43:00.000Z</time>
      </trkpt>
      <trkpt lat="49.86798" lon="4.75959">
        <ele>273</ele>
        <time>2022-09-05T07:43:01.000Z</time>
      </trkpt>
      <trkpt lat="49.86799" lon="4.75963">
        <ele>273</ele>
        <time>2022-09-05T07:43:02.000Z</time>
      </trkpt>
      <trkpt lat="49.868" lon="4.75967">
        <ele>272</ele>
        <time>2022-09-05T07:43:03.000Z</time>
      </trkpt>
      <trkpt lat="49.86801" lon="4.75971">
        <ele>272</ele>
        <time>2022-09-05T07:43:04.000Z</time>
      </trkpt>
      <trkpt lat="49.86802" lon="4.75974">
        <ele>272</ele>
        <time>2022-09-05T07:43:05.000Z</time>
      </trkpt>
      <trkpt lat="49.86803" lon="4.75978">
        <ele>272</ele>
        <time>2022-09-05T07:43:06.000Z</time>
      </trkpt>
      <trkpt lat="49.86803" lon="4.75981">
        <ele>272</ele>
        <time>2022-09-05T07:43:07.000Z</time>
      </trkpt>
      <trkpt lat="49.86804" lon="4.75985">
        <ele>272</ele>
        <time>2022-09-05T07:43:08.000Z</time>
      </trkpt>
      <trkpt lat="49.86805" lon="4.7599">
        <ele>272</ele>
        <time>2022-09-05T07:43:09.000Z</time>
      </trkpt>
      <trkpt lat="49.86806" lon="4.75994">
        <ele>272</ele>
        <time>2022-09-05T07:43:10.000Z</time>
      </trkpt>
      <trkpt lat="49.86807" lon="4.75999">
        <ele>272</ele>
        <time>2022-09-05T07:43:11.000Z</time>
      </trkpt>
      <trkpt lat="49.86808" lon="4.76003">
        <ele>271</ele>
        <time>2022-09-05T07:43:12.000Z</time>
      </trkpt>
      <trkpt lat="49.86808" lon="4.76006">
        <ele>271</ele>
        <time>2022-09-05T07:43:13.000Z</time>
      </trkpt>
      <trkpt lat="49.86809" lon="4.76008">
        <ele>271</ele>
        <time>2022-09-05T07:43:14.000Z</time>
      </trkpt>
      <trkpt lat="49.8681" lon="4.76011">
        <ele>271</ele>
        <time>2022-09-05T07:43:15.000Z</time>
      </trkpt>
      <trkpt lat="49.86811" lon="4.76014">
        <ele>271</ele>
        <time>2022-09-05T07:43:16.000Z</time>
      </trkpt>
      <trkpt lat="49.86812" lon="4.76016">
        <ele>271</ele>
        <time>2022-09-05T07:43:17.000Z</time>
      </trkpt>
      <trkpt lat="49.86813" lon="4.76018">
        <ele>271</ele>
        <time>2022-09-05T07:43:18.000Z</time>
      </trkpt>
      <trkpt lat="49.86813" lon="4.7602">
        <ele>271</ele>
        <time>2022-09-05T07:43:19.000Z</time>
      </trkpt>
      <trkpt lat="49.86814" lon="4.76021">
        <ele>271</ele>
        <time>2022-09-05T07:43:20.000Z</time>
      </trkpt>
      <trkpt lat="49.86814" lon="4.76022">
        <ele>271</ele>
        <time>2022-09-05T07:43:21.000Z</time>
      </trkpt>
      <trkpt lat="49.86814" lon="4.76023">
        <ele>271</ele>
        <time>2022-09-05T07:43:22.000Z</time>
      </trkpt>
      <trkpt lat="49.86815" lon="4.76023">
        <ele>271</ele>
        <time>2022-09-05T07:43:23.000Z</time>
      </trkpt>
      <trkpt lat="49.86815" lon="4.76025">
        <ele>271</ele>
        <time>2022-09-05T07:43:24.000Z</time>
      </trkpt>
      <trkpt lat="49.86816" lon="4.76026">
        <ele>272</ele>
        <time>2022-09-05T07:43:25.000Z</time>
      </trkpt>
      <trkpt lat="49.86816" lon="4.76026">
        <ele>272</ele>
        <time>2022-09-05T07:43:26.000Z</time>
      </trkpt>
      <trkpt lat="49.86816" lon="4.76028">
        <ele>272</ele>
        <time>2022-09-05T07:43:27.000Z</time>
      </trkpt>
      <trkpt lat="49.86817" lon="4.7603">
        <ele>272</ele>
        <time>2022-09-05T07:43:28.000Z</time>
      </trkpt>
      <trkpt lat="49.86817" lon="4.76032">
        <ele>272</ele>
        <time>2022-09-05T07:43:29.000Z</time>
      </trkpt>
      <trkpt lat="49.86818" lon="4.76035">
        <ele>272</ele>
        <time>2022-09-05T07:43:30.000Z</time>
      </trkpt>
      <trkpt lat="49.86819" lon="4.76037">
        <ele>271</ele>
        <time>2022-09-05T07:43:31.000Z</time>
      </trkpt>
      <trkpt lat="49.8682" lon="4.76039">
        <ele>271</ele>
        <time>2022-09-05T07:43:32.000Z</time>
      </trkpt>
      <trkpt lat="49.86821" lon="4.7604">
        <ele>271</ele>
        <time>2022-09-05T07:43:33.000Z</time>
      </trkpt>
      <trkpt lat="49.86822" lon="4.76042">
        <ele>271</ele>
        <time>2022-09-05T07:43:34.000Z</time>
      </trkpt>
      <trkpt lat="49.86823" lon="4.76044">
        <ele>271</ele>
        <time>2022-09-05T07:43:35.000Z</time>
      </trkpt>
      <trkpt lat="49.86824" lon="4.76047">
        <ele>271</ele>
        <time>2022-09-05T07:43:36.000Z</time>
      </trkpt>
      <trkpt lat="49.86825" lon="4.76049">
        <ele>271</ele>
        <time>2022-09-05T07:43:37.000Z</time>
      </trkpt>
      <trkpt lat="49.86826" lon="4.7605">
        <ele>271</ele>
        <time>2022-09-05T07:43:38.000Z</time>
      </trkpt>
      <trkpt lat="49.86827" lon="4.76052">
        <ele>271</ele>
        <time>2022-09-05T07:43:39.000Z</time>
      </trkpt>
      <trkpt lat="49.86828" lon="4.76055">
        <ele>272</ele>
        <time>2022-09-05T07:43:40.000Z</time>
      </trkpt>
      <trkpt lat="49.86828" lon="4.76057">
        <ele>272</ele>
        <time>2022-09-05T07:43:41.000Z</time>
      </trkpt>
      <trkpt lat="49.86829" lon="4.7606">
        <ele>272</ele>
        <time>2022-09-05T07:43:42.000Z</time>
      </trkpt>
      <trkpt lat="49.8683" lon="4.76063">
        <ele>272</ele>
        <time>2022-09-05T07:43:43.000Z</time>
      </trkpt>
      <trkpt lat="49.8683" lon="4.76066">
        <ele>272</ele>
        <time>2022-09-05T07:43:44.000Z</time>
      </trkpt>
      <trkpt lat="49.86831" lon="4.7607">
        <ele>272</ele>
        <time>2022-09-05T07:43:45.000Z</time>
      </trkpt>
      <trkpt lat="49.86831" lon="4.76074">
        <ele>272</ele>
        <time>2022-09-05T07:43:46.000Z</time>
      </trkpt>
      <trkpt lat="49.86832" lon="4.76078">
        <ele>272</ele>
        <time>2022-09-05T07:43:47.000Z</time>
      </trkpt>
      <trkpt lat="49.86832" lon="4.76081">
        <ele>272</ele>
        <time>2022-09-05T07:43:48.000Z</time>
      </trkpt>
      <trkpt lat="49.86833" lon="4.76084">
        <ele>272</ele>
        <time>2022-09-05T07:43:49.000Z</time>
      </trkpt>
      <trkpt lat="49.86833" lon="4.76087">
        <ele>272</ele>
        <time>2022-09-05T07:43:50.000Z</time>
      </trkpt>
      <trkpt lat="49.86833" lon="4.76089">
        <ele>272</ele>
        <time>2022-09-05T07:43:51.000Z</time>
      </trkpt>
      <trkpt lat="49.86834" lon="4.76092">
        <ele>272</ele>
        <time>2022-09-05T07:43:52.000Z</time>
      </trkpt>
      <trkpt lat="49.86834" lon="4.76095">
        <ele>272</ele>
        <time>2022-09-05T07:43:53.000Z</time>
      </trkpt>
      <trkpt lat="49.86835" lon="4.76098">
        <ele>272</ele>
        <time>2022-09-05T07:43:54.000Z</time>
      </trkpt>
      <trkpt lat="49.86835" lon="4.76102">
        <ele>272</ele>
        <time>2022-09-05T07:43:55.000Z</time>
      </trkpt>
      <trkpt lat="49.86836" lon="4.76105">
        <ele>272</ele>
        <time>2022-09-05T07:43:56.000Z</time>
      </trkpt>
      <trkpt lat="49.86836" lon="4.7611">
        <ele>272</ele>
        <time>2022-09-05T07:43:57.000Z</time>
      </trkpt>
      <trkpt lat="49.86837" lon="4.76114">
        <ele>272</ele>
        <time>2022-09-05T07:43:58.000Z</time>
      </trkpt>
      <trkpt lat="49.86837" lon="4.76118">
        <ele>272</ele>
        <time>2022-09-05T07:43:59.000Z</time>
      </trkpt>
      <trkpt lat="49.86838" lon="4.76123">
        <ele>272</ele>
        <time>2022-09-05T07:44:00.000Z</time>
      </trkpt>
      <trkpt lat="49.86839" lon="4.76128">
        <ele>272</ele>
        <time>2022-09-05T07:44:01.000Z</time>
      </trkpt>
      <trkpt lat="49.86839" lon="4.76134">
        <ele>272</ele>
        <time>2022-09-05T07:44:02.000Z</time>
      </trkpt>
      <trkpt lat="49.86839" lon="4.76139">
        <ele>272</ele>
        <time>2022-09-05T07:44:03.000Z</time>
      </trkpt>
      <trkpt lat="49.86839" lon="4.76142">
        <ele>271</ele>
        <time>2022-09-05T07:44:04.000Z</time>
      </trkpt>
      <trkpt lat="49.86839" lon="4.76143">
        <ele>271</ele>
        <time>2022-09-05T07:44:05.000Z</time>
      </trkpt>
      <trkpt lat="49.86839" lon="4.76144">
        <ele>272</ele>
        <time>2022-09-05T07:44:06.000Z</time>
      </trkpt>
      <trkpt lat="49.86839" lon="4.76144">
        <ele>272</ele>
        <time>2022-09-05T07:44:07.000Z</time>
      </trkpt>
      <trkpt lat="49.86839" lon="4.76145">
        <ele>272</ele>
        <time>2022-09-05T07:44:08.000Z</time>
      </trkpt>
      <trkpt lat="49.86839" lon="4.76146">
        <ele>272</ele>
        <time>2022-09-05T07:44:09.000Z</time>
      </trkpt>
      <trkpt lat="49.8684" lon="4.76147">
        <ele>272</ele>
        <time>2022-09-05T07:44:10.000Z</time>
      </trkpt>
      <trkpt lat="49.8684" lon="4.76149">
        <ele>273</ele>
        <time>2022-09-05T07:44:11.000Z</time>
      </trkpt>
      <trkpt lat="49.86841" lon="4.7615">
        <ele>273</ele>
        <time>2022-09-05T07:44:12.000Z</time>
      </trkpt>
      <trkpt lat="49.86841" lon="4.76152">
        <ele>273</ele>
        <time>2022-09-05T07:44:13.000Z</time>
      </trkpt>
      <trkpt lat="49.86841" lon="4.76154">
        <ele>273</ele>
        <time>2022-09-05T07:44:14.000Z</time>
      </trkpt>
      <trkpt lat="49.86841" lon="4.76156">
        <ele>273</ele>
        <time>2022-09-05T07:44:15.000Z</time>
      </trkpt>
      <trkpt lat="49.86841" lon="4.76159">
        <ele>273</ele>
        <time>2022-09-05T07:44:16.000Z</time>
      </trkpt>
      <trkpt lat="49.86842" lon="4.76161">
        <ele>273</ele>
        <time>2022-09-05T07:44:17.000Z</time>
      </trkpt>
      <trkpt lat="49.86842" lon="4.76163">
        <ele>273</ele>
        <time>2022-09-05T07:44:18.000Z</time>
      </trkpt>
      <trkpt lat="49.86842" lon="4.76166">
        <ele>273</ele>
        <time>2022-09-05T07:44:19.000Z</time>
      </trkpt>
      <trkpt lat="49.86842" lon="4.76168">
        <ele>273</ele>
        <time>2022-09-05T07:44:20.000Z</time>
      </trkpt>
      <trkpt lat="49.86842" lon="4.76172">
        <ele>273</ele>
        <time>2022-09-05T07:44:21.000Z</time>
      </trkpt>
      <trkpt lat="49.86843" lon="4.76175">
        <ele>273</ele>
        <time>2022-09-05T07:44:22.000Z</time>
      </trkpt>
      <trkpt lat="49.86844" lon="4.76177">
        <ele>273</ele>
        <time>2022-09-05T07:44:23.000Z</time>
      </trkpt>
      <trkpt lat="49.86844" lon="4.76181">
        <ele>273</ele>
        <time>2022-09-05T07:44:24.000Z</time>
      </trkpt>
      <trkpt lat="49.86845" lon="4.76184">
        <ele>273</ele>
        <time>2022-09-05T07:44:25.000Z</time>
      </trkpt>
      <trkpt lat="49.86846" lon="4.76188">
        <ele>273</ele>
        <time>2022-09-05T07:44:26.000Z</time>
      </trkpt>
      <trkpt lat="49.86847" lon="4.76191">
        <ele>273</ele>
        <time>2022-09-05T07:44:27.000Z</time>
      </trkpt>
      <trkpt lat="49.86847" lon="4.76195">
        <ele>273</ele>
        <time>2022-09-05T07:44:28.000Z</time>
      </trkpt>
      <trkpt lat="49.86848" lon="4.76198">
        <ele>274</ele>
        <time>2022-09-05T07:44:29.000Z</time>
      </trkpt>
      <trkpt lat="49.86848" lon="4.76201">
        <ele>274</ele>
        <time>2022-09-05T07:44:30.000Z</time>
      </trkpt>
      <trkpt lat="49.86849" lon="4.76204">
        <ele>274</ele>
        <time>2022-09-05T07:44:31.000Z</time>
      </trkpt>
      <trkpt lat="49.8685" lon="4.76207">
        <ele>274</ele>
        <time>2022-09-05T07:44:32.000Z</time>
      </trkpt>
      <trkpt lat="49.86851" lon="4.76209">
        <ele>274</ele>
        <time>2022-09-05T07:44:33.000Z</time>
      </trkpt>
      <trkpt lat="49.86851" lon="4.7621">
        <ele>274</ele>
        <time>2022-09-05T07:44:34.000Z</time>
      </trkpt>
      <trkpt lat="49.86851" lon="4.76211">
        <ele>274</ele>
        <time>2022-09-05T07:44:35.000Z</time>
      </trkpt>
      <trkpt lat="49.86852" lon="4.76211">
        <ele>273</ele>
        <time>2022-09-05T07:44:36.000Z</time>
      </trkpt>
      <trkpt lat="49.86852" lon="4.76212">
        <ele>273</ele>
        <time>2022-09-05T07:44:37.000Z</time>
      </trkpt>
      <trkpt lat="49.86852" lon="4.76211">
        <ele>273</ele>
        <time>2022-09-05T07:44:38.000Z</time>
      </trkpt>
      <trkpt lat="49.86852" lon="4.76211">
        <ele>273</ele>
        <time>2022-09-05T07:44:39.000Z</time>
      </trkpt>
      <trkpt lat="49.86852" lon="4.76212">
        <ele>273</ele>
        <time>2022-09-05T07:44:40.000Z</time>
      </trkpt>
      <trkpt lat="49.86852" lon="4.76211">
        <ele>273</ele>
        <time>2022-09-05T07:44:41.000Z</time>
      </trkpt>
      <trkpt lat="49.86851" lon="4.7621">
        <ele>273</ele>
        <time>2022-09-05T07:44:42.000Z</time>
      </trkpt>
      <trkpt lat="49.8685" lon="4.76207">
        <ele>272</ele>
        <time>2022-09-05T07:44:43.000Z</time>
      </trkpt>
      <trkpt lat="49.8685" lon="4.76205">
        <ele>272</ele>
        <time>2022-09-05T07:44:44.000Z</time>
      </trkpt>
      <trkpt lat="49.86849" lon="4.76202">
        <ele>272</ele>
        <time>2022-09-05T07:44:45.000Z</time>
      </trkpt>
      <trkpt lat="49.86849" lon="4.76199">
        <ele>272</ele>
        <time>2022-09-05T07:44:46.000Z</time>
      </trkpt>
      <trkpt lat="49.86848" lon="4.76195">
        <ele>272</ele>
        <time>2022-09-05T07:44:47.000Z</time>
      </trkpt>
      <trkpt lat="49.86847" lon="4.7619">
        <ele>272</ele>
        <time>2022-09-05T07:44:48.000Z</time>
      </trkpt>
      <trkpt lat="49.86845" lon="4.76185">
        <ele>271</ele>
        <time>2022-09-05T07:44:49.000Z</time>
      </trkpt>
      <trkpt lat="49.86844" lon="4.7618">
        <ele>271</ele>
        <time>2022-09-05T07:44:50.000Z</time>
      </trkpt>
      <trkpt lat="49.86843" lon="4.76176">
        <ele>271</ele>
        <time>2022-09-05T07:44:51.000Z</time>
      </trkpt>
      <trkpt lat="49.86842" lon="4.7617">
        <ele>271</ele>
        <time>2022-09-05T07:44:52.000Z</time>
      </trkpt>
      <trkpt lat="49.86841" lon="4.76166">
        <ele>271</ele>
        <time>2022-09-05T07:44:53.000Z</time>
      </trkpt>
      <trkpt lat="49.8684" lon="4.76163">
        <ele>271</ele>
        <time>2022-09-05T07:44:54.000Z</time>
      </trkpt>
      <trkpt lat="49.8684" lon="4.7616">
        <ele>270</ele>
        <time>2022-09-05T07:44:55.000Z</time>
      </trkpt>
      <trkpt lat="49.86839" lon="4.76158">
        <ele>270</ele>
        <time>2022-09-05T07:44:56.000Z</time>
      </trkpt>
      <trkpt lat="49.86839" lon="4.76157">
        <ele>270</ele>
        <time>2022-09-05T07:44:57.000Z</time>
      </trkpt>
      <trkpt lat="49.86839" lon="4.76156">
        <ele>270</ele>
        <time>2022-09-05T07:44:58.000Z</time>
      </trkpt>
      <trkpt lat="49.86839" lon="4.76154">
        <ele>270</ele>
        <time>2022-09-05T07:44:59.000Z</time>
      </trkpt>
      <trkpt lat="49.86839" lon="4.76152">
        <ele>270</ele>
        <time>2022-09-05T07:45:00.000Z</time>
      </trkpt>
      <trkpt lat="49.86838" lon="4.76151">
        <ele>270</ele>
        <time>2022-09-05T07:45:01.000Z</time>
      </trkpt>
      <trkpt lat="49.86839" lon="4.76149">
        <ele>270</ele>
        <time>2022-09-05T07:45:02.000Z</time>
      </trkpt>
      <trkpt lat="49.86839" lon="4.76147">
        <ele>270</ele>
        <time>2022-09-05T07:45:03.000Z</time>
      </trkpt>
      <trkpt lat="49.8684" lon="4.76143">
        <ele>270</ele>
        <time>2022-09-05T07:45:04.000Z</time>
      </trkpt>
      <trkpt lat="49.8684" lon="4.7614">
        <ele>270</ele>
        <time>2022-09-05T07:45:05.000Z</time>
      </trkpt>
      <trkpt lat="49.8684" lon="4.76137">
        <ele>270</ele>
        <time>2022-09-05T07:45:06.000Z</time>
      </trkpt>
      <trkpt lat="49.8684" lon="4.76133">
        <ele>269</ele>
        <time>2022-09-05T07:45:07.000Z</time>
      </trkpt>
      <trkpt lat="49.86839" lon="4.7613">
        <ele>269</ele>
        <time>2022-09-05T07:45:08.000Z</time>
      </trkpt>
      <trkpt lat="49.86838" lon="4.76127">
        <ele>269</ele>
        <time>2022-09-05T07:45:09.000Z</time>
      </trkpt>
      <trkpt lat="49.86838" lon="4.76124">
        <ele>269</ele>
        <time>2022-09-05T07:45:10.000Z</time>
      </trkpt>
      <trkpt lat="49.86837" lon="4.7612">
        <ele>269</ele>
        <time>2022-09-05T07:45:11.000Z</time>
      </trkpt>
      <trkpt lat="49.86837" lon="4.76116">
        <ele>269</ele>
        <time>2022-09-05T07:45:12.000Z</time>
      </trkpt>
      <trkpt lat="49.86837" lon="4.76112">
        <ele>269</ele>
        <time>2022-09-05T07:45:13.000Z</time>
      </trkpt>
      <trkpt lat="49.86836" lon="4.76107">
        <ele>269</ele>
        <time>2022-09-05T07:45:14.000Z</time>
      </trkpt>
      <trkpt lat="49.86835" lon="4.76102">
        <ele>269</ele>
        <time>2022-09-05T07:45:15.000Z</time>
      </trkpt>
      <trkpt lat="49.86834" lon="4.76098">
        <ele>269</ele>
        <time>2022-09-05T07:45:16.000Z</time>
      </trkpt>
      <trkpt lat="49.86833" lon="4.76093">
        <ele>269</ele>
        <time>2022-09-05T07:45:17.000Z</time>
      </trkpt>
      <trkpt lat="49.86833" lon="4.76089">
        <ele>269</ele>
        <time>2022-09-05T07:45:18.000Z</time>
      </trkpt>
      <trkpt lat="49.86832" lon="4.76084">
        <ele>269</ele>
        <time>2022-09-05T07:45:19.000Z</time>
      </trkpt>
      <trkpt lat="49.86831" lon="4.76079">
        <ele>269</ele>
        <time>2022-09-05T07:45:20.000Z</time>
      </trkpt>
      <trkpt lat="49.86829" lon="4.76074">
        <ele>269</ele>
        <time>2022-09-05T07:45:21.000Z</time>
      </trkpt>
      <trkpt lat="49.86828" lon="4.7607">
        <ele>269</ele>
        <time>2022-09-05T07:45:22.000Z</time>
      </trkpt>
      <trkpt lat="49.86826" lon="4.76066">
        <ele>269</ele>
        <time>2022-09-05T07:45:23.000Z</time>
      </trkpt>
      <trkpt lat="49.86824" lon="4.76061">
        <ele>269</ele>
        <time>2022-09-05T07:45:24.000Z</time>
      </trkpt>
      <trkpt lat="49.86822" lon="4.76056">
        <ele>269</ele>
        <time>2022-09-05T07:45:25.000Z</time>
      </trkpt>
      <trkpt lat="49.86819" lon="4.7605">
        <ele>269</ele>
        <time>2022-09-05T07:45:26.000Z</time>
      </trkpt>
      <trkpt lat="49.86817" lon="4.76045">
        <ele>269</ele>
        <time>2022-09-05T07:45:27.000Z</time>
      </trkpt>
      <trkpt lat="49.86816" lon="4.76041">
        <ele>269</ele>
        <time>2022-09-05T07:45:28.000Z</time>
      </trkpt>
      <trkpt lat="49.86814" lon="4.76038">
        <ele>268</ele>
        <time>2022-09-05T07:45:29.000Z</time>
      </trkpt>
      <trkpt lat="49.86813" lon="4.76036">
        <ele>268</ele>
        <time>2022-09-05T07:45:30.000Z</time>
      </trkpt>
      <trkpt lat="49.86812" lon="4.76033">
        <ele>268</ele>
        <time>2022-09-05T07:45:31.000Z</time>
      </trkpt>
      <trkpt lat="49.8681" lon="4.76029">
        <ele>268</ele>
        <time>2022-09-05T07:45:32.000Z</time>
      </trkpt>
      <trkpt lat="49.86809" lon="4.76023">
        <ele>268</ele>
        <time>2022-09-05T07:45:33.000Z</time>
      </trkpt>
      <trkpt lat="49.86808" lon="4.76018">
        <ele>268</ele>
        <time>2022-09-05T07:45:34.000Z</time>
      </trkpt>
      <trkpt lat="49.86807" lon="4.76012">
        <ele>268</ele>
        <time>2022-09-05T07:45:35.000Z</time>
      </trkpt>
      <trkpt lat="49.86806" lon="4.76006">
        <ele>268</ele>
        <time>2022-09-05T07:45:36.000Z</time>
      </trkpt>
      <trkpt lat="49.86806" lon="4.76001">
        <ele>268</ele>
        <time>2022-09-05T07:45:37.000Z</time>
      </trkpt>
      <trkpt lat="49.86805" lon="4.75997">
        <ele>268</ele>
        <time>2022-09-05T07:45:38.000Z</time>
      </trkpt>
      <trkpt lat="49.86804" lon="4.75992">
        <ele>267</ele>
        <time>2022-09-05T07:45:39.000Z</time>
      </trkpt>
      <trkpt lat="49.86804" lon="4.75988">
        <ele>267</ele>
        <time>2022-09-05T07:45:40.000Z</time>
      </trkpt>
      <trkpt lat="49.86804" lon="4.75983">
        <ele>267</ele>
        <time>2022-09-05T07:45:41.000Z</time>
      </trkpt>
      <trkpt lat="49.86803" lon="4.75979">
        <ele>267</ele>
        <time>2022-09-05T07:45:42.000Z</time>
      </trkpt>
      <trkpt lat="49.86802" lon="4.75976">
        <ele>267</ele>
        <time>2022-09-05T07:45:43.000Z</time>
      </trkpt>
      <trkpt lat="49.86801" lon="4.75972">
        <ele>267</ele>
        <time>2022-09-05T07:45:44.000Z</time>
      </trkpt>
      <trkpt lat="49.86801" lon="4.75969">
        <ele>267</ele>
        <time>2022-09-05T07:45:45.000Z</time>
      </trkpt>
      <trkpt lat="49.868" lon="4.75966">
        <ele>267</ele>
        <time>2022-09-05T07:45:46.000Z</time>
      </trkpt>
      <trkpt lat="49.868" lon="4.75963">
        <ele>267</ele>
        <time>2022-09-05T07:45:47.000Z</time>
      </trkpt>
      <trkpt lat="49.868" lon="4.7596">
        <ele>267</ele>
        <time>2022-09-05T07:45:48.000Z</time>
      </trkpt>
      <trkpt lat="49.86799" lon="4.75957">
        <ele>267</ele>
        <time>2022-09-05T07:45:49.000Z</time>
      </trkpt>
      <trkpt lat="49.86799" lon="4.75953">
        <ele>266</ele>
        <time>2022-09-05T07:45:50.000Z</time>
      </trkpt>
      <trkpt lat="49.86799" lon="4.7595">
        <ele>266</ele>
        <time>2022-09-05T07:45:51.000Z</time>
      </trkpt>
      <trkpt lat="49.86798" lon="4.75946">
        <ele>266</ele>
        <time>2022-09-05T07:45:52.000Z</time>
      </trkpt>
      <trkpt lat="49.86798" lon="4.75942">
        <ele>266</ele>
        <time>2022-09-05T07:45:53.000Z</time>
      </trkpt>
      <trkpt lat="49.86798" lon="4.75939">
        <ele>266</ele>
        <time>2022-09-05T07:45:54.000Z</time>
      </trkpt>
      <trkpt lat="49.86798" lon="4.75935">
        <ele>266</ele>
        <time>2022-09-05T07:45:55.000Z</time>
      </trkpt>
      <trkpt lat="49.86799" lon="4.75932">
        <ele>266</ele>
        <time>2022-09-05T07:45:56.000Z</time>
      </trkpt>
      <trkpt lat="49.868" lon="4.75929">
        <ele>266</ele>
        <time>2022-09-05T07:45:57.000Z</time>
      </trkpt>
      <trkpt lat="49.868" lon="4.75926">
        <ele>266</ele>
        <time>2022-09-05T07:45:58.000Z</time>
      </trkpt>
      <trkpt lat="49.868" lon="4.75923">
        <ele>266</ele>
        <time>2022-09-05T07:45:59.000Z</time>
      </trkpt>
      <trkpt lat="49.86799" lon="4.75919">
        <ele>266</ele>
        <time>2022-09-05T07:46:00.000Z</time>
      </trkpt>
      <trkpt lat="49.86799" lon="4.75916">
        <ele>266</ele>
        <time>2022-09-05T07:46:01.000Z</time>
      </trkpt>
      <trkpt lat="49.86799" lon="4.75912">
        <ele>266</ele>
        <time>2022-09-05T07:46:02.000Z</time>
      </trkpt>
      <trkpt lat="49.86799" lon="4.75908">
        <ele>266</ele>
        <time>2022-09-05T07:46:03.000Z</time>
      </trkpt>
      <trkpt lat="49.86799" lon="4.75905">
        <ele>265</ele>
        <time>2022-09-05T07:46:04.000Z</time>
      </trkpt>
      <trkpt lat="49.868" lon="4.75902">
        <ele>266</ele>
        <time>2022-09-05T07:46:05.000Z</time>
      </trkpt>
      <trkpt lat="49.868" lon="4.75899">
        <ele>266</ele>
        <time>2022-09-05T07:46:06.000Z</time>
      </trkpt>
      <trkpt lat="49.868" lon="4.75896">
        <ele>266</ele>
        <time>2022-09-05T07:46:07.000Z</time>
      </trkpt>
      <trkpt lat="49.868" lon="4.75892">
        <ele>266</ele>
        <time>2022-09-05T07:46:08.000Z</time>
      </trkpt>
      <trkpt lat="49.868" lon="4.75888">
        <ele>266</ele>
        <time>2022-09-05T07:46:09.000Z</time>
      </trkpt>
      <trkpt lat="49.868" lon="4.75886">
        <ele>266</ele>
        <time>2022-09-05T07:46:10.000Z</time>
      </trkpt>
      <trkpt lat="49.86799" lon="4.75883">
        <ele>266</ele>
        <time>2022-09-05T07:46:11.000Z</time>
      </trkpt>
      <trkpt lat="49.86799" lon="4.75882">
        <ele>266</ele>
        <time>2022-09-05T07:46:12.000Z</time>
      </trkpt>
      <trkpt lat="49.86799" lon="4.75881">
        <ele>266</ele>
        <time>2022-09-05T07:46:13.000Z</time>
      </trkpt>
      <trkpt lat="49.86799" lon="4.7588">
        <ele>266</ele>
        <time>2022-09-05T07:46:14.000Z</time>
      </trkpt>
      <trkpt lat="49.86798" lon="4.75879">
        <ele>266</ele>
        <time>2022-09-05T07:46:15.000Z</time>
      </trkpt>
      <trkpt lat="49.86798" lon="4.75877">
        <ele>266</ele>
        <time>2022-09-05T07:46:16.000Z</time>
      </trkpt>
      <trkpt lat="49.86798" lon="4.75875">
        <ele>266</ele>
        <time>2022-09-05T07:46:17.000Z</time>
      </trkpt>
      <trkpt lat="49.86798" lon="4.75874">
        <ele>266</ele>
        <time>2022-09-05T07:46:18.000Z</time>
      </trkpt>
      <trkpt lat="49.86798" lon="4.75872">
        <ele>266</ele>
        <time>2022-09-05T07:46:19.000Z</time>
      </trkpt>
      <trkpt lat="49.86798" lon="4.7587">
        <ele>266</ele>
        <time>2022-09-05T07:46:20.000Z</time>
      </trkpt>
      <trkpt lat="49.86798" lon="4.75867">
        <ele>266</ele>
        <time>2022-09-05T07:46:21.000Z</time>
      </trkpt>
      <trkpt lat="49.86798" lon="4.75864">
        <ele>266</ele>
        <time>2022-09-05T07:46:22.000Z</time>
      </trkpt>
      <trkpt lat="49.86797" lon="4.75861">
        <ele>267</ele>
        <time>2022-09-05T07:46:23.000Z</time>
      </trkpt>
      <trkpt lat="49.86797" lon="4.75858">
        <ele>267</ele>
        <time>2022-09-05T07:46:24.000Z</time>
      </trkpt>
      <trkpt lat="49.86796" lon="4.75855">
        <ele>267</ele>
        <time>2022-09-05T07:46:25.000Z</time>
      </trkpt>
      <trkpt lat="49.86796" lon="4.75851">
        <ele>267</ele>
        <time>2022-09-05T07:46:26.000Z</time>
      </trkpt>
      <trkpt lat="49.86795" lon="4.75848">
        <ele>267</ele>
        <time>2022-09-05T07:46:27.000Z</time>
      </trkpt>
      <trkpt lat="49.86794" lon="4.75845">
        <ele>267</ele>
        <time>2022-09-05T07:46:28.000Z</time>
      </trkpt>
      <trkpt lat="49.86793" lon="4.75842">
        <ele>267</ele>
        <time>2022-09-05T07:46:29.000Z</time>
      </trkpt>
      <trkpt lat="49.86793" lon="4.75839">
        <ele>267</ele>
        <time>2022-09-05T07:46:30.000Z</time>
      </trkpt>
      <trkpt lat="49.86792" lon="4.75835">
        <ele>267</ele>
        <time>2022-09-05T07:46:31.000Z</time>
      </trkpt>
      <trkpt lat="49.86792" lon="4.75832">
        <ele>267</ele>
        <time>2022-09-05T07:46:32.000Z</time>
      </trkpt>
      <trkpt lat="49.86791" lon="4.75829">
        <ele>267</ele>
        <time>2022-09-05T07:46:33.000Z</time>
      </trkpt>
      <trkpt lat="49.86791" lon="4.75826">
        <ele>267</ele>
        <time>2022-09-05T07:46:34.000Z</time>
      </trkpt>
      <trkpt lat="49.8679" lon="4.75823">
        <ele>268</ele>
        <time>2022-09-05T07:46:35.000Z</time>
      </trkpt>
      <trkpt lat="49.8679" lon="4.75819">
        <ele>268</ele>
        <time>2022-09-05T07:46:36.000Z</time>
      </trkpt>
      <trkpt lat="49.86789" lon="4.75816">
        <ele>268</ele>
        <time>2022-09-05T07:46:37.000Z</time>
      </trkpt>
      <trkpt lat="49.86788" lon="4.75812">
        <ele>268</ele>
        <time>2022-09-05T07:46:38.000Z</time>
      </trkpt>
      <trkpt lat="49.86786" lon="4.75808">
        <ele>268</ele>
        <time>2022-09-05T07:46:39.000Z</time>
      </trkpt>
      <trkpt lat="49.86786" lon="4.75802">
        <ele>268</ele>
        <time>2022-09-05T07:46:40.000Z</time>
      </trkpt>
      <trkpt lat="49.86786" lon="4.75797">
        <ele>268</ele>
        <time>2022-09-05T07:46:41.000Z</time>
      </trkpt>
      <trkpt lat="49.86786" lon="4.75791">
        <ele>268</ele>
        <time>2022-09-05T07:46:42.000Z</time>
      </trkpt>
      <trkpt lat="49.86786" lon="4.75785">
        <ele>268</ele>
        <time>2022-09-05T07:46:43.000Z</time>
      </trkpt>
      <trkpt lat="49.86786" lon="4.75781">
        <ele>268</ele>
        <time>2022-09-05T07:46:44.000Z</time>
      </trkpt>
      <trkpt lat="49.86785" lon="4.75776">
        <ele>268</ele>
        <time>2022-09-05T07:46:45.000Z</time>
      </trkpt>
      <trkpt lat="49.86785" lon="4.75772">
        <ele>269</ele>
        <time>2022-09-05T07:46:46.000Z</time>
      </trkpt>
      <trkpt lat="49.86784" lon="4.75768">
        <ele>269</ele>
        <time>2022-09-05T07:46:47.000Z</time>
      </trkpt>
      <trkpt lat="49.86784" lon="4.75765">
        <ele>269</ele>
        <time>2022-09-05T07:46:48.000Z</time>
      </trkpt>
      <trkpt lat="49.86784" lon="4.75762">
        <ele>269</ele>
        <time>2022-09-05T07:46:49.000Z</time>
      </trkpt>
      <trkpt lat="49.86783" lon="4.7576">
        <ele>269</ele>
        <time>2022-09-05T07:46:50.000Z</time>
      </trkpt>
      <trkpt lat="49.86784" lon="4.75757">
        <ele>269</ele>
        <time>2022-09-05T07:46:51.000Z</time>
      </trkpt>
      <trkpt lat="49.86784" lon="4.75754">
        <ele>269</ele>
        <time>2022-09-05T07:46:52.000Z</time>
      </trkpt>
      <trkpt lat="49.86784" lon="4.75751">
        <ele>269</ele>
        <time>2022-09-05T07:46:53.000Z</time>
      </trkpt>
      <trkpt lat="49.86784" lon="4.75748">
        <ele>269</ele>
        <time>2022-09-05T07:46:54.000Z</time>
      </trkpt>
      <trkpt lat="49.86783" lon="4.75744">
        <ele>270</ele>
        <time>2022-09-05T07:46:55.000Z</time>
      </trkpt>
      <trkpt lat="49.86783" lon="4.7574">
        <ele>270</ele>
        <time>2022-09-05T07:46:56.000Z</time>
      </trkpt>
      <trkpt lat="49.86783" lon="4.75736">
        <ele>270</ele>
        <time>2022-09-05T07:46:57.000Z</time>
      </trkpt>
      <trkpt lat="49.86782" lon="4.75733">
        <ele>270</ele>
        <time>2022-09-05T07:46:58.000Z</time>
      </trkpt>
      <trkpt lat="49.86783" lon="4.75729">
        <ele>270</ele>
        <time>2022-09-05T07:46:59.000Z</time>
      </trkpt>
      <trkpt lat="49.86783" lon="4.75725">
        <ele>270</ele>
        <time>2022-09-05T07:47:00.000Z</time>
      </trkpt>
      <trkpt lat="49.86783" lon="4.75721">
        <ele>270</ele>
        <time>2022-09-05T07:47:01.000Z</time>
      </trkpt>
      <trkpt lat="49.86783" lon="4.75718">
        <ele>270</ele>
        <time>2022-09-05T07:47:02.000Z</time>
      </trkpt>
      <trkpt lat="49.86783" lon="4.75714">
        <ele>270</ele>
        <time>2022-09-05T07:47:03.000Z</time>
      </trkpt>
      <trkpt lat="49.86782" lon="4.75711">
        <ele>270</ele>
        <time>2022-09-05T07:47:04.000Z</time>
      </trkpt>
      <trkpt lat="49.86782" lon="4.75709">
        <ele>270</ele>
        <time>2022-09-05T07:47:05.000Z</time>
      </trkpt>
      <trkpt lat="49.86782" lon="4.75706">
        <ele>271</ele>
        <time>2022-09-05T07:47:06.000Z</time>
      </trkpt>
      <trkpt lat="49.86782" lon="4.75703">
        <ele>271</ele>
        <time>2022-09-05T07:47:07.000Z</time>
      </trkpt>
      <trkpt lat="49.86782" lon="4.757">
        <ele>271</ele>
        <time>2022-09-05T07:47:08.000Z</time>
      </trkpt>
      <trkpt lat="49.86782" lon="4.75697">
        <ele>271</ele>
        <time>2022-09-05T07:47:09.000Z</time>
      </trkpt>
      <trkpt lat="49.86782" lon="4.75694">
        <ele>271</ele>
        <time>2022-09-05T07:47:10.000Z</time>
      </trkpt>
      <trkpt lat="49.86782" lon="4.75691">
        <ele>272</ele>
        <time>2022-09-05T07:47:11.000Z</time>
      </trkpt>
      <trkpt lat="49.86782" lon="4.75689">
        <ele>272</ele>
        <time>2022-09-05T07:47:12.000Z</time>
      </trkpt>
      <trkpt lat="49.86782" lon="4.75686">
        <ele>272</ele>
        <time>2022-09-05T07:47:13.000Z</time>
      </trkpt>
      <trkpt lat="49.86782" lon="4.75683">
        <ele>272</ele>
        <time>2022-09-05T07:47:14.000Z</time>
      </trkpt>
      <trkpt lat="49.86781" lon="4.75679">
        <ele>272</ele>
        <time>2022-09-05T07:47:15.000Z</time>
      </trkpt>
      <trkpt lat="49.86782" lon="4.75677">
        <ele>272</ele>
        <time>2022-09-05T07:47:16.000Z</time>
      </trkpt>
      <trkpt lat="49.86782" lon="4.75674">
        <ele>272</ele>
        <time>2022-09-05T07:47:17.000Z</time>
      </trkpt>
      <trkpt lat="49.86781" lon="4.75671">
        <ele>273</ele>
        <time>2022-09-05T07:47:18.000Z</time>
      </trkpt>
      <trkpt lat="49.86781" lon="4.75668">
        <ele>273</ele>
        <time>2022-09-05T07:47:19.000Z</time>
      </trkpt>
      <trkpt lat="49.86781" lon="4.75665">
        <ele>273</ele>
        <time>2022-09-05T07:47:20.000Z</time>
      </trkpt>
      <trkpt lat="49.8678" lon="4.75662">
        <ele>273</ele>
        <time>2022-09-05T07:47:21.000Z</time>
      </trkpt>
      <trkpt lat="49.86779" lon="4.75659">
        <ele>273</ele>
        <time>2022-09-05T07:47:22.000Z</time>
      </trkpt>
      <trkpt lat="49.86779" lon="4.75656">
        <ele>273</ele>
        <time>2022-09-05T07:47:23.000Z</time>
      </trkpt>
      <trkpt lat="49.86779" lon="4.75652">
        <ele>274</ele>
        <time>2022-09-05T07:47:24.000Z</time>
      </trkpt>
      <trkpt lat="49.86778" lon="4.75649">
        <ele>274</ele>
        <time>2022-09-05T07:47:25.000Z</time>
      </trkpt>
      <trkpt lat="49.86778" lon="4.75646">
        <ele>274</ele>
        <time>2022-09-05T07:47:26.000Z</time>
      </trkpt>
      <trkpt lat="49.86777" lon="4.75643">
        <ele>274</ele>
        <time>2022-09-05T07:47:27.000Z</time>
      </trkpt>
      <trkpt lat="49.86777" lon="4.7564">
        <ele>274</ele>
        <time>2022-09-05T07:47:28.000Z</time>
      </trkpt>
      <trkpt lat="49.86776" lon="4.75637">
        <ele>274</ele>
        <time>2022-09-05T07:47:29.000Z</time>
      </trkpt>
      <trkpt lat="49.86776" lon="4.75634">
        <ele>275</ele>
        <time>2022-09-05T07:47:30.000Z</time>
      </trkpt>
      <trkpt lat="49.86775" lon="4.75632">
        <ele>275</ele>
        <time>2022-09-05T07:47:31.000Z</time>
      </trkpt>
      <trkpt lat="49.86775" lon="4.75629">
        <ele>275</ele>
        <time>2022-09-05T07:47:32.000Z</time>
      </trkpt>
      <trkpt lat="49.86775" lon="4.75626">
        <ele>276</ele>
        <time>2022-09-05T07:47:33.000Z</time>
      </trkpt>
      <trkpt lat="49.86775" lon="4.75623">
        <ele>276</ele>
        <time>2022-09-05T07:47:34.000Z</time>
      </trkpt>
      <trkpt lat="49.86775" lon="4.75622">
        <ele>276</ele>
        <time>2022-09-05T07:47:35.000Z</time>
      </trkpt>
      <trkpt lat="49.86774" lon="4.75621">
        <ele>276</ele>
        <time>2022-09-05T07:47:36.000Z</time>
      </trkpt>
      <trkpt lat="49.86775" lon="4.75621">
        <ele>277</ele>
        <time>2022-09-05T07:47:37.000Z</time>
      </trkpt>
      <trkpt lat="49.86775" lon="4.75621">
        <ele>277</ele>
        <time>2022-09-05T07:47:38.000Z</time>
      </trkpt>
      <trkpt lat="49.86775" lon="4.75621">
        <ele>277</ele>
        <time>2022-09-05T07:47:39.000Z</time>
      </trkpt>
      <trkpt lat="49.86775" lon="4.7562">
        <ele>278</ele>
        <time>2022-09-05T07:47:40.000Z</time>
      </trkpt>
      <trkpt lat="49.86774" lon="4.7562">
        <ele>278</ele>
        <time>2022-09-05T07:47:41.000Z</time>
      </trkpt>
      <trkpt lat="49.86774" lon="4.7562">
        <ele>278</ele>
        <time>2022-09-05T07:47:42.000Z</time>
      </trkpt>
      <trkpt lat="49.86774" lon="4.75619">
        <ele>278</ele>
        <time>2022-09-05T07:47:43.000Z</time>
      </trkpt>
      <trkpt lat="49.86773" lon="4.75619">
        <ele>279</ele>
        <time>2022-09-05T07:47:44.000Z</time>
      </trkpt>
      <trkpt lat="49.86773" lon="4.75619">
        <ele>279</ele>
        <time>2022-09-05T07:47:45.000Z</time>
      </trkpt>
      <trkpt lat="49.86773" lon="4.75619">
        <ele>279</ele>
        <time>2022-09-05T07:47:46.000Z</time>
      </trkpt>
      <trkpt lat="49.86773" lon="4.75619">
        <ele>279</ele>
        <time>2022-09-05T07:47:47.000Z</time>
      </trkpt>
      <trkpt lat="49.86773" lon="4.75618">
        <ele>279</ele>
        <time>2022-09-05T07:47:48.000Z</time>
      </trkpt>
      <trkpt lat="49.86772" lon="4.75618">
        <ele>279</ele>
        <time>2022-09-05T07:47:49.000Z</time>
      </trkpt>
      <trkpt lat="49.86772" lon="4.75618">
        <ele>279</ele>
        <time>2022-09-05T07:47:50.000Z</time>
      </trkpt>
      <trkpt lat="49.86772" lon="4.75617">
        <ele>279</ele>
        <time>2022-09-05T07:47:51.000Z</time>
      </trkpt>
      <trkpt lat="49.86771" lon="4.75617">
        <ele>279</ele>
        <time>2022-09-05T07:47:52.000Z</time>
      </trkpt>
      <trkpt lat="49.86771" lon="4.75617">
        <ele>279</ele>
        <time>2022-09-05T07:47:53.000Z</time>
      </trkpt>
      <trkpt lat="49.86771" lon="4.75616">
        <ele>279</ele>
        <time>2022-09-05T07:47:54.000Z</time>
      </trkpt>
      <trkpt lat="49.8677" lon="4.75615">
        <ele>279</ele>
        <time>2022-09-05T07:47:55.000Z</time>
      </trkpt>
      <trkpt lat="49.8677" lon="4.75614">
        <ele>279</ele>
        <time>2022-09-05T07:47:56.000Z</time>
      </trkpt>
      <trkpt lat="49.86769" lon="4.75613">
        <ele>279</ele>
        <time>2022-09-05T07:47:57.000Z</time>
      </trkpt>
      <trkpt lat="49.86768" lon="4.75612">
        <ele>279</ele>
        <time>2022-09-05T07:47:58.000Z</time>
      </trkpt>
      <trkpt lat="49.86768" lon="4.75611">
        <ele>280</ele>
        <time>2022-09-05T07:47:59.000Z</time>
      </trkpt>
      <trkpt lat="49.86768" lon="4.7561">
        <ele>280</ele>
        <time>2022-09-05T07:48:00.000Z</time>
      </trkpt>
      <trkpt lat="49.86768" lon="4.75609">
        <ele>280</ele>
        <time>2022-09-05T07:48:01.000Z</time>
      </trkpt>
      <trkpt lat="49.86768" lon="4.75609">
        <ele>280</ele>
        <time>2022-09-05T07:48:02.000Z</time>
      </trkpt>
      <trkpt lat="49.86768" lon="4.75608">
        <ele>280</ele>
        <time>2022-09-05T07:48:03.000Z</time>
      </trkpt>
      <trkpt lat="49.86767" lon="4.75608">
        <ele>280</ele>
        <time>2022-09-05T07:48:04.000Z</time>
      </trkpt>
      <trkpt lat="49.86767" lon="4.75607">
        <ele>281</ele>
        <time>2022-09-05T07:48:05.000Z</time>
      </trkpt>
      <trkpt lat="49.86767" lon="4.75607">
        <ele>281</ele>
        <time>2022-09-05T07:48:06.000Z</time>
      </trkpt>
      <trkpt lat="49.86767" lon="4.75607">
        <ele>281</ele>
        <time>2022-09-05T07:48:07.000Z</time>
      </trkpt>
      <trkpt lat="49.86767" lon="4.75606">
        <ele>281</ele>
        <time>2022-09-05T07:48:08.000Z</time>
      </trkpt>
      <trkpt lat="49.86766" lon="4.75606">
        <ele>281</ele>
        <time>2022-09-05T07:48:09.000Z</time>
      </trkpt>
      <trkpt lat="49.86766" lon="4.75605">
        <ele>281</ele>
        <time>2022-09-05T07:48:10.000Z</time>
      </trkpt>
      <trkpt lat="49.86765" lon="4.75604">
        <ele>281</ele>
        <time>2022-09-05T07:48:11.000Z</time>
      </trkpt>
      <trkpt lat="49.86765" lon="4.75603">
        <ele>281</ele>
        <time>2022-09-05T07:48:12.000Z</time>
      </trkpt>
      <trkpt lat="49.86765" lon="4.75603">
        <ele>281</ele>
        <time>2022-09-05T07:48:13.000Z</time>
      </trkpt>
      <trkpt lat="49.86765" lon="4.75602">
        <ele>282</ele>
        <time>2022-09-05T07:48:14.000Z</time>
      </trkpt>
      <trkpt lat="49.86766" lon="4.75602">
        <ele>282</ele>
        <time>2022-09-05T07:48:15.000Z</time>
      </trkpt>
      <trkpt lat="49.86766" lon="4.75602">
        <ele>282</ele>
        <time>2022-09-05T07:48:16.000Z</time>
      </trkpt>
      <trkpt lat="49.86766" lon="4.75602">
        <ele>282</ele>
        <time>2022-09-05T07:48:17.000Z</time>
      </trkpt>
      <trkpt lat="49.86766" lon="4.75601">
        <ele>282</ele>
        <time>2022-09-05T07:48:18.000Z</time>
      </trkpt>
      <trkpt lat="49.86766" lon="4.75601">
        <ele>282</ele>
        <time>2022-09-05T07:48:19.000Z</time>
      </trkpt>
      <trkpt lat="49.86767" lon="4.75601">
        <ele>282</ele>
        <time>2022-09-05T07:48:20.000Z</time>
      </trkpt>
      <trkpt lat="49.86767" lon="4.75601">
        <ele>282</ele>
        <time>2022-09-05T07:48:21.000Z</time>
      </trkpt>
      <trkpt lat="49.86767" lon="4.75601">
        <ele>282</ele>
        <time>2022-09-05T07:48:22.000Z</time>
      </trkpt>
      <trkpt lat="49.86767" lon="4.75601">
        <ele>282</ele>
        <time>2022-09-05T07:48:23.000Z</time>
      </trkpt>
      <trkpt lat="49.86767" lon="4.756">
        <ele>282</ele>
        <time>2022-09-05T07:48:24.000Z</time>
      </trkpt>
      <trkpt lat="49.86768" lon="4.756">
        <ele>282</ele>
        <time>2022-09-05T07:48:25.000Z</time>
      </trkpt>
      <trkpt lat="49.86768" lon="4.75601">
        <ele>282</ele>
        <time>2022-09-05T07:48:26.000Z</time>
      </trkpt>
      <trkpt lat="49.86768" lon="4.75601">
        <ele>282</ele>
        <time>2022-09-05T07:48:27.000Z</time>
      </trkpt>
      <trkpt lat="49.86769" lon="4.756">
        <ele>282</ele>
        <time>2022-09-05T07:48:28.000Z</time>
      </trkpt>
      <trkpt lat="49.86769" lon="4.756">
        <ele>282</ele>
        <time>2022-09-05T07:48:29.000Z</time>
      </trkpt>
      <trkpt lat="49.8677" lon="4.756">
        <ele>282</ele>
        <time>2022-09-05T07:48:30.000Z</time>
      </trkpt>
      <trkpt lat="49.8677" lon="4.756">
        <ele>282</ele>
        <time>2022-09-05T07:48:31.000Z</time>
      </trkpt>
      <trkpt lat="49.8677" lon="4.756">
        <ele>282</ele>
        <time>2022-09-05T07:48:32.000Z</time>
      </trkpt>
      <trkpt lat="49.86771" lon="4.75601">
        <ele>282</ele>
        <time>2022-09-05T07:48:33.000Z</time>
      </trkpt>
      <trkpt lat="49.86771" lon="4.75601">
        <ele>282</ele>
        <time>2022-09-05T07:48:34.000Z</time>
      </trkpt>
      <trkpt lat="49.86771" lon="4.756">
        <ele>282</ele>
        <time>2022-09-05T07:48:35.000Z</time>
      </trkpt>
      <trkpt lat="49.86771" lon="4.756">
        <ele>282</ele>
        <time>2022-09-05T07:48:36.000Z</time>
      </trkpt>
      <trkpt lat="49.86771" lon="4.756">
        <ele>283</ele>
        <time>2022-09-05T07:48:37.000Z</time>
      </trkpt>
      <trkpt lat="49.86771" lon="4.756">
        <ele>283</ele>
        <time>2022-09-05T07:48:38.000Z</time>
      </trkpt>
      <trkpt lat="49.86771" lon="4.75599">
        <ele>283</ele>
        <time>2022-09-05T07:48:39.000Z</time>
      </trkpt>
      <trkpt lat="49.86772" lon="4.75599">
        <ele>283</ele>
        <time>2022-09-05T07:48:40.000Z</time>
      </trkpt>
      <trkpt lat="49.86772" lon="4.75599">
        <ele>283</ele>
        <time>2022-09-05T07:48:41.000Z</time>
      </trkpt>
      <trkpt lat="49.86772" lon="4.75599">
        <ele>283</ele>
        <time>2022-09-05T07:48:42.000Z</time>
      </trkpt>
      <trkpt lat="49.86772" lon="4.75598">
        <ele>283</ele>
        <time>2022-09-05T07:48:43.000Z</time>
      </trkpt>
      <trkpt lat="49.86773" lon="4.75598">
        <ele>283</ele>
        <time>2022-09-05T07:48:44.000Z</time>
      </trkpt>
      <trkpt lat="49.86773" lon="4.75597">
        <ele>284</ele>
        <time>2022-09-05T07:48:45.000Z</time>
      </trkpt>
      <trkpt lat="49.86773" lon="4.75596">
        <ele>284</ele>
        <time>2022-09-05T07:48:46.000Z</time>
      </trkpt>
      <trkpt lat="49.86773" lon="4.75596">
        <ele>284</ele>
        <time>2022-09-05T07:48:47.000Z</time>
      </trkpt>
      <trkpt lat="49.86774" lon="4.75595">
        <ele>285</ele>
        <time>2022-09-05T07:48:48.000Z</time>
      </trkpt>
      <trkpt lat="49.86774" lon="4.75595">
        <ele>285</ele>
        <time>2022-09-05T07:48:49.000Z</time>
      </trkpt>
      <trkpt lat="49.86774" lon="4.75595">
        <ele>285</ele>
        <time>2022-09-05T07:48:50.000Z</time>
      </trkpt>
      <trkpt lat="49.86774" lon="4.75595">
        <ele>285</ele>
        <time>2022-09-05T07:48:51.000Z</time>
      </trkpt>
      <trkpt lat="49.86775" lon="4.75595">
        <ele>285</ele>
        <time>2022-09-05T07:48:52.000Z</time>
      </trkpt>
      <trkpt lat="49.86775" lon="4.75595">
        <ele>286</ele>
        <time>2022-09-05T07:48:53.000Z</time>
      </trkpt>
      <trkpt lat="49.86775" lon="4.75595">
        <ele>286</ele>
        <time>2022-09-05T07:48:54.000Z</time>
      </trkpt>
      <trkpt lat="49.86775" lon="4.75595">
        <ele>286</ele>
        <time>2022-09-05T07:48:55.000Z</time>
      </trkpt>
      <trkpt lat="49.86775" lon="4.75595">
        <ele>286</ele>
        <time>2022-09-05T07:48:56.000Z</time>
      </trkpt>
      <trkpt lat="49.86775" lon="4.75595">
        <ele>286</ele>
        <time>2022-09-05T07:48:57.000Z</time>
      </trkpt>
      <trkpt lat="49.86775" lon="4.75595">
        <ele>286</ele>
        <time>2022-09-05T07:48:58.000Z</time>
      </trkpt>
      <trkpt lat="49.86775" lon="4.75594">
        <ele>286</ele>
        <time>2022-09-05T07:48:59.000Z</time>
      </trkpt>
      <trkpt lat="49.86776" lon="4.75594">
        <ele>286</ele>
        <time>2022-09-05T07:49:00.000Z</time>
      </trkpt>
      <trkpt lat="49.86776" lon="4.75594">
        <ele>286</ele>
        <time>2022-09-05T07:49:01.000Z</time>
      </trkpt>
      <trkpt lat="49.86775" lon="4.75594">
        <ele>286</ele>
        <time>2022-09-05T07:49:02.000Z</time>
      </trkpt>
      <trkpt lat="49.86775" lon="4.75595">
        <ele>287</ele>
        <time>2022-09-05T07:49:03.000Z</time>
      </trkpt>
      <trkpt lat="49.86775" lon="4.75595">
        <ele>287</ele>
        <time>2022-09-05T07:49:04.000Z</time>
      </trkpt>
      <trkpt lat="49.86775" lon="4.75594">
        <ele>287</ele>
        <time>2022-09-05T07:49:05.000Z</time>
      </trkpt>
      <trkpt lat="49.86775" lon="4.75594">
        <ele>287</ele>
        <time>2022-09-05T07:49:06.000Z</time>
      </trkpt>
      <trkpt lat="49.86776" lon="4.75594">
        <ele>287</ele>
        <time>2022-09-05T07:49:07.000Z</time>
      </trkpt>
      <trkpt lat="49.86776" lon="4.75594">
        <ele>287</ele>
        <time>2022-09-05T07:49:08.000Z</time>
      </trkpt>
      <trkpt lat="49.86776" lon="4.75595">
        <ele>287</ele>
        <time>2022-09-05T07:49:09.000Z</time>
      </trkpt>
      <trkpt lat="49.86776" lon="4.75594">
        <ele>287</ele>
        <time>2022-09-05T07:49:10.000Z</time>
      </trkpt>
      <trkpt lat="49.86775" lon="4.75594">
        <ele>287</ele>
        <time>2022-09-05T07:49:11.000Z</time>
      </trkpt>
      <trkpt lat="49.86775" lon="4.75594">
        <ele>287</ele>
        <time>2022-09-05T07:49:12.000Z</time>
      </trkpt>
      <trkpt lat="49.86775" lon="4.75594">
        <ele>287</ele>
        <time>2022-09-05T07:49:13.000Z</time>
      </trkpt>
      <trkpt lat="49.86775" lon="4.75595">
        <ele>287</ele>
        <time>2022-09-05T07:49:14.000Z</time>
      </trkpt>
      <trkpt lat="49.86775" lon="4.75595">
        <ele>287</ele>
        <time>2022-09-05T07:49:15.000Z</time>
      </trkpt>
      <trkpt lat="49.86775" lon="4.75595">
        <ele>287</ele>
        <time>2022-09-05T07:49:16.000Z</time>
      </trkpt>
      <trkpt lat="49.86775" lon="4.75594">
        <ele>287</ele>
        <time>2022-09-05T07:49:17.000Z</time>
      </trkpt>
      <trkpt lat="49.86775" lon="4.75594">
        <ele>287</ele>
        <time>2022-09-05T07:49:18.000Z</time>
      </trkpt>
      <trkpt lat="49.86775" lon="4.75593">
        <ele>287</ele>
        <time>2022-09-05T07:49:19.000Z</time>
      </trkpt>
      <trkpt lat="49.86775" lon="4.75593">
        <ele>287</ele>
        <time>2022-09-05T07:49:20.000Z</time>
      </trkpt>
      <trkpt lat="49.86775" lon="4.75593">
        <ele>287</ele>
        <time>2022-09-05T07:49:21.000Z</time>
      </trkpt>
      <trkpt lat="49.86775" lon="4.75593">
        <ele>287</ele>
        <time>2022-09-05T07:49:22.000Z</time>
      </trkpt>
      <trkpt lat="49.86775" lon="4.75593">
        <ele>286</ele>
        <time>2022-09-05T07:49:23.000Z</time>
      </trkpt>
      <trkpt lat="49.86775" lon="4.75593">
        <ele>286</ele>
        <time>2022-09-05T07:49:24.000Z</time>
      </trkpt>
      <trkpt lat="49.86774" lon="4.75593">
        <ele>286</ele>
        <time>2022-09-05T07:49:25.000Z</time>
      </trkpt>
      <trkpt lat="49.86774" lon="4.75594">
        <ele>286</ele>
        <time>2022-09-05T07:49:26.000Z</time>
      </trkpt>
      <trkpt lat="49.86773" lon="4.75594">
        <ele>286</ele>
        <time>2022-09-05T07:49:27.000Z</time>
      </trkpt>
      <trkpt lat="49.86773" lon="4.75594">
        <ele>286</ele>
        <time>2022-09-05T07:49:28.000Z</time>
      </trkpt>
      <trkpt lat="49.86773" lon="4.75593">
        <ele>286</ele>
        <time>2022-09-05T07:49:29.000Z</time>
      </trkpt>
      <trkpt lat="49.86772" lon="4.75593">
        <ele>286</ele>
        <time>2022-09-05T07:49:30.000Z</time>
      </trkpt>
      <trkpt lat="49.86773" lon="4.75593">
        <ele>286</ele>
        <time>2022-09-05T07:49:31.000Z</time>
      </trkpt>
      <trkpt lat="49.86773" lon="4.75593">
        <ele>286</ele>
        <time>2022-09-05T07:49:32.000Z</time>
      </trkpt>
      <trkpt lat="49.86772" lon="4.75593">
        <ele>286</ele>
        <time>2022-09-05T07:49:33.000Z</time>
      </trkpt>
      <trkpt lat="49.86772" lon="4.75593">
        <ele>286</ele>
        <time>2022-09-05T07:49:34.000Z</time>
      </trkpt>
      <trkpt lat="49.86772" lon="4.75593">
        <ele>286</ele>
        <time>2022-09-05T07:49:35.000Z</time>
      </trkpt>
      <trkpt lat="49.86772" lon="4.75592">
        <ele>286</ele>
        <time>2022-09-05T07:49:36.000Z</time>
      </trkpt>
      <trkpt lat="49.86772" lon="4.75592">
        <ele>286</ele>
        <time>2022-09-05T07:49:37.000Z</time>
      </trkpt>
      <trkpt lat="49.86772" lon="4.75592">
        <ele>286</ele>
        <time>2022-09-05T07:49:38.000Z</time>
      </trkpt>
      <trkpt lat="49.86771" lon="4.75592">
        <ele>286</ele>
        <time>2022-09-05T07:49:39.000Z</time>
      </trkpt>
      <trkpt lat="49.86771" lon="4.75592">
        <ele>286</ele>
        <time>2022-09-05T07:49:40.000Z</time>
      </trkpt>
      <trkpt lat="49.86771" lon="4.75592">
        <ele>286</ele>
        <time>2022-09-05T07:49:41.000Z</time>
      </trkpt>
      <trkpt lat="49.86771" lon="4.75592">
        <ele>286</ele>
        <time>2022-09-05T07:49:42.000Z</time>
      </trkpt>
      <trkpt lat="49.86771" lon="4.75592">
        <ele>286</ele>
        <time>2022-09-05T07:49:43.000Z</time>
      </trkpt>
      <trkpt lat="49.86771" lon="4.75592">
        <ele>285</ele>
        <time>2022-09-05T07:49:44.000Z</time>
      </trkpt>
      <trkpt lat="49.8677" lon="4.75592">
        <ele>285</ele>
        <time>2022-09-05T07:49:45.000Z</time>
      </trkpt>
      <trkpt lat="49.8677" lon="4.75592">
        <ele>285</ele>
        <time>2022-09-05T07:49:46.000Z</time>
      </trkpt>
      <trkpt lat="49.8677" lon="4.75591">
        <ele>285</ele>
        <time>2022-09-05T07:49:47.000Z</time>
      </trkpt>
      <trkpt lat="49.8677" lon="4.75591">
        <ele>285</ele>
        <time>2022-09-05T07:49:48.000Z</time>
      </trkpt>
      <trkpt lat="49.8677" lon="4.75591">
        <ele>285</ele>
        <time>2022-09-05T07:49:49.000Z</time>
      </trkpt>
      <trkpt lat="49.8677" lon="4.75591">
        <ele>285</ele>
        <time>2022-09-05T07:49:50.000Z</time>
      </trkpt>
      <trkpt lat="49.8677" lon="4.75592">
        <ele>285</ele>
        <time>2022-09-05T07:49:51.000Z</time>
      </trkpt>
      <trkpt lat="49.8677" lon="4.75592">
        <ele>285</ele>
        <time>2022-09-05T07:49:52.000Z</time>
      </trkpt>
      <trkpt lat="49.8677" lon="4.75592">
        <ele>285</ele>
        <time>2022-09-05T07:49:53.000Z</time>
      </trkpt>
      <trkpt lat="49.8677" lon="4.75593">
        <ele>285</ele>
        <time>2022-09-05T07:49:54.000Z</time>
      </trkpt>
      <trkpt lat="49.86771" lon="4.75592">
        <ele>285</ele>
        <time>2022-09-05T07:49:55.000Z</time>
      </trkpt>
      <trkpt lat="49.86771" lon="4.75592">
        <ele>284</ele>
        <time>2022-09-05T07:49:56.000Z</time>
      </trkpt>
      <trkpt lat="49.86771" lon="4.75593">
        <ele>284</ele>
        <time>2022-09-05T07:49:57.000Z</time>
      </trkpt>
      <trkpt lat="49.86771" lon="4.75593">
        <ele>284</ele>
        <time>2022-09-05T07:49:58.000Z</time>
      </trkpt>
      <trkpt lat="49.86771" lon="4.75594">
        <ele>284</ele>
        <time>2022-09-05T07:49:59.000Z</time>
      </trkpt>
      <trkpt lat="49.86772" lon="4.75594">
        <ele>284</ele>
        <time>2022-09-05T07:50:00.000Z</time>
      </trkpt>
      <trkpt lat="49.86772" lon="4.75594">
        <ele>284</ele>
        <time>2022-09-05T07:50:01.000Z</time>
      </trkpt>
      <trkpt lat="49.86772" lon="4.75594">
        <ele>284</ele>
        <time>2022-09-05T07:50:02.000Z</time>
      </trkpt>
      <trkpt lat="49.86772" lon="4.75595">
        <ele>284</ele>
        <time>2022-09-05T07:50:03.000Z</time>
      </trkpt>
      <trkpt lat="49.86772" lon="4.75595">
        <ele>284</ele>
        <time>2022-09-05T07:50:04.000Z</time>
      </trkpt>
      <trkpt lat="49.86772" lon="4.75595">
        <ele>284</ele>
        <time>2022-09-05T07:50:05.000Z</time>
      </trkpt>
      <trkpt lat="49.86772" lon="4.75594">
        <ele>284</ele>
        <time>2022-09-05T07:50:06.000Z</time>
      </trkpt>
      <trkpt lat="49.86772" lon="4.75595">
        <ele>284</ele>
        <time>2022-09-05T07:50:07.000Z</time>
      </trkpt>
      <trkpt lat="49.86772" lon="4.75595">
        <ele>284</ele>
        <time>2022-09-05T07:50:08.000Z</time>
      </trkpt>
      <trkpt lat="49.86772" lon="4.75595">
        <ele>284</ele>
        <time>2022-09-05T07:50:09.000Z</time>
      </trkpt>
      <trkpt lat="49.86773" lon="4.75595">
        <ele>284</ele>
        <time>2022-09-05T07:50:10.000Z</time>
      </trkpt>
      <trkpt lat="49.86773" lon="4.75595">
        <ele>284</ele>
        <time>2022-09-05T07:50:11.000Z</time>
      </trkpt>
      <trkpt lat="49.86773" lon="4.75595">
        <ele>284</ele>
        <time>2022-09-05T07:50:12.000Z</time>
      </trkpt>
      <trkpt lat="49.86773" lon="4.75595">
        <ele>284</ele>
        <time>2022-09-05T07:50:13.000Z</time>
      </trkpt>
      <trkpt lat="49.86773" lon="4.75595">
        <ele>284</ele>
        <time>2022-09-05T07:50:14.000Z</time>
      </trkpt>
      <trkpt lat="49.86773" lon="4.75595">
        <ele>284</ele>
        <time>2022-09-05T07:50:15.000Z</time>
      </trkpt>
      <trkpt lat="49.86773" lon="4.75595">
        <ele>284</ele>
        <time>2022-09-05T07:50:16.000Z</time>
      </trkpt>
      <trkpt lat="49.86773" lon="4.75596">
        <ele>284</ele>
        <time>2022-09-05T07:50:17.000Z</time>
      </trkpt>
      <trkpt lat="49.86773" lon="4.75596">
        <ele>284</ele>
        <time>2022-09-05T07:50:18.000Z</time>
      </trkpt>
      <trkpt lat="49.86773" lon="4.75596">
        <ele>284</ele>
        <time>2022-09-05T07:50:19.000Z</time>
      </trkpt>
      <trkpt lat="49.86773" lon="4.75596">
        <ele>284</ele>
        <time>2022-09-05T07:50:20.000Z</time>
      </trkpt>
      <trkpt lat="49.86774" lon="4.75596">
        <ele>284</ele>
        <time>2022-09-05T07:50:21.000Z</time>
      </trkpt>
      <trkpt lat="49.86774" lon="4.75596">
        <ele>284</ele>
        <time>2022-09-05T07:50:22.000Z</time>
      </trkpt>
      <trkpt lat="49.86774" lon="4.75596">
        <ele>284</ele>
        <time>2022-09-05T07:50:23.000Z</time>
      </trkpt>
      <trkpt lat="49.86774" lon="4.75596">
        <ele>284</ele>
        <time>2022-09-05T07:50:24.000Z</time>
      </trkpt>
      <trkpt lat="49.86774" lon="4.75596">
        <ele>284</ele>
        <time>2022-09-05T07:50:25.000Z</time>
      </trkpt>
      <trkpt lat="49.86774" lon="4.75596">
        <ele>284</ele>
        <time>2022-09-05T07:50:26.000Z</time>
      </trkpt>
      <trkpt lat="49.86774" lon="4.75596">
        <ele>284</ele>
        <time>2022-09-05T07:50:27.000Z</time>
      </trkpt>
      <trkpt lat="49.86774" lon="4.75596">
        <ele>284</ele>
        <time>2022-09-05T07:50:28.000Z</time>
      </trkpt>
      <trkpt lat="49.86774" lon="4.75596">
        <ele>284</ele>
        <time>2022-09-05T07:50:29.000Z</time>
      </trkpt>
      <trkpt lat="49.86774" lon="4.75596">
        <ele>284</ele>
        <time>2022-09-05T07:50:30.000Z</time>
      </trkpt>
      <trkpt lat="49.86774" lon="4.75596">
        <ele>284</ele>
        <time>2022-09-05T07:50:31.000Z</time>
      </trkpt>
      <trkpt lat="49.86774" lon="4.75596">
        <ele>284</ele>
        <time>2022-09-05T07:50:32.000Z</time>
      </trkpt>
      <trkpt lat="49.86774" lon="4.75596">
        <ele>284</ele>
        <time>2022-09-05T07:50:33.000Z</time>
      </trkpt>
      <trkpt lat="49.86774" lon="4.75596">
        <ele>283</ele>
        <time>2022-09-05T07:50:34.000Z</time>
      </trkpt>
      <trkpt lat="49.86774" lon="4.75596">
        <ele>283</ele>
        <time>2022-09-05T07:50:35.000Z</time>
      </trkpt>
      <trkpt lat="49.86774" lon="4.75596">
        <ele>283</ele>
        <time>2022-09-05T07:50:36.000Z</time>
      </trkpt>
      <trkpt lat="49.86774" lon="4.75596">
        <ele>283</ele>
        <time>2022-09-05T07:50:37.000Z</time>
      </trkpt>
      <trkpt lat="49.86774" lon="4.75596">
        <ele>283</ele>
        <time>2022-09-05T07:50:38.000Z</time>
      </trkpt>
      <trkpt lat="49.86774" lon="4.75596">
        <ele>283</ele>
        <time>2022-09-05T07:50:39.000Z</time>
      </trkpt>
      <trkpt lat="49.86774" lon="4.75596">
        <ele>283</ele>
        <time>2022-09-05T07:50:40.000Z</time>
      </trkpt>
      <trkpt lat="49.86774" lon="4.75596">
        <ele>283</ele>
        <time>2022-09-05T07:50:41.000Z</time>
      </trkpt>
      <trkpt lat="49.86774" lon="4.75596">
        <ele>283</ele>
        <time>2022-09-05T07:50:42.000Z</time>
      </trkpt>
      <trkpt lat="49.86774" lon="4.75595">
        <ele>283</ele>
        <time>2022-09-05T07:50:43.000Z</time>
      </trkpt>
      <trkpt lat="49.86774" lon="4.75595">
        <ele>283</ele>
        <time>2022-09-05T07:50:44.000Z</time>
      </trkpt>
      <trkpt lat="49.86774" lon="4.75595">
        <ele>283</ele>
        <time>2022-09-05T07:50:45.000Z</time>
      </trkpt>
      <trkpt lat="49.86774" lon="4.75595">
        <ele>283</ele>
        <time>2022-09-05T07:50:46.000Z</time>
      </trkpt>
      <trkpt lat="49.86775" lon="4.75596">
        <ele>283</ele>
        <time>2022-09-05T07:50:47.000Z</time>
      </trkpt>
      <trkpt lat="49.86775" lon="4.75595">
        <ele>283</ele>
        <time>2022-09-05T07:50:48.000Z</time>
      </trkpt>
      <trkpt lat="49.86775" lon="4.75596">
        <ele>283</ele>
        <time>2022-09-05T07:50:49.000Z</time>
      </trkpt>
      <trkpt lat="49.86775" lon="4.75596">
        <ele>283</ele>
        <time>2022-09-05T07:50:50.000Z</time>
      </trkpt>
      <trkpt lat="49.86775" lon="4.75596">
        <ele>283</ele>
        <time>2022-09-05T07:50:51.000Z</time>
      </trkpt>
      <trkpt lat="49.86775" lon="4.75596">
        <ele>283</ele>
        <time>2022-09-05T07:50:52.000Z</time>
      </trkpt>
      <trkpt lat="49.86775" lon="4.75596">
        <ele>283</ele>
        <time>2022-09-05T07:50:53.000Z</time>
      </trkpt>
      <trkpt lat="49.86775" lon="4.75596">
        <ele>283</ele>
        <time>2022-09-05T07:50:54.000Z</time>
      </trkpt>
      <trkpt lat="49.86775" lon="4.75596">
        <ele>283</ele>
        <time>2022-09-05T07:50:55.000Z</time>
      </trkpt>
      <trkpt lat="49.86775" lon="4.75596">
        <ele>283</ele>
        <time>2022-09-05T07:50:56.000Z</time>
      </trkpt>
      <trkpt lat="49.86775" lon="4.75597">
        <ele>283</ele>
        <time>2022-09-05T07:50:57.000Z</time>
      </trkpt>
      <trkpt lat="49.86775" lon="4.75597">
        <ele>283</ele>
        <time>2022-09-05T07:50:58.000Z</time>
      </trkpt>
      <trkpt lat="49.86775" lon="4.75598">
        <ele>283</ele>
        <time>2022-09-05T07:50:59.000Z</time>
      </trkpt>
      <trkpt lat="49.86775" lon="4.75598">
        <ele>284</ele>
        <time>2022-09-05T07:51:00.000Z</time>
      </trkpt>
      <trkpt lat="49.86775" lon="4.75598">
        <ele>284</ele>
        <time>2022-09-05T07:51:01.000Z</time>
      </trkpt>
      <trkpt lat="49.86775" lon="4.75598">
        <ele>284</ele>
        <time>2022-09-05T07:51:02.000Z</time>
      </trkpt>
      <trkpt lat="49.86775" lon="4.75598">
        <ele>284</ele>
        <time>2022-09-05T07:51:03.000Z</time>
      </trkpt>
      <trkpt lat="49.86775" lon="4.75598">
        <ele>284</ele>
        <time>2022-09-05T07:51:04.000Z</time>
      </trkpt>
      <trkpt lat="49.86775" lon="4.75599">
        <ele>284</ele>
        <time>2022-09-05T07:51:05.000Z</time>
      </trkpt>
      <trkpt lat="49.86774" lon="4.75599">
        <ele>284</ele>
        <time>2022-09-05T07:51:06.000Z</time>
      </trkpt>
      <trkpt lat="49.86774" lon="4.75599">
        <ele>284</ele>
        <time>2022-09-05T07:51:07.000Z</time>
      </trkpt>
      <trkpt lat="49.86774" lon="4.75599">
        <ele>284</ele>
        <time>2022-09-05T07:51:08.000Z</time>
      </trkpt>
      <trkpt lat="49.86774" lon="4.75599">
        <ele>284</ele>
        <time>2022-09-05T07:51:09.000Z</time>
      </trkpt>
      <trkpt lat="49.86774" lon="4.756">
        <ele>284</ele>
        <time>2022-09-05T07:51:10.000Z</time>
      </trkpt>
      <trkpt lat="49.86774" lon="4.756">
        <ele>284</ele>
        <time>2022-09-05T07:51:11.000Z</time>
      </trkpt>
      <trkpt lat="49.86773" lon="4.75601">
        <ele>284</ele>
        <time>2022-09-05T07:51:12.000Z</time>
      </trkpt>
      <trkpt lat="49.86773" lon="4.75602">
        <ele>284</ele>
        <time>2022-09-05T07:51:13.000Z</time>
      </trkpt>
      <trkpt lat="49.86772" lon="4.75603">
        <ele>284</ele>
        <time>2022-09-05T07:51:14.000Z</time>
      </trkpt>
      <trkpt lat="49.86772" lon="4.75603">
        <ele>284</ele>
        <time>2022-09-05T07:51:15.000Z</time>
      </trkpt>
      <trkpt lat="49.86772" lon="4.75603">
        <ele>284</ele>
        <time>2022-09-05T07:51:16.000Z</time>
      </trkpt>
      <trkpt lat="49.86772" lon="4.75603">
        <ele>284</ele>
        <time>2022-09-05T07:51:17.000Z</time>
      </trkpt>
      <trkpt lat="49.86772" lon="4.75603">
        <ele>284</ele>
        <time>2022-09-05T07:51:18.000Z</time>
      </trkpt>
      <trkpt lat="49.86772" lon="4.75602">
        <ele>284</ele>
        <time>2022-09-05T07:51:19.000Z</time>
      </trkpt>
      <trkpt lat="49.86772" lon="4.75602">
        <ele>284</ele>
        <time>2022-09-05T07:51:20.000Z</time>
      </trkpt>
      <trkpt lat="49.86773" lon="4.75602">
        <ele>284</ele>
        <time>2022-09-05T07:51:21.000Z</time>
      </trkpt>
      <trkpt lat="49.86773" lon="4.75602">
        <ele>284</ele>
        <time>2022-09-05T07:51:22.000Z</time>
      </trkpt>
      <trkpt lat="49.86773" lon="4.75602">
        <ele>284</ele>
        <time>2022-09-05T07:51:23.000Z</time>
      </trkpt>
      <trkpt lat="49.86772" lon="4.75603">
        <ele>284</ele>
        <time>2022-09-05T07:51:24.000Z</time>
      </trkpt>
      <trkpt lat="49.86771" lon="4.75603">
        <ele>284</ele>
        <time>2022-09-05T07:51:25.000Z</time>
      </trkpt>
      <trkpt lat="49.86771" lon="4.75604">
        <ele>284</ele>
        <time>2022-09-05T07:51:26.000Z</time>
      </trkpt>
      <trkpt lat="49.86771" lon="4.75604">
        <ele>284</ele>
        <time>2022-09-05T07:51:27.000Z</time>
      </trkpt>
      <trkpt lat="49.86771" lon="4.75604">
        <ele>284</ele>
        <time>2022-09-05T07:51:28.000Z</time>
      </trkpt>
      <trkpt lat="49.8677" lon="4.75605">
        <ele>284</ele>
        <time>2022-09-05T07:51:29.000Z</time>
      </trkpt>
      <trkpt lat="49.8677" lon="4.75606">
        <ele>284</ele>
        <time>2022-09-05T07:51:30.000Z</time>
      </trkpt>
      <trkpt lat="49.86769" lon="4.75606">
        <ele>284</ele>
        <time>2022-09-05T07:51:31.000Z</time>
      </trkpt>
      <trkpt lat="49.86769" lon="4.75606">
        <ele>284</ele>
        <time>2022-09-05T07:51:32.000Z</time>
      </trkpt>
      <trkpt lat="49.86768" lon="4.75606">
        <ele>284</ele>
        <time>2022-09-05T07:51:33.000Z</time>
      </trkpt>
      <trkpt lat="49.86768" lon="4.75606">
        <ele>284</ele>
        <time>2022-09-05T07:51:34.000Z</time>
      </trkpt>
      <trkpt lat="49.86768" lon="4.75606">
        <ele>284</ele>
        <time>2022-09-05T07:51:35.000Z</time>
      </trkpt>
      <trkpt lat="49.86768" lon="4.75606">
        <ele>284</ele>
        <time>2022-09-05T07:51:36.000Z</time>
      </trkpt>
      <trkpt lat="49.86768" lon="4.75606">
        <ele>284</ele>
        <time>2022-09-05T07:51:37.000Z</time>
      </trkpt>
      <trkpt lat="49.86767" lon="4.75606">
        <ele>284</ele>
        <time>2022-09-05T07:51:38.000Z</time>
      </trkpt>
      <trkpt lat="49.86767" lon="4.75607">
        <ele>284</ele>
        <time>2022-09-05T07:51:39.000Z</time>
      </trkpt>
      <trkpt lat="49.86767" lon="4.75607">
        <ele>283</ele>
        <time>2022-09-05T07:51:40.000Z</time>
      </trkpt>
      <trkpt lat="49.86767" lon="4.75608">
        <ele>283</ele>
        <time>2022-09-05T07:51:41.000Z</time>
      </trkpt>
      <trkpt lat="49.86767" lon="4.75608">
        <ele>283</ele>
        <time>2022-09-05T07:51:42.000Z</time>
      </trkpt>
      <trkpt lat="49.86767" lon="4.75609">
        <ele>283</ele>
        <time>2022-09-05T07:51:43.000Z</time>
      </trkpt>
      <trkpt lat="49.86767" lon="4.7561">
        <ele>283</ele>
        <time>2022-09-05T07:51:44.000Z</time>
      </trkpt>
      <trkpt lat="49.86767" lon="4.75611">
        <ele>283</ele>
        <time>2022-09-05T07:51:45.000Z</time>
      </trkpt>
      <trkpt lat="49.86766" lon="4.75611">
        <ele>283</ele>
        <time>2022-09-05T07:51:46.000Z</time>
      </trkpt>
      <trkpt lat="49.86766" lon="4.75612">
        <ele>283</ele>
        <time>2022-09-05T07:51:47.000Z</time>
      </trkpt>
      <trkpt lat="49.86766" lon="4.75612">
        <ele>283</ele>
        <time>2022-09-05T07:51:48.000Z</time>
      </trkpt>
      <trkpt lat="49.86766" lon="4.75613">
        <ele>283</ele>
        <time>2022-09-05T07:51:49.000Z</time>
      </trkpt>
      <trkpt lat="49.86766" lon="4.75614">
        <ele>283</ele>
        <time>2022-09-05T07:51:50.000Z</time>
      </trkpt>
      <trkpt lat="49.86767" lon="4.75615">
        <ele>283</ele>
        <time>2022-09-05T07:51:51.000Z</time>
      </trkpt>
      <trkpt lat="49.86768" lon="4.75616">
        <ele>283</ele>
        <time>2022-09-05T07:51:52.000Z</time>
      </trkpt>
      <trkpt lat="49.86768" lon="4.75617">
        <ele>283</ele>
        <time>2022-09-05T07:51:53.000Z</time>
      </trkpt>
      <trkpt lat="49.86769" lon="4.75618">
        <ele>283</ele>
        <time>2022-09-05T07:51:54.000Z</time>
      </trkpt>
      <trkpt lat="49.86769" lon="4.75618">
        <ele>283</ele>
        <time>2022-09-05T07:51:55.000Z</time>
      </trkpt>
      <trkpt lat="49.8677" lon="4.75619">
        <ele>283</ele>
        <time>2022-09-05T07:51:56.000Z</time>
      </trkpt>
      <trkpt lat="49.8677" lon="4.7562">
        <ele>283</ele>
        <time>2022-09-05T07:51:57.000Z</time>
      </trkpt>
      <trkpt lat="49.86771" lon="4.7562">
        <ele>283</ele>
        <time>2022-09-05T07:51:58.000Z</time>
      </trkpt>
      <trkpt lat="49.86771" lon="4.7562">
        <ele>283</ele>
        <time>2022-09-05T07:51:59.000Z</time>
      </trkpt>
      <trkpt lat="49.86772" lon="4.75621">
        <ele>283</ele>
        <time>2022-09-05T07:52:00.000Z</time>
      </trkpt>
      <trkpt lat="49.86772" lon="4.75621">
        <ele>283</ele>
        <time>2022-09-05T07:52:01.000Z</time>
      </trkpt>
      <trkpt lat="49.86773" lon="4.75621">
        <ele>283</ele>
        <time>2022-09-05T07:52:02.000Z</time>
      </trkpt>
      <trkpt lat="49.86774" lon="4.75622">
        <ele>284</ele>
        <time>2022-09-05T07:52:03.000Z</time>
      </trkpt>
      <trkpt lat="49.86774" lon="4.75622">
        <ele>284</ele>
        <time>2022-09-05T07:52:04.000Z</time>
      </trkpt>
      <trkpt lat="49.86774" lon="4.75622">
        <ele>284</ele>
        <time>2022-09-05T07:52:05.000Z</time>
      </trkpt>
      <trkpt lat="49.86775" lon="4.75622">
        <ele>284</ele>
        <time>2022-09-05T07:52:06.000Z</time>
      </trkpt>
      <trkpt lat="49.86775" lon="4.75622">
        <ele>284</ele>
        <time>2022-09-05T07:52:07.000Z</time>
      </trkpt>
      <trkpt lat="49.86775" lon="4.75622">
        <ele>284</ele>
        <time>2022-09-05T07:52:08.000Z</time>
      </trkpt>
      <trkpt lat="49.86776" lon="4.75622">
        <ele>284</ele>
        <time>2022-09-05T07:52:09.000Z</time>
      </trkpt>
      <trkpt lat="49.86776" lon="4.75624">
        <ele>284</ele>
        <time>2022-09-05T07:52:10.000Z</time>
      </trkpt>
      <trkpt lat="49.86776" lon="4.75624">
        <ele>284</ele>
        <time>2022-09-05T07:52:11.000Z</time>
      </trkpt>
      <trkpt lat="49.86776" lon="4.75624">
        <ele>284</ele>
        <time>2022-09-05T07:52:12.000Z</time>
      </trkpt>
      <trkpt lat="49.86776" lon="4.75624">
        <ele>284</ele>
        <time>2022-09-05T07:52:13.000Z</time>
      </trkpt>
      <trkpt lat="49.86776" lon="4.75624">
        <ele>284</ele>
        <time>2022-09-05T07:52:14.000Z</time>
      </trkpt>
      <trkpt lat="49.86777" lon="4.75624">
        <ele>284</ele>
        <time>2022-09-05T07:52:15.000Z</time>
      </trkpt>
      <trkpt lat="49.86777" lon="4.75624">
        <ele>284</ele>
        <time>2022-09-05T07:52:16.000Z</time>
      </trkpt>
      <trkpt lat="49.86777" lon="4.75625">
        <ele>284</ele>
        <time>2022-09-05T07:52:17.000Z</time>
      </trkpt>
      <trkpt lat="49.86777" lon="4.75626">
        <ele>284</ele>
        <time>2022-09-05T07:52:18.000Z</time>
      </trkpt>
      <trkpt lat="49.86777" lon="4.75627">
        <ele>284</ele>
        <time>2022-09-05T07:52:19.000Z</time>
      </trkpt>
      <trkpt lat="49.86777" lon="4.75627">
        <ele>284</ele>
        <time>2022-09-05T07:52:20.000Z</time>
      </trkpt>
      <trkpt lat="49.86777" lon="4.75629">
        <ele>284</ele>
        <time>2022-09-05T07:52:21.000Z</time>
      </trkpt>
      <trkpt lat="49.86778" lon="4.75631">
        <ele>285</ele>
        <time>2022-09-05T07:52:22.000Z</time>
      </trkpt>
      <trkpt lat="49.86778" lon="4.75634">
        <ele>285</ele>
        <time>2022-09-05T07:52:23.000Z</time>
      </trkpt>
      <trkpt lat="49.86778" lon="4.75637">
        <ele>285</ele>
        <time>2022-09-05T07:52:24.000Z</time>
      </trkpt>
      <trkpt lat="49.86778" lon="4.7564">
        <ele>285</ele>
        <time>2022-09-05T07:52:25.000Z</time>
      </trkpt>
      <trkpt lat="49.86778" lon="4.75643">
        <ele>285</ele>
        <time>2022-09-05T07:52:26.000Z</time>
      </trkpt>
      <trkpt lat="49.86778" lon="4.75646">
        <ele>285</ele>
        <time>2022-09-05T07:52:27.000Z</time>
      </trkpt>
      <trkpt lat="49.86779" lon="4.75651">
        <ele>285</ele>
        <time>2022-09-05T07:52:28.000Z</time>
      </trkpt>
      <trkpt lat="49.86779" lon="4.75655">
        <ele>285</ele>
        <time>2022-09-05T07:52:29.000Z</time>
      </trkpt>
      <trkpt lat="49.8678" lon="4.7566">
        <ele>285</ele>
        <time>2022-09-05T07:52:30.000Z</time>
      </trkpt>
      <trkpt lat="49.86781" lon="4.75665">
        <ele>285</ele>
        <time>2022-09-05T07:52:31.000Z</time>
      </trkpt>
      <trkpt lat="49.86781" lon="4.7567">
        <ele>285</ele>
        <time>2022-09-05T07:52:32.000Z</time>
      </trkpt>
      <trkpt lat="49.86782" lon="4.75674">
        <ele>285</ele>
        <time>2022-09-05T07:52:33.000Z</time>
      </trkpt>
      <trkpt lat="49.86783" lon="4.75679">
        <ele>285</ele>
        <time>2022-09-05T07:52:34.000Z</time>
      </trkpt>
      <trkpt lat="49.86784" lon="4.75684">
        <ele>285</ele>
        <time>2022-09-05T07:52:35.000Z</time>
      </trkpt>
      <trkpt lat="49.86784" lon="4.75688">
        <ele>285</ele>
        <time>2022-09-05T07:52:36.000Z</time>
      </trkpt>
      <trkpt lat="49.86784" lon="4.75692">
        <ele>285</ele>
        <time>2022-09-05T07:52:37.000Z</time>
      </trkpt>
      <trkpt lat="49.86784" lon="4.75697">
        <ele>285</ele>
        <time>2022-09-05T07:52:38.000Z</time>
      </trkpt>
      <trkpt lat="49.86784" lon="4.75702">
        <ele>285</ele>
        <time>2022-09-05T07:52:39.000Z</time>
      </trkpt>
      <trkpt lat="49.86784" lon="4.75707">
        <ele>284</ele>
        <time>2022-09-05T07:52:40.000Z</time>
      </trkpt>
      <trkpt lat="49.86784" lon="4.75711">
        <ele>284</ele>
        <time>2022-09-05T07:52:41.000Z</time>
      </trkpt>
      <trkpt lat="49.86785" lon="4.75712">
        <ele>284</ele>
        <time>2022-09-05T07:52:42.000Z</time>
      </trkpt>
      <trkpt lat="49.86785" lon="4.75712">
        <ele>284</ele>
        <time>2022-09-05T07:52:43.000Z</time>
      </trkpt>
      <trkpt lat="49.86785" lon="4.75712">
        <ele>283</ele>
        <time>2022-09-05T07:52:44.000Z</time>
      </trkpt>
      <trkpt lat="49.86785" lon="4.75712">
        <ele>283</ele>
        <time>2022-09-05T07:52:45.000Z</time>
      </trkpt>
      <trkpt lat="49.86785" lon="4.75712">
        <ele>283</ele>
        <time>2022-09-05T07:52:46.000Z</time>
      </trkpt>
      <trkpt lat="49.86785" lon="4.75712">
        <ele>283</ele>
        <time>2022-09-05T07:52:47.000Z</time>
      </trkpt>
      <trkpt lat="49.86785" lon="4.75713">
        <ele>283</ele>
        <time>2022-09-05T07:52:48.000Z</time>
      </trkpt>
      <trkpt lat="49.86785" lon="4.75713">
        <ele>282</ele>
        <time>2022-09-05T07:52:49.000Z</time>
      </trkpt>
      <trkpt lat="49.86785" lon="4.75713">
        <ele>282</ele>
        <time>2022-09-05T07:52:50.000Z</time>
      </trkpt>
      <trkpt lat="49.86785" lon="4.75712">
        <ele>282</ele>
        <time>2022-09-05T07:52:51.000Z</time>
      </trkpt>
      <trkpt lat="49.86785" lon="4.7571">
        <ele>282</ele>
        <time>2022-09-05T07:52:52.000Z</time>
      </trkpt>
      <trkpt lat="49.86785" lon="4.75709">
        <ele>282</ele>
        <time>2022-09-05T07:52:53.000Z</time>
      </trkpt>
      <trkpt lat="49.86785" lon="4.75707">
        <ele>282</ele>
        <time>2022-09-05T07:52:54.000Z</time>
      </trkpt>
      <trkpt lat="49.86785" lon="4.75706">
        <ele>282</ele>
        <time>2022-09-05T07:52:55.000Z</time>
      </trkpt>
      <trkpt lat="49.86785" lon="4.75706">
        <ele>281</ele>
        <time>2022-09-05T07:52:56.000Z</time>
      </trkpt>
      <trkpt lat="49.86785" lon="4.75705">
        <ele>281</ele>
        <time>2022-09-05T07:52:57.000Z</time>
      </trkpt>
      <trkpt lat="49.86785" lon="4.75705">
        <ele>281</ele>
        <time>2022-09-05T07:52:58.000Z</time>
      </trkpt>
      <trkpt lat="49.86785" lon="4.75704">
        <ele>281</ele>
        <time>2022-09-05T07:52:59.000Z</time>
      </trkpt>
      <trkpt lat="49.86785" lon="4.75704">
        <ele>281</ele>
        <time>2022-09-05T07:53:00.000Z</time>
      </trkpt>
      <trkpt lat="49.86785" lon="4.75704">
        <ele>281</ele>
        <time>2022-09-05T07:53:01.000Z</time>
      </trkpt>
      <trkpt lat="49.86785" lon="4.75703">
        <ele>281</ele>
        <time>2022-09-05T07:53:02.000Z</time>
      </trkpt>
      <trkpt lat="49.86785" lon="4.75703">
        <ele>281</ele>
        <time>2022-09-05T07:53:03.000Z</time>
      </trkpt>
      <trkpt lat="49.86785" lon="4.75703">
        <ele>281</ele>
        <time>2022-09-05T07:53:04.000Z</time>
      </trkpt>
      <trkpt lat="49.86785" lon="4.75703">
        <ele>281</ele>
        <time>2022-09-05T07:53:05.000Z</time>
      </trkpt>
      <trkpt lat="49.86785" lon="4.75702">
        <ele>281</ele>
        <time>2022-09-05T07:53:06.000Z</time>
      </trkpt>
      <trkpt lat="49.86786" lon="4.75701">
        <ele>281</ele>
        <time>2022-09-05T07:53:07.000Z</time>
      </trkpt>
      <trkpt lat="49.86786" lon="4.757">
        <ele>281</ele>
        <time>2022-09-05T07:53:08.000Z</time>
      </trkpt>
      <trkpt lat="49.86787" lon="4.757">
        <ele>281</ele>
        <time>2022-09-05T07:53:09.000Z</time>
      </trkpt>
      <trkpt lat="49.86787" lon="4.75699">
        <ele>281</ele>
        <time>2022-09-05T07:53:10.000Z</time>
      </trkpt>
      <trkpt lat="49.86788" lon="4.75699">
        <ele>281</ele>
        <time>2022-09-05T07:53:11.000Z</time>
      </trkpt>
      <trkpt lat="49.86788" lon="4.75698">
        <ele>281</ele>
        <time>2022-09-05T07:53:12.000Z</time>
      </trkpt>
      <trkpt lat="49.86788" lon="4.75698">
        <ele>281</ele>
        <time>2022-09-05T07:53:13.000Z</time>
      </trkpt>
      <trkpt lat="49.86789" lon="4.75698">
        <ele>281</ele>
        <time>2022-09-05T07:53:14.000Z</time>
      </trkpt>
      <trkpt lat="49.86789" lon="4.75699">
        <ele>282</ele>
        <time>2022-09-05T07:53:15.000Z</time>
      </trkpt>
      <trkpt lat="49.8679" lon="4.75699">
        <ele>282</ele>
        <time>2022-09-05T07:53:16.000Z</time>
      </trkpt>
      <trkpt lat="49.8679" lon="4.75699">
        <ele>282</ele>
        <time>2022-09-05T07:53:17.000Z</time>
      </trkpt>
      <trkpt lat="49.8679" lon="4.75699">
        <ele>282</ele>
        <time>2022-09-05T07:53:18.000Z</time>
      </trkpt>
      <trkpt lat="49.8679" lon="4.75699">
        <ele>282</ele>
        <time>2022-09-05T07:53:19.000Z</time>
      </trkpt>
      <trkpt lat="49.8679" lon="4.75699">
        <ele>282</ele>
        <time>2022-09-05T07:53:20.000Z</time>
      </trkpt>
      <trkpt lat="49.86791" lon="4.75699">
        <ele>282</ele>
        <time>2022-09-05T07:53:21.000Z</time>
      </trkpt>
      <trkpt lat="49.86791" lon="4.75698">
        <ele>282</ele>
        <time>2022-09-05T07:53:22.000Z</time>
      </trkpt>
      <trkpt lat="49.86791" lon="4.75698">
        <ele>282</ele>
        <time>2022-09-05T07:53:23.000Z</time>
      </trkpt>
      <trkpt lat="49.86792" lon="4.75698">
        <ele>282</ele>
        <time>2022-09-05T07:53:24.000Z</time>
      </trkpt>
      <trkpt lat="49.86792" lon="4.75697">
        <ele>283</ele>
        <time>2022-09-05T07:53:25.000Z</time>
      </trkpt>
      <trkpt lat="49.86792" lon="4.75697">
        <ele>283</ele>
        <time>2022-09-05T07:53:26.000Z</time>
      </trkpt>
      <trkpt lat="49.86793" lon="4.75696">
        <ele>283</ele>
        <time>2022-09-05T07:53:27.000Z</time>
      </trkpt>
      <trkpt lat="49.86793" lon="4.75696">
        <ele>283</ele>
        <time>2022-09-05T07:53:28.000Z</time>
      </trkpt>
      <trkpt lat="49.86794" lon="4.75696">
        <ele>283</ele>
        <time>2022-09-05T07:53:29.000Z</time>
      </trkpt>
      <trkpt lat="49.86794" lon="4.75696">
        <ele>284</ele>
        <time>2022-09-05T07:53:30.000Z</time>
      </trkpt>
      <trkpt lat="49.86794" lon="4.75695">
        <ele>284</ele>
        <time>2022-09-05T07:53:31.000Z</time>
      </trkpt>
      <trkpt lat="49.86795" lon="4.75695">
        <ele>284</ele>
        <time>2022-09-05T07:53:32.000Z</time>
      </trkpt>
      <trkpt lat="49.86795" lon="4.75694">
        <ele>285</ele>
        <time>2022-09-05T07:53:33.000Z</time>
      </trkpt>
      <trkpt lat="49.86796" lon="4.75694">
        <ele>285</ele>
        <time>2022-09-05T07:53:34.000Z</time>
      </trkpt>
      <trkpt lat="49.86796" lon="4.75694">
        <ele>285</ele>
        <time>2022-09-05T07:53:35.000Z</time>
      </trkpt>
      <trkpt lat="49.86797" lon="4.75693">
        <ele>286</ele>
        <time>2022-09-05T07:53:36.000Z</time>
      </trkpt>
      <trkpt lat="49.86797" lon="4.75693">
        <ele>286</ele>
        <time>2022-09-05T07:53:37.000Z</time>
      </trkpt>
      <trkpt lat="49.86798" lon="4.75693">
        <ele>286</ele>
        <time>2022-09-05T07:53:38.000Z</time>
      </trkpt>
      <trkpt lat="49.86798" lon="4.75693">
        <ele>286</ele>
        <time>2022-09-05T07:53:39.000Z</time>
      </trkpt>
      <trkpt lat="49.86799" lon="4.75692">
        <ele>287</ele>
        <time>2022-09-05T07:53:40.000Z</time>
      </trkpt>
      <trkpt lat="49.86799" lon="4.75692">
        <ele>287</ele>
        <time>2022-09-05T07:53:41.000Z</time>
      </trkpt>
      <trkpt lat="49.868" lon="4.75692">
        <ele>287</ele>
        <time>2022-09-05T07:53:42.000Z</time>
      </trkpt>
      <trkpt lat="49.86801" lon="4.75692">
        <ele>287</ele>
        <time>2022-09-05T07:53:43.000Z</time>
      </trkpt>
      <trkpt lat="49.86802" lon="4.75691">
        <ele>287</ele>
        <time>2022-09-05T07:53:44.000Z</time>
      </trkpt>
      <trkpt lat="49.86802" lon="4.75691">
        <ele>287</ele>
        <time>2022-09-05T07:53:45.000Z</time>
      </trkpt>
      <trkpt lat="49.86803" lon="4.7569">
        <ele>288</ele>
        <time>2022-09-05T07:53:46.000Z</time>
      </trkpt>
      <trkpt lat="49.86804" lon="4.7569">
        <ele>288</ele>
        <time>2022-09-05T07:53:47.000Z</time>
      </trkpt>
      <trkpt lat="49.86805" lon="4.7569">
        <ele>288</ele>
        <time>2022-09-05T07:53:48.000Z</time>
      </trkpt>
      <trkpt lat="49.86805" lon="4.75689">
        <ele>288</ele>
        <time>2022-09-05T07:53:49.000Z</time>
      </trkpt>
      <trkpt lat="49.86806" lon="4.75689">
        <ele>289</ele>
        <time>2022-09-05T07:53:50.000Z</time>
      </trkpt>
      <trkpt lat="49.86807" lon="4.75688">
        <ele>289</ele>
        <time>2022-09-05T07:53:51.000Z</time>
      </trkpt>
      <trkpt lat="49.86807" lon="4.75688">
        <ele>290</ele>
        <time>2022-09-05T07:53:52.000Z</time>
      </trkpt>
      <trkpt lat="49.86808" lon="4.75688">
        <ele>290</ele>
        <time>2022-09-05T07:53:53.000Z</time>
      </trkpt>
      <trkpt lat="49.86808" lon="4.75688">
        <ele>290</ele>
        <time>2022-09-05T07:53:54.000Z</time>
      </trkpt>
      <trkpt lat="49.86809" lon="4.75687">
        <ele>291</ele>
        <time>2022-09-05T07:53:55.000Z</time>
      </trkpt>
      <trkpt lat="49.8681" lon="4.75687">
        <ele>291</ele>
        <time>2022-09-05T07:53:56.000Z</time>
      </trkpt>
      <trkpt lat="49.8681" lon="4.75687">
        <ele>291</ele>
        <time>2022-09-05T07:53:57.000Z</time>
      </trkpt>
      <trkpt lat="49.86811" lon="4.75686">
        <ele>292</ele>
        <time>2022-09-05T07:53:58.000Z</time>
      </trkpt>
      <trkpt lat="49.86811" lon="4.75686">
        <ele>292</ele>
        <time>2022-09-05T07:53:59.000Z</time>
      </trkpt>
      <trkpt lat="49.86812" lon="4.75686">
        <ele>292</ele>
        <time>2022-09-05T07:54:00.000Z</time>
      </trkpt>
      <trkpt lat="49.86813" lon="4.75686">
        <ele>293</ele>
        <time>2022-09-05T07:54:01.000Z</time>
      </trkpt>
      <trkpt lat="49.86814" lon="4.75685">
        <ele>293</ele>
        <time>2022-09-05T07:54:02.000Z</time>
      </trkpt>
      <trkpt lat="49.86814" lon="4.75685">
        <ele>293</ele>
        <time>2022-09-05T07:54:03.000Z</time>
      </trkpt>
      <trkpt lat="49.86815" lon="4.75685">
        <ele>293</ele>
        <time>2022-09-05T07:54:04.000Z</time>
      </trkpt>
      <trkpt lat="49.86815" lon="4.75685">
        <ele>294</ele>
        <time>2022-09-05T07:54:05.000Z</time>
      </trkpt>
      <trkpt lat="49.86815" lon="4.75685">
        <ele>294</ele>
        <time>2022-09-05T07:54:06.000Z</time>
      </trkpt>
      <trkpt lat="49.86815" lon="4.75685">
        <ele>294</ele>
        <time>2022-09-05T07:54:07.000Z</time>
      </trkpt>
      <trkpt lat="49.86816" lon="4.75684">
        <ele>294</ele>
        <time>2022-09-05T07:54:08.000Z</time>
      </trkpt>
      <trkpt lat="49.86816" lon="4.75684">
        <ele>294</ele>
        <time>2022-09-05T07:54:09.000Z</time>
      </trkpt>
      <trkpt lat="49.86817" lon="4.75684">
        <ele>294</ele>
        <time>2022-09-05T07:54:10.000Z</time>
      </trkpt>
      <trkpt lat="49.86818" lon="4.75684">
        <ele>295</ele>
        <time>2022-09-05T07:54:11.000Z</time>
      </trkpt>
      <trkpt lat="49.86819" lon="4.75684">
        <ele>295</ele>
        <time>2022-09-05T07:54:12.000Z</time>
      </trkpt>
      <trkpt lat="49.86819" lon="4.75684">
        <ele>295</ele>
        <time>2022-09-05T07:54:13.000Z</time>
      </trkpt>
      <trkpt lat="49.86819" lon="4.75683">
        <ele>295</ele>
        <time>2022-09-05T07:54:14.000Z</time>
      </trkpt>
      <trkpt lat="49.86819" lon="4.75683">
        <ele>296</ele>
        <time>2022-09-05T07:54:15.000Z</time>
      </trkpt>
      <trkpt lat="49.8682" lon="4.75683">
        <ele>296</ele>
        <time>2022-09-05T07:54:16.000Z</time>
      </trkpt>
      <trkpt lat="49.8682" lon="4.75683">
        <ele>296</ele>
        <time>2022-09-05T07:54:17.000Z</time>
      </trkpt>
      <trkpt lat="49.8682" lon="4.75682">
        <ele>296</ele>
        <time>2022-09-05T07:54:18.000Z</time>
      </trkpt>
      <trkpt lat="49.86821" lon="4.75682">
        <ele>297</ele>
        <time>2022-09-05T07:54:19.000Z</time>
      </trkpt>
      <trkpt lat="49.86821" lon="4.75681">
        <ele>297</ele>
        <time>2022-09-05T07:54:20.000Z</time>
      </trkpt>
      <trkpt lat="49.86821" lon="4.75681">
        <ele>297</ele>
        <time>2022-09-05T07:54:21.000Z</time>
      </trkpt>
      <trkpt lat="49.86821" lon="4.7568">
        <ele>298</ele>
        <time>2022-09-05T07:54:22.000Z</time>
      </trkpt>
      <trkpt lat="49.86822" lon="4.75679">
        <ele>298</ele>
        <time>2022-09-05T07:54:23.000Z</time>
      </trkpt>
      <trkpt lat="49.86821" lon="4.7568">
        <ele>298</ele>
        <time>2022-09-05T07:54:24.000Z</time>
      </trkpt>
      <trkpt lat="49.86821" lon="4.7568">
        <ele>298</ele>
        <time>2022-09-05T07:54:25.000Z</time>
      </trkpt>
      <trkpt lat="49.86821" lon="4.7568">
        <ele>298</ele>
        <time>2022-09-05T07:54:26.000Z</time>
      </trkpt>
      <trkpt lat="49.86822" lon="4.75679">
        <ele>298</ele>
        <time>2022-09-05T07:54:27.000Z</time>
      </trkpt>
      <trkpt lat="49.86822" lon="4.75679">
        <ele>299</ele>
        <time>2022-09-05T07:54:28.000Z</time>
      </trkpt>
      <trkpt lat="49.86822" lon="4.75678">
        <ele>299</ele>
        <time>2022-09-05T07:54:29.000Z</time>
      </trkpt>
      <trkpt lat="49.86823" lon="4.75678">
        <ele>299</ele>
        <time>2022-09-05T07:54:30.000Z</time>
      </trkpt>
      <trkpt lat="49.86823" lon="4.75677">
        <ele>299</ele>
        <time>2022-09-05T07:54:31.000Z</time>
      </trkpt>
      <trkpt lat="49.86824" lon="4.75677">
        <ele>299</ele>
        <time>2022-09-05T07:54:32.000Z</time>
      </trkpt>
      <trkpt lat="49.86824" lon="4.75677">
        <ele>299</ele>
        <time>2022-09-05T07:54:33.000Z</time>
      </trkpt>
      <trkpt lat="49.86825" lon="4.75677">
        <ele>299</ele>
        <time>2022-09-05T07:54:34.000Z</time>
      </trkpt>
      <trkpt lat="49.86825" lon="4.75676">
        <ele>299</ele>
        <time>2022-09-05T07:54:35.000Z</time>
      </trkpt>
      <trkpt lat="49.86825" lon="4.75676">
        <ele>300</ele>
        <time>2022-09-05T07:54:36.000Z</time>
      </trkpt>
      <trkpt lat="49.86826" lon="4.75676">
        <ele>300</ele>
        <time>2022-09-05T07:54:37.000Z</time>
      </trkpt>
      <trkpt lat="49.86826" lon="4.75675">
        <ele>300</ele>
        <time>2022-09-05T07:54:38.000Z</time>
      </trkpt>
      <trkpt lat="49.86826" lon="4.75675">
        <ele>300</ele>
        <time>2022-09-05T07:54:39.000Z</time>
      </trkpt>
      <trkpt lat="49.86826" lon="4.75674">
        <ele>300</ele>
        <time>2022-09-05T07:54:40.000Z</time>
      </trkpt>
      <trkpt lat="49.86826" lon="4.75674">
        <ele>300</ele>
        <time>2022-09-05T07:54:41.000Z</time>
      </trkpt>
      <trkpt lat="49.86827" lon="4.75674">
        <ele>300</ele>
        <time>2022-09-05T07:54:42.000Z</time>
      </trkpt>
      <trkpt lat="49.86828" lon="4.75673">
        <ele>300</ele>
        <time>2022-09-05T07:54:43.000Z</time>
      </trkpt>
      <trkpt lat="49.86828" lon="4.75673">
        <ele>300</ele>
        <time>2022-09-05T07:54:44.000Z</time>
      </trkpt>
      <trkpt lat="49.86828" lon="4.75672">
        <ele>301</ele>
        <time>2022-09-05T07:54:45.000Z</time>
      </trkpt>
      <trkpt lat="49.86829" lon="4.75672">
        <ele>301</ele>
        <time>2022-09-05T07:54:46.000Z</time>
      </trkpt>
      <trkpt lat="49.86829" lon="4.75671">
        <ele>301</ele>
        <time>2022-09-05T07:54:47.000Z</time>
      </trkpt>
      <trkpt lat="49.8683" lon="4.75671">
        <ele>301</ele>
        <time>2022-09-05T07:54:48.000Z</time>
      </trkpt>
      <trkpt lat="49.8683" lon="4.7567">
        <ele>302</ele>
        <time>2022-09-05T07:54:49.000Z</time>
      </trkpt>
      <trkpt lat="49.86831" lon="4.7567">
        <ele>302</ele>
        <time>2022-09-05T07:54:50.000Z</time>
      </trkpt>
      <trkpt lat="49.86831" lon="4.7567">
        <ele>302</ele>
        <time>2022-09-05T07:54:51.000Z</time>
      </trkpt>
      <trkpt lat="49.86831" lon="4.7567">
        <ele>303</ele>
        <time>2022-09-05T07:54:52.000Z</time>
      </trkpt>
      <trkpt lat="49.86832" lon="4.7567">
        <ele>303</ele>
        <time>2022-09-05T07:54:53.000Z</time>
      </trkpt>
      <trkpt lat="49.86833" lon="4.7567">
        <ele>303</ele>
        <time>2022-09-05T07:54:54.000Z</time>
      </trkpt>
      <trkpt lat="49.86833" lon="4.75669">
        <ele>303</ele>
        <time>2022-09-05T07:54:55.000Z</time>
      </trkpt>
      <trkpt lat="49.86833" lon="4.75669">
        <ele>304</ele>
        <time>2022-09-05T07:54:56.000Z</time>
      </trkpt>
      <trkpt lat="49.86834" lon="4.75668">
        <ele>304</ele>
        <time>2022-09-05T07:54:57.000Z</time>
      </trkpt>
      <trkpt lat="49.86835" lon="4.75668">
        <ele>304</ele>
        <time>2022-09-05T07:54:58.000Z</time>
      </trkpt>
      <trkpt lat="49.86835" lon="4.75668">
        <ele>305</ele>
        <time>2022-09-05T07:54:59.000Z</time>
      </trkpt>
      <trkpt lat="49.86836" lon="4.75667">
        <ele>305</ele>
        <time>2022-09-05T07:55:00.000Z</time>
      </trkpt>
      <trkpt lat="49.86836" lon="4.75668">
        <ele>305</ele>
        <time>2022-09-05T07:55:01.000Z</time>
      </trkpt>
      <trkpt lat="49.86837" lon="4.75667">
        <ele>305</ele>
        <time>2022-09-05T07:55:02.000Z</time>
      </trkpt>
      <trkpt lat="49.86838" lon="4.75668">
        <ele>306</ele>
        <time>2022-09-05T07:55:03.000Z</time>
      </trkpt>
      <trkpt lat="49.86838" lon="4.75668">
        <ele>306</ele>
        <time>2022-09-05T07:55:04.000Z</time>
      </trkpt>
      <trkpt lat="49.86839" lon="4.75667">
        <ele>306</ele>
        <time>2022-09-05T07:55:05.000Z</time>
      </trkpt>
      <trkpt lat="49.8684" lon="4.75667">
        <ele>307</ele>
        <time>2022-09-05T07:55:06.000Z</time>
      </trkpt>
      <trkpt lat="49.86841" lon="4.75667">
        <ele>307</ele>
        <time>2022-09-05T07:55:07.000Z</time>
      </trkpt>
      <trkpt lat="49.86842" lon="4.75667">
        <ele>307</ele>
        <time>2022-09-05T07:55:08.000Z</time>
      </trkpt>
      <trkpt lat="49.86843" lon="4.75667">
        <ele>307</ele>
        <time>2022-09-05T07:55:09.000Z</time>
      </trkpt>
      <trkpt lat="49.86843" lon="4.75666">
        <ele>308</ele>
        <time>2022-09-05T07:55:10.000Z</time>
      </trkpt>
      <trkpt lat="49.86844" lon="4.75666">
        <ele>308</ele>
        <time>2022-09-05T07:55:11.000Z</time>
      </trkpt>
      <trkpt lat="49.86845" lon="4.75666">
        <ele>308</ele>
        <time>2022-09-05T07:55:12.000Z</time>
      </trkpt>
      <trkpt lat="49.86846" lon="4.75665">
        <ele>308</ele>
        <time>2022-09-05T07:55:13.000Z</time>
      </trkpt>
      <trkpt lat="49.86847" lon="4.75665">
        <ele>309</ele>
        <time>2022-09-05T07:55:14.000Z</time>
      </trkpt>
      <trkpt lat="49.86848" lon="4.75665">
        <ele>309</ele>
        <time>2022-09-05T07:55:15.000Z</time>
      </trkpt>
      <trkpt lat="49.86848" lon="4.75664">
        <ele>309</ele>
        <time>2022-09-05T07:55:16.000Z</time>
      </trkpt>
      <trkpt lat="49.86849" lon="4.75664">
        <ele>309</ele>
        <time>2022-09-05T07:55:17.000Z</time>
      </trkpt>
      <trkpt lat="49.8685" lon="4.75663">
        <ele>309</ele>
        <time>2022-09-05T07:55:18.000Z</time>
      </trkpt>
      <trkpt lat="49.8685" lon="4.75663">
        <ele>310</ele>
        <time>2022-09-05T07:55:19.000Z</time>
      </trkpt>
      <trkpt lat="49.86851" lon="4.75663">
        <ele>310</ele>
        <time>2022-09-05T07:55:20.000Z</time>
      </trkpt>
      <trkpt lat="49.86851" lon="4.75662">
        <ele>310</ele>
        <time>2022-09-05T07:55:21.000Z</time>
      </trkpt>
      <trkpt lat="49.86852" lon="4.75662">
        <ele>310</ele>
        <time>2022-09-05T07:55:22.000Z</time>
      </trkpt>
      <trkpt lat="49.86853" lon="4.75662">
        <ele>310</ele>
        <time>2022-09-05T07:55:23.000Z</time>
      </trkpt>
      <trkpt lat="49.86853" lon="4.75662">
        <ele>311</ele>
        <time>2022-09-05T07:55:24.000Z</time>
      </trkpt>
      <trkpt lat="49.86853" lon="4.75662">
        <ele>311</ele>
        <time>2022-09-05T07:55:25.000Z</time>
      </trkpt>
      <trkpt lat="49.86854" lon="4.75661">
        <ele>311</ele>
        <time>2022-09-05T07:55:26.000Z</time>
      </trkpt>
      <trkpt lat="49.86854" lon="4.75661">
        <ele>311</ele>
        <time>2022-09-05T07:55:27.000Z</time>
      </trkpt>
      <trkpt lat="49.86855" lon="4.75661">
        <ele>311</ele>
        <time>2022-09-05T07:55:28.000Z</time>
      </trkpt>
      <trkpt lat="49.86855" lon="4.75661">
        <ele>311</ele>
        <time>2022-09-05T07:55:29.000Z</time>
      </trkpt>
      <trkpt lat="49.86856" lon="4.75661">
        <ele>312</ele>
        <time>2022-09-05T07:55:30.000Z</time>
      </trkpt>
      <trkpt lat="49.86856" lon="4.75661">
        <ele>312</ele>
        <time>2022-09-05T07:55:31.000Z</time>
      </trkpt>
      <trkpt lat="49.86857" lon="4.75661">
        <ele>312</ele>
        <time>2022-09-05T07:55:32.000Z</time>
      </trkpt>
      <trkpt lat="49.86857" lon="4.75661">
        <ele>312</ele>
        <time>2022-09-05T07:55:33.000Z</time>
      </trkpt>
      <trkpt lat="49.86858" lon="4.75661">
        <ele>312</ele>
        <time>2022-09-05T07:55:34.000Z</time>
      </trkpt>
      <trkpt lat="49.86859" lon="4.7566">
        <ele>312</ele>
        <time>2022-09-05T07:55:35.000Z</time>
      </trkpt>
      <trkpt lat="49.86859" lon="4.7566">
        <ele>312</ele>
        <time>2022-09-05T07:55:36.000Z</time>
      </trkpt>
      <trkpt lat="49.8686" lon="4.7566">
        <ele>312</ele>
        <time>2022-09-05T07:55:37.000Z</time>
      </trkpt>
      <trkpt lat="49.86861" lon="4.75661">
        <ele>312</ele>
        <time>2022-09-05T07:55:38.000Z</time>
      </trkpt>
      <trkpt lat="49.86862" lon="4.75661">
        <ele>312</ele>
        <time>2022-09-05T07:55:39.000Z</time>
      </trkpt>
      <trkpt lat="49.86863" lon="4.75661">
        <ele>313</ele>
        <time>2022-09-05T07:55:40.000Z</time>
      </trkpt>
      <trkpt lat="49.86863" lon="4.75661">
        <ele>313</ele>
        <time>2022-09-05T07:55:41.000Z</time>
      </trkpt>
      <trkpt lat="49.86864" lon="4.75662">
        <ele>313</ele>
        <time>2022-09-05T07:55:42.000Z</time>
      </trkpt>
      <trkpt lat="49.86864" lon="4.75663">
        <ele>313</ele>
        <time>2022-09-05T07:55:43.000Z</time>
      </trkpt>
      <trkpt lat="49.86865" lon="4.75664">
        <ele>313</ele>
        <time>2022-09-05T07:55:44.000Z</time>
      </trkpt>
      <trkpt lat="49.86865" lon="4.75664">
        <ele>313</ele>
        <time>2022-09-05T07:55:45.000Z</time>
      </trkpt>
      <trkpt lat="49.86865" lon="4.75664">
        <ele>313</ele>
        <time>2022-09-05T07:55:46.000Z</time>
      </trkpt>
      <trkpt lat="49.86866" lon="4.75665">
        <ele>313</ele>
        <time>2022-09-05T07:55:47.000Z</time>
      </trkpt>
      <trkpt lat="49.86866" lon="4.75666">
        <ele>313</ele>
        <time>2022-09-05T07:55:48.000Z</time>
      </trkpt>
      <trkpt lat="49.86866" lon="4.75668">
        <ele>313</ele>
        <time>2022-09-05T07:55:49.000Z</time>
      </trkpt>
      <trkpt lat="49.86866" lon="4.7567">
        <ele>313</ele>
        <time>2022-09-05T07:55:50.000Z</time>
      </trkpt>
      <trkpt lat="49.86866" lon="4.75673">
        <ele>313</ele>
        <time>2022-09-05T07:55:51.000Z</time>
      </trkpt>
      <trkpt lat="49.86866" lon="4.75676">
        <ele>313</ele>
        <time>2022-09-05T07:55:52.000Z</time>
      </trkpt>
      <trkpt lat="49.86866" lon="4.75679">
        <ele>313</ele>
        <time>2022-09-05T07:55:53.000Z</time>
      </trkpt>
      <trkpt lat="49.86867" lon="4.75682">
        <ele>313</ele>
        <time>2022-09-05T07:55:54.000Z</time>
      </trkpt>
      <trkpt lat="49.86866" lon="4.75685">
        <ele>312</ele>
        <time>2022-09-05T07:55:55.000Z</time>
      </trkpt>
      <trkpt lat="49.86866" lon="4.75688">
        <ele>312</ele>
        <time>2022-09-05T07:55:56.000Z</time>
      </trkpt>
      <trkpt lat="49.86866" lon="4.75691">
        <ele>312</ele>
        <time>2022-09-05T07:55:57.000Z</time>
      </trkpt>
      <trkpt lat="49.86866" lon="4.75693">
        <ele>312</ele>
        <time>2022-09-05T07:55:58.000Z</time>
      </trkpt>
      <trkpt lat="49.86866" lon="4.75696">
        <ele>312</ele>
        <time>2022-09-05T07:55:59.000Z</time>
      </trkpt>
      <trkpt lat="49.86866" lon="4.75699">
        <ele>312</ele>
        <time>2022-09-05T07:56:00.000Z</time>
      </trkpt>
      <trkpt lat="49.86866" lon="4.75702">
        <ele>312</ele>
        <time>2022-09-05T07:56:01.000Z</time>
      </trkpt>
      <trkpt lat="49.86866" lon="4.75705">
        <ele>312</ele>
        <time>2022-09-05T07:56:02.000Z</time>
      </trkpt>
      <trkpt lat="49.86866" lon="4.75707">
        <ele>311</ele>
        <time>2022-09-05T07:56:03.000Z</time>
      </trkpt>
      <trkpt lat="49.86866" lon="4.7571">
        <ele>311</ele>
        <time>2022-09-05T07:56:04.000Z</time>
      </trkpt>
      <trkpt lat="49.86866" lon="4.75713">
        <ele>311</ele>
        <time>2022-09-05T07:56:05.000Z</time>
      </trkpt>
      <trkpt lat="49.86865" lon="4.75717">
        <ele>311</ele>
        <time>2022-09-05T07:56:06.000Z</time>
      </trkpt>
      <trkpt lat="49.86865" lon="4.75719">
        <ele>311</ele>
        <time>2022-09-05T07:56:07.000Z</time>
      </trkpt>
      <trkpt lat="49.86865" lon="4.75722">
        <ele>311</ele>
        <time>2022-09-05T07:56:08.000Z</time>
      </trkpt>
      <trkpt lat="49.86866" lon="4.75725">
        <ele>311</ele>
        <time>2022-09-05T07:56:09.000Z</time>
      </trkpt>
      <trkpt lat="49.86866" lon="4.75729">
        <ele>311</ele>
        <time>2022-09-05T07:56:10.000Z</time>
      </trkpt>
      <trkpt lat="49.86866" lon="4.75733">
        <ele>311</ele>
        <time>2022-09-05T07:56:11.000Z</time>
      </trkpt>
      <trkpt lat="49.86867" lon="4.75737">
        <ele>311</ele>
        <time>2022-09-05T07:56:12.000Z</time>
      </trkpt>
      <trkpt lat="49.86868" lon="4.7574">
        <ele>311</ele>
        <time>2022-09-05T07:56:13.000Z</time>
      </trkpt>
      <trkpt lat="49.86869" lon="4.75743">
        <ele>311</ele>
        <time>2022-09-05T07:56:14.000Z</time>
      </trkpt>
      <trkpt lat="49.8687" lon="4.75745">
        <ele>311</ele>
        <time>2022-09-05T07:56:15.000Z</time>
      </trkpt>
      <trkpt lat="49.86871" lon="4.75747">
        <ele>311</ele>
        <time>2022-09-05T07:56:16.000Z</time>
      </trkpt>
      <trkpt lat="49.86871" lon="4.75749">
        <ele>311</ele>
        <time>2022-09-05T07:56:17.000Z</time>
      </trkpt>
      <trkpt lat="49.86873" lon="4.75752">
        <ele>311</ele>
        <time>2022-09-05T07:56:18.000Z</time>
      </trkpt>
      <trkpt lat="49.86874" lon="4.75754">
        <ele>311</ele>
        <time>2022-09-05T07:56:19.000Z</time>
      </trkpt>
      <trkpt lat="49.86875" lon="4.75756">
        <ele>311</ele>
        <time>2022-09-05T07:56:20.000Z</time>
      </trkpt>
      <trkpt lat="49.86875" lon="4.75758">
        <ele>311</ele>
        <time>2022-09-05T07:56:21.000Z</time>
      </trkpt>
      <trkpt lat="49.86876" lon="4.75759">
        <ele>311</ele>
        <time>2022-09-05T07:56:22.000Z</time>
      </trkpt>
      <trkpt lat="49.86875" lon="4.75759">
        <ele>311</ele>
        <time>2022-09-05T07:56:23.000Z</time>
      </trkpt>
      <trkpt lat="49.86875" lon="4.7576">
        <ele>311</ele>
        <time>2022-09-05T07:56:24.000Z</time>
      </trkpt>
      <trkpt lat="49.86876" lon="4.7576">
        <ele>311</ele>
        <time>2022-09-05T07:56:25.000Z</time>
      </trkpt>
      <trkpt lat="49.86876" lon="4.75761">
        <ele>311</ele>
        <time>2022-09-05T07:56:26.000Z</time>
      </trkpt>
      <trkpt lat="49.86876" lon="4.75761">
        <ele>311</ele>
        <time>2022-09-05T07:56:27.000Z</time>
      </trkpt>
      <trkpt lat="49.86876" lon="4.75762">
        <ele>311</ele>
        <time>2022-09-05T07:56:28.000Z</time>
      </trkpt>
      <trkpt lat="49.86877" lon="4.75763">
        <ele>311</ele>
        <time>2022-09-05T07:56:29.000Z</time>
      </trkpt>
      <trkpt lat="49.86877" lon="4.75764">
        <ele>311</ele>
        <time>2022-09-05T07:56:30.000Z</time>
      </trkpt>
      <trkpt lat="49.86878" lon="4.75765">
        <ele>311</ele>
        <time>2022-09-05T07:56:31.000Z</time>
      </trkpt>
      <trkpt lat="49.86878" lon="4.75767">
        <ele>311</ele>
        <time>2022-09-05T07:56:32.000Z</time>
      </trkpt>
      <trkpt lat="49.86879" lon="4.75768">
        <ele>311</ele>
        <time>2022-09-05T07:56:33.000Z</time>
      </trkpt>
      <trkpt lat="49.8688" lon="4.7577">
        <ele>311</ele>
        <time>2022-09-05T07:56:34.000Z</time>
      </trkpt>
      <trkpt lat="49.86881" lon="4.75772">
        <ele>311</ele>
        <time>2022-09-05T07:56:35.000Z</time>
      </trkpt>
      <trkpt lat="49.86881" lon="4.75773">
        <ele>311</ele>
        <time>2022-09-05T07:56:36.000Z</time>
      </trkpt>
      <trkpt lat="49.86882" lon="4.75775">
        <ele>311</ele>
        <time>2022-09-05T07:56:37.000Z</time>
      </trkpt>
      <trkpt lat="49.86883" lon="4.75776">
        <ele>311</ele>
        <time>2022-09-05T07:56:38.000Z</time>
      </trkpt>
      <trkpt lat="49.86883" lon="4.75778">
        <ele>311</ele>
        <time>2022-09-05T07:56:39.000Z</time>
      </trkpt>
      <trkpt lat="49.86884" lon="4.7578">
        <ele>312</ele>
        <time>2022-09-05T07:56:40.000Z</time>
      </trkpt>
      <trkpt lat="49.86884" lon="4.75781">
        <ele>312</ele>
        <time>2022-09-05T07:56:41.000Z</time>
      </trkpt>
      <trkpt lat="49.86885" lon="4.75783">
        <ele>312</ele>
        <time>2022-09-05T07:56:42.000Z</time>
      </trkpt>
      <trkpt lat="49.86886" lon="4.75784">
        <ele>312</ele>
        <time>2022-09-05T07:56:43.000Z</time>
      </trkpt>
      <trkpt lat="49.86886" lon="4.75786">
        <ele>312</ele>
        <time>2022-09-05T07:56:44.000Z</time>
      </trkpt>
      <trkpt lat="49.86887" lon="4.75788">
        <ele>312</ele>
        <time>2022-09-05T07:56:45.000Z</time>
      </trkpt>
      <trkpt lat="49.86888" lon="4.75789">
        <ele>312</ele>
        <time>2022-09-05T07:56:46.000Z</time>
      </trkpt>
      <trkpt lat="49.86889" lon="4.75791">
        <ele>313</ele>
        <time>2022-09-05T07:56:47.000Z</time>
      </trkpt>
      <trkpt lat="49.86889" lon="4.75793">
        <ele>313</ele>
        <time>2022-09-05T07:56:48.000Z</time>
      </trkpt>
      <trkpt lat="49.8689" lon="4.75794">
        <ele>313</ele>
        <time>2022-09-05T07:56:49.000Z</time>
      </trkpt>
      <trkpt lat="49.86891" lon="4.75796">
        <ele>313</ele>
        <time>2022-09-05T07:56:50.000Z</time>
      </trkpt>
      <trkpt lat="49.86892" lon="4.75798">
        <ele>313</ele>
        <time>2022-09-05T07:56:51.000Z</time>
      </trkpt>
      <trkpt lat="49.86892" lon="4.75799">
        <ele>313</ele>
        <time>2022-09-05T07:56:52.000Z</time>
      </trkpt>
      <trkpt lat="49.86893" lon="4.758">
        <ele>313</ele>
        <time>2022-09-05T07:56:53.000Z</time>
      </trkpt>
      <trkpt lat="49.86894" lon="4.75801">
        <ele>313</ele>
        <time>2022-09-05T07:56:54.000Z</time>
      </trkpt>
      <trkpt lat="49.86894" lon="4.75802">
        <ele>313</ele>
        <time>2022-09-05T07:56:55.000Z</time>
      </trkpt>
      <trkpt lat="49.86895" lon="4.75804">
        <ele>313</ele>
        <time>2022-09-05T07:56:56.000Z</time>
      </trkpt>
      <trkpt lat="49.86896" lon="4.75805">
        <ele>314</ele>
        <time>2022-09-05T07:56:57.000Z</time>
      </trkpt>
      <trkpt lat="49.86897" lon="4.75807">
        <ele>314</ele>
        <time>2022-09-05T07:56:58.000Z</time>
      </trkpt>
      <trkpt lat="49.86898" lon="4.75809">
        <ele>314</ele>
        <time>2022-09-05T07:56:59.000Z</time>
      </trkpt>
      <trkpt lat="49.86898" lon="4.75811">
        <ele>314</ele>
        <time>2022-09-05T07:57:00.000Z</time>
      </trkpt>
      <trkpt lat="49.86899" lon="4.75812">
        <ele>314</ele>
        <time>2022-09-05T07:57:01.000Z</time>
      </trkpt>
      <trkpt lat="49.869" lon="4.75814">
        <ele>314</ele>
        <time>2022-09-05T07:57:02.000Z</time>
      </trkpt>
      <trkpt lat="49.869" lon="4.75816">
        <ele>314</ele>
        <time>2022-09-05T07:57:03.000Z</time>
      </trkpt>
      <trkpt lat="49.86901" lon="4.75817">
        <ele>314</ele>
        <time>2022-09-05T07:57:04.000Z</time>
      </trkpt>
      <trkpt lat="49.86902" lon="4.75818">
        <ele>315</ele>
        <time>2022-09-05T07:57:05.000Z</time>
      </trkpt>
      <trkpt lat="49.86903" lon="4.7582">
        <ele>315</ele>
        <time>2022-09-05T07:57:06.000Z</time>
      </trkpt>
      <trkpt lat="49.86904" lon="4.75821">
        <ele>315</ele>
        <time>2022-09-05T07:57:07.000Z</time>
      </trkpt>
      <trkpt lat="49.86904" lon="4.75823">
        <ele>315</ele>
        <time>2022-09-05T07:57:08.000Z</time>
      </trkpt>
      <trkpt lat="49.86905" lon="4.75825">
        <ele>315</ele>
        <time>2022-09-05T07:57:09.000Z</time>
      </trkpt>
      <trkpt lat="49.86906" lon="4.75826">
        <ele>315</ele>
        <time>2022-09-05T07:57:10.000Z</time>
      </trkpt>
      <trkpt lat="49.86907" lon="4.75828">
        <ele>315</ele>
        <time>2022-09-05T07:57:11.000Z</time>
      </trkpt>
      <trkpt lat="49.86908" lon="4.75829">
        <ele>316</ele>
        <time>2022-09-05T07:57:12.000Z</time>
      </trkpt>
      <trkpt lat="49.86908" lon="4.75831">
        <ele>316</ele>
        <time>2022-09-05T07:57:13.000Z</time>
      </trkpt>
      <trkpt lat="49.86909" lon="4.75832">
        <ele>316</ele>
        <time>2022-09-05T07:57:14.000Z</time>
      </trkpt>
      <trkpt lat="49.8691" lon="4.75834">
        <ele>316</ele>
        <time>2022-09-05T07:57:15.000Z</time>
      </trkpt>
      <trkpt lat="49.86911" lon="4.75835">
        <ele>316</ele>
        <time>2022-09-05T07:57:16.000Z</time>
      </trkpt>
      <trkpt lat="49.86912" lon="4.75836">
        <ele>316</ele>
        <time>2022-09-05T07:57:17.000Z</time>
      </trkpt>
      <trkpt lat="49.86913" lon="4.75837">
        <ele>317</ele>
        <time>2022-09-05T07:57:18.000Z</time>
      </trkpt>
      <trkpt lat="49.86913" lon="4.75838">
        <ele>317</ele>
        <time>2022-09-05T07:57:19.000Z</time>
      </trkpt>
      <trkpt lat="49.86914" lon="4.75839">
        <ele>317</ele>
        <time>2022-09-05T07:57:20.000Z</time>
      </trkpt>
      <trkpt lat="49.86914" lon="4.75839">
        <ele>317</ele>
        <time>2022-09-05T07:57:21.000Z</time>
      </trkpt>
      <trkpt lat="49.86914" lon="4.75839">
        <ele>317</ele>
        <time>2022-09-05T07:57:22.000Z</time>
      </trkpt>
      <trkpt lat="49.86914" lon="4.75839">
        <ele>317</ele>
        <time>2022-09-05T07:57:23.000Z</time>
      </trkpt>
      <trkpt lat="49.86915" lon="4.7584">
        <ele>317</ele>
        <time>2022-09-05T07:57:24.000Z</time>
      </trkpt>
      <trkpt lat="49.86915" lon="4.75842">
        <ele>317</ele>
        <time>2022-09-05T07:57:25.000Z</time>
      </trkpt>
      <trkpt lat="49.86916" lon="4.75844">
        <ele>317</ele>
        <time>2022-09-05T07:57:26.000Z</time>
      </trkpt>
      <trkpt lat="49.86917" lon="4.75846">
        <ele>317</ele>
        <time>2022-09-05T07:57:27.000Z</time>
      </trkpt>
      <trkpt lat="49.86918" lon="4.75848">
        <ele>318</ele>
        <time>2022-09-05T07:57:28.000Z</time>
      </trkpt>
      <trkpt lat="49.86919" lon="4.7585">
        <ele>318</ele>
        <time>2022-09-05T07:57:29.000Z</time>
      </trkpt>
      <trkpt lat="49.8692" lon="4.75853">
        <ele>318</ele>
        <time>2022-09-05T07:57:30.000Z</time>
      </trkpt>
      <trkpt lat="49.8692" lon="4.75855">
        <ele>318</ele>
        <time>2022-09-05T07:57:31.000Z</time>
      </trkpt>
      <trkpt lat="49.86921" lon="4.75857">
        <ele>318</ele>
        <time>2022-09-05T07:57:32.000Z</time>
      </trkpt>
      <trkpt lat="49.86922" lon="4.75859">
        <ele>318</ele>
        <time>2022-09-05T07:57:33.000Z</time>
      </trkpt>
      <trkpt lat="49.86923" lon="4.75862">
        <ele>318</ele>
        <time>2022-09-05T07:57:34.000Z</time>
      </trkpt>
      <trkpt lat="49.86924" lon="4.75864">
        <ele>318</ele>
        <time>2022-09-05T07:57:35.000Z</time>
      </trkpt>
      <trkpt lat="49.86925" lon="4.75867">
        <ele>318</ele>
        <time>2022-09-05T07:57:36.000Z</time>
      </trkpt>
      <trkpt lat="49.86926" lon="4.75869">
        <ele>318</ele>
        <time>2022-09-05T07:57:37.000Z</time>
      </trkpt>
      <trkpt lat="49.86927" lon="4.75872">
        <ele>318</ele>
        <time>2022-09-05T07:57:38.000Z</time>
      </trkpt>
      <trkpt lat="49.86927" lon="4.75874">
        <ele>318</ele>
        <time>2022-09-05T07:57:39.000Z</time>
      </trkpt>
      <trkpt lat="49.86928" lon="4.75877">
        <ele>318</ele>
        <time>2022-09-05T07:57:40.000Z</time>
      </trkpt>
      <trkpt lat="49.86929" lon="4.75879">
        <ele>319</ele>
        <time>2022-09-05T07:57:41.000Z</time>
      </trkpt>
      <trkpt lat="49.8693" lon="4.75882">
        <ele>319</ele>
        <time>2022-09-05T07:57:42.000Z</time>
      </trkpt>
      <trkpt lat="49.8693" lon="4.75884">
        <ele>319</ele>
        <time>2022-09-05T07:57:43.000Z</time>
      </trkpt>
      <trkpt lat="49.86931" lon="4.75887">
        <ele>319</ele>
        <time>2022-09-05T07:57:44.000Z</time>
      </trkpt>
      <trkpt lat="49.86931" lon="4.75889">
        <ele>320</ele>
        <time>2022-09-05T07:57:45.000Z</time>
      </trkpt>
      <trkpt lat="49.86932" lon="4.75892">
        <ele>320</ele>
        <time>2022-09-05T07:57:46.000Z</time>
      </trkpt>
      <trkpt lat="49.86933" lon="4.75895">
        <ele>320</ele>
        <time>2022-09-05T07:57:47.000Z</time>
      </trkpt>
      <trkpt lat="49.86934" lon="4.75898">
        <ele>320</ele>
        <time>2022-09-05T07:57:48.000Z</time>
      </trkpt>
      <trkpt lat="49.86934" lon="4.75901">
        <ele>320</ele>
        <time>2022-09-05T07:57:49.000Z</time>
      </trkpt>
      <trkpt lat="49.86935" lon="4.75903">
        <ele>320</ele>
        <time>2022-09-05T07:57:50.000Z</time>
      </trkpt>
      <trkpt lat="49.86936" lon="4.75906">
        <ele>321</ele>
        <time>2022-09-05T07:57:51.000Z</time>
      </trkpt>
      <trkpt lat="49.86937" lon="4.75909">
        <ele>321</ele>
        <time>2022-09-05T07:57:52.000Z</time>
      </trkpt>
      <trkpt lat="49.86938" lon="4.75912">
        <ele>321</ele>
        <time>2022-09-05T07:57:53.000Z</time>
      </trkpt>
      <trkpt lat="49.86938" lon="4.75915">
        <ele>321</ele>
        <time>2022-09-05T07:57:54.000Z</time>
      </trkpt>
      <trkpt lat="49.86939" lon="4.75918">
        <ele>321</ele>
        <time>2022-09-05T07:57:55.000Z</time>
      </trkpt>
      <trkpt lat="49.86939" lon="4.7592">
        <ele>321</ele>
        <time>2022-09-05T07:57:56.000Z</time>
      </trkpt>
      <trkpt lat="49.8694" lon="4.75923">
        <ele>322</ele>
        <time>2022-09-05T07:57:57.000Z</time>
      </trkpt>
      <trkpt lat="49.8694" lon="4.75925">
        <ele>322</ele>
        <time>2022-09-05T07:57:58.000Z</time>
      </trkpt>
      <trkpt lat="49.86941" lon="4.75927">
        <ele>322</ele>
        <time>2022-09-05T07:57:59.000Z</time>
      </trkpt>
      <trkpt lat="49.86942" lon="4.7593">
        <ele>322</ele>
        <time>2022-09-05T07:58:00.000Z</time>
      </trkpt>
      <trkpt lat="49.86942" lon="4.75932">
        <ele>323</ele>
        <time>2022-09-05T07:58:01.000Z</time>
      </trkpt>
      <trkpt lat="49.86944" lon="4.75935">
        <ele>323</ele>
        <time>2022-09-05T07:58:02.000Z</time>
      </trkpt>
      <trkpt lat="49.86944" lon="4.75938">
        <ele>323</ele>
        <time>2022-09-05T07:58:03.000Z</time>
      </trkpt>
      <trkpt lat="49.86945" lon="4.75941">
        <ele>323</ele>
        <time>2022-09-05T07:58:04.000Z</time>
      </trkpt>
      <trkpt lat="49.86945" lon="4.75944">
        <ele>323</ele>
        <time>2022-09-05T07:58:05.000Z</time>
      </trkpt>
      <trkpt lat="49.86945" lon="4.75947">
        <ele>324</ele>
        <time>2022-09-05T07:58:06.000Z</time>
      </trkpt>
      <trkpt lat="49.86945" lon="4.75951">
        <ele>324</ele>
        <time>2022-09-05T07:58:07.000Z</time>
      </trkpt>
      <trkpt lat="49.86945" lon="4.75955">
        <ele>324</ele>
        <time>2022-09-05T07:58:08.000Z</time>
      </trkpt>
      <trkpt lat="49.86945" lon="4.75957">
        <ele>324</ele>
        <time>2022-09-05T07:58:09.000Z</time>
      </trkpt>
      <trkpt lat="49.86944" lon="4.7596">
        <ele>324</ele>
        <time>2022-09-05T07:58:10.000Z</time>
      </trkpt>
      <trkpt lat="49.86944" lon="4.7596">
        <ele>324</ele>
        <time>2022-09-05T07:58:11.000Z</time>
      </trkpt>
      <trkpt lat="49.86945" lon="4.75961">
        <ele>324</ele>
        <time>2022-09-05T07:58:12.000Z</time>
      </trkpt>
      <trkpt lat="49.86945" lon="4.75961">
        <ele>324</ele>
        <time>2022-09-05T07:58:13.000Z</time>
      </trkpt>
      <trkpt lat="49.86944" lon="4.75962">
        <ele>324</ele>
        <time>2022-09-05T07:58:14.000Z</time>
      </trkpt>
      <trkpt lat="49.86944" lon="4.75963">
        <ele>324</ele>
        <time>2022-09-05T07:58:15.000Z</time>
      </trkpt>
      <trkpt lat="49.86944" lon="4.75964">
        <ele>325</ele>
        <time>2022-09-05T07:58:16.000Z</time>
      </trkpt>
      <trkpt lat="49.86943" lon="4.75966">
        <ele>325</ele>
        <time>2022-09-05T07:58:17.000Z</time>
      </trkpt>
      <trkpt lat="49.86942" lon="4.75969">
        <ele>325</ele>
        <time>2022-09-05T07:58:18.000Z</time>
      </trkpt>
      <trkpt lat="49.86941" lon="4.75972">
        <ele>325</ele>
        <time>2022-09-05T07:58:19.000Z</time>
      </trkpt>
      <trkpt lat="49.86941" lon="4.75974">
        <ele>325</ele>
        <time>2022-09-05T07:58:20.000Z</time>
      </trkpt>
      <trkpt lat="49.86941" lon="4.75975">
        <ele>325</ele>
        <time>2022-09-05T07:58:21.000Z</time>
      </trkpt>
      <trkpt lat="49.86941" lon="4.75976">
        <ele>325</ele>
        <time>2022-09-05T07:58:22.000Z</time>
      </trkpt>
      <trkpt lat="49.86941" lon="4.75977">
        <ele>325</ele>
        <time>2022-09-05T07:58:23.000Z</time>
      </trkpt>
      <trkpt lat="49.86941" lon="4.75978">
        <ele>325</ele>
        <time>2022-09-05T07:58:24.000Z</time>
      </trkpt>
      <trkpt lat="49.86941" lon="4.75981">
        <ele>325</ele>
        <time>2022-09-05T07:58:25.000Z</time>
      </trkpt>
      <trkpt lat="49.86941" lon="4.75983">
        <ele>325</ele>
        <time>2022-09-05T07:58:26.000Z</time>
      </trkpt>
      <trkpt lat="49.8694" lon="4.75986">
        <ele>325</ele>
        <time>2022-09-05T07:58:27.000Z</time>
      </trkpt>
      <trkpt lat="49.8694" lon="4.75988">
        <ele>325</ele>
        <time>2022-09-05T07:58:28.000Z</time>
      </trkpt>
      <trkpt lat="49.86939" lon="4.75991">
        <ele>325</ele>
        <time>2022-09-05T07:58:29.000Z</time>
      </trkpt>
      <trkpt lat="49.86939" lon="4.75993">
        <ele>325</ele>
        <time>2022-09-05T07:58:30.000Z</time>
      </trkpt>
      <trkpt lat="49.86939" lon="4.75995">
        <ele>324</ele>
        <time>2022-09-05T07:58:31.000Z</time>
      </trkpt>
      <trkpt lat="49.86939" lon="4.75996">
        <ele>324</ele>
        <time>2022-09-05T07:58:32.000Z</time>
      </trkpt>
      <trkpt lat="49.86939" lon="4.75996">
        <ele>324</ele>
        <time>2022-09-05T07:58:33.000Z</time>
      </trkpt>
      <trkpt lat="49.86939" lon="4.75996">
        <ele>324</ele>
        <time>2022-09-05T07:58:34.000Z</time>
      </trkpt>
      <trkpt lat="49.86938" lon="4.75995">
        <ele>324</ele>
        <time>2022-09-05T07:58:35.000Z</time>
      </trkpt>
      <trkpt lat="49.86938" lon="4.75994">
        <ele>324</ele>
        <time>2022-09-05T07:58:36.000Z</time>
      </trkpt>
      <trkpt lat="49.86938" lon="4.75992">
        <ele>324</ele>
        <time>2022-09-05T07:58:37.000Z</time>
      </trkpt>
      <trkpt lat="49.86938" lon="4.75991">
        <ele>324</ele>
        <time>2022-09-05T07:58:38.000Z</time>
      </trkpt>
      <trkpt lat="49.86938" lon="4.75991">
        <ele>324</ele>
        <time>2022-09-05T07:58:39.000Z</time>
      </trkpt>
      <trkpt lat="49.86938" lon="4.75991">
        <ele>324</ele>
        <time>2022-09-05T07:58:40.000Z</time>
      </trkpt>
      <trkpt lat="49.86938" lon="4.75991">
        <ele>324</ele>
        <time>2022-09-05T07:58:41.000Z</time>
      </trkpt>
      <trkpt lat="49.86937" lon="4.75991">
        <ele>324</ele>
        <time>2022-09-05T07:58:42.000Z</time>
      </trkpt>
      <trkpt lat="49.86937" lon="4.75991">
        <ele>324</ele>
        <time>2022-09-05T07:58:43.000Z</time>
      </trkpt>
      <trkpt lat="49.86937" lon="4.75991">
        <ele>324</ele>
        <time>2022-09-05T07:58:44.000Z</time>
      </trkpt>
      <trkpt lat="49.86937" lon="4.75991">
        <ele>324</ele>
        <time>2022-09-05T07:58:45.000Z</time>
      </trkpt>
      <trkpt lat="49.86937" lon="4.75991">
        <ele>324</ele>
        <time>2022-09-05T07:58:46.000Z</time>
      </trkpt>
      <trkpt lat="49.86937" lon="4.75991">
        <ele>324</ele>
        <time>2022-09-05T07:58:47.000Z</time>
      </trkpt>
      <trkpt lat="49.86936" lon="4.75993">
        <ele>324</ele>
        <time>2022-09-05T07:58:48.000Z</time>
      </trkpt>
      <trkpt lat="49.86936" lon="4.75996">
        <ele>324</ele>
        <time>2022-09-05T07:58:49.000Z</time>
      </trkpt>
      <trkpt lat="49.86936" lon="4.75998">
        <ele>324</ele>
        <time>2022-09-05T07:58:50.000Z</time>
      </trkpt>
      <trkpt lat="49.86936" lon="4.76">
        <ele>324</ele>
        <time>2022-09-05T07:58:51.000Z</time>
      </trkpt>
      <trkpt lat="49.86937" lon="4.76001">
        <ele>323</ele>
        <time>2022-09-05T07:58:52.000Z</time>
      </trkpt>
      <trkpt lat="49.86937" lon="4.76001">
        <ele>323</ele>
        <time>2022-09-05T07:58:53.000Z</time>
      </trkpt>
      <trkpt lat="49.86937" lon="4.76001">
        <ele>323</ele>
        <time>2022-09-05T07:58:54.000Z</time>
      </trkpt>
      <trkpt lat="49.86937" lon="4.76001">
        <ele>323</ele>
        <time>2022-09-05T07:58:55.000Z</time>
      </trkpt>
      <trkpt lat="49.86937" lon="4.76001">
        <ele>323</ele>
        <time>2022-09-05T07:58:56.000Z</time>
      </trkpt>
      <trkpt lat="49.86937" lon="4.76001">
        <ele>323</ele>
        <time>2022-09-05T07:58:57.000Z</time>
      </trkpt>
      <trkpt lat="49.86937" lon="4.76001">
        <ele>323</ele>
        <time>2022-09-05T07:58:58.000Z</time>
      </trkpt>
      <trkpt lat="49.86937" lon="4.76001">
        <ele>323</ele>
        <time>2022-09-05T07:58:59.000Z</time>
      </trkpt>
      <trkpt lat="49.86937" lon="4.76001">
        <ele>323</ele>
        <time>2022-09-05T07:59:00.000Z</time>
      </trkpt>
      <trkpt lat="49.86937" lon="4.76001">
        <ele>323</ele>
        <time>2022-09-05T07:59:01.000Z</time>
      </trkpt>
      <trkpt lat="49.86937" lon="4.76001">
        <ele>322</ele>
        <time>2022-09-05T07:59:02.000Z</time>
      </trkpt>
      <trkpt lat="49.86937" lon="4.76001">
        <ele>322</ele>
        <time>2022-09-05T07:59:03.000Z</time>
      </trkpt>
      <trkpt lat="49.86937" lon="4.76001">
        <ele>322</ele>
        <time>2022-09-05T07:59:04.000Z</time>
      </trkpt>
      <trkpt lat="49.86937" lon="4.76001">
        <ele>322</ele>
        <time>2022-09-05T07:59:05.000Z</time>
      </trkpt>
      <trkpt lat="49.86937" lon="4.76001">
        <ele>322</ele>
        <time>2022-09-05T07:59:06.000Z</time>
      </trkpt>
      <trkpt lat="49.86937" lon="4.76">
        <ele>322</ele>
        <time>2022-09-05T07:59:07.000Z</time>
      </trkpt>
      <trkpt lat="49.86937" lon="4.75999">
        <ele>322</ele>
        <time>2022-09-05T07:59:08.000Z</time>
      </trkpt>
      <trkpt lat="49.86937" lon="4.75998">
        <ele>322</ele>
        <time>2022-09-05T07:59:09.000Z</time>
      </trkpt>
      <trkpt lat="49.86937" lon="4.75996">
        <ele>322</ele>
        <time>2022-09-05T07:59:10.000Z</time>
      </trkpt>
      <trkpt lat="49.86937" lon="4.75996">
        <ele>322</ele>
        <time>2022-09-05T07:59:11.000Z</time>
      </trkpt>
      <trkpt lat="49.86937" lon="4.75996">
        <ele>322</ele>
        <time>2022-09-05T07:59:12.000Z</time>
      </trkpt>
      <trkpt lat="49.86937" lon="4.75996">
        <ele>322</ele>
        <time>2022-09-05T07:59:13.000Z</time>
      </trkpt>
      <trkpt lat="49.86938" lon="4.75996">
        <ele>322</ele>
        <time>2022-09-05T07:59:14.000Z</time>
      </trkpt>
      <trkpt lat="49.86938" lon="4.75995">
        <ele>322</ele>
        <time>2022-09-05T07:59:15.000Z</time>
      </trkpt>
      <trkpt lat="49.86938" lon="4.75995">
        <ele>322</ele>
        <time>2022-09-05T07:59:16.000Z</time>
      </trkpt>
      <trkpt lat="49.86938" lon="4.75994">
        <ele>322</ele>
        <time>2022-09-05T07:59:17.000Z</time>
      </trkpt>
      <trkpt lat="49.86938" lon="4.75994">
        <ele>321</ele>
        <time>2022-09-05T07:59:18.000Z</time>
      </trkpt>
      <trkpt lat="49.86938" lon="4.75994">
        <ele>321</ele>
        <time>2022-09-05T07:59:19.000Z</time>
      </trkpt>
      <trkpt lat="49.86938" lon="4.75994">
        <ele>321</ele>
        <time>2022-09-05T07:59:20.000Z</time>
      </trkpt>
      <trkpt lat="49.86938" lon="4.75993">
        <ele>321</ele>
        <time>2022-09-05T07:59:21.000Z</time>
      </trkpt>
      <trkpt lat="49.86939" lon="4.75993">
        <ele>321</ele>
        <time>2022-09-05T07:59:22.000Z</time>
      </trkpt>
      <trkpt lat="49.86939" lon="4.75993">
        <ele>321</ele>
        <time>2022-09-05T07:59:23.000Z</time>
      </trkpt>
      <trkpt lat="49.86939" lon="4.75993">
        <ele>321</ele>
        <time>2022-09-05T07:59:24.000Z</time>
      </trkpt>
      <trkpt lat="49.86939" lon="4.75993">
        <ele>321</ele>
        <time>2022-09-05T07:59:25.000Z</time>
      </trkpt>
      <trkpt lat="49.86939" lon="4.75993">
        <ele>321</ele>
        <time>2022-09-05T07:59:26.000Z</time>
      </trkpt>
      <trkpt lat="49.86939" lon="4.75993">
        <ele>321</ele>
        <time>2022-09-05T07:59:27.000Z</time>
      </trkpt>
      <trkpt lat="49.86939" lon="4.75994">
        <ele>321</ele>
        <time>2022-09-05T07:59:28.000Z</time>
      </trkpt>
      <trkpt lat="49.86939" lon="4.75995">
        <ele>320</ele>
        <time>2022-09-05T07:59:29.000Z</time>
      </trkpt>
      <trkpt lat="49.86938" lon="4.75997">
        <ele>320</ele>
        <time>2022-09-05T07:59:30.000Z</time>
      </trkpt>
      <trkpt lat="49.86938" lon="4.75998">
        <ele>320</ele>
        <time>2022-09-05T07:59:31.000Z</time>
      </trkpt>
      <trkpt lat="49.86938" lon="4.76">
        <ele>320</ele>
        <time>2022-09-05T07:59:32.000Z</time>
      </trkpt>
      <trkpt lat="49.86939" lon="4.76001">
        <ele>320</ele>
        <time>2022-09-05T07:59:33.000Z</time>
      </trkpt>
      <trkpt lat="49.86939" lon="4.76003">
        <ele>320</ele>
        <time>2022-09-05T07:59:34.000Z</time>
      </trkpt>
      <trkpt lat="49.8694" lon="4.76005">
        <ele>320</ele>
        <time>2022-09-05T07:59:35.000Z</time>
      </trkpt>
      <trkpt lat="49.86942" lon="4.7601">
        <ele>320</ele>
        <time>2022-09-05T07:59:36.000Z</time>
      </trkpt>
      <trkpt lat="49.86943" lon="4.76016">
        <ele>319</ele>
        <time>2022-09-05T07:59:37.000Z</time>
      </trkpt>
      <trkpt lat="49.86945" lon="4.76021">
        <ele>319</ele>
        <time>2022-09-05T07:59:38.000Z</time>
      </trkpt>
      <trkpt lat="49.86946" lon="4.76026">
        <ele>319</ele>
        <time>2022-09-05T07:59:39.000Z</time>
      </trkpt>
      <trkpt lat="49.86948" lon="4.76032">
        <ele>319</ele>
        <time>2022-09-05T07:59:40.000Z</time>
      </trkpt>
      <trkpt lat="49.86949" lon="4.76037">
        <ele>319</ele>
        <time>2022-09-05T07:59:41.000Z</time>
      </trkpt>
      <trkpt lat="49.86951" lon="4.76043">
        <ele>319</ele>
        <time>2022-09-05T07:59:42.000Z</time>
      </trkpt>
      <trkpt lat="49.86952" lon="4.76048">
        <ele>319</ele>
        <time>2022-09-05T07:59:43.000Z</time>
      </trkpt>
      <trkpt lat="49.86954" lon="4.76053">
        <ele>319</ele>
        <time>2022-09-05T07:59:44.000Z</time>
      </trkpt>
      <trkpt lat="49.86955" lon="4.76058">
        <ele>319</ele>
        <time>2022-09-05T07:59:45.000Z</time>
      </trkpt>
      <trkpt lat="49.86955" lon="4.76063">
        <ele>319</ele>
        <time>2022-09-05T07:59:46.000Z</time>
      </trkpt>
      <trkpt lat="49.86955" lon="4.76069">
        <ele>318</ele>
        <time>2022-09-05T07:59:47.000Z</time>
      </trkpt>
      <trkpt lat="49.86955" lon="4.76074">
        <ele>318</ele>
        <time>2022-09-05T07:59:48.000Z</time>
      </trkpt>
      <trkpt lat="49.86956" lon="4.76079">
        <ele>318</ele>
        <time>2022-09-05T07:59:49.000Z</time>
      </trkpt>
      <trkpt lat="49.86956" lon="4.76084">
        <ele>318</ele>
        <time>2022-09-05T07:59:50.000Z</time>
      </trkpt>
      <trkpt lat="49.86957" lon="4.7609">
        <ele>318</ele>
        <time>2022-09-05T07:59:51.000Z</time>
      </trkpt>
      <trkpt lat="49.86957" lon="4.76097">
        <ele>318</ele>
        <time>2022-09-05T07:59:52.000Z</time>
      </trkpt>
      <trkpt lat="49.86956" lon="4.76104">
        <ele>318</ele>
        <time>2022-09-05T07:59:53.000Z</time>
      </trkpt>
      <trkpt lat="49.86955" lon="4.76112">
        <ele>318</ele>
        <time>2022-09-05T07:59:54.000Z</time>
      </trkpt>
      <trkpt lat="49.86954" lon="4.76119">
        <ele>318</ele>
        <time>2022-09-05T07:59:55.000Z</time>
      </trkpt>
      <trkpt lat="49.86953" lon="4.76123">
        <ele>318</ele>
        <time>2022-09-05T07:59:56.000Z</time>
      </trkpt>
      <trkpt lat="49.86953" lon="4.76124">
        <ele>318</ele>
        <time>2022-09-05T07:59:57.000Z</time>
      </trkpt>
      <trkpt lat="49.86954" lon="4.76124">
        <ele>318</ele>
        <time>2022-09-05T07:59:58.000Z</time>
      </trkpt>
      <trkpt lat="49.86954" lon="4.76124">
        <ele>318</ele>
        <time>2022-09-05T07:59:59.000Z</time>
      </trkpt>
      <trkpt lat="49.86954" lon="4.76125">
        <ele>318</ele>
        <time>2022-09-05T08:00:00.000Z</time>
      </trkpt>
      <trkpt lat="49.86954" lon="4.76125">
        <ele>318</ele>
        <time>2022-09-05T08:00:01.000Z</time>
      </trkpt>
      <trkpt lat="49.86955" lon="4.76125">
        <ele>318</ele>
        <time>2022-09-05T08:00:02.000Z</time>
      </trkpt>
      <trkpt lat="49.86955" lon="4.76125">
        <ele>318</ele>
        <time>2022-09-05T08:00:03.000Z</time>
      </trkpt>
      <trkpt lat="49.86955" lon="4.76125">
        <ele>318</ele>
        <time>2022-09-05T08:00:04.000Z</time>
      </trkpt>
      <trkpt lat="49.86955" lon="4.76125">
        <ele>318</ele>
        <time>2022-09-05T08:00:05.000Z</time>
      </trkpt>
      <trkpt lat="49.86955" lon="4.76125">
        <ele>318</ele>
        <time>2022-09-05T08:00:06.000Z</time>
      </trkpt>
      <trkpt lat="49.86955" lon="4.76125">
        <ele>318</ele>
        <time>2022-09-05T08:00:07.000Z</time>
      </trkpt>
      <trkpt lat="49.86956" lon="4.76125">
        <ele>318</ele>
        <time>2022-09-05T08:00:08.000Z</time>
      </trkpt>
      <trkpt lat="49.86956" lon="4.76125">
        <ele>318</ele>
        <time>2022-09-05T08:00:09.000Z</time>
      </trkpt>
      <trkpt lat="49.86956" lon="4.76125">
        <ele>318</ele>
        <time>2022-09-05T08:00:10.000Z</time>
      </trkpt>
      <trkpt lat="49.86956" lon="4.76125">
        <ele>318</ele>
        <time>2022-09-05T08:00:11.000Z</time>
      </trkpt>
      <trkpt lat="49.86956" lon="4.76125">
        <ele>318</ele>
        <time>2022-09-05T08:00:12.000Z</time>
      </trkpt>
      <trkpt lat="49.86956" lon="4.76125">
        <ele>318</ele>
        <time>2022-09-05T08:00:13.000Z</time>
      </trkpt>
      <trkpt lat="49.86956" lon="4.76125">
        <ele>318</ele>
        <time>2022-09-05T08:00:14.000Z</time>
      </trkpt>
      <trkpt lat="49.86956" lon="4.76125">
        <ele>318</ele>
        <time>2022-09-05T08:00:15.000Z</time>
      </trkpt>
      <trkpt lat="49.86957" lon="4.76125">
        <ele>318</ele>
        <time>2022-09-05T08:00:16.000Z</time>
      </trkpt>
      <trkpt lat="49.86957" lon="4.76126">
        <ele>318</ele>
        <time>2022-09-05T08:00:17.000Z</time>
      </trkpt>
      <trkpt lat="49.86957" lon="4.76126">
        <ele>318</ele>
        <time>2022-09-05T08:00:18.000Z</time>
      </trkpt>
      <trkpt lat="49.86957" lon="4.76126">
        <ele>318</ele>
        <time>2022-09-05T08:00:19.000Z</time>
      </trkpt>
      <trkpt lat="49.86957" lon="4.76126">
        <ele>318</ele>
        <time>2022-09-05T08:00:20.000Z</time>
      </trkpt>
      <trkpt lat="49.86957" lon="4.76126">
        <ele>318</ele>
        <time>2022-09-05T08:00:21.000Z</time>
      </trkpt>
      <trkpt lat="49.86957" lon="4.76126">
        <ele>318</ele>
        <time>2022-09-05T08:00:22.000Z</time>
      </trkpt>
      <trkpt lat="49.86957" lon="4.76126">
        <ele>317</ele>
        <time>2022-09-05T08:00:23.000Z</time>
      </trkpt>
      <trkpt lat="49.86958" lon="4.76126">
        <ele>317</ele>
        <time>2022-09-05T08:00:24.000Z</time>
      </trkpt>
      <trkpt lat="49.86958" lon="4.76126">
        <ele>317</ele>
        <time>2022-09-05T08:00:25.000Z</time>
      </trkpt>
      <trkpt lat="49.86958" lon="4.76126">
        <ele>317</ele>
        <time>2022-09-05T08:00:26.000Z</time>
      </trkpt>
      <trkpt lat="49.86958" lon="4.76126">
        <ele>317</ele>
        <time>2022-09-05T08:00:27.000Z</time>
      </trkpt>
      <trkpt lat="49.86958" lon="4.76126">
        <ele>317</ele>
        <time>2022-09-05T08:00:28.000Z</time>
      </trkpt>
      <trkpt lat="49.86958" lon="4.76126">
        <ele>317</ele>
        <time>2022-09-05T08:00:29.000Z</time>
      </trkpt>
      <trkpt lat="49.86958" lon="4.76126">
        <ele>317</ele>
        <time>2022-09-05T08:00:30.000Z</time>
      </trkpt>
      <trkpt lat="49.86958" lon="4.76126">
        <ele>317</ele>
        <time>2022-09-05T08:00:31.000Z</time>
      </trkpt>
      <trkpt lat="49.86958" lon="4.76126">
        <ele>317</ele>
        <time>2022-09-05T08:00:32.000Z</time>
      </trkpt>
      <trkpt lat="49.86958" lon="4.76126">
        <ele>317</ele>
        <time>2022-09-05T08:00:33.000Z</time>
      </trkpt>
      <trkpt lat="49.86958" lon="4.76126">
        <ele>317</ele>
        <time>2022-09-05T08:00:34.000Z</time>
      </trkpt>
      <trkpt lat="49.86958" lon="4.76126">
        <ele>317</ele>
        <time>2022-09-05T08:00:35.000Z</time>
      </trkpt>
      <trkpt lat="49.86958" lon="4.76126">
        <ele>317</ele>
        <time>2022-09-05T08:00:36.000Z</time>
      </trkpt>
      <trkpt lat="49.86958" lon="4.76126">
        <ele>317</ele>
        <time>2022-09-05T08:00:37.000Z</time>
      </trkpt>
      <trkpt lat="49.86958" lon="4.76126">
        <ele>317</ele>
        <time>2022-09-05T08:00:38.000Z</time>
      </trkpt>
      <trkpt lat="49.86958" lon="4.76126">
        <ele>317</ele>
        <time>2022-09-05T08:00:39.000Z</time>
      </trkpt>
      <trkpt lat="49.86958" lon="4.76126">
        <ele>317</ele>
        <time>2022-09-05T08:00:40.000Z</time>
      </trkpt>
      <trkpt lat="49.86958" lon="4.76126">
        <ele>317</ele>
        <time>2022-09-05T08:00:41.000Z</time>
      </trkpt>
      <trkpt lat="49.86958" lon="4.76126">
        <ele>317</ele>
        <time>2022-09-05T08:00:42.000Z</time>
      </trkpt>
      <trkpt lat="49.86959" lon="4.76126">
        <ele>317</ele>
        <time>2022-09-05T08:00:43.000Z</time>
      </trkpt>
      <trkpt lat="49.86959" lon="4.76126">
        <ele>317</ele>
        <time>2022-09-05T08:00:44.000Z</time>
      </trkpt>
      <trkpt lat="49.86959" lon="4.76126">
        <ele>317</ele>
        <time>2022-09-05T08:00:45.000Z</time>
      </trkpt>
      <trkpt lat="49.86959" lon="4.76126">
        <ele>317</ele>
        <time>2022-09-05T08:00:46.000Z</time>
      </trkpt>
      <trkpt lat="49.86959" lon="4.76126">
        <ele>317</ele>
        <time>2022-09-05T08:00:47.000Z</time>
      </trkpt>
      <trkpt lat="49.86959" lon="4.76126">
        <ele>317</ele>
        <time>2022-09-05T08:00:48.000Z</time>
      </trkpt>
      <trkpt lat="49.86959" lon="4.76126">
        <ele>317</ele>
        <time>2022-09-05T08:00:49.000Z</time>
      </trkpt>
      <trkpt lat="49.86959" lon="4.76126">
        <ele>317</ele>
        <time>2022-09-05T08:00:50.000Z</time>
      </trkpt>
      <trkpt lat="49.86959" lon="4.76126">
        <ele>317</ele>
        <time>2022-09-05T08:00:51.000Z</time>
      </trkpt>
      <trkpt lat="49.86959" lon="4.76126">
        <ele>317</ele>
        <time>2022-09-05T08:00:52.000Z</time>
      </trkpt>
      <trkpt lat="49.86959" lon="4.76126">
        <ele>317</ele>
        <time>2022-09-05T08:00:53.000Z</time>
      </trkpt>
      <trkpt lat="49.86959" lon="4.76126">
        <ele>317</ele>
        <time>2022-09-05T08:00:54.000Z</time>
      </trkpt>
      <trkpt lat="49.86959" lon="4.76126">
        <ele>317</ele>
        <time>2022-09-05T08:00:55.000Z</time>
      </trkpt>
      <trkpt lat="49.86959" lon="4.76126">
        <ele>317</ele>
        <time>2022-09-05T08:00:56.000Z</time>
      </trkpt>
      <trkpt lat="49.86959" lon="4.76126">
        <ele>317</ele>
        <time>2022-09-05T08:00:57.000Z</time>
      </trkpt>
      <trkpt lat="49.86959" lon="4.76126">
        <ele>317</ele>
        <time>2022-09-05T08:00:58.000Z</time>
      </trkpt>
      <trkpt lat="49.86959" lon="4.76126">
        <ele>317</ele>
        <time>2022-09-05T08:00:59.000Z</time>
      </trkpt>
      <trkpt lat="49.86959" lon="4.76126">
        <ele>317</ele>
        <time>2022-09-05T08:01:00.000Z</time>
      </trkpt>
      <trkpt lat="49.86959" lon="4.76126">
        <ele>317</ele>
        <time>2022-09-05T08:01:01.000Z</time>
      </trkpt>
      <trkpt lat="49.86959" lon="4.76126">
        <ele>317</ele>
        <time>2022-09-05T08:01:02.000Z</time>
      </trkpt>
      <trkpt lat="49.86959" lon="4.76126">
        <ele>317</ele>
        <time>2022-09-05T08:01:03.000Z</time>
      </trkpt>
      <trkpt lat="49.86959" lon="4.76126">
        <ele>317</ele>
        <time>2022-09-05T08:01:04.000Z</time>
      </trkpt>
      <trkpt lat="49.86959" lon="4.76126">
        <ele>317</ele>
        <time>2022-09-05T08:01:05.000Z</time>
      </trkpt>
      <trkpt lat="49.86959" lon="4.76126">
        <ele>317</ele>
        <time>2022-09-05T08:01:06.000Z</time>
      </trkpt>
      <trkpt lat="49.86959" lon="4.76126">
        <ele>317</ele>
        <time>2022-09-05T08:01:07.000Z</time>
      </trkpt>
      <trkpt lat="49.86959" lon="4.76126">
        <ele>317</ele>
        <time>2022-09-05T08:01:08.000Z</time>
      </trkpt>
      <trkpt lat="49.86959" lon="4.76126">
        <ele>317</ele>
        <time>2022-09-05T08:01:09.000Z</time>
      </trkpt>
      <trkpt lat="49.86959" lon="4.76126">
        <ele>317</ele>
        <time>2022-09-05T08:01:10.000Z</time>
      </trkpt>
      <trkpt lat="49.86959" lon="4.76126">
        <ele>317</ele>
        <time>2022-09-05T08:01:11.000Z</time>
      </trkpt>
      <trkpt lat="49.86959" lon="4.76126">
        <ele>317</ele>
        <time>2022-09-05T08:01:12.000Z</time>
      </trkpt>
      <trkpt lat="49.86959" lon="4.76126">
        <ele>317</ele>
        <time>2022-09-05T08:01:13.000Z</time>
      </trkpt>
      <trkpt lat="49.86959" lon="4.76126">
        <ele>317</ele>
        <time>2022-09-05T08:01:14.000Z</time>
      </trkpt>
      <trkpt lat="49.86959" lon="4.76126">
        <ele>317</ele>
        <time>2022-09-05T08:01:15.000Z</time>
      </trkpt>
      <trkpt lat="49.86959" lon="4.76126">
        <ele>317</ele>
        <time>2022-09-05T08:01:16.000Z</time>
      </trkpt>
      <trkpt lat="49.86959" lon="4.76126">
        <ele>317</ele>
        <time>2022-09-05T08:01:17.000Z</time>
      </trkpt>
      <trkpt lat="49.86959" lon="4.76126">
        <ele>317</ele>
        <time>2022-09-05T08:01:18.000Z</time>
      </trkpt>
      <trkpt lat="49.86959" lon="4.76126">
        <ele>317</ele>
        <time>2022-09-05T08:01:19.000Z</time>
      </trkpt>
      <trkpt lat="49.86959" lon="4.76126">
        <ele>317</ele>
        <time>2022-09-05T08:01:20.000Z</time>
      </trkpt>
      <trkpt lat="49.86959" lon="4.76126">
        <ele>317</ele>
        <time>2022-09-05T08:01:21.000Z</time>
      </trkpt>
      <trkpt lat="49.86959" lon="4.76126">
        <ele>317</ele>
        <time>2022-09-05T08:01:22.000Z</time>
      </trkpt>
      <trkpt lat="49.86959" lon="4.76126">
        <ele>317</ele>
        <time>2022-09-05T08:01:23.000Z</time>
      </trkpt>
      <trkpt lat="49.86959" lon="4.76126">
        <ele>317</ele>
        <time>2022-09-05T08:01:24.000Z</time>
      </trkpt>
      <trkpt lat="49.86959" lon="4.76126">
        <ele>317</ele>
        <time>2022-09-05T08:01:25.000Z</time>
      </trkpt>
      <trkpt lat="49.86959" lon="4.76126">
        <ele>317</ele>
        <time>2022-09-05T08:01:26.000Z</time>
      </trkpt>
      <trkpt lat="49.86959" lon="4.76126">
        <ele>317</ele>
        <time>2022-09-05T08:01:27.000Z</time>
      </trkpt>
      <trkpt lat="49.86959" lon="4.76126">
        <ele>317</ele>
        <time>2022-09-05T08:01:28.000Z</time>
      </trkpt>
      <trkpt lat="49.86959" lon="4.76126">
        <ele>317</ele>
        <time>2022-09-05T08:01:29.000Z</time>
      </trkpt>
      <trkpt lat="49.86959" lon="4.76126">
        <ele>316</ele>
        <time>2022-09-05T08:01:30.000Z</time>
      </trkpt>
      <trkpt lat="49.86959" lon="4.76126">
        <ele>316</ele>
        <time>2022-09-05T08:01:31.000Z</time>
      </trkpt>
      <trkpt lat="49.86959" lon="4.76126">
        <ele>316</ele>
        <time>2022-09-05T08:01:32.000Z</time>
      </trkpt>
      <trkpt lat="49.86959" lon="4.76126">
        <ele>316</ele>
        <time>2022-09-05T08:01:33.000Z</time>
      </trkpt>
      <trkpt lat="49.86959" lon="4.76126">
        <ele>316</ele>
        <time>2022-09-05T08:01:34.000Z</time>
      </trkpt>
      <trkpt lat="49.86959" lon="4.76126">
        <ele>316</ele>
        <time>2022-09-05T08:01:35.000Z</time>
      </trkpt>
      <trkpt lat="49.8696" lon="4.76126">
        <ele>316</ele>
        <time>2022-09-05T08:01:36.000Z</time>
      </trkpt>
      <trkpt lat="49.86959" lon="4.76126">
        <ele>316</ele>
        <time>2022-09-05T08:01:37.000Z</time>
      </trkpt>
      <trkpt lat="49.86959" lon="4.76126">
        <ele>316</ele>
        <time>2022-09-05T08:01:38.000Z</time>
      </trkpt>
      <trkpt lat="49.86959" lon="4.76126">
        <ele>316</ele>
        <time>2022-09-05T08:01:39.000Z</time>
      </trkpt>
      <trkpt lat="49.86959" lon="4.76126">
        <ele>316</ele>
        <time>2022-09-05T08:01:40.000Z</time>
      </trkpt>
      <trkpt lat="49.86959" lon="4.76126">
        <ele>316</ele>
        <time>2022-09-05T08:01:41.000Z</time>
      </trkpt>
      <trkpt lat="49.86959" lon="4.76126">
        <ele>316</ele>
        <time>2022-09-05T08:01:42.000Z</time>
      </trkpt>
      <trkpt lat="49.86959" lon="4.76126">
        <ele>316</ele>
        <time>2022-09-05T08:01:43.000Z</time>
      </trkpt>
      <trkpt lat="49.86959" lon="4.76126">
        <ele>316</ele>
        <time>2022-09-05T08:01:44.000Z</time>
      </trkpt>
      <trkpt lat="49.86959" lon="4.76126">
        <ele>316</ele>
        <time>2022-09-05T08:01:45.000Z</time>
      </trkpt>
      <trkpt lat="49.86959" lon="4.76126">
        <ele>316</ele>
        <time>2022-09-05T08:01:46.000Z</time>
      </trkpt>
      <trkpt lat="49.86959" lon="4.76126">
        <ele>316</ele>
        <time>2022-09-05T08:01:47.000Z</time>
      </trkpt>
      <trkpt lat="49.86959" lon="4.76126">
        <ele>316</ele>
        <time>2022-09-05T08:01:48.000Z</time>
      </trkpt>
      <trkpt lat="49.86959" lon="4.76126">
        <ele>316</ele>
        <time>2022-09-05T08:01:49.000Z</time>
      </trkpt>
      <trkpt lat="49.86959" lon="4.76126">
        <ele>316</ele>
        <time>2022-09-05T08:01:50.000Z</time>
      </trkpt>
      <trkpt lat="49.86959" lon="4.76126">
        <ele>316</ele>
        <time>2022-09-05T08:01:51.000Z</time>
      </trkpt>
      <trkpt lat="49.86959" lon="4.76126">
        <ele>316</ele>
        <time>2022-09-05T08:01:52.000Z</time>
      </trkpt>
      <trkpt lat="49.86959" lon="4.76126">
        <ele>316</ele>
        <time>2022-09-05T08:01:53.000Z</time>
      </trkpt>
      <trkpt lat="49.86959" lon="4.76126">
        <ele>316</ele>
        <time>2022-09-05T08:01:54.000Z</time>
      </trkpt>
      <trkpt lat="49.86959" lon="4.76126">
        <ele>316</ele>
        <time>2022-09-05T08:01:55.000Z</time>
      </trkpt>
      <trkpt lat="49.86959" lon="4.76126">
        <ele>316</ele>
        <time>2022-09-05T08:01:56.000Z</time>
      </trkpt>
      <trkpt lat="49.86959" lon="4.76126">
        <ele>316</ele>
        <time>2022-09-05T08:01:57.000Z</time>
      </trkpt>
      <trkpt lat="49.86959" lon="4.76126">
        <ele>316</ele>
        <time>2022-09-05T08:01:58.000Z</time>
      </trkpt>
      <trkpt lat="49.86959" lon="4.76126">
        <ele>316</ele>
        <time>2022-09-05T08:01:59.000Z</time>
      </trkpt>
      <trkpt lat="49.86959" lon="4.76126">
        <ele>316</ele>
        <time>2022-09-05T08:02:00.000Z</time>
      </trkpt>
      <trkpt lat="49.86959" lon="4.76126">
        <ele>316</ele>
        <time>2022-09-05T08:02:01.000Z</time>
      </trkpt>
      <trkpt lat="49.86959" lon="4.76126">
        <ele>316</ele>
        <time>2022-09-05T08:02:02.000Z</time>
      </trkpt>
      <trkpt lat="49.86959" lon="4.76126">
        <ele>316</ele>
        <time>2022-09-05T08:02:03.000Z</time>
      </trkpt>
      <trkpt lat="49.86959" lon="4.76126">
        <ele>316</ele>
        <time>2022-09-05T08:02:04.000Z</time>
      </trkpt>
      <trkpt lat="49.86959" lon="4.76126">
        <ele>316</ele>
        <time>2022-09-05T08:02:05.000Z</time>
      </trkpt>
      <trkpt lat="49.86959" lon="4.76126">
        <ele>316</ele>
        <time>2022-09-05T08:02:06.000Z</time>
      </trkpt>
      <trkpt lat="49.8696" lon="4.76126">
        <ele>316</ele>
        <time>2022-09-05T08:02:07.000Z</time>
      </trkpt>
      <trkpt lat="49.8696" lon="4.76126">
        <ele>316</ele>
        <time>2022-09-05T08:02:08.000Z</time>
      </trkpt>
      <trkpt lat="49.8696" lon="4.76126">
        <ele>316</ele>
        <time>2022-09-05T08:02:09.000Z</time>
      </trkpt>
      <trkpt lat="49.8696" lon="4.76126">
        <ele>316</ele>
        <time>2022-09-05T08:02:10.000Z</time>
      </trkpt>
      <trkpt lat="49.8696" lon="4.76126">
        <ele>316</ele>
        <time>2022-09-05T08:02:11.000Z</time>
      </trkpt>
      <trkpt lat="49.8696" lon="4.76126">
        <ele>316</ele>
        <time>2022-09-05T08:02:12.000Z</time>
      </trkpt>
      <trkpt lat="49.8696" lon="4.76126">
        <ele>316</ele>
        <time>2022-09-05T08:02:13.000Z</time>
      </trkpt>
      <trkpt lat="49.8696" lon="4.76126">
        <ele>316</ele>
        <time>2022-09-05T08:02:14.000Z</time>
      </trkpt>
      <trkpt lat="49.8696" lon="4.76126">
        <ele>316</ele>
        <time>2022-09-05T08:02:15.000Z</time>
      </trkpt>
      <trkpt lat="49.8696" lon="4.76126">
        <ele>316</ele>
        <time>2022-09-05T08:02:16.000Z</time>
      </trkpt>
      <trkpt lat="49.8696" lon="4.76126">
        <ele>316</ele>
        <time>2022-09-05T08:02:17.000Z</time>
      </trkpt>
      <trkpt lat="49.8696" lon="4.76126">
        <ele>316</ele>
        <time>2022-09-05T08:02:18.000Z</time>
      </trkpt>
      <trkpt lat="49.8696" lon="4.76126">
        <ele>316</ele>
        <time>2022-09-05T08:02:19.000Z</time>
      </trkpt>
      <trkpt lat="49.8696" lon="4.76126">
        <ele>316</ele>
        <time>2022-09-05T08:02:20.000Z</time>
      </trkpt>
      <trkpt lat="49.8696" lon="4.76126">
        <ele>316</ele>
        <time>2022-09-05T08:02:21.000Z</time>
      </trkpt>
      <trkpt lat="49.86959" lon="4.76126">
        <ele>316</ele>
        <time>2022-09-05T08:02:22.000Z</time>
      </trkpt>
      <trkpt lat="49.86959" lon="4.76126">
        <ele>316</ele>
        <time>2022-09-05T08:02:23.000Z</time>
      </trkpt>
      <trkpt lat="49.86959" lon="4.76126">
        <ele>316</ele>
        <time>2022-09-05T08:02:24.000Z</time>
      </trkpt>
      <trkpt lat="49.86959" lon="4.76126">
        <ele>316</ele>
        <time>2022-09-05T08:02:25.000Z</time>
      </trkpt>
      <trkpt lat="49.86959" lon="4.76126">
        <ele>316</ele>
        <time>2022-09-05T08:02:26.000Z</time>
      </trkpt>
      <trkpt lat="49.86959" lon="4.76126">
        <ele>316</ele>
        <time>2022-09-05T08:02:27.000Z</time>
      </trkpt>
      <trkpt lat="49.86959" lon="4.76126">
        <ele>316</ele>
        <time>2022-09-05T08:02:28.000Z</time>
      </trkpt>
      <trkpt lat="49.86959" lon="4.76126">
        <ele>316</ele>
        <time>2022-09-05T08:02:29.000Z</time>
      </trkpt>
      <trkpt lat="49.86959" lon="4.76126">
        <ele>316</ele>
        <time>2022-09-05T08:02:30.000Z</time>
      </trkpt>
      <trkpt lat="49.86959" lon="4.76126">
        <ele>316</ele>
        <time>2022-09-05T08:02:31.000Z</time>
      </trkpt>
      <trkpt lat="49.86959" lon="4.76126">
        <ele>316</ele>
        <time>2022-09-05T08:02:32.000Z</time>
      </trkpt>
      <trkpt lat="49.86959" lon="4.76126">
        <ele>316</ele>
        <time>2022-09-05T08:02:33.000Z</time>
      </trkpt>
      <trkpt lat="49.86959" lon="4.76126">
        <ele>316</ele>
        <time>2022-09-05T08:02:34.000Z</time>
      </trkpt>
      <trkpt lat="49.86959" lon="4.76126">
        <ele>316</ele>
        <time>2022-09-05T08:02:35.000Z</time>
      </trkpt>
      <trkpt lat="49.86959" lon="4.76126">
        <ele>316</ele>
        <time>2022-09-05T08:02:36.000Z</time>
      </trkpt>
      <trkpt lat="49.86959" lon="4.76126">
        <ele>316</ele>
        <time>2022-09-05T08:02:37.000Z</time>
      </trkpt>
      <trkpt lat="49.86959" lon="4.76126">
        <ele>316</ele>
        <time>2022-09-05T08:02:38.000Z</time>
      </trkpt>
      <trkpt lat="49.86959" lon="4.76126">
        <ele>316</ele>
        <time>2022-09-05T08:02:39.000Z</time>
      </trkpt>
      <trkpt lat="49.86959" lon="4.76126">
        <ele>316</ele>
        <time>2022-09-05T08:02:40.000Z</time>
      </trkpt>
      <trkpt lat="49.86959" lon="4.76126">
        <ele>316</ele>
        <time>2022-09-05T08:02:41.000Z</time>
      </trkpt>
      <trkpt lat="49.86959" lon="4.76126">
        <ele>316</ele>
        <time>2022-09-05T08:02:42.000Z</time>
      </trkpt>
      <trkpt lat="49.86959" lon="4.76126">
        <ele>316</ele>
        <time>2022-09-05T08:02:43.000Z</time>
      </trkpt>
      <trkpt lat="49.8696" lon="4.76127">
        <ele>316</ele>
        <time>2022-09-05T08:02:44.000Z</time>
      </trkpt>
      <trkpt lat="49.86959" lon="4.76129">
        <ele>316</ele>
        <time>2022-09-05T08:02:45.000Z</time>
      </trkpt>
      <trkpt lat="49.86959" lon="4.76132">
        <ele>316</ele>
        <time>2022-09-05T08:02:46.000Z</time>
      </trkpt>
      <trkpt lat="49.86958" lon="4.76135">
        <ele>316</ele>
        <time>2022-09-05T08:02:47.000Z</time>
      </trkpt>
      <trkpt lat="49.86958" lon="4.7614">
        <ele>316</ele>
        <time>2022-09-05T08:02:48.000Z</time>
      </trkpt>
      <trkpt lat="49.86958" lon="4.76146">
        <ele>316</ele>
        <time>2022-09-05T08:02:49.000Z</time>
      </trkpt>
      <trkpt lat="49.86958" lon="4.76151">
        <ele>316</ele>
        <time>2022-09-05T08:02:50.000Z</time>
      </trkpt>
      <trkpt lat="49.86959" lon="4.76156">
        <ele>316</ele>
        <time>2022-09-05T08:02:51.000Z</time>
      </trkpt>
      <trkpt lat="49.86959" lon="4.7616">
        <ele>316</ele>
        <time>2022-09-05T08:02:52.000Z</time>
      </trkpt>
      <trkpt lat="49.86959" lon="4.76163">
        <ele>316</ele>
        <time>2022-09-05T08:02:53.000Z</time>
      </trkpt>
      <trkpt lat="49.86959" lon="4.76164">
        <ele>316</ele>
        <time>2022-09-05T08:02:54.000Z</time>
      </trkpt>
      <trkpt lat="49.86959" lon="4.76164">
        <ele>316</ele>
        <time>2022-09-05T08:02:55.000Z</time>
      </trkpt>
      <trkpt lat="49.86959" lon="4.76164">
        <ele>316</ele>
        <time>2022-09-05T08:02:56.000Z</time>
      </trkpt>
      <trkpt lat="49.86959" lon="4.76164">
        <ele>316</ele>
        <time>2022-09-05T08:02:57.000Z</time>
      </trkpt>
      <trkpt lat="49.86959" lon="4.76166">
        <ele>316</ele>
        <time>2022-09-05T08:02:58.000Z</time>
      </trkpt>
      <trkpt lat="49.86959" lon="4.76169">
        <ele>316</ele>
        <time>2022-09-05T08:02:59.000Z</time>
      </trkpt>
      <trkpt lat="49.86959" lon="4.76172">
        <ele>316</ele>
        <time>2022-09-05T08:03:00.000Z</time>
      </trkpt>
      <trkpt lat="49.86959" lon="4.76177">
        <ele>316</ele>
        <time>2022-09-05T08:03:01.000Z</time>
      </trkpt>
      <trkpt lat="49.86959" lon="4.76182">
        <ele>316</ele>
        <time>2022-09-05T08:03:02.000Z</time>
      </trkpt>
      <trkpt lat="49.86959" lon="4.76189">
        <ele>315</ele>
        <time>2022-09-05T08:03:03.000Z</time>
      </trkpt>
      <trkpt lat="49.8696" lon="4.76194">
        <ele>315</ele>
        <time>2022-09-05T08:03:04.000Z</time>
      </trkpt>
      <trkpt lat="49.8696" lon="4.762">
        <ele>315</ele>
        <time>2022-09-05T08:03:05.000Z</time>
      </trkpt>
      <trkpt lat="49.8696" lon="4.76206">
        <ele>315</ele>
        <time>2022-09-05T08:03:06.000Z</time>
      </trkpt>
      <trkpt lat="49.86961" lon="4.76214">
        <ele>315</ele>
        <time>2022-09-05T08:03:07.000Z</time>
      </trkpt>
      <trkpt lat="49.86962" lon="4.76222">
        <ele>315</ele>
        <time>2022-09-05T08:03:08.000Z</time>
      </trkpt>
      <trkpt lat="49.86962" lon="4.7623">
        <ele>315</ele>
        <time>2022-09-05T08:03:09.000Z</time>
      </trkpt>
      <trkpt lat="49.86963" lon="4.76236">
        <ele>315</ele>
        <time>2022-09-05T08:03:10.000Z</time>
      </trkpt>
      <trkpt lat="49.86962" lon="4.7624">
        <ele>315</ele>
        <time>2022-09-05T08:03:11.000Z</time>
      </trkpt>
      <trkpt lat="49.86962" lon="4.76242">
        <ele>315</ele>
        <time>2022-09-05T08:03:12.000Z</time>
      </trkpt>
      <trkpt lat="49.8696" lon="4.76245">
        <ele>314</ele>
        <time>2022-09-05T08:03:13.000Z</time>
      </trkpt>
      <trkpt lat="49.86958" lon="4.76248">
        <ele>314</ele>
        <time>2022-09-05T08:03:14.000Z</time>
      </trkpt>
      <trkpt lat="49.86956" lon="4.7625">
        <ele>314</ele>
        <time>2022-09-05T08:03:15.000Z</time>
      </trkpt>
      <trkpt lat="49.86954" lon="4.76253">
        <ele>314</ele>
        <time>2022-09-05T08:03:16.000Z</time>
      </trkpt>
      <trkpt lat="49.86952" lon="4.76256">
        <ele>314</ele>
        <time>2022-09-05T08:03:17.000Z</time>
      </trkpt>
      <trkpt lat="49.86951" lon="4.7626">
        <ele>314</ele>
        <time>2022-09-05T08:03:18.000Z</time>
      </trkpt>
      <trkpt lat="49.8695" lon="4.76264">
        <ele>314</ele>
        <time>2022-09-05T08:03:19.000Z</time>
      </trkpt>
      <trkpt lat="49.8695" lon="4.76269">
        <ele>314</ele>
        <time>2022-09-05T08:03:20.000Z</time>
      </trkpt>
      <trkpt lat="49.86951" lon="4.76273">
        <ele>314</ele>
        <time>2022-09-05T08:03:21.000Z</time>
      </trkpt>
      <trkpt lat="49.86954" lon="4.76278">
        <ele>314</ele>
        <time>2022-09-05T08:03:22.000Z</time>
      </trkpt>
      <trkpt lat="49.86956" lon="4.76281">
        <ele>313</ele>
        <time>2022-09-05T08:03:23.000Z</time>
      </trkpt>
      <trkpt lat="49.86958" lon="4.76284">
        <ele>313</ele>
        <time>2022-09-05T08:03:24.000Z</time>
      </trkpt>
      <trkpt lat="49.86959" lon="4.76287">
        <ele>313</ele>
        <time>2022-09-05T08:03:25.000Z</time>
      </trkpt>
      <trkpt lat="49.86961" lon="4.76291">
        <ele>313</ele>
        <time>2022-09-05T08:03:26.000Z</time>
      </trkpt>
      <trkpt lat="49.86963" lon="4.76294">
        <ele>313</ele>
        <time>2022-09-05T08:03:27.000Z</time>
      </trkpt>
      <trkpt lat="49.86965" lon="4.76297">
        <ele>312</ele>
        <time>2022-09-05T08:03:28.000Z</time>
      </trkpt>
      <trkpt lat="49.86967" lon="4.76298">
        <ele>312</ele>
        <time>2022-09-05T08:03:29.000Z</time>
      </trkpt>
      <trkpt lat="49.86969" lon="4.76301">
        <ele>312</ele>
        <time>2022-09-05T08:03:30.000Z</time>
      </trkpt>
      <trkpt lat="49.86971" lon="4.76304">
        <ele>312</ele>
        <time>2022-09-05T08:03:31.000Z</time>
      </trkpt>
      <trkpt lat="49.86971" lon="4.76309">
        <ele>311</ele>
        <time>2022-09-05T08:03:32.000Z</time>
      </trkpt>
      <trkpt lat="49.8697" lon="4.76314">
        <ele>311</ele>
        <time>2022-09-05T08:03:33.000Z</time>
      </trkpt>
      <trkpt lat="49.8697" lon="4.7632">
        <ele>311</ele>
        <time>2022-09-05T08:03:34.000Z</time>
      </trkpt>
      <trkpt lat="49.86969" lon="4.76327">
        <ele>311</ele>
        <time>2022-09-05T08:03:35.000Z</time>
      </trkpt>
      <trkpt lat="49.86969" lon="4.76334">
        <ele>310</ele>
        <time>2022-09-05T08:03:36.000Z</time>
      </trkpt>
      <trkpt lat="49.86969" lon="4.76342">
        <ele>310</ele>
        <time>2022-09-05T08:03:37.000Z</time>
      </trkpt>
      <trkpt lat="49.86969" lon="4.76351">
        <ele>310</ele>
        <time>2022-09-05T08:03:38.000Z</time>
      </trkpt>
      <trkpt lat="49.86969" lon="4.76359">
        <ele>309</ele>
        <time>2022-09-05T08:03:39.000Z</time>
      </trkpt>
      <trkpt lat="49.86969" lon="4.76367">
        <ele>309</ele>
        <time>2022-09-05T08:03:40.000Z</time>
      </trkpt>
      <trkpt lat="49.86969" lon="4.76375">
        <ele>309</ele>
        <time>2022-09-05T08:03:41.000Z</time>
      </trkpt>
      <trkpt lat="49.86969" lon="4.76382">
        <ele>308</ele>
        <time>2022-09-05T08:03:42.000Z</time>
      </trkpt>
      <trkpt lat="49.86969" lon="4.76391">
        <ele>308</ele>
        <time>2022-09-05T08:03:43.000Z</time>
      </trkpt>
      <trkpt lat="49.8697" lon="4.764">
        <ele>307</ele>
        <time>2022-09-05T08:03:44.000Z</time>
      </trkpt>
      <trkpt lat="49.8697" lon="4.7641">
        <ele>306</ele>
        <time>2022-09-05T08:03:45.000Z</time>
      </trkpt>
      <trkpt lat="49.8697" lon="4.7642">
        <ele>306</ele>
        <time>2022-09-05T08:03:46.000Z</time>
      </trkpt>
      <trkpt lat="49.8697" lon="4.76431">
        <ele>305</ele>
        <time>2022-09-05T08:03:47.000Z</time>
      </trkpt>
      <trkpt lat="49.86971" lon="4.76439">
        <ele>305</ele>
        <time>2022-09-05T08:03:48.000Z</time>
      </trkpt>
      <trkpt lat="49.86971" lon="4.76448">
        <ele>304</ele>
        <time>2022-09-05T08:03:49.000Z</time>
      </trkpt>
      <trkpt lat="49.86972" lon="4.76456">
        <ele>303</ele>
        <time>2022-09-05T08:03:50.000Z</time>
      </trkpt>
      <trkpt lat="49.86973" lon="4.76466">
        <ele>302</ele>
        <time>2022-09-05T08:03:51.000Z</time>
      </trkpt>
      <trkpt lat="49.86974" lon="4.76475">
        <ele>302</ele>
        <time>2022-09-05T08:03:52.000Z</time>
      </trkpt>
      <trkpt lat="49.86974" lon="4.76484">
        <ele>301</ele>
        <time>2022-09-05T08:03:53.000Z</time>
      </trkpt>
      <trkpt lat="49.86975" lon="4.76493">
        <ele>300</ele>
        <time>2022-09-05T08:03:54.000Z</time>
      </trkpt>
      <trkpt lat="49.86975" lon="4.76502">
        <ele>299</ele>
        <time>2022-09-05T08:03:55.000Z</time>
      </trkpt>
      <trkpt lat="49.86975" lon="4.7651">
        <ele>298</ele>
        <time>2022-09-05T08:03:56.000Z</time>
      </trkpt>
      <trkpt lat="49.86975" lon="4.76519">
        <ele>298</ele>
        <time>2022-09-05T08:03:57.000Z</time>
      </trkpt>
      <trkpt lat="49.86976" lon="4.76527">
        <ele>297</ele>
        <time>2022-09-05T08:03:58.000Z</time>
      </trkpt>
      <trkpt lat="49.86975" lon="4.76533">
        <ele>296</ele>
        <time>2022-09-05T08:03:59.000Z</time>
      </trkpt>
      <trkpt lat="49.86974" lon="4.76539">
        <ele>296</ele>
        <time>2022-09-05T08:04:00.000Z</time>
      </trkpt>
      <trkpt lat="49.86973" lon="4.76546">
        <ele>295</ele>
        <time>2022-09-05T08:04:01.000Z</time>
      </trkpt>
      <trkpt lat="49.86972" lon="4.76552">
        <ele>295</ele>
        <time>2022-09-05T08:04:02.000Z</time>
      </trkpt>
      <trkpt lat="49.8697" lon="4.76558">
        <ele>294</ele>
        <time>2022-09-05T08:04:03.000Z</time>
      </trkpt>
      <trkpt lat="49.86969" lon="4.76564">
        <ele>294</ele>
        <time>2022-09-05T08:04:04.000Z</time>
      </trkpt>
      <trkpt lat="49.86967" lon="4.7657">
        <ele>293</ele>
        <time>2022-09-05T08:04:05.000Z</time>
      </trkpt>
      <trkpt lat="49.86966" lon="4.76575">
        <ele>293</ele>
        <time>2022-09-05T08:04:06.000Z</time>
      </trkpt>
      <trkpt lat="49.86963" lon="4.76581">
        <ele>293</ele>
        <time>2022-09-05T08:04:07.000Z</time>
      </trkpt>
      <trkpt lat="49.8696" lon="4.76587">
        <ele>292</ele>
        <time>2022-09-05T08:04:08.000Z</time>
      </trkpt>
      <trkpt lat="49.86957" lon="4.76594">
        <ele>292</ele>
        <time>2022-09-05T08:04:09.000Z</time>
      </trkpt>
      <trkpt lat="49.86953" lon="4.766">
        <ele>292</ele>
        <time>2022-09-05T08:04:10.000Z</time>
      </trkpt>
      <trkpt lat="49.86949" lon="4.76606">
        <ele>292</ele>
        <time>2022-09-05T08:04:11.000Z</time>
      </trkpt>
      <trkpt lat="49.86946" lon="4.76611">
        <ele>291</ele>
        <time>2022-09-05T08:04:12.000Z</time>
      </trkpt>
      <trkpt lat="49.86942" lon="4.76616">
        <ele>291</ele>
        <time>2022-09-05T08:04:13.000Z</time>
      </trkpt>
      <trkpt lat="49.86939" lon="4.7662">
        <ele>291</ele>
        <time>2022-09-05T08:04:14.000Z</time>
      </trkpt>
      <trkpt lat="49.86937" lon="4.76622">
        <ele>290</ele>
        <time>2022-09-05T08:04:15.000Z</time>
      </trkpt>
      <trkpt lat="49.86935" lon="4.76624">
        <ele>290</ele>
        <time>2022-09-05T08:04:16.000Z</time>
      </trkpt>
      <trkpt lat="49.86934" lon="4.76625">
        <ele>290</ele>
        <time>2022-09-05T08:04:17.000Z</time>
      </trkpt>
      <trkpt lat="49.86933" lon="4.76626">
        <ele>290</ele>
        <time>2022-09-05T08:04:18.000Z</time>
      </trkpt>
      <trkpt lat="49.86932" lon="4.76626">
        <ele>289</ele>
        <time>2022-09-05T08:04:19.000Z</time>
      </trkpt>
      <trkpt lat="49.8693" lon="4.76625">
        <ele>289</ele>
        <time>2022-09-05T08:04:20.000Z</time>
      </trkpt>
      <trkpt lat="49.86929" lon="4.76624">
        <ele>289</ele>
        <time>2022-09-05T08:04:21.000Z</time>
      </trkpt>
      <trkpt lat="49.86928" lon="4.76622">
        <ele>289</ele>
        <time>2022-09-05T08:04:22.000Z</time>
      </trkpt>
      <trkpt lat="49.86927" lon="4.76619">
        <ele>288</ele>
        <time>2022-09-05T08:04:23.000Z</time>
      </trkpt>
      <trkpt lat="49.86925" lon="4.76616">
        <ele>288</ele>
        <time>2022-09-05T08:04:24.000Z</time>
      </trkpt>
      <trkpt lat="49.86924" lon="4.76614">
        <ele>288</ele>
        <time>2022-09-05T08:04:25.000Z</time>
      </trkpt>
      <trkpt lat="49.86922" lon="4.76611">
        <ele>287</ele>
        <time>2022-09-05T08:04:26.000Z</time>
      </trkpt>
      <trkpt lat="49.86919" lon="4.76608">
        <ele>287</ele>
        <time>2022-09-05T08:04:27.000Z</time>
      </trkpt>
      <trkpt lat="49.86916" lon="4.76605">
        <ele>286</ele>
        <time>2022-09-05T08:04:28.000Z</time>
      </trkpt>
      <trkpt lat="49.86914" lon="4.76602">
        <ele>286</ele>
        <time>2022-09-05T08:04:29.000Z</time>
      </trkpt>
      <trkpt lat="49.86912" lon="4.76598">
        <ele>285</ele>
        <time>2022-09-05T08:04:30.000Z</time>
      </trkpt>
      <trkpt lat="49.86909" lon="4.76595">
        <ele>285</ele>
        <time>2022-09-05T08:04:31.000Z</time>
      </trkpt>
      <trkpt lat="49.86907" lon="4.76591">
        <ele>284</ele>
        <time>2022-09-05T08:04:32.000Z</time>
      </trkpt>
      <trkpt lat="49.86905" lon="4.76588">
        <ele>284</ele>
        <time>2022-09-05T08:04:33.000Z</time>
      </trkpt>
      <trkpt lat="49.86903" lon="4.76586">
        <ele>283</ele>
        <time>2022-09-05T08:04:34.000Z</time>
      </trkpt>
      <trkpt lat="49.86902" lon="4.76584">
        <ele>282</ele>
        <time>2022-09-05T08:04:35.000Z</time>
      </trkpt>
      <trkpt lat="49.86901" lon="4.76584">
        <ele>282</ele>
        <time>2022-09-05T08:04:36.000Z</time>
      </trkpt>
      <trkpt lat="49.869" lon="4.76585">
        <ele>281</ele>
        <time>2022-09-05T08:04:37.000Z</time>
      </trkpt>
      <trkpt lat="49.86899" lon="4.76586">
        <ele>281</ele>
        <time>2022-09-05T08:04:38.000Z</time>
      </trkpt>
      <trkpt lat="49.86899" lon="4.76587">
        <ele>280</ele>
        <time>2022-09-05T08:04:39.000Z</time>
      </trkpt>
      <trkpt lat="49.869" lon="4.76588">
        <ele>280</ele>
        <time>2022-09-05T08:04:40.000Z</time>
      </trkpt>
      <trkpt lat="49.86901" lon="4.7659">
        <ele>279</ele>
        <time>2022-09-05T08:04:41.000Z</time>
      </trkpt>
      <trkpt lat="49.86902" lon="4.76592">
        <ele>279</ele>
        <time>2022-09-05T08:04:42.000Z</time>
      </trkpt>
      <trkpt lat="49.86904" lon="4.76594">
        <ele>279</ele>
        <time>2022-09-05T08:04:43.000Z</time>
      </trkpt>
      <trkpt lat="49.86905" lon="4.76596">
        <ele>278</ele>
        <time>2022-09-05T08:04:44.000Z</time>
      </trkpt>
      <trkpt lat="49.86906" lon="4.76598">
        <ele>278</ele>
        <time>2022-09-05T08:04:45.000Z</time>
      </trkpt>
      <trkpt lat="49.86907" lon="4.76601">
        <ele>278</ele>
        <time>2022-09-05T08:04:46.000Z</time>
      </trkpt>
      <trkpt lat="49.86908" lon="4.76603">
        <ele>277</ele>
        <time>2022-09-05T08:04:47.000Z</time>
      </trkpt>
      <trkpt lat="49.86908" lon="4.76606">
        <ele>277</ele>
        <time>2022-09-05T08:04:48.000Z</time>
      </trkpt>
      <trkpt lat="49.86909" lon="4.76607">
        <ele>277</ele>
        <time>2022-09-05T08:04:49.000Z</time>
      </trkpt>
      <trkpt lat="49.8691" lon="4.76609">
        <ele>276</ele>
        <time>2022-09-05T08:04:50.000Z</time>
      </trkpt>
      <trkpt lat="49.86911" lon="4.7661">
        <ele>276</ele>
        <time>2022-09-05T08:04:51.000Z</time>
      </trkpt>
      <trkpt lat="49.86911" lon="4.76611">
        <ele>276</ele>
        <time>2022-09-05T08:04:52.000Z</time>
      </trkpt>
      <trkpt lat="49.86912" lon="4.76612">
        <ele>276</ele>
        <time>2022-09-05T08:04:53.000Z</time>
      </trkpt>
      <trkpt lat="49.86912" lon="4.76613">
        <ele>275</ele>
        <time>2022-09-05T08:04:54.000Z</time>
      </trkpt>
      <trkpt lat="49.86913" lon="4.76615">
        <ele>275</ele>
        <time>2022-09-05T08:04:55.000Z</time>
      </trkpt>
      <trkpt lat="49.86914" lon="4.76616">
        <ele>275</ele>
        <time>2022-09-05T08:04:56.000Z</time>
      </trkpt>
      <trkpt lat="49.86915" lon="4.76618">
        <ele>275</ele>
        <time>2022-09-05T08:04:57.000Z</time>
      </trkpt>
      <trkpt lat="49.86917" lon="4.7662">
        <ele>274</ele>
        <time>2022-09-05T08:04:58.000Z</time>
      </trkpt>
      <trkpt lat="49.86919" lon="4.76622">
        <ele>274</ele>
        <time>2022-09-05T08:04:59.000Z</time>
      </trkpt>
      <trkpt lat="49.8692" lon="4.76623">
        <ele>274</ele>
        <time>2022-09-05T08:05:00.000Z</time>
      </trkpt>
      <trkpt lat="49.86922" lon="4.76625">
        <ele>274</ele>
        <time>2022-09-05T08:05:01.000Z</time>
      </trkpt>
      <trkpt lat="49.86922" lon="4.76626">
        <ele>274</ele>
        <time>2022-09-05T08:05:02.000Z</time>
      </trkpt>
      <trkpt lat="49.86924" lon="4.76628">
        <ele>274</ele>
        <time>2022-09-05T08:05:03.000Z</time>
      </trkpt>
      <trkpt lat="49.86925" lon="4.76629">
        <ele>274</ele>
        <time>2022-09-05T08:05:04.000Z</time>
      </trkpt>
      <trkpt lat="49.86926" lon="4.76631">
        <ele>274</ele>
        <time>2022-09-05T08:05:05.000Z</time>
      </trkpt>
      <trkpt lat="49.86927" lon="4.76633">
        <ele>274</ele>
        <time>2022-09-05T08:05:06.000Z</time>
      </trkpt>
      <trkpt lat="49.86928" lon="4.76635">
        <ele>274</ele>
        <time>2022-09-05T08:05:07.000Z</time>
      </trkpt>
      <trkpt lat="49.8693" lon="4.76638">
        <ele>274</ele>
        <time>2022-09-05T08:05:08.000Z</time>
      </trkpt>
      <trkpt lat="49.86931" lon="4.7664">
        <ele>274</ele>
        <time>2022-09-05T08:05:09.000Z</time>
      </trkpt>
      <trkpt lat="49.86933" lon="4.76642">
        <ele>274</ele>
        <time>2022-09-05T08:05:10.000Z</time>
      </trkpt>
      <trkpt lat="49.86934" lon="4.76644">
        <ele>274</ele>
        <time>2022-09-05T08:05:11.000Z</time>
      </trkpt>
      <trkpt lat="49.86936" lon="4.76646">
        <ele>274</ele>
        <time>2022-09-05T08:05:12.000Z</time>
      </trkpt>
      <trkpt lat="49.86937" lon="4.76648">
        <ele>274</ele>
        <time>2022-09-05T08:05:13.000Z</time>
      </trkpt>
      <trkpt lat="49.86938" lon="4.7665">
        <ele>274</ele>
        <time>2022-09-05T08:05:14.000Z</time>
      </trkpt>
      <trkpt lat="49.86938" lon="4.76652">
        <ele>274</ele>
        <time>2022-09-05T08:05:15.000Z</time>
      </trkpt>
      <trkpt lat="49.86939" lon="4.76654">
        <ele>274</ele>
        <time>2022-09-05T08:05:16.000Z</time>
      </trkpt>
      <trkpt lat="49.8694" lon="4.76655">
        <ele>274</ele>
        <time>2022-09-05T08:05:17.000Z</time>
      </trkpt>
      <trkpt lat="49.86941" lon="4.76657">
        <ele>274</ele>
        <time>2022-09-05T08:05:18.000Z</time>
      </trkpt>
      <trkpt lat="49.86942" lon="4.76659">
        <ele>275</ele>
        <time>2022-09-05T08:05:19.000Z</time>
      </trkpt>
      <trkpt lat="49.86944" lon="4.76661">
        <ele>275</ele>
        <time>2022-09-05T08:05:20.000Z</time>
      </trkpt>
      <trkpt lat="49.86945" lon="4.76663">
        <ele>275</ele>
        <time>2022-09-05T08:05:21.000Z</time>
      </trkpt>
      <trkpt lat="49.86947" lon="4.76665">
        <ele>275</ele>
        <time>2022-09-05T08:05:22.000Z</time>
      </trkpt>
      <trkpt lat="49.86949" lon="4.76667">
        <ele>275</ele>
        <time>2022-09-05T08:05:23.000Z</time>
      </trkpt>
      <trkpt lat="49.8695" lon="4.76668">
        <ele>275</ele>
        <time>2022-09-05T08:05:24.000Z</time>
      </trkpt>
      <trkpt lat="49.86952" lon="4.76671">
        <ele>275</ele>
        <time>2022-09-05T08:05:25.000Z</time>
      </trkpt>
      <trkpt lat="49.86953" lon="4.76672">
        <ele>275</ele>
        <time>2022-09-05T08:05:26.000Z</time>
      </trkpt>
      <trkpt lat="49.86955" lon="4.76674">
        <ele>275</ele>
        <time>2022-09-05T08:05:27.000Z</time>
      </trkpt>
      <trkpt lat="49.86956" lon="4.76676">
        <ele>275</ele>
        <time>2022-09-05T08:05:28.000Z</time>
      </trkpt>
      <trkpt lat="49.86957" lon="4.76677">
        <ele>275</ele>
        <time>2022-09-05T08:05:29.000Z</time>
      </trkpt>
      <trkpt lat="49.86958" lon="4.76679">
        <ele>275</ele>
        <time>2022-09-05T08:05:30.000Z</time>
      </trkpt>
      <trkpt lat="49.86959" lon="4.7668">
        <ele>276</ele>
        <time>2022-09-05T08:05:31.000Z</time>
      </trkpt>
      <trkpt lat="49.8696" lon="4.76681">
        <ele>276</ele>
        <time>2022-09-05T08:05:32.000Z</time>
      </trkpt>
      <trkpt lat="49.86961" lon="4.76683">
        <ele>276</ele>
        <time>2022-09-05T08:05:33.000Z</time>
      </trkpt>
      <trkpt lat="49.86962" lon="4.76684">
        <ele>276</ele>
        <time>2022-09-05T08:05:34.000Z</time>
      </trkpt>
      <trkpt lat="49.86963" lon="4.76686">
        <ele>276</ele>
        <time>2022-09-05T08:05:35.000Z</time>
      </trkpt>
      <trkpt lat="49.86965" lon="4.76687">
        <ele>276</ele>
        <time>2022-09-05T08:05:36.000Z</time>
      </trkpt>
      <trkpt lat="49.86966" lon="4.76689">
        <ele>277</ele>
        <time>2022-09-05T08:05:37.000Z</time>
      </trkpt>
      <trkpt lat="49.86967" lon="4.76691">
        <ele>277</ele>
        <time>2022-09-05T08:05:38.000Z</time>
      </trkpt>
      <trkpt lat="49.86968" lon="4.76693">
        <ele>277</ele>
        <time>2022-09-05T08:05:39.000Z</time>
      </trkpt>
      <trkpt lat="49.8697" lon="4.76695">
        <ele>277</ele>
        <time>2022-09-05T08:05:40.000Z</time>
      </trkpt>
      <trkpt lat="49.86971" lon="4.76697">
        <ele>277</ele>
        <time>2022-09-05T08:05:41.000Z</time>
      </trkpt>
      <trkpt lat="49.86973" lon="4.767">
        <ele>278</ele>
        <time>2022-09-05T08:05:42.000Z</time>
      </trkpt>
      <trkpt lat="49.86974" lon="4.76702">
        <ele>278</ele>
        <time>2022-09-05T08:05:43.000Z</time>
      </trkpt>
      <trkpt lat="49.86975" lon="4.76704">
        <ele>278</ele>
        <time>2022-09-05T08:05:44.000Z</time>
      </trkpt>
      <trkpt lat="49.86976" lon="4.76706">
        <ele>278</ele>
        <time>2022-09-05T08:05:45.000Z</time>
      </trkpt>
      <trkpt lat="49.86977" lon="4.76708">
        <ele>278</ele>
        <time>2022-09-05T08:05:46.000Z</time>
      </trkpt>
      <trkpt lat="49.86979" lon="4.7671">
        <ele>279</ele>
        <time>2022-09-05T08:05:47.000Z</time>
      </trkpt>
      <trkpt lat="49.86979" lon="4.76712">
        <ele>279</ele>
        <time>2022-09-05T08:05:48.000Z</time>
      </trkpt>
      <trkpt lat="49.8698" lon="4.76713">
        <ele>279</ele>
        <time>2022-09-05T08:05:49.000Z</time>
      </trkpt>
      <trkpt lat="49.86981" lon="4.76715">
        <ele>279</ele>
        <time>2022-09-05T08:05:50.000Z</time>
      </trkpt>
      <trkpt lat="49.86982" lon="4.76718">
        <ele>280</ele>
        <time>2022-09-05T08:05:51.000Z</time>
      </trkpt>
      <trkpt lat="49.86983" lon="4.7672">
        <ele>280</ele>
        <time>2022-09-05T08:05:52.000Z</time>
      </trkpt>
      <trkpt lat="49.86984" lon="4.76723">
        <ele>280</ele>
        <time>2022-09-05T08:05:53.000Z</time>
      </trkpt>
      <trkpt lat="49.86985" lon="4.76726">
        <ele>280</ele>
        <time>2022-09-05T08:05:54.000Z</time>
      </trkpt>
      <trkpt lat="49.86986" lon="4.7673">
        <ele>281</ele>
        <time>2022-09-05T08:05:55.000Z</time>
      </trkpt>
      <trkpt lat="49.86987" lon="4.76732">
        <ele>281</ele>
        <time>2022-09-05T08:05:56.000Z</time>
      </trkpt>
      <trkpt lat="49.86988" lon="4.76735">
        <ele>281</ele>
        <time>2022-09-05T08:05:57.000Z</time>
      </trkpt>
      <trkpt lat="49.86989" lon="4.76738">
        <ele>282</ele>
        <time>2022-09-05T08:05:58.000Z</time>
      </trkpt>
      <trkpt lat="49.8699" lon="4.76741">
        <ele>282</ele>
        <time>2022-09-05T08:05:59.000Z</time>
      </trkpt>
      <trkpt lat="49.86991" lon="4.76743">
        <ele>282</ele>
        <time>2022-09-05T08:06:00.000Z</time>
      </trkpt>
      <trkpt lat="49.86991" lon="4.76745">
        <ele>282</ele>
        <time>2022-09-05T08:06:01.000Z</time>
      </trkpt>
      <trkpt lat="49.86992" lon="4.76747">
        <ele>283</ele>
        <time>2022-09-05T08:06:02.000Z</time>
      </trkpt>
      <trkpt lat="49.86992" lon="4.76749">
        <ele>283</ele>
        <time>2022-09-05T08:06:03.000Z</time>
      </trkpt>
      <trkpt lat="49.86993" lon="4.76751">
        <ele>283</ele>
        <time>2022-09-05T08:06:04.000Z</time>
      </trkpt>
      <trkpt lat="49.86993" lon="4.76754">
        <ele>283</ele>
        <time>2022-09-05T08:06:05.000Z</time>
      </trkpt>
      <trkpt lat="49.86994" lon="4.76757">
        <ele>283</ele>
        <time>2022-09-05T08:06:06.000Z</time>
      </trkpt>
      <trkpt lat="49.86994" lon="4.7676">
        <ele>283</ele>
        <time>2022-09-05T08:06:07.000Z</time>
      </trkpt>
      <trkpt lat="49.86995" lon="4.76763">
        <ele>283</ele>
        <time>2022-09-05T08:06:08.000Z</time>
      </trkpt>
      <trkpt lat="49.86996" lon="4.76766">
        <ele>284</ele>
        <time>2022-09-05T08:06:09.000Z</time>
      </trkpt>
      <trkpt lat="49.86996" lon="4.76769">
        <ele>284</ele>
        <time>2022-09-05T08:06:10.000Z</time>
      </trkpt>
      <trkpt lat="49.86997" lon="4.76773">
        <ele>284</ele>
        <time>2022-09-05T08:06:11.000Z</time>
      </trkpt>
      <trkpt lat="49.86998" lon="4.76776">
        <ele>284</ele>
        <time>2022-09-05T08:06:12.000Z</time>
      </trkpt>
      <trkpt lat="49.86999" lon="4.76779">
        <ele>284</ele>
        <time>2022-09-05T08:06:13.000Z</time>
      </trkpt>
      <trkpt lat="49.86999" lon="4.76782">
        <ele>285</ele>
        <time>2022-09-05T08:06:14.000Z</time>
      </trkpt>
      <trkpt lat="49.87" lon="4.76785">
        <ele>285</ele>
        <time>2022-09-05T08:06:15.000Z</time>
      </trkpt>
      <trkpt lat="49.87001" lon="4.76788">
        <ele>285</ele>
        <time>2022-09-05T08:06:16.000Z</time>
      </trkpt>
      <trkpt lat="49.87001" lon="4.76792">
        <ele>285</ele>
        <time>2022-09-05T08:06:17.000Z</time>
      </trkpt>
      <trkpt lat="49.87002" lon="4.76796">
        <ele>285</ele>
        <time>2022-09-05T08:06:18.000Z</time>
      </trkpt>
      <trkpt lat="49.87002" lon="4.76799">
        <ele>285</ele>
        <time>2022-09-05T08:06:19.000Z</time>
      </trkpt>
      <trkpt lat="49.87003" lon="4.76803">
        <ele>285</ele>
        <time>2022-09-05T08:06:20.000Z</time>
      </trkpt>
      <trkpt lat="49.87004" lon="4.76806">
        <ele>285</ele>
        <time>2022-09-05T08:06:21.000Z</time>
      </trkpt>
      <trkpt lat="49.87004" lon="4.7681">
        <ele>286</ele>
        <time>2022-09-05T08:06:22.000Z</time>
      </trkpt>
      <trkpt lat="49.87005" lon="4.76814">
        <ele>286</ele>
        <time>2022-09-05T08:06:23.000Z</time>
      </trkpt>
      <trkpt lat="49.87006" lon="4.76817">
        <ele>286</ele>
        <time>2022-09-05T08:06:24.000Z</time>
      </trkpt>
      <trkpt lat="49.87006" lon="4.76822">
        <ele>286</ele>
        <time>2022-09-05T08:06:25.000Z</time>
      </trkpt>
      <trkpt lat="49.87007" lon="4.76826">
        <ele>287</ele>
        <time>2022-09-05T08:06:26.000Z</time>
      </trkpt>
      <trkpt lat="49.87008" lon="4.76831">
        <ele>287</ele>
        <time>2022-09-05T08:06:27.000Z</time>
      </trkpt>
      <trkpt lat="49.87009" lon="4.76835">
        <ele>287</ele>
        <time>2022-09-05T08:06:28.000Z</time>
      </trkpt>
      <trkpt lat="49.87009" lon="4.76839">
        <ele>287</ele>
        <time>2022-09-05T08:06:29.000Z</time>
      </trkpt>
      <trkpt lat="49.87009" lon="4.76842">
        <ele>287</ele>
        <time>2022-09-05T08:06:30.000Z</time>
      </trkpt>
      <trkpt lat="49.8701" lon="4.76846">
        <ele>288</ele>
        <time>2022-09-05T08:06:31.000Z</time>
      </trkpt>
      <trkpt lat="49.8701" lon="4.7685">
        <ele>288</ele>
        <time>2022-09-05T08:06:32.000Z</time>
      </trkpt>
      <trkpt lat="49.87011" lon="4.76855">
        <ele>288</ele>
        <time>2022-09-05T08:06:33.000Z</time>
      </trkpt>
      <trkpt lat="49.87011" lon="4.76859">
        <ele>288</ele>
        <time>2022-09-05T08:06:34.000Z</time>
      </trkpt>
      <trkpt lat="49.87012" lon="4.76863">
        <ele>288</ele>
        <time>2022-09-05T08:06:35.000Z</time>
      </trkpt>
      <trkpt lat="49.87012" lon="4.76867">
        <ele>289</ele>
        <time>2022-09-05T08:06:36.000Z</time>
      </trkpt>
      <trkpt lat="49.87013" lon="4.76871">
        <ele>289</ele>
        <time>2022-09-05T08:06:37.000Z</time>
      </trkpt>
      <trkpt lat="49.87013" lon="4.76874">
        <ele>289</ele>
        <time>2022-09-05T08:06:38.000Z</time>
      </trkpt>
      <trkpt lat="49.87013" lon="4.76877">
        <ele>289</ele>
        <time>2022-09-05T08:06:39.000Z</time>
      </trkpt>
      <trkpt lat="49.87014" lon="4.7688">
        <ele>289</ele>
        <time>2022-09-05T08:06:40.000Z</time>
      </trkpt>
      <trkpt lat="49.87014" lon="4.76883">
        <ele>289</ele>
        <time>2022-09-05T08:06:41.000Z</time>
      </trkpt>
      <trkpt lat="49.87015" lon="4.76886">
        <ele>289</ele>
        <time>2022-09-05T08:06:42.000Z</time>
      </trkpt>
      <trkpt lat="49.87016" lon="4.76889">
        <ele>289</ele>
        <time>2022-09-05T08:06:43.000Z</time>
      </trkpt>
      <trkpt lat="49.87016" lon="4.76892">
        <ele>290</ele>
        <time>2022-09-05T08:06:44.000Z</time>
      </trkpt>
      <trkpt lat="49.87015" lon="4.76895">
        <ele>290</ele>
        <time>2022-09-05T08:06:45.000Z</time>
      </trkpt>
      <trkpt lat="49.87015" lon="4.76897">
        <ele>290</ele>
        <time>2022-09-05T08:06:46.000Z</time>
      </trkpt>
      <trkpt lat="49.87015" lon="4.769">
        <ele>290</ele>
        <time>2022-09-05T08:06:47.000Z</time>
      </trkpt>
      <trkpt lat="49.87016" lon="4.76903">
        <ele>290</ele>
        <time>2022-09-05T08:06:48.000Z</time>
      </trkpt>
      <trkpt lat="49.87016" lon="4.76906">
        <ele>290</ele>
        <time>2022-09-05T08:06:49.000Z</time>
      </trkpt>
      <trkpt lat="49.87016" lon="4.76908">
        <ele>291</ele>
        <time>2022-09-05T08:06:50.000Z</time>
      </trkpt>
      <trkpt lat="49.87017" lon="4.76911">
        <ele>291</ele>
        <time>2022-09-05T08:06:51.000Z</time>
      </trkpt>
      <trkpt lat="49.87017" lon="4.76914">
        <ele>291</ele>
        <time>2022-09-05T08:06:52.000Z</time>
      </trkpt>
      <trkpt lat="49.87017" lon="4.76917">
        <ele>291</ele>
        <time>2022-09-05T08:06:53.000Z</time>
      </trkpt>
      <trkpt lat="49.87018" lon="4.7692">
        <ele>291</ele>
        <time>2022-09-05T08:06:54.000Z</time>
      </trkpt>
      <trkpt lat="49.87018" lon="4.76923">
        <ele>291</ele>
        <time>2022-09-05T08:06:55.000Z</time>
      </trkpt>
      <trkpt lat="49.87018" lon="4.76926">
        <ele>291</ele>
        <time>2022-09-05T08:06:56.000Z</time>
      </trkpt>
      <trkpt lat="49.87018" lon="4.7693">
        <ele>292</ele>
        <time>2022-09-05T08:06:57.000Z</time>
      </trkpt>
      <trkpt lat="49.87019" lon="4.76933">
        <ele>292</ele>
        <time>2022-09-05T08:06:58.000Z</time>
      </trkpt>
      <trkpt lat="49.87019" lon="4.76937">
        <ele>292</ele>
        <time>2022-09-05T08:06:59.000Z</time>
      </trkpt>
      <trkpt lat="49.87019" lon="4.7694">
        <ele>292</ele>
        <time>2022-09-05T08:07:00.000Z</time>
      </trkpt>
      <trkpt lat="49.8702" lon="4.76943">
        <ele>292</ele>
        <time>2022-09-05T08:07:01.000Z</time>
      </trkpt>
      <trkpt lat="49.8702" lon="4.76946">
        <ele>292</ele>
        <time>2022-09-05T08:07:02.000Z</time>
      </trkpt>
      <trkpt lat="49.8702" lon="4.76949">
        <ele>293</ele>
        <time>2022-09-05T08:07:03.000Z</time>
      </trkpt>
      <trkpt lat="49.87021" lon="4.76952">
        <ele>293</ele>
        <time>2022-09-05T08:07:04.000Z</time>
      </trkpt>
      <trkpt lat="49.87021" lon="4.76955">
        <ele>293</ele>
        <time>2022-09-05T08:07:05.000Z</time>
      </trkpt>
      <trkpt lat="49.87021" lon="4.76958">
        <ele>293</ele>
        <time>2022-09-05T08:07:06.000Z</time>
      </trkpt>
      <trkpt lat="49.87021" lon="4.76962">
        <ele>293</ele>
        <time>2022-09-05T08:07:07.000Z</time>
      </trkpt>
      <trkpt lat="49.87022" lon="4.76964">
        <ele>294</ele>
        <time>2022-09-05T08:07:08.000Z</time>
      </trkpt>
      <trkpt lat="49.87022" lon="4.76968">
        <ele>294</ele>
        <time>2022-09-05T08:07:09.000Z</time>
      </trkpt>
      <trkpt lat="49.87023" lon="4.76972">
        <ele>294</ele>
        <time>2022-09-05T08:07:10.000Z</time>
      </trkpt>
      <trkpt lat="49.87023" lon="4.76977">
        <ele>294</ele>
        <time>2022-09-05T08:07:11.000Z</time>
      </trkpt>
      <trkpt lat="49.87023" lon="4.76981">
        <ele>295</ele>
        <time>2022-09-05T08:07:12.000Z</time>
      </trkpt>
      <trkpt lat="49.87023" lon="4.76985">
        <ele>295</ele>
        <time>2022-09-05T08:07:13.000Z</time>
      </trkpt>
      <trkpt lat="49.87022" lon="4.76989">
        <ele>295</ele>
        <time>2022-09-05T08:07:14.000Z</time>
      </trkpt>
      <trkpt lat="49.87022" lon="4.76993">
        <ele>295</ele>
        <time>2022-09-05T08:07:15.000Z</time>
      </trkpt>
      <trkpt lat="49.87022" lon="4.76998">
        <ele>295</ele>
        <time>2022-09-05T08:07:16.000Z</time>
      </trkpt>
      <trkpt lat="49.87022" lon="4.77002">
        <ele>295</ele>
        <time>2022-09-05T08:07:17.000Z</time>
      </trkpt>
      <trkpt lat="49.87022" lon="4.77006">
        <ele>296</ele>
        <time>2022-09-05T08:07:18.000Z</time>
      </trkpt>
      <trkpt lat="49.87021" lon="4.7701">
        <ele>296</ele>
        <time>2022-09-05T08:07:19.000Z</time>
      </trkpt>
      <trkpt lat="49.87021" lon="4.77014">
        <ele>296</ele>
        <time>2022-09-05T08:07:20.000Z</time>
      </trkpt>
      <trkpt lat="49.8702" lon="4.77017">
        <ele>296</ele>
        <time>2022-09-05T08:07:21.000Z</time>
      </trkpt>
      <trkpt lat="49.8702" lon="4.7702">
        <ele>296</ele>
        <time>2022-09-05T08:07:22.000Z</time>
      </trkpt>
      <trkpt lat="49.8702" lon="4.77023">
        <ele>296</ele>
        <time>2022-09-05T08:07:23.000Z</time>
      </trkpt>
      <trkpt lat="49.8702" lon="4.77027">
        <ele>296</ele>
        <time>2022-09-05T08:07:24.000Z</time>
      </trkpt>
      <trkpt lat="49.87019" lon="4.7703">
        <ele>296</ele>
        <time>2022-09-05T08:07:25.000Z</time>
      </trkpt>
      <trkpt lat="49.87019" lon="4.77032">
        <ele>296</ele>
        <time>2022-09-05T08:07:26.000Z</time>
      </trkpt>
      <trkpt lat="49.87018" lon="4.77034">
        <ele>296</ele>
        <time>2022-09-05T08:07:27.000Z</time>
      </trkpt>
      <trkpt lat="49.87017" lon="4.77037">
        <ele>296</ele>
        <time>2022-09-05T08:07:28.000Z</time>
      </trkpt>
      <trkpt lat="49.87016" lon="4.77041">
        <ele>297</ele>
        <time>2022-09-05T08:07:29.000Z</time>
      </trkpt>
      <trkpt lat="49.87015" lon="4.77044">
        <ele>297</ele>
        <time>2022-09-05T08:07:30.000Z</time>
      </trkpt>
      <trkpt lat="49.87014" lon="4.77047">
        <ele>297</ele>
        <time>2022-09-05T08:07:31.000Z</time>
      </trkpt>
      <trkpt lat="49.87013" lon="4.77049">
        <ele>297</ele>
        <time>2022-09-05T08:07:32.000Z</time>
      </trkpt>
      <trkpt lat="49.87011" lon="4.77051">
        <ele>297</ele>
        <time>2022-09-05T08:07:33.000Z</time>
      </trkpt>
      <trkpt lat="49.8701" lon="4.77053">
        <ele>297</ele>
        <time>2022-09-05T08:07:34.000Z</time>
      </trkpt>
      <trkpt lat="49.87009" lon="4.77055">
        <ele>298</ele>
        <time>2022-09-05T08:07:35.000Z</time>
      </trkpt>
      <trkpt lat="49.87009" lon="4.77057">
        <ele>298</ele>
        <time>2022-09-05T08:07:36.000Z</time>
      </trkpt>
      <trkpt lat="49.8701" lon="4.77057">
        <ele>298</ele>
        <time>2022-09-05T08:07:37.000Z</time>
      </trkpt>
      <trkpt lat="49.8701" lon="4.77057">
        <ele>298</ele>
        <time>2022-09-05T08:07:38.000Z</time>
      </trkpt>
      <trkpt lat="49.87011" lon="4.77056">
        <ele>298</ele>
        <time>2022-09-05T08:07:39.000Z</time>
      </trkpt>
      <trkpt lat="49.87011" lon="4.77057">
        <ele>298</ele>
        <time>2022-09-05T08:07:40.000Z</time>
      </trkpt>
      <trkpt lat="49.87011" lon="4.77057">
        <ele>298</ele>
        <time>2022-09-05T08:07:41.000Z</time>
      </trkpt>
      <trkpt lat="49.87011" lon="4.77057">
        <ele>298</ele>
        <time>2022-09-05T08:07:42.000Z</time>
      </trkpt>
      <trkpt lat="49.8701" lon="4.77057">
        <ele>299</ele>
        <time>2022-09-05T08:07:43.000Z</time>
      </trkpt>
      <trkpt lat="49.8701" lon="4.77057">
        <ele>299</ele>
        <time>2022-09-05T08:07:44.000Z</time>
      </trkpt>
      <trkpt lat="49.8701" lon="4.77057">
        <ele>299</ele>
        <time>2022-09-05T08:07:45.000Z</time>
      </trkpt>
      <trkpt lat="49.8701" lon="4.77057">
        <ele>299</ele>
        <time>2022-09-05T08:07:46.000Z</time>
      </trkpt>
      <trkpt lat="49.8701" lon="4.77057">
        <ele>299</ele>
        <time>2022-09-05T08:07:47.000Z</time>
      </trkpt>
      <trkpt lat="49.8701" lon="4.77057">
        <ele>299</ele>
        <time>2022-09-05T08:07:48.000Z</time>
      </trkpt>
      <trkpt lat="49.8701" lon="4.77057">
        <ele>299</ele>
        <time>2022-09-05T08:07:49.000Z</time>
      </trkpt>
      <trkpt lat="49.8701" lon="4.77057">
        <ele>299</ele>
        <time>2022-09-05T08:07:50.000Z</time>
      </trkpt>
      <trkpt lat="49.87009" lon="4.77057">
        <ele>299</ele>
        <time>2022-09-05T08:07:51.000Z</time>
      </trkpt>
      <trkpt lat="49.87009" lon="4.77057">
        <ele>299</ele>
        <time>2022-09-05T08:07:52.000Z</time>
      </trkpt>
      <trkpt lat="49.87009" lon="4.77057">
        <ele>299</ele>
        <time>2022-09-05T08:07:53.000Z</time>
      </trkpt>
      <trkpt lat="49.87009" lon="4.77057">
        <ele>299</ele>
        <time>2022-09-05T08:07:54.000Z</time>
      </trkpt>
      <trkpt lat="49.87009" lon="4.77057">
        <ele>299</ele>
        <time>2022-09-05T08:07:55.000Z</time>
      </trkpt>
      <trkpt lat="49.87009" lon="4.77057">
        <ele>299</ele>
        <time>2022-09-05T08:07:56.000Z</time>
      </trkpt>
      <trkpt lat="49.87009" lon="4.77056">
        <ele>299</ele>
        <time>2022-09-05T08:07:57.000Z</time>
      </trkpt>
      <trkpt lat="49.87009" lon="4.77056">
        <ele>299</ele>
        <time>2022-09-05T08:07:58.000Z</time>
      </trkpt>
      <trkpt lat="49.87009" lon="4.77056">
        <ele>299</ele>
        <time>2022-09-05T08:07:59.000Z</time>
      </trkpt>
      <trkpt lat="49.87009" lon="4.77056">
        <ele>299</ele>
        <time>2022-09-05T08:08:00.000Z</time>
      </trkpt>
      <trkpt lat="49.87009" lon="4.77056">
        <ele>299</ele>
        <time>2022-09-05T08:08:01.000Z</time>
      </trkpt>
      <trkpt lat="49.87009" lon="4.77056">
        <ele>299</ele>
        <time>2022-09-05T08:08:02.000Z</time>
      </trkpt>
      <trkpt lat="49.87009" lon="4.77056">
        <ele>299</ele>
        <time>2022-09-05T08:08:03.000Z</time>
      </trkpt>
      <trkpt lat="49.87009" lon="4.77056">
        <ele>299</ele>
        <time>2022-09-05T08:08:04.000Z</time>
      </trkpt>
      <trkpt lat="49.87009" lon="4.77056">
        <ele>300</ele>
        <time>2022-09-05T08:08:05.000Z</time>
      </trkpt>
      <trkpt lat="49.87009" lon="4.77056">
        <ele>300</ele>
        <time>2022-09-05T08:08:06.000Z</time>
      </trkpt>
      <trkpt lat="49.87009" lon="4.77056">
        <ele>300</ele>
        <time>2022-09-05T08:08:07.000Z</time>
      </trkpt>
      <trkpt lat="49.87009" lon="4.77056">
        <ele>300</ele>
        <time>2022-09-05T08:08:08.000Z</time>
      </trkpt>
      <trkpt lat="49.87009" lon="4.77056">
        <ele>300</ele>
        <time>2022-09-05T08:08:09.000Z</time>
      </trkpt>
      <trkpt lat="49.87009" lon="4.77056">
        <ele>300</ele>
        <time>2022-09-05T08:08:10.000Z</time>
      </trkpt>
      <trkpt lat="49.87009" lon="4.77056">
        <ele>300</ele>
        <time>2022-09-05T08:08:11.000Z</time>
      </trkpt>
      <trkpt lat="49.87009" lon="4.77056">
        <ele>300</ele>
        <time>2022-09-05T08:08:12.000Z</time>
      </trkpt>
      <trkpt lat="49.87009" lon="4.77056">
        <ele>300</ele>
        <time>2022-09-05T08:08:13.000Z</time>
      </trkpt>
      <trkpt lat="49.87009" lon="4.77056">
        <ele>300</ele>
        <time>2022-09-05T08:08:14.000Z</time>
      </trkpt>
      <trkpt lat="49.87008" lon="4.77056">
        <ele>300</ele>
        <time>2022-09-05T08:08:15.000Z</time>
      </trkpt>
      <trkpt lat="49.87008" lon="4.77055">
        <ele>300</ele>
        <time>2022-09-05T08:08:16.000Z</time>
      </trkpt>
      <trkpt lat="49.87008" lon="4.77055">
        <ele>300</ele>
        <time>2022-09-05T08:08:17.000Z</time>
      </trkpt>
      <trkpt lat="49.87008" lon="4.77055">
        <ele>300</ele>
        <time>2022-09-05T08:08:18.000Z</time>
      </trkpt>
      <trkpt lat="49.87008" lon="4.77055">
        <ele>300</ele>
        <time>2022-09-05T08:08:19.000Z</time>
      </trkpt>
      <trkpt lat="49.87008" lon="4.77055">
        <ele>300</ele>
        <time>2022-09-05T08:08:20.000Z</time>
      </trkpt>
      <trkpt lat="49.87008" lon="4.77055">
        <ele>300</ele>
        <time>2022-09-05T08:08:21.000Z</time>
      </trkpt>
      <trkpt lat="49.87008" lon="4.77054">
        <ele>300</ele>
        <time>2022-09-05T08:08:22.000Z</time>
      </trkpt>
      <trkpt lat="49.87008" lon="4.77054">
        <ele>300</ele>
        <time>2022-09-05T08:08:23.000Z</time>
      </trkpt>
      <trkpt lat="49.87008" lon="4.77054">
        <ele>300</ele>
        <time>2022-09-05T08:08:24.000Z</time>
      </trkpt>
      <trkpt lat="49.87008" lon="4.77054">
        <ele>300</ele>
        <time>2022-09-05T08:08:25.000Z</time>
      </trkpt>
      <trkpt lat="49.87008" lon="4.77054">
        <ele>300</ele>
        <time>2022-09-05T08:08:26.000Z</time>
      </trkpt>
      <trkpt lat="49.87008" lon="4.77054">
        <ele>300</ele>
        <time>2022-09-05T08:08:27.000Z</time>
      </trkpt>
      <trkpt lat="49.87008" lon="4.77054">
        <ele>300</ele>
        <time>2022-09-05T08:08:28.000Z</time>
      </trkpt>
      <trkpt lat="49.87008" lon="4.77054">
        <ele>300</ele>
        <time>2022-09-05T08:08:29.000Z</time>
      </trkpt>
      <trkpt lat="49.87008" lon="4.77054">
        <ele>300</ele>
        <time>2022-09-05T08:08:30.000Z</time>
      </trkpt>
      <trkpt lat="49.87008" lon="4.77054">
        <ele>300</ele>
        <time>2022-09-05T08:08:31.000Z</time>
      </trkpt>
      <trkpt lat="49.87008" lon="4.77054">
        <ele>300</ele>
        <time>2022-09-05T08:08:32.000Z</time>
      </trkpt>
      <trkpt lat="49.87008" lon="4.77054">
        <ele>300</ele>
        <time>2022-09-05T08:08:33.000Z</time>
      </trkpt>
      <trkpt lat="49.87008" lon="4.77054">
        <ele>300</ele>
        <time>2022-09-05T08:08:34.000Z</time>
      </trkpt>
      <trkpt lat="49.87008" lon="4.77054">
        <ele>300</ele>
        <time>2022-09-05T08:08:35.000Z</time>
      </trkpt>
      <trkpt lat="49.87008" lon="4.77053">
        <ele>300</ele>
        <time>2022-09-05T08:08:36.000Z</time>
      </trkpt>
      <trkpt lat="49.87009" lon="4.77052">
        <ele>300</ele>
        <time>2022-09-05T08:08:37.000Z</time>
      </trkpt>
      <trkpt lat="49.87009" lon="4.7705">
        <ele>300</ele>
        <time>2022-09-05T08:08:38.000Z</time>
      </trkpt>
      <trkpt lat="49.8701" lon="4.77048">
        <ele>300</ele>
        <time>2022-09-05T08:08:39.000Z</time>
      </trkpt>
      <trkpt lat="49.87011" lon="4.77046">
        <ele>300</ele>
        <time>2022-09-05T08:08:40.000Z</time>
      </trkpt>
      <trkpt lat="49.87012" lon="4.77044">
        <ele>300</ele>
        <time>2022-09-05T08:08:41.000Z</time>
      </trkpt>
      <trkpt lat="49.87013" lon="4.77041">
        <ele>300</ele>
        <time>2022-09-05T08:08:42.000Z</time>
      </trkpt>
      <trkpt lat="49.87014" lon="4.77038">
        <ele>300</ele>
        <time>2022-09-05T08:08:43.000Z</time>
      </trkpt>
      <trkpt lat="49.87016" lon="4.77036">
        <ele>300</ele>
        <time>2022-09-05T08:08:44.000Z</time>
      </trkpt>
      <trkpt lat="49.87018" lon="4.77034">
        <ele>300</ele>
        <time>2022-09-05T08:08:45.000Z</time>
      </trkpt>
      <trkpt lat="49.8702" lon="4.77032">
        <ele>300</ele>
        <time>2022-09-05T08:08:46.000Z</time>
      </trkpt>
      <trkpt lat="49.87021" lon="4.77031">
        <ele>300</ele>
        <time>2022-09-05T08:08:47.000Z</time>
      </trkpt>
      <trkpt lat="49.87022" lon="4.77029">
        <ele>300</ele>
        <time>2022-09-05T08:08:48.000Z</time>
      </trkpt>
      <trkpt lat="49.87024" lon="4.77028">
        <ele>300</ele>
        <time>2022-09-05T08:08:49.000Z</time>
      </trkpt>
      <trkpt lat="49.87025" lon="4.77026">
        <ele>300</ele>
        <time>2022-09-05T08:08:50.000Z</time>
      </trkpt>
      <trkpt lat="49.87027" lon="4.77024">
        <ele>301</ele>
        <time>2022-09-05T08:08:51.000Z</time>
      </trkpt>
      <trkpt lat="49.87029" lon="4.77022">
        <ele>301</ele>
        <time>2022-09-05T08:08:52.000Z</time>
      </trkpt>
      <trkpt lat="49.87031" lon="4.77019">
        <ele>301</ele>
        <time>2022-09-05T08:08:53.000Z</time>
      </trkpt>
      <trkpt lat="49.87033" lon="4.77016">
        <ele>301</ele>
        <time>2022-09-05T08:08:54.000Z</time>
      </trkpt>
      <trkpt lat="49.87036" lon="4.77013">
        <ele>301</ele>
        <time>2022-09-05T08:08:55.000Z</time>
      </trkpt>
      <trkpt lat="49.87038" lon="4.7701">
        <ele>301</ele>
        <time>2022-09-05T08:08:56.000Z</time>
      </trkpt>
      <trkpt lat="49.87041" lon="4.77006">
        <ele>301</ele>
        <time>2022-09-05T08:08:57.000Z</time>
      </trkpt>
      <trkpt lat="49.87043" lon="4.77003">
        <ele>301</ele>
        <time>2022-09-05T08:08:58.000Z</time>
      </trkpt>
      <trkpt lat="49.87046" lon="4.77">
        <ele>302</ele>
        <time>2022-09-05T08:08:59.000Z</time>
      </trkpt>
      <trkpt lat="49.87048" lon="4.76996">
        <ele>302</ele>
        <time>2022-09-05T08:09:00.000Z</time>
      </trkpt>
      <trkpt lat="49.8705" lon="4.76993">
        <ele>302</ele>
        <time>2022-09-05T08:09:01.000Z</time>
      </trkpt>
      <trkpt lat="49.87052" lon="4.7699">
        <ele>302</ele>
        <time>2022-09-05T08:09:02.000Z</time>
      </trkpt>
      <trkpt lat="49.87054" lon="4.76988">
        <ele>302</ele>
        <time>2022-09-05T08:09:03.000Z</time>
      </trkpt>
      <trkpt lat="49.87057" lon="4.76985">
        <ele>302</ele>
        <time>2022-09-05T08:09:04.000Z</time>
      </trkpt>
      <trkpt lat="49.87059" lon="4.76982">
        <ele>302</ele>
        <time>2022-09-05T08:09:05.000Z</time>
      </trkpt>
      <trkpt lat="49.87062" lon="4.76979">
        <ele>302</ele>
        <time>2022-09-05T08:09:06.000Z</time>
      </trkpt>
      <trkpt lat="49.87064" lon="4.76976">
        <ele>303</ele>
        <time>2022-09-05T08:09:07.000Z</time>
      </trkpt>
      <trkpt lat="49.87067" lon="4.76974">
        <ele>303</ele>
        <time>2022-09-05T08:09:08.000Z</time>
      </trkpt>
      <trkpt lat="49.87069" lon="4.76972">
        <ele>303</ele>
        <time>2022-09-05T08:09:09.000Z</time>
      </trkpt>
      <trkpt lat="49.87072" lon="4.7697">
        <ele>303</ele>
        <time>2022-09-05T08:09:10.000Z</time>
      </trkpt>
      <trkpt lat="49.87074" lon="4.76969">
        <ele>303</ele>
        <time>2022-09-05T08:09:11.000Z</time>
      </trkpt>
      <trkpt lat="49.87076" lon="4.76968">
        <ele>303</ele>
        <time>2022-09-05T08:09:12.000Z</time>
      </trkpt>
      <trkpt lat="49.87078" lon="4.76968">
        <ele>304</ele>
        <time>2022-09-05T08:09:13.000Z</time>
      </trkpt>
      <trkpt lat="49.87079" lon="4.76967">
        <ele>304</ele>
        <time>2022-09-05T08:09:14.000Z</time>
      </trkpt>
      <trkpt lat="49.8708" lon="4.76967">
        <ele>304</ele>
        <time>2022-09-05T08:09:15.000Z</time>
      </trkpt>
      <trkpt lat="49.8708" lon="4.76967">
        <ele>304</ele>
        <time>2022-09-05T08:09:16.000Z</time>
      </trkpt>
      <trkpt lat="49.87081" lon="4.76967">
        <ele>305</ele>
        <time>2022-09-05T08:09:17.000Z</time>
      </trkpt>
      <trkpt lat="49.87081" lon="4.76967">
        <ele>305</ele>
        <time>2022-09-05T08:09:18.000Z</time>
      </trkpt>
      <trkpt lat="49.87081" lon="4.76967">
        <ele>305</ele>
        <time>2022-09-05T08:09:19.000Z</time>
      </trkpt>
      <trkpt lat="49.87082" lon="4.76967">
        <ele>305</ele>
        <time>2022-09-05T08:09:20.000Z</time>
      </trkpt>
      <trkpt lat="49.87082" lon="4.76967">
        <ele>305</ele>
        <time>2022-09-05T08:09:21.000Z</time>
      </trkpt>
      <trkpt lat="49.87082" lon="4.76967">
        <ele>305</ele>
        <time>2022-09-05T08:09:22.000Z</time>
      </trkpt>
      <trkpt lat="49.87083" lon="4.76967">
        <ele>305</ele>
        <time>2022-09-05T08:09:23.000Z</time>
      </trkpt>
      <trkpt lat="49.87083" lon="4.76966">
        <ele>306</ele>
        <time>2022-09-05T08:09:24.000Z</time>
      </trkpt>
      <trkpt lat="49.87083" lon="4.76966">
        <ele>306</ele>
        <time>2022-09-05T08:09:25.000Z</time>
      </trkpt>
      <trkpt lat="49.87083" lon="4.76966">
        <ele>306</ele>
        <time>2022-09-05T08:09:26.000Z</time>
      </trkpt>
      <trkpt lat="49.87083" lon="4.76966">
        <ele>306</ele>
        <time>2022-09-05T08:09:27.000Z</time>
      </trkpt>
      <trkpt lat="49.87083" lon="4.76965">
        <ele>306</ele>
        <time>2022-09-05T08:09:28.000Z</time>
      </trkpt>
      <trkpt lat="49.87084" lon="4.76965">
        <ele>307</ele>
        <time>2022-09-05T08:09:29.000Z</time>
      </trkpt>
      <trkpt lat="49.87084" lon="4.76965">
        <ele>307</ele>
        <time>2022-09-05T08:09:30.000Z</time>
      </trkpt>
      <trkpt lat="49.87084" lon="4.76965">
        <ele>307</ele>
        <time>2022-09-05T08:09:31.000Z</time>
      </trkpt>
      <trkpt lat="49.87084" lon="4.76964">
        <ele>307</ele>
        <time>2022-09-05T08:09:32.000Z</time>
      </trkpt>
      <trkpt lat="49.87085" lon="4.76964">
        <ele>307</ele>
        <time>2022-09-05T08:09:33.000Z</time>
      </trkpt>
      <trkpt lat="49.87087" lon="4.76962">
        <ele>307</ele>
        <time>2022-09-05T08:09:34.000Z</time>
      </trkpt>
      <trkpt lat="49.87088" lon="4.7696">
        <ele>307</ele>
        <time>2022-09-05T08:09:35.000Z</time>
      </trkpt>
      <trkpt lat="49.8709" lon="4.76958">
        <ele>307</ele>
        <time>2022-09-05T08:09:36.000Z</time>
      </trkpt>
      <trkpt lat="49.87091" lon="4.76956">
        <ele>307</ele>
        <time>2022-09-05T08:09:37.000Z</time>
      </trkpt>
      <trkpt lat="49.87093" lon="4.76953">
        <ele>307</ele>
        <time>2022-09-05T08:09:38.000Z</time>
      </trkpt>
      <trkpt lat="49.87095" lon="4.76951">
        <ele>307</ele>
        <time>2022-09-05T08:09:39.000Z</time>
      </trkpt>
      <trkpt lat="49.87097" lon="4.76949">
        <ele>307</ele>
        <time>2022-09-05T08:09:40.000Z</time>
      </trkpt>
      <trkpt lat="49.871" lon="4.76947">
        <ele>307</ele>
        <time>2022-09-05T08:09:41.000Z</time>
      </trkpt>
      <trkpt lat="49.87102" lon="4.76944">
        <ele>308</ele>
        <time>2022-09-05T08:09:42.000Z</time>
      </trkpt>
      <trkpt lat="49.87105" lon="4.76942">
        <ele>308</ele>
        <time>2022-09-05T08:09:43.000Z</time>
      </trkpt>
      <trkpt lat="49.87107" lon="4.7694">
        <ele>308</ele>
        <time>2022-09-05T08:09:44.000Z</time>
      </trkpt>
      <trkpt lat="49.87109" lon="4.76938">
        <ele>308</ele>
        <time>2022-09-05T08:09:45.000Z</time>
      </trkpt>
      <trkpt lat="49.87111" lon="4.76936">
        <ele>308</ele>
        <time>2022-09-05T08:09:46.000Z</time>
      </trkpt>
      <trkpt lat="49.87113" lon="4.76934">
        <ele>308</ele>
        <time>2022-09-05T08:09:47.000Z</time>
      </trkpt>
      <trkpt lat="49.87115" lon="4.76932">
        <ele>308</ele>
        <time>2022-09-05T08:09:48.000Z</time>
      </trkpt>
      <trkpt lat="49.87116" lon="4.76931">
        <ele>308</ele>
        <time>2022-09-05T08:09:49.000Z</time>
      </trkpt>
      <trkpt lat="49.87118" lon="4.76929">
        <ele>308</ele>
        <time>2022-09-05T08:09:50.000Z</time>
      </trkpt>
      <trkpt lat="49.87119" lon="4.76928">
        <ele>308</ele>
        <time>2022-09-05T08:09:51.000Z</time>
      </trkpt>
      <trkpt lat="49.87121" lon="4.76925">
        <ele>308</ele>
        <time>2022-09-05T08:09:52.000Z</time>
      </trkpt>
      <trkpt lat="49.87123" lon="4.76923">
        <ele>308</ele>
        <time>2022-09-05T08:09:53.000Z</time>
      </trkpt>
      <trkpt lat="49.87125" lon="4.76921">
        <ele>308</ele>
        <time>2022-09-05T08:09:54.000Z</time>
      </trkpt>
      <trkpt lat="49.87126" lon="4.76918">
        <ele>308</ele>
        <time>2022-09-05T08:09:55.000Z</time>
      </trkpt>
      <trkpt lat="49.87128" lon="4.76916">
        <ele>308</ele>
        <time>2022-09-05T08:09:56.000Z</time>
      </trkpt>
      <trkpt lat="49.8713" lon="4.76913">
        <ele>308</ele>
        <time>2022-09-05T08:09:57.000Z</time>
      </trkpt>
      <trkpt lat="49.87132" lon="4.76911">
        <ele>308</ele>
        <time>2022-09-05T08:09:58.000Z</time>
      </trkpt>
      <trkpt lat="49.87133" lon="4.7691">
        <ele>308</ele>
        <time>2022-09-05T08:09:59.000Z</time>
      </trkpt>
      <trkpt lat="49.87134" lon="4.76908">
        <ele>308</ele>
        <time>2022-09-05T08:10:00.000Z</time>
      </trkpt>
      <trkpt lat="49.87135" lon="4.76907">
        <ele>308</ele>
        <time>2022-09-05T08:10:01.000Z</time>
      </trkpt>
      <trkpt lat="49.87136" lon="4.76905">
        <ele>308</ele>
        <time>2022-09-05T08:10:02.000Z</time>
      </trkpt>
      <trkpt lat="49.87137" lon="4.76904">
        <ele>309</ele>
        <time>2022-09-05T08:10:03.000Z</time>
      </trkpt>
      <trkpt lat="49.87138" lon="4.76903">
        <ele>309</ele>
        <time>2022-09-05T08:10:04.000Z</time>
      </trkpt>
      <trkpt lat="49.8714" lon="4.76901">
        <ele>309</ele>
        <time>2022-09-05T08:10:05.000Z</time>
      </trkpt>
      <trkpt lat="49.8714" lon="4.76899">
        <ele>309</ele>
        <time>2022-09-05T08:10:06.000Z</time>
      </trkpt>
      <trkpt lat="49.87141" lon="4.76898">
        <ele>309</ele>
        <time>2022-09-05T08:10:07.000Z</time>
      </trkpt>
      <trkpt lat="49.87142" lon="4.76896">
        <ele>309</ele>
        <time>2022-09-05T08:10:08.000Z</time>
      </trkpt>
      <trkpt lat="49.87143" lon="4.76895">
        <ele>310</ele>
        <time>2022-09-05T08:10:09.000Z</time>
      </trkpt>
      <trkpt lat="49.87144" lon="4.76893">
        <ele>310</ele>
        <time>2022-09-05T08:10:10.000Z</time>
      </trkpt>
      <trkpt lat="49.87145" lon="4.76891">
        <ele>310</ele>
        <time>2022-09-05T08:10:11.000Z</time>
      </trkpt>
      <trkpt lat="49.87146" lon="4.76888">
        <ele>310</ele>
        <time>2022-09-05T08:10:12.000Z</time>
      </trkpt>
      <trkpt lat="49.87148" lon="4.76885">
        <ele>310</ele>
        <time>2022-09-05T08:10:13.000Z</time>
      </trkpt>
      <trkpt lat="49.87149" lon="4.76882">
        <ele>311</ele>
        <time>2022-09-05T08:10:14.000Z</time>
      </trkpt>
      <trkpt lat="49.87151" lon="4.76879">
        <ele>311</ele>
        <time>2022-09-05T08:10:15.000Z</time>
      </trkpt>
      <trkpt lat="49.87152" lon="4.76877">
        <ele>311</ele>
        <time>2022-09-05T08:10:16.000Z</time>
      </trkpt>
      <trkpt lat="49.87153" lon="4.76874">
        <ele>311</ele>
        <time>2022-09-05T08:10:17.000Z</time>
      </trkpt>
      <trkpt lat="49.87155" lon="4.76872">
        <ele>311</ele>
        <time>2022-09-05T08:10:18.000Z</time>
      </trkpt>
      <trkpt lat="49.87156" lon="4.76869">
        <ele>312</ele>
        <time>2022-09-05T08:10:19.000Z</time>
      </trkpt>
      <trkpt lat="49.87158" lon="4.76866">
        <ele>312</ele>
        <time>2022-09-05T08:10:20.000Z</time>
      </trkpt>
      <trkpt lat="49.87159" lon="4.76864">
        <ele>312</ele>
        <time>2022-09-05T08:10:21.000Z</time>
      </trkpt>
      <trkpt lat="49.87161" lon="4.76862">
        <ele>312</ele>
        <time>2022-09-05T08:10:22.000Z</time>
      </trkpt>
      <trkpt lat="49.87162" lon="4.7686">
        <ele>312</ele>
        <time>2022-09-05T08:10:23.000Z</time>
      </trkpt>
      <trkpt lat="49.87164" lon="4.76857">
        <ele>312</ele>
        <time>2022-09-05T08:10:24.000Z</time>
      </trkpt>
      <trkpt lat="49.87165" lon="4.76855">
        <ele>312</ele>
        <time>2022-09-05T08:10:25.000Z</time>
      </trkpt>
      <trkpt lat="49.87167" lon="4.76853">
        <ele>312</ele>
        <time>2022-09-05T08:10:26.000Z</time>
      </trkpt>
      <trkpt lat="49.87168" lon="4.76851">
        <ele>313</ele>
        <time>2022-09-05T08:10:27.000Z</time>
      </trkpt>
      <trkpt lat="49.8717" lon="4.76848">
        <ele>313</ele>
        <time>2022-09-05T08:10:28.000Z</time>
      </trkpt>
      <trkpt lat="49.87172" lon="4.76845">
        <ele>313</ele>
        <time>2022-09-05T08:10:29.000Z</time>
      </trkpt>
      <trkpt lat="49.87174" lon="4.76843">
        <ele>313</ele>
        <time>2022-09-05T08:10:30.000Z</time>
      </trkpt>
      <trkpt lat="49.87175" lon="4.7684">
        <ele>313</ele>
        <time>2022-09-05T08:10:31.000Z</time>
      </trkpt>
      <trkpt lat="49.87176" lon="4.76838">
        <ele>313</ele>
        <time>2022-09-05T08:10:32.000Z</time>
      </trkpt>
      <trkpt lat="49.87177" lon="4.76835">
        <ele>313</ele>
        <time>2022-09-05T08:10:33.000Z</time>
      </trkpt>
      <trkpt lat="49.87179" lon="4.76833">
        <ele>314</ele>
        <time>2022-09-05T08:10:34.000Z</time>
      </trkpt>
      <trkpt lat="49.8718" lon="4.76831">
        <ele>314</ele>
        <time>2022-09-05T08:10:35.000Z</time>
      </trkpt>
      <trkpt lat="49.87181" lon="4.76829">
        <ele>314</ele>
        <time>2022-09-05T08:10:36.000Z</time>
      </trkpt>
      <trkpt lat="49.87182" lon="4.76826">
        <ele>314</ele>
        <time>2022-09-05T08:10:37.000Z</time>
      </trkpt>
      <trkpt lat="49.87184" lon="4.76824">
        <ele>314</ele>
        <time>2022-09-05T08:10:38.000Z</time>
      </trkpt>
      <trkpt lat="49.87185" lon="4.76822">
        <ele>314</ele>
        <time>2022-09-05T08:10:39.000Z</time>
      </trkpt>
      <trkpt lat="49.87186" lon="4.76819">
        <ele>315</ele>
        <time>2022-09-05T08:10:40.000Z</time>
      </trkpt>
      <trkpt lat="49.87188" lon="4.76817">
        <ele>315</ele>
        <time>2022-09-05T08:10:41.000Z</time>
      </trkpt>
      <trkpt lat="49.87189" lon="4.76815">
        <ele>315</ele>
        <time>2022-09-05T08:10:42.000Z</time>
      </trkpt>
      <trkpt lat="49.8719" lon="4.76813">
        <ele>315</ele>
        <time>2022-09-05T08:10:43.000Z</time>
      </trkpt>
      <trkpt lat="49.87191" lon="4.76811">
        <ele>316</ele>
        <time>2022-09-05T08:10:44.000Z</time>
      </trkpt>
      <trkpt lat="49.87192" lon="4.76809">
        <ele>316</ele>
        <time>2022-09-05T08:10:45.000Z</time>
      </trkpt>
      <trkpt lat="49.87194" lon="4.76807">
        <ele>316</ele>
        <time>2022-09-05T08:10:46.000Z</time>
      </trkpt>
      <trkpt lat="49.87195" lon="4.76804">
        <ele>317</ele>
        <time>2022-09-05T08:10:47.000Z</time>
      </trkpt>
      <trkpt lat="49.87196" lon="4.76802">
        <ele>317</ele>
        <time>2022-09-05T08:10:48.000Z</time>
      </trkpt>
      <trkpt lat="49.87197" lon="4.768">
        <ele>317</ele>
        <time>2022-09-05T08:10:49.000Z</time>
      </trkpt>
      <trkpt lat="49.87198" lon="4.76798">
        <ele>318</ele>
        <time>2022-09-05T08:10:50.000Z</time>
      </trkpt>
      <trkpt lat="49.87199" lon="4.76796">
        <ele>318</ele>
        <time>2022-09-05T08:10:51.000Z</time>
      </trkpt>
      <trkpt lat="49.872" lon="4.76794">
        <ele>318</ele>
        <time>2022-09-05T08:10:52.000Z</time>
      </trkpt>
      <trkpt lat="49.87201" lon="4.76792">
        <ele>319</ele>
        <time>2022-09-05T08:10:53.000Z</time>
      </trkpt>
      <trkpt lat="49.87203" lon="4.7679">
        <ele>319</ele>
        <time>2022-09-05T08:10:54.000Z</time>
      </trkpt>
      <trkpt lat="49.87204" lon="4.76788">
        <ele>319</ele>
        <time>2022-09-05T08:10:55.000Z</time>
      </trkpt>
      <trkpt lat="49.87205" lon="4.76786">
        <ele>319</ele>
        <time>2022-09-05T08:10:56.000Z</time>
      </trkpt>
      <trkpt lat="49.87206" lon="4.76784">
        <ele>320</ele>
        <time>2022-09-05T08:10:57.000Z</time>
      </trkpt>
      <trkpt lat="49.87208" lon="4.76781">
        <ele>320</ele>
        <time>2022-09-05T08:10:58.000Z</time>
      </trkpt>
      <trkpt lat="49.87209" lon="4.76779">
        <ele>320</ele>
        <time>2022-09-05T08:10:59.000Z</time>
      </trkpt>
      <trkpt lat="49.8721" lon="4.76776">
        <ele>320</ele>
        <time>2022-09-05T08:11:00.000Z</time>
      </trkpt>
      <trkpt lat="49.87211" lon="4.76774">
        <ele>321</ele>
        <time>2022-09-05T08:11:01.000Z</time>
      </trkpt>
      <trkpt lat="49.87213" lon="4.76772">
        <ele>321</ele>
        <time>2022-09-05T08:11:02.000Z</time>
      </trkpt>
      <trkpt lat="49.87214" lon="4.7677">
        <ele>321</ele>
        <time>2022-09-05T08:11:03.000Z</time>
      </trkpt>
      <trkpt lat="49.87215" lon="4.76768">
        <ele>321</ele>
        <time>2022-09-05T08:11:04.000Z</time>
      </trkpt>
      <trkpt lat="49.87216" lon="4.76766">
        <ele>322</ele>
        <time>2022-09-05T08:11:05.000Z</time>
      </trkpt>
      <trkpt lat="49.87216" lon="4.76763">
        <ele>322</ele>
        <time>2022-09-05T08:11:06.000Z</time>
      </trkpt>
      <trkpt lat="49.87217" lon="4.76761">
        <ele>322</ele>
        <time>2022-09-05T08:11:07.000Z</time>
      </trkpt>
      <trkpt lat="49.87218" lon="4.76759">
        <ele>322</ele>
        <time>2022-09-05T08:11:08.000Z</time>
      </trkpt>
      <trkpt lat="49.87218" lon="4.76756">
        <ele>323</ele>
        <time>2022-09-05T08:11:09.000Z</time>
      </trkpt>
      <trkpt lat="49.87219" lon="4.76754">
        <ele>323</ele>
        <time>2022-09-05T08:11:10.000Z</time>
      </trkpt>
      <trkpt lat="49.8722" lon="4.76752">
        <ele>323</ele>
        <time>2022-09-05T08:11:11.000Z</time>
      </trkpt>
      <trkpt lat="49.87221" lon="4.76749">
        <ele>324</ele>
        <time>2022-09-05T08:11:12.000Z</time>
      </trkpt>
      <trkpt lat="49.87222" lon="4.76747">
        <ele>324</ele>
        <time>2022-09-05T08:11:13.000Z</time>
      </trkpt>
      <trkpt lat="49.87223" lon="4.76745">
        <ele>324</ele>
        <time>2022-09-05T08:11:14.000Z</time>
      </trkpt>
      <trkpt lat="49.87225" lon="4.76743">
        <ele>324</ele>
        <time>2022-09-05T08:11:15.000Z</time>
      </trkpt>
      <trkpt lat="49.87227" lon="4.76742">
        <ele>325</ele>
        <time>2022-09-05T08:11:16.000Z</time>
      </trkpt>
      <trkpt lat="49.87229" lon="4.76741">
        <ele>325</ele>
        <time>2022-09-05T08:11:17.000Z</time>
      </trkpt>
      <trkpt lat="49.8723" lon="4.76739">
        <ele>325</ele>
        <time>2022-09-05T08:11:18.000Z</time>
      </trkpt>
      <trkpt lat="49.8723" lon="4.76737">
        <ele>325</ele>
        <time>2022-09-05T08:11:19.000Z</time>
      </trkpt>
      <trkpt lat="49.87231" lon="4.76734">
        <ele>325</ele>
        <time>2022-09-05T08:11:20.000Z</time>
      </trkpt>
      <trkpt lat="49.87232" lon="4.76732">
        <ele>326</ele>
        <time>2022-09-05T08:11:21.000Z</time>
      </trkpt>
      <trkpt lat="49.87232" lon="4.76729">
        <ele>326</ele>
        <time>2022-09-05T08:11:22.000Z</time>
      </trkpt>
      <trkpt lat="49.87232" lon="4.76727">
        <ele>326</ele>
        <time>2022-09-05T08:11:23.000Z</time>
      </trkpt>
      <trkpt lat="49.87233" lon="4.76724">
        <ele>326</ele>
        <time>2022-09-05T08:11:24.000Z</time>
      </trkpt>
      <trkpt lat="49.87234" lon="4.7672">
        <ele>327</ele>
        <time>2022-09-05T08:11:25.000Z</time>
      </trkpt>
      <trkpt lat="49.87234" lon="4.76717">
        <ele>327</ele>
        <time>2022-09-05T08:11:26.000Z</time>
      </trkpt>
      <trkpt lat="49.87235" lon="4.76714">
        <ele>327</ele>
        <time>2022-09-05T08:11:27.000Z</time>
      </trkpt>
      <trkpt lat="49.87236" lon="4.76711">
        <ele>327</ele>
        <time>2022-09-05T08:11:28.000Z</time>
      </trkpt>
      <trkpt lat="49.87237" lon="4.76709">
        <ele>327</ele>
        <time>2022-09-05T08:11:29.000Z</time>
      </trkpt>
      <trkpt lat="49.87238" lon="4.76706">
        <ele>328</ele>
        <time>2022-09-05T08:11:30.000Z</time>
      </trkpt>
      <trkpt lat="49.87239" lon="4.76704">
        <ele>328</ele>
        <time>2022-09-05T08:11:31.000Z</time>
      </trkpt>
      <trkpt lat="49.8724" lon="4.76701">
        <ele>328</ele>
        <time>2022-09-05T08:11:32.000Z</time>
      </trkpt>
      <trkpt lat="49.87241" lon="4.76699">
        <ele>329</ele>
        <time>2022-09-05T08:11:33.000Z</time>
      </trkpt>
      <trkpt lat="49.87242" lon="4.76697">
        <ele>329</ele>
        <time>2022-09-05T08:11:34.000Z</time>
      </trkpt>
      <trkpt lat="49.87243" lon="4.76695">
        <ele>329</ele>
        <time>2022-09-05T08:11:35.000Z</time>
      </trkpt>
      <trkpt lat="49.87243" lon="4.76694">
        <ele>329</ele>
        <time>2022-09-05T08:11:36.000Z</time>
      </trkpt>
      <trkpt lat="49.87244" lon="4.76692">
        <ele>330</ele>
        <time>2022-09-05T08:11:37.000Z</time>
      </trkpt>
      <trkpt lat="49.87245" lon="4.7669">
        <ele>330</ele>
        <time>2022-09-05T08:11:38.000Z</time>
      </trkpt>
      <trkpt lat="49.87246" lon="4.76688">
        <ele>330</ele>
        <time>2022-09-05T08:11:39.000Z</time>
      </trkpt>
      <trkpt lat="49.87246" lon="4.76686">
        <ele>330</ele>
        <time>2022-09-05T08:11:40.000Z</time>
      </trkpt>
      <trkpt lat="49.87247" lon="4.76684">
        <ele>331</ele>
        <time>2022-09-05T08:11:41.000Z</time>
      </trkpt>
      <trkpt lat="49.87248" lon="4.76682">
        <ele>331</ele>
        <time>2022-09-05T08:11:42.000Z</time>
      </trkpt>
      <trkpt lat="49.87249" lon="4.76679">
        <ele>331</ele>
        <time>2022-09-05T08:11:43.000Z</time>
      </trkpt>
      <trkpt lat="49.87251" lon="4.76677">
        <ele>331</ele>
        <time>2022-09-05T08:11:44.000Z</time>
      </trkpt>
      <trkpt lat="49.87252" lon="4.76675">
        <ele>332</ele>
        <time>2022-09-05T08:11:45.000Z</time>
      </trkpt>
      <trkpt lat="49.87252" lon="4.76673">
        <ele>332</ele>
        <time>2022-09-05T08:11:46.000Z</time>
      </trkpt>
      <trkpt lat="49.87253" lon="4.76671">
        <ele>332</ele>
        <time>2022-09-05T08:11:47.000Z</time>
      </trkpt>
      <trkpt lat="49.87254" lon="4.7667">
        <ele>332</ele>
        <time>2022-09-05T08:11:48.000Z</time>
      </trkpt>
      <trkpt lat="49.87255" lon="4.76668">
        <ele>333</ele>
        <time>2022-09-05T08:11:49.000Z</time>
      </trkpt>
      <trkpt lat="49.87256" lon="4.76666">
        <ele>333</ele>
        <time>2022-09-05T08:11:50.000Z</time>
      </trkpt>
      <trkpt lat="49.87257" lon="4.76664">
        <ele>333</ele>
        <time>2022-09-05T08:11:51.000Z</time>
      </trkpt>
      <trkpt lat="49.87258" lon="4.76662">
        <ele>333</ele>
        <time>2022-09-05T08:11:52.000Z</time>
      </trkpt>
      <trkpt lat="49.87258" lon="4.7666">
        <ele>333</ele>
        <time>2022-09-05T08:11:53.000Z</time>
      </trkpt>
      <trkpt lat="49.87259" lon="4.76658">
        <ele>334</ele>
        <time>2022-09-05T08:11:54.000Z</time>
      </trkpt>
      <trkpt lat="49.8726" lon="4.76656">
        <ele>334</ele>
        <time>2022-09-05T08:11:55.000Z</time>
      </trkpt>
      <trkpt lat="49.87261" lon="4.76654">
        <ele>334</ele>
        <time>2022-09-05T08:11:56.000Z</time>
      </trkpt>
      <trkpt lat="49.87262" lon="4.76652">
        <ele>334</ele>
        <time>2022-09-05T08:11:57.000Z</time>
      </trkpt>
      <trkpt lat="49.87263" lon="4.76649">
        <ele>335</ele>
        <time>2022-09-05T08:11:58.000Z</time>
      </trkpt>
      <trkpt lat="49.87264" lon="4.76647">
        <ele>335</ele>
        <time>2022-09-05T08:11:59.000Z</time>
      </trkpt>
      <trkpt lat="49.87265" lon="4.76644">
        <ele>335</ele>
        <time>2022-09-05T08:12:00.000Z</time>
      </trkpt>
      <trkpt lat="49.87265" lon="4.76642">
        <ele>335</ele>
        <time>2022-09-05T08:12:01.000Z</time>
      </trkpt>
      <trkpt lat="49.87266" lon="4.76639">
        <ele>336</ele>
        <time>2022-09-05T08:12:02.000Z</time>
      </trkpt>
      <trkpt lat="49.87266" lon="4.76637">
        <ele>336</ele>
        <time>2022-09-05T08:12:03.000Z</time>
      </trkpt>
      <trkpt lat="49.87267" lon="4.76634">
        <ele>336</ele>
        <time>2022-09-05T08:12:04.000Z</time>
      </trkpt>
      <trkpt lat="49.87267" lon="4.76633">
        <ele>336</ele>
        <time>2022-09-05T08:12:05.000Z</time>
      </trkpt>
      <trkpt lat="49.87268" lon="4.7663">
        <ele>337</ele>
        <time>2022-09-05T08:12:06.000Z</time>
      </trkpt>
      <trkpt lat="49.87269" lon="4.76629">
        <ele>337</ele>
        <time>2022-09-05T08:12:07.000Z</time>
      </trkpt>
      <trkpt lat="49.87269" lon="4.76627">
        <ele>337</ele>
        <time>2022-09-05T08:12:08.000Z</time>
      </trkpt>
      <trkpt lat="49.8727" lon="4.76625">
        <ele>338</ele>
        <time>2022-09-05T08:12:09.000Z</time>
      </trkpt>
      <trkpt lat="49.8727" lon="4.76622">
        <ele>338</ele>
        <time>2022-09-05T08:12:10.000Z</time>
      </trkpt>
      <trkpt lat="49.87271" lon="4.76621">
        <ele>338</ele>
        <time>2022-09-05T08:12:11.000Z</time>
      </trkpt>
      <trkpt lat="49.87272" lon="4.76618">
        <ele>339</ele>
        <time>2022-09-05T08:12:12.000Z</time>
      </trkpt>
      <trkpt lat="49.87273" lon="4.76616">
        <ele>339</ele>
        <time>2022-09-05T08:12:13.000Z</time>
      </trkpt>
      <trkpt lat="49.87275" lon="4.76614">
        <ele>339</ele>
        <time>2022-09-05T08:12:14.000Z</time>
      </trkpt>
      <trkpt lat="49.87276" lon="4.76612">
        <ele>340</ele>
        <time>2022-09-05T08:12:15.000Z</time>
      </trkpt>
      <trkpt lat="49.87276" lon="4.7661">
        <ele>340</ele>
        <time>2022-09-05T08:12:16.000Z</time>
      </trkpt>
      <trkpt lat="49.87277" lon="4.76607">
        <ele>340</ele>
        <time>2022-09-05T08:12:17.000Z</time>
      </trkpt>
      <trkpt lat="49.87277" lon="4.76605">
        <ele>340</ele>
        <time>2022-09-05T08:12:18.000Z</time>
      </trkpt>
      <trkpt lat="49.87278" lon="4.76603">
        <ele>341</ele>
        <time>2022-09-05T08:12:19.000Z</time>
      </trkpt>
      <trkpt lat="49.87279" lon="4.76601">
        <ele>341</ele>
        <time>2022-09-05T08:12:20.000Z</time>
      </trkpt>
      <trkpt lat="49.8728" lon="4.76599">
        <ele>341</ele>
        <time>2022-09-05T08:12:21.000Z</time>
      </trkpt>
      <trkpt lat="49.87281" lon="4.76597">
        <ele>341</ele>
        <time>2022-09-05T08:12:22.000Z</time>
      </trkpt>
      <trkpt lat="49.87283" lon="4.76596">
        <ele>342</ele>
        <time>2022-09-05T08:12:23.000Z</time>
      </trkpt>
      <trkpt lat="49.87284" lon="4.76594">
        <ele>342</ele>
        <time>2022-09-05T08:12:24.000Z</time>
      </trkpt>
      <trkpt lat="49.87286" lon="4.76592">
        <ele>343</ele>
        <time>2022-09-05T08:12:25.000Z</time>
      </trkpt>
      <trkpt lat="49.87286" lon="4.7659">
        <ele>343</ele>
        <time>2022-09-05T08:12:26.000Z</time>
      </trkpt>
      <trkpt lat="49.87287" lon="4.76588">
        <ele>343</ele>
        <time>2022-09-05T08:12:27.000Z</time>
      </trkpt>
      <trkpt lat="49.87287" lon="4.76586">
        <ele>344</ele>
        <time>2022-09-05T08:12:28.000Z</time>
      </trkpt>
      <trkpt lat="49.87288" lon="4.76584">
        <ele>344</ele>
        <time>2022-09-05T08:12:29.000Z</time>
      </trkpt>
      <trkpt lat="49.87288" lon="4.76582">
        <ele>345</ele>
        <time>2022-09-05T08:12:30.000Z</time>
      </trkpt>
      <trkpt lat="49.87288" lon="4.7658">
        <ele>345</ele>
        <time>2022-09-05T08:12:31.000Z</time>
      </trkpt>
      <trkpt lat="49.87288" lon="4.76579">
        <ele>345</ele>
        <time>2022-09-05T08:12:32.000Z</time>
      </trkpt>
      <trkpt lat="49.87288" lon="4.76578">
        <ele>346</ele>
        <time>2022-09-05T08:12:33.000Z</time>
      </trkpt>
      <trkpt lat="49.87288" lon="4.76578">
        <ele>346</ele>
        <time>2022-09-05T08:12:34.000Z</time>
      </trkpt>
      <trkpt lat="49.87288" lon="4.76577">
        <ele>346</ele>
        <time>2022-09-05T08:12:35.000Z</time>
      </trkpt>
      <trkpt lat="49.87287" lon="4.76576">
        <ele>346</ele>
        <time>2022-09-05T08:12:36.000Z</time>
      </trkpt>
      <trkpt lat="49.87287" lon="4.76574">
        <ele>347</ele>
        <time>2022-09-05T08:12:37.000Z</time>
      </trkpt>
      <trkpt lat="49.87287" lon="4.76572">
        <ele>347</ele>
        <time>2022-09-05T08:12:38.000Z</time>
      </trkpt>
      <trkpt lat="49.87287" lon="4.7657">
        <ele>347</ele>
        <time>2022-09-05T08:12:39.000Z</time>
      </trkpt>
      <trkpt lat="49.87287" lon="4.76568">
        <ele>347</ele>
        <time>2022-09-05T08:12:40.000Z</time>
      </trkpt>
      <trkpt lat="49.87287" lon="4.76565">
        <ele>348</ele>
        <time>2022-09-05T08:12:41.000Z</time>
      </trkpt>
      <trkpt lat="49.87287" lon="4.76562">
        <ele>348</ele>
        <time>2022-09-05T08:12:42.000Z</time>
      </trkpt>
      <trkpt lat="49.87287" lon="4.76559">
        <ele>348</ele>
        <time>2022-09-05T08:12:43.000Z</time>
      </trkpt>
      <trkpt lat="49.87286" lon="4.76556">
        <ele>348</ele>
        <time>2022-09-05T08:12:44.000Z</time>
      </trkpt>
      <trkpt lat="49.87286" lon="4.76553">
        <ele>349</ele>
        <time>2022-09-05T08:12:45.000Z</time>
      </trkpt>
      <trkpt lat="49.87286" lon="4.7655">
        <ele>349</ele>
        <time>2022-09-05T08:12:46.000Z</time>
      </trkpt>
      <trkpt lat="49.87286" lon="4.76548">
        <ele>349</ele>
        <time>2022-09-05T08:12:47.000Z</time>
      </trkpt>
      <trkpt lat="49.87286" lon="4.76546">
        <ele>349</ele>
        <time>2022-09-05T08:12:48.000Z</time>
      </trkpt>
      <trkpt lat="49.87286" lon="4.76544">
        <ele>349</ele>
        <time>2022-09-05T08:12:49.000Z</time>
      </trkpt>
      <trkpt lat="49.87286" lon="4.76543">
        <ele>350</ele>
        <time>2022-09-05T08:12:50.000Z</time>
      </trkpt>
      <trkpt lat="49.87286" lon="4.76541">
        <ele>350</ele>
        <time>2022-09-05T08:12:51.000Z</time>
      </trkpt>
      <trkpt lat="49.87286" lon="4.76539">
        <ele>350</ele>
        <time>2022-09-05T08:12:52.000Z</time>
      </trkpt>
      <trkpt lat="49.87286" lon="4.76537">
        <ele>350</ele>
        <time>2022-09-05T08:12:53.000Z</time>
      </trkpt>
      <trkpt lat="49.87286" lon="4.76535">
        <ele>350</ele>
        <time>2022-09-05T08:12:54.000Z</time>
      </trkpt>
      <trkpt lat="49.87285" lon="4.76534">
        <ele>350</ele>
        <time>2022-09-05T08:12:55.000Z</time>
      </trkpt>
      <trkpt lat="49.87285" lon="4.76532">
        <ele>351</ele>
        <time>2022-09-05T08:12:56.000Z</time>
      </trkpt>
      <trkpt lat="49.87285" lon="4.7653">
        <ele>351</ele>
        <time>2022-09-05T08:12:57.000Z</time>
      </trkpt>
      <trkpt lat="49.87285" lon="4.76528">
        <ele>351</ele>
        <time>2022-09-05T08:12:58.000Z</time>
      </trkpt>
      <trkpt lat="49.87285" lon="4.76525">
        <ele>351</ele>
        <time>2022-09-05T08:12:59.000Z</time>
      </trkpt>
      <trkpt lat="49.87284" lon="4.76523">
        <ele>351</ele>
        <time>2022-09-05T08:13:00.000Z</time>
      </trkpt>
      <trkpt lat="49.87284" lon="4.7652">
        <ele>352</ele>
        <time>2022-09-05T08:13:01.000Z</time>
      </trkpt>
      <trkpt lat="49.87284" lon="4.76518">
        <ele>352</ele>
        <time>2022-09-05T08:13:02.000Z</time>
      </trkpt>
      <trkpt lat="49.87284" lon="4.76517">
        <ele>352</ele>
        <time>2022-09-05T08:13:03.000Z</time>
      </trkpt>
      <trkpt lat="49.87283" lon="4.76515">
        <ele>352</ele>
        <time>2022-09-05T08:13:04.000Z</time>
      </trkpt>
      <trkpt lat="49.87283" lon="4.76513">
        <ele>353</ele>
        <time>2022-09-05T08:13:05.000Z</time>
      </trkpt>
      <trkpt lat="49.87283" lon="4.7651">
        <ele>353</ele>
        <time>2022-09-05T08:13:06.000Z</time>
      </trkpt>
      <trkpt lat="49.87283" lon="4.76507">
        <ele>353</ele>
        <time>2022-09-05T08:13:07.000Z</time>
      </trkpt>
      <trkpt lat="49.87283" lon="4.76505">
        <ele>354</ele>
        <time>2022-09-05T08:13:08.000Z</time>
      </trkpt>
      <trkpt lat="49.87283" lon="4.76503">
        <ele>354</ele>
        <time>2022-09-05T08:13:09.000Z</time>
      </trkpt>
      <trkpt lat="49.87282" lon="4.765">
        <ele>354</ele>
        <time>2022-09-05T08:13:10.000Z</time>
      </trkpt>
      <trkpt lat="49.87282" lon="4.76497">
        <ele>354</ele>
        <time>2022-09-05T08:13:11.000Z</time>
      </trkpt>
      <trkpt lat="49.87282" lon="4.76495">
        <ele>355</ele>
        <time>2022-09-05T08:13:12.000Z</time>
      </trkpt>
      <trkpt lat="49.87282" lon="4.76494">
        <ele>355</ele>
        <time>2022-09-05T08:13:13.000Z</time>
      </trkpt>
      <trkpt lat="49.87281" lon="4.76492">
        <ele>355</ele>
        <time>2022-09-05T08:13:14.000Z</time>
      </trkpt>
      <trkpt lat="49.87281" lon="4.7649">
        <ele>355</ele>
        <time>2022-09-05T08:13:15.000Z</time>
      </trkpt>
      <trkpt lat="49.87281" lon="4.76488">
        <ele>356</ele>
        <time>2022-09-05T08:13:16.000Z</time>
      </trkpt>
      <trkpt lat="49.87281" lon="4.76487">
        <ele>356</ele>
        <time>2022-09-05T08:13:17.000Z</time>
      </trkpt>
      <trkpt lat="49.87281" lon="4.76484">
        <ele>356</ele>
        <time>2022-09-05T08:13:18.000Z</time>
      </trkpt>
      <trkpt lat="49.87281" lon="4.76482">
        <ele>356</ele>
        <time>2022-09-05T08:13:19.000Z</time>
      </trkpt>
      <trkpt lat="49.87281" lon="4.7648">
        <ele>356</ele>
        <time>2022-09-05T08:13:20.000Z</time>
      </trkpt>
      <trkpt lat="49.87281" lon="4.76478">
        <ele>357</ele>
        <time>2022-09-05T08:13:21.000Z</time>
      </trkpt>
      <trkpt lat="49.87281" lon="4.76476">
        <ele>357</ele>
        <time>2022-09-05T08:13:22.000Z</time>
      </trkpt>
      <trkpt lat="49.87281" lon="4.76475">
        <ele>357</ele>
        <time>2022-09-05T08:13:23.000Z</time>
      </trkpt>
      <trkpt lat="49.87281" lon="4.76475">
        <ele>357</ele>
        <time>2022-09-05T08:13:24.000Z</time>
      </trkpt>
      <trkpt lat="49.87281" lon="4.76474">
        <ele>357</ele>
        <time>2022-09-05T08:13:25.000Z</time>
      </trkpt>
      <trkpt lat="49.87281" lon="4.76474">
        <ele>357</ele>
        <time>2022-09-05T08:13:26.000Z</time>
      </trkpt>
      <trkpt lat="49.87281" lon="4.76473">
        <ele>357</ele>
        <time>2022-09-05T08:13:27.000Z</time>
      </trkpt>
      <trkpt lat="49.87281" lon="4.76473">
        <ele>357</ele>
        <time>2022-09-05T08:13:28.000Z</time>
      </trkpt>
      <trkpt lat="49.87281" lon="4.76473">
        <ele>357</ele>
        <time>2022-09-05T08:13:29.000Z</time>
      </trkpt>
      <trkpt lat="49.87281" lon="4.76473">
        <ele>357</ele>
        <time>2022-09-05T08:13:30.000Z</time>
      </trkpt>
      <trkpt lat="49.87281" lon="4.76473">
        <ele>357</ele>
        <time>2022-09-05T08:13:31.000Z</time>
      </trkpt>
      <trkpt lat="49.87281" lon="4.76473">
        <ele>357</ele>
        <time>2022-09-05T08:13:32.000Z</time>
      </trkpt>
      <trkpt lat="49.87281" lon="4.76472">
        <ele>357</ele>
        <time>2022-09-05T08:13:33.000Z</time>
      </trkpt>
      <trkpt lat="49.87281" lon="4.76472">
        <ele>357</ele>
        <time>2022-09-05T08:13:34.000Z</time>
      </trkpt>
      <trkpt lat="49.87281" lon="4.76472">
        <ele>357</ele>
        <time>2022-09-05T08:13:35.000Z</time>
      </trkpt>
      <trkpt lat="49.87281" lon="4.76472">
        <ele>357</ele>
        <time>2022-09-05T08:13:36.000Z</time>
      </trkpt>
      <trkpt lat="49.87281" lon="4.76472">
        <ele>357</ele>
        <time>2022-09-05T08:13:37.000Z</time>
      </trkpt>
      <trkpt lat="49.87281" lon="4.76471">
        <ele>357</ele>
        <time>2022-09-05T08:13:38.000Z</time>
      </trkpt>
      <trkpt lat="49.87281" lon="4.76471">
        <ele>357</ele>
        <time>2022-09-05T08:13:39.000Z</time>
      </trkpt>
      <trkpt lat="49.8728" lon="4.76471">
        <ele>357</ele>
        <time>2022-09-05T08:13:40.000Z</time>
      </trkpt>
      <trkpt lat="49.8728" lon="4.76471">
        <ele>358</ele>
        <time>2022-09-05T08:13:41.000Z</time>
      </trkpt>
      <trkpt lat="49.8728" lon="4.76471">
        <ele>358</ele>
        <time>2022-09-05T08:13:42.000Z</time>
      </trkpt>
      <trkpt lat="49.8728" lon="4.76471">
        <ele>358</ele>
        <time>2022-09-05T08:13:43.000Z</time>
      </trkpt>
      <trkpt lat="49.8728" lon="4.76471">
        <ele>358</ele>
        <time>2022-09-05T08:13:44.000Z</time>
      </trkpt>
      <trkpt lat="49.8728" lon="4.76471">
        <ele>358</ele>
        <time>2022-09-05T08:13:45.000Z</time>
      </trkpt>
      <trkpt lat="49.8728" lon="4.7647">
        <ele>358</ele>
        <time>2022-09-05T08:13:46.000Z</time>
      </trkpt>
      <trkpt lat="49.8728" lon="4.7647">
        <ele>358</ele>
        <time>2022-09-05T08:13:47.000Z</time>
      </trkpt>
      <trkpt lat="49.8728" lon="4.7647">
        <ele>358</ele>
        <time>2022-09-05T08:13:48.000Z</time>
      </trkpt>
      <trkpt lat="49.8728" lon="4.7647">
        <ele>358</ele>
        <time>2022-09-05T08:13:49.000Z</time>
      </trkpt>
      <trkpt lat="49.8728" lon="4.7647">
        <ele>358</ele>
        <time>2022-09-05T08:13:50.000Z</time>
      </trkpt>
      <trkpt lat="49.8728" lon="4.7647">
        <ele>358</ele>
        <time>2022-09-05T08:13:51.000Z</time>
      </trkpt>
      <trkpt lat="49.8728" lon="4.7647">
        <ele>358</ele>
        <time>2022-09-05T08:13:52.000Z</time>
      </trkpt>
      <trkpt lat="49.8728" lon="4.7647">
        <ele>358</ele>
        <time>2022-09-05T08:13:53.000Z</time>
      </trkpt>
      <trkpt lat="49.8728" lon="4.76469">
        <ele>358</ele>
        <time>2022-09-05T08:13:54.000Z</time>
      </trkpt>
      <trkpt lat="49.8728" lon="4.76469">
        <ele>358</ele>
        <time>2022-09-05T08:13:55.000Z</time>
      </trkpt>
      <trkpt lat="49.8728" lon="4.76469">
        <ele>358</ele>
        <time>2022-09-05T08:13:56.000Z</time>
      </trkpt>
      <trkpt lat="49.8728" lon="4.76469">
        <ele>358</ele>
        <time>2022-09-05T08:13:57.000Z</time>
      </trkpt>
      <trkpt lat="49.8728" lon="4.76469">
        <ele>358</ele>
        <time>2022-09-05T08:13:58.000Z</time>
      </trkpt>
      <trkpt lat="49.8728" lon="4.76469">
        <ele>358</ele>
        <time>2022-09-05T08:13:59.000Z</time>
      </trkpt>
      <trkpt lat="49.8728" lon="4.76469">
        <ele>358</ele>
        <time>2022-09-05T08:14:00.000Z</time>
      </trkpt>
      <trkpt lat="49.8728" lon="4.76469">
        <ele>358</ele>
        <time>2022-09-05T08:14:01.000Z</time>
      </trkpt>
      <trkpt lat="49.8728" lon="4.76469">
        <ele>358</ele>
        <time>2022-09-05T08:14:02.000Z</time>
      </trkpt>
      <trkpt lat="49.8728" lon="4.76469">
        <ele>358</ele>
        <time>2022-09-05T08:14:03.000Z</time>
      </trkpt>
      <trkpt lat="49.8728" lon="4.76469">
        <ele>358</ele>
        <time>2022-09-05T08:14:04.000Z</time>
      </trkpt>
      <trkpt lat="49.8728" lon="4.76469">
        <ele>358</ele>
        <time>2022-09-05T08:14:05.000Z</time>
      </trkpt>
      <trkpt lat="49.8728" lon="4.76469">
        <ele>358</ele>
        <time>2022-09-05T08:14:06.000Z</time>
      </trkpt>
      <trkpt lat="49.8728" lon="4.76469">
        <ele>358</ele>
        <time>2022-09-05T08:14:07.000Z</time>
      </trkpt>
      <trkpt lat="49.87279" lon="4.76469">
        <ele>358</ele>
        <time>2022-09-05T08:14:08.000Z</time>
      </trkpt>
      <trkpt lat="49.87279" lon="4.76469">
        <ele>358</ele>
        <time>2022-09-05T08:14:09.000Z</time>
      </trkpt>
      <trkpt lat="49.87279" lon="4.76469">
        <ele>358</ele>
        <time>2022-09-05T08:14:10.000Z</time>
      </trkpt>
      <trkpt lat="49.87279" lon="4.76469">
        <ele>358</ele>
        <time>2022-09-05T08:14:11.000Z</time>
      </trkpt>
      <trkpt lat="49.87279" lon="4.76469">
        <ele>358</ele>
        <time>2022-09-05T08:14:12.000Z</time>
      </trkpt>
      <trkpt lat="49.87279" lon="4.76469">
        <ele>358</ele>
        <time>2022-09-05T08:14:13.000Z</time>
      </trkpt>
      <trkpt lat="49.87279" lon="4.76469">
        <ele>358</ele>
        <time>2022-09-05T08:14:14.000Z</time>
      </trkpt>
      <trkpt lat="49.87279" lon="4.76468">
        <ele>358</ele>
        <time>2022-09-05T08:14:15.000Z</time>
      </trkpt>
      <trkpt lat="49.87279" lon="4.76468">
        <ele>358</ele>
        <time>2022-09-05T08:14:16.000Z</time>
      </trkpt>
      <trkpt lat="49.87278" lon="4.76468">
        <ele>358</ele>
        <time>2022-09-05T08:14:17.000Z</time>
      </trkpt>
      <trkpt lat="49.87278" lon="4.76467">
        <ele>358</ele>
        <time>2022-09-05T08:14:18.000Z</time>
      </trkpt>
      <trkpt lat="49.87277" lon="4.76466">
        <ele>358</ele>
        <time>2022-09-05T08:14:19.000Z</time>
      </trkpt>
      <trkpt lat="49.87277" lon="4.76465">
        <ele>358</ele>
        <time>2022-09-05T08:14:20.000Z</time>
      </trkpt>
      <trkpt lat="49.87277" lon="4.76464">
        <ele>358</ele>
        <time>2022-09-05T08:14:21.000Z</time>
      </trkpt>
      <trkpt lat="49.87277" lon="4.76462">
        <ele>358</ele>
        <time>2022-09-05T08:14:22.000Z</time>
      </trkpt>
      <trkpt lat="49.87276" lon="4.76461">
        <ele>358</ele>
        <time>2022-09-05T08:14:23.000Z</time>
      </trkpt>
      <trkpt lat="49.87276" lon="4.76459">
        <ele>358</ele>
        <time>2022-09-05T08:14:24.000Z</time>
      </trkpt>
      <trkpt lat="49.87276" lon="4.76458">
        <ele>359</ele>
        <time>2022-09-05T08:14:25.000Z</time>
      </trkpt>
      <trkpt lat="49.87275" lon="4.76456">
        <ele>359</ele>
        <time>2022-09-05T08:14:26.000Z</time>
      </trkpt>
      <trkpt lat="49.87275" lon="4.76454">
        <ele>359</ele>
        <time>2022-09-05T08:14:27.000Z</time>
      </trkpt>
      <trkpt lat="49.87274" lon="4.76452">
        <ele>359</ele>
        <time>2022-09-05T08:14:28.000Z</time>
      </trkpt>
      <trkpt lat="49.87274" lon="4.7645">
        <ele>359</ele>
        <time>2022-09-05T08:14:29.000Z</time>
      </trkpt>
      <trkpt lat="49.87274" lon="4.76448">
        <ele>359</ele>
        <time>2022-09-05T08:14:30.000Z</time>
      </trkpt>
      <trkpt lat="49.87273" lon="4.76446">
        <ele>360</ele>
        <time>2022-09-05T08:14:31.000Z</time>
      </trkpt>
      <trkpt lat="49.87272" lon="4.76444">
        <ele>360</ele>
        <time>2022-09-05T08:14:32.000Z</time>
      </trkpt>
      <trkpt lat="49.87272" lon="4.76442">
        <ele>360</ele>
        <time>2022-09-05T08:14:33.000Z</time>
      </trkpt>
      <trkpt lat="49.87271" lon="4.7644">
        <ele>360</ele>
        <time>2022-09-05T08:14:34.000Z</time>
      </trkpt>
      <trkpt lat="49.8727" lon="4.76437">
        <ele>361</ele>
        <time>2022-09-05T08:14:35.000Z</time>
      </trkpt>
      <trkpt lat="49.87269" lon="4.76435">
        <ele>361</ele>
        <time>2022-09-05T08:14:36.000Z</time>
      </trkpt>
      <trkpt lat="49.87268" lon="4.76432">
        <ele>361</ele>
        <time>2022-09-05T08:14:37.000Z</time>
      </trkpt>
      <trkpt lat="49.87267" lon="4.7643">
        <ele>362</ele>
        <time>2022-09-05T08:14:38.000Z</time>
      </trkpt>
      <trkpt lat="49.87265" lon="4.76428">
        <ele>362</ele>
        <time>2022-09-05T08:14:39.000Z</time>
      </trkpt>
      <trkpt lat="49.87265" lon="4.76426">
        <ele>362</ele>
        <time>2022-09-05T08:14:40.000Z</time>
      </trkpt>
      <trkpt lat="49.87264" lon="4.76424">
        <ele>362</ele>
        <time>2022-09-05T08:14:41.000Z</time>
      </trkpt>
      <trkpt lat="49.87263" lon="4.76422">
        <ele>362</ele>
        <time>2022-09-05T08:14:42.000Z</time>
      </trkpt>
      <trkpt lat="49.87262" lon="4.7642">
        <ele>363</ele>
        <time>2022-09-05T08:14:43.000Z</time>
      </trkpt>
      <trkpt lat="49.87261" lon="4.76418">
        <ele>363</ele>
        <time>2022-09-05T08:14:44.000Z</time>
      </trkpt>
      <trkpt lat="49.87259" lon="4.76416">
        <ele>363</ele>
        <time>2022-09-05T08:14:45.000Z</time>
      </trkpt>
      <trkpt lat="49.87259" lon="4.76413">
        <ele>363</ele>
        <time>2022-09-05T08:14:46.000Z</time>
      </trkpt>
      <trkpt lat="49.87258" lon="4.7641">
        <ele>364</ele>
        <time>2022-09-05T08:14:47.000Z</time>
      </trkpt>
      <trkpt lat="49.87257" lon="4.76408">
        <ele>364</ele>
        <time>2022-09-05T08:14:48.000Z</time>
      </trkpt>
      <trkpt lat="49.87256" lon="4.76405">
        <ele>364</ele>
        <time>2022-09-05T08:14:49.000Z</time>
      </trkpt>
      <trkpt lat="49.87256" lon="4.76403">
        <ele>364</ele>
        <time>2022-09-05T08:14:50.000Z</time>
      </trkpt>
      <trkpt lat="49.87256" lon="4.764">
        <ele>365</ele>
        <time>2022-09-05T08:14:51.000Z</time>
      </trkpt>
      <trkpt lat="49.87255" lon="4.76398">
        <ele>365</ele>
        <time>2022-09-05T08:14:52.000Z</time>
      </trkpt>
      <trkpt lat="49.87254" lon="4.76396">
        <ele>365</ele>
        <time>2022-09-05T08:14:53.000Z</time>
      </trkpt>
      <trkpt lat="49.87253" lon="4.76394">
        <ele>365</ele>
        <time>2022-09-05T08:14:54.000Z</time>
      </trkpt>
      <trkpt lat="49.87252" lon="4.76392">
        <ele>366</ele>
        <time>2022-09-05T08:14:55.000Z</time>
      </trkpt>
      <trkpt lat="49.87251" lon="4.7639">
        <ele>366</ele>
        <time>2022-09-05T08:14:56.000Z</time>
      </trkpt>
      <trkpt lat="49.8725" lon="4.76387">
        <ele>366</ele>
        <time>2022-09-05T08:14:57.000Z</time>
      </trkpt>
      <trkpt lat="49.87249" lon="4.76385">
        <ele>367</ele>
        <time>2022-09-05T08:14:58.000Z</time>
      </trkpt>
      <trkpt lat="49.87249" lon="4.76383">
        <ele>367</ele>
        <time>2022-09-05T08:14:59.000Z</time>
      </trkpt>
      <trkpt lat="49.87248" lon="4.7638">
        <ele>368</ele>
        <time>2022-09-05T08:15:00.000Z</time>
      </trkpt>
      <trkpt lat="49.87248" lon="4.76378">
        <ele>368</ele>
        <time>2022-09-05T08:15:01.000Z</time>
      </trkpt>
      <trkpt lat="49.87247" lon="4.76376">
        <ele>368</ele>
        <time>2022-09-05T08:15:02.000Z</time>
      </trkpt>
      <trkpt lat="49.87247" lon="4.76373">
        <ele>369</ele>
        <time>2022-09-05T08:15:03.000Z</time>
      </trkpt>
      <trkpt lat="49.87246" lon="4.76371">
        <ele>369</ele>
        <time>2022-09-05T08:15:04.000Z</time>
      </trkpt>
      <trkpt lat="49.87246" lon="4.76369">
        <ele>369</ele>
        <time>2022-09-05T08:15:05.000Z</time>
      </trkpt>
      <trkpt lat="49.87245" lon="4.76367">
        <ele>370</ele>
        <time>2022-09-05T08:15:06.000Z</time>
      </trkpt>
      <trkpt lat="49.87245" lon="4.76365">
        <ele>370</ele>
        <time>2022-09-05T08:15:07.000Z</time>
      </trkpt>
      <trkpt lat="49.87244" lon="4.76362">
        <ele>371</ele>
        <time>2022-09-05T08:15:08.000Z</time>
      </trkpt>
      <trkpt lat="49.87243" lon="4.76359">
        <ele>371</ele>
        <time>2022-09-05T08:15:09.000Z</time>
      </trkpt>
      <trkpt lat="49.87242" lon="4.76357">
        <ele>371</ele>
        <time>2022-09-05T08:15:10.000Z</time>
      </trkpt>
      <trkpt lat="49.87241" lon="4.76355">
        <ele>372</ele>
        <time>2022-09-05T08:15:11.000Z</time>
      </trkpt>
      <trkpt lat="49.8724" lon="4.76353">
        <ele>372</ele>
        <time>2022-09-05T08:15:12.000Z</time>
      </trkpt>
      <trkpt lat="49.87239" lon="4.7635">
        <ele>373</ele>
        <time>2022-09-05T08:15:13.000Z</time>
      </trkpt>
      <trkpt lat="49.87238" lon="4.76348">
        <ele>373</ele>
        <time>2022-09-05T08:15:14.000Z</time>
      </trkpt>
      <trkpt lat="49.87238" lon="4.76346">
        <ele>373</ele>
        <time>2022-09-05T08:15:15.000Z</time>
      </trkpt>
      <trkpt lat="49.87237" lon="4.76343">
        <ele>373</ele>
        <time>2022-09-05T08:15:16.000Z</time>
      </trkpt>
      <trkpt lat="49.87236" lon="4.76341">
        <ele>374</ele>
        <time>2022-09-05T08:15:17.000Z</time>
      </trkpt>
      <trkpt lat="49.87235" lon="4.76339">
        <ele>374</ele>
        <time>2022-09-05T08:15:18.000Z</time>
      </trkpt>
      <trkpt lat="49.87235" lon="4.76336">
        <ele>374</ele>
        <time>2022-09-05T08:15:19.000Z</time>
      </trkpt>
      <trkpt lat="49.87235" lon="4.76335">
        <ele>374</ele>
        <time>2022-09-05T08:15:20.000Z</time>
      </trkpt>
      <trkpt lat="49.87234" lon="4.76333">
        <ele>375</ele>
        <time>2022-09-05T08:15:21.000Z</time>
      </trkpt>
      <trkpt lat="49.87234" lon="4.7633">
        <ele>375</ele>
        <time>2022-09-05T08:15:22.000Z</time>
      </trkpt>
      <trkpt lat="49.87233" lon="4.76329">
        <ele>375</ele>
        <time>2022-09-05T08:15:23.000Z</time>
      </trkpt>
      <trkpt lat="49.87232" lon="4.76327">
        <ele>375</ele>
        <time>2022-09-05T08:15:24.000Z</time>
      </trkpt>
      <trkpt lat="49.87231" lon="4.76324">
        <ele>376</ele>
        <time>2022-09-05T08:15:25.000Z</time>
      </trkpt>
      <trkpt lat="49.8723" lon="4.76322">
        <ele>376</ele>
        <time>2022-09-05T08:15:26.000Z</time>
      </trkpt>
      <trkpt lat="49.87229" lon="4.7632">
        <ele>376</ele>
        <time>2022-09-05T08:15:27.000Z</time>
      </trkpt>
      <trkpt lat="49.87228" lon="4.76318">
        <ele>376</ele>
        <time>2022-09-05T08:15:28.000Z</time>
      </trkpt>
      <trkpt lat="49.87228" lon="4.76315">
        <ele>376</ele>
        <time>2022-09-05T08:15:29.000Z</time>
      </trkpt>
      <trkpt lat="49.87227" lon="4.76314">
        <ele>377</ele>
        <time>2022-09-05T08:15:30.000Z</time>
      </trkpt>
      <trkpt lat="49.87227" lon="4.76312">
        <ele>377</ele>
        <time>2022-09-05T08:15:31.000Z</time>
      </trkpt>
      <trkpt lat="49.87227" lon="4.7631">
        <ele>377</ele>
        <time>2022-09-05T08:15:32.000Z</time>
      </trkpt>
      <trkpt lat="49.87226" lon="4.76308">
        <ele>378</ele>
        <time>2022-09-05T08:15:33.000Z</time>
      </trkpt>
      <trkpt lat="49.87226" lon="4.76306">
        <ele>378</ele>
        <time>2022-09-05T08:15:34.000Z</time>
      </trkpt>
      <trkpt lat="49.87225" lon="4.76303">
        <ele>378</ele>
        <time>2022-09-05T08:15:35.000Z</time>
      </trkpt>
      <trkpt lat="49.87225" lon="4.76302">
        <ele>378</ele>
        <time>2022-09-05T08:15:36.000Z</time>
      </trkpt>
      <trkpt lat="49.87224" lon="4.76299">
        <ele>379</ele>
        <time>2022-09-05T08:15:37.000Z</time>
      </trkpt>
      <trkpt lat="49.87223" lon="4.76296">
        <ele>379</ele>
        <time>2022-09-05T08:15:38.000Z</time>
      </trkpt>
      <trkpt lat="49.87222" lon="4.76294">
        <ele>379</ele>
        <time>2022-09-05T08:15:39.000Z</time>
      </trkpt>
      <trkpt lat="49.87222" lon="4.76291">
        <ele>379</ele>
        <time>2022-09-05T08:15:40.000Z</time>
      </trkpt>
      <trkpt lat="49.87221" lon="4.76288">
        <ele>380</ele>
        <time>2022-09-05T08:15:41.000Z</time>
      </trkpt>
      <trkpt lat="49.87221" lon="4.76286">
        <ele>380</ele>
        <time>2022-09-05T08:15:42.000Z</time>
      </trkpt>
      <trkpt lat="49.8722" lon="4.76283">
        <ele>380</ele>
        <time>2022-09-05T08:15:43.000Z</time>
      </trkpt>
      <trkpt lat="49.87219" lon="4.7628">
        <ele>380</ele>
        <time>2022-09-05T08:15:44.000Z</time>
      </trkpt>
      <trkpt lat="49.87218" lon="4.76278">
        <ele>381</ele>
        <time>2022-09-05T08:15:45.000Z</time>
      </trkpt>
      <trkpt lat="49.87218" lon="4.76275">
        <ele>381</ele>
        <time>2022-09-05T08:15:46.000Z</time>
      </trkpt>
      <trkpt lat="49.87217" lon="4.76273">
        <ele>381</ele>
        <time>2022-09-05T08:15:47.000Z</time>
      </trkpt>
      <trkpt lat="49.87216" lon="4.76271">
        <ele>382</ele>
        <time>2022-09-05T08:15:48.000Z</time>
      </trkpt>
      <trkpt lat="49.87215" lon="4.76268">
        <ele>382</ele>
        <time>2022-09-05T08:15:49.000Z</time>
      </trkpt>
      <trkpt lat="49.87214" lon="4.76266">
        <ele>382</ele>
        <time>2022-09-05T08:15:50.000Z</time>
      </trkpt>
      <trkpt lat="49.87213" lon="4.76263">
        <ele>382</ele>
        <time>2022-09-05T08:15:51.000Z</time>
      </trkpt>
      <trkpt lat="49.87213" lon="4.76261">
        <ele>383</ele>
        <time>2022-09-05T08:15:52.000Z</time>
      </trkpt>
      <trkpt lat="49.87212" lon="4.76258">
        <ele>383</ele>
        <time>2022-09-05T08:15:53.000Z</time>
      </trkpt>
      <trkpt lat="49.87211" lon="4.76256">
        <ele>383</ele>
        <time>2022-09-05T08:15:54.000Z</time>
      </trkpt>
      <trkpt lat="49.87211" lon="4.76254">
        <ele>383</ele>
        <time>2022-09-05T08:15:55.000Z</time>
      </trkpt>
      <trkpt lat="49.8721" lon="4.76252">
        <ele>384</ele>
        <time>2022-09-05T08:15:56.000Z</time>
      </trkpt>
      <trkpt lat="49.87209" lon="4.76249">
        <ele>384</ele>
        <time>2022-09-05T08:15:57.000Z</time>
      </trkpt>
      <trkpt lat="49.87208" lon="4.76247">
        <ele>384</ele>
        <time>2022-09-05T08:15:58.000Z</time>
      </trkpt>
      <trkpt lat="49.87207" lon="4.76245">
        <ele>385</ele>
        <time>2022-09-05T08:15:59.000Z</time>
      </trkpt>
      <trkpt lat="49.87206" lon="4.76242">
        <ele>385</ele>
        <time>2022-09-05T08:16:00.000Z</time>
      </trkpt>
      <trkpt lat="49.87205" lon="4.7624">
        <ele>385</ele>
        <time>2022-09-05T08:16:01.000Z</time>
      </trkpt>
      <trkpt lat="49.87205" lon="4.76238">
        <ele>386</ele>
        <time>2022-09-05T08:16:02.000Z</time>
      </trkpt>
      <trkpt lat="49.87204" lon="4.76236">
        <ele>386</ele>
        <time>2022-09-05T08:16:03.000Z</time>
      </trkpt>
      <trkpt lat="49.87203" lon="4.76233">
        <ele>386</ele>
        <time>2022-09-05T08:16:04.000Z</time>
      </trkpt>
      <trkpt lat="49.87203" lon="4.76231">
        <ele>386</ele>
        <time>2022-09-05T08:16:05.000Z</time>
      </trkpt>
      <trkpt lat="49.87202" lon="4.76228">
        <ele>386</ele>
        <time>2022-09-05T08:16:06.000Z</time>
      </trkpt>
      <trkpt lat="49.87201" lon="4.76226">
        <ele>387</ele>
        <time>2022-09-05T08:16:07.000Z</time>
      </trkpt>
      <trkpt lat="49.87201" lon="4.76223">
        <ele>387</ele>
        <time>2022-09-05T08:16:08.000Z</time>
      </trkpt>
      <trkpt lat="49.872" lon="4.7622">
        <ele>387</ele>
        <time>2022-09-05T08:16:09.000Z</time>
      </trkpt>
      <trkpt lat="49.872" lon="4.76218">
        <ele>387</ele>
        <time>2022-09-05T08:16:10.000Z</time>
      </trkpt>
      <trkpt lat="49.87199" lon="4.76216">
        <ele>388</ele>
        <time>2022-09-05T08:16:11.000Z</time>
      </trkpt>
      <trkpt lat="49.87198" lon="4.76213">
        <ele>388</ele>
        <time>2022-09-05T08:16:12.000Z</time>
      </trkpt>
      <trkpt lat="49.87197" lon="4.76212">
        <ele>388</ele>
        <time>2022-09-05T08:16:13.000Z</time>
      </trkpt>
      <trkpt lat="49.87196" lon="4.76209">
        <ele>388</ele>
        <time>2022-09-05T08:16:14.000Z</time>
      </trkpt>
      <trkpt lat="49.87195" lon="4.76207">
        <ele>389</ele>
        <time>2022-09-05T08:16:15.000Z</time>
      </trkpt>
      <trkpt lat="49.87195" lon="4.76204">
        <ele>389</ele>
        <time>2022-09-05T08:16:16.000Z</time>
      </trkpt>
      <trkpt lat="49.87194" lon="4.76202">
        <ele>389</ele>
        <time>2022-09-05T08:16:17.000Z</time>
      </trkpt>
      <trkpt lat="49.87193" lon="4.76199">
        <ele>389</ele>
        <time>2022-09-05T08:16:18.000Z</time>
      </trkpt>
      <trkpt lat="49.87193" lon="4.76197">
        <ele>389</ele>
        <time>2022-09-05T08:16:19.000Z</time>
      </trkpt>
      <trkpt lat="49.87192" lon="4.76195">
        <ele>389</ele>
        <time>2022-09-05T08:16:20.000Z</time>
      </trkpt>
      <trkpt lat="49.87192" lon="4.76192">
        <ele>389</ele>
        <time>2022-09-05T08:16:21.000Z</time>
      </trkpt>
      <trkpt lat="49.87191" lon="4.76189">
        <ele>390</ele>
        <time>2022-09-05T08:16:22.000Z</time>
      </trkpt>
      <trkpt lat="49.8719" lon="4.76186">
        <ele>390</ele>
        <time>2022-09-05T08:16:23.000Z</time>
      </trkpt>
      <trkpt lat="49.8719" lon="4.76184">
        <ele>390</ele>
        <time>2022-09-05T08:16:24.000Z</time>
      </trkpt>
      <trkpt lat="49.87189" lon="4.76181">
        <ele>390</ele>
        <time>2022-09-05T08:16:25.000Z</time>
      </trkpt>
      <trkpt lat="49.87188" lon="4.76178">
        <ele>390</ele>
        <time>2022-09-05T08:16:26.000Z</time>
      </trkpt>
      <trkpt lat="49.87187" lon="4.76175">
        <ele>391</ele>
        <time>2022-09-05T08:16:27.000Z</time>
      </trkpt>
      <trkpt lat="49.87186" lon="4.76172">
        <ele>391</ele>
        <time>2022-09-05T08:16:28.000Z</time>
      </trkpt>
      <trkpt lat="49.87186" lon="4.7617">
        <ele>391</ele>
        <time>2022-09-05T08:16:29.000Z</time>
      </trkpt>
      <trkpt lat="49.87185" lon="4.76166">
        <ele>391</ele>
        <time>2022-09-05T08:16:30.000Z</time>
      </trkpt>
      <trkpt lat="49.87184" lon="4.76163">
        <ele>391</ele>
        <time>2022-09-05T08:16:31.000Z</time>
      </trkpt>
      <trkpt lat="49.87183" lon="4.7616">
        <ele>391</ele>
        <time>2022-09-05T08:16:32.000Z</time>
      </trkpt>
      <trkpt lat="49.87182" lon="4.76157">
        <ele>391</ele>
        <time>2022-09-05T08:16:33.000Z</time>
      </trkpt>
      <trkpt lat="49.87181" lon="4.76153">
        <ele>391</ele>
        <time>2022-09-05T08:16:34.000Z</time>
      </trkpt>
      <trkpt lat="49.8718" lon="4.7615">
        <ele>391</ele>
        <time>2022-09-05T08:16:35.000Z</time>
      </trkpt>
      <trkpt lat="49.87179" lon="4.76147">
        <ele>391</ele>
        <time>2022-09-05T08:16:36.000Z</time>
      </trkpt>
      <trkpt lat="49.87178" lon="4.76144">
        <ele>391</ele>
        <time>2022-09-05T08:16:37.000Z</time>
      </trkpt>
      <trkpt lat="49.87177" lon="4.76141">
        <ele>391</ele>
        <time>2022-09-05T08:16:38.000Z</time>
      </trkpt>
      <trkpt lat="49.87176" lon="4.76139">
        <ele>391</ele>
        <time>2022-09-05T08:16:39.000Z</time>
      </trkpt>
      <trkpt lat="49.87175" lon="4.76136">
        <ele>391</ele>
        <time>2022-09-05T08:16:40.000Z</time>
      </trkpt>
      <trkpt lat="49.87174" lon="4.76134">
        <ele>391</ele>
        <time>2022-09-05T08:16:41.000Z</time>
      </trkpt>
      <trkpt lat="49.87173" lon="4.76132">
        <ele>391</ele>
        <time>2022-09-05T08:16:42.000Z</time>
      </trkpt>
      <trkpt lat="49.87172" lon="4.76129">
        <ele>391</ele>
        <time>2022-09-05T08:16:43.000Z</time>
      </trkpt>
      <trkpt lat="49.87171" lon="4.76125">
        <ele>391</ele>
        <time>2022-09-05T08:16:44.000Z</time>
      </trkpt>
      <trkpt lat="49.8717" lon="4.76122">
        <ele>391</ele>
        <time>2022-09-05T08:16:45.000Z</time>
      </trkpt>
      <trkpt lat="49.87169" lon="4.76118">
        <ele>391</ele>
        <time>2022-09-05T08:16:46.000Z</time>
      </trkpt>
      <trkpt lat="49.87168" lon="4.76115">
        <ele>391</ele>
        <time>2022-09-05T08:16:47.000Z</time>
      </trkpt>
      <trkpt lat="49.87167" lon="4.76111">
        <ele>390</ele>
        <time>2022-09-05T08:16:48.000Z</time>
      </trkpt>
      <trkpt lat="49.87166" lon="4.76107">
        <ele>390</ele>
        <time>2022-09-05T08:16:49.000Z</time>
      </trkpt>
      <trkpt lat="49.87164" lon="4.76104">
        <ele>390</ele>
        <time>2022-09-05T08:16:50.000Z</time>
      </trkpt>
      <trkpt lat="49.87163" lon="4.761">
        <ele>390</ele>
        <time>2022-09-05T08:16:51.000Z</time>
      </trkpt>
      <trkpt lat="49.87162" lon="4.76096">
        <ele>390</ele>
        <time>2022-09-05T08:16:52.000Z</time>
      </trkpt>
      <trkpt lat="49.87161" lon="4.76093">
        <ele>390</ele>
        <time>2022-09-05T08:16:53.000Z</time>
      </trkpt>
      <trkpt lat="49.8716" lon="4.7609">
        <ele>390</ele>
        <time>2022-09-05T08:16:54.000Z</time>
      </trkpt>
      <trkpt lat="49.8716" lon="4.76087">
        <ele>390</ele>
        <time>2022-09-05T08:16:55.000Z</time>
      </trkpt>
      <trkpt lat="49.87158" lon="4.76084">
        <ele>390</ele>
        <time>2022-09-05T08:16:56.000Z</time>
      </trkpt>
      <trkpt lat="49.87157" lon="4.7608">
        <ele>390</ele>
        <time>2022-09-05T08:16:57.000Z</time>
      </trkpt>
      <trkpt lat="49.87156" lon="4.76076">
        <ele>389</ele>
        <time>2022-09-05T08:16:58.000Z</time>
      </trkpt>
      <trkpt lat="49.87155" lon="4.76071">
        <ele>389</ele>
        <time>2022-09-05T08:16:59.000Z</time>
      </trkpt>
      <trkpt lat="49.87155" lon="4.76067">
        <ele>389</ele>
        <time>2022-09-05T08:17:00.000Z</time>
      </trkpt>
      <trkpt lat="49.87153" lon="4.76064">
        <ele>389</ele>
        <time>2022-09-05T08:17:01.000Z</time>
      </trkpt>
      <trkpt lat="49.87152" lon="4.76059">
        <ele>389</ele>
        <time>2022-09-05T08:17:02.000Z</time>
      </trkpt>
      <trkpt lat="49.8715" lon="4.76055">
        <ele>389</ele>
        <time>2022-09-05T08:17:03.000Z</time>
      </trkpt>
      <trkpt lat="49.87149" lon="4.7605">
        <ele>389</ele>
        <time>2022-09-05T08:17:04.000Z</time>
      </trkpt>
      <trkpt lat="49.87147" lon="4.76044">
        <ele>389</ele>
        <time>2022-09-05T08:17:05.000Z</time>
      </trkpt>
      <trkpt lat="49.87146" lon="4.76039">
        <ele>389</ele>
        <time>2022-09-05T08:17:06.000Z</time>
      </trkpt>
      <trkpt lat="49.87146" lon="4.76033">
        <ele>388</ele>
        <time>2022-09-05T08:17:07.000Z</time>
      </trkpt>
      <trkpt lat="49.87146" lon="4.76028">
        <ele>388</ele>
        <time>2022-09-05T08:17:08.000Z</time>
      </trkpt>
      <trkpt lat="49.87146" lon="4.76025">
        <ele>388</ele>
        <time>2022-09-05T08:17:09.000Z</time>
      </trkpt>
      <trkpt lat="49.87146" lon="4.76021">
        <ele>388</ele>
        <time>2022-09-05T08:17:10.000Z</time>
      </trkpt>
      <trkpt lat="49.87145" lon="4.76016">
        <ele>388</ele>
        <time>2022-09-05T08:17:11.000Z</time>
      </trkpt>
      <trkpt lat="49.87144" lon="4.76011">
        <ele>388</ele>
        <time>2022-09-05T08:17:12.000Z</time>
      </trkpt>
      <trkpt lat="49.87144" lon="4.76005">
        <ele>388</ele>
        <time>2022-09-05T08:17:13.000Z</time>
      </trkpt>
      <trkpt lat="49.87143" lon="4.76">
        <ele>388</ele>
        <time>2022-09-05T08:17:14.000Z</time>
      </trkpt>
      <trkpt lat="49.87143" lon="4.75995">
        <ele>388</ele>
        <time>2022-09-05T08:17:15.000Z</time>
      </trkpt>
      <trkpt lat="49.87142" lon="4.75991">
        <ele>387</ele>
        <time>2022-09-05T08:17:16.000Z</time>
      </trkpt>
      <trkpt lat="49.87141" lon="4.75985">
        <ele>387</ele>
        <time>2022-09-05T08:17:17.000Z</time>
      </trkpt>
      <trkpt lat="49.87139" lon="4.75978">
        <ele>387</ele>
        <time>2022-09-05T08:17:18.000Z</time>
      </trkpt>
      <trkpt lat="49.87138" lon="4.7597">
        <ele>387</ele>
        <time>2022-09-05T08:17:19.000Z</time>
      </trkpt>
      <trkpt lat="49.87136" lon="4.75962">
        <ele>387</ele>
        <time>2022-09-05T08:17:20.000Z</time>
      </trkpt>
      <trkpt lat="49.87134" lon="4.75955">
        <ele>387</ele>
        <time>2022-09-05T08:17:21.000Z</time>
      </trkpt>
      <trkpt lat="49.87133" lon="4.75948">
        <ele>387</ele>
        <time>2022-09-05T08:17:22.000Z</time>
      </trkpt>
      <trkpt lat="49.8713" lon="4.75942">
        <ele>386</ele>
        <time>2022-09-05T08:17:23.000Z</time>
      </trkpt>
      <trkpt lat="49.87127" lon="4.75936">
        <ele>386</ele>
        <time>2022-09-05T08:17:24.000Z</time>
      </trkpt>
      <trkpt lat="49.87123" lon="4.75931">
        <ele>386</ele>
        <time>2022-09-05T08:17:25.000Z</time>
      </trkpt>
      <trkpt lat="49.8712" lon="4.75928">
        <ele>386</ele>
        <time>2022-09-05T08:17:26.000Z</time>
      </trkpt>
      <trkpt lat="49.87116" lon="4.75925">
        <ele>386</ele>
        <time>2022-09-05T08:17:27.000Z</time>
      </trkpt>
      <trkpt lat="49.87112" lon="4.75923">
        <ele>386</ele>
        <time>2022-09-05T08:17:28.000Z</time>
      </trkpt>
      <trkpt lat="49.8711" lon="4.75922">
        <ele>385</ele>
        <time>2022-09-05T08:17:29.000Z</time>
      </trkpt>
      <trkpt lat="49.87107" lon="4.75921">
        <ele>385</ele>
        <time>2022-09-05T08:17:30.000Z</time>
      </trkpt>
      <trkpt lat="49.87106" lon="4.7592">
        <ele>385</ele>
        <time>2022-09-05T08:17:31.000Z</time>
      </trkpt>
      <trkpt lat="49.87105" lon="4.7592">
        <ele>385</ele>
        <time>2022-09-05T08:17:32.000Z</time>
      </trkpt>
      <trkpt lat="49.87105" lon="4.75919">
        <ele>385</ele>
        <time>2022-09-05T08:17:33.000Z</time>
      </trkpt>
      <trkpt lat="49.87105" lon="4.75919">
        <ele>384</ele>
        <time>2022-09-05T08:17:34.000Z</time>
      </trkpt>
      <trkpt lat="49.87105" lon="4.75919">
        <ele>384</ele>
        <time>2022-09-05T08:17:35.000Z</time>
      </trkpt>
      <trkpt lat="49.87104" lon="4.75919">
        <ele>384</ele>
        <time>2022-09-05T08:17:36.000Z</time>
      </trkpt>
      <trkpt lat="49.87104" lon="4.75918">
        <ele>384</ele>
        <time>2022-09-05T08:17:37.000Z</time>
      </trkpt>
      <trkpt lat="49.87104" lon="4.75918">
        <ele>384</ele>
        <time>2022-09-05T08:17:38.000Z</time>
      </trkpt>
      <trkpt lat="49.87104" lon="4.75918">
        <ele>383</ele>
        <time>2022-09-05T08:17:39.000Z</time>
      </trkpt>
      <trkpt lat="49.87104" lon="4.75918">
        <ele>383</ele>
        <time>2022-09-05T08:17:40.000Z</time>
      </trkpt>
      <trkpt lat="49.87104" lon="4.75918">
        <ele>383</ele>
        <time>2022-09-05T08:17:41.000Z</time>
      </trkpt>
      <trkpt lat="49.87103" lon="4.75918">
        <ele>383</ele>
        <time>2022-09-05T08:17:42.000Z</time>
      </trkpt>
      <trkpt lat="49.87103" lon="4.75917">
        <ele>383</ele>
        <time>2022-09-05T08:17:43.000Z</time>
      </trkpt>
      <trkpt lat="49.87103" lon="4.75917">
        <ele>383</ele>
        <time>2022-09-05T08:17:44.000Z</time>
      </trkpt>
      <trkpt lat="49.87103" lon="4.75917">
        <ele>382</ele>
        <time>2022-09-05T08:17:45.000Z</time>
      </trkpt>
      <trkpt lat="49.87103" lon="4.75917">
        <ele>382</ele>
        <time>2022-09-05T08:17:46.000Z</time>
      </trkpt>
      <trkpt lat="49.87103" lon="4.75917">
        <ele>382</ele>
        <time>2022-09-05T08:17:47.000Z</time>
      </trkpt>
      <trkpt lat="49.87103" lon="4.75917">
        <ele>382</ele>
        <time>2022-09-05T08:17:48.000Z</time>
      </trkpt>
      <trkpt lat="49.87102" lon="4.75917">
        <ele>382</ele>
        <time>2022-09-05T08:17:49.000Z</time>
      </trkpt>
      <trkpt lat="49.87102" lon="4.75917">
        <ele>382</ele>
        <time>2022-09-05T08:17:50.000Z</time>
      </trkpt>
      <trkpt lat="49.87102" lon="4.75917">
        <ele>382</ele>
        <time>2022-09-05T08:17:51.000Z</time>
      </trkpt>
      <trkpt lat="49.87102" lon="4.75917">
        <ele>382</ele>
        <time>2022-09-05T08:17:52.000Z</time>
      </trkpt>
      <trkpt lat="49.87102" lon="4.75917">
        <ele>382</ele>
        <time>2022-09-05T08:17:53.000Z</time>
      </trkpt>
      <trkpt lat="49.87102" lon="4.75917">
        <ele>382</ele>
        <time>2022-09-05T08:17:54.000Z</time>
      </trkpt>
      <trkpt lat="49.87102" lon="4.75917">
        <ele>382</ele>
        <time>2022-09-05T08:17:55.000Z</time>
      </trkpt>
      <trkpt lat="49.87102" lon="4.75917">
        <ele>382</ele>
        <time>2022-09-05T08:17:56.000Z</time>
      </trkpt>
      <trkpt lat="49.87102" lon="4.75917">
        <ele>382</ele>
        <time>2022-09-05T08:17:57.000Z</time>
      </trkpt>
      <trkpt lat="49.87102" lon="4.75917">
        <ele>382</ele>
        <time>2022-09-05T08:17:58.000Z</time>
      </trkpt>
      <trkpt lat="49.87102" lon="4.75917">
        <ele>381</ele>
        <time>2022-09-05T08:17:59.000Z</time>
      </trkpt>
      <trkpt lat="49.87102" lon="4.75917">
        <ele>381</ele>
        <time>2022-09-05T08:18:00.000Z</time>
      </trkpt>
      <trkpt lat="49.87102" lon="4.75917">
        <ele>381</ele>
        <time>2022-09-05T08:18:01.000Z</time>
      </trkpt>
      <trkpt lat="49.87102" lon="4.75917">
        <ele>381</ele>
        <time>2022-09-05T08:18:02.000Z</time>
      </trkpt>
      <trkpt lat="49.87102" lon="4.75917">
        <ele>381</ele>
        <time>2022-09-05T08:18:03.000Z</time>
      </trkpt>
      <trkpt lat="49.87102" lon="4.75917">
        <ele>381</ele>
        <time>2022-09-05T08:18:04.000Z</time>
      </trkpt>
      <trkpt lat="49.87102" lon="4.75917">
        <ele>381</ele>
        <time>2022-09-05T08:18:05.000Z</time>
      </trkpt>
      <trkpt lat="49.87102" lon="4.75917">
        <ele>381</ele>
        <time>2022-09-05T08:18:06.000Z</time>
      </trkpt>
      <trkpt lat="49.87102" lon="4.75917">
        <ele>381</ele>
        <time>2022-09-05T08:18:07.000Z</time>
      </trkpt>
      <trkpt lat="49.87102" lon="4.75917">
        <ele>381</ele>
        <time>2022-09-05T08:18:08.000Z</time>
      </trkpt>
      <trkpt lat="49.87102" lon="4.75917">
        <ele>381</ele>
        <time>2022-09-05T08:18:09.000Z</time>
      </trkpt>
      <trkpt lat="49.87102" lon="4.75917">
        <ele>381</ele>
        <time>2022-09-05T08:18:10.000Z</time>
      </trkpt>
      <trkpt lat="49.87102" lon="4.75917">
        <ele>381</ele>
        <time>2022-09-05T08:18:11.000Z</time>
      </trkpt>
      <trkpt lat="49.87102" lon="4.75917">
        <ele>381</ele>
        <time>2022-09-05T08:18:12.000Z</time>
      </trkpt>
      <trkpt lat="49.87102" lon="4.75917">
        <ele>381</ele>
        <time>2022-09-05T08:18:13.000Z</time>
      </trkpt>
      <trkpt lat="49.87102" lon="4.75917">
        <ele>381</ele>
        <time>2022-09-05T08:18:14.000Z</time>
      </trkpt>
      <trkpt lat="49.87101" lon="4.75917">
        <ele>381</ele>
        <time>2022-09-05T08:18:15.000Z</time>
      </trkpt>
      <trkpt lat="49.87099" lon="4.75916">
        <ele>381</ele>
        <time>2022-09-05T08:18:16.000Z</time>
      </trkpt>
      <trkpt lat="49.87098" lon="4.75915">
        <ele>381</ele>
        <time>2022-09-05T08:18:17.000Z</time>
      </trkpt>
      <trkpt lat="49.87097" lon="4.75912">
        <ele>381</ele>
        <time>2022-09-05T08:18:18.000Z</time>
      </trkpt>
      <trkpt lat="49.87097" lon="4.75908">
        <ele>380</ele>
        <time>2022-09-05T08:18:19.000Z</time>
      </trkpt>
      <trkpt lat="49.87096" lon="4.75903">
        <ele>380</ele>
        <time>2022-09-05T08:18:20.000Z</time>
      </trkpt>
      <trkpt lat="49.87096" lon="4.75897">
        <ele>380</ele>
        <time>2022-09-05T08:18:21.000Z</time>
      </trkpt>
      <trkpt lat="49.87096" lon="4.7589">
        <ele>380</ele>
        <time>2022-09-05T08:18:22.000Z</time>
      </trkpt>
      <trkpt lat="49.87096" lon="4.75885">
        <ele>380</ele>
        <time>2022-09-05T08:18:23.000Z</time>
      </trkpt>
      <trkpt lat="49.87097" lon="4.75881">
        <ele>380</ele>
        <time>2022-09-05T08:18:24.000Z</time>
      </trkpt>
      <trkpt lat="49.87098" lon="4.75877">
        <ele>379</ele>
        <time>2022-09-05T08:18:25.000Z</time>
      </trkpt>
      <trkpt lat="49.87098" lon="4.75872">
        <ele>379</ele>
        <time>2022-09-05T08:18:26.000Z</time>
      </trkpt>
      <trkpt lat="49.87097" lon="4.75866">
        <ele>379</ele>
        <time>2022-09-05T08:18:27.000Z</time>
      </trkpt>
      <trkpt lat="49.87096" lon="4.75859">
        <ele>379</ele>
        <time>2022-09-05T08:18:28.000Z</time>
      </trkpt>
      <trkpt lat="49.87094" lon="4.75852">
        <ele>379</ele>
        <time>2022-09-05T08:18:29.000Z</time>
      </trkpt>
      <trkpt lat="49.87092" lon="4.75844">
        <ele>379</ele>
        <time>2022-09-05T08:18:30.000Z</time>
      </trkpt>
      <trkpt lat="49.8709" lon="4.75837">
        <ele>379</ele>
        <time>2022-09-05T08:18:31.000Z</time>
      </trkpt>
      <trkpt lat="49.87088" lon="4.7583">
        <ele>378</ele>
        <time>2022-09-05T08:18:32.000Z</time>
      </trkpt>
      <trkpt lat="49.87086" lon="4.75823">
        <ele>378</ele>
        <time>2022-09-05T08:18:33.000Z</time>
      </trkpt>
      <trkpt lat="49.87082" lon="4.75814">
        <ele>378</ele>
        <time>2022-09-05T08:18:34.000Z</time>
      </trkpt>
      <trkpt lat="49.87079" lon="4.75803">
        <ele>378</ele>
        <time>2022-09-05T08:18:35.000Z</time>
      </trkpt>
      <trkpt lat="49.87075" lon="4.75793">
        <ele>377</ele>
        <time>2022-09-05T08:18:36.000Z</time>
      </trkpt>
      <trkpt lat="49.87072" lon="4.75783">
        <ele>377</ele>
        <time>2022-09-05T08:18:37.000Z</time>
      </trkpt>
      <trkpt lat="49.87069" lon="4.75772">
        <ele>377</ele>
        <time>2022-09-05T08:18:38.000Z</time>
      </trkpt>
      <trkpt lat="49.87065" lon="4.75761">
        <ele>377</ele>
        <time>2022-09-05T08:18:39.000Z</time>
      </trkpt>
      <trkpt lat="49.87062" lon="4.75752">
        <ele>376</ele>
        <time>2022-09-05T08:18:40.000Z</time>
      </trkpt>
      <trkpt lat="49.8706" lon="4.75743">
        <ele>376</ele>
        <time>2022-09-05T08:18:41.000Z</time>
      </trkpt>
      <trkpt lat="49.87058" lon="4.75734">
        <ele>376</ele>
        <time>2022-09-05T08:18:42.000Z</time>
      </trkpt>
      <trkpt lat="49.87055" lon="4.75725">
        <ele>375</ele>
        <time>2022-09-05T08:18:43.000Z</time>
      </trkpt>
      <trkpt lat="49.87053" lon="4.75717">
        <ele>375</ele>
        <time>2022-09-05T08:18:44.000Z</time>
      </trkpt>
      <trkpt lat="49.8705" lon="4.75708">
        <ele>375</ele>
        <time>2022-09-05T08:18:45.000Z</time>
      </trkpt>
      <trkpt lat="49.87048" lon="4.75699">
        <ele>374</ele>
        <time>2022-09-05T08:18:46.000Z</time>
      </trkpt>
      <trkpt lat="49.87047" lon="4.75691">
        <ele>374</ele>
        <time>2022-09-05T08:18:47.000Z</time>
      </trkpt>
      <trkpt lat="49.87046" lon="4.75683">
        <ele>373</ele>
        <time>2022-09-05T08:18:48.000Z</time>
      </trkpt>
      <trkpt lat="49.87045" lon="4.75675">
        <ele>373</ele>
        <time>2022-09-05T08:18:49.000Z</time>
      </trkpt>
      <trkpt lat="49.87046" lon="4.75669">
        <ele>373</ele>
        <time>2022-09-05T08:18:50.000Z</time>
      </trkpt>
      <trkpt lat="49.87047" lon="4.75664">
        <ele>372</ele>
        <time>2022-09-05T08:18:51.000Z</time>
      </trkpt>
      <trkpt lat="49.8705" lon="4.75659">
        <ele>372</ele>
        <time>2022-09-05T08:18:52.000Z</time>
      </trkpt>
      <trkpt lat="49.87051" lon="4.75655">
        <ele>372</ele>
        <time>2022-09-05T08:18:53.000Z</time>
      </trkpt>
      <trkpt lat="49.87053" lon="4.75652">
        <ele>371</ele>
        <time>2022-09-05T08:18:54.000Z</time>
      </trkpt>
      <trkpt lat="49.87055" lon="4.75649">
        <ele>371</ele>
        <time>2022-09-05T08:18:55.000Z</time>
      </trkpt>
      <trkpt lat="49.87058" lon="4.75646">
        <ele>371</ele>
        <time>2022-09-05T08:18:56.000Z</time>
      </trkpt>
      <trkpt lat="49.8706" lon="4.75642">
        <ele>371</ele>
        <time>2022-09-05T08:18:57.000Z</time>
      </trkpt>
      <trkpt lat="49.87062" lon="4.75638">
        <ele>370</ele>
        <time>2022-09-05T08:18:58.000Z</time>
      </trkpt>
      <trkpt lat="49.87065" lon="4.75634">
        <ele>370</ele>
        <time>2022-09-05T08:18:59.000Z</time>
      </trkpt>
      <trkpt lat="49.87069" lon="4.75631">
        <ele>370</ele>
        <time>2022-09-05T08:19:00.000Z</time>
      </trkpt>
      <trkpt lat="49.87072" lon="4.75627">
        <ele>370</ele>
        <time>2022-09-05T08:19:01.000Z</time>
      </trkpt>
      <trkpt lat="49.87075" lon="4.75624">
        <ele>370</ele>
        <time>2022-09-05T08:19:02.000Z</time>
      </trkpt>
      <trkpt lat="49.87077" lon="4.7562">
        <ele>369</ele>
        <time>2022-09-05T08:19:03.000Z</time>
      </trkpt>
      <trkpt lat="49.8708" lon="4.75618">
        <ele>369</ele>
        <time>2022-09-05T08:19:04.000Z</time>
      </trkpt>
      <trkpt lat="49.87084" lon="4.75616">
        <ele>369</ele>
        <time>2022-09-05T08:19:05.000Z</time>
      </trkpt>
      <trkpt lat="49.87087" lon="4.75612">
        <ele>369</ele>
        <time>2022-09-05T08:19:06.000Z</time>
      </trkpt>
      <trkpt lat="49.8709" lon="4.75608">
        <ele>368</ele>
        <time>2022-09-05T08:19:07.000Z</time>
      </trkpt>
      <trkpt lat="49.87094" lon="4.75605">
        <ele>368</ele>
        <time>2022-09-05T08:19:08.000Z</time>
      </trkpt>
      <trkpt lat="49.87096" lon="4.756">
        <ele>368</ele>
        <time>2022-09-05T08:19:09.000Z</time>
      </trkpt>
      <trkpt lat="49.87099" lon="4.75596">
        <ele>368</ele>
        <time>2022-09-05T08:19:10.000Z</time>
      </trkpt>
      <trkpt lat="49.87103" lon="4.75593">
        <ele>367</ele>
        <time>2022-09-05T08:19:11.000Z</time>
      </trkpt>
      <trkpt lat="49.87106" lon="4.7559">
        <ele>367</ele>
        <time>2022-09-05T08:19:12.000Z</time>
      </trkpt>
      <trkpt lat="49.87108" lon="4.75587">
        <ele>367</ele>
        <time>2022-09-05T08:19:13.000Z</time>
      </trkpt>
      <trkpt lat="49.87109" lon="4.75585">
        <ele>367</ele>
        <time>2022-09-05T08:19:14.000Z</time>
      </trkpt>
      <trkpt lat="49.8711" lon="4.75582">
        <ele>366</ele>
        <time>2022-09-05T08:19:15.000Z</time>
      </trkpt>
      <trkpt lat="49.87111" lon="4.75579">
        <ele>366</ele>
        <time>2022-09-05T08:19:16.000Z</time>
      </trkpt>
      <trkpt lat="49.87111" lon="4.75577">
        <ele>366</ele>
        <time>2022-09-05T08:19:17.000Z</time>
      </trkpt>
      <trkpt lat="49.87112" lon="4.75576">
        <ele>365</ele>
        <time>2022-09-05T08:19:18.000Z</time>
      </trkpt>
      <trkpt lat="49.87112" lon="4.75576">
        <ele>365</ele>
        <time>2022-09-05T08:19:19.000Z</time>
      </trkpt>
      <trkpt lat="49.87112" lon="4.75575">
        <ele>365</ele>
        <time>2022-09-05T08:19:20.000Z</time>
      </trkpt>
      <trkpt lat="49.87112" lon="4.75575">
        <ele>365</ele>
        <time>2022-09-05T08:19:21.000Z</time>
      </trkpt>
      <trkpt lat="49.87112" lon="4.75574">
        <ele>365</ele>
        <time>2022-09-05T08:19:22.000Z</time>
      </trkpt>
      <trkpt lat="49.87113" lon="4.75574">
        <ele>365</ele>
        <time>2022-09-05T08:19:23.000Z</time>
      </trkpt>
      <trkpt lat="49.87113" lon="4.75573">
        <ele>365</ele>
        <time>2022-09-05T08:19:24.000Z</time>
      </trkpt>
      <trkpt lat="49.87113" lon="4.75573">
        <ele>365</ele>
        <time>2022-09-05T08:19:25.000Z</time>
      </trkpt>
      <trkpt lat="49.87113" lon="4.75572">
        <ele>364</ele>
        <time>2022-09-05T08:19:26.000Z</time>
      </trkpt>
      <trkpt lat="49.87113" lon="4.75572">
        <ele>364</ele>
        <time>2022-09-05T08:19:27.000Z</time>
      </trkpt>
      <trkpt lat="49.87114" lon="4.75572">
        <ele>364</ele>
        <time>2022-09-05T08:19:28.000Z</time>
      </trkpt>
      <trkpt lat="49.87114" lon="4.75571">
        <ele>364</ele>
        <time>2022-09-05T08:19:29.000Z</time>
      </trkpt>
      <trkpt lat="49.87114" lon="4.75571">
        <ele>364</ele>
        <time>2022-09-05T08:19:30.000Z</time>
      </trkpt>
      <trkpt lat="49.87114" lon="4.75571">
        <ele>364</ele>
        <time>2022-09-05T08:19:31.000Z</time>
      </trkpt>
      <trkpt lat="49.87114" lon="4.75571">
        <ele>364</ele>
        <time>2022-09-05T08:19:32.000Z</time>
      </trkpt>
      <trkpt lat="49.87114" lon="4.75571">
        <ele>364</ele>
        <time>2022-09-05T08:19:33.000Z</time>
      </trkpt>
      <trkpt lat="49.87114" lon="4.7557">
        <ele>364</ele>
        <time>2022-09-05T08:19:34.000Z</time>
      </trkpt>
      <trkpt lat="49.87114" lon="4.7557">
        <ele>364</ele>
        <time>2022-09-05T08:19:35.000Z</time>
      </trkpt>
      <trkpt lat="49.87114" lon="4.7557">
        <ele>365</ele>
        <time>2022-09-05T08:19:36.000Z</time>
      </trkpt>
      <trkpt lat="49.87115" lon="4.7557">
        <ele>365</ele>
        <time>2022-09-05T08:19:37.000Z</time>
      </trkpt>
      <trkpt lat="49.87115" lon="4.7557">
        <ele>365</ele>
        <time>2022-09-05T08:19:38.000Z</time>
      </trkpt>
      <trkpt lat="49.87115" lon="4.7557">
        <ele>365</ele>
        <time>2022-09-05T08:19:39.000Z</time>
      </trkpt>
      <trkpt lat="49.87115" lon="4.7557">
        <ele>365</ele>
        <time>2022-09-05T08:19:40.000Z</time>
      </trkpt>
      <trkpt lat="49.87115" lon="4.7557">
        <ele>365</ele>
        <time>2022-09-05T08:19:41.000Z</time>
      </trkpt>
      <trkpt lat="49.87115" lon="4.75569">
        <ele>365</ele>
        <time>2022-09-05T08:19:42.000Z</time>
      </trkpt>
      <trkpt lat="49.87115" lon="4.75569">
        <ele>365</ele>
        <time>2022-09-05T08:19:43.000Z</time>
      </trkpt>
      <trkpt lat="49.87115" lon="4.75569">
        <ele>365</ele>
        <time>2022-09-05T08:19:44.000Z</time>
      </trkpt>
      <trkpt lat="49.87115" lon="4.75569">
        <ele>365</ele>
        <time>2022-09-05T08:19:45.000Z</time>
      </trkpt>
      <trkpt lat="49.87115" lon="4.75569">
        <ele>365</ele>
        <time>2022-09-05T08:19:46.000Z</time>
      </trkpt>
      <trkpt lat="49.87115" lon="4.75569">
        <ele>365</ele>
        <time>2022-09-05T08:19:47.000Z</time>
      </trkpt>
      <trkpt lat="49.87114" lon="4.75569">
        <ele>365</ele>
        <time>2022-09-05T08:19:48.000Z</time>
      </trkpt>
      <trkpt lat="49.87114" lon="4.75569">
        <ele>365</ele>
        <time>2022-09-05T08:19:49.000Z</time>
      </trkpt>
      <trkpt lat="49.87114" lon="4.75567">
        <ele>365</ele>
        <time>2022-09-05T08:19:50.000Z</time>
      </trkpt>
      <trkpt lat="49.87115" lon="4.75565">
        <ele>365</ele>
        <time>2022-09-05T08:19:51.000Z</time>
      </trkpt>
      <trkpt lat="49.87115" lon="4.75561">
        <ele>365</ele>
        <time>2022-09-05T08:19:52.000Z</time>
      </trkpt>
      <trkpt lat="49.87115" lon="4.75557">
        <ele>364</ele>
        <time>2022-09-05T08:19:53.000Z</time>
      </trkpt>
      <trkpt lat="49.87115" lon="4.75553">
        <ele>364</ele>
        <time>2022-09-05T08:19:54.000Z</time>
      </trkpt>
      <trkpt lat="49.87115" lon="4.75548">
        <ele>364</ele>
        <time>2022-09-05T08:19:55.000Z</time>
      </trkpt>
      <trkpt lat="49.87115" lon="4.75545">
        <ele>364</ele>
        <time>2022-09-05T08:19:56.000Z</time>
      </trkpt>
      <trkpt lat="49.87114" lon="4.75544">
        <ele>364</ele>
        <time>2022-09-05T08:19:57.000Z</time>
      </trkpt>
      <trkpt lat="49.87114" lon="4.75544">
        <ele>364</ele>
        <time>2022-09-05T08:19:58.000Z</time>
      </trkpt>
      <trkpt lat="49.87114" lon="4.75544">
        <ele>364</ele>
        <time>2022-09-05T08:19:59.000Z</time>
      </trkpt>
      <trkpt lat="49.87115" lon="4.75544">
        <ele>364</ele>
        <time>2022-09-05T08:20:00.000Z</time>
      </trkpt>
      <trkpt lat="49.87115" lon="4.75543">
        <ele>364</ele>
        <time>2022-09-05T08:20:01.000Z</time>
      </trkpt>
      <trkpt lat="49.87115" lon="4.75543">
        <ele>364</ele>
        <time>2022-09-05T08:20:02.000Z</time>
      </trkpt>
      <trkpt lat="49.87115" lon="4.75544">
        <ele>364</ele>
        <time>2022-09-05T08:20:03.000Z</time>
      </trkpt>
      <trkpt lat="49.87115" lon="4.75544">
        <ele>364</ele>
        <time>2022-09-05T08:20:04.000Z</time>
      </trkpt>
      <trkpt lat="49.87115" lon="4.75543">
        <ele>364</ele>
        <time>2022-09-05T08:20:05.000Z</time>
      </trkpt>
      <trkpt lat="49.87115" lon="4.75542">
        <ele>364</ele>
        <time>2022-09-05T08:20:06.000Z</time>
      </trkpt>
      <trkpt lat="49.87115" lon="4.75541">
        <ele>363</ele>
        <time>2022-09-05T08:20:07.000Z</time>
      </trkpt>
      <trkpt lat="49.87114" lon="4.7554">
        <ele>363</ele>
        <time>2022-09-05T08:20:08.000Z</time>
      </trkpt>
      <trkpt lat="49.87113" lon="4.75537">
        <ele>363</ele>
        <time>2022-09-05T08:20:09.000Z</time>
      </trkpt>
      <trkpt lat="49.87111" lon="4.75534">
        <ele>363</ele>
        <time>2022-09-05T08:20:10.000Z</time>
      </trkpt>
      <trkpt lat="49.87109" lon="4.75531">
        <ele>363</ele>
        <time>2022-09-05T08:20:11.000Z</time>
      </trkpt>
      <trkpt lat="49.87106" lon="4.75528">
        <ele>363</ele>
        <time>2022-09-05T08:20:12.000Z</time>
      </trkpt>
      <trkpt lat="49.87103" lon="4.75525">
        <ele>363</ele>
        <time>2022-09-05T08:20:13.000Z</time>
      </trkpt>
      <trkpt lat="49.871" lon="4.75523">
        <ele>363</ele>
        <time>2022-09-05T08:20:14.000Z</time>
      </trkpt>
      <trkpt lat="49.87096" lon="4.75521">
        <ele>362</ele>
        <time>2022-09-05T08:20:15.000Z</time>
      </trkpt>
      <trkpt lat="49.87093" lon="4.75518">
        <ele>362</ele>
        <time>2022-09-05T08:20:16.000Z</time>
      </trkpt>
      <trkpt lat="49.8709" lon="4.75516">
        <ele>362</ele>
        <time>2022-09-05T08:20:17.000Z</time>
      </trkpt>
      <trkpt lat="49.87086" lon="4.75513">
        <ele>362</ele>
        <time>2022-09-05T08:20:18.000Z</time>
      </trkpt>
      <trkpt lat="49.87083" lon="4.75511">
        <ele>361</ele>
        <time>2022-09-05T08:20:19.000Z</time>
      </trkpt>
      <trkpt lat="49.87079" lon="4.75508">
        <ele>361</ele>
        <time>2022-09-05T08:20:20.000Z</time>
      </trkpt>
      <trkpt lat="49.87075" lon="4.75506">
        <ele>361</ele>
        <time>2022-09-05T08:20:21.000Z</time>
      </trkpt>
      <trkpt lat="49.87072" lon="4.75503">
        <ele>360</ele>
        <time>2022-09-05T08:20:22.000Z</time>
      </trkpt>
      <trkpt lat="49.87068" lon="4.755">
        <ele>360</ele>
        <time>2022-09-05T08:20:23.000Z</time>
      </trkpt>
      <trkpt lat="49.87065" lon="4.75497">
        <ele>360</ele>
        <time>2022-09-05T08:20:24.000Z</time>
      </trkpt>
      <trkpt lat="49.87063" lon="4.75493">
        <ele>360</ele>
        <time>2022-09-05T08:20:25.000Z</time>
      </trkpt>
      <trkpt lat="49.8706" lon="4.75489">
        <ele>360</ele>
        <time>2022-09-05T08:20:26.000Z</time>
      </trkpt>
      <trkpt lat="49.87058" lon="4.75486">
        <ele>359</ele>
        <time>2022-09-05T08:20:27.000Z</time>
      </trkpt>
      <trkpt lat="49.87055" lon="4.75481">
        <ele>359</ele>
        <time>2022-09-05T08:20:28.000Z</time>
      </trkpt>
      <trkpt lat="49.87052" lon="4.75476">
        <ele>359</ele>
        <time>2022-09-05T08:20:29.000Z</time>
      </trkpt>
      <trkpt lat="49.87049" lon="4.75472">
        <ele>359</ele>
        <time>2022-09-05T08:20:30.000Z</time>
      </trkpt>
      <trkpt lat="49.87046" lon="4.75468">
        <ele>358</ele>
        <time>2022-09-05T08:20:31.000Z</time>
      </trkpt>
      <trkpt lat="49.87043" lon="4.75463">
        <ele>358</ele>
        <time>2022-09-05T08:20:32.000Z</time>
      </trkpt>
      <trkpt lat="49.87039" lon="4.75458">
        <ele>358</ele>
        <time>2022-09-05T08:20:33.000Z</time>
      </trkpt>
      <trkpt lat="49.87035" lon="4.75453">
        <ele>358</ele>
        <time>2022-09-05T08:20:34.000Z</time>
      </trkpt>
      <trkpt lat="49.87032" lon="4.75447">
        <ele>357</ele>
        <time>2022-09-05T08:20:35.000Z</time>
      </trkpt>
      <trkpt lat="49.87028" lon="4.7544">
        <ele>357</ele>
        <time>2022-09-05T08:20:36.000Z</time>
      </trkpt>
      <trkpt lat="49.87023" lon="4.75434">
        <ele>357</ele>
        <time>2022-09-05T08:20:37.000Z</time>
      </trkpt>
      <trkpt lat="49.87019" lon="4.75428">
        <ele>357</ele>
        <time>2022-09-05T08:20:38.000Z</time>
      </trkpt>
      <trkpt lat="49.87015" lon="4.75421">
        <ele>356</ele>
        <time>2022-09-05T08:20:39.000Z</time>
      </trkpt>
      <trkpt lat="49.87011" lon="4.75415">
        <ele>356</ele>
        <time>2022-09-05T08:20:40.000Z</time>
      </trkpt>
      <trkpt lat="49.87006" lon="4.75409">
        <ele>356</ele>
        <time>2022-09-05T08:20:41.000Z</time>
      </trkpt>
      <trkpt lat="49.87001" lon="4.75404">
        <ele>356</ele>
        <time>2022-09-05T08:20:42.000Z</time>
      </trkpt>
      <trkpt lat="49.86996" lon="4.75398">
        <ele>355</ele>
        <time>2022-09-05T08:20:43.000Z</time>
      </trkpt>
      <trkpt lat="49.86992" lon="4.75394">
        <ele>355</ele>
        <time>2022-09-05T08:20:44.000Z</time>
      </trkpt>
      <trkpt lat="49.86989" lon="4.75388">
        <ele>355</ele>
        <time>2022-09-05T08:20:45.000Z</time>
      </trkpt>
      <trkpt lat="49.86986" lon="4.75383">
        <ele>354</ele>
        <time>2022-09-05T08:20:46.000Z</time>
      </trkpt>
      <trkpt lat="49.86983" lon="4.75378">
        <ele>354</ele>
        <time>2022-09-05T08:20:47.000Z</time>
      </trkpt>
      <trkpt lat="49.8698" lon="4.75373">
        <ele>354</ele>
        <time>2022-09-05T08:20:48.000Z</time>
      </trkpt>
      <trkpt lat="49.86978" lon="4.75369">
        <ele>354</ele>
        <time>2022-09-05T08:20:49.000Z</time>
      </trkpt>
      <trkpt lat="49.86976" lon="4.75366">
        <ele>353</ele>
        <time>2022-09-05T08:20:50.000Z</time>
      </trkpt>
      <trkpt lat="49.86974" lon="4.75364">
        <ele>353</ele>
        <time>2022-09-05T08:20:51.000Z</time>
      </trkpt>
      <trkpt lat="49.86972" lon="4.75362">
        <ele>353</ele>
        <time>2022-09-05T08:20:52.000Z</time>
      </trkpt>
      <trkpt lat="49.86969" lon="4.75359">
        <ele>353</ele>
        <time>2022-09-05T08:20:53.000Z</time>
      </trkpt>
      <trkpt lat="49.86966" lon="4.75357">
        <ele>353</ele>
        <time>2022-09-05T08:20:54.000Z</time>
      </trkpt>
      <trkpt lat="49.86964" lon="4.75355">
        <ele>353</ele>
        <time>2022-09-05T08:20:55.000Z</time>
      </trkpt>
      <trkpt lat="49.86961" lon="4.75353">
        <ele>352</ele>
        <time>2022-09-05T08:20:56.000Z</time>
      </trkpt>
      <trkpt lat="49.86958" lon="4.75351">
        <ele>352</ele>
        <time>2022-09-05T08:20:57.000Z</time>
      </trkpt>
      <trkpt lat="49.86955" lon="4.75349">
        <ele>352</ele>
        <time>2022-09-05T08:20:58.000Z</time>
      </trkpt>
      <trkpt lat="49.86953" lon="4.75347">
        <ele>352</ele>
        <time>2022-09-05T08:20:59.000Z</time>
      </trkpt>
      <trkpt lat="49.86951" lon="4.75343">
        <ele>352</ele>
        <time>2022-09-05T08:21:00.000Z</time>
      </trkpt>
      <trkpt lat="49.86951" lon="4.75339">
        <ele>351</ele>
        <time>2022-09-05T08:21:01.000Z</time>
      </trkpt>
      <trkpt lat="49.86951" lon="4.75335">
        <ele>351</ele>
        <time>2022-09-05T08:21:02.000Z</time>
      </trkpt>
      <trkpt lat="49.86952" lon="4.75332">
        <ele>351</ele>
        <time>2022-09-05T08:21:03.000Z</time>
      </trkpt>
      <trkpt lat="49.86954" lon="4.75329">
        <ele>351</ele>
        <time>2022-09-05T08:21:04.000Z</time>
      </trkpt>
      <trkpt lat="49.86955" lon="4.75327">
        <ele>351</ele>
        <time>2022-09-05T08:21:05.000Z</time>
      </trkpt>
      <trkpt lat="49.86957" lon="4.75324">
        <ele>351</ele>
        <time>2022-09-05T08:21:06.000Z</time>
      </trkpt>
      <trkpt lat="49.86959" lon="4.75321">
        <ele>351</ele>
        <time>2022-09-05T08:21:07.000Z</time>
      </trkpt>
      <trkpt lat="49.86962" lon="4.75319">
        <ele>351</ele>
        <time>2022-09-05T08:21:08.000Z</time>
      </trkpt>
      <trkpt lat="49.86964" lon="4.75317">
        <ele>351</ele>
        <time>2022-09-05T08:21:09.000Z</time>
      </trkpt>
      <trkpt lat="49.86966" lon="4.75316">
        <ele>351</ele>
        <time>2022-09-05T08:21:10.000Z</time>
      </trkpt>
      <trkpt lat="49.86968" lon="4.75313">
        <ele>351</ele>
        <time>2022-09-05T08:21:11.000Z</time>
      </trkpt>
      <trkpt lat="49.86969" lon="4.7531">
        <ele>351</ele>
        <time>2022-09-05T08:21:12.000Z</time>
      </trkpt>
      <trkpt lat="49.8697" lon="4.75306">
        <ele>351</ele>
        <time>2022-09-05T08:21:13.000Z</time>
      </trkpt>
      <trkpt lat="49.86971" lon="4.75303">
        <ele>351</ele>
        <time>2022-09-05T08:21:14.000Z</time>
      </trkpt>
      <trkpt lat="49.86971" lon="4.753">
        <ele>351</ele>
        <time>2022-09-05T08:21:15.000Z</time>
      </trkpt>
      <trkpt lat="49.86971" lon="4.75296">
        <ele>352</ele>
        <time>2022-09-05T08:21:16.000Z</time>
      </trkpt>
      <trkpt lat="49.86971" lon="4.75293">
        <ele>352</ele>
        <time>2022-09-05T08:21:17.000Z</time>
      </trkpt>
      <trkpt lat="49.86972" lon="4.75289">
        <ele>352</ele>
        <time>2022-09-05T08:21:18.000Z</time>
      </trkpt>
      <trkpt lat="49.86973" lon="4.75286">
        <ele>352</ele>
        <time>2022-09-05T08:21:19.000Z</time>
      </trkpt>
      <trkpt lat="49.86974" lon="4.75284">
        <ele>352</ele>
        <time>2022-09-05T08:21:20.000Z</time>
      </trkpt>
      <trkpt lat="49.86976" lon="4.75282">
        <ele>352</ele>
        <time>2022-09-05T08:21:21.000Z</time>
      </trkpt>
      <trkpt lat="49.86977" lon="4.75282">
        <ele>353</ele>
        <time>2022-09-05T08:21:22.000Z</time>
      </trkpt>
      <trkpt lat="49.86979" lon="4.75283">
        <ele>353</ele>
        <time>2022-09-05T08:21:23.000Z</time>
      </trkpt>
      <trkpt lat="49.8698" lon="4.75284">
        <ele>353</ele>
        <time>2022-09-05T08:21:24.000Z</time>
      </trkpt>
      <trkpt lat="49.86982" lon="4.75285">
        <ele>353</ele>
        <time>2022-09-05T08:21:25.000Z</time>
      </trkpt>
      <trkpt lat="49.86984" lon="4.75286">
        <ele>353</ele>
        <time>2022-09-05T08:21:26.000Z</time>
      </trkpt>
      <trkpt lat="49.86985" lon="4.75288">
        <ele>353</ele>
        <time>2022-09-05T08:21:27.000Z</time>
      </trkpt>
      <trkpt lat="49.86987" lon="4.7529">
        <ele>353</ele>
        <time>2022-09-05T08:21:28.000Z</time>
      </trkpt>
      <trkpt lat="49.8699" lon="4.75292">
        <ele>353</ele>
        <time>2022-09-05T08:21:29.000Z</time>
      </trkpt>
      <trkpt lat="49.86991" lon="4.75294">
        <ele>353</ele>
        <time>2022-09-05T08:21:30.000Z</time>
      </trkpt>
      <trkpt lat="49.86994" lon="4.75297">
        <ele>353</ele>
        <time>2022-09-05T08:21:31.000Z</time>
      </trkpt>
      <trkpt lat="49.86996" lon="4.75299">
        <ele>354</ele>
        <time>2022-09-05T08:21:32.000Z</time>
      </trkpt>
      <trkpt lat="49.86998" lon="4.75301">
        <ele>354</ele>
        <time>2022-09-05T08:21:33.000Z</time>
      </trkpt>
      <trkpt lat="49.87002" lon="4.75301">
        <ele>354</ele>
        <time>2022-09-05T08:21:34.000Z</time>
      </trkpt>
      <trkpt lat="49.87006" lon="4.75302">
        <ele>354</ele>
        <time>2022-09-05T08:21:35.000Z</time>
      </trkpt>
      <trkpt lat="49.87009" lon="4.75302">
        <ele>354</ele>
        <time>2022-09-05T08:21:36.000Z</time>
      </trkpt>
      <trkpt lat="49.87012" lon="4.75302">
        <ele>354</ele>
        <time>2022-09-05T08:21:37.000Z</time>
      </trkpt>
      <trkpt lat="49.87014" lon="4.753">
        <ele>354</ele>
        <time>2022-09-05T08:21:38.000Z</time>
      </trkpt>
      <trkpt lat="49.87016" lon="4.75298">
        <ele>354</ele>
        <time>2022-09-05T08:21:39.000Z</time>
      </trkpt>
      <trkpt lat="49.87018" lon="4.75295">
        <ele>354</ele>
        <time>2022-09-05T08:21:40.000Z</time>
      </trkpt>
      <trkpt lat="49.8702" lon="4.75293">
        <ele>354</ele>
        <time>2022-09-05T08:21:41.000Z</time>
      </trkpt>
      <trkpt lat="49.87021" lon="4.75292">
        <ele>354</ele>
        <time>2022-09-05T08:21:42.000Z</time>
      </trkpt>
      <trkpt lat="49.87023" lon="4.75292">
        <ele>354</ele>
        <time>2022-09-05T08:21:43.000Z</time>
      </trkpt>
      <trkpt lat="49.87024" lon="4.75293">
        <ele>354</ele>
        <time>2022-09-05T08:21:44.000Z</time>
      </trkpt>
      <trkpt lat="49.87024" lon="4.75293">
        <ele>354</ele>
        <time>2022-09-05T08:21:45.000Z</time>
      </trkpt>
      <trkpt lat="49.87024" lon="4.75293">
        <ele>354</ele>
        <time>2022-09-05T08:21:46.000Z</time>
      </trkpt>
      <trkpt lat="49.87025" lon="4.75292">
        <ele>354</ele>
        <time>2022-09-05T08:21:47.000Z</time>
      </trkpt>
      <trkpt lat="49.87025" lon="4.75292">
        <ele>354</ele>
        <time>2022-09-05T08:21:48.000Z</time>
      </trkpt>
      <trkpt lat="49.87025" lon="4.75292">
        <ele>354</ele>
        <time>2022-09-05T08:21:49.000Z</time>
      </trkpt>
      <trkpt lat="49.87026" lon="4.75292">
        <ele>354</ele>
        <time>2022-09-05T08:21:50.000Z</time>
      </trkpt>
      <trkpt lat="49.87026" lon="4.75292">
        <ele>354</ele>
        <time>2022-09-05T08:21:51.000Z</time>
      </trkpt>
      <trkpt lat="49.87026" lon="4.75291">
        <ele>354</ele>
        <time>2022-09-05T08:21:52.000Z</time>
      </trkpt>
      <trkpt lat="49.87027" lon="4.75291">
        <ele>354</ele>
        <time>2022-09-05T08:21:53.000Z</time>
      </trkpt>
      <trkpt lat="49.87027" lon="4.75291">
        <ele>354</ele>
        <time>2022-09-05T08:21:54.000Z</time>
      </trkpt>
      <trkpt lat="49.87027" lon="4.7529">
        <ele>354</ele>
        <time>2022-09-05T08:21:55.000Z</time>
      </trkpt>
      <trkpt lat="49.87028" lon="4.75289">
        <ele>354</ele>
        <time>2022-09-05T08:21:56.000Z</time>
      </trkpt>
      <trkpt lat="49.87028" lon="4.75289">
        <ele>353</ele>
        <time>2022-09-05T08:21:57.000Z</time>
      </trkpt>
      <trkpt lat="49.87028" lon="4.75288">
        <ele>353</ele>
        <time>2022-09-05T08:21:58.000Z</time>
      </trkpt>
      <trkpt lat="49.87029" lon="4.75288">
        <ele>353</ele>
        <time>2022-09-05T08:21:59.000Z</time>
      </trkpt>
      <trkpt lat="49.87029" lon="4.75288">
        <ele>353</ele>
        <time>2022-09-05T08:22:00.000Z</time>
      </trkpt>
      <trkpt lat="49.87029" lon="4.75287">
        <ele>353</ele>
        <time>2022-09-05T08:22:01.000Z</time>
      </trkpt>
      <trkpt lat="49.87029" lon="4.75287">
        <ele>353</ele>
        <time>2022-09-05T08:22:02.000Z</time>
      </trkpt>
      <trkpt lat="49.87029" lon="4.75287">
        <ele>353</ele>
        <time>2022-09-05T08:22:03.000Z</time>
      </trkpt>
      <trkpt lat="49.87029" lon="4.75286">
        <ele>353</ele>
        <time>2022-09-05T08:22:04.000Z</time>
      </trkpt>
      <trkpt lat="49.8703" lon="4.75286">
        <ele>353</ele>
        <time>2022-09-05T08:22:05.000Z</time>
      </trkpt>
      <trkpt lat="49.8703" lon="4.75286">
        <ele>353</ele>
        <time>2022-09-05T08:22:06.000Z</time>
      </trkpt>
      <trkpt lat="49.8703" lon="4.75285">
        <ele>353</ele>
        <time>2022-09-05T08:22:07.000Z</time>
      </trkpt>
      <trkpt lat="49.8703" lon="4.75285">
        <ele>353</ele>
        <time>2022-09-05T08:22:08.000Z</time>
      </trkpt>
      <trkpt lat="49.8703" lon="4.75285">
        <ele>353</ele>
        <time>2022-09-05T08:22:09.000Z</time>
      </trkpt>
      <trkpt lat="49.8703" lon="4.75285">
        <ele>353</ele>
        <time>2022-09-05T08:22:10.000Z</time>
      </trkpt>
      <trkpt lat="49.87031" lon="4.75285">
        <ele>353</ele>
        <time>2022-09-05T08:22:11.000Z</time>
      </trkpt>
      <trkpt lat="49.87031" lon="4.75284">
        <ele>353</ele>
        <time>2022-09-05T08:22:12.000Z</time>
      </trkpt>
      <trkpt lat="49.87031" lon="4.75284">
        <ele>353</ele>
        <time>2022-09-05T08:22:13.000Z</time>
      </trkpt>
      <trkpt lat="49.87031" lon="4.75284">
        <ele>353</ele>
        <time>2022-09-05T08:22:14.000Z</time>
      </trkpt>
      <trkpt lat="49.87031" lon="4.75284">
        <ele>353</ele>
        <time>2022-09-05T08:22:15.000Z</time>
      </trkpt>
      <trkpt lat="49.87031" lon="4.75284">
        <ele>353</ele>
        <time>2022-09-05T08:22:16.000Z</time>
      </trkpt>
      <trkpt lat="49.87031" lon="4.75284">
        <ele>353</ele>
        <time>2022-09-05T08:22:17.000Z</time>
      </trkpt>
      <trkpt lat="49.87032" lon="4.75284">
        <ele>353</ele>
        <time>2022-09-05T08:22:18.000Z</time>
      </trkpt>
      <trkpt lat="49.87032" lon="4.75284">
        <ele>353</ele>
        <time>2022-09-05T08:22:19.000Z</time>
      </trkpt>
      <trkpt lat="49.87032" lon="4.75284">
        <ele>353</ele>
        <time>2022-09-05T08:22:20.000Z</time>
      </trkpt>
      <trkpt lat="49.87032" lon="4.75284">
        <ele>353</ele>
        <time>2022-09-05T08:22:21.000Z</time>
      </trkpt>
      <trkpt lat="49.87032" lon="4.75284">
        <ele>353</ele>
        <time>2022-09-05T08:22:22.000Z</time>
      </trkpt>
      <trkpt lat="49.87033" lon="4.75284">
        <ele>353</ele>
        <time>2022-09-05T08:22:23.000Z</time>
      </trkpt>
      <trkpt lat="49.87033" lon="4.75284">
        <ele>353</ele>
        <time>2022-09-05T08:22:24.000Z</time>
      </trkpt>
      <trkpt lat="49.87033" lon="4.75283">
        <ele>353</ele>
        <time>2022-09-05T08:22:25.000Z</time>
      </trkpt>
      <trkpt lat="49.87033" lon="4.75283">
        <ele>353</ele>
        <time>2022-09-05T08:22:26.000Z</time>
      </trkpt>
      <trkpt lat="49.87034" lon="4.75284">
        <ele>353</ele>
        <time>2022-09-05T08:22:27.000Z</time>
      </trkpt>
      <trkpt lat="49.87036" lon="4.75284">
        <ele>353</ele>
        <time>2022-09-05T08:22:28.000Z</time>
      </trkpt>
      <trkpt lat="49.87039" lon="4.75284">
        <ele>353</ele>
        <time>2022-09-05T08:22:29.000Z</time>
      </trkpt>
      <trkpt lat="49.87042" lon="4.75286">
        <ele>353</ele>
        <time>2022-09-05T08:22:30.000Z</time>
      </trkpt>
      <trkpt lat="49.87045" lon="4.75289">
        <ele>353</ele>
        <time>2022-09-05T08:22:31.000Z</time>
      </trkpt>
      <trkpt lat="49.8705" lon="4.75292">
        <ele>353</ele>
        <time>2022-09-05T08:22:32.000Z</time>
      </trkpt>
      <trkpt lat="49.87055" lon="4.75294">
        <ele>353</ele>
        <time>2022-09-05T08:22:33.000Z</time>
      </trkpt>
      <trkpt lat="49.8706" lon="4.75296">
        <ele>353</ele>
        <time>2022-09-05T08:22:34.000Z</time>
      </trkpt>
      <trkpt lat="49.87064" lon="4.75299">
        <ele>353</ele>
        <time>2022-09-05T08:22:35.000Z</time>
      </trkpt>
      <trkpt lat="49.87067" lon="4.75303">
        <ele>353</ele>
        <time>2022-09-05T08:22:36.000Z</time>
      </trkpt>
      <trkpt lat="49.87071" lon="4.75306">
        <ele>353</ele>
        <time>2022-09-05T08:22:37.000Z</time>
      </trkpt>
      <trkpt lat="49.87075" lon="4.75309">
        <ele>353</ele>
        <time>2022-09-05T08:22:38.000Z</time>
      </trkpt>
      <trkpt lat="49.87078" lon="4.75314">
        <ele>353</ele>
        <time>2022-09-05T08:22:39.000Z</time>
      </trkpt>
      <trkpt lat="49.87081" lon="4.75318">
        <ele>353</ele>
        <time>2022-09-05T08:22:40.000Z</time>
      </trkpt>
      <trkpt lat="49.87084" lon="4.75322">
        <ele>353</ele>
        <time>2022-09-05T08:22:41.000Z</time>
      </trkpt>
      <trkpt lat="49.87087" lon="4.75328">
        <ele>353</ele>
        <time>2022-09-05T08:22:42.000Z</time>
      </trkpt>
      <trkpt lat="49.87089" lon="4.75332">
        <ele>353</ele>
        <time>2022-09-05T08:22:43.000Z</time>
      </trkpt>
      <trkpt lat="49.87091" lon="4.75334">
        <ele>352</ele>
        <time>2022-09-05T08:22:44.000Z</time>
      </trkpt>
      <trkpt lat="49.87093" lon="4.75337">
        <ele>352</ele>
        <time>2022-09-05T08:22:45.000Z</time>
      </trkpt>
      <trkpt lat="49.87095" lon="4.7534">
        <ele>352</ele>
        <time>2022-09-05T08:22:46.000Z</time>
      </trkpt>
      <trkpt lat="49.87099" lon="4.75343">
        <ele>352</ele>
        <time>2022-09-05T08:22:47.000Z</time>
      </trkpt>
      <trkpt lat="49.87103" lon="4.75346">
        <ele>351</ele>
        <time>2022-09-05T08:22:48.000Z</time>
      </trkpt>
      <trkpt lat="49.87106" lon="4.75348">
        <ele>351</ele>
        <time>2022-09-05T08:22:49.000Z</time>
      </trkpt>
      <trkpt lat="49.8711" lon="4.7535">
        <ele>351</ele>
        <time>2022-09-05T08:22:50.000Z</time>
      </trkpt>
      <trkpt lat="49.87113" lon="4.75353">
        <ele>351</ele>
        <time>2022-09-05T08:22:51.000Z</time>
      </trkpt>
      <trkpt lat="49.87118" lon="4.75359">
        <ele>351</ele>
        <time>2022-09-05T08:22:52.000Z</time>
      </trkpt>
      <trkpt lat="49.87121" lon="4.75364">
        <ele>350</ele>
        <time>2022-09-05T08:22:53.000Z</time>
      </trkpt>
      <trkpt lat="49.87125" lon="4.7537">
        <ele>350</ele>
        <time>2022-09-05T08:22:54.000Z</time>
      </trkpt>
      <trkpt lat="49.87129" lon="4.75376">
        <ele>350</ele>
        <time>2022-09-05T08:22:55.000Z</time>
      </trkpt>
      <trkpt lat="49.87133" lon="4.75381">
        <ele>349</ele>
        <time>2022-09-05T08:22:56.000Z</time>
      </trkpt>
      <trkpt lat="49.87138" lon="4.75385">
        <ele>349</ele>
        <time>2022-09-05T08:22:57.000Z</time>
      </trkpt>
      <trkpt lat="49.87144" lon="4.75391">
        <ele>349</ele>
        <time>2022-09-05T08:22:58.000Z</time>
      </trkpt>
      <trkpt lat="49.87148" lon="4.75395">
        <ele>349</ele>
        <time>2022-09-05T08:22:59.000Z</time>
      </trkpt>
      <trkpt lat="49.87153" lon="4.75399">
        <ele>348</ele>
        <time>2022-09-05T08:23:00.000Z</time>
      </trkpt>
      <trkpt lat="49.87156" lon="4.75401">
        <ele>348</ele>
        <time>2022-09-05T08:23:01.000Z</time>
      </trkpt>
      <trkpt lat="49.8716" lon="4.75402">
        <ele>348</ele>
        <time>2022-09-05T08:23:02.000Z</time>
      </trkpt>
      <trkpt lat="49.87162" lon="4.75403">
        <ele>348</ele>
        <time>2022-09-05T08:23:03.000Z</time>
      </trkpt>
      <trkpt lat="49.87165" lon="4.75404">
        <ele>348</ele>
        <time>2022-09-05T08:23:04.000Z</time>
      </trkpt>
      <trkpt lat="49.87168" lon="4.75406">
        <ele>348</ele>
        <time>2022-09-05T08:23:05.000Z</time>
      </trkpt>
      <trkpt lat="49.87172" lon="4.75406">
        <ele>347</ele>
        <time>2022-09-05T08:23:06.000Z</time>
      </trkpt>
      <trkpt lat="49.87175" lon="4.75407">
        <ele>347</ele>
        <time>2022-09-05T08:23:07.000Z</time>
      </trkpt>
      <trkpt lat="49.87178" lon="4.75406">
        <ele>347</ele>
        <time>2022-09-05T08:23:08.000Z</time>
      </trkpt>
      <trkpt lat="49.8718" lon="4.75405">
        <ele>347</ele>
        <time>2022-09-05T08:23:09.000Z</time>
      </trkpt>
      <trkpt lat="49.87183" lon="4.75404">
        <ele>347</ele>
        <time>2022-09-05T08:23:10.000Z</time>
      </trkpt>
      <trkpt lat="49.87185" lon="4.75404">
        <ele>346</ele>
        <time>2022-09-05T08:23:11.000Z</time>
      </trkpt>
      <trkpt lat="49.87189" lon="4.75404">
        <ele>346</ele>
        <time>2022-09-05T08:23:12.000Z</time>
      </trkpt>
      <trkpt lat="49.87193" lon="4.75402">
        <ele>346</ele>
        <time>2022-09-05T08:23:13.000Z</time>
      </trkpt>
      <trkpt lat="49.87196" lon="4.75401">
        <ele>345</ele>
        <time>2022-09-05T08:23:14.000Z</time>
      </trkpt>
      <trkpt lat="49.872" lon="4.75399">
        <ele>345</ele>
        <time>2022-09-05T08:23:15.000Z</time>
      </trkpt>
      <trkpt lat="49.87204" lon="4.75398">
        <ele>345</ele>
        <time>2022-09-05T08:23:16.000Z</time>
      </trkpt>
      <trkpt lat="49.87208" lon="4.75396">
        <ele>344</ele>
        <time>2022-09-05T08:23:17.000Z</time>
      </trkpt>
      <trkpt lat="49.87213" lon="4.75395">
        <ele>344</ele>
        <time>2022-09-05T08:23:18.000Z</time>
      </trkpt>
      <trkpt lat="49.87218" lon="4.75394">
        <ele>344</ele>
        <time>2022-09-05T08:23:19.000Z</time>
      </trkpt>
      <trkpt lat="49.87223" lon="4.75392">
        <ele>344</ele>
        <time>2022-09-05T08:23:20.000Z</time>
      </trkpt>
      <trkpt lat="49.87227" lon="4.75389">
        <ele>343</ele>
        <time>2022-09-05T08:23:21.000Z</time>
      </trkpt>
      <trkpt lat="49.87232" lon="4.75386">
        <ele>343</ele>
        <time>2022-09-05T08:23:22.000Z</time>
      </trkpt>
      <trkpt lat="49.87237" lon="4.75383">
        <ele>343</ele>
        <time>2022-09-05T08:23:23.000Z</time>
      </trkpt>
      <trkpt lat="49.87241" lon="4.7538">
        <ele>343</ele>
        <time>2022-09-05T08:23:24.000Z</time>
      </trkpt>
      <trkpt lat="49.87245" lon="4.75377">
        <ele>343</ele>
        <time>2022-09-05T08:23:25.000Z</time>
      </trkpt>
      <trkpt lat="49.87251" lon="4.75375">
        <ele>342</ele>
        <time>2022-09-05T08:23:26.000Z</time>
      </trkpt>
      <trkpt lat="49.87256" lon="4.75373">
        <ele>342</ele>
        <time>2022-09-05T08:23:27.000Z</time>
      </trkpt>
      <trkpt lat="49.87261" lon="4.75371">
        <ele>342</ele>
        <time>2022-09-05T08:23:28.000Z</time>
      </trkpt>
      <trkpt lat="49.87266" lon="4.75369">
        <ele>342</ele>
        <time>2022-09-05T08:23:29.000Z</time>
      </trkpt>
      <trkpt lat="49.87272" lon="4.75368">
        <ele>342</ele>
        <time>2022-09-05T08:23:30.000Z</time>
      </trkpt>
      <trkpt lat="49.87278" lon="4.75367">
        <ele>342</ele>
        <time>2022-09-05T08:23:31.000Z</time>
      </trkpt>
      <trkpt lat="49.87283" lon="4.75366">
        <ele>342</ele>
        <time>2022-09-05T08:23:32.000Z</time>
      </trkpt>
      <trkpt lat="49.8729" lon="4.75365">
        <ele>342</ele>
        <time>2022-09-05T08:23:33.000Z</time>
      </trkpt>
      <trkpt lat="49.87296" lon="4.75364">
        <ele>342</ele>
        <time>2022-09-05T08:23:34.000Z</time>
      </trkpt>
      <trkpt lat="49.87302" lon="4.75363">
        <ele>341</ele>
        <time>2022-09-05T08:23:35.000Z</time>
      </trkpt>
      <trkpt lat="49.87308" lon="4.75363">
        <ele>341</ele>
        <time>2022-09-05T08:23:36.000Z</time>
      </trkpt>
      <trkpt lat="49.87314" lon="4.75362">
        <ele>341</ele>
        <time>2022-09-05T08:23:37.000Z</time>
      </trkpt>
      <trkpt lat="49.87321" lon="4.75361">
        <ele>341</ele>
        <time>2022-09-05T08:23:38.000Z</time>
      </trkpt>
      <trkpt lat="49.87328" lon="4.7536">
        <ele>341</ele>
        <time>2022-09-05T08:23:39.000Z</time>
      </trkpt>
      <trkpt lat="49.87335" lon="4.75358">
        <ele>341</ele>
        <time>2022-09-05T08:23:40.000Z</time>
      </trkpt>
      <trkpt lat="49.87341" lon="4.75357">
        <ele>341</ele>
        <time>2022-09-05T08:23:41.000Z</time>
      </trkpt>
      <trkpt lat="49.87348" lon="4.75356">
        <ele>340</ele>
        <time>2022-09-05T08:23:42.000Z</time>
      </trkpt>
      <trkpt lat="49.87353" lon="4.75354">
        <ele>340</ele>
        <time>2022-09-05T08:23:43.000Z</time>
      </trkpt>
      <trkpt lat="49.87359" lon="4.75352">
        <ele>340</ele>
        <time>2022-09-05T08:23:44.000Z</time>
      </trkpt>
      <trkpt lat="49.87366" lon="4.75349">
        <ele>340</ele>
        <time>2022-09-05T08:23:45.000Z</time>
      </trkpt>
      <trkpt lat="49.87373" lon="4.75347">
        <ele>339</ele>
        <time>2022-09-05T08:23:46.000Z</time>
      </trkpt>
      <trkpt lat="49.8738" lon="4.75344">
        <ele>339</ele>
        <time>2022-09-05T08:23:47.000Z</time>
      </trkpt>
      <trkpt lat="49.87388" lon="4.75342">
        <ele>339</ele>
        <time>2022-09-05T08:23:48.000Z</time>
      </trkpt>
      <trkpt lat="49.87396" lon="4.7534">
        <ele>338</ele>
        <time>2022-09-05T08:23:49.000Z</time>
      </trkpt>
      <trkpt lat="49.87403" lon="4.75339">
        <ele>338</ele>
        <time>2022-09-05T08:23:50.000Z</time>
      </trkpt>
      <trkpt lat="49.87408" lon="4.75339">
        <ele>338</ele>
        <time>2022-09-05T08:23:51.000Z</time>
      </trkpt>
      <trkpt lat="49.8741" lon="4.75339">
        <ele>337</ele>
        <time>2022-09-05T08:23:52.000Z</time>
      </trkpt>
      <trkpt lat="49.87412" lon="4.75339">
        <ele>337</ele>
        <time>2022-09-05T08:23:53.000Z</time>
      </trkpt>
      <trkpt lat="49.87413" lon="4.75338">
        <ele>337</ele>
        <time>2022-09-05T08:23:54.000Z</time>
      </trkpt>
      <trkpt lat="49.87413" lon="4.75338">
        <ele>337</ele>
        <time>2022-09-05T08:23:55.000Z</time>
      </trkpt>
      <trkpt lat="49.87414" lon="4.75337">
        <ele>336</ele>
        <time>2022-09-05T08:23:56.000Z</time>
      </trkpt>
      <trkpt lat="49.87415" lon="4.75335">
        <ele>336</ele>
        <time>2022-09-05T08:23:57.000Z</time>
      </trkpt>
      <trkpt lat="49.87416" lon="4.75332">
        <ele>336</ele>
        <time>2022-09-05T08:23:58.000Z</time>
      </trkpt>
      <trkpt lat="49.87417" lon="4.75327">
        <ele>336</ele>
        <time>2022-09-05T08:23:59.000Z</time>
      </trkpt>
      <trkpt lat="49.87419" lon="4.75321">
        <ele>335</ele>
        <time>2022-09-05T08:24:00.000Z</time>
      </trkpt>
      <trkpt lat="49.8742" lon="4.75314">
        <ele>335</ele>
        <time>2022-09-05T08:24:01.000Z</time>
      </trkpt>
      <trkpt lat="49.8742" lon="4.75308">
        <ele>335</ele>
        <time>2022-09-05T08:24:02.000Z</time>
      </trkpt>
      <trkpt lat="49.8742" lon="4.75302">
        <ele>334</ele>
        <time>2022-09-05T08:24:03.000Z</time>
      </trkpt>
      <trkpt lat="49.8742" lon="4.75297">
        <ele>334</ele>
        <time>2022-09-05T08:24:04.000Z</time>
      </trkpt>
      <trkpt lat="49.8742" lon="4.75293">
        <ele>333</ele>
        <time>2022-09-05T08:24:05.000Z</time>
      </trkpt>
      <trkpt lat="49.87421" lon="4.7529">
        <ele>333</ele>
        <time>2022-09-05T08:24:06.000Z</time>
      </trkpt>
      <trkpt lat="49.87421" lon="4.75288">
        <ele>332</ele>
        <time>2022-09-05T08:24:07.000Z</time>
      </trkpt>
      <trkpt lat="49.87422" lon="4.75286">
        <ele>331</ele>
        <time>2022-09-05T08:24:08.000Z</time>
      </trkpt>
      <trkpt lat="49.87422" lon="4.75285">
        <ele>331</ele>
        <time>2022-09-05T08:24:09.000Z</time>
      </trkpt>
      <trkpt lat="49.87423" lon="4.75285">
        <ele>330</ele>
        <time>2022-09-05T08:24:10.000Z</time>
      </trkpt>
      <trkpt lat="49.87423" lon="4.75284">
        <ele>330</ele>
        <time>2022-09-05T08:24:11.000Z</time>
      </trkpt>
      <trkpt lat="49.87422" lon="4.75284">
        <ele>330</ele>
        <time>2022-09-05T08:24:12.000Z</time>
      </trkpt>
      <trkpt lat="49.87422" lon="4.75284">
        <ele>330</ele>
        <time>2022-09-05T08:24:13.000Z</time>
      </trkpt>
      <trkpt lat="49.87422" lon="4.75284">
        <ele>329</ele>
        <time>2022-09-05T08:24:14.000Z</time>
      </trkpt>
      <trkpt lat="49.87422" lon="4.75284">
        <ele>329</ele>
        <time>2022-09-05T08:24:15.000Z</time>
      </trkpt>
      <trkpt lat="49.87422" lon="4.75284">
        <ele>329</ele>
        <time>2022-09-05T08:24:16.000Z</time>
      </trkpt>
      <trkpt lat="49.87422" lon="4.75284">
        <ele>329</ele>
        <time>2022-09-05T08:24:17.000Z</time>
      </trkpt>
      <trkpt lat="49.87422" lon="4.75284">
        <ele>328</ele>
        <time>2022-09-05T08:24:18.000Z</time>
      </trkpt>
      <trkpt lat="49.87422" lon="4.75283">
        <ele>328</ele>
        <time>2022-09-05T08:24:19.000Z</time>
      </trkpt>
      <trkpt lat="49.87421" lon="4.75282">
        <ele>328</ele>
        <time>2022-09-05T08:24:20.000Z</time>
      </trkpt>
      <trkpt lat="49.8742" lon="4.75281">
        <ele>327</ele>
        <time>2022-09-05T08:24:21.000Z</time>
      </trkpt>
      <trkpt lat="49.8742" lon="4.7528">
        <ele>327</ele>
        <time>2022-09-05T08:24:22.000Z</time>
      </trkpt>
      <trkpt lat="49.87419" lon="4.75279">
        <ele>326</ele>
        <time>2022-09-05T08:24:23.000Z</time>
      </trkpt>
      <trkpt lat="49.87419" lon="4.75279">
        <ele>326</ele>
        <time>2022-09-05T08:24:24.000Z</time>
      </trkpt>
      <trkpt lat="49.87419" lon="4.75279">
        <ele>326</ele>
        <time>2022-09-05T08:24:25.000Z</time>
      </trkpt>
      <trkpt lat="49.87419" lon="4.75279">
        <ele>326</ele>
        <time>2022-09-05T08:24:26.000Z</time>
      </trkpt>
      <trkpt lat="49.87419" lon="4.75279">
        <ele>325</ele>
        <time>2022-09-05T08:24:27.000Z</time>
      </trkpt>
      <trkpt lat="49.87418" lon="4.75279">
        <ele>325</ele>
        <time>2022-09-05T08:24:28.000Z</time>
      </trkpt>
      <trkpt lat="49.87418" lon="4.7528">
        <ele>325</ele>
        <time>2022-09-05T08:24:29.000Z</time>
      </trkpt>
      <trkpt lat="49.87418" lon="4.7528">
        <ele>324</ele>
        <time>2022-09-05T08:24:30.000Z</time>
      </trkpt>
      <trkpt lat="49.87418" lon="4.7528">
        <ele>324</ele>
        <time>2022-09-05T08:24:31.000Z</time>
      </trkpt>
      <trkpt lat="49.87418" lon="4.75279">
        <ele>324</ele>
        <time>2022-09-05T08:24:32.000Z</time>
      </trkpt>
      <trkpt lat="49.87419" lon="4.75278">
        <ele>323</ele>
        <time>2022-09-05T08:24:33.000Z</time>
      </trkpt>
      <trkpt lat="49.87419" lon="4.75278">
        <ele>323</ele>
        <time>2022-09-05T08:24:34.000Z</time>
      </trkpt>
      <trkpt lat="49.87419" lon="4.75277">
        <ele>322</ele>
        <time>2022-09-05T08:24:35.000Z</time>
      </trkpt>
      <trkpt lat="49.87419" lon="4.75277">
        <ele>322</ele>
        <time>2022-09-05T08:24:36.000Z</time>
      </trkpt>
      <trkpt lat="49.87419" lon="4.75276">
        <ele>321</ele>
        <time>2022-09-05T08:24:37.000Z</time>
      </trkpt>
      <trkpt lat="49.87419" lon="4.75274">
        <ele>321</ele>
        <time>2022-09-05T08:24:38.000Z</time>
      </trkpt>
      <trkpt lat="49.87419" lon="4.75273">
        <ele>320</ele>
        <time>2022-09-05T08:24:39.000Z</time>
      </trkpt>
      <trkpt lat="49.87419" lon="4.75273">
        <ele>320</ele>
        <time>2022-09-05T08:24:40.000Z</time>
      </trkpt>
      <trkpt lat="49.87419" lon="4.75272">
        <ele>320</ele>
        <time>2022-09-05T08:24:41.000Z</time>
      </trkpt>
      <trkpt lat="49.87418" lon="4.75271">
        <ele>319</ele>
        <time>2022-09-05T08:24:42.000Z</time>
      </trkpt>
      <trkpt lat="49.87418" lon="4.7527">
        <ele>319</ele>
        <time>2022-09-05T08:24:43.000Z</time>
      </trkpt>
      <trkpt lat="49.87418" lon="4.75269">
        <ele>319</ele>
        <time>2022-09-05T08:24:44.000Z</time>
      </trkpt>
      <trkpt lat="49.87418" lon="4.75268">
        <ele>318</ele>
        <time>2022-09-05T08:24:45.000Z</time>
      </trkpt>
      <trkpt lat="49.87418" lon="4.75266">
        <ele>318</ele>
        <time>2022-09-05T08:24:46.000Z</time>
      </trkpt>
      <trkpt lat="49.87419" lon="4.75265">
        <ele>318</ele>
        <time>2022-09-05T08:24:47.000Z</time>
      </trkpt>
      <trkpt lat="49.87419" lon="4.75265">
        <ele>318</ele>
        <time>2022-09-05T08:24:48.000Z</time>
      </trkpt>
      <trkpt lat="49.87419" lon="4.75264">
        <ele>317</ele>
        <time>2022-09-05T08:24:49.000Z</time>
      </trkpt>
      <trkpt lat="49.87419" lon="4.75262">
        <ele>317</ele>
        <time>2022-09-05T08:24:50.000Z</time>
      </trkpt>
      <trkpt lat="49.87419" lon="4.75261">
        <ele>317</ele>
        <time>2022-09-05T08:24:51.000Z</time>
      </trkpt>
      <trkpt lat="49.87419" lon="4.7526">
        <ele>316</ele>
        <time>2022-09-05T08:24:52.000Z</time>
      </trkpt>
      <trkpt lat="49.87419" lon="4.7526">
        <ele>316</ele>
        <time>2022-09-05T08:24:53.000Z</time>
      </trkpt>
      <trkpt lat="49.87419" lon="4.75259">
        <ele>316</ele>
        <time>2022-09-05T08:24:54.000Z</time>
      </trkpt>
      <trkpt lat="49.87419" lon="4.75259">
        <ele>316</ele>
        <time>2022-09-05T08:24:55.000Z</time>
      </trkpt>
      <trkpt lat="49.87419" lon="4.75259">
        <ele>316</ele>
        <time>2022-09-05T08:24:56.000Z</time>
      </trkpt>
      <trkpt lat="49.87419" lon="4.75257">
        <ele>315</ele>
        <time>2022-09-05T08:24:57.000Z</time>
      </trkpt>
      <trkpt lat="49.8742" lon="4.75256">
        <ele>315</ele>
        <time>2022-09-05T08:24:58.000Z</time>
      </trkpt>
      <trkpt lat="49.8742" lon="4.75255">
        <ele>315</ele>
        <time>2022-09-05T08:24:59.000Z</time>
      </trkpt>
      <trkpt lat="49.8742" lon="4.75255">
        <ele>315</ele>
        <time>2022-09-05T08:25:00.000Z</time>
      </trkpt>
      <trkpt lat="49.8742" lon="4.75254">
        <ele>315</ele>
        <time>2022-09-05T08:25:01.000Z</time>
      </trkpt>
      <trkpt lat="49.8742" lon="4.75254">
        <ele>314</ele>
        <time>2022-09-05T08:25:02.000Z</time>
      </trkpt>
      <trkpt lat="49.87421" lon="4.75253">
        <ele>314</ele>
        <time>2022-09-05T08:25:03.000Z</time>
      </trkpt>
      <trkpt lat="49.87421" lon="4.75253">
        <ele>314</ele>
        <time>2022-09-05T08:25:04.000Z</time>
      </trkpt>
      <trkpt lat="49.87421" lon="4.75251">
        <ele>314</ele>
        <time>2022-09-05T08:25:05.000Z</time>
      </trkpt>
      <trkpt lat="49.87421" lon="4.75249">
        <ele>314</ele>
        <time>2022-09-05T08:25:06.000Z</time>
      </trkpt>
      <trkpt lat="49.87422" lon="4.75249">
        <ele>313</ele>
        <time>2022-09-05T08:25:07.000Z</time>
      </trkpt>
      <trkpt lat="49.87422" lon="4.75248">
        <ele>313</ele>
        <time>2022-09-05T08:25:08.000Z</time>
      </trkpt>
      <trkpt lat="49.87422" lon="4.75248">
        <ele>313</ele>
        <time>2022-09-05T08:25:09.000Z</time>
      </trkpt>
      <trkpt lat="49.87422" lon="4.75247">
        <ele>313</ele>
        <time>2022-09-05T08:25:10.000Z</time>
      </trkpt>
      <trkpt lat="49.87422" lon="4.75246">
        <ele>313</ele>
        <time>2022-09-05T08:25:11.000Z</time>
      </trkpt>
      <trkpt lat="49.87422" lon="4.75245">
        <ele>313</ele>
        <time>2022-09-05T08:25:12.000Z</time>
      </trkpt>
      <trkpt lat="49.87423" lon="4.75244">
        <ele>313</ele>
        <time>2022-09-05T08:25:13.000Z</time>
      </trkpt>
      <trkpt lat="49.87423" lon="4.75244">
        <ele>313</ele>
        <time>2022-09-05T08:25:14.000Z</time>
      </trkpt>
      <trkpt lat="49.87422" lon="4.75244">
        <ele>313</ele>
        <time>2022-09-05T08:25:15.000Z</time>
      </trkpt>
      <trkpt lat="49.87423" lon="4.75243">
        <ele>312</ele>
        <time>2022-09-05T08:25:16.000Z</time>
      </trkpt>
      <trkpt lat="49.87423" lon="4.75242">
        <ele>312</ele>
        <time>2022-09-05T08:25:17.000Z</time>
      </trkpt>
      <trkpt lat="49.87424" lon="4.75241">
        <ele>312</ele>
        <time>2022-09-05T08:25:18.000Z</time>
      </trkpt>
      <trkpt lat="49.87425" lon="4.7524">
        <ele>312</ele>
        <time>2022-09-05T08:25:19.000Z</time>
      </trkpt>
      <trkpt lat="49.87426" lon="4.75239">
        <ele>311</ele>
        <time>2022-09-05T08:25:20.000Z</time>
      </trkpt>
      <trkpt lat="49.87427" lon="4.75236">
        <ele>311</ele>
        <time>2022-09-05T08:25:21.000Z</time>
      </trkpt>
      <trkpt lat="49.87429" lon="4.75234">
        <ele>311</ele>
        <time>2022-09-05T08:25:22.000Z</time>
      </trkpt>
      <trkpt lat="49.87429" lon="4.75231">
        <ele>310</ele>
        <time>2022-09-05T08:25:23.000Z</time>
      </trkpt>
      <trkpt lat="49.8743" lon="4.75227">
        <ele>310</ele>
        <time>2022-09-05T08:25:24.000Z</time>
      </trkpt>
      <trkpt lat="49.8743" lon="4.75222">
        <ele>310</ele>
        <time>2022-09-05T08:25:25.000Z</time>
      </trkpt>
      <trkpt lat="49.8743" lon="4.75217">
        <ele>309</ele>
        <time>2022-09-05T08:25:26.000Z</time>
      </trkpt>
      <trkpt lat="49.8743" lon="4.75212">
        <ele>309</ele>
        <time>2022-09-05T08:25:27.000Z</time>
      </trkpt>
      <trkpt lat="49.8743" lon="4.75208">
        <ele>309</ele>
        <time>2022-09-05T08:25:28.000Z</time>
      </trkpt>
      <trkpt lat="49.8743" lon="4.75204">
        <ele>308</ele>
        <time>2022-09-05T08:25:29.000Z</time>
      </trkpt>
      <trkpt lat="49.8743" lon="4.75202">
        <ele>308</ele>
        <time>2022-09-05T08:25:30.000Z</time>
      </trkpt>
      <trkpt lat="49.8743" lon="4.752">
        <ele>308</ele>
        <time>2022-09-05T08:25:31.000Z</time>
      </trkpt>
      <trkpt lat="49.8743" lon="4.75198">
        <ele>307</ele>
        <time>2022-09-05T08:25:32.000Z</time>
      </trkpt>
      <trkpt lat="49.8743" lon="4.75196">
        <ele>307</ele>
        <time>2022-09-05T08:25:33.000Z</time>
      </trkpt>
      <trkpt lat="49.8743" lon="4.75196">
        <ele>307</ele>
        <time>2022-09-05T08:25:34.000Z</time>
      </trkpt>
      <trkpt lat="49.8743" lon="4.75195">
        <ele>306</ele>
        <time>2022-09-05T08:25:35.000Z</time>
      </trkpt>
      <trkpt lat="49.8743" lon="4.75195">
        <ele>306</ele>
        <time>2022-09-05T08:25:36.000Z</time>
      </trkpt>
      <trkpt lat="49.8743" lon="4.75195">
        <ele>306</ele>
        <time>2022-09-05T08:25:37.000Z</time>
      </trkpt>
      <trkpt lat="49.8743" lon="4.75194">
        <ele>306</ele>
        <time>2022-09-05T08:25:38.000Z</time>
      </trkpt>
      <trkpt lat="49.8743" lon="4.75194">
        <ele>305</ele>
        <time>2022-09-05T08:25:39.000Z</time>
      </trkpt>
      <trkpt lat="49.8743" lon="4.75193">
        <ele>305</ele>
        <time>2022-09-05T08:25:40.000Z</time>
      </trkpt>
      <trkpt lat="49.8743" lon="4.75193">
        <ele>305</ele>
        <time>2022-09-05T08:25:41.000Z</time>
      </trkpt>
      <trkpt lat="49.8743" lon="4.75193">
        <ele>305</ele>
        <time>2022-09-05T08:25:42.000Z</time>
      </trkpt>
      <trkpt lat="49.8743" lon="4.75193">
        <ele>305</ele>
        <time>2022-09-05T08:25:43.000Z</time>
      </trkpt>
      <trkpt lat="49.8743" lon="4.75192">
        <ele>305</ele>
        <time>2022-09-05T08:25:44.000Z</time>
      </trkpt>
      <trkpt lat="49.87429" lon="4.75192">
        <ele>305</ele>
        <time>2022-09-05T08:25:45.000Z</time>
      </trkpt>
      <trkpt lat="49.87429" lon="4.75192">
        <ele>305</ele>
        <time>2022-09-05T08:25:46.000Z</time>
      </trkpt>
      <trkpt lat="49.87429" lon="4.75191">
        <ele>304</ele>
        <time>2022-09-05T08:25:47.000Z</time>
      </trkpt>
      <trkpt lat="49.87429" lon="4.75191">
        <ele>304</ele>
        <time>2022-09-05T08:25:48.000Z</time>
      </trkpt>
      <trkpt lat="49.87429" lon="4.75191">
        <ele>304</ele>
        <time>2022-09-05T08:25:49.000Z</time>
      </trkpt>
      <trkpt lat="49.87429" lon="4.75191">
        <ele>304</ele>
        <time>2022-09-05T08:25:50.000Z</time>
      </trkpt>
      <trkpt lat="49.87429" lon="4.7519">
        <ele>304</ele>
        <time>2022-09-05T08:25:51.000Z</time>
      </trkpt>
      <trkpt lat="49.87429" lon="4.7519">
        <ele>304</ele>
        <time>2022-09-05T08:25:52.000Z</time>
      </trkpt>
      <trkpt lat="49.87429" lon="4.7519">
        <ele>304</ele>
        <time>2022-09-05T08:25:53.000Z</time>
      </trkpt>
      <trkpt lat="49.87429" lon="4.7519">
        <ele>304</ele>
        <time>2022-09-05T08:25:54.000Z</time>
      </trkpt>
      <trkpt lat="49.87429" lon="4.7519">
        <ele>304</ele>
        <time>2022-09-05T08:25:55.000Z</time>
      </trkpt>
      <trkpt lat="49.87429" lon="4.7519">
        <ele>304</ele>
        <time>2022-09-05T08:25:56.000Z</time>
      </trkpt>
      <trkpt lat="49.87429" lon="4.75189">
        <ele>303</ele>
        <time>2022-09-05T08:25:57.000Z</time>
      </trkpt>
      <trkpt lat="49.87429" lon="4.75189">
        <ele>303</ele>
        <time>2022-09-05T08:25:58.000Z</time>
      </trkpt>
      <trkpt lat="49.87429" lon="4.75189">
        <ele>303</ele>
        <time>2022-09-05T08:25:59.000Z</time>
      </trkpt>
      <trkpt lat="49.87429" lon="4.75189">
        <ele>303</ele>
        <time>2022-09-05T08:26:00.000Z</time>
      </trkpt>
      <trkpt lat="49.87429" lon="4.75189">
        <ele>303</ele>
        <time>2022-09-05T08:26:01.000Z</time>
      </trkpt>
      <trkpt lat="49.87429" lon="4.75189">
        <ele>303</ele>
        <time>2022-09-05T08:26:02.000Z</time>
      </trkpt>
      <trkpt lat="49.87429" lon="4.75189">
        <ele>303</ele>
        <time>2022-09-05T08:26:03.000Z</time>
      </trkpt>
      <trkpt lat="49.87429" lon="4.75188">
        <ele>302</ele>
        <time>2022-09-05T08:26:04.000Z</time>
      </trkpt>
      <trkpt lat="49.87429" lon="4.75188">
        <ele>302</ele>
        <time>2022-09-05T08:26:05.000Z</time>
      </trkpt>
      <trkpt lat="49.87429" lon="4.75188">
        <ele>302</ele>
        <time>2022-09-05T08:26:06.000Z</time>
      </trkpt>
      <trkpt lat="49.87429" lon="4.75188">
        <ele>302</ele>
        <time>2022-09-05T08:26:07.000Z</time>
      </trkpt>
      <trkpt lat="49.87428" lon="4.75187">
        <ele>302</ele>
        <time>2022-09-05T08:26:08.000Z</time>
      </trkpt>
      <trkpt lat="49.87427" lon="4.75187">
        <ele>302</ele>
        <time>2022-09-05T08:26:09.000Z</time>
      </trkpt>
      <trkpt lat="49.87426" lon="4.75186">
        <ele>302</ele>
        <time>2022-09-05T08:26:10.000Z</time>
      </trkpt>
      <trkpt lat="49.87424" lon="4.75185">
        <ele>301</ele>
        <time>2022-09-05T08:26:11.000Z</time>
      </trkpt>
      <trkpt lat="49.87422" lon="4.75184">
        <ele>301</ele>
        <time>2022-09-05T08:26:12.000Z</time>
      </trkpt>
      <trkpt lat="49.8742" lon="4.75184">
        <ele>301</ele>
        <time>2022-09-05T08:26:13.000Z</time>
      </trkpt>
      <trkpt lat="49.87417" lon="4.75183">
        <ele>301</ele>
        <time>2022-09-05T08:26:14.000Z</time>
      </trkpt>
      <trkpt lat="49.87415" lon="4.75183">
        <ele>301</ele>
        <time>2022-09-05T08:26:15.000Z</time>
      </trkpt>
      <trkpt lat="49.87412" lon="4.75182">
        <ele>301</ele>
        <time>2022-09-05T08:26:16.000Z</time>
      </trkpt>
      <trkpt lat="49.87409" lon="4.7518">
        <ele>300</ele>
        <time>2022-09-05T08:26:17.000Z</time>
      </trkpt>
      <trkpt lat="49.87405" lon="4.75177">
        <ele>300</ele>
        <time>2022-09-05T08:26:18.000Z</time>
      </trkpt>
      <trkpt lat="49.874" lon="4.75173">
        <ele>299</ele>
        <time>2022-09-05T08:26:19.000Z</time>
      </trkpt>
      <trkpt lat="49.87396" lon="4.75168">
        <ele>299</ele>
        <time>2022-09-05T08:26:20.000Z</time>
      </trkpt>
      <trkpt lat="49.87391" lon="4.75163">
        <ele>298</ele>
        <time>2022-09-05T08:26:21.000Z</time>
      </trkpt>
      <trkpt lat="49.87386" lon="4.75159">
        <ele>298</ele>
        <time>2022-09-05T08:26:22.000Z</time>
      </trkpt>
      <trkpt lat="49.87381" lon="4.75155">
        <ele>297</ele>
        <time>2022-09-05T08:26:23.000Z</time>
      </trkpt>
      <trkpt lat="49.87376" lon="4.75151">
        <ele>297</ele>
        <time>2022-09-05T08:26:24.000Z</time>
      </trkpt>
      <trkpt lat="49.87372" lon="4.75147">
        <ele>296</ele>
        <time>2022-09-05T08:26:25.000Z</time>
      </trkpt>
      <trkpt lat="49.87368" lon="4.75144">
        <ele>296</ele>
        <time>2022-09-05T08:26:26.000Z</time>
      </trkpt>
      <trkpt lat="49.87364" lon="4.75141">
        <ele>296</ele>
        <time>2022-09-05T08:26:27.000Z</time>
      </trkpt>
      <trkpt lat="49.8736" lon="4.75139">
        <ele>295</ele>
        <time>2022-09-05T08:26:28.000Z</time>
      </trkpt>
      <trkpt lat="49.87357" lon="4.75137">
        <ele>295</ele>
        <time>2022-09-05T08:26:29.000Z</time>
      </trkpt>
      <trkpt lat="49.87353" lon="4.75136">
        <ele>295</ele>
        <time>2022-09-05T08:26:30.000Z</time>
      </trkpt>
      <trkpt lat="49.87348" lon="4.75136">
        <ele>295</ele>
        <time>2022-09-05T08:26:31.000Z</time>
      </trkpt>
      <trkpt lat="49.87344" lon="4.75135">
        <ele>295</ele>
        <time>2022-09-05T08:26:32.000Z</time>
      </trkpt>
      <trkpt lat="49.8734" lon="4.75135">
        <ele>295</ele>
        <time>2022-09-05T08:26:33.000Z</time>
      </trkpt>
      <trkpt lat="49.87336" lon="4.75135">
        <ele>295</ele>
        <time>2022-09-05T08:26:34.000Z</time>
      </trkpt>
      <trkpt lat="49.87331" lon="4.75136">
        <ele>295</ele>
        <time>2022-09-05T08:26:35.000Z</time>
      </trkpt>
      <trkpt lat="49.87328" lon="4.75136">
        <ele>295</ele>
        <time>2022-09-05T08:26:36.000Z</time>
      </trkpt>
      <trkpt lat="49.87324" lon="4.75137">
        <ele>295</ele>
        <time>2022-09-05T08:26:37.000Z</time>
      </trkpt>
      <trkpt lat="49.87321" lon="4.75138">
        <ele>295</ele>
        <time>2022-09-05T08:26:38.000Z</time>
      </trkpt>
      <trkpt lat="49.87318" lon="4.75138">
        <ele>295</ele>
        <time>2022-09-05T08:26:39.000Z</time>
      </trkpt>
      <trkpt lat="49.87315" lon="4.75138">
        <ele>295</ele>
        <time>2022-09-05T08:26:40.000Z</time>
      </trkpt>
      <trkpt lat="49.87312" lon="4.75139">
        <ele>295</ele>
        <time>2022-09-05T08:26:41.000Z</time>
      </trkpt>
      <trkpt lat="49.87309" lon="4.7514">
        <ele>295</ele>
        <time>2022-09-05T08:26:42.000Z</time>
      </trkpt>
      <trkpt lat="49.87307" lon="4.75141">
        <ele>295</ele>
        <time>2022-09-05T08:26:43.000Z</time>
      </trkpt>
      <trkpt lat="49.87304" lon="4.75141">
        <ele>296</ele>
        <time>2022-09-05T08:26:44.000Z</time>
      </trkpt>
      <trkpt lat="49.87302" lon="4.75142">
        <ele>296</ele>
        <time>2022-09-05T08:26:45.000Z</time>
      </trkpt>
      <trkpt lat="49.87299" lon="4.75142">
        <ele>296</ele>
        <time>2022-09-05T08:26:46.000Z</time>
      </trkpt>
      <trkpt lat="49.87297" lon="4.75141">
        <ele>296</ele>
        <time>2022-09-05T08:26:47.000Z</time>
      </trkpt>
      <trkpt lat="49.87294" lon="4.75141">
        <ele>296</ele>
        <time>2022-09-05T08:26:48.000Z</time>
      </trkpt>
      <trkpt lat="49.87291" lon="4.75139">
        <ele>296</ele>
        <time>2022-09-05T08:26:49.000Z</time>
      </trkpt>
      <trkpt lat="49.87289" lon="4.75137">
        <ele>296</ele>
        <time>2022-09-05T08:26:50.000Z</time>
      </trkpt>
      <trkpt lat="49.87286" lon="4.75134">
        <ele>296</ele>
        <time>2022-09-05T08:26:51.000Z</time>
      </trkpt>
      <trkpt lat="49.87283" lon="4.7513">
        <ele>295</ele>
        <time>2022-09-05T08:26:52.000Z</time>
      </trkpt>
      <trkpt lat="49.87281" lon="4.75126">
        <ele>295</ele>
        <time>2022-09-05T08:26:53.000Z</time>
      </trkpt>
      <trkpt lat="49.87278" lon="4.75122">
        <ele>295</ele>
        <time>2022-09-05T08:26:54.000Z</time>
      </trkpt>
      <trkpt lat="49.87276" lon="4.75119">
        <ele>295</ele>
        <time>2022-09-05T08:26:55.000Z</time>
      </trkpt>
      <trkpt lat="49.87273" lon="4.75117">
        <ele>294</ele>
        <time>2022-09-05T08:26:56.000Z</time>
      </trkpt>
      <trkpt lat="49.8727" lon="4.75113">
        <ele>294</ele>
        <time>2022-09-05T08:26:57.000Z</time>
      </trkpt>
      <trkpt lat="49.87266" lon="4.7511">
        <ele>294</ele>
        <time>2022-09-05T08:26:58.000Z</time>
      </trkpt>
      <trkpt lat="49.87262" lon="4.75106">
        <ele>294</ele>
        <time>2022-09-05T08:26:59.000Z</time>
      </trkpt>
      <trkpt lat="49.87258" lon="4.75101">
        <ele>294</ele>
        <time>2022-09-05T08:27:00.000Z</time>
      </trkpt>
      <trkpt lat="49.87254" lon="4.75098">
        <ele>293</ele>
        <time>2022-09-05T08:27:01.000Z</time>
      </trkpt>
      <trkpt lat="49.8725" lon="4.75093">
        <ele>293</ele>
        <time>2022-09-05T08:27:02.000Z</time>
      </trkpt>
      <trkpt lat="49.87246" lon="4.75089">
        <ele>293</ele>
        <time>2022-09-05T08:27:03.000Z</time>
      </trkpt>
      <trkpt lat="49.87244" lon="4.75086">
        <ele>292</ele>
        <time>2022-09-05T08:27:04.000Z</time>
      </trkpt>
      <trkpt lat="49.87242" lon="4.75084">
        <ele>292</ele>
        <time>2022-09-05T08:27:05.000Z</time>
      </trkpt>
      <trkpt lat="49.87239" lon="4.75082">
        <ele>292</ele>
        <time>2022-09-05T08:27:06.000Z</time>
      </trkpt>
      <trkpt lat="49.87237" lon="4.75081">
        <ele>292</ele>
        <time>2022-09-05T08:27:07.000Z</time>
      </trkpt>
      <trkpt lat="49.87234" lon="4.7508">
        <ele>292</ele>
        <time>2022-09-05T08:27:08.000Z</time>
      </trkpt>
      <trkpt lat="49.87231" lon="4.75079">
        <ele>292</ele>
        <time>2022-09-05T08:27:09.000Z</time>
      </trkpt>
      <trkpt lat="49.87228" lon="4.75077">
        <ele>292</ele>
        <time>2022-09-05T08:27:10.000Z</time>
      </trkpt>
      <trkpt lat="49.87225" lon="4.75075">
        <ele>291</ele>
        <time>2022-09-05T08:27:11.000Z</time>
      </trkpt>
      <trkpt lat="49.87222" lon="4.75072">
        <ele>291</ele>
        <time>2022-09-05T08:27:12.000Z</time>
      </trkpt>
      <trkpt lat="49.87219" lon="4.75068">
        <ele>291</ele>
        <time>2022-09-05T08:27:13.000Z</time>
      </trkpt>
      <trkpt lat="49.87215" lon="4.75064">
        <ele>290</ele>
        <time>2022-09-05T08:27:14.000Z</time>
      </trkpt>
      <trkpt lat="49.87213" lon="4.7506">
        <ele>290</ele>
        <time>2022-09-05T08:27:15.000Z</time>
      </trkpt>
      <trkpt lat="49.8721" lon="4.75057">
        <ele>290</ele>
        <time>2022-09-05T08:27:16.000Z</time>
      </trkpt>
      <trkpt lat="49.87207" lon="4.75054">
        <ele>289</ele>
        <time>2022-09-05T08:27:17.000Z</time>
      </trkpt>
      <trkpt lat="49.87204" lon="4.75052">
        <ele>289</ele>
        <time>2022-09-05T08:27:18.000Z</time>
      </trkpt>
      <trkpt lat="49.87201" lon="4.75049">
        <ele>289</ele>
        <time>2022-09-05T08:27:19.000Z</time>
      </trkpt>
      <trkpt lat="49.87199" lon="4.75047">
        <ele>289</ele>
        <time>2022-09-05T08:27:20.000Z</time>
      </trkpt>
      <trkpt lat="49.87196" lon="4.75044">
        <ele>289</ele>
        <time>2022-09-05T08:27:21.000Z</time>
      </trkpt>
      <trkpt lat="49.87193" lon="4.75041">
        <ele>288</ele>
        <time>2022-09-05T08:27:22.000Z</time>
      </trkpt>
      <trkpt lat="49.8719" lon="4.75038">
        <ele>288</ele>
        <time>2022-09-05T08:27:23.000Z</time>
      </trkpt>
      <trkpt lat="49.87187" lon="4.75035">
        <ele>288</ele>
        <time>2022-09-05T08:27:24.000Z</time>
      </trkpt>
      <trkpt lat="49.87184" lon="4.75032">
        <ele>288</ele>
        <time>2022-09-05T08:27:25.000Z</time>
      </trkpt>
      <trkpt lat="49.87181" lon="4.75029">
        <ele>288</ele>
        <time>2022-09-05T08:27:26.000Z</time>
      </trkpt>
      <trkpt lat="49.87178" lon="4.75026">
        <ele>287</ele>
        <time>2022-09-05T08:27:27.000Z</time>
      </trkpt>
      <trkpt lat="49.87175" lon="4.75023">
        <ele>287</ele>
        <time>2022-09-05T08:27:28.000Z</time>
      </trkpt>
      <trkpt lat="49.87172" lon="4.7502">
        <ele>287</ele>
        <time>2022-09-05T08:27:29.000Z</time>
      </trkpt>
      <trkpt lat="49.87169" lon="4.75017">
        <ele>286</ele>
        <time>2022-09-05T08:27:30.000Z</time>
      </trkpt>
      <trkpt lat="49.87166" lon="4.75014">
        <ele>286</ele>
        <time>2022-09-05T08:27:31.000Z</time>
      </trkpt>
      <trkpt lat="49.87164" lon="4.75011">
        <ele>286</ele>
        <time>2022-09-05T08:27:32.000Z</time>
      </trkpt>
      <trkpt lat="49.87161" lon="4.75008">
        <ele>286</ele>
        <time>2022-09-05T08:27:33.000Z</time>
      </trkpt>
      <trkpt lat="49.87159" lon="4.75004">
        <ele>286</ele>
        <time>2022-09-05T08:27:34.000Z</time>
      </trkpt>
      <trkpt lat="49.87156" lon="4.75">
        <ele>286</ele>
        <time>2022-09-05T08:27:35.000Z</time>
      </trkpt>
      <trkpt lat="49.87154" lon="4.74995">
        <ele>286</ele>
        <time>2022-09-05T08:27:36.000Z</time>
      </trkpt>
      <trkpt lat="49.87151" lon="4.74991">
        <ele>285</ele>
        <time>2022-09-05T08:27:37.000Z</time>
      </trkpt>
      <trkpt lat="49.87148" lon="4.74986">
        <ele>285</ele>
        <time>2022-09-05T08:27:38.000Z</time>
      </trkpt>
      <trkpt lat="49.87145" lon="4.7498">
        <ele>285</ele>
        <time>2022-09-05T08:27:39.000Z</time>
      </trkpt>
      <trkpt lat="49.87141" lon="4.74974">
        <ele>285</ele>
        <time>2022-09-05T08:27:40.000Z</time>
      </trkpt>
      <trkpt lat="49.87138" lon="4.7497">
        <ele>285</ele>
        <time>2022-09-05T08:27:41.000Z</time>
      </trkpt>
      <trkpt lat="49.87134" lon="4.74965">
        <ele>285</ele>
        <time>2022-09-05T08:27:42.000Z</time>
      </trkpt>
      <trkpt lat="49.8713" lon="4.7496">
        <ele>285</ele>
        <time>2022-09-05T08:27:43.000Z</time>
      </trkpt>
      <trkpt lat="49.87126" lon="4.74954">
        <ele>284</ele>
        <time>2022-09-05T08:27:44.000Z</time>
      </trkpt>
      <trkpt lat="49.87122" lon="4.74949">
        <ele>284</ele>
        <time>2022-09-05T08:27:45.000Z</time>
      </trkpt>
      <trkpt lat="49.87117" lon="4.74943">
        <ele>284</ele>
        <time>2022-09-05T08:27:46.000Z</time>
      </trkpt>
      <trkpt lat="49.87113" lon="4.74937">
        <ele>283</ele>
        <time>2022-09-05T08:27:47.000Z</time>
      </trkpt>
      <trkpt lat="49.87108" lon="4.74932">
        <ele>283</ele>
        <time>2022-09-05T08:27:48.000Z</time>
      </trkpt>
      <trkpt lat="49.87105" lon="4.74927">
        <ele>283</ele>
        <time>2022-09-05T08:27:49.000Z</time>
      </trkpt>
      <trkpt lat="49.87102" lon="4.74921">
        <ele>283</ele>
        <time>2022-09-05T08:27:50.000Z</time>
      </trkpt>
      <trkpt lat="49.87098" lon="4.74915">
        <ele>283</ele>
        <time>2022-09-05T08:27:51.000Z</time>
      </trkpt>
      <trkpt lat="49.87095" lon="4.74909">
        <ele>282</ele>
        <time>2022-09-05T08:27:52.000Z</time>
      </trkpt>
      <trkpt lat="49.87092" lon="4.74903">
        <ele>282</ele>
        <time>2022-09-05T08:27:53.000Z</time>
      </trkpt>
      <trkpt lat="49.8709" lon="4.74898">
        <ele>282</ele>
        <time>2022-09-05T08:27:54.000Z</time>
      </trkpt>
      <trkpt lat="49.87089" lon="4.74893">
        <ele>282</ele>
        <time>2022-09-05T08:27:55.000Z</time>
      </trkpt>
      <trkpt lat="49.8709" lon="4.7489">
        <ele>282</ele>
        <time>2022-09-05T08:27:56.000Z</time>
      </trkpt>
      <trkpt lat="49.87093" lon="4.74887">
        <ele>282</ele>
        <time>2022-09-05T08:27:57.000Z</time>
      </trkpt>
      <trkpt lat="49.87096" lon="4.74885">
        <ele>282</ele>
        <time>2022-09-05T08:27:58.000Z</time>
      </trkpt>
      <trkpt lat="49.871" lon="4.74884">
        <ele>282</ele>
        <time>2022-09-05T08:27:59.000Z</time>
      </trkpt>
      <trkpt lat="49.87104" lon="4.74883">
        <ele>282</ele>
        <time>2022-09-05T08:28:00.000Z</time>
      </trkpt>
      <trkpt lat="49.8711" lon="4.74882">
        <ele>282</ele>
        <time>2022-09-05T08:28:01.000Z</time>
      </trkpt>
      <trkpt lat="49.87115" lon="4.74881">
        <ele>282</ele>
        <time>2022-09-05T08:28:02.000Z</time>
      </trkpt>
      <trkpt lat="49.87122" lon="4.74878">
        <ele>282</ele>
        <time>2022-09-05T08:28:03.000Z</time>
      </trkpt>
      <trkpt lat="49.87128" lon="4.74877">
        <ele>281</ele>
        <time>2022-09-05T08:28:04.000Z</time>
      </trkpt>
      <trkpt lat="49.87135" lon="4.74874">
        <ele>281</ele>
        <time>2022-09-05T08:28:05.000Z</time>
      </trkpt>
      <trkpt lat="49.87141" lon="4.74873">
        <ele>281</ele>
        <time>2022-09-05T08:28:06.000Z</time>
      </trkpt>
      <trkpt lat="49.87147" lon="4.74872">
        <ele>281</ele>
        <time>2022-09-05T08:28:07.000Z</time>
      </trkpt>
      <trkpt lat="49.87153" lon="4.74871">
        <ele>281</ele>
        <time>2022-09-05T08:28:08.000Z</time>
      </trkpt>
      <trkpt lat="49.87157" lon="4.74872">
        <ele>280</ele>
        <time>2022-09-05T08:28:09.000Z</time>
      </trkpt>
      <trkpt lat="49.87161" lon="4.74873">
        <ele>280</ele>
        <time>2022-09-05T08:28:10.000Z</time>
      </trkpt>
      <trkpt lat="49.87164" lon="4.74873">
        <ele>280</ele>
        <time>2022-09-05T08:28:11.000Z</time>
      </trkpt>
      <trkpt lat="49.87168" lon="4.74875">
        <ele>279</ele>
        <time>2022-09-05T08:28:12.000Z</time>
      </trkpt>
      <trkpt lat="49.87171" lon="4.74876">
        <ele>279</ele>
        <time>2022-09-05T08:28:13.000Z</time>
      </trkpt>
      <trkpt lat="49.87175" lon="4.74877">
        <ele>279</ele>
        <time>2022-09-05T08:28:14.000Z</time>
      </trkpt>
      <trkpt lat="49.87179" lon="4.74878">
        <ele>278</ele>
        <time>2022-09-05T08:28:15.000Z</time>
      </trkpt>
      <trkpt lat="49.87184" lon="4.74878">
        <ele>278</ele>
        <time>2022-09-05T08:28:16.000Z</time>
      </trkpt>
      <trkpt lat="49.87188" lon="4.74878">
        <ele>278</ele>
        <time>2022-09-05T08:28:17.000Z</time>
      </trkpt>
      <trkpt lat="49.87192" lon="4.74877">
        <ele>278</ele>
        <time>2022-09-05T08:28:18.000Z</time>
      </trkpt>
      <trkpt lat="49.87196" lon="4.74876">
        <ele>277</ele>
        <time>2022-09-05T08:28:19.000Z</time>
      </trkpt>
      <trkpt lat="49.872" lon="4.74877">
        <ele>277</ele>
        <time>2022-09-05T08:28:20.000Z</time>
      </trkpt>
      <trkpt lat="49.87204" lon="4.74877">
        <ele>277</ele>
        <time>2022-09-05T08:28:21.000Z</time>
      </trkpt>
      <trkpt lat="49.87209" lon="4.74878">
        <ele>277</ele>
        <time>2022-09-05T08:28:22.000Z</time>
      </trkpt>
      <trkpt lat="49.87213" lon="4.74878">
        <ele>276</ele>
        <time>2022-09-05T08:28:23.000Z</time>
      </trkpt>
      <trkpt lat="49.87218" lon="4.74878">
        <ele>276</ele>
        <time>2022-09-05T08:28:24.000Z</time>
      </trkpt>
      <trkpt lat="49.87223" lon="4.74879">
        <ele>276</ele>
        <time>2022-09-05T08:28:25.000Z</time>
      </trkpt>
      <trkpt lat="49.87228" lon="4.74878">
        <ele>275</ele>
        <time>2022-09-05T08:28:26.000Z</time>
      </trkpt>
      <trkpt lat="49.87234" lon="4.74878">
        <ele>275</ele>
        <time>2022-09-05T08:28:27.000Z</time>
      </trkpt>
      <trkpt lat="49.87239" lon="4.74878">
        <ele>275</ele>
        <time>2022-09-05T08:28:28.000Z</time>
      </trkpt>
      <trkpt lat="49.87245" lon="4.74878">
        <ele>274</ele>
        <time>2022-09-05T08:28:29.000Z</time>
      </trkpt>
      <trkpt lat="49.87251" lon="4.74878">
        <ele>274</ele>
        <time>2022-09-05T08:28:30.000Z</time>
      </trkpt>
      <trkpt lat="49.87256" lon="4.74878">
        <ele>273</ele>
        <time>2022-09-05T08:28:31.000Z</time>
      </trkpt>
      <trkpt lat="49.87261" lon="4.74877">
        <ele>273</ele>
        <time>2022-09-05T08:28:32.000Z</time>
      </trkpt>
      <trkpt lat="49.87267" lon="4.74877">
        <ele>273</ele>
        <time>2022-09-05T08:28:33.000Z</time>
      </trkpt>
      <trkpt lat="49.87273" lon="4.74877">
        <ele>272</ele>
        <time>2022-09-05T08:28:34.000Z</time>
      </trkpt>
      <trkpt lat="49.8728" lon="4.74877">
        <ele>272</ele>
        <time>2022-09-05T08:28:35.000Z</time>
      </trkpt>
      <trkpt lat="49.87286" lon="4.74876">
        <ele>271</ele>
        <time>2022-09-05T08:28:36.000Z</time>
      </trkpt>
      <trkpt lat="49.87293" lon="4.74875">
        <ele>271</ele>
        <time>2022-09-05T08:28:37.000Z</time>
      </trkpt>
      <trkpt lat="49.87299" lon="4.74874">
        <ele>270</ele>
        <time>2022-09-05T08:28:38.000Z</time>
      </trkpt>
      <trkpt lat="49.87305" lon="4.74873">
        <ele>269</ele>
        <time>2022-09-05T08:28:39.000Z</time>
      </trkpt>
      <trkpt lat="49.87311" lon="4.74871">
        <ele>269</ele>
        <time>2022-09-05T08:28:40.000Z</time>
      </trkpt>
      <trkpt lat="49.87318" lon="4.7487">
        <ele>268</ele>
        <time>2022-09-05T08:28:41.000Z</time>
      </trkpt>
      <trkpt lat="49.87324" lon="4.74868">
        <ele>267</ele>
        <time>2022-09-05T08:28:42.000Z</time>
      </trkpt>
      <trkpt lat="49.87331" lon="4.74867">
        <ele>267</ele>
        <time>2022-09-05T08:28:43.000Z</time>
      </trkpt>
      <trkpt lat="49.87336" lon="4.74866">
        <ele>266</ele>
        <time>2022-09-05T08:28:44.000Z</time>
      </trkpt>
      <trkpt lat="49.87342" lon="4.74865">
        <ele>265</ele>
        <time>2022-09-05T08:28:45.000Z</time>
      </trkpt>
      <trkpt lat="49.87347" lon="4.74863">
        <ele>265</ele>
        <time>2022-09-05T08:28:46.000Z</time>
      </trkpt>
      <trkpt lat="49.87353" lon="4.74861">
        <ele>265</ele>
        <time>2022-09-05T08:28:47.000Z</time>
      </trkpt>
      <trkpt lat="49.87359" lon="4.7486">
        <ele>264</ele>
        <time>2022-09-05T08:28:48.000Z</time>
      </trkpt>
      <trkpt lat="49.87364" lon="4.74858">
        <ele>264</ele>
        <time>2022-09-05T08:28:49.000Z</time>
      </trkpt>
      <trkpt lat="49.8737" lon="4.74855">
        <ele>263</ele>
        <time>2022-09-05T08:28:50.000Z</time>
      </trkpt>
      <trkpt lat="49.87375" lon="4.74852">
        <ele>263</ele>
        <time>2022-09-05T08:28:51.000Z</time>
      </trkpt>
      <trkpt lat="49.8738" lon="4.74849">
        <ele>262</ele>
        <time>2022-09-05T08:28:52.000Z</time>
      </trkpt>
      <trkpt lat="49.87385" lon="4.74846">
        <ele>262</ele>
        <time>2022-09-05T08:28:53.000Z</time>
      </trkpt>
      <trkpt lat="49.87391" lon="4.74842">
        <ele>262</ele>
        <time>2022-09-05T08:28:54.000Z</time>
      </trkpt>
      <trkpt lat="49.87396" lon="4.74839">
        <ele>261</ele>
        <time>2022-09-05T08:28:55.000Z</time>
      </trkpt>
      <trkpt lat="49.87402" lon="4.74837">
        <ele>261</ele>
        <time>2022-09-05T08:28:56.000Z</time>
      </trkpt>
      <trkpt lat="49.87408" lon="4.74835">
        <ele>260</ele>
        <time>2022-09-05T08:28:57.000Z</time>
      </trkpt>
      <trkpt lat="49.87414" lon="4.74834">
        <ele>259</ele>
        <time>2022-09-05T08:28:58.000Z</time>
      </trkpt>
      <trkpt lat="49.87419" lon="4.74833">
        <ele>259</ele>
        <time>2022-09-05T08:28:59.000Z</time>
      </trkpt>
      <trkpt lat="49.87423" lon="4.74832">
        <ele>258</ele>
        <time>2022-09-05T08:29:00.000Z</time>
      </trkpt>
      <trkpt lat="49.87426" lon="4.7483">
        <ele>258</ele>
        <time>2022-09-05T08:29:01.000Z</time>
      </trkpt>
      <trkpt lat="49.87429" lon="4.74828">
        <ele>257</ele>
        <time>2022-09-05T08:29:02.000Z</time>
      </trkpt>
      <trkpt lat="49.87431" lon="4.74827">
        <ele>256</ele>
        <time>2022-09-05T08:29:03.000Z</time>
      </trkpt>
      <trkpt lat="49.87431" lon="4.74825">
        <ele>256</ele>
        <time>2022-09-05T08:29:04.000Z</time>
      </trkpt>
      <trkpt lat="49.87431" lon="4.74824">
        <ele>255</ele>
        <time>2022-09-05T08:29:05.000Z</time>
      </trkpt>
      <trkpt lat="49.87429" lon="4.74822">
        <ele>254</ele>
        <time>2022-09-05T08:29:06.000Z</time>
      </trkpt>
      <trkpt lat="49.87426" lon="4.74822">
        <ele>254</ele>
        <time>2022-09-05T08:29:07.000Z</time>
      </trkpt>
      <trkpt lat="49.87423" lon="4.74822">
        <ele>253</ele>
        <time>2022-09-05T08:29:08.000Z</time>
      </trkpt>
      <trkpt lat="49.8742" lon="4.74823">
        <ele>253</ele>
        <time>2022-09-05T08:29:09.000Z</time>
      </trkpt>
      <trkpt lat="49.87418" lon="4.74822">
        <ele>253</ele>
        <time>2022-09-05T08:29:10.000Z</time>
      </trkpt>
      <trkpt lat="49.87415" lon="4.74821">
        <ele>252</ele>
        <time>2022-09-05T08:29:11.000Z</time>
      </trkpt>
      <trkpt lat="49.87411" lon="4.74821">
        <ele>252</ele>
        <time>2022-09-05T08:29:12.000Z</time>
      </trkpt>
      <trkpt lat="49.87407" lon="4.74819">
        <ele>251</ele>
        <time>2022-09-05T08:29:13.000Z</time>
      </trkpt>
      <trkpt lat="49.87403" lon="4.74817">
        <ele>251</ele>
        <time>2022-09-05T08:29:14.000Z</time>
      </trkpt>
      <trkpt lat="49.87398" lon="4.74815">
        <ele>250</ele>
        <time>2022-09-05T08:29:15.000Z</time>
      </trkpt>
      <trkpt lat="49.87393" lon="4.74812">
        <ele>250</ele>
        <time>2022-09-05T08:29:16.000Z</time>
      </trkpt>
      <trkpt lat="49.87388" lon="4.7481">
        <ele>249</ele>
        <time>2022-09-05T08:29:17.000Z</time>
      </trkpt>
      <trkpt lat="49.87383" lon="4.74807">
        <ele>249</ele>
        <time>2022-09-05T08:29:18.000Z</time>
      </trkpt>
      <trkpt lat="49.87378" lon="4.74804">
        <ele>248</ele>
        <time>2022-09-05T08:29:19.000Z</time>
      </trkpt>
      <trkpt lat="49.87372" lon="4.74799">
        <ele>247</ele>
        <time>2022-09-05T08:29:20.000Z</time>
      </trkpt>
      <trkpt lat="49.87366" lon="4.74794">
        <ele>246</ele>
        <time>2022-09-05T08:29:21.000Z</time>
      </trkpt>
      <trkpt lat="49.87361" lon="4.74788">
        <ele>245</ele>
        <time>2022-09-05T08:29:22.000Z</time>
      </trkpt>
      <trkpt lat="49.87356" lon="4.74781">
        <ele>244</ele>
        <time>2022-09-05T08:29:23.000Z</time>
      </trkpt>
      <trkpt lat="49.87352" lon="4.74776">
        <ele>243</ele>
        <time>2022-09-05T08:29:24.000Z</time>
      </trkpt>
      <trkpt lat="49.87348" lon="4.74771">
        <ele>242</ele>
        <time>2022-09-05T08:29:25.000Z</time>
      </trkpt>
      <trkpt lat="49.87345" lon="4.74765">
        <ele>241</ele>
        <time>2022-09-05T08:29:26.000Z</time>
      </trkpt>
      <trkpt lat="49.87341" lon="4.7476">
        <ele>241</ele>
        <time>2022-09-05T08:29:27.000Z</time>
      </trkpt>
      <trkpt lat="49.87338" lon="4.74756">
        <ele>240</ele>
        <time>2022-09-05T08:29:28.000Z</time>
      </trkpt>
      <trkpt lat="49.87334" lon="4.74752">
        <ele>239</ele>
        <time>2022-09-05T08:29:29.000Z</time>
      </trkpt>
      <trkpt lat="49.8733" lon="4.74747">
        <ele>238</ele>
        <time>2022-09-05T08:29:30.000Z</time>
      </trkpt>
      <trkpt lat="49.87327" lon="4.74743">
        <ele>237</ele>
        <time>2022-09-05T08:29:31.000Z</time>
      </trkpt>
      <trkpt lat="49.87324" lon="4.74739">
        <ele>237</ele>
        <time>2022-09-05T08:29:32.000Z</time>
      </trkpt>
      <trkpt lat="49.87323" lon="4.74736">
        <ele>236</ele>
        <time>2022-09-05T08:29:33.000Z</time>
      </trkpt>
      <trkpt lat="49.87323" lon="4.74733">
        <ele>235</ele>
        <time>2022-09-05T08:29:34.000Z</time>
      </trkpt>
      <trkpt lat="49.87323" lon="4.74732">
        <ele>235</ele>
        <time>2022-09-05T08:29:35.000Z</time>
      </trkpt>
      <trkpt lat="49.87324" lon="4.7473">
        <ele>234</ele>
        <time>2022-09-05T08:29:36.000Z</time>
      </trkpt>
      <trkpt lat="49.87324" lon="4.7473">
        <ele>234</ele>
        <time>2022-09-05T08:29:37.000Z</time>
      </trkpt>
      <trkpt lat="49.87324" lon="4.74729">
        <ele>233</ele>
        <time>2022-09-05T08:29:38.000Z</time>
      </trkpt>
      <trkpt lat="49.87324" lon="4.74729">
        <ele>233</ele>
        <time>2022-09-05T08:29:39.000Z</time>
      </trkpt>
      <trkpt lat="49.87324" lon="4.74728">
        <ele>232</ele>
        <time>2022-09-05T08:29:40.000Z</time>
      </trkpt>
      <trkpt lat="49.87326" lon="4.74727">
        <ele>232</ele>
        <time>2022-09-05T08:29:41.000Z</time>
      </trkpt>
      <trkpt lat="49.87327" lon="4.74726">
        <ele>231</ele>
        <time>2022-09-05T08:29:42.000Z</time>
      </trkpt>
      <trkpt lat="49.87328" lon="4.74726">
        <ele>231</ele>
        <time>2022-09-05T08:29:43.000Z</time>
      </trkpt>
      <trkpt lat="49.87329" lon="4.74727">
        <ele>231</ele>
        <time>2022-09-05T08:29:44.000Z</time>
      </trkpt>
      <trkpt lat="49.87329" lon="4.74728">
        <ele>231</ele>
        <time>2022-09-05T08:29:45.000Z</time>
      </trkpt>
      <trkpt lat="49.8733" lon="4.74728">
        <ele>231</ele>
        <time>2022-09-05T08:29:46.000Z</time>
      </trkpt>
      <trkpt lat="49.87331" lon="4.74729">
        <ele>231</ele>
        <time>2022-09-05T08:29:47.000Z</time>
      </trkpt>
      <trkpt lat="49.87332" lon="4.74729">
        <ele>230</ele>
        <time>2022-09-05T08:29:48.000Z</time>
      </trkpt>
      <trkpt lat="49.87334" lon="4.74729">
        <ele>230</ele>
        <time>2022-09-05T08:29:49.000Z</time>
      </trkpt>
      <trkpt lat="49.87337" lon="4.7473">
        <ele>230</ele>
        <time>2022-09-05T08:29:50.000Z</time>
      </trkpt>
      <trkpt lat="49.8734" lon="4.74732">
        <ele>230</ele>
        <time>2022-09-05T08:29:51.000Z</time>
      </trkpt>
      <trkpt lat="49.87343" lon="4.74733">
        <ele>230</ele>
        <time>2022-09-05T08:29:52.000Z</time>
      </trkpt>
      <trkpt lat="49.87347" lon="4.74735">
        <ele>230</ele>
        <time>2022-09-05T08:29:53.000Z</time>
      </trkpt>
      <trkpt lat="49.87351" lon="4.74736">
        <ele>230</ele>
        <time>2022-09-05T08:29:54.000Z</time>
      </trkpt>
      <trkpt lat="49.87355" lon="4.74737">
        <ele>230</ele>
        <time>2022-09-05T08:29:55.000Z</time>
      </trkpt>
      <trkpt lat="49.87358" lon="4.74738">
        <ele>230</ele>
        <time>2022-09-05T08:29:56.000Z</time>
      </trkpt>
      <trkpt lat="49.87361" lon="4.74739">
        <ele>230</ele>
        <time>2022-09-05T08:29:57.000Z</time>
      </trkpt>
      <trkpt lat="49.87364" lon="4.7474">
        <ele>229</ele>
        <time>2022-09-05T08:29:58.000Z</time>
      </trkpt>
      <trkpt lat="49.87366" lon="4.74741">
        <ele>229</ele>
        <time>2022-09-05T08:29:59.000Z</time>
      </trkpt>
      <trkpt lat="49.87367" lon="4.74741">
        <ele>229</ele>
        <time>2022-09-05T08:30:00.000Z</time>
      </trkpt>
      <trkpt lat="49.87369" lon="4.74742">
        <ele>229</ele>
        <time>2022-09-05T08:30:01.000Z</time>
      </trkpt>
      <trkpt lat="49.87371" lon="4.74743">
        <ele>229</ele>
        <time>2022-09-05T08:30:02.000Z</time>
      </trkpt>
      <trkpt lat="49.87373" lon="4.74744">
        <ele>229</ele>
        <time>2022-09-05T08:30:03.000Z</time>
      </trkpt>
      <trkpt lat="49.87375" lon="4.74745">
        <ele>229</ele>
        <time>2022-09-05T08:30:04.000Z</time>
      </trkpt>
      <trkpt lat="49.87377" lon="4.74745">
        <ele>229</ele>
        <time>2022-09-05T08:30:05.000Z</time>
      </trkpt>
      <trkpt lat="49.87379" lon="4.74746">
        <ele>229</ele>
        <time>2022-09-05T08:30:06.000Z</time>
      </trkpt>
      <trkpt lat="49.8738" lon="4.74746">
        <ele>229</ele>
        <time>2022-09-05T08:30:07.000Z</time>
      </trkpt>
      <trkpt lat="49.87381" lon="4.74747">
        <ele>229</ele>
        <time>2022-09-05T08:30:08.000Z</time>
      </trkpt>
      <trkpt lat="49.87383" lon="4.74747">
        <ele>229</ele>
        <time>2022-09-05T08:30:09.000Z</time>
      </trkpt>
      <trkpt lat="49.87384" lon="4.74747">
        <ele>228</ele>
        <time>2022-09-05T08:30:10.000Z</time>
      </trkpt>
      <trkpt lat="49.87387" lon="4.74746">
        <ele>228</ele>
        <time>2022-09-05T08:30:11.000Z</time>
      </trkpt>
      <trkpt lat="49.87389" lon="4.74746">
        <ele>228</ele>
        <time>2022-09-05T08:30:12.000Z</time>
      </trkpt>
      <trkpt lat="49.87392" lon="4.74746">
        <ele>228</ele>
        <time>2022-09-05T08:30:13.000Z</time>
      </trkpt>
      <trkpt lat="49.87394" lon="4.74745">
        <ele>228</ele>
        <time>2022-09-05T08:30:14.000Z</time>
      </trkpt>
      <trkpt lat="49.87397" lon="4.74744">
        <ele>228</ele>
        <time>2022-09-05T08:30:15.000Z</time>
      </trkpt>
      <trkpt lat="49.874" lon="4.74743">
        <ele>228</ele>
        <time>2022-09-05T08:30:16.000Z</time>
      </trkpt>
      <trkpt lat="49.87403" lon="4.74742">
        <ele>228</ele>
        <time>2022-09-05T08:30:17.000Z</time>
      </trkpt>
      <trkpt lat="49.87406" lon="4.7474">
        <ele>228</ele>
        <time>2022-09-05T08:30:18.000Z</time>
      </trkpt>
      <trkpt lat="49.8741" lon="4.74739">
        <ele>228</ele>
        <time>2022-09-05T08:30:19.000Z</time>
      </trkpt>
      <trkpt lat="49.87414" lon="4.74738">
        <ele>228</ele>
        <time>2022-09-05T08:30:20.000Z</time>
      </trkpt>
      <trkpt lat="49.87418" lon="4.74736">
        <ele>228</ele>
        <time>2022-09-05T08:30:21.000Z</time>
      </trkpt>
      <trkpt lat="49.87421" lon="4.74734">
        <ele>227</ele>
        <time>2022-09-05T08:30:22.000Z</time>
      </trkpt>
      <trkpt lat="49.87426" lon="4.74732">
        <ele>227</ele>
        <time>2022-09-05T08:30:23.000Z</time>
      </trkpt>
      <trkpt lat="49.8743" lon="4.7473">
        <ele>227</ele>
        <time>2022-09-05T08:30:24.000Z</time>
      </trkpt>
      <trkpt lat="49.87435" lon="4.74728">
        <ele>227</ele>
        <time>2022-09-05T08:30:25.000Z</time>
      </trkpt>
      <trkpt lat="49.87439" lon="4.74726">
        <ele>227</ele>
        <time>2022-09-05T08:30:26.000Z</time>
      </trkpt>
      <trkpt lat="49.87443" lon="4.74725">
        <ele>227</ele>
        <time>2022-09-05T08:30:27.000Z</time>
      </trkpt>
      <trkpt lat="49.87445" lon="4.74726">
        <ele>227</ele>
        <time>2022-09-05T08:30:28.000Z</time>
      </trkpt>
      <trkpt lat="49.87447" lon="4.74726">
        <ele>227</ele>
        <time>2022-09-05T08:30:29.000Z</time>
      </trkpt>
      <trkpt lat="49.87449" lon="4.74726">
        <ele>226</ele>
        <time>2022-09-05T08:30:30.000Z</time>
      </trkpt>
      <trkpt lat="49.87451" lon="4.74725">
        <ele>226</ele>
        <time>2022-09-05T08:30:31.000Z</time>
      </trkpt>
      <trkpt lat="49.87454" lon="4.74724">
        <ele>226</ele>
        <time>2022-09-05T08:30:32.000Z</time>
      </trkpt>
      <trkpt lat="49.87457" lon="4.74722">
        <ele>226</ele>
        <time>2022-09-05T08:30:33.000Z</time>
      </trkpt>
      <trkpt lat="49.8746" lon="4.74721">
        <ele>226</ele>
        <time>2022-09-05T08:30:34.000Z</time>
      </trkpt>
      <trkpt lat="49.87463" lon="4.74721">
        <ele>226</ele>
        <time>2022-09-05T08:30:35.000Z</time>
      </trkpt>
      <trkpt lat="49.87466" lon="4.7472">
        <ele>226</ele>
        <time>2022-09-05T08:30:36.000Z</time>
      </trkpt>
      <trkpt lat="49.8747" lon="4.74718">
        <ele>225</ele>
        <time>2022-09-05T08:30:37.000Z</time>
      </trkpt>
      <trkpt lat="49.87473" lon="4.74717">
        <ele>225</ele>
        <time>2022-09-05T08:30:38.000Z</time>
      </trkpt>
      <trkpt lat="49.87476" lon="4.74716">
        <ele>225</ele>
        <time>2022-09-05T08:30:39.000Z</time>
      </trkpt>
      <trkpt lat="49.87478" lon="4.74715">
        <ele>225</ele>
        <time>2022-09-05T08:30:40.000Z</time>
      </trkpt>
      <trkpt lat="49.87481" lon="4.74714">
        <ele>225</ele>
        <time>2022-09-05T08:30:41.000Z</time>
      </trkpt>
      <trkpt lat="49.87483" lon="4.74713">
        <ele>224</ele>
        <time>2022-09-05T08:30:42.000Z</time>
      </trkpt>
      <trkpt lat="49.87485" lon="4.74712">
        <ele>224</ele>
        <time>2022-09-05T08:30:43.000Z</time>
      </trkpt>
      <trkpt lat="49.87487" lon="4.74712">
        <ele>224</ele>
        <time>2022-09-05T08:30:44.000Z</time>
      </trkpt>
      <trkpt lat="49.87488" lon="4.74712">
        <ele>224</ele>
        <time>2022-09-05T08:30:45.000Z</time>
      </trkpt>
      <trkpt lat="49.8749" lon="4.74713">
        <ele>224</ele>
        <time>2022-09-05T08:30:46.000Z</time>
      </trkpt>
      <trkpt lat="49.87493" lon="4.74712">
        <ele>224</ele>
        <time>2022-09-05T08:30:47.000Z</time>
      </trkpt>
      <trkpt lat="49.87496" lon="4.74713">
        <ele>224</ele>
        <time>2022-09-05T08:30:48.000Z</time>
      </trkpt>
      <trkpt lat="49.87498" lon="4.74712">
        <ele>224</ele>
        <time>2022-09-05T08:30:49.000Z</time>
      </trkpt>
      <trkpt lat="49.87501" lon="4.74712">
        <ele>223</ele>
        <time>2022-09-05T08:30:50.000Z</time>
      </trkpt>
      <trkpt lat="49.87503" lon="4.74711">
        <ele>223</ele>
        <time>2022-09-05T08:30:51.000Z</time>
      </trkpt>
      <trkpt lat="49.87506" lon="4.74711">
        <ele>223</ele>
        <time>2022-09-05T08:30:52.000Z</time>
      </trkpt>
      <trkpt lat="49.87509" lon="4.7471">
        <ele>223</ele>
        <time>2022-09-05T08:30:53.000Z</time>
      </trkpt>
      <trkpt lat="49.87513" lon="4.7471">
        <ele>223</ele>
        <time>2022-09-05T08:30:54.000Z</time>
      </trkpt>
      <trkpt lat="49.87516" lon="4.7471">
        <ele>223</ele>
        <time>2022-09-05T08:30:55.000Z</time>
      </trkpt>
      <trkpt lat="49.87519" lon="4.74711">
        <ele>222</ele>
        <time>2022-09-05T08:30:56.000Z</time>
      </trkpt>
      <trkpt lat="49.87522" lon="4.74712">
        <ele>222</ele>
        <time>2022-09-05T08:30:57.000Z</time>
      </trkpt>
      <trkpt lat="49.87525" lon="4.74712">
        <ele>222</ele>
        <time>2022-09-05T08:30:58.000Z</time>
      </trkpt>
      <trkpt lat="49.87528" lon="4.74713">
        <ele>222</ele>
        <time>2022-09-05T08:30:59.000Z</time>
      </trkpt>
      <trkpt lat="49.87531" lon="4.74714">
        <ele>222</ele>
        <time>2022-09-05T08:31:00.000Z</time>
      </trkpt>
      <trkpt lat="49.87534" lon="4.74714">
        <ele>222</ele>
        <time>2022-09-05T08:31:01.000Z</time>
      </trkpt>
      <trkpt lat="49.87537" lon="4.74714">
        <ele>222</ele>
        <time>2022-09-05T08:31:02.000Z</time>
      </trkpt>
      <trkpt lat="49.87541" lon="4.74715">
        <ele>222</ele>
        <time>2022-09-05T08:31:03.000Z</time>
      </trkpt>
      <trkpt lat="49.87544" lon="4.74715">
        <ele>221</ele>
        <time>2022-09-05T08:31:04.000Z</time>
      </trkpt>
      <trkpt lat="49.87547" lon="4.74716">
        <ele>221</ele>
        <time>2022-09-05T08:31:05.000Z</time>
      </trkpt>
      <trkpt lat="49.8755" lon="4.74718">
        <ele>221</ele>
        <time>2022-09-05T08:31:06.000Z</time>
      </trkpt>
      <trkpt lat="49.87554" lon="4.74719">
        <ele>221</ele>
        <time>2022-09-05T08:31:07.000Z</time>
      </trkpt>
      <trkpt lat="49.87557" lon="4.74721">
        <ele>221</ele>
        <time>2022-09-05T08:31:08.000Z</time>
      </trkpt>
      <trkpt lat="49.87561" lon="4.74723">
        <ele>221</ele>
        <time>2022-09-05T08:31:09.000Z</time>
      </trkpt>
      <trkpt lat="49.87564" lon="4.74724">
        <ele>221</ele>
        <time>2022-09-05T08:31:10.000Z</time>
      </trkpt>
      <trkpt lat="49.87568" lon="4.74726">
        <ele>221</ele>
        <time>2022-09-05T08:31:11.000Z</time>
      </trkpt>
      <trkpt lat="49.87571" lon="4.74727">
        <ele>221</ele>
        <time>2022-09-05T08:31:12.000Z</time>
      </trkpt>
      <trkpt lat="49.87574" lon="4.74728">
        <ele>221</ele>
        <time>2022-09-05T08:31:13.000Z</time>
      </trkpt>
      <trkpt lat="49.87577" lon="4.74729">
        <ele>221</ele>
        <time>2022-09-05T08:31:14.000Z</time>
      </trkpt>
      <trkpt lat="49.87579" lon="4.74731">
        <ele>221</ele>
        <time>2022-09-05T08:31:15.000Z</time>
      </trkpt>
      <trkpt lat="49.87581" lon="4.74732">
        <ele>221</ele>
        <time>2022-09-05T08:31:16.000Z</time>
      </trkpt>
      <trkpt lat="49.87584" lon="4.74734">
        <ele>221</ele>
        <time>2022-09-05T08:31:17.000Z</time>
      </trkpt>
      <trkpt lat="49.87586" lon="4.74735">
        <ele>221</ele>
        <time>2022-09-05T08:31:18.000Z</time>
      </trkpt>
      <trkpt lat="49.87589" lon="4.74736">
        <ele>221</ele>
        <time>2022-09-05T08:31:19.000Z</time>
      </trkpt>
      <trkpt lat="49.87592" lon="4.74738">
        <ele>221</ele>
        <time>2022-09-05T08:31:20.000Z</time>
      </trkpt>
      <trkpt lat="49.87595" lon="4.7474">
        <ele>221</ele>
        <time>2022-09-05T08:31:21.000Z</time>
      </trkpt>
      <trkpt lat="49.87598" lon="4.74741">
        <ele>221</ele>
        <time>2022-09-05T08:31:22.000Z</time>
      </trkpt>
      <trkpt lat="49.87602" lon="4.74741">
        <ele>221</ele>
        <time>2022-09-05T08:31:23.000Z</time>
      </trkpt>
      <trkpt lat="49.87605" lon="4.74742">
        <ele>221</ele>
        <time>2022-09-05T08:31:24.000Z</time>
      </trkpt>
      <trkpt lat="49.87609" lon="4.74743">
        <ele>221</ele>
        <time>2022-09-05T08:31:25.000Z</time>
      </trkpt>
      <trkpt lat="49.87612" lon="4.74744">
        <ele>221</ele>
        <time>2022-09-05T08:31:26.000Z</time>
      </trkpt>
      <trkpt lat="49.87615" lon="4.74746">
        <ele>221</ele>
        <time>2022-09-05T08:31:27.000Z</time>
      </trkpt>
      <trkpt lat="49.87618" lon="4.74747">
        <ele>221</ele>
        <time>2022-09-05T08:31:28.000Z</time>
      </trkpt>
      <trkpt lat="49.87621" lon="4.74749">
        <ele>221</ele>
        <time>2022-09-05T08:31:29.000Z</time>
      </trkpt>
      <trkpt lat="49.87624" lon="4.7475">
        <ele>220</ele>
        <time>2022-09-05T08:31:30.000Z</time>
      </trkpt>
      <trkpt lat="49.87626" lon="4.74752">
        <ele>220</ele>
        <time>2022-09-05T08:31:31.000Z</time>
      </trkpt>
      <trkpt lat="49.87629" lon="4.74753">
        <ele>220</ele>
        <time>2022-09-05T08:31:32.000Z</time>
      </trkpt>
      <trkpt lat="49.87632" lon="4.74754">
        <ele>220</ele>
        <time>2022-09-05T08:31:33.000Z</time>
      </trkpt>
      <trkpt lat="49.87634" lon="4.74754">
        <ele>220</ele>
        <time>2022-09-05T08:31:34.000Z</time>
      </trkpt>
      <trkpt lat="49.87637" lon="4.74755">
        <ele>219</ele>
        <time>2022-09-05T08:31:35.000Z</time>
      </trkpt>
      <trkpt lat="49.87639" lon="4.74756">
        <ele>219</ele>
        <time>2022-09-05T08:31:36.000Z</time>
      </trkpt>
      <trkpt lat="49.87641" lon="4.74756">
        <ele>219</ele>
        <time>2022-09-05T08:31:37.000Z</time>
      </trkpt>
      <trkpt lat="49.87642" lon="4.74758">
        <ele>219</ele>
        <time>2022-09-05T08:31:38.000Z</time>
      </trkpt>
      <trkpt lat="49.87643" lon="4.74759">
        <ele>219</ele>
        <time>2022-09-05T08:31:39.000Z</time>
      </trkpt>
      <trkpt lat="49.87644" lon="4.74762">
        <ele>219</ele>
        <time>2022-09-05T08:31:40.000Z</time>
      </trkpt>
      <trkpt lat="49.87646" lon="4.74765">
        <ele>218</ele>
        <time>2022-09-05T08:31:41.000Z</time>
      </trkpt>
      <trkpt lat="49.87649" lon="4.74768">
        <ele>218</ele>
        <time>2022-09-05T08:31:42.000Z</time>
      </trkpt>
      <trkpt lat="49.87651" lon="4.7477">
        <ele>218</ele>
        <time>2022-09-05T08:31:43.000Z</time>
      </trkpt>
      <trkpt lat="49.87653" lon="4.74774">
        <ele>218</ele>
        <time>2022-09-05T08:31:44.000Z</time>
      </trkpt>
      <trkpt lat="49.87655" lon="4.74777">
        <ele>218</ele>
        <time>2022-09-05T08:31:45.000Z</time>
      </trkpt>
      <trkpt lat="49.87657" lon="4.7478">
        <ele>218</ele>
        <time>2022-09-05T08:31:46.000Z</time>
      </trkpt>
      <trkpt lat="49.87659" lon="4.74782">
        <ele>218</ele>
        <time>2022-09-05T08:31:47.000Z</time>
      </trkpt>
      <trkpt lat="49.8766" lon="4.74784">
        <ele>218</ele>
        <time>2022-09-05T08:31:48.000Z</time>
      </trkpt>
      <trkpt lat="49.87662" lon="4.74785">
        <ele>218</ele>
        <time>2022-09-05T08:31:49.000Z</time>
      </trkpt>
      <trkpt lat="49.87665" lon="4.74788">
        <ele>218</ele>
        <time>2022-09-05T08:31:50.000Z</time>
      </trkpt>
      <trkpt lat="49.87667" lon="4.7479">
        <ele>217</ele>
        <time>2022-09-05T08:31:51.000Z</time>
      </trkpt>
      <trkpt lat="49.87671" lon="4.74792">
        <ele>217</ele>
        <time>2022-09-05T08:31:52.000Z</time>
      </trkpt>
      <trkpt lat="49.87674" lon="4.74794">
        <ele>218</ele>
        <time>2022-09-05T08:31:53.000Z</time>
      </trkpt>
      <trkpt lat="49.87678" lon="4.74795">
        <ele>217</ele>
        <time>2022-09-05T08:31:54.000Z</time>
      </trkpt>
      <trkpt lat="49.87682" lon="4.74796">
        <ele>217</ele>
        <time>2022-09-05T08:31:55.000Z</time>
      </trkpt>
      <trkpt lat="49.87686" lon="4.74796">
        <ele>217</ele>
        <time>2022-09-05T08:31:56.000Z</time>
      </trkpt>
      <trkpt lat="49.8769" lon="4.74796">
        <ele>217</ele>
        <time>2022-09-05T08:31:57.000Z</time>
      </trkpt>
      <trkpt lat="49.87694" lon="4.74795">
        <ele>217</ele>
        <time>2022-09-05T08:31:58.000Z</time>
      </trkpt>
      <trkpt lat="49.87698" lon="4.74794">
        <ele>217</ele>
        <time>2022-09-05T08:31:59.000Z</time>
      </trkpt>
      <trkpt lat="49.87703" lon="4.74794">
        <ele>217</ele>
        <time>2022-09-05T08:32:00.000Z</time>
      </trkpt>
      <trkpt lat="49.87707" lon="4.74795">
        <ele>217</ele>
        <time>2022-09-05T08:32:01.000Z</time>
      </trkpt>
      <trkpt lat="49.8771" lon="4.74796">
        <ele>217</ele>
        <time>2022-09-05T08:32:02.000Z</time>
      </trkpt>
      <trkpt lat="49.87713" lon="4.74797">
        <ele>217</ele>
        <time>2022-09-05T08:32:03.000Z</time>
      </trkpt>
      <trkpt lat="49.87715" lon="4.74797">
        <ele>217</ele>
        <time>2022-09-05T08:32:04.000Z</time>
      </trkpt>
      <trkpt lat="49.87718" lon="4.74796">
        <ele>217</ele>
        <time>2022-09-05T08:32:05.000Z</time>
      </trkpt>
      <trkpt lat="49.87721" lon="4.74795">
        <ele>217</ele>
        <time>2022-09-05T08:32:06.000Z</time>
      </trkpt>
      <trkpt lat="49.87724" lon="4.74794">
        <ele>217</ele>
        <time>2022-09-05T08:32:07.000Z</time>
      </trkpt>
      <trkpt lat="49.87727" lon="4.74793">
        <ele>217</ele>
        <time>2022-09-05T08:32:08.000Z</time>
      </trkpt>
      <trkpt lat="49.87729" lon="4.74793">
        <ele>217</ele>
        <time>2022-09-05T08:32:09.000Z</time>
      </trkpt>
      <trkpt lat="49.8773" lon="4.74792">
        <ele>217</ele>
        <time>2022-09-05T08:32:10.000Z</time>
      </trkpt>
      <trkpt lat="49.87731" lon="4.7479">
        <ele>217</ele>
        <time>2022-09-05T08:32:11.000Z</time>
      </trkpt>
      <trkpt lat="49.87732" lon="4.74787">
        <ele>217</ele>
        <time>2022-09-05T08:32:12.000Z</time>
      </trkpt>
      <trkpt lat="49.87733" lon="4.74784">
        <ele>217</ele>
        <time>2022-09-05T08:32:13.000Z</time>
      </trkpt>
      <trkpt lat="49.87734" lon="4.74781">
        <ele>216</ele>
        <time>2022-09-05T08:32:14.000Z</time>
      </trkpt>
      <trkpt lat="49.87737" lon="4.74776">
        <ele>216</ele>
        <time>2022-09-05T08:32:15.000Z</time>
      </trkpt>
      <trkpt lat="49.87738" lon="4.74772">
        <ele>216</ele>
        <time>2022-09-05T08:32:16.000Z</time>
      </trkpt>
      <trkpt lat="49.8774" lon="4.74768">
        <ele>215</ele>
        <time>2022-09-05T08:32:17.000Z</time>
      </trkpt>
      <trkpt lat="49.8774" lon="4.74765">
        <ele>215</ele>
        <time>2022-09-05T08:32:18.000Z</time>
      </trkpt>
      <trkpt lat="49.87741" lon="4.74762">
        <ele>215</ele>
        <time>2022-09-05T08:32:19.000Z</time>
      </trkpt>
      <trkpt lat="49.87741" lon="4.74759">
        <ele>215</ele>
        <time>2022-09-05T08:32:20.000Z</time>
      </trkpt>
      <trkpt lat="49.87741" lon="4.74757">
        <ele>214</ele>
        <time>2022-09-05T08:32:21.000Z</time>
      </trkpt>
      <trkpt lat="49.87741" lon="4.74755">
        <ele>214</ele>
        <time>2022-09-05T08:32:22.000Z</time>
      </trkpt>
      <trkpt lat="49.8774" lon="4.74752">
        <ele>214</ele>
        <time>2022-09-05T08:32:23.000Z</time>
      </trkpt>
      <trkpt lat="49.87739" lon="4.7475">
        <ele>214</ele>
        <time>2022-09-05T08:32:24.000Z</time>
      </trkpt>
      <trkpt lat="49.87737" lon="4.74746">
        <ele>214</ele>
        <time>2022-09-05T08:32:25.000Z</time>
      </trkpt>
      <trkpt lat="49.87736" lon="4.74742">
        <ele>213</ele>
        <time>2022-09-05T08:32:26.000Z</time>
      </trkpt>
      <trkpt lat="49.87734" lon="4.74738">
        <ele>213</ele>
        <time>2022-09-05T08:32:27.000Z</time>
      </trkpt>
      <trkpt lat="49.87733" lon="4.74734">
        <ele>213</ele>
        <time>2022-09-05T08:32:28.000Z</time>
      </trkpt>
      <trkpt lat="49.87733" lon="4.7473">
        <ele>212</ele>
        <time>2022-09-05T08:32:29.000Z</time>
      </trkpt>
      <trkpt lat="49.87731" lon="4.74726">
        <ele>212</ele>
        <time>2022-09-05T08:32:30.000Z</time>
      </trkpt>
      <trkpt lat="49.87729" lon="4.7472">
        <ele>212</ele>
        <time>2022-09-05T08:32:31.000Z</time>
      </trkpt>
      <trkpt lat="49.87728" lon="4.74716">
        <ele>211</ele>
        <time>2022-09-05T08:32:32.000Z</time>
      </trkpt>
      <trkpt lat="49.87726" lon="4.74711">
        <ele>211</ele>
        <time>2022-09-05T08:32:33.000Z</time>
      </trkpt>
      <trkpt lat="49.87725" lon="4.74706">
        <ele>211</ele>
        <time>2022-09-05T08:32:34.000Z</time>
      </trkpt>
      <trkpt lat="49.87724" lon="4.74703">
        <ele>210</ele>
        <time>2022-09-05T08:32:35.000Z</time>
      </trkpt>
      <trkpt lat="49.87723" lon="4.747">
        <ele>210</ele>
        <time>2022-09-05T08:32:36.000Z</time>
      </trkpt>
      <trkpt lat="49.87722" lon="4.74696">
        <ele>210</ele>
        <time>2022-09-05T08:32:37.000Z</time>
      </trkpt>
      <trkpt lat="49.87721" lon="4.74691">
        <ele>209</ele>
        <time>2022-09-05T08:32:38.000Z</time>
      </trkpt>
      <trkpt lat="49.87719" lon="4.74686">
        <ele>209</ele>
        <time>2022-09-05T08:32:39.000Z</time>
      </trkpt>
      <trkpt lat="49.87718" lon="4.74681">
        <ele>209</ele>
        <time>2022-09-05T08:32:40.000Z</time>
      </trkpt>
      <trkpt lat="49.87716" lon="4.74677">
        <ele>208</ele>
        <time>2022-09-05T08:32:41.000Z</time>
      </trkpt>
      <trkpt lat="49.87715" lon="4.74674">
        <ele>208</ele>
        <time>2022-09-05T08:32:42.000Z</time>
      </trkpt>
      <trkpt lat="49.87714" lon="4.74669">
        <ele>207</ele>
        <time>2022-09-05T08:32:43.000Z</time>
      </trkpt>
      <trkpt lat="49.87713" lon="4.74664">
        <ele>207</ele>
        <time>2022-09-05T08:32:44.000Z</time>
      </trkpt>
      <trkpt lat="49.87711" lon="4.74659">
        <ele>206</ele>
        <time>2022-09-05T08:32:45.000Z</time>
      </trkpt>
      <trkpt lat="49.8771" lon="4.74655">
        <ele>206</ele>
        <time>2022-09-05T08:32:46.000Z</time>
      </trkpt>
      <trkpt lat="49.87708" lon="4.7465">
        <ele>205</ele>
        <time>2022-09-05T08:32:47.000Z</time>
      </trkpt>
      <trkpt lat="49.87708" lon="4.74646">
        <ele>205</ele>
        <time>2022-09-05T08:32:48.000Z</time>
      </trkpt>
      <trkpt lat="49.87707" lon="4.74641">
        <ele>204</ele>
        <time>2022-09-05T08:32:49.000Z</time>
      </trkpt>
      <trkpt lat="49.87705" lon="4.74636">
        <ele>204</ele>
        <time>2022-09-05T08:32:50.000Z</time>
      </trkpt>
      <trkpt lat="49.87704" lon="4.74631">
        <ele>203</ele>
        <time>2022-09-05T08:32:51.000Z</time>
      </trkpt>
      <trkpt lat="49.87704" lon="4.74626">
        <ele>203</ele>
        <time>2022-09-05T08:32:52.000Z</time>
      </trkpt>
      <trkpt lat="49.87703" lon="4.74619">
        <ele>202</ele>
        <time>2022-09-05T08:32:53.000Z</time>
      </trkpt>
      <trkpt lat="49.87702" lon="4.74613">
        <ele>202</ele>
        <time>2022-09-05T08:32:54.000Z</time>
      </trkpt>
      <trkpt lat="49.87702" lon="4.74606">
        <ele>201</ele>
        <time>2022-09-05T08:32:55.000Z</time>
      </trkpt>
      <trkpt lat="49.87701" lon="4.74598">
        <ele>201</ele>
        <time>2022-09-05T08:32:56.000Z</time>
      </trkpt>
      <trkpt lat="49.87701" lon="4.74591">
        <ele>200</ele>
        <time>2022-09-05T08:32:57.000Z</time>
      </trkpt>
      <trkpt lat="49.877" lon="4.74583">
        <ele>199</ele>
        <time>2022-09-05T08:32:58.000Z</time>
      </trkpt>
      <trkpt lat="49.877" lon="4.74576">
        <ele>198</ele>
        <time>2022-09-05T08:32:59.000Z</time>
      </trkpt>
      <trkpt lat="49.87698" lon="4.74569">
        <ele>198</ele>
        <time>2022-09-05T08:33:00.000Z</time>
      </trkpt>
      <trkpt lat="49.87696" lon="4.74562">
        <ele>197</ele>
        <time>2022-09-05T08:33:01.000Z</time>
      </trkpt>
      <trkpt lat="49.87694" lon="4.74555">
        <ele>197</ele>
        <time>2022-09-05T08:33:02.000Z</time>
      </trkpt>
      <trkpt lat="49.87692" lon="4.74549">
        <ele>196</ele>
        <time>2022-09-05T08:33:03.000Z</time>
      </trkpt>
      <trkpt lat="49.8769" lon="4.74542">
        <ele>195</ele>
        <time>2022-09-05T08:33:04.000Z</time>
      </trkpt>
      <trkpt lat="49.87688" lon="4.74536">
        <ele>195</ele>
        <time>2022-09-05T08:33:05.000Z</time>
      </trkpt>
      <trkpt lat="49.87685" lon="4.7453">
        <ele>194</ele>
        <time>2022-09-05T08:33:06.000Z</time>
      </trkpt>
      <trkpt lat="49.87682" lon="4.74523">
        <ele>193</ele>
        <time>2022-09-05T08:33:07.000Z</time>
      </trkpt>
      <trkpt lat="49.87679" lon="4.74516">
        <ele>192</ele>
        <time>2022-09-05T08:33:08.000Z</time>
      </trkpt>
      <trkpt lat="49.87676" lon="4.74509">
        <ele>192</ele>
        <time>2022-09-05T08:33:09.000Z</time>
      </trkpt>
      <trkpt lat="49.87672" lon="4.74502">
        <ele>191</ele>
        <time>2022-09-05T08:33:10.000Z</time>
      </trkpt>
      <trkpt lat="49.8767" lon="4.74497">
        <ele>190</ele>
        <time>2022-09-05T08:33:11.000Z</time>
      </trkpt>
      <trkpt lat="49.87667" lon="4.74491">
        <ele>190</ele>
        <time>2022-09-05T08:33:12.000Z</time>
      </trkpt>
      <trkpt lat="49.87665" lon="4.74485">
        <ele>189</ele>
        <time>2022-09-05T08:33:13.000Z</time>
      </trkpt>
      <trkpt lat="49.87662" lon="4.7448">
        <ele>188</ele>
        <time>2022-09-05T08:33:14.000Z</time>
      </trkpt>
      <trkpt lat="49.8766" lon="4.74473">
        <ele>188</ele>
        <time>2022-09-05T08:33:15.000Z</time>
      </trkpt>
      <trkpt lat="49.87659" lon="4.74466">
        <ele>187</ele>
        <time>2022-09-05T08:33:16.000Z</time>
      </trkpt>
      <trkpt lat="49.87659" lon="4.74458">
        <ele>186</ele>
        <time>2022-09-05T08:33:17.000Z</time>
      </trkpt>
      <trkpt lat="49.87658" lon="4.7445">
        <ele>186</ele>
        <time>2022-09-05T08:33:18.000Z</time>
      </trkpt>
      <trkpt lat="49.87659" lon="4.74443">
        <ele>185</ele>
        <time>2022-09-05T08:33:19.000Z</time>
      </trkpt>
      <trkpt lat="49.8766" lon="4.74437">
        <ele>184</ele>
        <time>2022-09-05T08:33:20.000Z</time>
      </trkpt>
      <trkpt lat="49.87661" lon="4.74433">
        <ele>184</ele>
        <time>2022-09-05T08:33:21.000Z</time>
      </trkpt>
      <trkpt lat="49.87662" lon="4.7443">
        <ele>183</ele>
        <time>2022-09-05T08:33:22.000Z</time>
      </trkpt>
      <trkpt lat="49.87664" lon="4.74428">
        <ele>182</ele>
        <time>2022-09-05T08:33:23.000Z</time>
      </trkpt>
      <trkpt lat="49.87667" lon="4.74427">
        <ele>182</ele>
        <time>2022-09-05T08:33:24.000Z</time>
      </trkpt>
      <trkpt lat="49.8767" lon="4.74428">
        <ele>181</ele>
        <time>2022-09-05T08:33:25.000Z</time>
      </trkpt>
      <trkpt lat="49.87673" lon="4.74429">
        <ele>181</ele>
        <time>2022-09-05T08:33:26.000Z</time>
      </trkpt>
      <trkpt lat="49.87676" lon="4.7443">
        <ele>180</ele>
        <time>2022-09-05T08:33:27.000Z</time>
      </trkpt>
      <trkpt lat="49.87679" lon="4.74432">
        <ele>180</ele>
        <time>2022-09-05T08:33:28.000Z</time>
      </trkpt>
      <trkpt lat="49.87682" lon="4.74434">
        <ele>179</ele>
        <time>2022-09-05T08:33:29.000Z</time>
      </trkpt>
      <trkpt lat="49.87686" lon="4.74437">
        <ele>178</ele>
        <time>2022-09-05T08:33:30.000Z</time>
      </trkpt>
      <trkpt lat="49.87689" lon="4.7444">
        <ele>178</ele>
        <time>2022-09-05T08:33:31.000Z</time>
      </trkpt>
      <trkpt lat="49.87693" lon="4.74443">
        <ele>177</ele>
        <time>2022-09-05T08:33:32.000Z</time>
      </trkpt>
      <trkpt lat="49.87697" lon="4.74446">
        <ele>177</ele>
        <time>2022-09-05T08:33:33.000Z</time>
      </trkpt>
      <trkpt lat="49.87701" lon="4.74448">
        <ele>176</ele>
        <time>2022-09-05T08:33:34.000Z</time>
      </trkpt>
      <trkpt lat="49.87704" lon="4.74449">
        <ele>175</ele>
        <time>2022-09-05T08:33:35.000Z</time>
      </trkpt>
      <trkpt lat="49.87708" lon="4.7445">
        <ele>175</ele>
        <time>2022-09-05T08:33:36.000Z</time>
      </trkpt>
      <trkpt lat="49.87713" lon="4.74449">
        <ele>174</ele>
        <time>2022-09-05T08:33:37.000Z</time>
      </trkpt>
      <trkpt lat="49.87718" lon="4.74447">
        <ele>174</ele>
        <time>2022-09-05T08:33:38.000Z</time>
      </trkpt>
      <trkpt lat="49.87724" lon="4.74443">
        <ele>173</ele>
        <time>2022-09-05T08:33:39.000Z</time>
      </trkpt>
      <trkpt lat="49.87729" lon="4.74438">
        <ele>172</ele>
        <time>2022-09-05T08:33:40.000Z</time>
      </trkpt>
      <trkpt lat="49.87732" lon="4.74433">
        <ele>171</ele>
        <time>2022-09-05T08:33:41.000Z</time>
      </trkpt>
      <trkpt lat="49.87734" lon="4.74429">
        <ele>171</ele>
        <time>2022-09-05T08:33:42.000Z</time>
      </trkpt>
      <trkpt lat="49.87735" lon="4.74426">
        <ele>170</ele>
        <time>2022-09-05T08:33:43.000Z</time>
      </trkpt>
      <trkpt lat="49.87736" lon="4.74423">
        <ele>170</ele>
        <time>2022-09-05T08:33:44.000Z</time>
      </trkpt>
      <trkpt lat="49.87737" lon="4.7442">
        <ele>169</ele>
        <time>2022-09-05T08:33:45.000Z</time>
      </trkpt>
      <trkpt lat="49.87739" lon="4.74418">
        <ele>169</ele>
        <time>2022-09-05T08:33:46.000Z</time>
      </trkpt>
      <trkpt lat="49.87741" lon="4.74418">
        <ele>168</ele>
        <time>2022-09-05T08:33:47.000Z</time>
      </trkpt>
      <trkpt lat="49.87742" lon="4.74419">
        <ele>168</ele>
        <time>2022-09-05T08:33:48.000Z</time>
      </trkpt>
      <trkpt lat="49.87744" lon="4.7442">
        <ele>167</ele>
        <time>2022-09-05T08:33:49.000Z</time>
      </trkpt>
      <trkpt lat="49.87746" lon="4.74421">
        <ele>167</ele>
        <time>2022-09-05T08:33:50.000Z</time>
      </trkpt>
      <trkpt lat="49.87748" lon="4.74423">
        <ele>167</ele>
        <time>2022-09-05T08:33:51.000Z</time>
      </trkpt>
      <trkpt lat="49.8775" lon="4.74425">
        <ele>166</ele>
        <time>2022-09-05T08:33:52.000Z</time>
      </trkpt>
      <trkpt lat="49.87752" lon="4.74427">
        <ele>166</ele>
        <time>2022-09-05T08:33:53.000Z</time>
      </trkpt>
      <trkpt lat="49.87754" lon="4.7443">
        <ele>166</ele>
        <time>2022-09-05T08:33:54.000Z</time>
      </trkpt>
      <trkpt lat="49.87756" lon="4.74433">
        <ele>166</ele>
        <time>2022-09-05T08:33:55.000Z</time>
      </trkpt>
      <trkpt lat="49.87758" lon="4.74435">
        <ele>165</ele>
        <time>2022-09-05T08:33:56.000Z</time>
      </trkpt>
      <trkpt lat="49.8776" lon="4.74436">
        <ele>165</ele>
        <time>2022-09-05T08:33:57.000Z</time>
      </trkpt>
      <trkpt lat="49.87762" lon="4.74438">
        <ele>165</ele>
        <time>2022-09-05T08:33:58.000Z</time>
      </trkpt>
      <trkpt lat="49.87764" lon="4.74438">
        <ele>165</ele>
        <time>2022-09-05T08:33:59.000Z</time>
      </trkpt>
      <trkpt lat="49.87766" lon="4.7444">
        <ele>165</ele>
        <time>2022-09-05T08:34:00.000Z</time>
      </trkpt>
      <trkpt lat="49.87769" lon="4.74441">
        <ele>165</ele>
        <time>2022-09-05T08:34:01.000Z</time>
      </trkpt>
      <trkpt lat="49.87772" lon="4.74444">
        <ele>165</ele>
        <time>2022-09-05T08:34:02.000Z</time>
      </trkpt>
      <trkpt lat="49.87776" lon="4.74447">
        <ele>165</ele>
        <time>2022-09-05T08:34:03.000Z</time>
      </trkpt>
      <trkpt lat="49.87779" lon="4.7445">
        <ele>165</ele>
        <time>2022-09-05T08:34:04.000Z</time>
      </trkpt>
      <trkpt lat="49.87782" lon="4.74452">
        <ele>165</ele>
        <time>2022-09-05T08:34:05.000Z</time>
      </trkpt>
      <trkpt lat="49.87785" lon="4.74455">
        <ele>165</ele>
        <time>2022-09-05T08:34:06.000Z</time>
      </trkpt>
      <trkpt lat="49.87789" lon="4.74458">
        <ele>165</ele>
        <time>2022-09-05T08:34:07.000Z</time>
      </trkpt>
      <trkpt lat="49.87792" lon="4.74461">
        <ele>164</ele>
        <time>2022-09-05T08:34:08.000Z</time>
      </trkpt>
      <trkpt lat="49.87795" lon="4.74463">
        <ele>164</ele>
        <time>2022-09-05T08:34:09.000Z</time>
      </trkpt>
      <trkpt lat="49.87798" lon="4.74464">
        <ele>164</ele>
        <time>2022-09-05T08:34:10.000Z</time>
      </trkpt>
      <trkpt lat="49.878" lon="4.74465">
        <ele>164</ele>
        <time>2022-09-05T08:34:11.000Z</time>
      </trkpt>
      <trkpt lat="49.87802" lon="4.74465">
        <ele>164</ele>
        <time>2022-09-05T08:34:12.000Z</time>
      </trkpt>
      <trkpt lat="49.87805" lon="4.74466">
        <ele>164</ele>
        <time>2022-09-05T08:34:13.000Z</time>
      </trkpt>
      <trkpt lat="49.87809" lon="4.74467">
        <ele>164</ele>
        <time>2022-09-05T08:34:14.000Z</time>
      </trkpt>
      <trkpt lat="49.87812" lon="4.74468">
        <ele>164</ele>
        <time>2022-09-05T08:34:15.000Z</time>
      </trkpt>
      <trkpt lat="49.87815" lon="4.7447">
        <ele>164</ele>
        <time>2022-09-05T08:34:16.000Z</time>
      </trkpt>
      <trkpt lat="49.87819" lon="4.74471">
        <ele>164</ele>
        <time>2022-09-05T08:34:17.000Z</time>
      </trkpt>
      <trkpt lat="49.87822" lon="4.74474">
        <ele>164</ele>
        <time>2022-09-05T08:34:18.000Z</time>
      </trkpt>
      <trkpt lat="49.87826" lon="4.74476">
        <ele>164</ele>
        <time>2022-09-05T08:34:19.000Z</time>
      </trkpt>
      <trkpt lat="49.8783" lon="4.74478">
        <ele>164</ele>
        <time>2022-09-05T08:34:20.000Z</time>
      </trkpt>
      <trkpt lat="49.87834" lon="4.74479">
        <ele>164</ele>
        <time>2022-09-05T08:34:21.000Z</time>
      </trkpt>
      <trkpt lat="49.87838" lon="4.74482">
        <ele>163</ele>
        <time>2022-09-05T08:34:22.000Z</time>
      </trkpt>
      <trkpt lat="49.87843" lon="4.74485">
        <ele>163</ele>
        <time>2022-09-05T08:34:23.000Z</time>
      </trkpt>
      <trkpt lat="49.87848" lon="4.74487">
        <ele>163</ele>
        <time>2022-09-05T08:34:24.000Z</time>
      </trkpt>
      <trkpt lat="49.87852" lon="4.7449">
        <ele>163</ele>
        <time>2022-09-05T08:34:25.000Z</time>
      </trkpt>
      <trkpt lat="49.87856" lon="4.74494">
        <ele>163</ele>
        <time>2022-09-05T08:34:26.000Z</time>
      </trkpt>
      <trkpt lat="49.87861" lon="4.74497">
        <ele>163</ele>
        <time>2022-09-05T08:34:27.000Z</time>
      </trkpt>
      <trkpt lat="49.87865" lon="4.745">
        <ele>163</ele>
        <time>2022-09-05T08:34:28.000Z</time>
      </trkpt>
      <trkpt lat="49.87869" lon="4.74503">
        <ele>163</ele>
        <time>2022-09-05T08:34:29.000Z</time>
      </trkpt>
      <trkpt lat="49.87873" lon="4.74507">
        <ele>163</ele>
        <time>2022-09-05T08:34:30.000Z</time>
      </trkpt>
      <trkpt lat="49.87877" lon="4.74511">
        <ele>163</ele>
        <time>2022-09-05T08:34:31.000Z</time>
      </trkpt>
      <trkpt lat="49.87882" lon="4.74515">
        <ele>163</ele>
        <time>2022-09-05T08:34:32.000Z</time>
      </trkpt>
      <trkpt lat="49.87886" lon="4.7452">
        <ele>162</ele>
        <time>2022-09-05T08:34:33.000Z</time>
      </trkpt>
      <trkpt lat="49.87891" lon="4.74525">
        <ele>162</ele>
        <time>2022-09-05T08:34:34.000Z</time>
      </trkpt>
      <trkpt lat="49.87895" lon="4.74529">
        <ele>162</ele>
        <time>2022-09-05T08:34:35.000Z</time>
      </trkpt>
      <trkpt lat="49.879" lon="4.74534">
        <ele>162</ele>
        <time>2022-09-05T08:34:36.000Z</time>
      </trkpt>
      <trkpt lat="49.87904" lon="4.74539">
        <ele>162</ele>
        <time>2022-09-05T08:34:37.000Z</time>
      </trkpt>
      <trkpt lat="49.87908" lon="4.74544">
        <ele>162</ele>
        <time>2022-09-05T08:34:38.000Z</time>
      </trkpt>
      <trkpt lat="49.87911" lon="4.74549">
        <ele>162</ele>
        <time>2022-09-05T08:34:39.000Z</time>
      </trkpt>
      <trkpt lat="49.87915" lon="4.74554">
        <ele>163</ele>
        <time>2022-09-05T08:34:40.000Z</time>
      </trkpt>
      <trkpt lat="49.87918" lon="4.74558">
        <ele>163</ele>
        <time>2022-09-05T08:34:41.000Z</time>
      </trkpt>
      <trkpt lat="49.87921" lon="4.74563">
        <ele>163</ele>
        <time>2022-09-05T08:34:42.000Z</time>
      </trkpt>
      <trkpt lat="49.87923" lon="4.74568">
        <ele>163</ele>
        <time>2022-09-05T08:34:43.000Z</time>
      </trkpt>
      <trkpt lat="49.87925" lon="4.74573">
        <ele>163</ele>
        <time>2022-09-05T08:34:44.000Z</time>
      </trkpt>
      <trkpt lat="49.87928" lon="4.74577">
        <ele>163</ele>
        <time>2022-09-05T08:34:45.000Z</time>
      </trkpt>
      <trkpt lat="49.8793" lon="4.74583">
        <ele>163</ele>
        <time>2022-09-05T08:34:46.000Z</time>
      </trkpt>
      <trkpt lat="49.87932" lon="4.74589">
        <ele>163</ele>
        <time>2022-09-05T08:34:47.000Z</time>
      </trkpt>
      <trkpt lat="49.87935" lon="4.74595">
        <ele>163</ele>
        <time>2022-09-05T08:34:48.000Z</time>
      </trkpt>
      <trkpt lat="49.87937" lon="4.74602">
        <ele>163</ele>
        <time>2022-09-05T08:34:49.000Z</time>
      </trkpt>
      <trkpt lat="49.8794" lon="4.74608">
        <ele>163</ele>
        <time>2022-09-05T08:34:50.000Z</time>
      </trkpt>
      <trkpt lat="49.87944" lon="4.74615">
        <ele>163</ele>
        <time>2022-09-05T08:34:51.000Z</time>
      </trkpt>
      <trkpt lat="49.87948" lon="4.74621">
        <ele>164</ele>
        <time>2022-09-05T08:34:52.000Z</time>
      </trkpt>
      <trkpt lat="49.87951" lon="4.74627">
        <ele>164</ele>
        <time>2022-09-05T08:34:53.000Z</time>
      </trkpt>
      <trkpt lat="49.87954" lon="4.74634">
        <ele>164</ele>
        <time>2022-09-05T08:34:54.000Z</time>
      </trkpt>
      <trkpt lat="49.87958" lon="4.74641">
        <ele>164</ele>
        <time>2022-09-05T08:34:55.000Z</time>
      </trkpt>
      <trkpt lat="49.87961" lon="4.74647">
        <ele>164</ele>
        <time>2022-09-05T08:34:56.000Z</time>
      </trkpt>
      <trkpt lat="49.87965" lon="4.74653">
        <ele>164</ele>
        <time>2022-09-05T08:34:57.000Z</time>
      </trkpt>
      <trkpt lat="49.87968" lon="4.74659">
        <ele>164</ele>
        <time>2022-09-05T08:34:58.000Z</time>
      </trkpt>
      <trkpt lat="49.87972" lon="4.74665">
        <ele>164</ele>
        <time>2022-09-05T08:34:59.000Z</time>
      </trkpt>
      <trkpt lat="49.87975" lon="4.7467">
        <ele>164</ele>
        <time>2022-09-05T08:35:00.000Z</time>
      </trkpt>
      <trkpt lat="49.87979" lon="4.74676">
        <ele>164</ele>
        <time>2022-09-05T08:35:01.000Z</time>
      </trkpt>
      <trkpt lat="49.87982" lon="4.74683">
        <ele>164</ele>
        <time>2022-09-05T08:35:02.000Z</time>
      </trkpt>
      <trkpt lat="49.87986" lon="4.74688">
        <ele>164</ele>
        <time>2022-09-05T08:35:03.000Z</time>
      </trkpt>
      <trkpt lat="49.87989" lon="4.74694">
        <ele>165</ele>
        <time>2022-09-05T08:35:04.000Z</time>
      </trkpt>
      <trkpt lat="49.87992" lon="4.74701">
        <ele>165</ele>
        <time>2022-09-05T08:35:05.000Z</time>
      </trkpt>
      <trkpt lat="49.87995" lon="4.74708">
        <ele>165</ele>
        <time>2022-09-05T08:35:06.000Z</time>
      </trkpt>
      <trkpt lat="49.87998" lon="4.74715">
        <ele>165</ele>
        <time>2022-09-05T08:35:07.000Z</time>
      </trkpt>
      <trkpt lat="49.88001" lon="4.74721">
        <ele>165</ele>
        <time>2022-09-05T08:35:08.000Z</time>
      </trkpt>
      <trkpt lat="49.88004" lon="4.74728">
        <ele>165</ele>
        <time>2022-09-05T08:35:09.000Z</time>
      </trkpt>
      <trkpt lat="49.88006" lon="4.74735">
        <ele>165</ele>
        <time>2022-09-05T08:35:10.000Z</time>
      </trkpt>
      <trkpt lat="49.88009" lon="4.74741">
        <ele>165</ele>
        <time>2022-09-05T08:35:11.000Z</time>
      </trkpt>
      <trkpt lat="49.88012" lon="4.74749">
        <ele>165</ele>
        <time>2022-09-05T08:35:12.000Z</time>
      </trkpt>
      <trkpt lat="49.88015" lon="4.74755">
        <ele>165</ele>
        <time>2022-09-05T08:35:13.000Z</time>
      </trkpt>
      <trkpt lat="49.88018" lon="4.74762">
        <ele>165</ele>
        <time>2022-09-05T08:35:14.000Z</time>
      </trkpt>
      <trkpt lat="49.8802" lon="4.74767">
        <ele>165</ele>
        <time>2022-09-05T08:35:15.000Z</time>
      </trkpt>
      <trkpt lat="49.88022" lon="4.74773">
        <ele>165</ele>
        <time>2022-09-05T08:35:16.000Z</time>
      </trkpt>
      <trkpt lat="49.88023" lon="4.7478">
        <ele>165</ele>
        <time>2022-09-05T08:35:17.000Z</time>
      </trkpt>
      <trkpt lat="49.88025" lon="4.74786">
        <ele>165</ele>
        <time>2022-09-05T08:35:18.000Z</time>
      </trkpt>
      <trkpt lat="49.88027" lon="4.74793">
        <ele>165</ele>
        <time>2022-09-05T08:35:19.000Z</time>
      </trkpt>
      <trkpt lat="49.88029" lon="4.748">
        <ele>165</ele>
        <time>2022-09-05T08:35:20.000Z</time>
      </trkpt>
      <trkpt lat="49.88031" lon="4.74807">
        <ele>165</ele>
        <time>2022-09-05T08:35:21.000Z</time>
      </trkpt>
      <trkpt lat="49.88032" lon="4.74814">
        <ele>166</ele>
        <time>2022-09-05T08:35:22.000Z</time>
      </trkpt>
      <trkpt lat="49.88034" lon="4.74821">
        <ele>166</ele>
        <time>2022-09-05T08:35:23.000Z</time>
      </trkpt>
      <trkpt lat="49.88035" lon="4.74829">
        <ele>166</ele>
        <time>2022-09-05T08:35:24.000Z</time>
      </trkpt>
      <trkpt lat="49.88036" lon="4.74836">
        <ele>166</ele>
        <time>2022-09-05T08:35:25.000Z</time>
      </trkpt>
      <trkpt lat="49.88037" lon="4.74843">
        <ele>166</ele>
        <time>2022-09-05T08:35:26.000Z</time>
      </trkpt>
      <trkpt lat="49.88038" lon="4.7485">
        <ele>166</ele>
        <time>2022-09-05T08:35:27.000Z</time>
      </trkpt>
      <trkpt lat="49.88039" lon="4.74856">
        <ele>166</ele>
        <time>2022-09-05T08:35:28.000Z</time>
      </trkpt>
      <trkpt lat="49.8804" lon="4.74863">
        <ele>166</ele>
        <time>2022-09-05T08:35:29.000Z</time>
      </trkpt>
      <trkpt lat="49.8804" lon="4.74871">
        <ele>167</ele>
        <time>2022-09-05T08:35:30.000Z</time>
      </trkpt>
      <trkpt lat="49.88041" lon="4.74877">
        <ele>167</ele>
        <time>2022-09-05T08:35:31.000Z</time>
      </trkpt>
      <trkpt lat="49.88042" lon="4.74884">
        <ele>167</ele>
        <time>2022-09-05T08:35:32.000Z</time>
      </trkpt>
      <trkpt lat="49.88043" lon="4.7489">
        <ele>167</ele>
        <time>2022-09-05T08:35:33.000Z</time>
      </trkpt>
      <trkpt lat="49.88045" lon="4.74898">
        <ele>167</ele>
        <time>2022-09-05T08:35:34.000Z</time>
      </trkpt>
      <trkpt lat="49.88046" lon="4.74905">
        <ele>167</ele>
        <time>2022-09-05T08:35:35.000Z</time>
      </trkpt>
      <trkpt lat="49.88048" lon="4.74913">
        <ele>167</ele>
        <time>2022-09-05T08:35:36.000Z</time>
      </trkpt>
      <trkpt lat="49.88049" lon="4.74919">
        <ele>167</ele>
        <time>2022-09-05T08:35:37.000Z</time>
      </trkpt>
      <trkpt lat="49.8805" lon="4.74926">
        <ele>168</ele>
        <time>2022-09-05T08:35:38.000Z</time>
      </trkpt>
      <trkpt lat="49.88051" lon="4.74932">
        <ele>168</ele>
        <time>2022-09-05T08:35:39.000Z</time>
      </trkpt>
      <trkpt lat="49.88053" lon="4.74938">
        <ele>168</ele>
        <time>2022-09-05T08:35:40.000Z</time>
      </trkpt>
      <trkpt lat="49.88054" lon="4.74944">
        <ele>168</ele>
        <time>2022-09-05T08:35:41.000Z</time>
      </trkpt>
      <trkpt lat="49.88056" lon="4.74951">
        <ele>168</ele>
        <time>2022-09-05T08:35:42.000Z</time>
      </trkpt>
      <trkpt lat="49.88058" lon="4.74957">
        <ele>168</ele>
        <time>2022-09-05T08:35:43.000Z</time>
      </trkpt>
      <trkpt lat="49.8806" lon="4.74962">
        <ele>168</ele>
        <time>2022-09-05T08:35:44.000Z</time>
      </trkpt>
      <trkpt lat="49.88062" lon="4.74968">
        <ele>168</ele>
        <time>2022-09-05T08:35:45.000Z</time>
      </trkpt>
      <trkpt lat="49.88064" lon="4.74973">
        <ele>168</ele>
        <time>2022-09-05T08:35:46.000Z</time>
      </trkpt>
      <trkpt lat="49.88066" lon="4.74979">
        <ele>168</ele>
        <time>2022-09-05T08:35:47.000Z</time>
      </trkpt>
      <trkpt lat="49.88068" lon="4.74985">
        <ele>168</ele>
        <time>2022-09-05T08:35:48.000Z</time>
      </trkpt>
      <trkpt lat="49.8807" lon="4.74991">
        <ele>168</ele>
        <time>2022-09-05T08:35:49.000Z</time>
      </trkpt>
      <trkpt lat="49.88072" lon="4.74997">
        <ele>168</ele>
        <time>2022-09-05T08:35:50.000Z</time>
      </trkpt>
      <trkpt lat="49.88074" lon="4.75003">
        <ele>168</ele>
        <time>2022-09-05T08:35:51.000Z</time>
      </trkpt>
      <trkpt lat="49.88076" lon="4.75009">
        <ele>168</ele>
        <time>2022-09-05T08:35:52.000Z</time>
      </trkpt>
      <trkpt lat="49.88079" lon="4.75016">
        <ele>168</ele>
        <time>2022-09-05T08:35:53.000Z</time>
      </trkpt>
      <trkpt lat="49.88081" lon="4.75022">
        <ele>168</ele>
        <time>2022-09-05T08:35:54.000Z</time>
      </trkpt>
      <trkpt lat="49.88083" lon="4.75028">
        <ele>168</ele>
        <time>2022-09-05T08:35:55.000Z</time>
      </trkpt>
      <trkpt lat="49.88085" lon="4.75035">
        <ele>168</ele>
        <time>2022-09-05T08:35:56.000Z</time>
      </trkpt>
      <trkpt lat="49.88087" lon="4.75041">
        <ele>168</ele>
        <time>2022-09-05T08:35:57.000Z</time>
      </trkpt>
      <trkpt lat="49.88089" lon="4.75048">
        <ele>168</ele>
        <time>2022-09-05T08:35:58.000Z</time>
      </trkpt>
      <trkpt lat="49.88092" lon="4.75054">
        <ele>168</ele>
        <time>2022-09-05T08:35:59.000Z</time>
      </trkpt>
      <trkpt lat="49.88095" lon="4.75061">
        <ele>168</ele>
        <time>2022-09-05T08:36:00.000Z</time>
      </trkpt>
      <trkpt lat="49.88098" lon="4.75068">
        <ele>168</ele>
        <time>2022-09-05T08:36:01.000Z</time>
      </trkpt>
      <trkpt lat="49.88101" lon="4.75075">
        <ele>168</ele>
        <time>2022-09-05T08:36:02.000Z</time>
      </trkpt>
      <trkpt lat="49.88104" lon="4.75081">
        <ele>168</ele>
        <time>2022-09-05T08:36:03.000Z</time>
      </trkpt>
      <trkpt lat="49.88108" lon="4.75088">
        <ele>168</ele>
        <time>2022-09-05T08:36:04.000Z</time>
      </trkpt>
      <trkpt lat="49.88111" lon="4.75094">
        <ele>168</ele>
        <time>2022-09-05T08:36:05.000Z</time>
      </trkpt>
      <trkpt lat="49.88114" lon="4.75101">
        <ele>167</ele>
        <time>2022-09-05T08:36:06.000Z</time>
      </trkpt>
      <trkpt lat="49.88117" lon="4.75107">
        <ele>167</ele>
        <time>2022-09-05T08:36:07.000Z</time>
      </trkpt>
      <trkpt lat="49.8812" lon="4.75113">
        <ele>167</ele>
        <time>2022-09-05T08:36:08.000Z</time>
      </trkpt>
      <trkpt lat="49.88123" lon="4.7512">
        <ele>167</ele>
        <time>2022-09-05T08:36:09.000Z</time>
      </trkpt>
      <trkpt lat="49.88127" lon="4.75126">
        <ele>167</ele>
        <time>2022-09-05T08:36:10.000Z</time>
      </trkpt>
      <trkpt lat="49.8813" lon="4.75133">
        <ele>167</ele>
        <time>2022-09-05T08:36:11.000Z</time>
      </trkpt>
      <trkpt lat="49.88133" lon="4.7514">
        <ele>167</ele>
        <time>2022-09-05T08:36:12.000Z</time>
      </trkpt>
      <trkpt lat="49.88135" lon="4.75147">
        <ele>167</ele>
        <time>2022-09-05T08:36:13.000Z</time>
      </trkpt>
      <trkpt lat="49.88138" lon="4.75155">
        <ele>167</ele>
        <time>2022-09-05T08:36:14.000Z</time>
      </trkpt>
      <trkpt lat="49.8814" lon="4.75162">
        <ele>167</ele>
        <time>2022-09-05T08:36:15.000Z</time>
      </trkpt>
      <trkpt lat="49.88142" lon="4.75169">
        <ele>167</ele>
        <time>2022-09-05T08:36:16.000Z</time>
      </trkpt>
      <trkpt lat="49.88145" lon="4.75176">
        <ele>167</ele>
        <time>2022-09-05T08:36:17.000Z</time>
      </trkpt>
      <trkpt lat="49.88148" lon="4.75183">
        <ele>166</ele>
        <time>2022-09-05T08:36:18.000Z</time>
      </trkpt>
      <trkpt lat="49.88151" lon="4.75189">
        <ele>166</ele>
        <time>2022-09-05T08:36:19.000Z</time>
      </trkpt>
      <trkpt lat="49.88153" lon="4.75196">
        <ele>166</ele>
        <time>2022-09-05T08:36:20.000Z</time>
      </trkpt>
      <trkpt lat="49.88155" lon="4.75203">
        <ele>166</ele>
        <time>2022-09-05T08:36:21.000Z</time>
      </trkpt>
      <trkpt lat="49.88157" lon="4.7521">
        <ele>166</ele>
        <time>2022-09-05T08:36:22.000Z</time>
      </trkpt>
      <trkpt lat="49.88158" lon="4.75218">
        <ele>166</ele>
        <time>2022-09-05T08:36:23.000Z</time>
      </trkpt>
      <trkpt lat="49.8816" lon="4.75225">
        <ele>166</ele>
        <time>2022-09-05T08:36:24.000Z</time>
      </trkpt>
      <trkpt lat="49.88161" lon="4.75231">
        <ele>166</ele>
        <time>2022-09-05T08:36:25.000Z</time>
      </trkpt>
      <trkpt lat="49.88163" lon="4.75236">
        <ele>166</ele>
        <time>2022-09-05T08:36:26.000Z</time>
      </trkpt>
      <trkpt lat="49.88164" lon="4.75241">
        <ele>165</ele>
        <time>2022-09-05T08:36:27.000Z</time>
      </trkpt>
      <trkpt lat="49.88166" lon="4.75246">
        <ele>165</ele>
        <time>2022-09-05T08:36:28.000Z</time>
      </trkpt>
      <trkpt lat="49.88168" lon="4.75254">
        <ele>165</ele>
        <time>2022-09-05T08:36:29.000Z</time>
      </trkpt>
      <trkpt lat="49.88169" lon="4.75261">
        <ele>165</ele>
        <time>2022-09-05T08:36:30.000Z</time>
      </trkpt>
      <trkpt lat="49.8817" lon="4.75268">
        <ele>165</ele>
        <time>2022-09-05T08:36:31.000Z</time>
      </trkpt>
      <trkpt lat="49.8817" lon="4.75275">
        <ele>165</ele>
        <time>2022-09-05T08:36:32.000Z</time>
      </trkpt>
      <trkpt lat="49.8817" lon="4.75282">
        <ele>165</ele>
        <time>2022-09-05T08:36:33.000Z</time>
      </trkpt>
      <trkpt lat="49.88171" lon="4.7529">
        <ele>164</ele>
        <time>2022-09-05T08:36:34.000Z</time>
      </trkpt>
      <trkpt lat="49.88172" lon="4.75297">
        <ele>164</ele>
        <time>2022-09-05T08:36:35.000Z</time>
      </trkpt>
      <trkpt lat="49.88172" lon="4.75305">
        <ele>164</ele>
        <time>2022-09-05T08:36:36.000Z</time>
      </trkpt>
      <trkpt lat="49.88173" lon="4.75312">
        <ele>164</ele>
        <time>2022-09-05T08:36:37.000Z</time>
      </trkpt>
      <trkpt lat="49.88173" lon="4.75321">
        <ele>164</ele>
        <time>2022-09-05T08:36:38.000Z</time>
      </trkpt>
      <trkpt lat="49.88173" lon="4.75328">
        <ele>164</ele>
        <time>2022-09-05T08:36:39.000Z</time>
      </trkpt>
      <trkpt lat="49.88173" lon="4.75336">
        <ele>164</ele>
        <time>2022-09-05T08:36:40.000Z</time>
      </trkpt>
      <trkpt lat="49.88172" lon="4.75344">
        <ele>164</ele>
        <time>2022-09-05T08:36:41.000Z</time>
      </trkpt>
      <trkpt lat="49.88171" lon="4.75351">
        <ele>164</ele>
        <time>2022-09-05T08:36:42.000Z</time>
      </trkpt>
      <trkpt lat="49.88171" lon="4.75359">
        <ele>164</ele>
        <time>2022-09-05T08:36:43.000Z</time>
      </trkpt>
      <trkpt lat="49.8817" lon="4.75366">
        <ele>164</ele>
        <time>2022-09-05T08:36:44.000Z</time>
      </trkpt>
      <trkpt lat="49.88169" lon="4.75374">
        <ele>164</ele>
        <time>2022-09-05T08:36:45.000Z</time>
      </trkpt>
      <trkpt lat="49.88168" lon="4.7538">
        <ele>164</ele>
        <time>2022-09-05T08:36:46.000Z</time>
      </trkpt>
      <trkpt lat="49.88167" lon="4.75386">
        <ele>164</ele>
        <time>2022-09-05T08:36:47.000Z</time>
      </trkpt>
      <trkpt lat="49.88167" lon="4.75391">
        <ele>164</ele>
        <time>2022-09-05T08:36:48.000Z</time>
      </trkpt>
      <trkpt lat="49.88166" lon="4.75396">
        <ele>164</ele>
        <time>2022-09-05T08:36:49.000Z</time>
      </trkpt>
      <trkpt lat="49.88166" lon="4.75401">
        <ele>164</ele>
        <time>2022-09-05T08:36:50.000Z</time>
      </trkpt>
      <trkpt lat="49.88165" lon="4.75407">
        <ele>164</ele>
        <time>2022-09-05T08:36:51.000Z</time>
      </trkpt>
      <trkpt lat="49.88165" lon="4.75412">
        <ele>164</ele>
        <time>2022-09-05T08:36:52.000Z</time>
      </trkpt>
      <trkpt lat="49.88164" lon="4.75418">
        <ele>164</ele>
        <time>2022-09-05T08:36:53.000Z</time>
      </trkpt>
      <trkpt lat="49.88164" lon="4.75423">
        <ele>165</ele>
        <time>2022-09-05T08:36:54.000Z</time>
      </trkpt>
      <trkpt lat="49.88164" lon="4.75429">
        <ele>165</ele>
        <time>2022-09-05T08:36:55.000Z</time>
      </trkpt>
      <trkpt lat="49.88164" lon="4.75435">
        <ele>165</ele>
        <time>2022-09-05T08:36:56.000Z</time>
      </trkpt>
      <trkpt lat="49.88164" lon="4.75441">
        <ele>165</ele>
        <time>2022-09-05T08:36:57.000Z</time>
      </trkpt>
      <trkpt lat="49.88164" lon="4.75447">
        <ele>165</ele>
        <time>2022-09-05T08:36:58.000Z</time>
      </trkpt>
      <trkpt lat="49.88163" lon="4.75453">
        <ele>165</ele>
        <time>2022-09-05T08:36:59.000Z</time>
      </trkpt>
      <trkpt lat="49.88163" lon="4.75458">
        <ele>166</ele>
        <time>2022-09-05T08:37:00.000Z</time>
      </trkpt>
      <trkpt lat="49.88162" lon="4.75464">
        <ele>166</ele>
        <time>2022-09-05T08:37:01.000Z</time>
      </trkpt>
      <trkpt lat="49.88162" lon="4.75469">
        <ele>166</ele>
        <time>2022-09-05T08:37:02.000Z</time>
      </trkpt>
      <trkpt lat="49.88162" lon="4.75474">
        <ele>166</ele>
        <time>2022-09-05T08:37:03.000Z</time>
      </trkpt>
      <trkpt lat="49.88162" lon="4.7548">
        <ele>166</ele>
        <time>2022-09-05T08:37:04.000Z</time>
      </trkpt>
      <trkpt lat="49.88161" lon="4.75485">
        <ele>166</ele>
        <time>2022-09-05T08:37:05.000Z</time>
      </trkpt>
      <trkpt lat="49.8816" lon="4.7549">
        <ele>166</ele>
        <time>2022-09-05T08:37:06.000Z</time>
      </trkpt>
      <trkpt lat="49.88159" lon="4.75494">
        <ele>166</ele>
        <time>2022-09-05T08:37:07.000Z</time>
      </trkpt>
      <trkpt lat="49.88159" lon="4.755">
        <ele>166</ele>
        <time>2022-09-05T08:37:08.000Z</time>
      </trkpt>
      <trkpt lat="49.88159" lon="4.75506">
        <ele>166</ele>
        <time>2022-09-05T08:37:09.000Z</time>
      </trkpt>
      <trkpt lat="49.88158" lon="4.75512">
        <ele>166</ele>
        <time>2022-09-05T08:37:10.000Z</time>
      </trkpt>
      <trkpt lat="49.88158" lon="4.75519">
        <ele>166</ele>
        <time>2022-09-05T08:37:11.000Z</time>
      </trkpt>
      <trkpt lat="49.88158" lon="4.75526">
        <ele>166</ele>
        <time>2022-09-05T08:37:12.000Z</time>
      </trkpt>
      <trkpt lat="49.88157" lon="4.75532">
        <ele>166</ele>
        <time>2022-09-05T08:37:13.000Z</time>
      </trkpt>
      <trkpt lat="49.88157" lon="4.75539">
        <ele>167</ele>
        <time>2022-09-05T08:37:14.000Z</time>
      </trkpt>
      <trkpt lat="49.88156" lon="4.75545">
        <ele>167</ele>
        <time>2022-09-05T08:37:15.000Z</time>
      </trkpt>
      <trkpt lat="49.88155" lon="4.75551">
        <ele>167</ele>
        <time>2022-09-05T08:37:16.000Z</time>
      </trkpt>
      <trkpt lat="49.88155" lon="4.75558">
        <ele>167</ele>
        <time>2022-09-05T08:37:17.000Z</time>
      </trkpt>
      <trkpt lat="49.88154" lon="4.75565">
        <ele>167</ele>
        <time>2022-09-05T08:37:18.000Z</time>
      </trkpt>
      <trkpt lat="49.88154" lon="4.75572">
        <ele>167</ele>
        <time>2022-09-05T08:37:19.000Z</time>
      </trkpt>
      <trkpt lat="49.88154" lon="4.7558">
        <ele>167</ele>
        <time>2022-09-05T08:37:20.000Z</time>
      </trkpt>
      <trkpt lat="49.88154" lon="4.75589">
        <ele>167</ele>
        <time>2022-09-05T08:37:21.000Z</time>
      </trkpt>
      <trkpt lat="49.88154" lon="4.75598">
        <ele>167</ele>
        <time>2022-09-05T08:37:22.000Z</time>
      </trkpt>
      <trkpt lat="49.88154" lon="4.75606">
        <ele>167</ele>
        <time>2022-09-05T08:37:23.000Z</time>
      </trkpt>
      <trkpt lat="49.88154" lon="4.75615">
        <ele>167</ele>
        <time>2022-09-05T08:37:24.000Z</time>
      </trkpt>
      <trkpt lat="49.88154" lon="4.75623">
        <ele>167</ele>
        <time>2022-09-05T08:37:25.000Z</time>
      </trkpt>
      <trkpt lat="49.88153" lon="4.75631">
        <ele>167</ele>
        <time>2022-09-05T08:37:26.000Z</time>
      </trkpt>
      <trkpt lat="49.88153" lon="4.75639">
        <ele>167</ele>
        <time>2022-09-05T08:37:27.000Z</time>
      </trkpt>
      <trkpt lat="49.88152" lon="4.75646">
        <ele>167</ele>
        <time>2022-09-05T08:37:28.000Z</time>
      </trkpt>
      <trkpt lat="49.88151" lon="4.75654">
        <ele>167</ele>
        <time>2022-09-05T08:37:29.000Z</time>
      </trkpt>
      <trkpt lat="49.88151" lon="4.75662">
        <ele>167</ele>
        <time>2022-09-05T08:37:30.000Z</time>
      </trkpt>
      <trkpt lat="49.8815" lon="4.75669">
        <ele>167</ele>
        <time>2022-09-05T08:37:31.000Z</time>
      </trkpt>
      <trkpt lat="49.8815" lon="4.75677">
        <ele>167</ele>
        <time>2022-09-05T08:37:32.000Z</time>
      </trkpt>
      <trkpt lat="49.8815" lon="4.75685">
        <ele>167</ele>
        <time>2022-09-05T08:37:33.000Z</time>
      </trkpt>
      <trkpt lat="49.88149" lon="4.75692">
        <ele>167</ele>
        <time>2022-09-05T08:37:34.000Z</time>
      </trkpt>
      <trkpt lat="49.88149" lon="4.757">
        <ele>167</ele>
        <time>2022-09-05T08:37:35.000Z</time>
      </trkpt>
      <trkpt lat="49.88149" lon="4.75707">
        <ele>168</ele>
        <time>2022-09-05T08:37:36.000Z</time>
      </trkpt>
      <trkpt lat="49.88149" lon="4.75715">
        <ele>168</ele>
        <time>2022-09-05T08:37:37.000Z</time>
      </trkpt>
      <trkpt lat="49.88149" lon="4.75722">
        <ele>168</ele>
        <time>2022-09-05T08:37:38.000Z</time>
      </trkpt>
      <trkpt lat="49.88149" lon="4.75729">
        <ele>168</ele>
        <time>2022-09-05T08:37:39.000Z</time>
      </trkpt>
      <trkpt lat="49.8815" lon="4.75736">
        <ele>168</ele>
        <time>2022-09-05T08:37:40.000Z</time>
      </trkpt>
      <trkpt lat="49.88151" lon="4.75744">
        <ele>168</ele>
        <time>2022-09-05T08:37:41.000Z</time>
      </trkpt>
      <trkpt lat="49.88151" lon="4.75753">
        <ele>168</ele>
        <time>2022-09-05T08:37:42.000Z</time>
      </trkpt>
      <trkpt lat="49.88151" lon="4.75761">
        <ele>168</ele>
        <time>2022-09-05T08:37:43.000Z</time>
      </trkpt>
      <trkpt lat="49.88151" lon="4.75769">
        <ele>168</ele>
        <time>2022-09-05T08:37:44.000Z</time>
      </trkpt>
      <trkpt lat="49.88151" lon="4.75778">
        <ele>168</ele>
        <time>2022-09-05T08:37:45.000Z</time>
      </trkpt>
      <trkpt lat="49.88152" lon="4.75786">
        <ele>169</ele>
        <time>2022-09-05T08:37:46.000Z</time>
      </trkpt>
      <trkpt lat="49.88152" lon="4.75794">
        <ele>169</ele>
        <time>2022-09-05T08:37:47.000Z</time>
      </trkpt>
      <trkpt lat="49.88153" lon="4.75801">
        <ele>169</ele>
        <time>2022-09-05T08:37:48.000Z</time>
      </trkpt>
      <trkpt lat="49.88154" lon="4.7581">
        <ele>169</ele>
        <time>2022-09-05T08:37:49.000Z</time>
      </trkpt>
      <trkpt lat="49.88155" lon="4.75818">
        <ele>169</ele>
        <time>2022-09-05T08:37:50.000Z</time>
      </trkpt>
      <trkpt lat="49.88155" lon="4.75827">
        <ele>169</ele>
        <time>2022-09-05T08:37:51.000Z</time>
      </trkpt>
      <trkpt lat="49.88157" lon="4.75835">
        <ele>169</ele>
        <time>2022-09-05T08:37:52.000Z</time>
      </trkpt>
      <trkpt lat="49.88157" lon="4.75843">
        <ele>169</ele>
        <time>2022-09-05T08:37:53.000Z</time>
      </trkpt>
      <trkpt lat="49.88158" lon="4.75852">
        <ele>169</ele>
        <time>2022-09-05T08:37:54.000Z</time>
      </trkpt>
      <trkpt lat="49.88158" lon="4.7586">
        <ele>169</ele>
        <time>2022-09-05T08:37:55.000Z</time>
      </trkpt>
      <trkpt lat="49.88159" lon="4.75868">
        <ele>169</ele>
        <time>2022-09-05T08:37:56.000Z</time>
      </trkpt>
      <trkpt lat="49.88159" lon="4.75877">
        <ele>169</ele>
        <time>2022-09-05T08:37:57.000Z</time>
      </trkpt>
      <trkpt lat="49.88159" lon="4.75885">
        <ele>169</ele>
        <time>2022-09-05T08:37:58.000Z</time>
      </trkpt>
      <trkpt lat="49.88159" lon="4.75893">
        <ele>169</ele>
        <time>2022-09-05T08:37:59.000Z</time>
      </trkpt>
      <trkpt lat="49.88158" lon="4.75901">
        <ele>169</ele>
        <time>2022-09-05T08:38:00.000Z</time>
      </trkpt>
      <trkpt lat="49.88158" lon="4.75908">
        <ele>169</ele>
        <time>2022-09-05T08:38:01.000Z</time>
      </trkpt>
      <trkpt lat="49.88158" lon="4.75916">
        <ele>169</ele>
        <time>2022-09-05T08:38:02.000Z</time>
      </trkpt>
      <trkpt lat="49.88157" lon="4.75923">
        <ele>169</ele>
        <time>2022-09-05T08:38:03.000Z</time>
      </trkpt>
      <trkpt lat="49.88157" lon="4.75932">
        <ele>169</ele>
        <time>2022-09-05T08:38:04.000Z</time>
      </trkpt>
      <trkpt lat="49.88156" lon="4.7594">
        <ele>169</ele>
        <time>2022-09-05T08:38:05.000Z</time>
      </trkpt>
      <trkpt lat="49.88156" lon="4.75948">
        <ele>169</ele>
        <time>2022-09-05T08:38:06.000Z</time>
      </trkpt>
      <trkpt lat="49.88155" lon="4.75956">
        <ele>169</ele>
        <time>2022-09-05T08:38:07.000Z</time>
      </trkpt>
      <trkpt lat="49.88154" lon="4.75965">
        <ele>169</ele>
        <time>2022-09-05T08:38:08.000Z</time>
      </trkpt>
      <trkpt lat="49.88153" lon="4.75973">
        <ele>169</ele>
        <time>2022-09-05T08:38:09.000Z</time>
      </trkpt>
      <trkpt lat="49.88152" lon="4.75981">
        <ele>168</ele>
        <time>2022-09-05T08:38:10.000Z</time>
      </trkpt>
      <trkpt lat="49.88152" lon="4.75989">
        <ele>168</ele>
        <time>2022-09-05T08:38:11.000Z</time>
      </trkpt>
      <trkpt lat="49.88151" lon="4.75997">
        <ele>168</ele>
        <time>2022-09-05T08:38:12.000Z</time>
      </trkpt>
      <trkpt lat="49.88151" lon="4.76005">
        <ele>168</ele>
        <time>2022-09-05T08:38:13.000Z</time>
      </trkpt>
      <trkpt lat="49.8815" lon="4.76013">
        <ele>168</ele>
        <time>2022-09-05T08:38:14.000Z</time>
      </trkpt>
      <trkpt lat="49.88149" lon="4.76021">
        <ele>167</ele>
        <time>2022-09-05T08:38:15.000Z</time>
      </trkpt>
      <trkpt lat="49.88149" lon="4.76029">
        <ele>167</ele>
        <time>2022-09-05T08:38:16.000Z</time>
      </trkpt>
      <trkpt lat="49.88148" lon="4.76037">
        <ele>167</ele>
        <time>2022-09-05T08:38:17.000Z</time>
      </trkpt>
      <trkpt lat="49.88148" lon="4.76045">
        <ele>167</ele>
        <time>2022-09-05T08:38:18.000Z</time>
      </trkpt>
      <trkpt lat="49.88147" lon="4.76054">
        <ele>167</ele>
        <time>2022-09-05T08:38:19.000Z</time>
      </trkpt>
      <trkpt lat="49.88147" lon="4.76062">
        <ele>166</ele>
        <time>2022-09-05T08:38:20.000Z</time>
      </trkpt>
      <trkpt lat="49.88146" lon="4.76071">
        <ele>166</ele>
        <time>2022-09-05T08:38:21.000Z</time>
      </trkpt>
      <trkpt lat="49.88146" lon="4.7608">
        <ele>166</ele>
        <time>2022-09-05T08:38:22.000Z</time>
      </trkpt>
      <trkpt lat="49.88145" lon="4.76088">
        <ele>166</ele>
        <time>2022-09-05T08:38:23.000Z</time>
      </trkpt>
      <trkpt lat="49.88143" lon="4.76097">
        <ele>166</ele>
        <time>2022-09-05T08:38:24.000Z</time>
      </trkpt>
      <trkpt lat="49.88143" lon="4.76105">
        <ele>166</ele>
        <time>2022-09-05T08:38:25.000Z</time>
      </trkpt>
      <trkpt lat="49.88142" lon="4.76113">
        <ele>166</ele>
        <time>2022-09-05T08:38:26.000Z</time>
      </trkpt>
      <trkpt lat="49.88141" lon="4.76121">
        <ele>166</ele>
        <time>2022-09-05T08:38:27.000Z</time>
      </trkpt>
      <trkpt lat="49.88139" lon="4.76128">
        <ele>166</ele>
        <time>2022-09-05T08:38:28.000Z</time>
      </trkpt>
      <trkpt lat="49.88138" lon="4.76136">
        <ele>166</ele>
        <time>2022-09-05T08:38:29.000Z</time>
      </trkpt>
      <trkpt lat="49.88137" lon="4.76143">
        <ele>165</ele>
        <time>2022-09-05T08:38:30.000Z</time>
      </trkpt>
      <trkpt lat="49.88136" lon="4.76151">
        <ele>165</ele>
        <time>2022-09-05T08:38:31.000Z</time>
      </trkpt>
      <trkpt lat="49.88135" lon="4.76158">
        <ele>165</ele>
        <time>2022-09-05T08:38:32.000Z</time>
      </trkpt>
      <trkpt lat="49.88134" lon="4.76166">
        <ele>165</ele>
        <time>2022-09-05T08:38:33.000Z</time>
      </trkpt>
      <trkpt lat="49.88134" lon="4.76174">
        <ele>165</ele>
        <time>2022-09-05T08:38:34.000Z</time>
      </trkpt>
      <trkpt lat="49.88133" lon="4.76181">
        <ele>165</ele>
        <time>2022-09-05T08:38:35.000Z</time>
      </trkpt>
      <trkpt lat="49.88132" lon="4.76189">
        <ele>165</ele>
        <time>2022-09-05T08:38:36.000Z</time>
      </trkpt>
      <trkpt lat="49.88132" lon="4.76197">
        <ele>165</ele>
        <time>2022-09-05T08:38:37.000Z</time>
      </trkpt>
      <trkpt lat="49.88131" lon="4.76205">
        <ele>165</ele>
        <time>2022-09-05T08:38:38.000Z</time>
      </trkpt>
      <trkpt lat="49.88131" lon="4.76213">
        <ele>165</ele>
        <time>2022-09-05T08:38:39.000Z</time>
      </trkpt>
      <trkpt lat="49.88131" lon="4.76221">
        <ele>165</ele>
        <time>2022-09-05T08:38:40.000Z</time>
      </trkpt>
      <trkpt lat="49.8813" lon="4.76228">
        <ele>165</ele>
        <time>2022-09-05T08:38:41.000Z</time>
      </trkpt>
      <trkpt lat="49.8813" lon="4.76235">
        <ele>165</ele>
        <time>2022-09-05T08:38:42.000Z</time>
      </trkpt>
      <trkpt lat="49.88129" lon="4.76242">
        <ele>166</ele>
        <time>2022-09-05T08:38:43.000Z</time>
      </trkpt>
      <trkpt lat="49.88129" lon="4.7625">
        <ele>166</ele>
        <time>2022-09-05T08:38:44.000Z</time>
      </trkpt>
      <trkpt lat="49.88129" lon="4.76258">
        <ele>166</ele>
        <time>2022-09-05T08:38:45.000Z</time>
      </trkpt>
      <trkpt lat="49.88129" lon="4.76267">
        <ele>166</ele>
        <time>2022-09-05T08:38:46.000Z</time>
      </trkpt>
      <trkpt lat="49.88128" lon="4.76274">
        <ele>166</ele>
        <time>2022-09-05T08:38:47.000Z</time>
      </trkpt>
      <trkpt lat="49.88127" lon="4.76282">
        <ele>166</ele>
        <time>2022-09-05T08:38:48.000Z</time>
      </trkpt>
      <trkpt lat="49.88127" lon="4.76289">
        <ele>166</ele>
        <time>2022-09-05T08:38:49.000Z</time>
      </trkpt>
      <trkpt lat="49.88127" lon="4.76297">
        <ele>166</ele>
        <time>2022-09-05T08:38:50.000Z</time>
      </trkpt>
      <trkpt lat="49.88127" lon="4.76305">
        <ele>166</ele>
        <time>2022-09-05T08:38:51.000Z</time>
      </trkpt>
      <trkpt lat="49.88127" lon="4.76313">
        <ele>166</ele>
        <time>2022-09-05T08:38:52.000Z</time>
      </trkpt>
      <trkpt lat="49.88126" lon="4.7632">
        <ele>166</ele>
        <time>2022-09-05T08:38:53.000Z</time>
      </trkpt>
      <trkpt lat="49.88127" lon="4.76329">
        <ele>166</ele>
        <time>2022-09-05T08:38:54.000Z</time>
      </trkpt>
      <trkpt lat="49.88128" lon="4.76337">
        <ele>166</ele>
        <time>2022-09-05T08:38:55.000Z</time>
      </trkpt>
      <trkpt lat="49.88129" lon="4.76345">
        <ele>167</ele>
        <time>2022-09-05T08:38:56.000Z</time>
      </trkpt>
      <trkpt lat="49.8813" lon="4.76353">
        <ele>167</ele>
        <time>2022-09-05T08:38:57.000Z</time>
      </trkpt>
      <trkpt lat="49.88131" lon="4.76361">
        <ele>167</ele>
        <time>2022-09-05T08:38:58.000Z</time>
      </trkpt>
      <trkpt lat="49.88132" lon="4.76368">
        <ele>167</ele>
        <time>2022-09-05T08:38:59.000Z</time>
      </trkpt>
      <trkpt lat="49.88133" lon="4.76375">
        <ele>167</ele>
        <time>2022-09-05T08:39:00.000Z</time>
      </trkpt>
      <trkpt lat="49.88133" lon="4.76383">
        <ele>167</ele>
        <time>2022-09-05T08:39:01.000Z</time>
      </trkpt>
      <trkpt lat="49.88134" lon="4.7639">
        <ele>167</ele>
        <time>2022-09-05T08:39:02.000Z</time>
      </trkpt>
      <trkpt lat="49.88134" lon="4.76398">
        <ele>167</ele>
        <time>2022-09-05T08:39:03.000Z</time>
      </trkpt>
      <trkpt lat="49.88135" lon="4.76406">
        <ele>167</ele>
        <time>2022-09-05T08:39:04.000Z</time>
      </trkpt>
      <trkpt lat="49.88136" lon="4.76414">
        <ele>167</ele>
        <time>2022-09-05T08:39:05.000Z</time>
      </trkpt>
      <trkpt lat="49.88137" lon="4.76422">
        <ele>167</ele>
        <time>2022-09-05T08:39:06.000Z</time>
      </trkpt>
      <trkpt lat="49.88137" lon="4.7643">
        <ele>167</ele>
        <time>2022-09-05T08:39:07.000Z</time>
      </trkpt>
      <trkpt lat="49.88137" lon="4.76438">
        <ele>168</ele>
        <time>2022-09-05T08:39:08.000Z</time>
      </trkpt>
      <trkpt lat="49.88137" lon="4.76446">
        <ele>168</ele>
        <time>2022-09-05T08:39:09.000Z</time>
      </trkpt>
      <trkpt lat="49.88137" lon="4.76454">
        <ele>168</ele>
        <time>2022-09-05T08:39:10.000Z</time>
      </trkpt>
      <trkpt lat="49.88137" lon="4.76462">
        <ele>168</ele>
        <time>2022-09-05T08:39:11.000Z</time>
      </trkpt>
      <trkpt lat="49.88137" lon="4.7647">
        <ele>168</ele>
        <time>2022-09-05T08:39:12.000Z</time>
      </trkpt>
      <trkpt lat="49.88135" lon="4.76477">
        <ele>169</ele>
        <time>2022-09-05T08:39:13.000Z</time>
      </trkpt>
      <trkpt lat="49.88134" lon="4.76484">
        <ele>169</ele>
        <time>2022-09-05T08:39:14.000Z</time>
      </trkpt>
      <trkpt lat="49.88132" lon="4.76492">
        <ele>169</ele>
        <time>2022-09-05T08:39:15.000Z</time>
      </trkpt>
      <trkpt lat="49.88131" lon="4.76499">
        <ele>169</ele>
        <time>2022-09-05T08:39:16.000Z</time>
      </trkpt>
      <trkpt lat="49.8813" lon="4.76505">
        <ele>169</ele>
        <time>2022-09-05T08:39:17.000Z</time>
      </trkpt>
      <trkpt lat="49.88129" lon="4.76511">
        <ele>170</ele>
        <time>2022-09-05T08:39:18.000Z</time>
      </trkpt>
      <trkpt lat="49.88129" lon="4.76517">
        <ele>170</ele>
        <time>2022-09-05T08:39:19.000Z</time>
      </trkpt>
      <trkpt lat="49.88128" lon="4.76524">
        <ele>170</ele>
        <time>2022-09-05T08:39:20.000Z</time>
      </trkpt>
      <trkpt lat="49.88127" lon="4.76532">
        <ele>170</ele>
        <time>2022-09-05T08:39:21.000Z</time>
      </trkpt>
      <trkpt lat="49.88127" lon="4.7654">
        <ele>170</ele>
        <time>2022-09-05T08:39:22.000Z</time>
      </trkpt>
      <trkpt lat="49.88127" lon="4.76547">
        <ele>171</ele>
        <time>2022-09-05T08:39:23.000Z</time>
      </trkpt>
      <trkpt lat="49.88126" lon="4.76555">
        <ele>171</ele>
        <time>2022-09-05T08:39:24.000Z</time>
      </trkpt>
      <trkpt lat="49.88125" lon="4.76563">
        <ele>171</ele>
        <time>2022-09-05T08:39:25.000Z</time>
      </trkpt>
      <trkpt lat="49.88125" lon="4.76571">
        <ele>171</ele>
        <time>2022-09-05T08:39:26.000Z</time>
      </trkpt>
      <trkpt lat="49.88125" lon="4.76578">
        <ele>171</ele>
        <time>2022-09-05T08:39:27.000Z</time>
      </trkpt>
      <trkpt lat="49.88124" lon="4.76586">
        <ele>172</ele>
        <time>2022-09-05T08:39:28.000Z</time>
      </trkpt>
      <trkpt lat="49.88122" lon="4.76594">
        <ele>172</ele>
        <time>2022-09-05T08:39:29.000Z</time>
      </trkpt>
      <trkpt lat="49.88121" lon="4.76602">
        <ele>172</ele>
        <time>2022-09-05T08:39:30.000Z</time>
      </trkpt>
      <trkpt lat="49.88121" lon="4.76611">
        <ele>172</ele>
        <time>2022-09-05T08:39:31.000Z</time>
      </trkpt>
      <trkpt lat="49.8812" lon="4.76619">
        <ele>172</ele>
        <time>2022-09-05T08:39:32.000Z</time>
      </trkpt>
      <trkpt lat="49.88119" lon="4.76628">
        <ele>173</ele>
        <time>2022-09-05T08:39:33.000Z</time>
      </trkpt>
      <trkpt lat="49.88119" lon="4.76637">
        <ele>173</ele>
        <time>2022-09-05T08:39:34.000Z</time>
      </trkpt>
      <trkpt lat="49.8812" lon="4.76645">
        <ele>173</ele>
        <time>2022-09-05T08:39:35.000Z</time>
      </trkpt>
      <trkpt lat="49.8812" lon="4.76654">
        <ele>174</ele>
        <time>2022-09-05T08:39:36.000Z</time>
      </trkpt>
      <trkpt lat="49.88121" lon="4.76662">
        <ele>174</ele>
        <time>2022-09-05T08:39:37.000Z</time>
      </trkpt>
      <trkpt lat="49.88121" lon="4.7667">
        <ele>174</ele>
        <time>2022-09-05T08:39:38.000Z</time>
      </trkpt>
      <trkpt lat="49.88121" lon="4.76677">
        <ele>174</ele>
        <time>2022-09-05T08:39:39.000Z</time>
      </trkpt>
      <trkpt lat="49.88122" lon="4.76683">
        <ele>175</ele>
        <time>2022-09-05T08:39:40.000Z</time>
      </trkpt>
      <trkpt lat="49.88123" lon="4.7669">
        <ele>175</ele>
        <time>2022-09-05T08:39:41.000Z</time>
      </trkpt>
      <trkpt lat="49.88124" lon="4.76697">
        <ele>175</ele>
        <time>2022-09-05T08:39:42.000Z</time>
      </trkpt>
      <trkpt lat="49.88125" lon="4.76705">
        <ele>175</ele>
        <time>2022-09-05T08:39:43.000Z</time>
      </trkpt>
      <trkpt lat="49.88127" lon="4.76712">
        <ele>175</ele>
        <time>2022-09-05T08:39:44.000Z</time>
      </trkpt>
      <trkpt lat="49.88129" lon="4.7672">
        <ele>175</ele>
        <time>2022-09-05T08:39:45.000Z</time>
      </trkpt>
      <trkpt lat="49.88131" lon="4.76728">
        <ele>175</ele>
        <time>2022-09-05T08:39:46.000Z</time>
      </trkpt>
      <trkpt lat="49.88132" lon="4.76736">
        <ele>175</ele>
        <time>2022-09-05T08:39:47.000Z</time>
      </trkpt>
      <trkpt lat="49.88134" lon="4.76744">
        <ele>175</ele>
        <time>2022-09-05T08:39:48.000Z</time>
      </trkpt>
      <trkpt lat="49.88134" lon="4.76752">
        <ele>175</ele>
        <time>2022-09-05T08:39:49.000Z</time>
      </trkpt>
      <trkpt lat="49.88136" lon="4.76759">
        <ele>175</ele>
        <time>2022-09-05T08:39:50.000Z</time>
      </trkpt>
      <trkpt lat="49.88138" lon="4.76767">
        <ele>175</ele>
        <time>2022-09-05T08:39:51.000Z</time>
      </trkpt>
      <trkpt lat="49.8814" lon="4.76776">
        <ele>175</ele>
        <time>2022-09-05T08:39:52.000Z</time>
      </trkpt>
      <trkpt lat="49.88141" lon="4.76785">
        <ele>175</ele>
        <time>2022-09-05T08:39:53.000Z</time>
      </trkpt>
      <trkpt lat="49.88142" lon="4.76793">
        <ele>175</ele>
        <time>2022-09-05T08:39:54.000Z</time>
      </trkpt>
      <trkpt lat="49.88143" lon="4.76802">
        <ele>175</ele>
        <time>2022-09-05T08:39:55.000Z</time>
      </trkpt>
      <trkpt lat="49.88144" lon="4.76811">
        <ele>175</ele>
        <time>2022-09-05T08:39:56.000Z</time>
      </trkpt>
      <trkpt lat="49.88145" lon="4.7682">
        <ele>175</ele>
        <time>2022-09-05T08:39:57.000Z</time>
      </trkpt>
      <trkpt lat="49.88146" lon="4.76829">
        <ele>176</ele>
        <time>2022-09-05T08:39:58.000Z</time>
      </trkpt>
      <trkpt lat="49.88147" lon="4.76838">
        <ele>176</ele>
        <time>2022-09-05T08:39:59.000Z</time>
      </trkpt>
      <trkpt lat="49.88148" lon="4.76846">
        <ele>176</ele>
        <time>2022-09-05T08:40:00.000Z</time>
      </trkpt>
      <trkpt lat="49.88149" lon="4.76855">
        <ele>176</ele>
        <time>2022-09-05T08:40:01.000Z</time>
      </trkpt>
      <trkpt lat="49.88151" lon="4.76863">
        <ele>176</ele>
        <time>2022-09-05T08:40:02.000Z</time>
      </trkpt>
      <trkpt lat="49.88152" lon="4.76871">
        <ele>176</ele>
        <time>2022-09-05T08:40:03.000Z</time>
      </trkpt>
      <trkpt lat="49.88153" lon="4.76878">
        <ele>176</ele>
        <time>2022-09-05T08:40:04.000Z</time>
      </trkpt>
      <trkpt lat="49.88153" lon="4.76885">
        <ele>176</ele>
        <time>2022-09-05T08:40:05.000Z</time>
      </trkpt>
      <trkpt lat="49.88154" lon="4.76892">
        <ele>176</ele>
        <time>2022-09-05T08:40:06.000Z</time>
      </trkpt>
      <trkpt lat="49.88155" lon="4.76899">
        <ele>176</ele>
        <time>2022-09-05T08:40:07.000Z</time>
      </trkpt>
      <trkpt lat="49.88156" lon="4.76906">
        <ele>176</ele>
        <time>2022-09-05T08:40:08.000Z</time>
      </trkpt>
      <trkpt lat="49.88157" lon="4.76914">
        <ele>175</ele>
        <time>2022-09-05T08:40:09.000Z</time>
      </trkpt>
      <trkpt lat="49.88158" lon="4.76921">
        <ele>175</ele>
        <time>2022-09-05T08:40:10.000Z</time>
      </trkpt>
      <trkpt lat="49.88159" lon="4.76929">
        <ele>175</ele>
        <time>2022-09-05T08:40:11.000Z</time>
      </trkpt>
      <trkpt lat="49.88161" lon="4.76936">
        <ele>175</ele>
        <time>2022-09-05T08:40:12.000Z</time>
      </trkpt>
      <trkpt lat="49.88161" lon="4.76944">
        <ele>175</ele>
        <time>2022-09-05T08:40:13.000Z</time>
      </trkpt>
      <trkpt lat="49.88161" lon="4.76952">
        <ele>174</ele>
        <time>2022-09-05T08:40:14.000Z</time>
      </trkpt>
      <trkpt lat="49.88161" lon="4.7696">
        <ele>174</ele>
        <time>2022-09-05T08:40:15.000Z</time>
      </trkpt>
      <trkpt lat="49.88162" lon="4.76968">
        <ele>174</ele>
        <time>2022-09-05T08:40:16.000Z</time>
      </trkpt>
      <trkpt lat="49.88162" lon="4.76976">
        <ele>174</ele>
        <time>2022-09-05T08:40:17.000Z</time>
      </trkpt>
      <trkpt lat="49.88163" lon="4.76984">
        <ele>174</ele>
        <time>2022-09-05T08:40:18.000Z</time>
      </trkpt>
      <trkpt lat="49.88164" lon="4.76991">
        <ele>174</ele>
        <time>2022-09-05T08:40:19.000Z</time>
      </trkpt>
      <trkpt lat="49.88165" lon="4.76999">
        <ele>174</ele>
        <time>2022-09-05T08:40:20.000Z</time>
      </trkpt>
      <trkpt lat="49.88166" lon="4.77007">
        <ele>174</ele>
        <time>2022-09-05T08:40:21.000Z</time>
      </trkpt>
      <trkpt lat="49.88167" lon="4.77014">
        <ele>174</ele>
        <time>2022-09-05T08:40:22.000Z</time>
      </trkpt>
      <trkpt lat="49.88168" lon="4.77021">
        <ele>174</ele>
        <time>2022-09-05T08:40:23.000Z</time>
      </trkpt>
      <trkpt lat="49.88169" lon="4.77029">
        <ele>174</ele>
        <time>2022-09-05T08:40:24.000Z</time>
      </trkpt>
      <trkpt lat="49.88171" lon="4.77036">
        <ele>174</ele>
        <time>2022-09-05T08:40:25.000Z</time>
      </trkpt>
      <trkpt lat="49.88172" lon="4.77044">
        <ele>174</ele>
        <time>2022-09-05T08:40:26.000Z</time>
      </trkpt>
      <trkpt lat="49.88173" lon="4.77052">
        <ele>174</ele>
        <time>2022-09-05T08:40:27.000Z</time>
      </trkpt>
      <trkpt lat="49.88174" lon="4.7706">
        <ele>174</ele>
        <time>2022-09-05T08:40:28.000Z</time>
      </trkpt>
      <trkpt lat="49.88176" lon="4.77068">
        <ele>174</ele>
        <time>2022-09-05T08:40:29.000Z</time>
      </trkpt>
      <trkpt lat="49.88177" lon="4.77077">
        <ele>174</ele>
        <time>2022-09-05T08:40:30.000Z</time>
      </trkpt>
      <trkpt lat="49.88178" lon="4.77085">
        <ele>174</ele>
        <time>2022-09-05T08:40:31.000Z</time>
      </trkpt>
      <trkpt lat="49.88179" lon="4.77092">
        <ele>173</ele>
        <time>2022-09-05T08:40:32.000Z</time>
      </trkpt>
      <trkpt lat="49.8818" lon="4.771">
        <ele>173</ele>
        <time>2022-09-05T08:40:33.000Z</time>
      </trkpt>
      <trkpt lat="49.8818" lon="4.77107">
        <ele>173</ele>
        <time>2022-09-05T08:40:34.000Z</time>
      </trkpt>
      <trkpt lat="49.8818" lon="4.77113">
        <ele>173</ele>
        <time>2022-09-05T08:40:35.000Z</time>
      </trkpt>
      <trkpt lat="49.88181" lon="4.7712">
        <ele>173</ele>
        <time>2022-09-05T08:40:36.000Z</time>
      </trkpt>
      <trkpt lat="49.88182" lon="4.77127">
        <ele>173</ele>
        <time>2022-09-05T08:40:37.000Z</time>
      </trkpt>
      <trkpt lat="49.88183" lon="4.77134">
        <ele>172</ele>
        <time>2022-09-05T08:40:38.000Z</time>
      </trkpt>
      <trkpt lat="49.88183" lon="4.77141">
        <ele>172</ele>
        <time>2022-09-05T08:40:39.000Z</time>
      </trkpt>
      <trkpt lat="49.88184" lon="4.77148">
        <ele>172</ele>
        <time>2022-09-05T08:40:40.000Z</time>
      </trkpt>
      <trkpt lat="49.88186" lon="4.77155">
        <ele>172</ele>
        <time>2022-09-05T08:40:41.000Z</time>
      </trkpt>
      <trkpt lat="49.88187" lon="4.77163">
        <ele>172</ele>
        <time>2022-09-05T08:40:42.000Z</time>
      </trkpt>
      <trkpt lat="49.88189" lon="4.7717">
        <ele>172</ele>
        <time>2022-09-05T08:40:43.000Z</time>
      </trkpt>
      <trkpt lat="49.88191" lon="4.77178">
        <ele>172</ele>
        <time>2022-09-05T08:40:44.000Z</time>
      </trkpt>
      <trkpt lat="49.88192" lon="4.77185">
        <ele>172</ele>
        <time>2022-09-05T08:40:45.000Z</time>
      </trkpt>
      <trkpt lat="49.88194" lon="4.77193">
        <ele>172</ele>
        <time>2022-09-05T08:40:46.000Z</time>
      </trkpt>
      <trkpt lat="49.88195" lon="4.77201">
        <ele>172</ele>
        <time>2022-09-05T08:40:47.000Z</time>
      </trkpt>
      <trkpt lat="49.88197" lon="4.77208">
        <ele>172</ele>
        <time>2022-09-05T08:40:48.000Z</time>
      </trkpt>
      <trkpt lat="49.88198" lon="4.77216">
        <ele>172</ele>
        <time>2022-09-05T08:40:49.000Z</time>
      </trkpt>
      <trkpt lat="49.88199" lon="4.77223">
        <ele>172</ele>
        <time>2022-09-05T08:40:50.000Z</time>
      </trkpt>
      <trkpt lat="49.88201" lon="4.77231">
        <ele>172</ele>
        <time>2022-09-05T08:40:51.000Z</time>
      </trkpt>
      <trkpt lat="49.88202" lon="4.77238">
        <ele>172</ele>
        <time>2022-09-05T08:40:52.000Z</time>
      </trkpt>
      <trkpt lat="49.88204" lon="4.77245">
        <ele>172</ele>
        <time>2022-09-05T08:40:53.000Z</time>
      </trkpt>
      <trkpt lat="49.88205" lon="4.77252">
        <ele>172</ele>
        <time>2022-09-05T08:40:54.000Z</time>
      </trkpt>
      <trkpt lat="49.88207" lon="4.77259">
        <ele>172</ele>
        <time>2022-09-05T08:40:55.000Z</time>
      </trkpt>
      <trkpt lat="49.88208" lon="4.77265">
        <ele>171</ele>
        <time>2022-09-05T08:40:56.000Z</time>
      </trkpt>
      <trkpt lat="49.8821" lon="4.77271">
        <ele>171</ele>
        <time>2022-09-05T08:40:57.000Z</time>
      </trkpt>
      <trkpt lat="49.88211" lon="4.77278">
        <ele>171</ele>
        <time>2022-09-05T08:40:58.000Z</time>
      </trkpt>
      <trkpt lat="49.88213" lon="4.77284">
        <ele>171</ele>
        <time>2022-09-05T08:40:59.000Z</time>
      </trkpt>
      <trkpt lat="49.88214" lon="4.7729">
        <ele>171</ele>
        <time>2022-09-05T08:41:00.000Z</time>
      </trkpt>
      <trkpt lat="49.88215" lon="4.77296">
        <ele>171</ele>
        <time>2022-09-05T08:41:01.000Z</time>
      </trkpt>
      <trkpt lat="49.88216" lon="4.77301">
        <ele>171</ele>
        <time>2022-09-05T08:41:02.000Z</time>
      </trkpt>
      <trkpt lat="49.88217" lon="4.77307">
        <ele>171</ele>
        <time>2022-09-05T08:41:03.000Z</time>
      </trkpt>
      <trkpt lat="49.88216" lon="4.77312">
        <ele>171</ele>
        <time>2022-09-05T08:41:04.000Z</time>
      </trkpt>
      <trkpt lat="49.88216" lon="4.77318">
        <ele>171</ele>
        <time>2022-09-05T08:41:05.000Z</time>
      </trkpt>
      <trkpt lat="49.88214" lon="4.77324">
        <ele>170</ele>
        <time>2022-09-05T08:41:06.000Z</time>
      </trkpt>
      <trkpt lat="49.88212" lon="4.77329">
        <ele>170</ele>
        <time>2022-09-05T08:41:07.000Z</time>
      </trkpt>
      <trkpt lat="49.88209" lon="4.77334">
        <ele>170</ele>
        <time>2022-09-05T08:41:08.000Z</time>
      </trkpt>
      <trkpt lat="49.88206" lon="4.77339">
        <ele>170</ele>
        <time>2022-09-05T08:41:09.000Z</time>
      </trkpt>
      <trkpt lat="49.88203" lon="4.77344">
        <ele>169</ele>
        <time>2022-09-05T08:41:10.000Z</time>
      </trkpt>
      <trkpt lat="49.882" lon="4.77349">
        <ele>169</ele>
        <time>2022-09-05T08:41:11.000Z</time>
      </trkpt>
      <trkpt lat="49.88197" lon="4.77353">
        <ele>169</ele>
        <time>2022-09-05T08:41:12.000Z</time>
      </trkpt>
      <trkpt lat="49.88194" lon="4.77358">
        <ele>169</ele>
        <time>2022-09-05T08:41:13.000Z</time>
      </trkpt>
      <trkpt lat="49.88191" lon="4.77362">
        <ele>169</ele>
        <time>2022-09-05T08:41:14.000Z</time>
      </trkpt>
      <trkpt lat="49.88189" lon="4.77367">
        <ele>169</ele>
        <time>2022-09-05T08:41:15.000Z</time>
      </trkpt>
      <trkpt lat="49.88186" lon="4.77372">
        <ele>168</ele>
        <time>2022-09-05T08:41:16.000Z</time>
      </trkpt>
      <trkpt lat="49.88182" lon="4.77376">
        <ele>168</ele>
        <time>2022-09-05T08:41:17.000Z</time>
      </trkpt>
      <trkpt lat="49.88179" lon="4.77381">
        <ele>168</ele>
        <time>2022-09-05T08:41:18.000Z</time>
      </trkpt>
      <trkpt lat="49.88176" lon="4.77385">
        <ele>168</ele>
        <time>2022-09-05T08:41:19.000Z</time>
      </trkpt>
      <trkpt lat="49.88172" lon="4.7739">
        <ele>168</ele>
        <time>2022-09-05T08:41:20.000Z</time>
      </trkpt>
      <trkpt lat="49.88169" lon="4.77395">
        <ele>168</ele>
        <time>2022-09-05T08:41:21.000Z</time>
      </trkpt>
      <trkpt lat="49.88165" lon="4.77399">
        <ele>168</ele>
        <time>2022-09-05T08:41:22.000Z</time>
      </trkpt>
      <trkpt lat="49.88162" lon="4.77404">
        <ele>168</ele>
        <time>2022-09-05T08:41:23.000Z</time>
      </trkpt>
      <trkpt lat="49.88159" lon="4.77409">
        <ele>168</ele>
        <time>2022-09-05T08:41:24.000Z</time>
      </trkpt>
      <trkpt lat="49.88155" lon="4.77414">
        <ele>168</ele>
        <time>2022-09-05T08:41:25.000Z</time>
      </trkpt>
      <trkpt lat="49.88151" lon="4.77419">
        <ele>168</ele>
        <time>2022-09-05T08:41:26.000Z</time>
      </trkpt>
      <trkpt lat="49.88148" lon="4.77424">
        <ele>168</ele>
        <time>2022-09-05T08:41:27.000Z</time>
      </trkpt>
      <trkpt lat="49.88145" lon="4.77429">
        <ele>168</ele>
        <time>2022-09-05T08:41:28.000Z</time>
      </trkpt>
      <trkpt lat="49.88142" lon="4.77433">
        <ele>168</ele>
        <time>2022-09-05T08:41:29.000Z</time>
      </trkpt>
      <trkpt lat="49.88139" lon="4.77437">
        <ele>168</ele>
        <time>2022-09-05T08:41:30.000Z</time>
      </trkpt>
      <trkpt lat="49.88137" lon="4.77442">
        <ele>168</ele>
        <time>2022-09-05T08:41:31.000Z</time>
      </trkpt>
      <trkpt lat="49.88135" lon="4.77447">
        <ele>168</ele>
        <time>2022-09-05T08:41:32.000Z</time>
      </trkpt>
      <trkpt lat="49.88132" lon="4.77452">
        <ele>168</ele>
        <time>2022-09-05T08:41:33.000Z</time>
      </trkpt>
      <trkpt lat="49.88129" lon="4.77457">
        <ele>168</ele>
        <time>2022-09-05T08:41:34.000Z</time>
      </trkpt>
      <trkpt lat="49.88127" lon="4.77463">
        <ele>168</ele>
        <time>2022-09-05T08:41:35.000Z</time>
      </trkpt>
      <trkpt lat="49.88124" lon="4.77469">
        <ele>168</ele>
        <time>2022-09-05T08:41:36.000Z</time>
      </trkpt>
      <trkpt lat="49.88121" lon="4.77474">
        <ele>168</ele>
        <time>2022-09-05T08:41:37.000Z</time>
      </trkpt>
      <trkpt lat="49.88119" lon="4.77479">
        <ele>169</ele>
        <time>2022-09-05T08:41:38.000Z</time>
      </trkpt>
      <trkpt lat="49.88116" lon="4.77483">
        <ele>169</ele>
        <time>2022-09-05T08:41:39.000Z</time>
      </trkpt>
      <trkpt lat="49.88114" lon="4.77487">
        <ele>169</ele>
        <time>2022-09-05T08:41:40.000Z</time>
      </trkpt>
      <trkpt lat="49.88112" lon="4.7749">
        <ele>169</ele>
        <time>2022-09-05T08:41:41.000Z</time>
      </trkpt>
      <trkpt lat="49.88109" lon="4.77494">
        <ele>169</ele>
        <time>2022-09-05T08:41:42.000Z</time>
      </trkpt>
      <trkpt lat="49.88107" lon="4.77498">
        <ele>169</ele>
        <time>2022-09-05T08:41:43.000Z</time>
      </trkpt>
      <trkpt lat="49.88104" lon="4.77503">
        <ele>169</ele>
        <time>2022-09-05T08:41:44.000Z</time>
      </trkpt>
      <trkpt lat="49.88102" lon="4.77508">
        <ele>170</ele>
        <time>2022-09-05T08:41:45.000Z</time>
      </trkpt>
      <trkpt lat="49.88099" lon="4.77513">
        <ele>170</ele>
        <time>2022-09-05T08:41:46.000Z</time>
      </trkpt>
      <trkpt lat="49.88097" lon="4.77518">
        <ele>170</ele>
        <time>2022-09-05T08:41:47.000Z</time>
      </trkpt>
      <trkpt lat="49.88094" lon="4.77521">
        <ele>170</ele>
        <time>2022-09-05T08:41:48.000Z</time>
      </trkpt>
      <trkpt lat="49.88092" lon="4.77525">
        <ele>170</ele>
        <time>2022-09-05T08:41:49.000Z</time>
      </trkpt>
      <trkpt lat="49.88089" lon="4.77529">
        <ele>170</ele>
        <time>2022-09-05T08:41:50.000Z</time>
      </trkpt>
      <trkpt lat="49.88087" lon="4.77533">
        <ele>170</ele>
        <time>2022-09-05T08:41:51.000Z</time>
      </trkpt>
      <trkpt lat="49.88084" lon="4.77538">
        <ele>170</ele>
        <time>2022-09-05T08:41:52.000Z</time>
      </trkpt>
      <trkpt lat="49.8808" lon="4.77543">
        <ele>170</ele>
        <time>2022-09-05T08:41:53.000Z</time>
      </trkpt>
      <trkpt lat="49.88076" lon="4.77548">
        <ele>170</ele>
        <time>2022-09-05T08:41:54.000Z</time>
      </trkpt>
      <trkpt lat="49.88073" lon="4.77553">
        <ele>170</ele>
        <time>2022-09-05T08:41:55.000Z</time>
      </trkpt>
      <trkpt lat="49.88069" lon="4.77558">
        <ele>170</ele>
        <time>2022-09-05T08:41:56.000Z</time>
      </trkpt>
      <trkpt lat="49.88065" lon="4.77562">
        <ele>170</ele>
        <time>2022-09-05T08:41:57.000Z</time>
      </trkpt>
      <trkpt lat="49.88061" lon="4.77565">
        <ele>170</ele>
        <time>2022-09-05T08:41:58.000Z</time>
      </trkpt>
      <trkpt lat="49.88058" lon="4.77569">
        <ele>170</ele>
        <time>2022-09-05T08:41:59.000Z</time>
      </trkpt>
      <trkpt lat="49.88055" lon="4.77573">
        <ele>171</ele>
        <time>2022-09-05T08:42:00.000Z</time>
      </trkpt>
      <trkpt lat="49.88051" lon="4.77577">
        <ele>171</ele>
        <time>2022-09-05T08:42:01.000Z</time>
      </trkpt>
      <trkpt lat="49.88047" lon="4.77581">
        <ele>171</ele>
        <time>2022-09-05T08:42:02.000Z</time>
      </trkpt>
      <trkpt lat="49.88044" lon="4.77584">
        <ele>171</ele>
        <time>2022-09-05T08:42:03.000Z</time>
      </trkpt>
      <trkpt lat="49.88041" lon="4.77587">
        <ele>171</ele>
        <time>2022-09-05T08:42:04.000Z</time>
      </trkpt>
      <trkpt lat="49.88038" lon="4.77591">
        <ele>171</ele>
        <time>2022-09-05T08:42:05.000Z</time>
      </trkpt>
      <trkpt lat="49.88035" lon="4.77596">
        <ele>172</ele>
        <time>2022-09-05T08:42:06.000Z</time>
      </trkpt>
      <trkpt lat="49.88032" lon="4.77602">
        <ele>172</ele>
        <time>2022-09-05T08:42:07.000Z</time>
      </trkpt>
      <trkpt lat="49.88029" lon="4.77607">
        <ele>172</ele>
        <time>2022-09-05T08:42:08.000Z</time>
      </trkpt>
      <trkpt lat="49.88027" lon="4.77613">
        <ele>172</ele>
        <time>2022-09-05T08:42:09.000Z</time>
      </trkpt>
      <trkpt lat="49.88025" lon="4.77618">
        <ele>172</ele>
        <time>2022-09-05T08:42:10.000Z</time>
      </trkpt>
      <trkpt lat="49.88023" lon="4.77624">
        <ele>172</ele>
        <time>2022-09-05T08:42:11.000Z</time>
      </trkpt>
      <trkpt lat="49.8802" lon="4.77629">
        <ele>172</ele>
        <time>2022-09-05T08:42:12.000Z</time>
      </trkpt>
      <trkpt lat="49.88018" lon="4.77635">
        <ele>172</ele>
        <time>2022-09-05T08:42:13.000Z</time>
      </trkpt>
      <trkpt lat="49.88015" lon="4.7764">
        <ele>172</ele>
        <time>2022-09-05T08:42:14.000Z</time>
      </trkpt>
      <trkpt lat="49.88013" lon="4.77646">
        <ele>172</ele>
        <time>2022-09-05T08:42:15.000Z</time>
      </trkpt>
      <trkpt lat="49.88009" lon="4.77652">
        <ele>172</ele>
        <time>2022-09-05T08:42:16.000Z</time>
      </trkpt>
      <trkpt lat="49.88006" lon="4.77658">
        <ele>172</ele>
        <time>2022-09-05T08:42:17.000Z</time>
      </trkpt>
      <trkpt lat="49.88003" lon="4.77663">
        <ele>172</ele>
        <time>2022-09-05T08:42:18.000Z</time>
      </trkpt>
      <trkpt lat="49.88" lon="4.77668">
        <ele>172</ele>
        <time>2022-09-05T08:42:19.000Z</time>
      </trkpt>
      <trkpt lat="49.87997" lon="4.77673">
        <ele>172</ele>
        <time>2022-09-05T08:42:20.000Z</time>
      </trkpt>
      <trkpt lat="49.87993" lon="4.77678">
        <ele>172</ele>
        <time>2022-09-05T08:42:21.000Z</time>
      </trkpt>
      <trkpt lat="49.87989" lon="4.77682">
        <ele>172</ele>
        <time>2022-09-05T08:42:22.000Z</time>
      </trkpt>
      <trkpt lat="49.87985" lon="4.77686">
        <ele>172</ele>
        <time>2022-09-05T08:42:23.000Z</time>
      </trkpt>
      <trkpt lat="49.87982" lon="4.7769">
        <ele>172</ele>
        <time>2022-09-05T08:42:24.000Z</time>
      </trkpt>
      <trkpt lat="49.87978" lon="4.77695">
        <ele>172</ele>
        <time>2022-09-05T08:42:25.000Z</time>
      </trkpt>
      <trkpt lat="49.87974" lon="4.77699">
        <ele>172</ele>
        <time>2022-09-05T08:42:26.000Z</time>
      </trkpt>
      <trkpt lat="49.8797" lon="4.77703">
        <ele>172</ele>
        <time>2022-09-05T08:42:27.000Z</time>
      </trkpt>
      <trkpt lat="49.87966" lon="4.77707">
        <ele>172</ele>
        <time>2022-09-05T08:42:28.000Z</time>
      </trkpt>
      <trkpt lat="49.87962" lon="4.7771">
        <ele>172</ele>
        <time>2022-09-05T08:42:29.000Z</time>
      </trkpt>
      <trkpt lat="49.87959" lon="4.77715">
        <ele>172</ele>
        <time>2022-09-05T08:42:30.000Z</time>
      </trkpt>
      <trkpt lat="49.87955" lon="4.77719">
        <ele>172</ele>
        <time>2022-09-05T08:42:31.000Z</time>
      </trkpt>
      <trkpt lat="49.87952" lon="4.77723">
        <ele>173</ele>
        <time>2022-09-05T08:42:32.000Z</time>
      </trkpt>
      <trkpt lat="49.87949" lon="4.77727">
        <ele>173</ele>
        <time>2022-09-05T08:42:33.000Z</time>
      </trkpt>
      <trkpt lat="49.87946" lon="4.77732">
        <ele>173</ele>
        <time>2022-09-05T08:42:34.000Z</time>
      </trkpt>
      <trkpt lat="49.87943" lon="4.77736">
        <ele>173</ele>
        <time>2022-09-05T08:42:35.000Z</time>
      </trkpt>
      <trkpt lat="49.8794" lon="4.77741">
        <ele>173</ele>
        <time>2022-09-05T08:42:36.000Z</time>
      </trkpt>
      <trkpt lat="49.87938" lon="4.77745">
        <ele>173</ele>
        <time>2022-09-05T08:42:37.000Z</time>
      </trkpt>
      <trkpt lat="49.87935" lon="4.77749">
        <ele>173</ele>
        <time>2022-09-05T08:42:38.000Z</time>
      </trkpt>
      <trkpt lat="49.87933" lon="4.77753">
        <ele>173</ele>
        <time>2022-09-05T08:42:39.000Z</time>
      </trkpt>
      <trkpt lat="49.8793" lon="4.77757">
        <ele>173</ele>
        <time>2022-09-05T08:42:40.000Z</time>
      </trkpt>
      <trkpt lat="49.87928" lon="4.77761">
        <ele>173</ele>
        <time>2022-09-05T08:42:41.000Z</time>
      </trkpt>
      <trkpt lat="49.87926" lon="4.77765">
        <ele>173</ele>
        <time>2022-09-05T08:42:42.000Z</time>
      </trkpt>
      <trkpt lat="49.87923" lon="4.77769">
        <ele>173</ele>
        <time>2022-09-05T08:42:43.000Z</time>
      </trkpt>
      <trkpt lat="49.87921" lon="4.77772">
        <ele>174</ele>
        <time>2022-09-05T08:42:44.000Z</time>
      </trkpt>
      <trkpt lat="49.87919" lon="4.77776">
        <ele>174</ele>
        <time>2022-09-05T08:42:45.000Z</time>
      </trkpt>
      <trkpt lat="49.87917" lon="4.77779">
        <ele>174</ele>
        <time>2022-09-05T08:42:46.000Z</time>
      </trkpt>
      <trkpt lat="49.87915" lon="4.77783">
        <ele>174</ele>
        <time>2022-09-05T08:42:47.000Z</time>
      </trkpt>
      <trkpt lat="49.87913" lon="4.77786">
        <ele>174</ele>
        <time>2022-09-05T08:42:48.000Z</time>
      </trkpt>
      <trkpt lat="49.8791" lon="4.7779">
        <ele>174</ele>
        <time>2022-09-05T08:42:49.000Z</time>
      </trkpt>
      <trkpt lat="49.87908" lon="4.77794">
        <ele>175</ele>
        <time>2022-09-05T08:42:50.000Z</time>
      </trkpt>
      <trkpt lat="49.87905" lon="4.77798">
        <ele>175</ele>
        <time>2022-09-05T08:42:51.000Z</time>
      </trkpt>
      <trkpt lat="49.87902" lon="4.77803">
        <ele>175</ele>
        <time>2022-09-05T08:42:52.000Z</time>
      </trkpt>
      <trkpt lat="49.879" lon="4.77807">
        <ele>175</ele>
        <time>2022-09-05T08:42:53.000Z</time>
      </trkpt>
      <trkpt lat="49.87897" lon="4.77811">
        <ele>175</ele>
        <time>2022-09-05T08:42:54.000Z</time>
      </trkpt>
      <trkpt lat="49.87894" lon="4.77816">
        <ele>175</ele>
        <time>2022-09-05T08:42:55.000Z</time>
      </trkpt>
      <trkpt lat="49.87892" lon="4.77821">
        <ele>175</ele>
        <time>2022-09-05T08:42:56.000Z</time>
      </trkpt>
      <trkpt lat="49.8789" lon="4.77826">
        <ele>176</ele>
        <time>2022-09-05T08:42:57.000Z</time>
      </trkpt>
      <trkpt lat="49.87888" lon="4.77831">
        <ele>176</ele>
        <time>2022-09-05T08:42:58.000Z</time>
      </trkpt>
      <trkpt lat="49.87886" lon="4.77836">
        <ele>176</ele>
        <time>2022-09-05T08:42:59.000Z</time>
      </trkpt>
      <trkpt lat="49.87884" lon="4.7784">
        <ele>176</ele>
        <time>2022-09-05T08:43:00.000Z</time>
      </trkpt>
      <trkpt lat="49.87882" lon="4.77846">
        <ele>176</ele>
        <time>2022-09-05T08:43:01.000Z</time>
      </trkpt>
      <trkpt lat="49.87881" lon="4.77851">
        <ele>176</ele>
        <time>2022-09-05T08:43:02.000Z</time>
      </trkpt>
      <trkpt lat="49.87879" lon="4.77855">
        <ele>176</ele>
        <time>2022-09-05T08:43:03.000Z</time>
      </trkpt>
      <trkpt lat="49.87877" lon="4.77861">
        <ele>176</ele>
        <time>2022-09-05T08:43:04.000Z</time>
      </trkpt>
      <trkpt lat="49.87875" lon="4.77866">
        <ele>176</ele>
        <time>2022-09-05T08:43:05.000Z</time>
      </trkpt>
      <trkpt lat="49.87873" lon="4.7787">
        <ele>177</ele>
        <time>2022-09-05T08:43:06.000Z</time>
      </trkpt>
      <trkpt lat="49.87871" lon="4.77874">
        <ele>177</ele>
        <time>2022-09-05T08:43:07.000Z</time>
      </trkpt>
      <trkpt lat="49.87869" lon="4.77877">
        <ele>177</ele>
        <time>2022-09-05T08:43:08.000Z</time>
      </trkpt>
      <trkpt lat="49.87866" lon="4.77881">
        <ele>177</ele>
        <time>2022-09-05T08:43:09.000Z</time>
      </trkpt>
      <trkpt lat="49.87863" lon="4.77885">
        <ele>177</ele>
        <time>2022-09-05T08:43:10.000Z</time>
      </trkpt>
      <trkpt lat="49.8786" lon="4.77889">
        <ele>177</ele>
        <time>2022-09-05T08:43:11.000Z</time>
      </trkpt>
      <trkpt lat="49.87856" lon="4.77893">
        <ele>177</ele>
        <time>2022-09-05T08:43:12.000Z</time>
      </trkpt>
      <trkpt lat="49.87852" lon="4.77897">
        <ele>177</ele>
        <time>2022-09-05T08:43:13.000Z</time>
      </trkpt>
      <trkpt lat="49.87848" lon="4.779">
        <ele>177</ele>
        <time>2022-09-05T08:43:14.000Z</time>
      </trkpt>
      <trkpt lat="49.87845" lon="4.77904">
        <ele>177</ele>
        <time>2022-09-05T08:43:15.000Z</time>
      </trkpt>
      <trkpt lat="49.87841" lon="4.77908">
        <ele>177</ele>
        <time>2022-09-05T08:43:16.000Z</time>
      </trkpt>
      <trkpt lat="49.87837" lon="4.77911">
        <ele>178</ele>
        <time>2022-09-05T08:43:17.000Z</time>
      </trkpt>
      <trkpt lat="49.87834" lon="4.77915">
        <ele>178</ele>
        <time>2022-09-05T08:43:18.000Z</time>
      </trkpt>
      <trkpt lat="49.8783" lon="4.77918">
        <ele>178</ele>
        <time>2022-09-05T08:43:19.000Z</time>
      </trkpt>
      <trkpt lat="49.87826" lon="4.77922">
        <ele>178</ele>
        <time>2022-09-05T08:43:20.000Z</time>
      </trkpt>
      <trkpt lat="49.87823" lon="4.77926">
        <ele>179</ele>
        <time>2022-09-05T08:43:21.000Z</time>
      </trkpt>
      <trkpt lat="49.8782" lon="4.77931">
        <ele>179</ele>
        <time>2022-09-05T08:43:22.000Z</time>
      </trkpt>
      <trkpt lat="49.87816" lon="4.77937">
        <ele>179</ele>
        <time>2022-09-05T08:43:23.000Z</time>
      </trkpt>
      <trkpt lat="49.87813" lon="4.77942">
        <ele>180</ele>
        <time>2022-09-05T08:43:24.000Z</time>
      </trkpt>
      <trkpt lat="49.8781" lon="4.77947">
        <ele>180</ele>
        <time>2022-09-05T08:43:25.000Z</time>
      </trkpt>
      <trkpt lat="49.87807" lon="4.77951">
        <ele>180</ele>
        <time>2022-09-05T08:43:26.000Z</time>
      </trkpt>
      <trkpt lat="49.87803" lon="4.77955">
        <ele>180</ele>
        <time>2022-09-05T08:43:27.000Z</time>
      </trkpt>
      <trkpt lat="49.878" lon="4.77958">
        <ele>181</ele>
        <time>2022-09-05T08:43:28.000Z</time>
      </trkpt>
      <trkpt lat="49.87797" lon="4.77963">
        <ele>181</ele>
        <time>2022-09-05T08:43:29.000Z</time>
      </trkpt>
      <trkpt lat="49.87795" lon="4.77967">
        <ele>181</ele>
        <time>2022-09-05T08:43:30.000Z</time>
      </trkpt>
      <trkpt lat="49.87792" lon="4.77972">
        <ele>181</ele>
        <time>2022-09-05T08:43:31.000Z</time>
      </trkpt>
      <trkpt lat="49.87789" lon="4.77976">
        <ele>181</ele>
        <time>2022-09-05T08:43:32.000Z</time>
      </trkpt>
      <trkpt lat="49.87786" lon="4.7798">
        <ele>181</ele>
        <time>2022-09-05T08:43:33.000Z</time>
      </trkpt>
      <trkpt lat="49.87783" lon="4.77984">
        <ele>181</ele>
        <time>2022-09-05T08:43:34.000Z</time>
      </trkpt>
      <trkpt lat="49.87779" lon="4.77988">
        <ele>181</ele>
        <time>2022-09-05T08:43:35.000Z</time>
      </trkpt>
      <trkpt lat="49.87776" lon="4.77992">
        <ele>181</ele>
        <time>2022-09-05T08:43:36.000Z</time>
      </trkpt>
      <trkpt lat="49.87773" lon="4.77996">
        <ele>181</ele>
        <time>2022-09-05T08:43:37.000Z</time>
      </trkpt>
      <trkpt lat="49.8777" lon="4.78">
        <ele>181</ele>
        <time>2022-09-05T08:43:38.000Z</time>
      </trkpt>
      <trkpt lat="49.87767" lon="4.78005">
        <ele>182</ele>
        <time>2022-09-05T08:43:39.000Z</time>
      </trkpt>
      <trkpt lat="49.87764" lon="4.78009">
        <ele>182</ele>
        <time>2022-09-05T08:43:40.000Z</time>
      </trkpt>
      <trkpt lat="49.87761" lon="4.78013">
        <ele>182</ele>
        <time>2022-09-05T08:43:41.000Z</time>
      </trkpt>
      <trkpt lat="49.87758" lon="4.78017">
        <ele>182</ele>
        <time>2022-09-05T08:43:42.000Z</time>
      </trkpt>
      <trkpt lat="49.87755" lon="4.7802">
        <ele>182</ele>
        <time>2022-09-05T08:43:43.000Z</time>
      </trkpt>
      <trkpt lat="49.87753" lon="4.78023">
        <ele>182</ele>
        <time>2022-09-05T08:43:44.000Z</time>
      </trkpt>
      <trkpt lat="49.8775" lon="4.78025">
        <ele>183</ele>
        <time>2022-09-05T08:43:45.000Z</time>
      </trkpt>
      <trkpt lat="49.87749" lon="4.78028">
        <ele>183</ele>
        <time>2022-09-05T08:43:46.000Z</time>
      </trkpt>
      <trkpt lat="49.87747" lon="4.78031">
        <ele>183</ele>
        <time>2022-09-05T08:43:47.000Z</time>
      </trkpt>
      <trkpt lat="49.87745" lon="4.78034">
        <ele>183</ele>
        <time>2022-09-05T08:43:48.000Z</time>
      </trkpt>
      <trkpt lat="49.87742" lon="4.78039">
        <ele>183</ele>
        <time>2022-09-05T08:43:49.000Z</time>
      </trkpt>
      <trkpt lat="49.8774" lon="4.78044">
        <ele>184</ele>
        <time>2022-09-05T08:43:50.000Z</time>
      </trkpt>
      <trkpt lat="49.87737" lon="4.7805">
        <ele>184</ele>
        <time>2022-09-05T08:43:51.000Z</time>
      </trkpt>
      <trkpt lat="49.87735" lon="4.78055">
        <ele>184</ele>
        <time>2022-09-05T08:43:52.000Z</time>
      </trkpt>
      <trkpt lat="49.87733" lon="4.78061">
        <ele>184</ele>
        <time>2022-09-05T08:43:53.000Z</time>
      </trkpt>
      <trkpt lat="49.87731" lon="4.78066">
        <ele>184</ele>
        <time>2022-09-05T08:43:54.000Z</time>
      </trkpt>
      <trkpt lat="49.87729" lon="4.7807">
        <ele>184</ele>
        <time>2022-09-05T08:43:55.000Z</time>
      </trkpt>
      <trkpt lat="49.87727" lon="4.78075">
        <ele>184</ele>
        <time>2022-09-05T08:43:56.000Z</time>
      </trkpt>
      <trkpt lat="49.87726" lon="4.7808">
        <ele>185</ele>
        <time>2022-09-05T08:43:57.000Z</time>
      </trkpt>
      <trkpt lat="49.87724" lon="4.78084">
        <ele>185</ele>
        <time>2022-09-05T08:43:58.000Z</time>
      </trkpt>
      <trkpt lat="49.87723" lon="4.78089">
        <ele>185</ele>
        <time>2022-09-05T08:43:59.000Z</time>
      </trkpt>
      <trkpt lat="49.87723" lon="4.78094">
        <ele>185</ele>
        <time>2022-09-05T08:44:00.000Z</time>
      </trkpt>
      <trkpt lat="49.87722" lon="4.78099">
        <ele>185</ele>
        <time>2022-09-05T08:44:01.000Z</time>
      </trkpt>
      <trkpt lat="49.87722" lon="4.78102">
        <ele>185</ele>
        <time>2022-09-05T08:44:02.000Z</time>
      </trkpt>
      <trkpt lat="49.87722" lon="4.78103">
        <ele>185</ele>
        <time>2022-09-05T08:44:03.000Z</time>
      </trkpt>
      <trkpt lat="49.87722" lon="4.78103">
        <ele>185</ele>
        <time>2022-09-05T08:44:04.000Z</time>
      </trkpt>
      <trkpt lat="49.87722" lon="4.78103">
        <ele>186</ele>
        <time>2022-09-05T08:44:05.000Z</time>
      </trkpt>
      <trkpt lat="49.87722" lon="4.78103">
        <ele>186</ele>
        <time>2022-09-05T08:44:06.000Z</time>
      </trkpt>
      <trkpt lat="49.87722" lon="4.78103">
        <ele>186</ele>
        <time>2022-09-05T08:44:07.000Z</time>
      </trkpt>
      <trkpt lat="49.87722" lon="4.78103">
        <ele>186</ele>
        <time>2022-09-05T08:44:08.000Z</time>
      </trkpt>
      <trkpt lat="49.87722" lon="4.78102">
        <ele>186</ele>
        <time>2022-09-05T08:44:09.000Z</time>
      </trkpt>
      <trkpt lat="49.87722" lon="4.78101">
        <ele>186</ele>
        <time>2022-09-05T08:44:10.000Z</time>
      </trkpt>
      <trkpt lat="49.87723" lon="4.78099">
        <ele>186</ele>
        <time>2022-09-05T08:44:11.000Z</time>
      </trkpt>
      <trkpt lat="49.87723" lon="4.78097">
        <ele>186</ele>
        <time>2022-09-05T08:44:12.000Z</time>
      </trkpt>
      <trkpt lat="49.87724" lon="4.78094">
        <ele>185</ele>
        <time>2022-09-05T08:44:13.000Z</time>
      </trkpt>
      <trkpt lat="49.87725" lon="4.7809">
        <ele>185</ele>
        <time>2022-09-05T08:44:14.000Z</time>
      </trkpt>
      <trkpt lat="49.87725" lon="4.78087">
        <ele>185</ele>
        <time>2022-09-05T08:44:15.000Z</time>
      </trkpt>
      <trkpt lat="49.87727" lon="4.78082">
        <ele>185</ele>
        <time>2022-09-05T08:44:16.000Z</time>
      </trkpt>
      <trkpt lat="49.87729" lon="4.78078">
        <ele>185</ele>
        <time>2022-09-05T08:44:17.000Z</time>
      </trkpt>
      <trkpt lat="49.87731" lon="4.78074">
        <ele>185</ele>
        <time>2022-09-05T08:44:18.000Z</time>
      </trkpt>
      <trkpt lat="49.87733" lon="4.78071">
        <ele>184</ele>
        <time>2022-09-05T08:44:19.000Z</time>
      </trkpt>
      <trkpt lat="49.87734" lon="4.78068">
        <ele>184</ele>
        <time>2022-09-05T08:44:20.000Z</time>
      </trkpt>
      <trkpt lat="49.87736" lon="4.78065">
        <ele>184</ele>
        <time>2022-09-05T08:44:21.000Z</time>
      </trkpt>
      <trkpt lat="49.87737" lon="4.78062">
        <ele>184</ele>
        <time>2022-09-05T08:44:22.000Z</time>
      </trkpt>
      <trkpt lat="49.87738" lon="4.78059">
        <ele>184</ele>
        <time>2022-09-05T08:44:23.000Z</time>
      </trkpt>
      <trkpt lat="49.87738" lon="4.78056">
        <ele>184</ele>
        <time>2022-09-05T08:44:24.000Z</time>
      </trkpt>
      <trkpt lat="49.87739" lon="4.78054">
        <ele>184</ele>
        <time>2022-09-05T08:44:25.000Z</time>
      </trkpt>
      <trkpt lat="49.8774" lon="4.7805">
        <ele>184</ele>
        <time>2022-09-05T08:44:26.000Z</time>
      </trkpt>
      <trkpt lat="49.87741" lon="4.78047">
        <ele>184</ele>
        <time>2022-09-05T08:44:27.000Z</time>
      </trkpt>
      <trkpt lat="49.87742" lon="4.78045">
        <ele>184</ele>
        <time>2022-09-05T08:44:28.000Z</time>
      </trkpt>
      <trkpt lat="49.87744" lon="4.78043">
        <ele>184</ele>
        <time>2022-09-05T08:44:29.000Z</time>
      </trkpt>
      <trkpt lat="49.87746" lon="4.78042">
        <ele>184</ele>
        <time>2022-09-05T08:44:30.000Z</time>
      </trkpt>
      <trkpt lat="49.87748" lon="4.78041">
        <ele>184</ele>
        <time>2022-09-05T08:44:31.000Z</time>
      </trkpt>
      <trkpt lat="49.8775" lon="4.78041">
        <ele>184</ele>
        <time>2022-09-05T08:44:32.000Z</time>
      </trkpt>
      <trkpt lat="49.87751" lon="4.78041">
        <ele>185</ele>
        <time>2022-09-05T08:44:33.000Z</time>
      </trkpt>
      <trkpt lat="49.87752" lon="4.78041">
        <ele>185</ele>
        <time>2022-09-05T08:44:34.000Z</time>
      </trkpt>
      <trkpt lat="49.87752" lon="4.7804">
        <ele>185</ele>
        <time>2022-09-05T08:44:35.000Z</time>
      </trkpt>
      <trkpt lat="49.87753" lon="4.7804">
        <ele>185</ele>
        <time>2022-09-05T08:44:36.000Z</time>
      </trkpt>
      <trkpt lat="49.87752" lon="4.78039">
        <ele>185</ele>
        <time>2022-09-05T08:44:37.000Z</time>
      </trkpt>
      <trkpt lat="49.87752" lon="4.78037">
        <ele>185</ele>
        <time>2022-09-05T08:44:38.000Z</time>
      </trkpt>
      <trkpt lat="49.87752" lon="4.78035">
        <ele>185</ele>
        <time>2022-09-05T08:44:39.000Z</time>
      </trkpt>
      <trkpt lat="49.87752" lon="4.78033">
        <ele>185</ele>
        <time>2022-09-05T08:44:40.000Z</time>
      </trkpt>
      <trkpt lat="49.87753" lon="4.78031">
        <ele>185</ele>
        <time>2022-09-05T08:44:41.000Z</time>
      </trkpt>
      <trkpt lat="49.87755" lon="4.78029">
        <ele>185</ele>
        <time>2022-09-05T08:44:42.000Z</time>
      </trkpt>
      <trkpt lat="49.87757" lon="4.78026">
        <ele>185</ele>
        <time>2022-09-05T08:44:43.000Z</time>
      </trkpt>
      <trkpt lat="49.8776" lon="4.78023">
        <ele>185</ele>
        <time>2022-09-05T08:44:44.000Z</time>
      </trkpt>
      <trkpt lat="49.87762" lon="4.78019">
        <ele>185</ele>
        <time>2022-09-05T08:44:45.000Z</time>
      </trkpt>
      <trkpt lat="49.87765" lon="4.78015">
        <ele>185</ele>
        <time>2022-09-05T08:44:46.000Z</time>
      </trkpt>
      <trkpt lat="49.87768" lon="4.78012">
        <ele>185</ele>
        <time>2022-09-05T08:44:47.000Z</time>
      </trkpt>
      <trkpt lat="49.8777" lon="4.78009">
        <ele>185</ele>
        <time>2022-09-05T08:44:48.000Z</time>
      </trkpt>
      <trkpt lat="49.87772" lon="4.78006">
        <ele>185</ele>
        <time>2022-09-05T08:44:49.000Z</time>
      </trkpt>
      <trkpt lat="49.87774" lon="4.78003">
        <ele>185</ele>
        <time>2022-09-05T08:44:50.000Z</time>
      </trkpt>
      <trkpt lat="49.87776" lon="4.78">
        <ele>185</ele>
        <time>2022-09-05T08:44:51.000Z</time>
      </trkpt>
      <trkpt lat="49.87777" lon="4.77997">
        <ele>185</ele>
        <time>2022-09-05T08:44:52.000Z</time>
      </trkpt>
      <trkpt lat="49.8778" lon="4.77993">
        <ele>185</ele>
        <time>2022-09-05T08:44:53.000Z</time>
      </trkpt>
      <trkpt lat="49.87782" lon="4.7799">
        <ele>184</ele>
        <time>2022-09-05T08:44:54.000Z</time>
      </trkpt>
      <trkpt lat="49.87785" lon="4.77986">
        <ele>184</ele>
        <time>2022-09-05T08:44:55.000Z</time>
      </trkpt>
      <trkpt lat="49.87787" lon="4.77982">
        <ele>184</ele>
        <time>2022-09-05T08:44:56.000Z</time>
      </trkpt>
      <trkpt lat="49.87789" lon="4.77979">
        <ele>184</ele>
        <time>2022-09-05T08:44:57.000Z</time>
      </trkpt>
      <trkpt lat="49.87791" lon="4.77975">
        <ele>184</ele>
        <time>2022-09-05T08:44:58.000Z</time>
      </trkpt>
      <trkpt lat="49.87793" lon="4.77972">
        <ele>184</ele>
        <time>2022-09-05T08:44:59.000Z</time>
      </trkpt>
      <trkpt lat="49.87795" lon="4.77969">
        <ele>183</ele>
        <time>2022-09-05T08:45:00.000Z</time>
      </trkpt>
      <trkpt lat="49.87797" lon="4.77965">
        <ele>183</ele>
        <time>2022-09-05T08:45:01.000Z</time>
      </trkpt>
      <trkpt lat="49.87801" lon="4.77961">
        <ele>183</ele>
        <time>2022-09-05T08:45:02.000Z</time>
      </trkpt>
      <trkpt lat="49.87804" lon="4.77957">
        <ele>183</ele>
        <time>2022-09-05T08:45:03.000Z</time>
      </trkpt>
      <trkpt lat="49.87806" lon="4.77952">
        <ele>183</ele>
        <time>2022-09-05T08:45:04.000Z</time>
      </trkpt>
      <trkpt lat="49.87809" lon="4.77949">
        <ele>183</ele>
        <time>2022-09-05T08:45:05.000Z</time>
      </trkpt>
      <trkpt lat="49.87812" lon="4.77945">
        <ele>183</ele>
        <time>2022-09-05T08:45:06.000Z</time>
      </trkpt>
      <trkpt lat="49.87815" lon="4.77941">
        <ele>183</ele>
        <time>2022-09-05T08:45:07.000Z</time>
      </trkpt>
      <trkpt lat="49.87818" lon="4.77937">
        <ele>183</ele>
        <time>2022-09-05T08:45:08.000Z</time>
      </trkpt>
      <trkpt lat="49.87821" lon="4.77934">
        <ele>183</ele>
        <time>2022-09-05T08:45:09.000Z</time>
      </trkpt>
      <trkpt lat="49.87824" lon="4.77931">
        <ele>183</ele>
        <time>2022-09-05T08:45:10.000Z</time>
      </trkpt>
      <trkpt lat="49.87826" lon="4.77928">
        <ele>183</ele>
        <time>2022-09-05T08:45:11.000Z</time>
      </trkpt>
      <trkpt lat="49.87829" lon="4.77925">
        <ele>183</ele>
        <time>2022-09-05T08:45:12.000Z</time>
      </trkpt>
      <trkpt lat="49.8783" lon="4.77924">
        <ele>183</ele>
        <time>2022-09-05T08:45:13.000Z</time>
      </trkpt>
      <trkpt lat="49.87831" lon="4.77923">
        <ele>183</ele>
        <time>2022-09-05T08:45:14.000Z</time>
      </trkpt>
      <trkpt lat="49.87831" lon="4.77924">
        <ele>183</ele>
        <time>2022-09-05T08:45:15.000Z</time>
      </trkpt>
      <trkpt lat="49.87831" lon="4.77925">
        <ele>183</ele>
        <time>2022-09-05T08:45:16.000Z</time>
      </trkpt>
      <trkpt lat="49.8783" lon="4.77925">
        <ele>183</ele>
        <time>2022-09-05T08:45:17.000Z</time>
      </trkpt>
      <trkpt lat="49.87829" lon="4.77926">
        <ele>184</ele>
        <time>2022-09-05T08:45:18.000Z</time>
      </trkpt>
      <trkpt lat="49.87828" lon="4.77929">
        <ele>184</ele>
        <time>2022-09-05T08:45:19.000Z</time>
      </trkpt>
      <trkpt lat="49.87825" lon="4.77933">
        <ele>184</ele>
        <time>2022-09-05T08:45:20.000Z</time>
      </trkpt>
      <trkpt lat="49.87822" lon="4.77936">
        <ele>184</ele>
        <time>2022-09-05T08:45:21.000Z</time>
      </trkpt>
      <trkpt lat="49.87819" lon="4.7794">
        <ele>184</ele>
        <time>2022-09-05T08:45:22.000Z</time>
      </trkpt>
      <trkpt lat="49.87816" lon="4.77945">
        <ele>185</ele>
        <time>2022-09-05T08:45:23.000Z</time>
      </trkpt>
      <trkpt lat="49.87812" lon="4.77949">
        <ele>185</ele>
        <time>2022-09-05T08:45:24.000Z</time>
      </trkpt>
      <trkpt lat="49.8781" lon="4.77953">
        <ele>185</ele>
        <time>2022-09-05T08:45:25.000Z</time>
      </trkpt>
      <trkpt lat="49.87807" lon="4.77956">
        <ele>185</ele>
        <time>2022-09-05T08:45:26.000Z</time>
      </trkpt>
      <trkpt lat="49.87805" lon="4.77959">
        <ele>185</ele>
        <time>2022-09-05T08:45:27.000Z</time>
      </trkpt>
      <trkpt lat="49.87803" lon="4.77962">
        <ele>185</ele>
        <time>2022-09-05T08:45:28.000Z</time>
      </trkpt>
      <trkpt lat="49.87802" lon="4.77965">
        <ele>185</ele>
        <time>2022-09-05T08:45:29.000Z</time>
      </trkpt>
      <trkpt lat="49.87799" lon="4.77969">
        <ele>185</ele>
        <time>2022-09-05T08:45:30.000Z</time>
      </trkpt>
      <trkpt lat="49.87797" lon="4.77973">
        <ele>186</ele>
        <time>2022-09-05T08:45:31.000Z</time>
      </trkpt>
      <trkpt lat="49.87794" lon="4.77978">
        <ele>186</ele>
        <time>2022-09-05T08:45:32.000Z</time>
      </trkpt>
      <trkpt lat="49.87791" lon="4.77983">
        <ele>186</ele>
        <time>2022-09-05T08:45:33.000Z</time>
      </trkpt>
      <trkpt lat="49.87788" lon="4.77988">
        <ele>186</ele>
        <time>2022-09-05T08:45:34.000Z</time>
      </trkpt>
      <trkpt lat="49.87785" lon="4.77992">
        <ele>185</ele>
        <time>2022-09-05T08:45:35.000Z</time>
      </trkpt>
      <trkpt lat="49.87782" lon="4.77996">
        <ele>185</ele>
        <time>2022-09-05T08:45:36.000Z</time>
      </trkpt>
      <trkpt lat="49.87778" lon="4.78001">
        <ele>185</ele>
        <time>2022-09-05T08:45:37.000Z</time>
      </trkpt>
      <trkpt lat="49.87775" lon="4.78005">
        <ele>185</ele>
        <time>2022-09-05T08:45:38.000Z</time>
      </trkpt>
      <trkpt lat="49.87772" lon="4.7801">
        <ele>185</ele>
        <time>2022-09-05T08:45:39.000Z</time>
      </trkpt>
      <trkpt lat="49.87769" lon="4.78014">
        <ele>186</ele>
        <time>2022-09-05T08:45:40.000Z</time>
      </trkpt>
      <trkpt lat="49.87766" lon="4.78019">
        <ele>186</ele>
        <time>2022-09-05T08:45:41.000Z</time>
      </trkpt>
      <trkpt lat="49.87762" lon="4.78024">
        <ele>186</ele>
        <time>2022-09-05T08:45:42.000Z</time>
      </trkpt>
      <trkpt lat="49.87758" lon="4.78028">
        <ele>186</ele>
        <time>2022-09-05T08:45:43.000Z</time>
      </trkpt>
      <trkpt lat="49.87754" lon="4.78032">
        <ele>186</ele>
        <time>2022-09-05T08:45:44.000Z</time>
      </trkpt>
      <trkpt lat="49.8775" lon="4.78036">
        <ele>186</ele>
        <time>2022-09-05T08:45:45.000Z</time>
      </trkpt>
      <trkpt lat="49.87747" lon="4.7804">
        <ele>186</ele>
        <time>2022-09-05T08:45:46.000Z</time>
      </trkpt>
      <trkpt lat="49.87744" lon="4.78045">
        <ele>186</ele>
        <time>2022-09-05T08:45:47.000Z</time>
      </trkpt>
      <trkpt lat="49.87741" lon="4.7805">
        <ele>186</ele>
        <time>2022-09-05T08:45:48.000Z</time>
      </trkpt>
      <trkpt lat="49.87738" lon="4.78056">
        <ele>186</ele>
        <time>2022-09-05T08:45:49.000Z</time>
      </trkpt>
      <trkpt lat="49.87736" lon="4.78062">
        <ele>186</ele>
        <time>2022-09-05T08:45:50.000Z</time>
      </trkpt>
      <trkpt lat="49.87733" lon="4.78068">
        <ele>186</ele>
        <time>2022-09-05T08:45:51.000Z</time>
      </trkpt>
      <trkpt lat="49.8773" lon="4.78073">
        <ele>186</ele>
        <time>2022-09-05T08:45:52.000Z</time>
      </trkpt>
      <trkpt lat="49.87727" lon="4.78079">
        <ele>186</ele>
        <time>2022-09-05T08:45:53.000Z</time>
      </trkpt>
      <trkpt lat="49.87725" lon="4.78085">
        <ele>187</ele>
        <time>2022-09-05T08:45:54.000Z</time>
      </trkpt>
      <trkpt lat="49.87724" lon="4.7809">
        <ele>187</ele>
        <time>2022-09-05T08:45:55.000Z</time>
      </trkpt>
      <trkpt lat="49.87723" lon="4.78097">
        <ele>187</ele>
        <time>2022-09-05T08:45:56.000Z</time>
      </trkpt>
      <trkpt lat="49.87722" lon="4.78102">
        <ele>187</ele>
        <time>2022-09-05T08:45:57.000Z</time>
      </trkpt>
      <trkpt lat="49.87722" lon="4.78104">
        <ele>187</ele>
        <time>2022-09-05T08:45:58.000Z</time>
      </trkpt>
      <trkpt lat="49.87721" lon="4.78105">
        <ele>187</ele>
        <time>2022-09-05T08:45:59.000Z</time>
      </trkpt>
      <trkpt lat="49.87721" lon="4.78106">
        <ele>187</ele>
        <time>2022-09-05T08:46:00.000Z</time>
      </trkpt>
      <trkpt lat="49.87721" lon="4.78108">
        <ele>187</ele>
        <time>2022-09-05T08:46:01.000Z</time>
      </trkpt>
      <trkpt lat="49.87721" lon="4.78109">
        <ele>187</ele>
        <time>2022-09-05T08:46:02.000Z</time>
      </trkpt>
      <trkpt lat="49.87722" lon="4.78111">
        <ele>187</ele>
        <time>2022-09-05T08:46:03.000Z</time>
      </trkpt>
      <trkpt lat="49.87722" lon="4.78113">
        <ele>188</ele>
        <time>2022-09-05T08:46:04.000Z</time>
      </trkpt>
      <trkpt lat="49.87722" lon="4.78114">
        <ele>188</ele>
        <time>2022-09-05T08:46:05.000Z</time>
      </trkpt>
      <trkpt lat="49.87721" lon="4.78115">
        <ele>188</ele>
        <time>2022-09-05T08:46:06.000Z</time>
      </trkpt>
      <trkpt lat="49.87722" lon="4.78116">
        <ele>188</ele>
        <time>2022-09-05T08:46:07.000Z</time>
      </trkpt>
      <trkpt lat="49.87722" lon="4.78117">
        <ele>188</ele>
        <time>2022-09-05T08:46:08.000Z</time>
      </trkpt>
      <trkpt lat="49.87722" lon="4.78118">
        <ele>188</ele>
        <time>2022-09-05T08:46:09.000Z</time>
      </trkpt>
      <trkpt lat="49.87722" lon="4.78118">
        <ele>188</ele>
        <time>2022-09-05T08:46:10.000Z</time>
      </trkpt>
      <trkpt lat="49.87722" lon="4.78119">
        <ele>188</ele>
        <time>2022-09-05T08:46:11.000Z</time>
      </trkpt>
      <trkpt lat="49.87722" lon="4.78119">
        <ele>188</ele>
        <time>2022-09-05T08:46:12.000Z</time>
      </trkpt>
      <trkpt lat="49.87722" lon="4.7812">
        <ele>188</ele>
        <time>2022-09-05T08:46:13.000Z</time>
      </trkpt>
      <trkpt lat="49.87722" lon="4.78121">
        <ele>188</ele>
        <time>2022-09-05T08:46:14.000Z</time>
      </trkpt>
      <trkpt lat="49.87722" lon="4.78122">
        <ele>188</ele>
        <time>2022-09-05T08:46:15.000Z</time>
      </trkpt>
      <trkpt lat="49.87722" lon="4.78123">
        <ele>188</ele>
        <time>2022-09-05T08:46:16.000Z</time>
      </trkpt>
      <trkpt lat="49.87722" lon="4.78124">
        <ele>188</ele>
        <time>2022-09-05T08:46:17.000Z</time>
      </trkpt>
      <trkpt lat="49.87722" lon="4.78125">
        <ele>188</ele>
        <time>2022-09-05T08:46:18.000Z</time>
      </trkpt>
      <trkpt lat="49.87722" lon="4.78125">
        <ele>188</ele>
        <time>2022-09-05T08:46:19.000Z</time>
      </trkpt>
      <trkpt lat="49.87722" lon="4.78127">
        <ele>188</ele>
        <time>2022-09-05T08:46:20.000Z</time>
      </trkpt>
      <trkpt lat="49.87723" lon="4.78128">
        <ele>188</ele>
        <time>2022-09-05T08:46:21.000Z</time>
      </trkpt>
      <trkpt lat="49.87723" lon="4.78129">
        <ele>188</ele>
        <time>2022-09-05T08:46:22.000Z</time>
      </trkpt>
      <trkpt lat="49.87723" lon="4.7813">
        <ele>188</ele>
        <time>2022-09-05T08:46:23.000Z</time>
      </trkpt>
      <trkpt lat="49.87723" lon="4.7813">
        <ele>188</ele>
        <time>2022-09-05T08:46:24.000Z</time>
      </trkpt>
      <trkpt lat="49.87723" lon="4.7813">
        <ele>188</ele>
        <time>2022-09-05T08:46:25.000Z</time>
      </trkpt>
      <trkpt lat="49.87723" lon="4.78131">
        <ele>188</ele>
        <time>2022-09-05T08:46:26.000Z</time>
      </trkpt>
      <trkpt lat="49.87723" lon="4.78132">
        <ele>188</ele>
        <time>2022-09-05T08:46:27.000Z</time>
      </trkpt>
      <trkpt lat="49.87723" lon="4.78132">
        <ele>188</ele>
        <time>2022-09-05T08:46:28.000Z</time>
      </trkpt>
      <trkpt lat="49.87724" lon="4.78133">
        <ele>188</ele>
        <time>2022-09-05T08:46:29.000Z</time>
      </trkpt>
      <trkpt lat="49.87724" lon="4.78134">
        <ele>188</ele>
        <time>2022-09-05T08:46:30.000Z</time>
      </trkpt>
      <trkpt lat="49.87724" lon="4.78134">
        <ele>188</ele>
        <time>2022-09-05T08:46:31.000Z</time>
      </trkpt>
      <trkpt lat="49.87725" lon="4.78135">
        <ele>189</ele>
        <time>2022-09-05T08:46:32.000Z</time>
      </trkpt>
      <trkpt lat="49.87725" lon="4.78136">
        <ele>189</ele>
        <time>2022-09-05T08:46:33.000Z</time>
      </trkpt>
      <trkpt lat="49.87725" lon="4.78137">
        <ele>189</ele>
        <time>2022-09-05T08:46:34.000Z</time>
      </trkpt>
      <trkpt lat="49.87726" lon="4.78137">
        <ele>188</ele>
        <time>2022-09-05T08:46:35.000Z</time>
      </trkpt>
      <trkpt lat="49.87726" lon="4.78138">
        <ele>188</ele>
        <time>2022-09-05T08:46:36.000Z</time>
      </trkpt>
      <trkpt lat="49.87726" lon="4.78138">
        <ele>188</ele>
        <time>2022-09-05T08:46:37.000Z</time>
      </trkpt>
      <trkpt lat="49.87727" lon="4.78138">
        <ele>188</ele>
        <time>2022-09-05T08:46:38.000Z</time>
      </trkpt>
      <trkpt lat="49.87727" lon="4.78139">
        <ele>188</ele>
        <time>2022-09-05T08:46:39.000Z</time>
      </trkpt>
      <trkpt lat="49.87728" lon="4.78139">
        <ele>188</ele>
        <time>2022-09-05T08:46:40.000Z</time>
      </trkpt>
      <trkpt lat="49.87728" lon="4.78139">
        <ele>188</ele>
        <time>2022-09-05T08:46:41.000Z</time>
      </trkpt>
      <trkpt lat="49.87728" lon="4.78139">
        <ele>188</ele>
        <time>2022-09-05T08:46:42.000Z</time>
      </trkpt>
      <trkpt lat="49.87728" lon="4.7814">
        <ele>188</ele>
        <time>2022-09-05T08:46:43.000Z</time>
      </trkpt>
      <trkpt lat="49.87728" lon="4.7814">
        <ele>188</ele>
        <time>2022-09-05T08:46:44.000Z</time>
      </trkpt>
      <trkpt lat="49.87728" lon="4.7814">
        <ele>188</ele>
        <time>2022-09-05T08:46:45.000Z</time>
      </trkpt>
      <trkpt lat="49.87729" lon="4.78141">
        <ele>187</ele>
        <time>2022-09-05T08:46:46.000Z</time>
      </trkpt>
      <trkpt lat="49.8773" lon="4.78141">
        <ele>187</ele>
        <time>2022-09-05T08:46:47.000Z</time>
      </trkpt>
      <trkpt lat="49.8773" lon="4.78142">
        <ele>187</ele>
        <time>2022-09-05T08:46:48.000Z</time>
      </trkpt>
      <trkpt lat="49.87731" lon="4.78143">
        <ele>187</ele>
        <time>2022-09-05T08:46:49.000Z</time>
      </trkpt>
      <trkpt lat="49.87731" lon="4.78144">
        <ele>187</ele>
        <time>2022-09-05T08:46:50.000Z</time>
      </trkpt>
      <trkpt lat="49.87732" lon="4.78145">
        <ele>186</ele>
        <time>2022-09-05T08:46:51.000Z</time>
      </trkpt>
      <trkpt lat="49.87732" lon="4.78145">
        <ele>186</ele>
        <time>2022-09-05T08:46:52.000Z</time>
      </trkpt>
      <trkpt lat="49.87732" lon="4.78146">
        <ele>186</ele>
        <time>2022-09-05T08:46:53.000Z</time>
      </trkpt>
      <trkpt lat="49.87733" lon="4.78146">
        <ele>185</ele>
        <time>2022-09-05T08:46:54.000Z</time>
      </trkpt>
      <trkpt lat="49.87733" lon="4.78146">
        <ele>185</ele>
        <time>2022-09-05T08:46:55.000Z</time>
      </trkpt>
      <trkpt lat="49.87733" lon="4.78146">
        <ele>185</ele>
        <time>2022-09-05T08:46:56.000Z</time>
      </trkpt>
      <trkpt lat="49.87733" lon="4.78147">
        <ele>185</ele>
        <time>2022-09-05T08:46:57.000Z</time>
      </trkpt>
      <trkpt lat="49.87733" lon="4.78147">
        <ele>185</ele>
        <time>2022-09-05T08:46:58.000Z</time>
      </trkpt>
      <trkpt lat="49.87733" lon="4.78147">
        <ele>185</ele>
        <time>2022-09-05T08:46:59.000Z</time>
      </trkpt>
      <trkpt lat="49.87733" lon="4.78147">
        <ele>184</ele>
        <time>2022-09-05T08:47:00.000Z</time>
      </trkpt>
      <trkpt lat="49.87734" lon="4.78147">
        <ele>184</ele>
        <time>2022-09-05T08:47:01.000Z</time>
      </trkpt>
      <trkpt lat="49.87734" lon="4.78148">
        <ele>184</ele>
        <time>2022-09-05T08:47:02.000Z</time>
      </trkpt>
      <trkpt lat="49.87734" lon="4.78148">
        <ele>184</ele>
        <time>2022-09-05T08:47:03.000Z</time>
      </trkpt>
      <trkpt lat="49.87735" lon="4.78148">
        <ele>184</ele>
        <time>2022-09-05T08:47:04.000Z</time>
      </trkpt>
      <trkpt lat="49.87734" lon="4.78148">
        <ele>184</ele>
        <time>2022-09-05T08:47:05.000Z</time>
      </trkpt>
      <trkpt lat="49.87734" lon="4.78149">
        <ele>184</ele>
        <time>2022-09-05T08:47:06.000Z</time>
      </trkpt>
      <trkpt lat="49.87734" lon="4.7815">
        <ele>184</ele>
        <time>2022-09-05T08:47:07.000Z</time>
      </trkpt>
      <trkpt lat="49.87735" lon="4.7815">
        <ele>184</ele>
        <time>2022-09-05T08:47:08.000Z</time>
      </trkpt>
      <trkpt lat="49.87735" lon="4.7815">
        <ele>184</ele>
        <time>2022-09-05T08:47:09.000Z</time>
      </trkpt>
      <trkpt lat="49.87736" lon="4.7815">
        <ele>184</ele>
        <time>2022-09-05T08:47:10.000Z</time>
      </trkpt>
      <trkpt lat="49.87737" lon="4.78151">
        <ele>184</ele>
        <time>2022-09-05T08:47:11.000Z</time>
      </trkpt>
      <trkpt lat="49.87738" lon="4.78151">
        <ele>184</ele>
        <time>2022-09-05T08:47:12.000Z</time>
      </trkpt>
      <trkpt lat="49.87738" lon="4.78151">
        <ele>183</ele>
        <time>2022-09-05T08:47:13.000Z</time>
      </trkpt>
      <trkpt lat="49.87738" lon="4.78151">
        <ele>183</ele>
        <time>2022-09-05T08:47:14.000Z</time>
      </trkpt>
      <trkpt lat="49.87738" lon="4.78151">
        <ele>183</ele>
        <time>2022-09-05T08:47:15.000Z</time>
      </trkpt>
      <trkpt lat="49.87739" lon="4.78152">
        <ele>183</ele>
        <time>2022-09-05T08:47:16.000Z</time>
      </trkpt>
      <trkpt lat="49.87739" lon="4.78153">
        <ele>183</ele>
        <time>2022-09-05T08:47:17.000Z</time>
      </trkpt>
      <trkpt lat="49.87739" lon="4.78153">
        <ele>183</ele>
        <time>2022-09-05T08:47:18.000Z</time>
      </trkpt>
      <trkpt lat="49.87739" lon="4.78153">
        <ele>183</ele>
        <time>2022-09-05T08:47:19.000Z</time>
      </trkpt>
      <trkpt lat="49.87739" lon="4.78153">
        <ele>183</ele>
        <time>2022-09-05T08:47:20.000Z</time>
      </trkpt>
      <trkpt lat="49.8774" lon="4.78154">
        <ele>182</ele>
        <time>2022-09-05T08:47:21.000Z</time>
      </trkpt>
      <trkpt lat="49.8774" lon="4.78153">
        <ele>182</ele>
        <time>2022-09-05T08:47:22.000Z</time>
      </trkpt>
      <trkpt lat="49.87741" lon="4.78154">
        <ele>182</ele>
        <time>2022-09-05T08:47:23.000Z</time>
      </trkpt>
      <trkpt lat="49.87741" lon="4.78154">
        <ele>182</ele>
        <time>2022-09-05T08:47:24.000Z</time>
      </trkpt>
      <trkpt lat="49.87741" lon="4.78154">
        <ele>181</ele>
        <time>2022-09-05T08:47:25.000Z</time>
      </trkpt>
      <trkpt lat="49.87742" lon="4.78155">
        <ele>181</ele>
        <time>2022-09-05T08:47:26.000Z</time>
      </trkpt>
      <trkpt lat="49.87742" lon="4.78155">
        <ele>181</ele>
        <time>2022-09-05T08:47:27.000Z</time>
      </trkpt>
      <trkpt lat="49.87743" lon="4.78156">
        <ele>180</ele>
        <time>2022-09-05T08:47:28.000Z</time>
      </trkpt>
      <trkpt lat="49.87744" lon="4.78157">
        <ele>180</ele>
        <time>2022-09-05T08:47:29.000Z</time>
      </trkpt>
      <trkpt lat="49.87745" lon="4.78157">
        <ele>180</ele>
        <time>2022-09-05T08:47:30.000Z</time>
      </trkpt>
      <trkpt lat="49.87745" lon="4.78158">
        <ele>179</ele>
        <time>2022-09-05T08:47:31.000Z</time>
      </trkpt>
      <trkpt lat="49.87745" lon="4.78158">
        <ele>179</ele>
        <time>2022-09-05T08:47:32.000Z</time>
      </trkpt>
      <trkpt lat="49.87746" lon="4.78159">
        <ele>179</ele>
        <time>2022-09-05T08:47:33.000Z</time>
      </trkpt>
      <trkpt lat="49.87746" lon="4.7816">
        <ele>178</ele>
        <time>2022-09-05T08:47:34.000Z</time>
      </trkpt>
      <trkpt lat="49.87746" lon="4.7816">
        <ele>178</ele>
        <time>2022-09-05T08:47:35.000Z</time>
      </trkpt>
      <trkpt lat="49.87747" lon="4.78161">
        <ele>178</ele>
        <time>2022-09-05T08:47:36.000Z</time>
      </trkpt>
      <trkpt lat="49.87747" lon="4.78162">
        <ele>177</ele>
        <time>2022-09-05T08:47:37.000Z</time>
      </trkpt>
      <trkpt lat="49.87747" lon="4.78162">
        <ele>177</ele>
        <time>2022-09-05T08:47:38.000Z</time>
      </trkpt>
      <trkpt lat="49.87748" lon="4.78163">
        <ele>177</ele>
        <time>2022-09-05T08:47:39.000Z</time>
      </trkpt>
      <trkpt lat="49.87748" lon="4.78163">
        <ele>176</ele>
        <time>2022-09-05T08:47:40.000Z</time>
      </trkpt>
      <trkpt lat="49.87748" lon="4.78164">
        <ele>176</ele>
        <time>2022-09-05T08:47:41.000Z</time>
      </trkpt>
      <trkpt lat="49.87749" lon="4.78165">
        <ele>176</ele>
        <time>2022-09-05T08:47:42.000Z</time>
      </trkpt>
      <trkpt lat="49.87749" lon="4.78165">
        <ele>176</ele>
        <time>2022-09-05T08:47:43.000Z</time>
      </trkpt>
      <trkpt lat="49.8775" lon="4.78166">
        <ele>176</ele>
        <time>2022-09-05T08:47:44.000Z</time>
      </trkpt>
      <trkpt lat="49.8775" lon="4.78167">
        <ele>176</ele>
        <time>2022-09-05T08:47:45.000Z</time>
      </trkpt>
      <trkpt lat="49.8775" lon="4.78168">
        <ele>176</ele>
        <time>2022-09-05T08:47:46.000Z</time>
      </trkpt>
      <trkpt lat="49.87751" lon="4.78169">
        <ele>176</ele>
        <time>2022-09-05T08:47:47.000Z</time>
      </trkpt>
      <trkpt lat="49.87751" lon="4.7817">
        <ele>175</ele>
        <time>2022-09-05T08:47:48.000Z</time>
      </trkpt>
      <trkpt lat="49.87751" lon="4.78171">
        <ele>175</ele>
        <time>2022-09-05T08:47:49.000Z</time>
      </trkpt>
      <trkpt lat="49.87751" lon="4.78172">
        <ele>175</ele>
        <time>2022-09-05T08:47:50.000Z</time>
      </trkpt>
      <trkpt lat="49.87751" lon="4.78172">
        <ele>175</ele>
        <time>2022-09-05T08:47:51.000Z</time>
      </trkpt>
      <trkpt lat="49.87751" lon="4.78173">
        <ele>175</ele>
        <time>2022-09-05T08:47:52.000Z</time>
      </trkpt>
      <trkpt lat="49.87751" lon="4.78174">
        <ele>175</ele>
        <time>2022-09-05T08:47:53.000Z</time>
      </trkpt>
      <trkpt lat="49.87751" lon="4.78174">
        <ele>175</ele>
        <time>2022-09-05T08:47:54.000Z</time>
      </trkpt>
      <trkpt lat="49.87751" lon="4.78175">
        <ele>175</ele>
        <time>2022-09-05T08:47:55.000Z</time>
      </trkpt>
      <trkpt lat="49.87751" lon="4.78175">
        <ele>174</ele>
        <time>2022-09-05T08:47:56.000Z</time>
      </trkpt>
      <trkpt lat="49.87751" lon="4.78176">
        <ele>174</ele>
        <time>2022-09-05T08:47:57.000Z</time>
      </trkpt>
      <trkpt lat="49.87751" lon="4.78177">
        <ele>174</ele>
        <time>2022-09-05T08:47:58.000Z</time>
      </trkpt>
      <trkpt lat="49.8775" lon="4.78177">
        <ele>173</ele>
        <time>2022-09-05T08:47:59.000Z</time>
      </trkpt>
      <trkpt lat="49.8775" lon="4.78178">
        <ele>173</ele>
        <time>2022-09-05T08:48:00.000Z</time>
      </trkpt>
      <trkpt lat="49.8775" lon="4.78179">
        <ele>173</ele>
        <time>2022-09-05T08:48:01.000Z</time>
      </trkpt>
      <trkpt lat="49.87749" lon="4.78181">
        <ele>172</ele>
        <time>2022-09-05T08:48:02.000Z</time>
      </trkpt>
      <trkpt lat="49.87749" lon="4.78183">
        <ele>172</ele>
        <time>2022-09-05T08:48:03.000Z</time>
      </trkpt>
      <trkpt lat="49.87749" lon="4.78185">
        <ele>172</ele>
        <time>2022-09-05T08:48:04.000Z</time>
      </trkpt>
      <trkpt lat="49.87748" lon="4.78186">
        <ele>171</ele>
        <time>2022-09-05T08:48:05.000Z</time>
      </trkpt>
      <trkpt lat="49.87748" lon="4.78187">
        <ele>170</ele>
        <time>2022-09-05T08:48:06.000Z</time>
      </trkpt>
      <trkpt lat="49.87748" lon="4.78187">
        <ele>170</ele>
        <time>2022-09-05T08:48:07.000Z</time>
      </trkpt>
      <trkpt lat="49.87747" lon="4.78188">
        <ele>169</ele>
        <time>2022-09-05T08:48:08.000Z</time>
      </trkpt>
      <trkpt lat="49.87746" lon="4.78189">
        <ele>168</ele>
        <time>2022-09-05T08:48:09.000Z</time>
      </trkpt>
      <trkpt lat="49.87745" lon="4.7819">
        <ele>167</ele>
        <time>2022-09-05T08:48:10.000Z</time>
      </trkpt>
      <trkpt lat="49.87742" lon="4.78192">
        <ele>166</ele>
        <time>2022-09-05T08:48:11.000Z</time>
      </trkpt>
      <trkpt lat="49.87739" lon="4.78195">
        <ele>166</ele>
        <time>2022-09-05T08:48:12.000Z</time>
      </trkpt>
      <trkpt lat="49.87736" lon="4.78197">
        <ele>165</ele>
        <time>2022-09-05T08:48:13.000Z</time>
      </trkpt>
      <trkpt lat="49.87733" lon="4.782">
        <ele>164</ele>
        <time>2022-09-05T08:48:14.000Z</time>
      </trkpt>
      <trkpt lat="49.87729" lon="4.78202">
        <ele>164</ele>
        <time>2022-09-05T08:48:15.000Z</time>
      </trkpt>
      <trkpt lat="49.87726" lon="4.78204">
        <ele>163</ele>
        <time>2022-09-05T08:48:16.000Z</time>
      </trkpt>
      <trkpt lat="49.87722" lon="4.78207">
        <ele>162</ele>
        <time>2022-09-05T08:48:17.000Z</time>
      </trkpt>
      <trkpt lat="49.87719" lon="4.7821">
        <ele>162</ele>
        <time>2022-09-05T08:48:18.000Z</time>
      </trkpt>
      <trkpt lat="49.87715" lon="4.78213">
        <ele>161</ele>
        <time>2022-09-05T08:48:19.000Z</time>
      </trkpt>
      <trkpt lat="49.87712" lon="4.78216">
        <ele>160</ele>
        <time>2022-09-05T08:48:20.000Z</time>
      </trkpt>
      <trkpt lat="49.87708" lon="4.7822">
        <ele>160</ele>
        <time>2022-09-05T08:48:21.000Z</time>
      </trkpt>
      <trkpt lat="49.87705" lon="4.78224">
        <ele>159</ele>
        <time>2022-09-05T08:48:22.000Z</time>
      </trkpt>
      <trkpt lat="49.87701" lon="4.78227">
        <ele>159</ele>
        <time>2022-09-05T08:48:23.000Z</time>
      </trkpt>
      <trkpt lat="49.87697" lon="4.7823">
        <ele>158</ele>
        <time>2022-09-05T08:48:24.000Z</time>
      </trkpt>
      <trkpt lat="49.87694" lon="4.78234">
        <ele>158</ele>
        <time>2022-09-05T08:48:25.000Z</time>
      </trkpt>
      <trkpt lat="49.8769" lon="4.78237">
        <ele>157</ele>
        <time>2022-09-05T08:48:26.000Z</time>
      </trkpt>
      <trkpt lat="49.87687" lon="4.78241">
        <ele>157</ele>
        <time>2022-09-05T08:48:27.000Z</time>
      </trkpt>
      <trkpt lat="49.87683" lon="4.78244">
        <ele>157</ele>
        <time>2022-09-05T08:48:28.000Z</time>
      </trkpt>
      <trkpt lat="49.8768" lon="4.78246">
        <ele>156</ele>
        <time>2022-09-05T08:48:29.000Z</time>
      </trkpt>
      <trkpt lat="49.87676" lon="4.78249">
        <ele>156</ele>
        <time>2022-09-05T08:48:30.000Z</time>
      </trkpt>
      <trkpt lat="49.87673" lon="4.78251">
        <ele>156</ele>
        <time>2022-09-05T08:48:31.000Z</time>
      </trkpt>
      <trkpt lat="49.87669" lon="4.78254">
        <ele>156</ele>
        <time>2022-09-05T08:48:32.000Z</time>
      </trkpt>
      <trkpt lat="49.87665" lon="4.78257">
        <ele>155</ele>
        <time>2022-09-05T08:48:33.000Z</time>
      </trkpt>
      <trkpt lat="49.87661" lon="4.78259">
        <ele>155</ele>
        <time>2022-09-05T08:48:34.000Z</time>
      </trkpt>
      <trkpt lat="49.87658" lon="4.78262">
        <ele>155</ele>
        <time>2022-09-05T08:48:35.000Z</time>
      </trkpt>
      <trkpt lat="49.87654" lon="4.78264">
        <ele>155</ele>
        <time>2022-09-05T08:48:36.000Z</time>
      </trkpt>
      <trkpt lat="49.87651" lon="4.78267">
        <ele>155</ele>
        <time>2022-09-05T08:48:37.000Z</time>
      </trkpt>
      <trkpt lat="49.87647" lon="4.7827">
        <ele>155</ele>
        <time>2022-09-05T08:48:38.000Z</time>
      </trkpt>
      <trkpt lat="49.87644" lon="4.78273">
        <ele>154</ele>
        <time>2022-09-05T08:48:39.000Z</time>
      </trkpt>
      <trkpt lat="49.8764" lon="4.78277">
        <ele>154</ele>
        <time>2022-09-05T08:48:40.000Z</time>
      </trkpt>
      <trkpt lat="49.87636" lon="4.7828">
        <ele>154</ele>
        <time>2022-09-05T08:48:41.000Z</time>
      </trkpt>
      <trkpt lat="49.87632" lon="4.78282">
        <ele>154</ele>
        <time>2022-09-05T08:48:42.000Z</time>
      </trkpt>
      <trkpt lat="49.87628" lon="4.78284">
        <ele>154</ele>
        <time>2022-09-05T08:48:43.000Z</time>
      </trkpt>
      <trkpt lat="49.87624" lon="4.78286">
        <ele>154</ele>
        <time>2022-09-05T08:48:44.000Z</time>
      </trkpt>
      <trkpt lat="49.8762" lon="4.78289">
        <ele>154</ele>
        <time>2022-09-05T08:48:45.000Z</time>
      </trkpt>
      <trkpt lat="49.87616" lon="4.78291">
        <ele>154</ele>
        <time>2022-09-05T08:48:46.000Z</time>
      </trkpt>
      <trkpt lat="49.87612" lon="4.78293">
        <ele>154</ele>
        <time>2022-09-05T08:48:47.000Z</time>
      </trkpt>
      <trkpt lat="49.87607" lon="4.78295">
        <ele>153</ele>
        <time>2022-09-05T08:48:48.000Z</time>
      </trkpt>
      <trkpt lat="49.87603" lon="4.78297">
        <ele>153</ele>
        <time>2022-09-05T08:48:49.000Z</time>
      </trkpt>
      <trkpt lat="49.87599" lon="4.78298">
        <ele>153</ele>
        <time>2022-09-05T08:48:50.000Z</time>
      </trkpt>
      <trkpt lat="49.87596" lon="4.78298">
        <ele>153</ele>
        <time>2022-09-05T08:48:51.000Z</time>
      </trkpt>
      <trkpt lat="49.87592" lon="4.78298">
        <ele>153</ele>
        <time>2022-09-05T08:48:52.000Z</time>
      </trkpt>
      <trkpt lat="49.87589" lon="4.78298">
        <ele>153</ele>
        <time>2022-09-05T08:48:53.000Z</time>
      </trkpt>
      <trkpt lat="49.87586" lon="4.78298">
        <ele>153</ele>
        <time>2022-09-05T08:48:54.000Z</time>
      </trkpt>
      <trkpt lat="49.87583" lon="4.78297">
        <ele>153</ele>
        <time>2022-09-05T08:48:55.000Z</time>
      </trkpt>
      <trkpt lat="49.87581" lon="4.78297">
        <ele>154</ele>
        <time>2022-09-05T08:48:56.000Z</time>
      </trkpt>
      <trkpt lat="49.87579" lon="4.78296">
        <ele>154</ele>
        <time>2022-09-05T08:48:57.000Z</time>
      </trkpt>
      <trkpt lat="49.87576" lon="4.78295">
        <ele>154</ele>
        <time>2022-09-05T08:48:58.000Z</time>
      </trkpt>
      <trkpt lat="49.87573" lon="4.78294">
        <ele>154</ele>
        <time>2022-09-05T08:48:59.000Z</time>
      </trkpt>
      <trkpt lat="49.87571" lon="4.78293">
        <ele>154</ele>
        <time>2022-09-05T08:49:00.000Z</time>
      </trkpt>
      <trkpt lat="49.87568" lon="4.78291">
        <ele>154</ele>
        <time>2022-09-05T08:49:01.000Z</time>
      </trkpt>
      <trkpt lat="49.87566" lon="4.7829">
        <ele>154</ele>
        <time>2022-09-05T08:49:02.000Z</time>
      </trkpt>
      <trkpt lat="49.87564" lon="4.7829">
        <ele>154</ele>
        <time>2022-09-05T08:49:03.000Z</time>
      </trkpt>
      <trkpt lat="49.87561" lon="4.78289">
        <ele>154</ele>
        <time>2022-09-05T08:49:04.000Z</time>
      </trkpt>
      <trkpt lat="49.87559" lon="4.78288">
        <ele>154</ele>
        <time>2022-09-05T08:49:05.000Z</time>
      </trkpt>
      <trkpt lat="49.87556" lon="4.78286">
        <ele>154</ele>
        <time>2022-09-05T08:49:06.000Z</time>
      </trkpt>
      <trkpt lat="49.87553" lon="4.78285">
        <ele>154</ele>
        <time>2022-09-05T08:49:07.000Z</time>
      </trkpt>
      <trkpt lat="49.8755" lon="4.78284">
        <ele>154</ele>
        <time>2022-09-05T08:49:08.000Z</time>
      </trkpt>
      <trkpt lat="49.87547" lon="4.78283">
        <ele>154</ele>
        <time>2022-09-05T08:49:09.000Z</time>
      </trkpt>
      <trkpt lat="49.87544" lon="4.78282">
        <ele>154</ele>
        <time>2022-09-05T08:49:10.000Z</time>
      </trkpt>
      <trkpt lat="49.87541" lon="4.78281">
        <ele>154</ele>
        <time>2022-09-05T08:49:11.000Z</time>
      </trkpt>
      <trkpt lat="49.87538" lon="4.78281">
        <ele>154</ele>
        <time>2022-09-05T08:49:12.000Z</time>
      </trkpt>
      <trkpt lat="49.87535" lon="4.78281">
        <ele>155</ele>
        <time>2022-09-05T08:49:13.000Z</time>
      </trkpt>
      <trkpt lat="49.87532" lon="4.7828">
        <ele>155</ele>
        <time>2022-09-05T08:49:14.000Z</time>
      </trkpt>
      <trkpt lat="49.87529" lon="4.7828">
        <ele>155</ele>
        <time>2022-09-05T08:49:15.000Z</time>
      </trkpt>
      <trkpt lat="49.87526" lon="4.7828">
        <ele>155</ele>
        <time>2022-09-05T08:49:16.000Z</time>
      </trkpt>
      <trkpt lat="49.87523" lon="4.7828">
        <ele>155</ele>
        <time>2022-09-05T08:49:17.000Z</time>
      </trkpt>
      <trkpt lat="49.8752" lon="4.7828">
        <ele>155</ele>
        <time>2022-09-05T08:49:18.000Z</time>
      </trkpt>
      <trkpt lat="49.87517" lon="4.7828">
        <ele>155</ele>
        <time>2022-09-05T08:49:19.000Z</time>
      </trkpt>
      <trkpt lat="49.87514" lon="4.7828">
        <ele>155</ele>
        <time>2022-09-05T08:49:20.000Z</time>
      </trkpt>
      <trkpt lat="49.87511" lon="4.78281">
        <ele>155</ele>
        <time>2022-09-05T08:49:21.000Z</time>
      </trkpt>
      <trkpt lat="49.87508" lon="4.78281">
        <ele>155</ele>
        <time>2022-09-05T08:49:22.000Z</time>
      </trkpt>
      <trkpt lat="49.87506" lon="4.7828">
        <ele>155</ele>
        <time>2022-09-05T08:49:23.000Z</time>
      </trkpt>
      <trkpt lat="49.87503" lon="4.7828">
        <ele>155</ele>
        <time>2022-09-05T08:49:24.000Z</time>
      </trkpt>
      <trkpt lat="49.875" lon="4.7828">
        <ele>155</ele>
        <time>2022-09-05T08:49:25.000Z</time>
      </trkpt>
      <trkpt lat="49.87497" lon="4.7828">
        <ele>155</ele>
        <time>2022-09-05T08:49:26.000Z</time>
      </trkpt>
      <trkpt lat="49.87494" lon="4.7828">
        <ele>155</ele>
        <time>2022-09-05T08:49:27.000Z</time>
      </trkpt>
      <trkpt lat="49.87491" lon="4.7828">
        <ele>155</ele>
        <time>2022-09-05T08:49:28.000Z</time>
      </trkpt>
      <trkpt lat="49.87488" lon="4.7828">
        <ele>155</ele>
        <time>2022-09-05T08:49:29.000Z</time>
      </trkpt>
      <trkpt lat="49.87485" lon="4.7828">
        <ele>155</ele>
        <time>2022-09-05T08:49:30.000Z</time>
      </trkpt>
      <trkpt lat="49.87481" lon="4.7828">
        <ele>155</ele>
        <time>2022-09-05T08:49:31.000Z</time>
      </trkpt>
      <trkpt lat="49.87478" lon="4.7828">
        <ele>155</ele>
        <time>2022-09-05T08:49:32.000Z</time>
      </trkpt>
      <trkpt lat="49.87475" lon="4.7828">
        <ele>155</ele>
        <time>2022-09-05T08:49:33.000Z</time>
      </trkpt>
      <trkpt lat="49.87472" lon="4.78279">
        <ele>155</ele>
        <time>2022-09-05T08:49:34.000Z</time>
      </trkpt>
      <trkpt lat="49.87469" lon="4.78279">
        <ele>155</ele>
        <time>2022-09-05T08:49:35.000Z</time>
      </trkpt>
      <trkpt lat="49.87466" lon="4.78278">
        <ele>155</ele>
        <time>2022-09-05T08:49:36.000Z</time>
      </trkpt>
      <trkpt lat="49.87463" lon="4.78277">
        <ele>155</ele>
        <time>2022-09-05T08:49:37.000Z</time>
      </trkpt>
      <trkpt lat="49.8746" lon="4.78276">
        <ele>156</ele>
        <time>2022-09-05T08:49:38.000Z</time>
      </trkpt>
      <trkpt lat="49.87457" lon="4.78275">
        <ele>156</ele>
        <time>2022-09-05T08:49:39.000Z</time>
      </trkpt>
      <trkpt lat="49.87454" lon="4.78274">
        <ele>156</ele>
        <time>2022-09-05T08:49:40.000Z</time>
      </trkpt>
      <trkpt lat="49.87451" lon="4.78272">
        <ele>156</ele>
        <time>2022-09-05T08:49:41.000Z</time>
      </trkpt>
      <trkpt lat="49.87449" lon="4.78271">
        <ele>156</ele>
        <time>2022-09-05T08:49:42.000Z</time>
      </trkpt>
      <trkpt lat="49.87446" lon="4.7827">
        <ele>156</ele>
        <time>2022-09-05T08:49:43.000Z</time>
      </trkpt>
      <trkpt lat="49.87443" lon="4.78269">
        <ele>156</ele>
        <time>2022-09-05T08:49:44.000Z</time>
      </trkpt>
      <trkpt lat="49.8744" lon="4.78267">
        <ele>156</ele>
        <time>2022-09-05T08:49:45.000Z</time>
      </trkpt>
      <trkpt lat="49.87437" lon="4.78266">
        <ele>156</ele>
        <time>2022-09-05T08:49:46.000Z</time>
      </trkpt>
      <trkpt lat="49.87434" lon="4.78265">
        <ele>156</ele>
        <time>2022-09-05T08:49:47.000Z</time>
      </trkpt>
      <trkpt lat="49.87432" lon="4.78264">
        <ele>157</ele>
        <time>2022-09-05T08:49:48.000Z</time>
      </trkpt>
      <trkpt lat="49.87429" lon="4.78263">
        <ele>157</ele>
        <time>2022-09-05T08:49:49.000Z</time>
      </trkpt>
      <trkpt lat="49.87426" lon="4.78262">
        <ele>157</ele>
        <time>2022-09-05T08:49:50.000Z</time>
      </trkpt>
      <trkpt lat="49.87424" lon="4.78259">
        <ele>157</ele>
        <time>2022-09-05T08:49:51.000Z</time>
      </trkpt>
      <trkpt lat="49.87424" lon="4.78257">
        <ele>157</ele>
        <time>2022-09-05T08:49:52.000Z</time>
      </trkpt>
      <trkpt lat="49.87424" lon="4.78256">
        <ele>157</ele>
        <time>2022-09-05T08:49:53.000Z</time>
      </trkpt>
      <trkpt lat="49.87424" lon="4.78255">
        <ele>157</ele>
        <time>2022-09-05T08:49:54.000Z</time>
      </trkpt>
      <trkpt lat="49.87424" lon="4.78256">
        <ele>157</ele>
        <time>2022-09-05T08:49:55.000Z</time>
      </trkpt>
      <trkpt lat="49.87424" lon="4.78255">
        <ele>157</ele>
        <time>2022-09-05T08:49:56.000Z</time>
      </trkpt>
      <trkpt lat="49.87425" lon="4.78254">
        <ele>157</ele>
        <time>2022-09-05T08:49:57.000Z</time>
      </trkpt>
      <trkpt lat="49.87426" lon="4.78253">
        <ele>157</ele>
        <time>2022-09-05T08:49:58.000Z</time>
      </trkpt>
      <trkpt lat="49.87427" lon="4.78252">
        <ele>157</ele>
        <time>2022-09-05T08:49:59.000Z</time>
      </trkpt>
      <trkpt lat="49.87428" lon="4.78251">
        <ele>157</ele>
        <time>2022-09-05T08:50:00.000Z</time>
      </trkpt>
      <trkpt lat="49.87429" lon="4.7825">
        <ele>157</ele>
        <time>2022-09-05T08:50:01.000Z</time>
      </trkpt>
      <trkpt lat="49.8743" lon="4.78249">
        <ele>158</ele>
        <time>2022-09-05T08:50:02.000Z</time>
      </trkpt>
      <trkpt lat="49.87431" lon="4.78249">
        <ele>158</ele>
        <time>2022-09-05T08:50:03.000Z</time>
      </trkpt>
      <trkpt lat="49.87432" lon="4.78248">
        <ele>158</ele>
        <time>2022-09-05T08:50:04.000Z</time>
      </trkpt>
      <trkpt lat="49.87433" lon="4.78247">
        <ele>158</ele>
        <time>2022-09-05T08:50:05.000Z</time>
      </trkpt>
      <trkpt lat="49.87434" lon="4.78247">
        <ele>158</ele>
        <time>2022-09-05T08:50:06.000Z</time>
      </trkpt>
      <trkpt lat="49.87435" lon="4.78246">
        <ele>158</ele>
        <time>2022-09-05T08:50:07.000Z</time>
      </trkpt>
      <trkpt lat="49.87436" lon="4.78245">
        <ele>158</ele>
        <time>2022-09-05T08:50:08.000Z</time>
      </trkpt>
      <trkpt lat="49.87436" lon="4.78244">
        <ele>158</ele>
        <time>2022-09-05T08:50:09.000Z</time>
      </trkpt>
      <trkpt lat="49.87437" lon="4.78243">
        <ele>158</ele>
        <time>2022-09-05T08:50:10.000Z</time>
      </trkpt>
      <trkpt lat="49.87437" lon="4.78243">
        <ele>158</ele>
        <time>2022-09-05T08:50:11.000Z</time>
      </trkpt>
      <trkpt lat="49.87437" lon="4.78243">
        <ele>158</ele>
        <time>2022-09-05T08:50:12.000Z</time>
      </trkpt>
      <trkpt lat="49.87438" lon="4.78242">
        <ele>158</ele>
        <time>2022-09-05T08:50:13.000Z</time>
      </trkpt>
      <trkpt lat="49.87438" lon="4.78242">
        <ele>158</ele>
        <time>2022-09-05T08:50:14.000Z</time>
      </trkpt>
      <trkpt lat="49.87439" lon="4.78241">
        <ele>158</ele>
        <time>2022-09-05T08:50:15.000Z</time>
      </trkpt>
      <trkpt lat="49.87441" lon="4.7824">
        <ele>158</ele>
        <time>2022-09-05T08:50:16.000Z</time>
      </trkpt>
      <trkpt lat="49.87442" lon="4.7824">
        <ele>158</ele>
        <time>2022-09-05T08:50:17.000Z</time>
      </trkpt>
      <trkpt lat="49.87444" lon="4.7824">
        <ele>158</ele>
        <time>2022-09-05T08:50:18.000Z</time>
      </trkpt>
      <trkpt lat="49.87445" lon="4.78238">
        <ele>159</ele>
        <time>2022-09-05T08:50:19.000Z</time>
      </trkpt>
      <trkpt lat="49.87447" lon="4.78237">
        <ele>159</ele>
        <time>2022-09-05T08:50:20.000Z</time>
      </trkpt>
      <trkpt lat="49.87449" lon="4.78236">
        <ele>159</ele>
        <time>2022-09-05T08:50:21.000Z</time>
      </trkpt>
      <trkpt lat="49.87451" lon="4.78235">
        <ele>159</ele>
        <time>2022-09-05T08:50:22.000Z</time>
      </trkpt>
      <trkpt lat="49.87453" lon="4.78235">
        <ele>159</ele>
        <time>2022-09-05T08:50:23.000Z</time>
      </trkpt>
      <trkpt lat="49.87455" lon="4.78233">
        <ele>159</ele>
        <time>2022-09-05T08:50:24.000Z</time>
      </trkpt>
      <trkpt lat="49.87457" lon="4.78232">
        <ele>159</ele>
        <time>2022-09-05T08:50:25.000Z</time>
      </trkpt>
      <trkpt lat="49.87459" lon="4.78231">
        <ele>159</ele>
        <time>2022-09-05T08:50:26.000Z</time>
      </trkpt>
      <trkpt lat="49.87461" lon="4.7823">
        <ele>159</ele>
        <time>2022-09-05T08:50:27.000Z</time>
      </trkpt>
      <trkpt lat="49.87462" lon="4.78229">
        <ele>159</ele>
        <time>2022-09-05T08:50:28.000Z</time>
      </trkpt>
      <trkpt lat="49.87464" lon="4.78228">
        <ele>159</ele>
        <time>2022-09-05T08:50:29.000Z</time>
      </trkpt>
      <trkpt lat="49.87465" lon="4.78227">
        <ele>160</ele>
        <time>2022-09-05T08:50:30.000Z</time>
      </trkpt>
      <trkpt lat="49.87467" lon="4.78226">
        <ele>160</ele>
        <time>2022-09-05T08:50:31.000Z</time>
      </trkpt>
      <trkpt lat="49.87469" lon="4.78224">
        <ele>160</ele>
        <time>2022-09-05T08:50:32.000Z</time>
      </trkpt>
      <trkpt lat="49.87471" lon="4.78222">
        <ele>161</ele>
        <time>2022-09-05T08:50:33.000Z</time>
      </trkpt>
      <trkpt lat="49.87473" lon="4.78221">
        <ele>161</ele>
        <time>2022-09-05T08:50:34.000Z</time>
      </trkpt>
      <trkpt lat="49.87475" lon="4.7822">
        <ele>161</ele>
        <time>2022-09-05T08:50:35.000Z</time>
      </trkpt>
      <trkpt lat="49.87477" lon="4.78219">
        <ele>162</ele>
        <time>2022-09-05T08:50:36.000Z</time>
      </trkpt>
      <trkpt lat="49.87479" lon="4.78219">
        <ele>162</ele>
        <time>2022-09-05T08:50:37.000Z</time>
      </trkpt>
      <trkpt lat="49.8748" lon="4.78217">
        <ele>162</ele>
        <time>2022-09-05T08:50:38.000Z</time>
      </trkpt>
      <trkpt lat="49.87482" lon="4.78216">
        <ele>163</ele>
        <time>2022-09-05T08:50:39.000Z</time>
      </trkpt>
      <trkpt lat="49.87484" lon="4.78214">
        <ele>163</ele>
        <time>2022-09-05T08:50:40.000Z</time>
      </trkpt>
      <trkpt lat="49.87486" lon="4.78212">
        <ele>164</ele>
        <time>2022-09-05T08:50:41.000Z</time>
      </trkpt>
      <trkpt lat="49.87487" lon="4.7821">
        <ele>164</ele>
        <time>2022-09-05T08:50:42.000Z</time>
      </trkpt>
      <trkpt lat="49.87489" lon="4.78207">
        <ele>164</ele>
        <time>2022-09-05T08:50:43.000Z</time>
      </trkpt>
      <trkpt lat="49.8749" lon="4.78205">
        <ele>165</ele>
        <time>2022-09-05T08:50:44.000Z</time>
      </trkpt>
      <trkpt lat="49.87491" lon="4.78203">
        <ele>165</ele>
        <time>2022-09-05T08:50:45.000Z</time>
      </trkpt>
      <trkpt lat="49.87493" lon="4.78202">
        <ele>165</ele>
        <time>2022-09-05T08:50:46.000Z</time>
      </trkpt>
      <trkpt lat="49.87496" lon="4.78201">
        <ele>166</ele>
        <time>2022-09-05T08:50:47.000Z</time>
      </trkpt>
      <trkpt lat="49.87498" lon="4.782">
        <ele>166</ele>
        <time>2022-09-05T08:50:48.000Z</time>
      </trkpt>
      <trkpt lat="49.875" lon="4.78199">
        <ele>166</ele>
        <time>2022-09-05T08:50:49.000Z</time>
      </trkpt>
      <trkpt lat="49.87502" lon="4.78198">
        <ele>167</ele>
        <time>2022-09-05T08:50:50.000Z</time>
      </trkpt>
      <trkpt lat="49.87505" lon="4.78196">
        <ele>167</ele>
        <time>2022-09-05T08:50:51.000Z</time>
      </trkpt>
      <trkpt lat="49.87506" lon="4.78195">
        <ele>168</ele>
        <time>2022-09-05T08:50:52.000Z</time>
      </trkpt>
      <trkpt lat="49.87508" lon="4.78194">
        <ele>168</ele>
        <time>2022-09-05T08:50:53.000Z</time>
      </trkpt>
      <trkpt lat="49.87509" lon="4.78193">
        <ele>168</ele>
        <time>2022-09-05T08:50:54.000Z</time>
      </trkpt>
      <trkpt lat="49.87511" lon="4.78192">
        <ele>169</ele>
        <time>2022-09-05T08:50:55.000Z</time>
      </trkpt>
      <trkpt lat="49.87513" lon="4.78191">
        <ele>169</ele>
        <time>2022-09-05T08:50:56.000Z</time>
      </trkpt>
      <trkpt lat="49.87515" lon="4.7819">
        <ele>170</ele>
        <time>2022-09-05T08:50:57.000Z</time>
      </trkpt>
      <trkpt lat="49.87517" lon="4.78189">
        <ele>170</ele>
        <time>2022-09-05T08:50:58.000Z</time>
      </trkpt>
      <trkpt lat="49.8752" lon="4.78188">
        <ele>170</ele>
        <time>2022-09-05T08:50:59.000Z</time>
      </trkpt>
      <trkpt lat="49.87522" lon="4.78187">
        <ele>171</ele>
        <time>2022-09-05T08:51:00.000Z</time>
      </trkpt>
      <trkpt lat="49.87524" lon="4.78186">
        <ele>171</ele>
        <time>2022-09-05T08:51:01.000Z</time>
      </trkpt>
      <trkpt lat="49.87526" lon="4.78186">
        <ele>172</ele>
        <time>2022-09-05T08:51:02.000Z</time>
      </trkpt>
      <trkpt lat="49.87528" lon="4.78185">
        <ele>172</ele>
        <time>2022-09-05T08:51:03.000Z</time>
      </trkpt>
      <trkpt lat="49.8753" lon="4.78184">
        <ele>173</ele>
        <time>2022-09-05T08:51:04.000Z</time>
      </trkpt>
      <trkpt lat="49.87532" lon="4.78184">
        <ele>173</ele>
        <time>2022-09-05T08:51:05.000Z</time>
      </trkpt>
      <trkpt lat="49.87533" lon="4.78183">
        <ele>174</ele>
        <time>2022-09-05T08:51:06.000Z</time>
      </trkpt>
      <trkpt lat="49.87535" lon="4.78183">
        <ele>174</ele>
        <time>2022-09-05T08:51:07.000Z</time>
      </trkpt>
      <trkpt lat="49.87537" lon="4.78182">
        <ele>175</ele>
        <time>2022-09-05T08:51:08.000Z</time>
      </trkpt>
      <trkpt lat="49.87538" lon="4.78182">
        <ele>175</ele>
        <time>2022-09-05T08:51:09.000Z</time>
      </trkpt>
      <trkpt lat="49.8754" lon="4.78182">
        <ele>176</ele>
        <time>2022-09-05T08:51:10.000Z</time>
      </trkpt>
      <trkpt lat="49.87543" lon="4.78181">
        <ele>176</ele>
        <time>2022-09-05T08:51:11.000Z</time>
      </trkpt>
      <trkpt lat="49.87544" lon="4.78181">
        <ele>177</ele>
        <time>2022-09-05T08:51:12.000Z</time>
      </trkpt>
      <trkpt lat="49.87546" lon="4.7818">
        <ele>177</ele>
        <time>2022-09-05T08:51:13.000Z</time>
      </trkpt>
      <trkpt lat="49.87548" lon="4.78179">
        <ele>178</ele>
        <time>2022-09-05T08:51:14.000Z</time>
      </trkpt>
      <trkpt lat="49.8755" lon="4.78179">
        <ele>178</ele>
        <time>2022-09-05T08:51:15.000Z</time>
      </trkpt>
      <trkpt lat="49.87551" lon="4.78178">
        <ele>178</ele>
        <time>2022-09-05T08:51:16.000Z</time>
      </trkpt>
      <trkpt lat="49.87552" lon="4.78178">
        <ele>179</ele>
        <time>2022-09-05T08:51:17.000Z</time>
      </trkpt>
      <trkpt lat="49.87554" lon="4.78178">
        <ele>179</ele>
        <time>2022-09-05T08:51:18.000Z</time>
      </trkpt>
      <trkpt lat="49.87555" lon="4.78177">
        <ele>180</ele>
        <time>2022-09-05T08:51:19.000Z</time>
      </trkpt>
      <trkpt lat="49.87557" lon="4.78177">
        <ele>180</ele>
        <time>2022-09-05T08:51:20.000Z</time>
      </trkpt>
      <trkpt lat="49.87559" lon="4.78177">
        <ele>181</ele>
        <time>2022-09-05T08:51:21.000Z</time>
      </trkpt>
      <trkpt lat="49.87561" lon="4.78176">
        <ele>181</ele>
        <time>2022-09-05T08:51:22.000Z</time>
      </trkpt>
      <trkpt lat="49.87564" lon="4.78175">
        <ele>181</ele>
        <time>2022-09-05T08:51:23.000Z</time>
      </trkpt>
      <trkpt lat="49.87565" lon="4.78175">
        <ele>182</ele>
        <time>2022-09-05T08:51:24.000Z</time>
      </trkpt>
      <trkpt lat="49.87567" lon="4.78174">
        <ele>182</ele>
        <time>2022-09-05T08:51:25.000Z</time>
      </trkpt>
      <trkpt lat="49.87568" lon="4.78174">
        <ele>182</ele>
        <time>2022-09-05T08:51:26.000Z</time>
      </trkpt>
      <trkpt lat="49.8757" lon="4.78174">
        <ele>183</ele>
        <time>2022-09-05T08:51:27.000Z</time>
      </trkpt>
      <trkpt lat="49.87572" lon="4.78174">
        <ele>183</ele>
        <time>2022-09-05T08:51:28.000Z</time>
      </trkpt>
      <trkpt lat="49.87574" lon="4.78173">
        <ele>183</ele>
        <time>2022-09-05T08:51:29.000Z</time>
      </trkpt>
      <trkpt lat="49.87576" lon="4.78172">
        <ele>183</ele>
        <time>2022-09-05T08:51:30.000Z</time>
      </trkpt>
      <trkpt lat="49.87577" lon="4.78172">
        <ele>184</ele>
        <time>2022-09-05T08:51:31.000Z</time>
      </trkpt>
      <trkpt lat="49.87579" lon="4.78172">
        <ele>184</ele>
        <time>2022-09-05T08:51:32.000Z</time>
      </trkpt>
      <trkpt lat="49.8758" lon="4.78172">
        <ele>184</ele>
        <time>2022-09-05T08:51:33.000Z</time>
      </trkpt>
      <trkpt lat="49.87581" lon="4.78172">
        <ele>184</ele>
        <time>2022-09-05T08:51:34.000Z</time>
      </trkpt>
      <trkpt lat="49.87583" lon="4.78172">
        <ele>185</ele>
        <time>2022-09-05T08:51:35.000Z</time>
      </trkpt>
      <trkpt lat="49.87584" lon="4.78172">
        <ele>185</ele>
        <time>2022-09-05T08:51:36.000Z</time>
      </trkpt>
      <trkpt lat="49.87585" lon="4.78171">
        <ele>185</ele>
        <time>2022-09-05T08:51:37.000Z</time>
      </trkpt>
      <trkpt lat="49.87586" lon="4.78171">
        <ele>186</ele>
        <time>2022-09-05T08:51:38.000Z</time>
      </trkpt>
      <trkpt lat="49.87588" lon="4.7817">
        <ele>186</ele>
        <time>2022-09-05T08:51:39.000Z</time>
      </trkpt>
      <trkpt lat="49.87589" lon="4.7817">
        <ele>187</ele>
        <time>2022-09-05T08:51:40.000Z</time>
      </trkpt>
      <trkpt lat="49.8759" lon="4.7817">
        <ele>187</ele>
        <time>2022-09-05T08:51:41.000Z</time>
      </trkpt>
      <trkpt lat="49.87592" lon="4.7817">
        <ele>187</ele>
        <time>2022-09-05T08:51:42.000Z</time>
      </trkpt>
      <trkpt lat="49.87593" lon="4.7817">
        <ele>188</ele>
        <time>2022-09-05T08:51:43.000Z</time>
      </trkpt>
      <trkpt lat="49.87594" lon="4.78169">
        <ele>188</ele>
        <time>2022-09-05T08:51:44.000Z</time>
      </trkpt>
      <trkpt lat="49.87595" lon="4.78169">
        <ele>188</ele>
        <time>2022-09-05T08:51:45.000Z</time>
      </trkpt>
      <trkpt lat="49.87597" lon="4.78169">
        <ele>188</ele>
        <time>2022-09-05T08:51:46.000Z</time>
      </trkpt>
      <trkpt lat="49.87599" lon="4.78169">
        <ele>188</ele>
        <time>2022-09-05T08:51:47.000Z</time>
      </trkpt>
      <trkpt lat="49.876" lon="4.78168">
        <ele>189</ele>
        <time>2022-09-05T08:51:48.000Z</time>
      </trkpt>
      <trkpt lat="49.87602" lon="4.78168">
        <ele>189</ele>
        <time>2022-09-05T08:51:49.000Z</time>
      </trkpt>
      <trkpt lat="49.87604" lon="4.78167">
        <ele>189</ele>
        <time>2022-09-05T08:51:50.000Z</time>
      </trkpt>
      <trkpt lat="49.87605" lon="4.78167">
        <ele>189</ele>
        <time>2022-09-05T08:51:51.000Z</time>
      </trkpt>
      <trkpt lat="49.87606" lon="4.78167">
        <ele>189</ele>
        <time>2022-09-05T08:51:52.000Z</time>
      </trkpt>
      <trkpt lat="49.87606" lon="4.78167">
        <ele>190</ele>
        <time>2022-09-05T08:51:53.000Z</time>
      </trkpt>
      <trkpt lat="49.87607" lon="4.78167">
        <ele>190</ele>
        <time>2022-09-05T08:51:54.000Z</time>
      </trkpt>
      <trkpt lat="49.87608" lon="4.78167">
        <ele>190</ele>
        <time>2022-09-05T08:51:55.000Z</time>
      </trkpt>
      <trkpt lat="49.87609" lon="4.78167">
        <ele>190</ele>
        <time>2022-09-05T08:51:56.000Z</time>
      </trkpt>
      <trkpt lat="49.8761" lon="4.78167">
        <ele>190</ele>
        <time>2022-09-05T08:51:57.000Z</time>
      </trkpt>
      <trkpt lat="49.87611" lon="4.78167">
        <ele>191</ele>
        <time>2022-09-05T08:51:58.000Z</time>
      </trkpt>
      <trkpt lat="49.87611" lon="4.78167">
        <ele>191</ele>
        <time>2022-09-05T08:51:59.000Z</time>
      </trkpt>
      <trkpt lat="49.87612" lon="4.78167">
        <ele>191</ele>
        <time>2022-09-05T08:52:00.000Z</time>
      </trkpt>
      <trkpt lat="49.87613" lon="4.78167">
        <ele>191</ele>
        <time>2022-09-05T08:52:01.000Z</time>
      </trkpt>
      <trkpt lat="49.87614" lon="4.78167">
        <ele>191</ele>
        <time>2022-09-05T08:52:02.000Z</time>
      </trkpt>
      <trkpt lat="49.87615" lon="4.78167">
        <ele>191</ele>
        <time>2022-09-05T08:52:03.000Z</time>
      </trkpt>
      <trkpt lat="49.87616" lon="4.78167">
        <ele>192</ele>
        <time>2022-09-05T08:52:04.000Z</time>
      </trkpt>
      <trkpt lat="49.87618" lon="4.78166">
        <ele>192</ele>
        <time>2022-09-05T08:52:05.000Z</time>
      </trkpt>
      <trkpt lat="49.87618" lon="4.78166">
        <ele>192</ele>
        <time>2022-09-05T08:52:06.000Z</time>
      </trkpt>
      <trkpt lat="49.87619" lon="4.78166">
        <ele>192</ele>
        <time>2022-09-05T08:52:07.000Z</time>
      </trkpt>
      <trkpt lat="49.8762" lon="4.78166">
        <ele>192</ele>
        <time>2022-09-05T08:52:08.000Z</time>
      </trkpt>
      <trkpt lat="49.87621" lon="4.78166">
        <ele>192</ele>
        <time>2022-09-05T08:52:09.000Z</time>
      </trkpt>
      <trkpt lat="49.87622" lon="4.78166">
        <ele>192</ele>
        <time>2022-09-05T08:52:10.000Z</time>
      </trkpt>
      <trkpt lat="49.87623" lon="4.78166">
        <ele>192</ele>
        <time>2022-09-05T08:52:11.000Z</time>
      </trkpt>
      <trkpt lat="49.87624" lon="4.78165">
        <ele>192</ele>
        <time>2022-09-05T08:52:12.000Z</time>
      </trkpt>
      <trkpt lat="49.87624" lon="4.78165">
        <ele>192</ele>
        <time>2022-09-05T08:52:13.000Z</time>
      </trkpt>
      <trkpt lat="49.87625" lon="4.78165">
        <ele>192</ele>
        <time>2022-09-05T08:52:14.000Z</time>
      </trkpt>
      <trkpt lat="49.87626" lon="4.78164">
        <ele>193</ele>
        <time>2022-09-05T08:52:15.000Z</time>
      </trkpt>
      <trkpt lat="49.87628" lon="4.78164">
        <ele>193</ele>
        <time>2022-09-05T08:52:16.000Z</time>
      </trkpt>
      <trkpt lat="49.87628" lon="4.78164">
        <ele>193</ele>
        <time>2022-09-05T08:52:17.000Z</time>
      </trkpt>
      <trkpt lat="49.87628" lon="4.78164">
        <ele>193</ele>
        <time>2022-09-05T08:52:18.000Z</time>
      </trkpt>
      <trkpt lat="49.87628" lon="4.78164">
        <ele>193</ele>
        <time>2022-09-05T08:52:19.000Z</time>
      </trkpt>
      <trkpt lat="49.87629" lon="4.78164">
        <ele>193</ele>
        <time>2022-09-05T08:52:20.000Z</time>
      </trkpt>
      <trkpt lat="49.8763" lon="4.78164">
        <ele>193</ele>
        <time>2022-09-05T08:52:21.000Z</time>
      </trkpt>
      <trkpt lat="49.87631" lon="4.78164">
        <ele>193</ele>
        <time>2022-09-05T08:52:22.000Z</time>
      </trkpt>
      <trkpt lat="49.87631" lon="4.78164">
        <ele>193</ele>
        <time>2022-09-05T08:52:23.000Z</time>
      </trkpt>
      <trkpt lat="49.87632" lon="4.78163">
        <ele>193</ele>
        <time>2022-09-05T08:52:24.000Z</time>
      </trkpt>
      <trkpt lat="49.87633" lon="4.78163">
        <ele>193</ele>
        <time>2022-09-05T08:52:25.000Z</time>
      </trkpt>
      <trkpt lat="49.87633" lon="4.78163">
        <ele>193</ele>
        <time>2022-09-05T08:52:26.000Z</time>
      </trkpt>
      <trkpt lat="49.87634" lon="4.78163">
        <ele>193</ele>
        <time>2022-09-05T08:52:27.000Z</time>
      </trkpt>
      <trkpt lat="49.87636" lon="4.78163">
        <ele>193</ele>
        <time>2022-09-05T08:52:28.000Z</time>
      </trkpt>
      <trkpt lat="49.87637" lon="4.78163">
        <ele>194</ele>
        <time>2022-09-05T08:52:29.000Z</time>
      </trkpt>
      <trkpt lat="49.87639" lon="4.78164">
        <ele>194</ele>
        <time>2022-09-05T08:52:30.000Z</time>
      </trkpt>
      <trkpt lat="49.87641" lon="4.78165">
        <ele>194</ele>
        <time>2022-09-05T08:52:31.000Z</time>
      </trkpt>
      <trkpt lat="49.87642" lon="4.78166">
        <ele>194</ele>
        <time>2022-09-05T08:52:32.000Z</time>
      </trkpt>
      <trkpt lat="49.87644" lon="4.78166">
        <ele>194</ele>
        <time>2022-09-05T08:52:33.000Z</time>
      </trkpt>
      <trkpt lat="49.87646" lon="4.78165">
        <ele>194</ele>
        <time>2022-09-05T08:52:34.000Z</time>
      </trkpt>
      <trkpt lat="49.87648" lon="4.78164">
        <ele>194</ele>
        <time>2022-09-05T08:52:35.000Z</time>
      </trkpt>
      <trkpt lat="49.8765" lon="4.78163">
        <ele>194</ele>
        <time>2022-09-05T08:52:36.000Z</time>
      </trkpt>
      <trkpt lat="49.87652" lon="4.78162">
        <ele>194</ele>
        <time>2022-09-05T08:52:37.000Z</time>
      </trkpt>
      <trkpt lat="49.87654" lon="4.7816">
        <ele>194</ele>
        <time>2022-09-05T08:52:38.000Z</time>
      </trkpt>
      <trkpt lat="49.87656" lon="4.78158">
        <ele>194</ele>
        <time>2022-09-05T08:52:39.000Z</time>
      </trkpt>
      <trkpt lat="49.87659" lon="4.78157">
        <ele>194</ele>
        <time>2022-09-05T08:52:40.000Z</time>
      </trkpt>
      <trkpt lat="49.87662" lon="4.78156">
        <ele>194</ele>
        <time>2022-09-05T08:52:41.000Z</time>
      </trkpt>
      <trkpt lat="49.87664" lon="4.78156">
        <ele>194</ele>
        <time>2022-09-05T08:52:42.000Z</time>
      </trkpt>
      <trkpt lat="49.87667" lon="4.78155">
        <ele>194</ele>
        <time>2022-09-05T08:52:43.000Z</time>
      </trkpt>
      <trkpt lat="49.8767" lon="4.78153">
        <ele>194</ele>
        <time>2022-09-05T08:52:44.000Z</time>
      </trkpt>
      <trkpt lat="49.87672" lon="4.78151">
        <ele>194</ele>
        <time>2022-09-05T08:52:45.000Z</time>
      </trkpt>
      <trkpt lat="49.87674" lon="4.78148">
        <ele>194</ele>
        <time>2022-09-05T08:52:46.000Z</time>
      </trkpt>
      <trkpt lat="49.87676" lon="4.78145">
        <ele>194</ele>
        <time>2022-09-05T08:52:47.000Z</time>
      </trkpt>
      <trkpt lat="49.87678" lon="4.78141">
        <ele>194</ele>
        <time>2022-09-05T08:52:48.000Z</time>
      </trkpt>
      <trkpt lat="49.8768" lon="4.78138">
        <ele>194</ele>
        <time>2022-09-05T08:52:49.000Z</time>
      </trkpt>
      <trkpt lat="49.87682" lon="4.78134">
        <ele>194</ele>
        <time>2022-09-05T08:52:50.000Z</time>
      </trkpt>
      <trkpt lat="49.87683" lon="4.78131">
        <ele>194</ele>
        <time>2022-09-05T08:52:51.000Z</time>
      </trkpt>
      <trkpt lat="49.87684" lon="4.78127">
        <ele>194</ele>
        <time>2022-09-05T08:52:52.000Z</time>
      </trkpt>
      <trkpt lat="49.87684" lon="4.78122">
        <ele>194</ele>
        <time>2022-09-05T08:52:53.000Z</time>
      </trkpt>
      <trkpt lat="49.87686" lon="4.78118">
        <ele>194</ele>
        <time>2022-09-05T08:52:54.000Z</time>
      </trkpt>
      <trkpt lat="49.87688" lon="4.78113">
        <ele>194</ele>
        <time>2022-09-05T08:52:55.000Z</time>
      </trkpt>
      <trkpt lat="49.87689" lon="4.78108">
        <ele>195</ele>
        <time>2022-09-05T08:52:56.000Z</time>
      </trkpt>
      <trkpt lat="49.87689" lon="4.78104">
        <ele>195</ele>
        <time>2022-09-05T08:52:57.000Z</time>
      </trkpt>
      <trkpt lat="49.8769" lon="4.78099">
        <ele>195</ele>
        <time>2022-09-05T08:52:58.000Z</time>
      </trkpt>
      <trkpt lat="49.87691" lon="4.78095">
        <ele>195</ele>
        <time>2022-09-05T08:52:59.000Z</time>
      </trkpt>
      <trkpt lat="49.87691" lon="4.78091">
        <ele>195</ele>
        <time>2022-09-05T08:53:00.000Z</time>
      </trkpt>
      <trkpt lat="49.87692" lon="4.78086">
        <ele>195</ele>
        <time>2022-09-05T08:53:01.000Z</time>
      </trkpt>
      <trkpt lat="49.87692" lon="4.78082">
        <ele>195</ele>
        <time>2022-09-05T08:53:02.000Z</time>
      </trkpt>
      <trkpt lat="49.87692" lon="4.78078">
        <ele>195</ele>
        <time>2022-09-05T08:53:03.000Z</time>
      </trkpt>
      <trkpt lat="49.87693" lon="4.78075">
        <ele>195</ele>
        <time>2022-09-05T08:53:04.000Z</time>
      </trkpt>
      <trkpt lat="49.87693" lon="4.78073">
        <ele>196</ele>
        <time>2022-09-05T08:53:05.000Z</time>
      </trkpt>
      <trkpt lat="49.87694" lon="4.7807">
        <ele>196</ele>
        <time>2022-09-05T08:53:06.000Z</time>
      </trkpt>
      <trkpt lat="49.87693" lon="4.78067">
        <ele>196</ele>
        <time>2022-09-05T08:53:07.000Z</time>
      </trkpt>
      <trkpt lat="49.87692" lon="4.78064">
        <ele>196</ele>
        <time>2022-09-05T08:53:08.000Z</time>
      </trkpt>
      <trkpt lat="49.87691" lon="4.7806">
        <ele>196</ele>
        <time>2022-09-05T08:53:09.000Z</time>
      </trkpt>
      <trkpt lat="49.87691" lon="4.78058">
        <ele>196</ele>
        <time>2022-09-05T08:53:10.000Z</time>
      </trkpt>
      <trkpt lat="49.87692" lon="4.78056">
        <ele>196</ele>
        <time>2022-09-05T08:53:11.000Z</time>
      </trkpt>
      <trkpt lat="49.87692" lon="4.78053">
        <ele>196</ele>
        <time>2022-09-05T08:53:12.000Z</time>
      </trkpt>
      <trkpt lat="49.87693" lon="4.78049">
        <ele>197</ele>
        <time>2022-09-05T08:53:13.000Z</time>
      </trkpt>
      <trkpt lat="49.87692" lon="4.78046">
        <ele>197</ele>
        <time>2022-09-05T08:53:14.000Z</time>
      </trkpt>
      <trkpt lat="49.87692" lon="4.78043">
        <ele>197</ele>
        <time>2022-09-05T08:53:15.000Z</time>
      </trkpt>
      <trkpt lat="49.87692" lon="4.78039">
        <ele>197</ele>
        <time>2022-09-05T08:53:16.000Z</time>
      </trkpt>
      <trkpt lat="49.87693" lon="4.78036">
        <ele>198</ele>
        <time>2022-09-05T08:53:17.000Z</time>
      </trkpt>
      <trkpt lat="49.87693" lon="4.78032">
        <ele>198</ele>
        <time>2022-09-05T08:53:18.000Z</time>
      </trkpt>
      <trkpt lat="49.87692" lon="4.78029">
        <ele>198</ele>
        <time>2022-09-05T08:53:19.000Z</time>
      </trkpt>
      <trkpt lat="49.87691" lon="4.78025">
        <ele>199</ele>
        <time>2022-09-05T08:53:20.000Z</time>
      </trkpt>
      <trkpt lat="49.87692" lon="4.78023">
        <ele>199</ele>
        <time>2022-09-05T08:53:21.000Z</time>
      </trkpt>
      <trkpt lat="49.87693" lon="4.7802">
        <ele>200</ele>
        <time>2022-09-05T08:53:22.000Z</time>
      </trkpt>
      <trkpt lat="49.87693" lon="4.78018">
        <ele>200</ele>
        <time>2022-09-05T08:53:23.000Z</time>
      </trkpt>
      <trkpt lat="49.87695" lon="4.78016">
        <ele>200</ele>
        <time>2022-09-05T08:53:24.000Z</time>
      </trkpt>
      <trkpt lat="49.87696" lon="4.78014">
        <ele>201</ele>
        <time>2022-09-05T08:53:25.000Z</time>
      </trkpt>
      <trkpt lat="49.87698" lon="4.78012">
        <ele>201</ele>
        <time>2022-09-05T08:53:26.000Z</time>
      </trkpt>
      <trkpt lat="49.877" lon="4.7801">
        <ele>201</ele>
        <time>2022-09-05T08:53:27.000Z</time>
      </trkpt>
      <trkpt lat="49.87701" lon="4.78008">
        <ele>202</ele>
        <time>2022-09-05T08:53:28.000Z</time>
      </trkpt>
      <trkpt lat="49.87703" lon="4.78005">
        <ele>202</ele>
        <time>2022-09-05T08:53:29.000Z</time>
      </trkpt>
      <trkpt lat="49.87705" lon="4.78002">
        <ele>202</ele>
        <time>2022-09-05T08:53:30.000Z</time>
      </trkpt>
      <trkpt lat="49.87707" lon="4.78001">
        <ele>203</ele>
        <time>2022-09-05T08:53:31.000Z</time>
      </trkpt>
      <trkpt lat="49.8771" lon="4.78">
        <ele>203</ele>
        <time>2022-09-05T08:53:32.000Z</time>
      </trkpt>
      <trkpt lat="49.87713" lon="4.77999">
        <ele>203</ele>
        <time>2022-09-05T08:53:33.000Z</time>
      </trkpt>
      <trkpt lat="49.87717" lon="4.77997">
        <ele>203</ele>
        <time>2022-09-05T08:53:34.000Z</time>
      </trkpt>
      <trkpt lat="49.8772" lon="4.77996">
        <ele>204</ele>
        <time>2022-09-05T08:53:35.000Z</time>
      </trkpt>
      <trkpt lat="49.87721" lon="4.77996">
        <ele>204</ele>
        <time>2022-09-05T08:53:36.000Z</time>
      </trkpt>
      <trkpt lat="49.87721" lon="4.77996">
        <ele>204</ele>
        <time>2022-09-05T08:53:37.000Z</time>
      </trkpt>
      <trkpt lat="49.87722" lon="4.77995">
        <ele>204</ele>
        <time>2022-09-05T08:53:38.000Z</time>
      </trkpt>
      <trkpt lat="49.87722" lon="4.77995">
        <ele>205</ele>
        <time>2022-09-05T08:53:39.000Z</time>
      </trkpt>
      <trkpt lat="49.87723" lon="4.77994">
        <ele>205</ele>
        <time>2022-09-05T08:53:40.000Z</time>
      </trkpt>
      <trkpt lat="49.87724" lon="4.77994">
        <ele>205</ele>
        <time>2022-09-05T08:53:41.000Z</time>
      </trkpt>
      <trkpt lat="49.87726" lon="4.77993">
        <ele>205</ele>
        <time>2022-09-05T08:53:42.000Z</time>
      </trkpt>
      <trkpt lat="49.87728" lon="4.77991">
        <ele>205</ele>
        <time>2022-09-05T08:53:43.000Z</time>
      </trkpt>
      <trkpt lat="49.8773" lon="4.77989">
        <ele>205</ele>
        <time>2022-09-05T08:53:44.000Z</time>
      </trkpt>
      <trkpt lat="49.87732" lon="4.77987">
        <ele>205</ele>
        <time>2022-09-05T08:53:45.000Z</time>
      </trkpt>
      <trkpt lat="49.87735" lon="4.77984">
        <ele>206</ele>
        <time>2022-09-05T08:53:46.000Z</time>
      </trkpt>
      <trkpt lat="49.87737" lon="4.77982">
        <ele>206</ele>
        <time>2022-09-05T08:53:47.000Z</time>
      </trkpt>
      <trkpt lat="49.87741" lon="4.77979">
        <ele>206</ele>
        <time>2022-09-05T08:53:48.000Z</time>
      </trkpt>
      <trkpt lat="49.87743" lon="4.77977">
        <ele>206</ele>
        <time>2022-09-05T08:53:49.000Z</time>
      </trkpt>
      <trkpt lat="49.87744" lon="4.77976">
        <ele>206</ele>
        <time>2022-09-05T08:53:50.000Z</time>
      </trkpt>
      <trkpt lat="49.87745" lon="4.77975">
        <ele>206</ele>
        <time>2022-09-05T08:53:51.000Z</time>
      </trkpt>
      <trkpt lat="49.87747" lon="4.77974">
        <ele>206</ele>
        <time>2022-09-05T08:53:52.000Z</time>
      </trkpt>
      <trkpt lat="49.87749" lon="4.77972">
        <ele>206</ele>
        <time>2022-09-05T08:53:53.000Z</time>
      </trkpt>
      <trkpt lat="49.87751" lon="4.7797">
        <ele>206</ele>
        <time>2022-09-05T08:53:54.000Z</time>
      </trkpt>
      <trkpt lat="49.87752" lon="4.77967">
        <ele>206</ele>
        <time>2022-09-05T08:53:55.000Z</time>
      </trkpt>
      <trkpt lat="49.87754" lon="4.77965">
        <ele>206</ele>
        <time>2022-09-05T08:53:56.000Z</time>
      </trkpt>
      <trkpt lat="49.87755" lon="4.77964">
        <ele>206</ele>
        <time>2022-09-05T08:53:57.000Z</time>
      </trkpt>
      <trkpt lat="49.87756" lon="4.77963">
        <ele>206</ele>
        <time>2022-09-05T08:53:58.000Z</time>
      </trkpt>
      <trkpt lat="49.87756" lon="4.77962">
        <ele>206</ele>
        <time>2022-09-05T08:53:59.000Z</time>
      </trkpt>
      <trkpt lat="49.87757" lon="4.77961">
        <ele>206</ele>
        <time>2022-09-05T08:54:00.000Z</time>
      </trkpt>
      <trkpt lat="49.87757" lon="4.77961">
        <ele>206</ele>
        <time>2022-09-05T08:54:01.000Z</time>
      </trkpt>
      <trkpt lat="49.87758" lon="4.77961">
        <ele>206</ele>
        <time>2022-09-05T08:54:02.000Z</time>
      </trkpt>
      <trkpt lat="49.87758" lon="4.77961">
        <ele>206</ele>
        <time>2022-09-05T08:54:03.000Z</time>
      </trkpt>
      <trkpt lat="49.87758" lon="4.77962">
        <ele>207</ele>
        <time>2022-09-05T08:54:04.000Z</time>
      </trkpt>
      <trkpt lat="49.87758" lon="4.77963">
        <ele>207</ele>
        <time>2022-09-05T08:54:05.000Z</time>
      </trkpt>
      <trkpt lat="49.87757" lon="4.77964">
        <ele>207</ele>
        <time>2022-09-05T08:54:06.000Z</time>
      </trkpt>
      <trkpt lat="49.87757" lon="4.77965">
        <ele>207</ele>
        <time>2022-09-05T08:54:07.000Z</time>
      </trkpt>
      <trkpt lat="49.87756" lon="4.77966">
        <ele>207</ele>
        <time>2022-09-05T08:54:08.000Z</time>
      </trkpt>
      <trkpt lat="49.87755" lon="4.77967">
        <ele>207</ele>
        <time>2022-09-05T08:54:09.000Z</time>
      </trkpt>
      <trkpt lat="49.87754" lon="4.77968">
        <ele>207</ele>
        <time>2022-09-05T08:54:10.000Z</time>
      </trkpt>
      <trkpt lat="49.87753" lon="4.77969">
        <ele>207</ele>
        <time>2022-09-05T08:54:11.000Z</time>
      </trkpt>
      <trkpt lat="49.87752" lon="4.77969">
        <ele>207</ele>
        <time>2022-09-05T08:54:12.000Z</time>
      </trkpt>
      <trkpt lat="49.87752" lon="4.77969">
        <ele>207</ele>
        <time>2022-09-05T08:54:13.000Z</time>
      </trkpt>
      <trkpt lat="49.87752" lon="4.77969">
        <ele>207</ele>
        <time>2022-09-05T08:54:14.000Z</time>
      </trkpt>
      <trkpt lat="49.87752" lon="4.77969">
        <ele>207</ele>
        <time>2022-09-05T08:54:15.000Z</time>
      </trkpt>
      <trkpt lat="49.87752" lon="4.7797">
        <ele>207</ele>
        <time>2022-09-05T08:54:16.000Z</time>
      </trkpt>
      <trkpt lat="49.87751" lon="4.7797">
        <ele>207</ele>
        <time>2022-09-05T08:54:17.000Z</time>
      </trkpt>
      <trkpt lat="49.87751" lon="4.7797">
        <ele>207</ele>
        <time>2022-09-05T08:54:18.000Z</time>
      </trkpt>
      <trkpt lat="49.8775" lon="4.7797">
        <ele>207</ele>
        <time>2022-09-05T08:54:19.000Z</time>
      </trkpt>
      <trkpt lat="49.87749" lon="4.7797">
        <ele>207</ele>
        <time>2022-09-05T08:54:20.000Z</time>
      </trkpt>
      <trkpt lat="49.87748" lon="4.77971">
        <ele>206</ele>
        <time>2022-09-05T08:54:21.000Z</time>
      </trkpt>
      <trkpt lat="49.87747" lon="4.77972">
        <ele>206</ele>
        <time>2022-09-05T08:54:22.000Z</time>
      </trkpt>
      <trkpt lat="49.87745" lon="4.77972">
        <ele>206</ele>
        <time>2022-09-05T08:54:23.000Z</time>
      </trkpt>
      <trkpt lat="49.87743" lon="4.77973">
        <ele>207</ele>
        <time>2022-09-05T08:54:24.000Z</time>
      </trkpt>
      <trkpt lat="49.87742" lon="4.77974">
        <ele>207</ele>
        <time>2022-09-05T08:54:25.000Z</time>
      </trkpt>
      <trkpt lat="49.87741" lon="4.77975">
        <ele>207</ele>
        <time>2022-09-05T08:54:26.000Z</time>
      </trkpt>
      <trkpt lat="49.87739" lon="4.77978">
        <ele>207</ele>
        <time>2022-09-05T08:54:27.000Z</time>
      </trkpt>
      <trkpt lat="49.87737" lon="4.7798">
        <ele>207</ele>
        <time>2022-09-05T08:54:28.000Z</time>
      </trkpt>
      <trkpt lat="49.87736" lon="4.77981">
        <ele>207</ele>
        <time>2022-09-05T08:54:29.000Z</time>
      </trkpt>
      <trkpt lat="49.87734" lon="4.77983">
        <ele>207</ele>
        <time>2022-09-05T08:54:30.000Z</time>
      </trkpt>
      <trkpt lat="49.87733" lon="4.77984">
        <ele>207</ele>
        <time>2022-09-05T08:54:31.000Z</time>
      </trkpt>
      <trkpt lat="49.87732" lon="4.77985">
        <ele>207</ele>
        <time>2022-09-05T08:54:32.000Z</time>
      </trkpt>
      <trkpt lat="49.87731" lon="4.77986">
        <ele>207</ele>
        <time>2022-09-05T08:54:33.000Z</time>
      </trkpt>
      <trkpt lat="49.87729" lon="4.77986">
        <ele>207</ele>
        <time>2022-09-05T08:54:34.000Z</time>
      </trkpt>
      <trkpt lat="49.87727" lon="4.77987">
        <ele>207</ele>
        <time>2022-09-05T08:54:35.000Z</time>
      </trkpt>
      <trkpt lat="49.87724" lon="4.77987">
        <ele>207</ele>
        <time>2022-09-05T08:54:36.000Z</time>
      </trkpt>
      <trkpt lat="49.87722" lon="4.77988">
        <ele>208</ele>
        <time>2022-09-05T08:54:37.000Z</time>
      </trkpt>
      <trkpt lat="49.87721" lon="4.77988">
        <ele>208</ele>
        <time>2022-09-05T08:54:38.000Z</time>
      </trkpt>
      <trkpt lat="49.87721" lon="4.77989">
        <ele>208</ele>
        <time>2022-09-05T08:54:39.000Z</time>
      </trkpt>
      <trkpt lat="49.87721" lon="4.77989">
        <ele>208</ele>
        <time>2022-09-05T08:54:40.000Z</time>
      </trkpt>
      <trkpt lat="49.8772" lon="4.7799">
        <ele>208</ele>
        <time>2022-09-05T08:54:41.000Z</time>
      </trkpt>
      <trkpt lat="49.8772" lon="4.7799">
        <ele>209</ele>
        <time>2022-09-05T08:54:42.000Z</time>
      </trkpt>
      <trkpt lat="49.8772" lon="4.77991">
        <ele>209</ele>
        <time>2022-09-05T08:54:43.000Z</time>
      </trkpt>
      <trkpt lat="49.8772" lon="4.77991">
        <ele>209</ele>
        <time>2022-09-05T08:54:44.000Z</time>
      </trkpt>
      <trkpt lat="49.87719" lon="4.77991">
        <ele>209</ele>
        <time>2022-09-05T08:54:45.000Z</time>
      </trkpt>
      <trkpt lat="49.87719" lon="4.77992">
        <ele>209</ele>
        <time>2022-09-05T08:54:46.000Z</time>
      </trkpt>
      <trkpt lat="49.87718" lon="4.77992">
        <ele>209</ele>
        <time>2022-09-05T08:54:47.000Z</time>
      </trkpt>
      <trkpt lat="49.87717" lon="4.77992">
        <ele>210</ele>
        <time>2022-09-05T08:54:48.000Z</time>
      </trkpt>
      <trkpt lat="49.87715" lon="4.77993">
        <ele>210</ele>
        <time>2022-09-05T08:54:49.000Z</time>
      </trkpt>
      <trkpt lat="49.87713" lon="4.77996">
        <ele>210</ele>
        <time>2022-09-05T08:54:50.000Z</time>
      </trkpt>
      <trkpt lat="49.87712" lon="4.77998">
        <ele>210</ele>
        <time>2022-09-05T08:54:51.000Z</time>
      </trkpt>
      <trkpt lat="49.8771" lon="4.78001">
        <ele>210</ele>
        <time>2022-09-05T08:54:52.000Z</time>
      </trkpt>
      <trkpt lat="49.87709" lon="4.78004">
        <ele>210</ele>
        <time>2022-09-05T08:54:53.000Z</time>
      </trkpt>
      <trkpt lat="49.87706" lon="4.78007">
        <ele>211</ele>
        <time>2022-09-05T08:54:54.000Z</time>
      </trkpt>
      <trkpt lat="49.87704" lon="4.7801">
        <ele>211</ele>
        <time>2022-09-05T08:54:55.000Z</time>
      </trkpt>
      <trkpt lat="49.87703" lon="4.78013">
        <ele>211</ele>
        <time>2022-09-05T08:54:56.000Z</time>
      </trkpt>
      <trkpt lat="49.87702" lon="4.78018">
        <ele>211</ele>
        <time>2022-09-05T08:54:57.000Z</time>
      </trkpt>
      <trkpt lat="49.87703" lon="4.78022">
        <ele>211</ele>
        <time>2022-09-05T08:54:58.000Z</time>
      </trkpt>
      <trkpt lat="49.87703" lon="4.78027">
        <ele>211</ele>
        <time>2022-09-05T08:54:59.000Z</time>
      </trkpt>
      <trkpt lat="49.87703" lon="4.78031">
        <ele>211</ele>
        <time>2022-09-05T08:55:00.000Z</time>
      </trkpt>
      <trkpt lat="49.87702" lon="4.78035">
        <ele>211</ele>
        <time>2022-09-05T08:55:01.000Z</time>
      </trkpt>
      <trkpt lat="49.87702" lon="4.78039">
        <ele>211</ele>
        <time>2022-09-05T08:55:02.000Z</time>
      </trkpt>
      <trkpt lat="49.87702" lon="4.78043">
        <ele>211</ele>
        <time>2022-09-05T08:55:03.000Z</time>
      </trkpt>
      <trkpt lat="49.87701" lon="4.78048">
        <ele>211</ele>
        <time>2022-09-05T08:55:04.000Z</time>
      </trkpt>
      <trkpt lat="49.87701" lon="4.78052">
        <ele>211</ele>
        <time>2022-09-05T08:55:05.000Z</time>
      </trkpt>
      <trkpt lat="49.87701" lon="4.78055">
        <ele>211</ele>
        <time>2022-09-05T08:55:06.000Z</time>
      </trkpt>
      <trkpt lat="49.877" lon="4.78057">
        <ele>210</ele>
        <time>2022-09-05T08:55:07.000Z</time>
      </trkpt>
      <trkpt lat="49.877" lon="4.78061">
        <ele>210</ele>
        <time>2022-09-05T08:55:08.000Z</time>
      </trkpt>
      <trkpt lat="49.877" lon="4.78065">
        <ele>210</ele>
        <time>2022-09-05T08:55:09.000Z</time>
      </trkpt>
      <trkpt lat="49.877" lon="4.78069">
        <ele>210</ele>
        <time>2022-09-05T08:55:10.000Z</time>
      </trkpt>
      <trkpt lat="49.877" lon="4.78072">
        <ele>210</ele>
        <time>2022-09-05T08:55:11.000Z</time>
      </trkpt>
      <trkpt lat="49.877" lon="4.78075">
        <ele>210</ele>
        <time>2022-09-05T08:55:12.000Z</time>
      </trkpt>
      <trkpt lat="49.877" lon="4.78077">
        <ele>210</ele>
        <time>2022-09-05T08:55:13.000Z</time>
      </trkpt>
      <trkpt lat="49.87699" lon="4.78081">
        <ele>209</ele>
        <time>2022-09-05T08:55:14.000Z</time>
      </trkpt>
      <trkpt lat="49.87699" lon="4.78085">
        <ele>209</ele>
        <time>2022-09-05T08:55:15.000Z</time>
      </trkpt>
      <trkpt lat="49.87699" lon="4.7809">
        <ele>209</ele>
        <time>2022-09-05T08:55:16.000Z</time>
      </trkpt>
      <trkpt lat="49.87698" lon="4.78095">
        <ele>209</ele>
        <time>2022-09-05T08:55:17.000Z</time>
      </trkpt>
      <trkpt lat="49.87697" lon="4.78101">
        <ele>208</ele>
        <time>2022-09-05T08:55:18.000Z</time>
      </trkpt>
      <trkpt lat="49.87695" lon="4.78106">
        <ele>208</ele>
        <time>2022-09-05T08:55:19.000Z</time>
      </trkpt>
      <trkpt lat="49.87694" lon="4.7811">
        <ele>208</ele>
        <time>2022-09-05T08:55:20.000Z</time>
      </trkpt>
      <trkpt lat="49.87693" lon="4.78116">
        <ele>208</ele>
        <time>2022-09-05T08:55:21.000Z</time>
      </trkpt>
      <trkpt lat="49.87691" lon="4.78121">
        <ele>208</ele>
        <time>2022-09-05T08:55:22.000Z</time>
      </trkpt>
      <trkpt lat="49.8769" lon="4.78128">
        <ele>207</ele>
        <time>2022-09-05T08:55:23.000Z</time>
      </trkpt>
      <trkpt lat="49.87688" lon="4.78134">
        <ele>207</ele>
        <time>2022-09-05T08:55:24.000Z</time>
      </trkpt>
      <trkpt lat="49.87686" lon="4.78139">
        <ele>207</ele>
        <time>2022-09-05T08:55:25.000Z</time>
      </trkpt>
      <trkpt lat="49.87683" lon="4.78144">
        <ele>207</ele>
        <time>2022-09-05T08:55:26.000Z</time>
      </trkpt>
      <trkpt lat="49.8768" lon="4.78147">
        <ele>206</ele>
        <time>2022-09-05T08:55:27.000Z</time>
      </trkpt>
      <trkpt lat="49.87678" lon="4.78151">
        <ele>206</ele>
        <time>2022-09-05T08:55:28.000Z</time>
      </trkpt>
      <trkpt lat="49.87674" lon="4.78154">
        <ele>206</ele>
        <time>2022-09-05T08:55:29.000Z</time>
      </trkpt>
      <trkpt lat="49.87671" lon="4.78154">
        <ele>206</ele>
        <time>2022-09-05T08:55:30.000Z</time>
      </trkpt>
      <trkpt lat="49.87667" lon="4.78156">
        <ele>205</ele>
        <time>2022-09-05T08:55:31.000Z</time>
      </trkpt>
      <trkpt lat="49.87664" lon="4.78157">
        <ele>205</ele>
        <time>2022-09-05T08:55:32.000Z</time>
      </trkpt>
      <trkpt lat="49.87661" lon="4.78159">
        <ele>204</ele>
        <time>2022-09-05T08:55:33.000Z</time>
      </trkpt>
      <trkpt lat="49.87659" lon="4.78162">
        <ele>204</ele>
        <time>2022-09-05T08:55:34.000Z</time>
      </trkpt>
      <trkpt lat="49.87656" lon="4.78164">
        <ele>204</ele>
        <time>2022-09-05T08:55:35.000Z</time>
      </trkpt>
      <trkpt lat="49.87652" lon="4.78165">
        <ele>203</ele>
        <time>2022-09-05T08:55:36.000Z</time>
      </trkpt>
      <trkpt lat="49.87648" lon="4.78165">
        <ele>203</ele>
        <time>2022-09-05T08:55:37.000Z</time>
      </trkpt>
      <trkpt lat="49.87645" lon="4.78163">
        <ele>203</ele>
        <time>2022-09-05T08:55:38.000Z</time>
      </trkpt>
      <trkpt lat="49.87642" lon="4.78163">
        <ele>203</ele>
        <time>2022-09-05T08:55:39.000Z</time>
      </trkpt>
      <trkpt lat="49.8764" lon="4.78163">
        <ele>202</ele>
        <time>2022-09-05T08:55:40.000Z</time>
      </trkpt>
      <trkpt lat="49.87637" lon="4.78164">
        <ele>202</ele>
        <time>2022-09-05T08:55:41.000Z</time>
      </trkpt>
      <trkpt lat="49.87634" lon="4.78165">
        <ele>202</ele>
        <time>2022-09-05T08:55:42.000Z</time>
      </trkpt>
      <trkpt lat="49.87631" lon="4.78166">
        <ele>201</ele>
        <time>2022-09-05T08:55:43.000Z</time>
      </trkpt>
      <trkpt lat="49.87627" lon="4.78167">
        <ele>201</ele>
        <time>2022-09-05T08:55:44.000Z</time>
      </trkpt>
      <trkpt lat="49.87623" lon="4.78167">
        <ele>201</ele>
        <time>2022-09-05T08:55:45.000Z</time>
      </trkpt>
      <trkpt lat="49.87619" lon="4.78168">
        <ele>200</ele>
        <time>2022-09-05T08:55:46.000Z</time>
      </trkpt>
      <trkpt lat="49.87614" lon="4.78169">
        <ele>200</ele>
        <time>2022-09-05T08:55:47.000Z</time>
      </trkpt>
      <trkpt lat="49.8761" lon="4.78171">
        <ele>200</ele>
        <time>2022-09-05T08:55:48.000Z</time>
      </trkpt>
      <trkpt lat="49.87605" lon="4.78172">
        <ele>199</ele>
        <time>2022-09-05T08:55:49.000Z</time>
      </trkpt>
      <trkpt lat="49.87602" lon="4.78173">
        <ele>199</ele>
        <time>2022-09-05T08:55:50.000Z</time>
      </trkpt>
      <trkpt lat="49.87599" lon="4.78174">
        <ele>199</ele>
        <time>2022-09-05T08:55:51.000Z</time>
      </trkpt>
      <trkpt lat="49.87596" lon="4.78175">
        <ele>198</ele>
        <time>2022-09-05T08:55:52.000Z</time>
      </trkpt>
      <trkpt lat="49.87593" lon="4.78177">
        <ele>198</ele>
        <time>2022-09-05T08:55:53.000Z</time>
      </trkpt>
      <trkpt lat="49.8759" lon="4.78178">
        <ele>198</ele>
        <time>2022-09-05T08:55:54.000Z</time>
      </trkpt>
      <trkpt lat="49.87588" lon="4.78178">
        <ele>197</ele>
        <time>2022-09-05T08:55:55.000Z</time>
      </trkpt>
      <trkpt lat="49.87585" lon="4.78178">
        <ele>197</ele>
        <time>2022-09-05T08:55:56.000Z</time>
      </trkpt>
      <trkpt lat="49.87582" lon="4.7818">
        <ele>197</ele>
        <time>2022-09-05T08:55:57.000Z</time>
      </trkpt>
      <trkpt lat="49.87578" lon="4.7818">
        <ele>197</ele>
        <time>2022-09-05T08:55:58.000Z</time>
      </trkpt>
      <trkpt lat="49.87573" lon="4.78181">
        <ele>196</ele>
        <time>2022-09-05T08:55:59.000Z</time>
      </trkpt>
      <trkpt lat="49.87568" lon="4.78182">
        <ele>196</ele>
        <time>2022-09-05T08:56:00.000Z</time>
      </trkpt>
      <trkpt lat="49.87563" lon="4.78183">
        <ele>196</ele>
        <time>2022-09-05T08:56:01.000Z</time>
      </trkpt>
      <trkpt lat="49.87558" lon="4.78185">
        <ele>195</ele>
        <time>2022-09-05T08:56:02.000Z</time>
      </trkpt>
      <trkpt lat="49.87553" lon="4.78188">
        <ele>195</ele>
        <time>2022-09-05T08:56:03.000Z</time>
      </trkpt>
      <trkpt lat="49.87548" lon="4.7819">
        <ele>195</ele>
        <time>2022-09-05T08:56:04.000Z</time>
      </trkpt>
      <trkpt lat="49.87543" lon="4.78191">
        <ele>195</ele>
        <time>2022-09-05T08:56:05.000Z</time>
      </trkpt>
      <trkpt lat="49.87538" lon="4.78193">
        <ele>194</ele>
        <time>2022-09-05T08:56:06.000Z</time>
      </trkpt>
      <trkpt lat="49.87533" lon="4.78195">
        <ele>194</ele>
        <time>2022-09-05T08:56:07.000Z</time>
      </trkpt>
      <trkpt lat="49.87528" lon="4.78196">
        <ele>194</ele>
        <time>2022-09-05T08:56:08.000Z</time>
      </trkpt>
      <trkpt lat="49.87523" lon="4.78198">
        <ele>194</ele>
        <time>2022-09-05T08:56:09.000Z</time>
      </trkpt>
      <trkpt lat="49.87518" lon="4.78201">
        <ele>193</ele>
        <time>2022-09-05T08:56:10.000Z</time>
      </trkpt>
      <trkpt lat="49.87512" lon="4.78204">
        <ele>193</ele>
        <time>2022-09-05T08:56:11.000Z</time>
      </trkpt>
      <trkpt lat="49.87507" lon="4.78206">
        <ele>193</ele>
        <time>2022-09-05T08:56:12.000Z</time>
      </trkpt>
      <trkpt lat="49.87502" lon="4.7821">
        <ele>192</ele>
        <time>2022-09-05T08:56:13.000Z</time>
      </trkpt>
      <trkpt lat="49.87498" lon="4.78216">
        <ele>192</ele>
        <time>2022-09-05T08:56:14.000Z</time>
      </trkpt>
      <trkpt lat="49.87493" lon="4.78221">
        <ele>191</ele>
        <time>2022-09-05T08:56:15.000Z</time>
      </trkpt>
      <trkpt lat="49.87488" lon="4.78225">
        <ele>191</ele>
        <time>2022-09-05T08:56:16.000Z</time>
      </trkpt>
      <trkpt lat="49.87483" lon="4.78228">
        <ele>191</ele>
        <time>2022-09-05T08:56:17.000Z</time>
      </trkpt>
      <trkpt lat="49.87477" lon="4.78232">
        <ele>190</ele>
        <time>2022-09-05T08:56:18.000Z</time>
      </trkpt>
      <trkpt lat="49.87471" lon="4.78235">
        <ele>189</ele>
        <time>2022-09-05T08:56:19.000Z</time>
      </trkpt>
      <trkpt lat="49.87464" lon="4.78239">
        <ele>189</ele>
        <time>2022-09-05T08:56:20.000Z</time>
      </trkpt>
      <trkpt lat="49.87458" lon="4.78242">
        <ele>188</ele>
        <time>2022-09-05T08:56:21.000Z</time>
      </trkpt>
      <trkpt lat="49.87451" lon="4.78245">
        <ele>187</ele>
        <time>2022-09-05T08:56:22.000Z</time>
      </trkpt>
      <trkpt lat="49.87446" lon="4.78249">
        <ele>187</ele>
        <time>2022-09-05T08:56:23.000Z</time>
      </trkpt>
      <trkpt lat="49.87441" lon="4.78252">
        <ele>186</ele>
        <time>2022-09-05T08:56:24.000Z</time>
      </trkpt>
      <trkpt lat="49.87436" lon="4.78255">
        <ele>185</ele>
        <time>2022-09-05T08:56:25.000Z</time>
      </trkpt>
      <trkpt lat="49.87433" lon="4.78258">
        <ele>184</ele>
        <time>2022-09-05T08:56:26.000Z</time>
      </trkpt>
      <trkpt lat="49.8743" lon="4.78261">
        <ele>183</ele>
        <time>2022-09-05T08:56:27.000Z</time>
      </trkpt>
      <trkpt lat="49.87427" lon="4.78262">
        <ele>182</ele>
        <time>2022-09-05T08:56:28.000Z</time>
      </trkpt>
      <trkpt lat="49.87424" lon="4.78262">
        <ele>182</ele>
        <time>2022-09-05T08:56:29.000Z</time>
      </trkpt>
      <trkpt lat="49.8742" lon="4.78261">
        <ele>181</ele>
        <time>2022-09-05T08:56:30.000Z</time>
      </trkpt>
      <trkpt lat="49.87417" lon="4.7826">
        <ele>180</ele>
        <time>2022-09-05T08:56:31.000Z</time>
      </trkpt>
      <trkpt lat="49.87413" lon="4.78258">
        <ele>179</ele>
        <time>2022-09-05T08:56:32.000Z</time>
      </trkpt>
      <trkpt lat="49.8741" lon="4.78256">
        <ele>179</ele>
        <time>2022-09-05T08:56:33.000Z</time>
      </trkpt>
      <trkpt lat="49.87406" lon="4.78254">
        <ele>178</ele>
        <time>2022-09-05T08:56:34.000Z</time>
      </trkpt>
      <trkpt lat="49.87402" lon="4.78253">
        <ele>177</ele>
        <time>2022-09-05T08:56:35.000Z</time>
      </trkpt>
      <trkpt lat="49.87398" lon="4.78251">
        <ele>176</ele>
        <time>2022-09-05T08:56:36.000Z</time>
      </trkpt>
      <trkpt lat="49.87394" lon="4.78249">
        <ele>176</ele>
        <time>2022-09-05T08:56:37.000Z</time>
      </trkpt>
      <trkpt lat="49.8739" lon="4.78247">
        <ele>175</ele>
        <time>2022-09-05T08:56:38.000Z</time>
      </trkpt>
      <trkpt lat="49.87387" lon="4.78244">
        <ele>174</ele>
        <time>2022-09-05T08:56:39.000Z</time>
      </trkpt>
      <trkpt lat="49.87383" lon="4.78242">
        <ele>173</ele>
        <time>2022-09-05T08:56:40.000Z</time>
      </trkpt>
      <trkpt lat="49.87379" lon="4.78241">
        <ele>173</ele>
        <time>2022-09-05T08:56:41.000Z</time>
      </trkpt>
      <trkpt lat="49.87376" lon="4.78239">
        <ele>172</ele>
        <time>2022-09-05T08:56:42.000Z</time>
      </trkpt>
      <trkpt lat="49.87372" lon="4.78237">
        <ele>172</ele>
        <time>2022-09-05T08:56:43.000Z</time>
      </trkpt>
      <trkpt lat="49.87368" lon="4.78235">
        <ele>171</ele>
        <time>2022-09-05T08:56:44.000Z</time>
      </trkpt>
      <trkpt lat="49.87365" lon="4.78232">
        <ele>171</ele>
        <time>2022-09-05T08:56:45.000Z</time>
      </trkpt>
      <trkpt lat="49.87362" lon="4.7823">
        <ele>170</ele>
        <time>2022-09-05T08:56:46.000Z</time>
      </trkpt>
      <trkpt lat="49.87358" lon="4.78227">
        <ele>170</ele>
        <time>2022-09-05T08:56:47.000Z</time>
      </trkpt>
      <trkpt lat="49.87355" lon="4.78224">
        <ele>170</ele>
        <time>2022-09-05T08:56:48.000Z</time>
      </trkpt>
      <trkpt lat="49.87352" lon="4.78221">
        <ele>169</ele>
        <time>2022-09-05T08:56:49.000Z</time>
      </trkpt>
      <trkpt lat="49.87349" lon="4.78217">
        <ele>169</ele>
        <time>2022-09-05T08:56:50.000Z</time>
      </trkpt>
      <trkpt lat="49.87345" lon="4.78214">
        <ele>169</ele>
        <time>2022-09-05T08:56:51.000Z</time>
      </trkpt>
      <trkpt lat="49.87342" lon="4.78211">
        <ele>168</ele>
        <time>2022-09-05T08:56:52.000Z</time>
      </trkpt>
      <trkpt lat="49.87339" lon="4.78207">
        <ele>168</ele>
        <time>2022-09-05T08:56:53.000Z</time>
      </trkpt>
      <trkpt lat="49.87336" lon="4.78204">
        <ele>168</ele>
        <time>2022-09-05T08:56:54.000Z</time>
      </trkpt>
      <trkpt lat="49.87334" lon="4.782">
        <ele>168</ele>
        <time>2022-09-05T08:56:55.000Z</time>
      </trkpt>
      <trkpt lat="49.87331" lon="4.78197">
        <ele>168</ele>
        <time>2022-09-05T08:56:56.000Z</time>
      </trkpt>
      <trkpt lat="49.87329" lon="4.78194">
        <ele>168</ele>
        <time>2022-09-05T08:56:57.000Z</time>
      </trkpt>
      <trkpt lat="49.87327" lon="4.78192">
        <ele>167</ele>
        <time>2022-09-05T08:56:58.000Z</time>
      </trkpt>
      <trkpt lat="49.87324" lon="4.78192">
        <ele>167</ele>
        <time>2022-09-05T08:56:59.000Z</time>
      </trkpt>
      <trkpt lat="49.87321" lon="4.78192">
        <ele>167</ele>
        <time>2022-09-05T08:57:00.000Z</time>
      </trkpt>
      <trkpt lat="49.87318" lon="4.78193">
        <ele>166</ele>
        <time>2022-09-05T08:57:01.000Z</time>
      </trkpt>
      <trkpt lat="49.87313" lon="4.78196">
        <ele>166</ele>
        <time>2022-09-05T08:57:02.000Z</time>
      </trkpt>
      <trkpt lat="49.87308" lon="4.782">
        <ele>165</ele>
        <time>2022-09-05T08:57:03.000Z</time>
      </trkpt>
      <trkpt lat="49.87302" lon="4.78205">
        <ele>164</ele>
        <time>2022-09-05T08:57:04.000Z</time>
      </trkpt>
      <trkpt lat="49.87295" lon="4.7821">
        <ele>163</ele>
        <time>2022-09-05T08:57:05.000Z</time>
      </trkpt>
      <trkpt lat="49.8729" lon="4.78215">
        <ele>163</ele>
        <time>2022-09-05T08:57:06.000Z</time>
      </trkpt>
      <trkpt lat="49.87285" lon="4.78221">
        <ele>162</ele>
        <time>2022-09-05T08:57:07.000Z</time>
      </trkpt>
      <trkpt lat="49.87281" lon="4.78229">
        <ele>161</ele>
        <time>2022-09-05T08:57:08.000Z</time>
      </trkpt>
      <trkpt lat="49.87277" lon="4.78236">
        <ele>161</ele>
        <time>2022-09-05T08:57:09.000Z</time>
      </trkpt>
      <trkpt lat="49.87274" lon="4.78243">
        <ele>160</ele>
        <time>2022-09-05T08:57:10.000Z</time>
      </trkpt>
      <trkpt lat="49.87271" lon="4.7825">
        <ele>159</ele>
        <time>2022-09-05T08:57:11.000Z</time>
      </trkpt>
      <trkpt lat="49.87268" lon="4.78256">
        <ele>159</ele>
        <time>2022-09-05T08:57:12.000Z</time>
      </trkpt>
      <trkpt lat="49.87265" lon="4.7826">
        <ele>158</ele>
        <time>2022-09-05T08:57:13.000Z</time>
      </trkpt>
      <trkpt lat="49.87261" lon="4.78261">
        <ele>158</ele>
        <time>2022-09-05T08:57:14.000Z</time>
      </trkpt>
      <trkpt lat="49.87258" lon="4.78259">
        <ele>157</ele>
        <time>2022-09-05T08:57:15.000Z</time>
      </trkpt>
      <trkpt lat="49.87256" lon="4.78255">
        <ele>157</ele>
        <time>2022-09-05T08:57:16.000Z</time>
      </trkpt>
      <trkpt lat="49.87254" lon="4.78252">
        <ele>157</ele>
        <time>2022-09-05T08:57:17.000Z</time>
      </trkpt>
      <trkpt lat="49.87252" lon="4.78248">
        <ele>157</ele>
        <time>2022-09-05T08:57:18.000Z</time>
      </trkpt>
      <trkpt lat="49.8725" lon="4.78244">
        <ele>157</ele>
        <time>2022-09-05T08:57:19.000Z</time>
      </trkpt>
      <trkpt lat="49.87248" lon="4.7824">
        <ele>157</ele>
        <time>2022-09-05T08:57:20.000Z</time>
      </trkpt>
      <trkpt lat="49.87246" lon="4.78235">
        <ele>158</ele>
        <time>2022-09-05T08:57:21.000Z</time>
      </trkpt>
      <trkpt lat="49.87243" lon="4.7823">
        <ele>158</ele>
        <time>2022-09-05T08:57:22.000Z</time>
      </trkpt>
      <trkpt lat="49.87241" lon="4.78225">
        <ele>158</ele>
        <time>2022-09-05T08:57:23.000Z</time>
      </trkpt>
      <trkpt lat="49.87239" lon="4.7822">
        <ele>158</ele>
        <time>2022-09-05T08:57:24.000Z</time>
      </trkpt>
      <trkpt lat="49.87236" lon="4.78215">
        <ele>158</ele>
        <time>2022-09-05T08:57:25.000Z</time>
      </trkpt>
      <trkpt lat="49.87233" lon="4.7821">
        <ele>158</ele>
        <time>2022-09-05T08:57:26.000Z</time>
      </trkpt>
      <trkpt lat="49.87231" lon="4.78205">
        <ele>158</ele>
        <time>2022-09-05T08:57:27.000Z</time>
      </trkpt>
      <trkpt lat="49.87228" lon="4.78202">
        <ele>158</ele>
        <time>2022-09-05T08:57:28.000Z</time>
      </trkpt>
      <trkpt lat="49.87225" lon="4.78197">
        <ele>158</ele>
        <time>2022-09-05T08:57:29.000Z</time>
      </trkpt>
      <trkpt lat="49.87221" lon="4.78193">
        <ele>158</ele>
        <time>2022-09-05T08:57:30.000Z</time>
      </trkpt>
      <trkpt lat="49.87218" lon="4.78188">
        <ele>158</ele>
        <time>2022-09-05T08:57:31.000Z</time>
      </trkpt>
      <trkpt lat="49.87215" lon="4.78183">
        <ele>158</ele>
        <time>2022-09-05T08:57:32.000Z</time>
      </trkpt>
      <trkpt lat="49.87211" lon="4.78177">
        <ele>157</ele>
        <time>2022-09-05T08:57:33.000Z</time>
      </trkpt>
      <trkpt lat="49.87208" lon="4.78172">
        <ele>157</ele>
        <time>2022-09-05T08:57:34.000Z</time>
      </trkpt>
      <trkpt lat="49.87204" lon="4.78168">
        <ele>157</ele>
        <time>2022-09-05T08:57:35.000Z</time>
      </trkpt>
      <trkpt lat="49.872" lon="4.78163">
        <ele>157</ele>
        <time>2022-09-05T08:57:36.000Z</time>
      </trkpt>
      <trkpt lat="49.87196" lon="4.78158">
        <ele>157</ele>
        <time>2022-09-05T08:57:37.000Z</time>
      </trkpt>
      <trkpt lat="49.87192" lon="4.78153">
        <ele>156</ele>
        <time>2022-09-05T08:57:38.000Z</time>
      </trkpt>
      <trkpt lat="49.87188" lon="4.78146">
        <ele>156</ele>
        <time>2022-09-05T08:57:39.000Z</time>
      </trkpt>
      <trkpt lat="49.87185" lon="4.78139">
        <ele>156</ele>
        <time>2022-09-05T08:57:40.000Z</time>
      </trkpt>
      <trkpt lat="49.87182" lon="4.78132">
        <ele>156</ele>
        <time>2022-09-05T08:57:41.000Z</time>
      </trkpt>
      <trkpt lat="49.87178" lon="4.78126">
        <ele>155</ele>
        <time>2022-09-05T08:57:42.000Z</time>
      </trkpt>
      <trkpt lat="49.87174" lon="4.78121">
        <ele>155</ele>
        <time>2022-09-05T08:57:43.000Z</time>
      </trkpt>
      <trkpt lat="49.8717" lon="4.78118">
        <ele>155</ele>
        <time>2022-09-05T08:57:44.000Z</time>
      </trkpt>
      <trkpt lat="49.87165" lon="4.78117">
        <ele>155</ele>
        <time>2022-09-05T08:57:45.000Z</time>
      </trkpt>
      <trkpt lat="49.87161" lon="4.78117">
        <ele>155</ele>
        <time>2022-09-05T08:57:46.000Z</time>
      </trkpt>
      <trkpt lat="49.87157" lon="4.78117">
        <ele>155</ele>
        <time>2022-09-05T08:57:47.000Z</time>
      </trkpt>
      <trkpt lat="49.87154" lon="4.78118">
        <ele>155</ele>
        <time>2022-09-05T08:57:48.000Z</time>
      </trkpt>
      <trkpt lat="49.87151" lon="4.7812">
        <ele>155</ele>
        <time>2022-09-05T08:57:49.000Z</time>
      </trkpt>
      <trkpt lat="49.87147" lon="4.7812">
        <ele>155</ele>
        <time>2022-09-05T08:57:50.000Z</time>
      </trkpt>
      <trkpt lat="49.87144" lon="4.7812">
        <ele>155</ele>
        <time>2022-09-05T08:57:51.000Z</time>
      </trkpt>
      <trkpt lat="49.87141" lon="4.78118">
        <ele>155</ele>
        <time>2022-09-05T08:57:52.000Z</time>
      </trkpt>
      <trkpt lat="49.87138" lon="4.78117">
        <ele>155</ele>
        <time>2022-09-05T08:57:53.000Z</time>
      </trkpt>
      <trkpt lat="49.87135" lon="4.78115">
        <ele>155</ele>
        <time>2022-09-05T08:57:54.000Z</time>
      </trkpt>
      <trkpt lat="49.87131" lon="4.78112">
        <ele>155</ele>
        <time>2022-09-05T08:57:55.000Z</time>
      </trkpt>
      <trkpt lat="49.87127" lon="4.78109">
        <ele>155</ele>
        <time>2022-09-05T08:57:56.000Z</time>
      </trkpt>
      <trkpt lat="49.87123" lon="4.78106">
        <ele>155</ele>
        <time>2022-09-05T08:57:57.000Z</time>
      </trkpt>
      <trkpt lat="49.87119" lon="4.78103">
        <ele>156</ele>
        <time>2022-09-05T08:57:58.000Z</time>
      </trkpt>
      <trkpt lat="49.87115" lon="4.781">
        <ele>156</ele>
        <time>2022-09-05T08:57:59.000Z</time>
      </trkpt>
      <trkpt lat="49.87111" lon="4.78098">
        <ele>156</ele>
        <time>2022-09-05T08:58:00.000Z</time>
      </trkpt>
      <trkpt lat="49.87106" lon="4.78096">
        <ele>156</ele>
        <time>2022-09-05T08:58:01.000Z</time>
      </trkpt>
      <trkpt lat="49.87102" lon="4.78095">
        <ele>157</ele>
        <time>2022-09-05T08:58:02.000Z</time>
      </trkpt>
      <trkpt lat="49.87099" lon="4.78094">
        <ele>157</ele>
        <time>2022-09-05T08:58:03.000Z</time>
      </trkpt>
      <trkpt lat="49.87095" lon="4.78093">
        <ele>157</ele>
        <time>2022-09-05T08:58:04.000Z</time>
      </trkpt>
      <trkpt lat="49.87092" lon="4.78093">
        <ele>158</ele>
        <time>2022-09-05T08:58:05.000Z</time>
      </trkpt>
      <trkpt lat="49.87088" lon="4.78092">
        <ele>158</ele>
        <time>2022-09-05T08:58:06.000Z</time>
      </trkpt>
      <trkpt lat="49.87084" lon="4.78092">
        <ele>158</ele>
        <time>2022-09-05T08:58:07.000Z</time>
      </trkpt>
      <trkpt lat="49.87081" lon="4.78091">
        <ele>158</ele>
        <time>2022-09-05T08:58:08.000Z</time>
      </trkpt>
      <trkpt lat="49.87077" lon="4.78091">
        <ele>158</ele>
        <time>2022-09-05T08:58:09.000Z</time>
      </trkpt>
      <trkpt lat="49.87072" lon="4.7809">
        <ele>159</ele>
        <time>2022-09-05T08:58:10.000Z</time>
      </trkpt>
      <trkpt lat="49.87068" lon="4.78089">
        <ele>159</ele>
        <time>2022-09-05T08:58:11.000Z</time>
      </trkpt>
      <trkpt lat="49.87064" lon="4.78089">
        <ele>159</ele>
        <time>2022-09-05T08:58:12.000Z</time>
      </trkpt>
      <trkpt lat="49.8706" lon="4.78087">
        <ele>159</ele>
        <time>2022-09-05T08:58:13.000Z</time>
      </trkpt>
      <trkpt lat="49.87055" lon="4.78085">
        <ele>159</ele>
        <time>2022-09-05T08:58:14.000Z</time>
      </trkpt>
      <trkpt lat="49.87051" lon="4.78083">
        <ele>159</ele>
        <time>2022-09-05T08:58:15.000Z</time>
      </trkpt>
      <trkpt lat="49.87046" lon="4.78082">
        <ele>160</ele>
        <time>2022-09-05T08:58:16.000Z</time>
      </trkpt>
      <trkpt lat="49.87042" lon="4.78081">
        <ele>160</ele>
        <time>2022-09-05T08:58:17.000Z</time>
      </trkpt>
      <trkpt lat="49.87037" lon="4.78081">
        <ele>160</ele>
        <time>2022-09-05T08:58:18.000Z</time>
      </trkpt>
      <trkpt lat="49.87033" lon="4.7808">
        <ele>160</ele>
        <time>2022-09-05T08:58:19.000Z</time>
      </trkpt>
      <trkpt lat="49.87028" lon="4.7808">
        <ele>160</ele>
        <time>2022-09-05T08:58:20.000Z</time>
      </trkpt>
      <trkpt lat="49.87023" lon="4.7808">
        <ele>160</ele>
        <time>2022-09-05T08:58:21.000Z</time>
      </trkpt>
      <trkpt lat="49.87018" lon="4.7808">
        <ele>160</ele>
        <time>2022-09-05T08:58:22.000Z</time>
      </trkpt>
      <trkpt lat="49.87013" lon="4.7808">
        <ele>160</ele>
        <time>2022-09-05T08:58:23.000Z</time>
      </trkpt>
      <trkpt lat="49.87008" lon="4.78078">
        <ele>160</ele>
        <time>2022-09-05T08:58:24.000Z</time>
      </trkpt>
      <trkpt lat="49.87003" lon="4.78077">
        <ele>161</ele>
        <time>2022-09-05T08:58:25.000Z</time>
      </trkpt>
      <trkpt lat="49.86999" lon="4.78076">
        <ele>161</ele>
        <time>2022-09-05T08:58:26.000Z</time>
      </trkpt>
      <trkpt lat="49.86995" lon="4.78075">
        <ele>161</ele>
        <time>2022-09-05T08:58:27.000Z</time>
      </trkpt>
      <trkpt lat="49.86991" lon="4.78074">
        <ele>161</ele>
        <time>2022-09-05T08:58:28.000Z</time>
      </trkpt>
      <trkpt lat="49.86988" lon="4.78072">
        <ele>161</ele>
        <time>2022-09-05T08:58:29.000Z</time>
      </trkpt>
      <trkpt lat="49.86984" lon="4.78071">
        <ele>161</ele>
        <time>2022-09-05T08:58:30.000Z</time>
      </trkpt>
      <trkpt lat="49.8698" lon="4.78071">
        <ele>161</ele>
        <time>2022-09-05T08:58:31.000Z</time>
      </trkpt>
      <trkpt lat="49.86976" lon="4.7807">
        <ele>161</ele>
        <time>2022-09-05T08:58:32.000Z</time>
      </trkpt>
      <trkpt lat="49.86973" lon="4.78071">
        <ele>161</ele>
        <time>2022-09-05T08:58:33.000Z</time>
      </trkpt>
      <trkpt lat="49.8697" lon="4.78071">
        <ele>161</ele>
        <time>2022-09-05T08:58:34.000Z</time>
      </trkpt>
      <trkpt lat="49.86966" lon="4.78071">
        <ele>161</ele>
        <time>2022-09-05T08:58:35.000Z</time>
      </trkpt>
      <trkpt lat="49.86962" lon="4.78071">
        <ele>161</ele>
        <time>2022-09-05T08:58:36.000Z</time>
      </trkpt>
      <trkpt lat="49.86957" lon="4.78071">
        <ele>161</ele>
        <time>2022-09-05T08:58:37.000Z</time>
      </trkpt>
      <trkpt lat="49.86953" lon="4.78071">
        <ele>161</ele>
        <time>2022-09-05T08:58:38.000Z</time>
      </trkpt>
      <trkpt lat="49.86949" lon="4.78071">
        <ele>160</ele>
        <time>2022-09-05T08:58:39.000Z</time>
      </trkpt>
      <trkpt lat="49.86945" lon="4.78072">
        <ele>160</ele>
        <time>2022-09-05T08:58:40.000Z</time>
      </trkpt>
      <trkpt lat="49.8694" lon="4.78072">
        <ele>160</ele>
        <time>2022-09-05T08:58:41.000Z</time>
      </trkpt>
      <trkpt lat="49.86936" lon="4.78073">
        <ele>160</ele>
        <time>2022-09-05T08:58:42.000Z</time>
      </trkpt>
      <trkpt lat="49.86932" lon="4.78074">
        <ele>160</ele>
        <time>2022-09-05T08:58:43.000Z</time>
      </trkpt>
      <trkpt lat="49.86927" lon="4.78075">
        <ele>160</ele>
        <time>2022-09-05T08:58:44.000Z</time>
      </trkpt>
      <trkpt lat="49.86923" lon="4.78076">
        <ele>160</ele>
        <time>2022-09-05T08:58:45.000Z</time>
      </trkpt>
      <trkpt lat="49.86919" lon="4.78077">
        <ele>159</ele>
        <time>2022-09-05T08:58:46.000Z</time>
      </trkpt>
      <trkpt lat="49.86914" lon="4.78078">
        <ele>159</ele>
        <time>2022-09-05T08:58:47.000Z</time>
      </trkpt>
      <trkpt lat="49.86909" lon="4.78079">
        <ele>159</ele>
        <time>2022-09-05T08:58:48.000Z</time>
      </trkpt>
      <trkpt lat="49.86904" lon="4.78079">
        <ele>159</ele>
        <time>2022-09-05T08:58:49.000Z</time>
      </trkpt>
      <trkpt lat="49.86899" lon="4.78078">
        <ele>159</ele>
        <time>2022-09-05T08:58:50.000Z</time>
      </trkpt>
      <trkpt lat="49.86894" lon="4.78079">
        <ele>159</ele>
        <time>2022-09-05T08:58:51.000Z</time>
      </trkpt>
      <trkpt lat="49.86889" lon="4.7808">
        <ele>159</ele>
        <time>2022-09-05T08:58:52.000Z</time>
      </trkpt>
      <trkpt lat="49.86884" lon="4.78082">
        <ele>159</ele>
        <time>2022-09-05T08:58:53.000Z</time>
      </trkpt>
      <trkpt lat="49.86879" lon="4.78083">
        <ele>159</ele>
        <time>2022-09-05T08:58:54.000Z</time>
      </trkpt>
      <trkpt lat="49.86874" lon="4.78084">
        <ele>159</ele>
        <time>2022-09-05T08:58:55.000Z</time>
      </trkpt>
      <trkpt lat="49.86869" lon="4.78085">
        <ele>159</ele>
        <time>2022-09-05T08:58:56.000Z</time>
      </trkpt>
      <trkpt lat="49.86865" lon="4.78085">
        <ele>158</ele>
        <time>2022-09-05T08:58:57.000Z</time>
      </trkpt>
      <trkpt lat="49.86861" lon="4.78085">
        <ele>158</ele>
        <time>2022-09-05T08:58:58.000Z</time>
      </trkpt>
      <trkpt lat="49.86857" lon="4.78084">
        <ele>158</ele>
        <time>2022-09-05T08:58:59.000Z</time>
      </trkpt>
      <trkpt lat="49.86854" lon="4.78084">
        <ele>158</ele>
        <time>2022-09-05T08:59:00.000Z</time>
      </trkpt>
      <trkpt lat="49.86852" lon="4.78084">
        <ele>159</ele>
        <time>2022-09-05T08:59:01.000Z</time>
      </trkpt>
      <trkpt lat="49.86849" lon="4.78085">
        <ele>159</ele>
        <time>2022-09-05T08:59:02.000Z</time>
      </trkpt>
      <trkpt lat="49.86846" lon="4.78087">
        <ele>159</ele>
        <time>2022-09-05T08:59:03.000Z</time>
      </trkpt>
      <trkpt lat="49.86841" lon="4.78089">
        <ele>159</ele>
        <time>2022-09-05T08:59:04.000Z</time>
      </trkpt>
      <trkpt lat="49.86836" lon="4.7809">
        <ele>159</ele>
        <time>2022-09-05T08:59:05.000Z</time>
      </trkpt>
      <trkpt lat="49.8683" lon="4.78091">
        <ele>159</ele>
        <time>2022-09-05T08:59:06.000Z</time>
      </trkpt>
      <trkpt lat="49.86823" lon="4.78092">
        <ele>159</ele>
        <time>2022-09-05T08:59:07.000Z</time>
      </trkpt>
      <trkpt lat="49.86818" lon="4.78093">
        <ele>159</ele>
        <time>2022-09-05T08:59:08.000Z</time>
      </trkpt>
      <trkpt lat="49.86812" lon="4.78095">
        <ele>159</ele>
        <time>2022-09-05T08:59:09.000Z</time>
      </trkpt>
      <trkpt lat="49.86807" lon="4.78097">
        <ele>159</ele>
        <time>2022-09-05T08:59:10.000Z</time>
      </trkpt>
      <trkpt lat="49.86801" lon="4.78099">
        <ele>159</ele>
        <time>2022-09-05T08:59:11.000Z</time>
      </trkpt>
      <trkpt lat="49.86793" lon="4.78101">
        <ele>159</ele>
        <time>2022-09-05T08:59:12.000Z</time>
      </trkpt>
      <trkpt lat="49.86785" lon="4.78105">
        <ele>159</ele>
        <time>2022-09-05T08:59:13.000Z</time>
      </trkpt>
      <trkpt lat="49.86776" lon="4.78108">
        <ele>159</ele>
        <time>2022-09-05T08:59:14.000Z</time>
      </trkpt>
      <trkpt lat="49.86768" lon="4.78112">
        <ele>159</ele>
        <time>2022-09-05T08:59:15.000Z</time>
      </trkpt>
      <trkpt lat="49.86759" lon="4.78116">
        <ele>159</ele>
        <time>2022-09-05T08:59:16.000Z</time>
      </trkpt>
      <trkpt lat="49.86751" lon="4.7812">
        <ele>159</ele>
        <time>2022-09-05T08:59:17.000Z</time>
      </trkpt>
      <trkpt lat="49.86743" lon="4.78122">
        <ele>158</ele>
        <time>2022-09-05T08:59:18.000Z</time>
      </trkpt>
      <trkpt lat="49.86734" lon="4.78122">
        <ele>158</ele>
        <time>2022-09-05T08:59:19.000Z</time>
      </trkpt>
      <trkpt lat="49.86726" lon="4.7812">
        <ele>158</ele>
        <time>2022-09-05T08:59:20.000Z</time>
      </trkpt>
      <trkpt lat="49.86718" lon="4.78117">
        <ele>158</ele>
        <time>2022-09-05T08:59:21.000Z</time>
      </trkpt>
      <trkpt lat="49.8671" lon="4.78114">
        <ele>157</ele>
        <time>2022-09-05T08:59:22.000Z</time>
      </trkpt>
      <trkpt lat="49.86703" lon="4.78113">
        <ele>157</ele>
        <time>2022-09-05T08:59:23.000Z</time>
      </trkpt>
      <trkpt lat="49.86697" lon="4.7811">
        <ele>157</ele>
        <time>2022-09-05T08:59:24.000Z</time>
      </trkpt>
      <trkpt lat="49.8669" lon="4.78108">
        <ele>156</ele>
        <time>2022-09-05T08:59:25.000Z</time>
      </trkpt>
      <trkpt lat="49.86684" lon="4.78107">
        <ele>156</ele>
        <time>2022-09-05T08:59:26.000Z</time>
      </trkpt>
      <trkpt lat="49.86677" lon="4.78106">
        <ele>156</ele>
        <time>2022-09-05T08:59:27.000Z</time>
      </trkpt>
      <trkpt lat="49.86671" lon="4.78106">
        <ele>156</ele>
        <time>2022-09-05T08:59:28.000Z</time>
      </trkpt>
      <trkpt lat="49.86665" lon="4.78105">
        <ele>155</ele>
        <time>2022-09-05T08:59:29.000Z</time>
      </trkpt>
      <trkpt lat="49.86659" lon="4.78103">
        <ele>155</ele>
        <time>2022-09-05T08:59:30.000Z</time>
      </trkpt>
      <trkpt lat="49.86653" lon="4.78101">
        <ele>155</ele>
        <time>2022-09-05T08:59:31.000Z</time>
      </trkpt>
      <trkpt lat="49.86647" lon="4.78098">
        <ele>155</ele>
        <time>2022-09-05T08:59:32.000Z</time>
      </trkpt>
      <trkpt lat="49.86642" lon="4.78096">
        <ele>155</ele>
        <time>2022-09-05T08:59:33.000Z</time>
      </trkpt>
      <trkpt lat="49.86636" lon="4.78094">
        <ele>154</ele>
        <time>2022-09-05T08:59:34.000Z</time>
      </trkpt>
      <trkpt lat="49.86631" lon="4.78092">
        <ele>154</ele>
        <time>2022-09-05T08:59:35.000Z</time>
      </trkpt>
      <trkpt lat="49.86626" lon="4.78091">
        <ele>154</ele>
        <time>2022-09-05T08:59:36.000Z</time>
      </trkpt>
      <trkpt lat="49.86621" lon="4.78089">
        <ele>154</ele>
        <time>2022-09-05T08:59:37.000Z</time>
      </trkpt>
      <trkpt lat="49.86615" lon="4.78087">
        <ele>154</ele>
        <time>2022-09-05T08:59:38.000Z</time>
      </trkpt>
      <trkpt lat="49.8661" lon="4.78087">
        <ele>154</ele>
        <time>2022-09-05T08:59:39.000Z</time>
      </trkpt>
      <trkpt lat="49.86605" lon="4.78086">
        <ele>154</ele>
        <time>2022-09-05T08:59:40.000Z</time>
      </trkpt>
      <trkpt lat="49.86599" lon="4.78086">
        <ele>154</ele>
        <time>2022-09-05T08:59:41.000Z</time>
      </trkpt>
      <trkpt lat="49.86594" lon="4.78087">
        <ele>154</ele>
        <time>2022-09-05T08:59:42.000Z</time>
      </trkpt>
      <trkpt lat="49.86588" lon="4.78087">
        <ele>153</ele>
        <time>2022-09-05T08:59:43.000Z</time>
      </trkpt>
      <trkpt lat="49.86583" lon="4.78088">
        <ele>153</ele>
        <time>2022-09-05T08:59:44.000Z</time>
      </trkpt>
      <trkpt lat="49.86577" lon="4.7809">
        <ele>153</ele>
        <time>2022-09-05T08:59:45.000Z</time>
      </trkpt>
      <trkpt lat="49.86571" lon="4.78092">
        <ele>153</ele>
        <time>2022-09-05T08:59:46.000Z</time>
      </trkpt>
      <trkpt lat="49.86565" lon="4.78093">
        <ele>152</ele>
        <time>2022-09-05T08:59:47.000Z</time>
      </trkpt>
      <trkpt lat="49.86559" lon="4.78094">
        <ele>152</ele>
        <time>2022-09-05T08:59:48.000Z</time>
      </trkpt>
      <trkpt lat="49.86554" lon="4.78094">
        <ele>152</ele>
        <time>2022-09-05T08:59:49.000Z</time>
      </trkpt>
      <trkpt lat="49.86548" lon="4.78095">
        <ele>152</ele>
        <time>2022-09-05T08:59:50.000Z</time>
      </trkpt>
      <trkpt lat="49.86543" lon="4.78095">
        <ele>152</ele>
        <time>2022-09-05T08:59:51.000Z</time>
      </trkpt>
      <trkpt lat="49.86537" lon="4.78096">
        <ele>151</ele>
        <time>2022-09-05T08:59:52.000Z</time>
      </trkpt>
      <trkpt lat="49.86531" lon="4.78096">
        <ele>151</ele>
        <time>2022-09-05T08:59:53.000Z</time>
      </trkpt>
      <trkpt lat="49.86526" lon="4.78097">
        <ele>151</ele>
        <time>2022-09-05T08:59:54.000Z</time>
      </trkpt>
      <trkpt lat="49.8652" lon="4.78098">
        <ele>151</ele>
        <time>2022-09-05T08:59:55.000Z</time>
      </trkpt>
      <trkpt lat="49.86514" lon="4.78099">
        <ele>151</ele>
        <time>2022-09-05T08:59:56.000Z</time>
      </trkpt>
      <trkpt lat="49.86508" lon="4.78101">
        <ele>150</ele>
        <time>2022-09-05T08:59:57.000Z</time>
      </trkpt>
      <trkpt lat="49.86503" lon="4.78103">
        <ele>150</ele>
        <time>2022-09-05T08:59:58.000Z</time>
      </trkpt>
      <trkpt lat="49.86497" lon="4.78104">
        <ele>150</ele>
        <time>2022-09-05T08:59:59.000Z</time>
      </trkpt>
      <trkpt lat="49.86492" lon="4.78106">
        <ele>150</ele>
        <time>2022-09-05T09:00:00.000Z</time>
      </trkpt>
      <trkpt lat="49.86487" lon="4.78107">
        <ele>150</ele>
        <time>2022-09-05T09:00:01.000Z</time>
      </trkpt>
      <trkpt lat="49.86482" lon="4.78109">
        <ele>150</ele>
        <time>2022-09-05T09:00:02.000Z</time>
      </trkpt>
      <trkpt lat="49.86477" lon="4.78112">
        <ele>150</ele>
        <time>2022-09-05T09:00:03.000Z</time>
      </trkpt>
      <trkpt lat="49.86472" lon="4.78114">
        <ele>150</ele>
        <time>2022-09-05T09:00:04.000Z</time>
      </trkpt>
      <trkpt lat="49.86467" lon="4.78115">
        <ele>150</ele>
        <time>2022-09-05T09:00:05.000Z</time>
      </trkpt>
      <trkpt lat="49.86463" lon="4.78116">
        <ele>150</ele>
        <time>2022-09-05T09:00:06.000Z</time>
      </trkpt>
      <trkpt lat="49.86457" lon="4.78118">
        <ele>150</ele>
        <time>2022-09-05T09:00:07.000Z</time>
      </trkpt>
      <trkpt lat="49.86452" lon="4.78121">
        <ele>150</ele>
        <time>2022-09-05T09:00:08.000Z</time>
      </trkpt>
      <trkpt lat="49.86447" lon="4.78123">
        <ele>150</ele>
        <time>2022-09-05T09:00:09.000Z</time>
      </trkpt>
      <trkpt lat="49.86442" lon="4.78124">
        <ele>150</ele>
        <time>2022-09-05T09:00:10.000Z</time>
      </trkpt>
      <trkpt lat="49.86436" lon="4.78126">
        <ele>150</ele>
        <time>2022-09-05T09:00:11.000Z</time>
      </trkpt>
      <trkpt lat="49.86431" lon="4.78128">
        <ele>149</ele>
        <time>2022-09-05T09:00:12.000Z</time>
      </trkpt>
      <trkpt lat="49.86425" lon="4.7813">
        <ele>149</ele>
        <time>2022-09-05T09:00:13.000Z</time>
      </trkpt>
      <trkpt lat="49.8642" lon="4.78132">
        <ele>149</ele>
        <time>2022-09-05T09:00:14.000Z</time>
      </trkpt>
      <trkpt lat="49.86414" lon="4.78134">
        <ele>149</ele>
        <time>2022-09-05T09:00:15.000Z</time>
      </trkpt>
      <trkpt lat="49.8641" lon="4.78136">
        <ele>149</ele>
        <time>2022-09-05T09:00:16.000Z</time>
      </trkpt>
      <trkpt lat="49.86405" lon="4.78138">
        <ele>149</ele>
        <time>2022-09-05T09:00:17.000Z</time>
      </trkpt>
      <trkpt lat="49.864" lon="4.7814">
        <ele>149</ele>
        <time>2022-09-05T09:00:18.000Z</time>
      </trkpt>
      <trkpt lat="49.86394" lon="4.78142">
        <ele>150</ele>
        <time>2022-09-05T09:00:19.000Z</time>
      </trkpt>
      <trkpt lat="49.8639" lon="4.78144">
        <ele>150</ele>
        <time>2022-09-05T09:00:20.000Z</time>
      </trkpt>
      <trkpt lat="49.86385" lon="4.78146">
        <ele>150</ele>
        <time>2022-09-05T09:00:21.000Z</time>
      </trkpt>
      <trkpt lat="49.8638" lon="4.78148">
        <ele>150</ele>
        <time>2022-09-05T09:00:22.000Z</time>
      </trkpt>
      <trkpt lat="49.86374" lon="4.7815">
        <ele>149</ele>
        <time>2022-09-05T09:00:23.000Z</time>
      </trkpt>
      <trkpt lat="49.86369" lon="4.78152">
        <ele>149</ele>
        <time>2022-09-05T09:00:24.000Z</time>
      </trkpt>
      <trkpt lat="49.86364" lon="4.78153">
        <ele>149</ele>
        <time>2022-09-05T09:00:25.000Z</time>
      </trkpt>
      <trkpt lat="49.86358" lon="4.78156">
        <ele>149</ele>
        <time>2022-09-05T09:00:26.000Z</time>
      </trkpt>
      <trkpt lat="49.86353" lon="4.7816">
        <ele>149</ele>
        <time>2022-09-05T09:00:27.000Z</time>
      </trkpt>
      <trkpt lat="49.86347" lon="4.78163">
        <ele>149</ele>
        <time>2022-09-05T09:00:28.000Z</time>
      </trkpt>
      <trkpt lat="49.86341" lon="4.78165">
        <ele>149</ele>
        <time>2022-09-05T09:00:29.000Z</time>
      </trkpt>
      <trkpt lat="49.86336" lon="4.78167">
        <ele>149</ele>
        <time>2022-09-05T09:00:30.000Z</time>
      </trkpt>
      <trkpt lat="49.8633" lon="4.7817">
        <ele>150</ele>
        <time>2022-09-05T09:00:31.000Z</time>
      </trkpt>
      <trkpt lat="49.86324" lon="4.78173">
        <ele>150</ele>
        <time>2022-09-05T09:00:32.000Z</time>
      </trkpt>
      <trkpt lat="49.86318" lon="4.78176">
        <ele>150</ele>
        <time>2022-09-05T09:00:33.000Z</time>
      </trkpt>
      <trkpt lat="49.86313" lon="4.78179">
        <ele>150</ele>
        <time>2022-09-05T09:00:34.000Z</time>
      </trkpt>
      <trkpt lat="49.86307" lon="4.78183">
        <ele>150</ele>
        <time>2022-09-05T09:00:35.000Z</time>
      </trkpt>
      <trkpt lat="49.86302" lon="4.78186">
        <ele>150</ele>
        <time>2022-09-05T09:00:36.000Z</time>
      </trkpt>
      <trkpt lat="49.86297" lon="4.78189">
        <ele>150</ele>
        <time>2022-09-05T09:00:37.000Z</time>
      </trkpt>
      <trkpt lat="49.86291" lon="4.78193">
        <ele>150</ele>
        <time>2022-09-05T09:00:38.000Z</time>
      </trkpt>
      <trkpt lat="49.86285" lon="4.78196">
        <ele>150</ele>
        <time>2022-09-05T09:00:39.000Z</time>
      </trkpt>
      <trkpt lat="49.8628" lon="4.78199">
        <ele>150</ele>
        <time>2022-09-05T09:00:40.000Z</time>
      </trkpt>
      <trkpt lat="49.86275" lon="4.78202">
        <ele>150</ele>
        <time>2022-09-05T09:00:41.000Z</time>
      </trkpt>
      <trkpt lat="49.86271" lon="4.78205">
        <ele>150</ele>
        <time>2022-09-05T09:00:42.000Z</time>
      </trkpt>
      <trkpt lat="49.86266" lon="4.78208">
        <ele>150</ele>
        <time>2022-09-05T09:00:43.000Z</time>
      </trkpt>
      <trkpt lat="49.86261" lon="4.78212">
        <ele>150</ele>
        <time>2022-09-05T09:00:44.000Z</time>
      </trkpt>
      <trkpt lat="49.86256" lon="4.78216">
        <ele>150</ele>
        <time>2022-09-05T09:00:45.000Z</time>
      </trkpt>
      <trkpt lat="49.86251" lon="4.7822">
        <ele>150</ele>
        <time>2022-09-05T09:00:46.000Z</time>
      </trkpt>
      <trkpt lat="49.86246" lon="4.78223">
        <ele>151</ele>
        <time>2022-09-05T09:00:47.000Z</time>
      </trkpt>
      <trkpt lat="49.86241" lon="4.78225">
        <ele>151</ele>
        <time>2022-09-05T09:00:48.000Z</time>
      </trkpt>
      <trkpt lat="49.86235" lon="4.78227">
        <ele>151</ele>
        <time>2022-09-05T09:00:49.000Z</time>
      </trkpt>
      <trkpt lat="49.8623" lon="4.78226">
        <ele>151</ele>
        <time>2022-09-05T09:00:50.000Z</time>
      </trkpt>
      <trkpt lat="49.86225" lon="4.78226">
        <ele>151</ele>
        <time>2022-09-05T09:00:51.000Z</time>
      </trkpt>
      <trkpt lat="49.86219" lon="4.78225">
        <ele>151</ele>
        <time>2022-09-05T09:00:52.000Z</time>
      </trkpt>
      <trkpt lat="49.86214" lon="4.78225">
        <ele>152</ele>
        <time>2022-09-05T09:00:53.000Z</time>
      </trkpt>
      <trkpt lat="49.86209" lon="4.78226">
        <ele>152</ele>
        <time>2022-09-05T09:00:54.000Z</time>
      </trkpt>
      <trkpt lat="49.86203" lon="4.78226">
        <ele>152</ele>
        <time>2022-09-05T09:00:55.000Z</time>
      </trkpt>
      <trkpt lat="49.86198" lon="4.78228">
        <ele>152</ele>
        <time>2022-09-05T09:00:56.000Z</time>
      </trkpt>
      <trkpt lat="49.86192" lon="4.78229">
        <ele>152</ele>
        <time>2022-09-05T09:00:57.000Z</time>
      </trkpt>
      <trkpt lat="49.86186" lon="4.7823">
        <ele>152</ele>
        <time>2022-09-05T09:00:58.000Z</time>
      </trkpt>
      <trkpt lat="49.86181" lon="4.7823">
        <ele>153</ele>
        <time>2022-09-05T09:00:59.000Z</time>
      </trkpt>
      <trkpt lat="49.86175" lon="4.78231">
        <ele>153</ele>
        <time>2022-09-05T09:01:00.000Z</time>
      </trkpt>
      <trkpt lat="49.86171" lon="4.78232">
        <ele>153</ele>
        <time>2022-09-05T09:01:01.000Z</time>
      </trkpt>
      <trkpt lat="49.86166" lon="4.78234">
        <ele>153</ele>
        <time>2022-09-05T09:01:02.000Z</time>
      </trkpt>
      <trkpt lat="49.86163" lon="4.78235">
        <ele>153</ele>
        <time>2022-09-05T09:01:03.000Z</time>
      </trkpt>
      <trkpt lat="49.86159" lon="4.78236">
        <ele>153</ele>
        <time>2022-09-05T09:01:04.000Z</time>
      </trkpt>
      <trkpt lat="49.86156" lon="4.78237">
        <ele>153</ele>
        <time>2022-09-05T09:01:05.000Z</time>
      </trkpt>
      <trkpt lat="49.86153" lon="4.78237">
        <ele>153</ele>
        <time>2022-09-05T09:01:06.000Z</time>
      </trkpt>
      <trkpt lat="49.86149" lon="4.78238">
        <ele>153</ele>
        <time>2022-09-05T09:01:07.000Z</time>
      </trkpt>
      <trkpt lat="49.86146" lon="4.78238">
        <ele>154</ele>
        <time>2022-09-05T09:01:08.000Z</time>
      </trkpt>
      <trkpt lat="49.86144" lon="4.78238">
        <ele>154</ele>
        <time>2022-09-05T09:01:09.000Z</time>
      </trkpt>
      <trkpt lat="49.86141" lon="4.78239">
        <ele>154</ele>
        <time>2022-09-05T09:01:10.000Z</time>
      </trkpt>
      <trkpt lat="49.86139" lon="4.78239">
        <ele>154</ele>
        <time>2022-09-05T09:01:11.000Z</time>
      </trkpt>
      <trkpt lat="49.86138" lon="4.78239">
        <ele>154</ele>
        <time>2022-09-05T09:01:12.000Z</time>
      </trkpt>
      <trkpt lat="49.86138" lon="4.78238">
        <ele>154</ele>
        <time>2022-09-05T09:01:13.000Z</time>
      </trkpt>
      <trkpt lat="49.86138" lon="4.78237">
        <ele>154</ele>
        <time>2022-09-05T09:01:14.000Z</time>
      </trkpt>
      <trkpt lat="49.86138" lon="4.78235">
        <ele>154</ele>
        <time>2022-09-05T09:01:15.000Z</time>
      </trkpt>
      <trkpt lat="49.86138" lon="4.78233">
        <ele>154</ele>
        <time>2022-09-05T09:01:16.000Z</time>
      </trkpt>
      <trkpt lat="49.86139" lon="4.78231">
        <ele>155</ele>
        <time>2022-09-05T09:01:17.000Z</time>
      </trkpt>
      <trkpt lat="49.86139" lon="4.78229">
        <ele>155</ele>
        <time>2022-09-05T09:01:18.000Z</time>
      </trkpt>
      <trkpt lat="49.8614" lon="4.78226">
        <ele>155</ele>
        <time>2022-09-05T09:01:19.000Z</time>
      </trkpt>
      <trkpt lat="49.8614" lon="4.78224">
        <ele>155</ele>
        <time>2022-09-05T09:01:20.000Z</time>
      </trkpt>
      <trkpt lat="49.8614" lon="4.78222">
        <ele>155</ele>
        <time>2022-09-05T09:01:21.000Z</time>
      </trkpt>
      <trkpt lat="49.86141" lon="4.7822">
        <ele>155</ele>
        <time>2022-09-05T09:01:22.000Z</time>
      </trkpt>
      <trkpt lat="49.86141" lon="4.78218">
        <ele>155</ele>
        <time>2022-09-05T09:01:23.000Z</time>
      </trkpt>
      <trkpt lat="49.86142" lon="4.78215">
        <ele>155</ele>
        <time>2022-09-05T09:01:24.000Z</time>
      </trkpt>
      <trkpt lat="49.86142" lon="4.78213">
        <ele>155</ele>
        <time>2022-09-05T09:01:25.000Z</time>
      </trkpt>
      <trkpt lat="49.86142" lon="4.7821">
        <ele>155</ele>
        <time>2022-09-05T09:01:26.000Z</time>
      </trkpt>
      <trkpt lat="49.86143" lon="4.78208">
        <ele>156</ele>
        <time>2022-09-05T09:01:27.000Z</time>
      </trkpt>
      <trkpt lat="49.86143" lon="4.78206">
        <ele>156</ele>
        <time>2022-09-05T09:01:28.000Z</time>
      </trkpt>
      <trkpt lat="49.86143" lon="4.78204">
        <ele>156</ele>
        <time>2022-09-05T09:01:29.000Z</time>
      </trkpt>
      <trkpt lat="49.86143" lon="4.78202">
        <ele>156</ele>
        <time>2022-09-05T09:01:30.000Z</time>
      </trkpt>
      <trkpt lat="49.86143" lon="4.782">
        <ele>156</ele>
        <time>2022-09-05T09:01:31.000Z</time>
      </trkpt>
      <trkpt lat="49.86144" lon="4.78199">
        <ele>157</ele>
        <time>2022-09-05T09:01:32.000Z</time>
      </trkpt>
      <trkpt lat="49.86144" lon="4.78197">
        <ele>157</ele>
        <time>2022-09-05T09:01:33.000Z</time>
      </trkpt>
      <trkpt lat="49.86144" lon="4.78195">
        <ele>157</ele>
        <time>2022-09-05T09:01:34.000Z</time>
      </trkpt>
      <trkpt lat="49.86144" lon="4.78194">
        <ele>157</ele>
        <time>2022-09-05T09:01:35.000Z</time>
      </trkpt>
      <trkpt lat="49.86144" lon="4.78192">
        <ele>158</ele>
        <time>2022-09-05T09:01:36.000Z</time>
      </trkpt>
      <trkpt lat="49.86144" lon="4.78191">
        <ele>158</ele>
        <time>2022-09-05T09:01:37.000Z</time>
      </trkpt>
      <trkpt lat="49.86145" lon="4.78191">
        <ele>158</ele>
        <time>2022-09-05T09:01:38.000Z</time>
      </trkpt>
      <trkpt lat="49.86145" lon="4.78191">
        <ele>158</ele>
        <time>2022-09-05T09:01:39.000Z</time>
      </trkpt>
      <trkpt lat="49.86145" lon="4.78193">
        <ele>158</ele>
        <time>2022-09-05T09:01:40.000Z</time>
      </trkpt>
      <trkpt lat="49.86144" lon="4.78194">
        <ele>159</ele>
        <time>2022-09-05T09:01:41.000Z</time>
      </trkpt>
      <trkpt lat="49.86144" lon="4.78196">
        <ele>159</ele>
        <time>2022-09-05T09:01:42.000Z</time>
      </trkpt>
      <trkpt lat="49.86143" lon="4.78198">
        <ele>159</ele>
        <time>2022-09-05T09:01:43.000Z</time>
      </trkpt>
      <trkpt lat="49.86143" lon="4.782">
        <ele>159</ele>
        <time>2022-09-05T09:01:44.000Z</time>
      </trkpt>
      <trkpt lat="49.86143" lon="4.78202">
        <ele>159</ele>
        <time>2022-09-05T09:01:45.000Z</time>
      </trkpt>
      <trkpt lat="49.86144" lon="4.78204">
        <ele>159</ele>
        <time>2022-09-05T09:01:46.000Z</time>
      </trkpt>
      <trkpt lat="49.86144" lon="4.78206">
        <ele>159</ele>
        <time>2022-09-05T09:01:47.000Z</time>
      </trkpt>
      <trkpt lat="49.86144" lon="4.78209">
        <ele>160</ele>
        <time>2022-09-05T09:01:48.000Z</time>
      </trkpt>
      <trkpt lat="49.86144" lon="4.78211">
        <ele>160</ele>
        <time>2022-09-05T09:01:49.000Z</time>
      </trkpt>
      <trkpt lat="49.86144" lon="4.78213">
        <ele>160</ele>
        <time>2022-09-05T09:01:50.000Z</time>
      </trkpt>
      <trkpt lat="49.86144" lon="4.78216">
        <ele>160</ele>
        <time>2022-09-05T09:01:51.000Z</time>
      </trkpt>
      <trkpt lat="49.86143" lon="4.78218">
        <ele>161</ele>
        <time>2022-09-05T09:01:52.000Z</time>
      </trkpt>
      <trkpt lat="49.86143" lon="4.78221">
        <ele>161</ele>
        <time>2022-09-05T09:01:53.000Z</time>
      </trkpt>
      <trkpt lat="49.86143" lon="4.78223">
        <ele>161</ele>
        <time>2022-09-05T09:01:54.000Z</time>
      </trkpt>
      <trkpt lat="49.86143" lon="4.78225">
        <ele>162</ele>
        <time>2022-09-05T09:01:55.000Z</time>
      </trkpt>
      <trkpt lat="49.86143" lon="4.78228">
        <ele>162</ele>
        <time>2022-09-05T09:01:56.000Z</time>
      </trkpt>
      <trkpt lat="49.86144" lon="4.7823">
        <ele>162</ele>
        <time>2022-09-05T09:01:57.000Z</time>
      </trkpt>
      <trkpt lat="49.86143" lon="4.78232">
        <ele>162</ele>
        <time>2022-09-05T09:01:58.000Z</time>
      </trkpt>
      <trkpt lat="49.86144" lon="4.78235">
        <ele>163</ele>
        <time>2022-09-05T09:01:59.000Z</time>
      </trkpt>
      <trkpt lat="49.86144" lon="4.78237">
        <ele>163</ele>
        <time>2022-09-05T09:02:00.000Z</time>
      </trkpt>
      <trkpt lat="49.86143" lon="4.78238">
        <ele>163</ele>
        <time>2022-09-05T09:02:01.000Z</time>
      </trkpt>
      <trkpt lat="49.86143" lon="4.78238">
        <ele>163</ele>
        <time>2022-09-05T09:02:02.000Z</time>
      </trkpt>
      <trkpt lat="49.86143" lon="4.78239">
        <ele>163</ele>
        <time>2022-09-05T09:02:03.000Z</time>
      </trkpt>
      <trkpt lat="49.86142" lon="4.7824">
        <ele>164</ele>
        <time>2022-09-05T09:02:04.000Z</time>
      </trkpt>
      <trkpt lat="49.86142" lon="4.78241">
        <ele>164</ele>
        <time>2022-09-05T09:02:05.000Z</time>
      </trkpt>
      <trkpt lat="49.86142" lon="4.78241">
        <ele>164</ele>
        <time>2022-09-05T09:02:06.000Z</time>
      </trkpt>
      <trkpt lat="49.86142" lon="4.78243">
        <ele>164</ele>
        <time>2022-09-05T09:02:07.000Z</time>
      </trkpt>
      <trkpt lat="49.8614" lon="4.78246">
        <ele>164</ele>
        <time>2022-09-05T09:02:08.000Z</time>
      </trkpt>
      <trkpt lat="49.86137" lon="4.78248">
        <ele>164</ele>
        <time>2022-09-05T09:02:09.000Z</time>
      </trkpt>
      <trkpt lat="49.86134" lon="4.7825">
        <ele>164</ele>
        <time>2022-09-05T09:02:10.000Z</time>
      </trkpt>
      <trkpt lat="49.8613" lon="4.78253">
        <ele>164</ele>
        <time>2022-09-05T09:02:11.000Z</time>
      </trkpt>
      <trkpt lat="49.86125" lon="4.78256">
        <ele>164</ele>
        <time>2022-09-05T09:02:12.000Z</time>
      </trkpt>
      <trkpt lat="49.8612" lon="4.7826">
        <ele>164</ele>
        <time>2022-09-05T09:02:13.000Z</time>
      </trkpt>
      <trkpt lat="49.86116" lon="4.78263">
        <ele>164</ele>
        <time>2022-09-05T09:02:14.000Z</time>
      </trkpt>
      <trkpt lat="49.86112" lon="4.78268">
        <ele>163</ele>
        <time>2022-09-05T09:02:15.000Z</time>
      </trkpt>
      <trkpt lat="49.86107" lon="4.78272">
        <ele>163</ele>
        <time>2022-09-05T09:02:16.000Z</time>
      </trkpt>
      <trkpt lat="49.86102" lon="4.78277">
        <ele>163</ele>
        <time>2022-09-05T09:02:17.000Z</time>
      </trkpt>
      <trkpt lat="49.86099" lon="4.78282">
        <ele>163</ele>
        <time>2022-09-05T09:02:18.000Z</time>
      </trkpt>
      <trkpt lat="49.86094" lon="4.78288">
        <ele>163</ele>
        <time>2022-09-05T09:02:19.000Z</time>
      </trkpt>
      <trkpt lat="49.86089" lon="4.78294">
        <ele>163</ele>
        <time>2022-09-05T09:02:20.000Z</time>
      </trkpt>
      <trkpt lat="49.86084" lon="4.78299">
        <ele>163</ele>
        <time>2022-09-05T09:02:21.000Z</time>
      </trkpt>
      <trkpt lat="49.8608" lon="4.78305">
        <ele>163</ele>
        <time>2022-09-05T09:02:22.000Z</time>
      </trkpt>
      <trkpt lat="49.86075" lon="4.7831">
        <ele>163</ele>
        <time>2022-09-05T09:02:23.000Z</time>
      </trkpt>
      <trkpt lat="49.8607" lon="4.78316">
        <ele>163</ele>
        <time>2022-09-05T09:02:24.000Z</time>
      </trkpt>
      <trkpt lat="49.86065" lon="4.78321">
        <ele>163</ele>
        <time>2022-09-05T09:02:25.000Z</time>
      </trkpt>
      <trkpt lat="49.8606" lon="4.78326">
        <ele>163</ele>
        <time>2022-09-05T09:02:26.000Z</time>
      </trkpt>
      <trkpt lat="49.86055" lon="4.7833">
        <ele>163</ele>
        <time>2022-09-05T09:02:27.000Z</time>
      </trkpt>
      <trkpt lat="49.8605" lon="4.78334">
        <ele>162</ele>
        <time>2022-09-05T09:02:28.000Z</time>
      </trkpt>
      <trkpt lat="49.86046" lon="4.78339">
        <ele>162</ele>
        <time>2022-09-05T09:02:29.000Z</time>
      </trkpt>
      <trkpt lat="49.86041" lon="4.78344">
        <ele>162</ele>
        <time>2022-09-05T09:02:30.000Z</time>
      </trkpt>
      <trkpt lat="49.86037" lon="4.78348">
        <ele>162</ele>
        <time>2022-09-05T09:02:31.000Z</time>
      </trkpt>
      <trkpt lat="49.86033" lon="4.78352">
        <ele>162</ele>
        <time>2022-09-05T09:02:32.000Z</time>
      </trkpt>
      <trkpt lat="49.86029" lon="4.78356">
        <ele>162</ele>
        <time>2022-09-05T09:02:33.000Z</time>
      </trkpt>
      <trkpt lat="49.86025" lon="4.7836">
        <ele>162</ele>
        <time>2022-09-05T09:02:34.000Z</time>
      </trkpt>
      <trkpt lat="49.86021" lon="4.78363">
        <ele>162</ele>
        <time>2022-09-05T09:02:35.000Z</time>
      </trkpt>
      <trkpt lat="49.86018" lon="4.78366">
        <ele>162</ele>
        <time>2022-09-05T09:02:36.000Z</time>
      </trkpt>
      <trkpt lat="49.86014" lon="4.78368">
        <ele>162</ele>
        <time>2022-09-05T09:02:37.000Z</time>
      </trkpt>
      <trkpt lat="49.86011" lon="4.78371">
        <ele>162</ele>
        <time>2022-09-05T09:02:38.000Z</time>
      </trkpt>
      <trkpt lat="49.86008" lon="4.78373">
        <ele>162</ele>
        <time>2022-09-05T09:02:39.000Z</time>
      </trkpt>
      <trkpt lat="49.86005" lon="4.78374">
        <ele>162</ele>
        <time>2022-09-05T09:02:40.000Z</time>
      </trkpt>
      <trkpt lat="49.86003" lon="4.78376">
        <ele>162</ele>
        <time>2022-09-05T09:02:41.000Z</time>
      </trkpt>
      <trkpt lat="49.86" lon="4.78378">
        <ele>161</ele>
        <time>2022-09-05T09:02:42.000Z</time>
      </trkpt>
      <trkpt lat="49.85997" lon="4.7838">
        <ele>161</ele>
        <time>2022-09-05T09:02:43.000Z</time>
      </trkpt>
      <trkpt lat="49.85995" lon="4.78382">
        <ele>161</ele>
        <time>2022-09-05T09:02:44.000Z</time>
      </trkpt>
      <trkpt lat="49.85992" lon="4.78385">
        <ele>161</ele>
        <time>2022-09-05T09:02:45.000Z</time>
      </trkpt>
      <trkpt lat="49.85989" lon="4.78388">
        <ele>161</ele>
        <time>2022-09-05T09:02:46.000Z</time>
      </trkpt>
      <trkpt lat="49.85987" lon="4.7839">
        <ele>161</ele>
        <time>2022-09-05T09:02:47.000Z</time>
      </trkpt>
      <trkpt lat="49.85984" lon="4.78393">
        <ele>161</ele>
        <time>2022-09-05T09:02:48.000Z</time>
      </trkpt>
      <trkpt lat="49.85982" lon="4.78395">
        <ele>160</ele>
        <time>2022-09-05T09:02:49.000Z</time>
      </trkpt>
      <trkpt lat="49.85979" lon="4.78397">
        <ele>160</ele>
        <time>2022-09-05T09:02:50.000Z</time>
      </trkpt>
      <trkpt lat="49.85977" lon="4.78399">
        <ele>160</ele>
        <time>2022-09-05T09:02:51.000Z</time>
      </trkpt>
      <trkpt lat="49.85975" lon="4.78401">
        <ele>160</ele>
        <time>2022-09-05T09:02:52.000Z</time>
      </trkpt>
      <trkpt lat="49.85972" lon="4.78403">
        <ele>159</ele>
        <time>2022-09-05T09:02:53.000Z</time>
      </trkpt>
      <trkpt lat="49.8597" lon="4.78405">
        <ele>159</ele>
        <time>2022-09-05T09:02:54.000Z</time>
      </trkpt>
      <trkpt lat="49.85968" lon="4.78408">
        <ele>159</ele>
        <time>2022-09-05T09:02:55.000Z</time>
      </trkpt>
      <trkpt lat="49.85965" lon="4.7841">
        <ele>159</ele>
        <time>2022-09-05T09:02:56.000Z</time>
      </trkpt>
      <trkpt lat="49.85963" lon="4.78412">
        <ele>159</ele>
        <time>2022-09-05T09:02:57.000Z</time>
      </trkpt>
      <trkpt lat="49.85961" lon="4.78414">
        <ele>159</ele>
        <time>2022-09-05T09:02:58.000Z</time>
      </trkpt>
      <trkpt lat="49.85958" lon="4.78417">
        <ele>159</ele>
        <time>2022-09-05T09:02:59.000Z</time>
      </trkpt>
      <trkpt lat="49.85956" lon="4.78419">
        <ele>159</ele>
        <time>2022-09-05T09:03:00.000Z</time>
      </trkpt>
      <trkpt lat="49.85955" lon="4.78422">
        <ele>159</ele>
        <time>2022-09-05T09:03:01.000Z</time>
      </trkpt>
      <trkpt lat="49.85954" lon="4.78425">
        <ele>159</ele>
        <time>2022-09-05T09:03:02.000Z</time>
      </trkpt>
      <trkpt lat="49.85953" lon="4.78428">
        <ele>159</ele>
        <time>2022-09-05T09:03:03.000Z</time>
      </trkpt>
      <trkpt lat="49.85953" lon="4.78431">
        <ele>158</ele>
        <time>2022-09-05T09:03:04.000Z</time>
      </trkpt>
      <trkpt lat="49.85953" lon="4.78435">
        <ele>158</ele>
        <time>2022-09-05T09:03:05.000Z</time>
      </trkpt>
      <trkpt lat="49.85954" lon="4.78439">
        <ele>158</ele>
        <time>2022-09-05T09:03:06.000Z</time>
      </trkpt>
      <trkpt lat="49.85954" lon="4.78444">
        <ele>157</ele>
        <time>2022-09-05T09:03:07.000Z</time>
      </trkpt>
      <trkpt lat="49.85953" lon="4.7845">
        <ele>157</ele>
        <time>2022-09-05T09:03:08.000Z</time>
      </trkpt>
      <trkpt lat="49.85951" lon="4.78455">
        <ele>157</ele>
        <time>2022-09-05T09:03:09.000Z</time>
      </trkpt>
      <trkpt lat="49.85949" lon="4.78461">
        <ele>156</ele>
        <time>2022-09-05T09:03:10.000Z</time>
      </trkpt>
      <trkpt lat="49.85947" lon="4.78465">
        <ele>156</ele>
        <time>2022-09-05T09:03:11.000Z</time>
      </trkpt>
      <trkpt lat="49.85946" lon="4.78468">
        <ele>156</ele>
        <time>2022-09-05T09:03:12.000Z</time>
      </trkpt>
      <trkpt lat="49.85944" lon="4.78473">
        <ele>156</ele>
        <time>2022-09-05T09:03:13.000Z</time>
      </trkpt>
      <trkpt lat="49.85942" lon="4.78477">
        <ele>156</ele>
        <time>2022-09-05T09:03:14.000Z</time>
      </trkpt>
      <trkpt lat="49.85939" lon="4.78481">
        <ele>155</ele>
        <time>2022-09-05T09:03:15.000Z</time>
      </trkpt>
      <trkpt lat="49.85936" lon="4.78486">
        <ele>155</ele>
        <time>2022-09-05T09:03:16.000Z</time>
      </trkpt>
      <trkpt lat="49.85933" lon="4.78492">
        <ele>155</ele>
        <time>2022-09-05T09:03:17.000Z</time>
      </trkpt>
      <trkpt lat="49.85929" lon="4.78497">
        <ele>155</ele>
        <time>2022-09-05T09:03:18.000Z</time>
      </trkpt>
      <trkpt lat="49.85926" lon="4.78504">
        <ele>155</ele>
        <time>2022-09-05T09:03:19.000Z</time>
      </trkpt>
      <trkpt lat="49.85922" lon="4.78511">
        <ele>155</ele>
        <time>2022-09-05T09:03:20.000Z</time>
      </trkpt>
      <trkpt lat="49.85918" lon="4.78519">
        <ele>155</ele>
        <time>2022-09-05T09:03:21.000Z</time>
      </trkpt>
      <trkpt lat="49.85914" lon="4.78529">
        <ele>154</ele>
        <time>2022-09-05T09:03:22.000Z</time>
      </trkpt>
      <trkpt lat="49.8591" lon="4.78539">
        <ele>154</ele>
        <time>2022-09-05T09:03:23.000Z</time>
      </trkpt>
      <trkpt lat="49.85906" lon="4.78549">
        <ele>154</ele>
        <time>2022-09-05T09:03:24.000Z</time>
      </trkpt>
      <trkpt lat="49.85903" lon="4.78558">
        <ele>153</ele>
        <time>2022-09-05T09:03:25.000Z</time>
      </trkpt>
      <trkpt lat="49.85899" lon="4.78567">
        <ele>153</ele>
        <time>2022-09-05T09:03:26.000Z</time>
      </trkpt>
      <trkpt lat="49.85897" lon="4.78575">
        <ele>153</ele>
        <time>2022-09-05T09:03:27.000Z</time>
      </trkpt>
      <trkpt lat="49.85894" lon="4.78584">
        <ele>153</ele>
        <time>2022-09-05T09:03:28.000Z</time>
      </trkpt>
      <trkpt lat="49.85892" lon="4.78591">
        <ele>153</ele>
        <time>2022-09-05T09:03:29.000Z</time>
      </trkpt>
      <trkpt lat="49.8589" lon="4.78598">
        <ele>153</ele>
        <time>2022-09-05T09:03:30.000Z</time>
      </trkpt>
      <trkpt lat="49.85887" lon="4.78604">
        <ele>152</ele>
        <time>2022-09-05T09:03:31.000Z</time>
      </trkpt>
      <trkpt lat="49.85884" lon="4.7861">
        <ele>152</ele>
        <time>2022-09-05T09:03:32.000Z</time>
      </trkpt>
      <trkpt lat="49.8588" lon="4.78615">
        <ele>152</ele>
        <time>2022-09-05T09:03:33.000Z</time>
      </trkpt>
      <trkpt lat="49.85877" lon="4.7862">
        <ele>152</ele>
        <time>2022-09-05T09:03:34.000Z</time>
      </trkpt>
      <trkpt lat="49.85874" lon="4.78624">
        <ele>152</ele>
        <time>2022-09-05T09:03:35.000Z</time>
      </trkpt>
      <trkpt lat="49.85871" lon="4.7863">
        <ele>152</ele>
        <time>2022-09-05T09:03:36.000Z</time>
      </trkpt>
      <trkpt lat="49.85868" lon="4.78634">
        <ele>152</ele>
        <time>2022-09-05T09:03:37.000Z</time>
      </trkpt>
      <trkpt lat="49.85865" lon="4.78637">
        <ele>152</ele>
        <time>2022-09-05T09:03:38.000Z</time>
      </trkpt>
      <trkpt lat="49.85861" lon="4.7864">
        <ele>152</ele>
        <time>2022-09-05T09:03:39.000Z</time>
      </trkpt>
      <trkpt lat="49.85857" lon="4.78642">
        <ele>152</ele>
        <time>2022-09-05T09:03:40.000Z</time>
      </trkpt>
      <trkpt lat="49.85853" lon="4.78644">
        <ele>152</ele>
        <time>2022-09-05T09:03:41.000Z</time>
      </trkpt>
      <trkpt lat="49.85849" lon="4.78646">
        <ele>152</ele>
        <time>2022-09-05T09:03:42.000Z</time>
      </trkpt>
      <trkpt lat="49.85845" lon="4.78649">
        <ele>152</ele>
        <time>2022-09-05T09:03:43.000Z</time>
      </trkpt>
      <trkpt lat="49.85841" lon="4.78652">
        <ele>152</ele>
        <time>2022-09-05T09:03:44.000Z</time>
      </trkpt>
      <trkpt lat="49.85839" lon="4.78655">
        <ele>152</ele>
        <time>2022-09-05T09:03:45.000Z</time>
      </trkpt>
      <trkpt lat="49.85836" lon="4.78658">
        <ele>152</ele>
        <time>2022-09-05T09:03:46.000Z</time>
      </trkpt>
      <trkpt lat="49.85834" lon="4.7866">
        <ele>152</ele>
        <time>2022-09-05T09:03:47.000Z</time>
      </trkpt>
      <trkpt lat="49.85832" lon="4.78663">
        <ele>153</ele>
        <time>2022-09-05T09:03:48.000Z</time>
      </trkpt>
      <trkpt lat="49.8583" lon="4.78666">
        <ele>153</ele>
        <time>2022-09-05T09:03:49.000Z</time>
      </trkpt>
      <trkpt lat="49.85828" lon="4.78669">
        <ele>153</ele>
        <time>2022-09-05T09:03:50.000Z</time>
      </trkpt>
      <trkpt lat="49.85826" lon="4.78672">
        <ele>153</ele>
        <time>2022-09-05T09:03:51.000Z</time>
      </trkpt>
      <trkpt lat="49.85824" lon="4.78674">
        <ele>154</ele>
        <time>2022-09-05T09:03:52.000Z</time>
      </trkpt>
      <trkpt lat="49.85821" lon="4.78677">
        <ele>154</ele>
        <time>2022-09-05T09:03:53.000Z</time>
      </trkpt>
      <trkpt lat="49.85819" lon="4.78681">
        <ele>154</ele>
        <time>2022-09-05T09:03:54.000Z</time>
      </trkpt>
      <trkpt lat="49.85816" lon="4.78685">
        <ele>154</ele>
        <time>2022-09-05T09:03:55.000Z</time>
      </trkpt>
      <trkpt lat="49.85814" lon="4.78688">
        <ele>155</ele>
        <time>2022-09-05T09:03:56.000Z</time>
      </trkpt>
      <trkpt lat="49.85811" lon="4.78692">
        <ele>155</ele>
        <time>2022-09-05T09:03:57.000Z</time>
      </trkpt>
      <trkpt lat="49.85809" lon="4.78696">
        <ele>155</ele>
        <time>2022-09-05T09:03:58.000Z</time>
      </trkpt>
      <trkpt lat="49.85806" lon="4.787">
        <ele>155</ele>
        <time>2022-09-05T09:03:59.000Z</time>
      </trkpt>
      <trkpt lat="49.85803" lon="4.78702">
        <ele>156</ele>
        <time>2022-09-05T09:04:00.000Z</time>
      </trkpt>
      <trkpt lat="49.858" lon="4.78706">
        <ele>156</ele>
        <time>2022-09-05T09:04:01.000Z</time>
      </trkpt>
      <trkpt lat="49.85798" lon="4.7871">
        <ele>156</ele>
        <time>2022-09-05T09:04:02.000Z</time>
      </trkpt>
      <trkpt lat="49.85795" lon="4.78714">
        <ele>156</ele>
        <time>2022-09-05T09:04:03.000Z</time>
      </trkpt>
      <trkpt lat="49.85792" lon="4.78717">
        <ele>156</ele>
        <time>2022-09-05T09:04:04.000Z</time>
      </trkpt>
      <trkpt lat="49.85789" lon="4.78721">
        <ele>157</ele>
        <time>2022-09-05T09:04:05.000Z</time>
      </trkpt>
      <trkpt lat="49.85786" lon="4.78725">
        <ele>157</ele>
        <time>2022-09-05T09:04:06.000Z</time>
      </trkpt>
      <trkpt lat="49.85782" lon="4.78729">
        <ele>157</ele>
        <time>2022-09-05T09:04:07.000Z</time>
      </trkpt>
      <trkpt lat="49.85779" lon="4.78732">
        <ele>157</ele>
        <time>2022-09-05T09:04:08.000Z</time>
      </trkpt>
      <trkpt lat="49.85776" lon="4.78737">
        <ele>157</ele>
        <time>2022-09-05T09:04:09.000Z</time>
      </trkpt>
      <trkpt lat="49.85772" lon="4.7874">
        <ele>158</ele>
        <time>2022-09-05T09:04:10.000Z</time>
      </trkpt>
      <trkpt lat="49.85769" lon="4.78744">
        <ele>158</ele>
        <time>2022-09-05T09:04:11.000Z</time>
      </trkpt>
      <trkpt lat="49.85766" lon="4.78748">
        <ele>158</ele>
        <time>2022-09-05T09:04:12.000Z</time>
      </trkpt>
      <trkpt lat="49.85763" lon="4.78752">
        <ele>158</ele>
        <time>2022-09-05T09:04:13.000Z</time>
      </trkpt>
      <trkpt lat="49.8576" lon="4.78755">
        <ele>158</ele>
        <time>2022-09-05T09:04:14.000Z</time>
      </trkpt>
      <trkpt lat="49.85757" lon="4.78758">
        <ele>159</ele>
        <time>2022-09-05T09:04:15.000Z</time>
      </trkpt>
      <trkpt lat="49.85754" lon="4.78761">
        <ele>159</ele>
        <time>2022-09-05T09:04:16.000Z</time>
      </trkpt>
      <trkpt lat="49.85751" lon="4.78764">
        <ele>159</ele>
        <time>2022-09-05T09:04:17.000Z</time>
      </trkpt>
      <trkpt lat="49.85748" lon="4.78768">
        <ele>159</ele>
        <time>2022-09-05T09:04:18.000Z</time>
      </trkpt>
      <trkpt lat="49.85746" lon="4.78772">
        <ele>160</ele>
        <time>2022-09-05T09:04:19.000Z</time>
      </trkpt>
      <trkpt lat="49.85743" lon="4.78775">
        <ele>160</ele>
        <time>2022-09-05T09:04:20.000Z</time>
      </trkpt>
      <trkpt lat="49.85741" lon="4.78778">
        <ele>160</ele>
        <time>2022-09-05T09:04:21.000Z</time>
      </trkpt>
      <trkpt lat="49.85738" lon="4.78781">
        <ele>160</ele>
        <time>2022-09-05T09:04:22.000Z</time>
      </trkpt>
      <trkpt lat="49.85735" lon="4.78785">
        <ele>160</ele>
        <time>2022-09-05T09:04:23.000Z</time>
      </trkpt>
      <trkpt lat="49.85731" lon="4.78789">
        <ele>160</ele>
        <time>2022-09-05T09:04:24.000Z</time>
      </trkpt>
      <trkpt lat="49.85728" lon="4.78792">
        <ele>161</ele>
        <time>2022-09-05T09:04:25.000Z</time>
      </trkpt>
      <trkpt lat="49.85724" lon="4.78795">
        <ele>161</ele>
        <time>2022-09-05T09:04:26.000Z</time>
      </trkpt>
      <trkpt lat="49.85721" lon="4.78798">
        <ele>161</ele>
        <time>2022-09-05T09:04:27.000Z</time>
      </trkpt>
      <trkpt lat="49.85718" lon="4.78802">
        <ele>161</ele>
        <time>2022-09-05T09:04:28.000Z</time>
      </trkpt>
      <trkpt lat="49.85715" lon="4.78806">
        <ele>162</ele>
        <time>2022-09-05T09:04:29.000Z</time>
      </trkpt>
      <trkpt lat="49.85711" lon="4.7881">
        <ele>162</ele>
        <time>2022-09-05T09:04:30.000Z</time>
      </trkpt>
      <trkpt lat="49.85707" lon="4.78814">
        <ele>162</ele>
        <time>2022-09-05T09:04:31.000Z</time>
      </trkpt>
      <trkpt lat="49.85703" lon="4.78818">
        <ele>162</ele>
        <time>2022-09-05T09:04:32.000Z</time>
      </trkpt>
      <trkpt lat="49.85699" lon="4.78822">
        <ele>162</ele>
        <time>2022-09-05T09:04:33.000Z</time>
      </trkpt>
      <trkpt lat="49.85696" lon="4.78826">
        <ele>163</ele>
        <time>2022-09-05T09:04:34.000Z</time>
      </trkpt>
      <trkpt lat="49.85692" lon="4.7883">
        <ele>163</ele>
        <time>2022-09-05T09:04:35.000Z</time>
      </trkpt>
      <trkpt lat="49.85689" lon="4.78834">
        <ele>163</ele>
        <time>2022-09-05T09:04:36.000Z</time>
      </trkpt>
      <trkpt lat="49.85685" lon="4.78837">
        <ele>164</ele>
        <time>2022-09-05T09:04:37.000Z</time>
      </trkpt>
      <trkpt lat="49.85682" lon="4.78841">
        <ele>164</ele>
        <time>2022-09-05T09:04:38.000Z</time>
      </trkpt>
      <trkpt lat="49.85679" lon="4.78844">
        <ele>164</ele>
        <time>2022-09-05T09:04:39.000Z</time>
      </trkpt>
      <trkpt lat="49.85677" lon="4.78846">
        <ele>165</ele>
        <time>2022-09-05T09:04:40.000Z</time>
      </trkpt>
      <trkpt lat="49.85675" lon="4.78847">
        <ele>165</ele>
        <time>2022-09-05T09:04:41.000Z</time>
      </trkpt>
      <trkpt lat="49.85673" lon="4.78847">
        <ele>165</ele>
        <time>2022-09-05T09:04:42.000Z</time>
      </trkpt>
      <trkpt lat="49.85671" lon="4.78849">
        <ele>165</ele>
        <time>2022-09-05T09:04:43.000Z</time>
      </trkpt>
      <trkpt lat="49.85669" lon="4.78851">
        <ele>166</ele>
        <time>2022-09-05T09:04:44.000Z</time>
      </trkpt>
      <trkpt lat="49.85667" lon="4.78854">
        <ele>166</ele>
        <time>2022-09-05T09:04:45.000Z</time>
      </trkpt>
      <trkpt lat="49.85666" lon="4.78857">
        <ele>166</ele>
        <time>2022-09-05T09:04:46.000Z</time>
      </trkpt>
      <trkpt lat="49.85664" lon="4.78861">
        <ele>166</ele>
        <time>2022-09-05T09:04:47.000Z</time>
      </trkpt>
      <trkpt lat="49.85662" lon="4.78865">
        <ele>167</ele>
        <time>2022-09-05T09:04:48.000Z</time>
      </trkpt>
      <trkpt lat="49.8566" lon="4.78869">
        <ele>167</ele>
        <time>2022-09-05T09:04:49.000Z</time>
      </trkpt>
      <trkpt lat="49.85657" lon="4.78872">
        <ele>167</ele>
        <time>2022-09-05T09:04:50.000Z</time>
      </trkpt>
      <trkpt lat="49.85655" lon="4.78875">
        <ele>167</ele>
        <time>2022-09-05T09:04:51.000Z</time>
      </trkpt>
      <trkpt lat="49.85652" lon="4.78878">
        <ele>168</ele>
        <time>2022-09-05T09:04:52.000Z</time>
      </trkpt>
      <trkpt lat="49.85649" lon="4.78882">
        <ele>168</ele>
        <time>2022-09-05T09:04:53.000Z</time>
      </trkpt>
      <trkpt lat="49.85646" lon="4.78885">
        <ele>168</ele>
        <time>2022-09-05T09:04:54.000Z</time>
      </trkpt>
      <trkpt lat="49.85643" lon="4.78887">
        <ele>168</ele>
        <time>2022-09-05T09:04:55.000Z</time>
      </trkpt>
      <trkpt lat="49.8564" lon="4.7889">
        <ele>169</ele>
        <time>2022-09-05T09:04:56.000Z</time>
      </trkpt>
      <trkpt lat="49.85637" lon="4.78893">
        <ele>169</ele>
        <time>2022-09-05T09:04:57.000Z</time>
      </trkpt>
      <trkpt lat="49.85635" lon="4.78895">
        <ele>169</ele>
        <time>2022-09-05T09:04:58.000Z</time>
      </trkpt>
      <trkpt lat="49.85633" lon="4.78897">
        <ele>169</ele>
        <time>2022-09-05T09:04:59.000Z</time>
      </trkpt>
      <trkpt lat="49.85631" lon="4.78897">
        <ele>169</ele>
        <time>2022-09-05T09:05:00.000Z</time>
      </trkpt>
      <trkpt lat="49.85629" lon="4.78896">
        <ele>169</ele>
        <time>2022-09-05T09:05:01.000Z</time>
      </trkpt>
      <trkpt lat="49.85627" lon="4.78894">
        <ele>169</ele>
        <time>2022-09-05T09:05:02.000Z</time>
      </trkpt>
      <trkpt lat="49.85626" lon="4.78892">
        <ele>170</ele>
        <time>2022-09-05T09:05:03.000Z</time>
      </trkpt>
      <trkpt lat="49.85626" lon="4.7889">
        <ele>170</ele>
        <time>2022-09-05T09:05:04.000Z</time>
      </trkpt>
      <trkpt lat="49.85626" lon="4.78888">
        <ele>170</ele>
        <time>2022-09-05T09:05:05.000Z</time>
      </trkpt>
      <trkpt lat="49.85626" lon="4.78887">
        <ele>170</ele>
        <time>2022-09-05T09:05:06.000Z</time>
      </trkpt>
      <trkpt lat="49.85627" lon="4.78885">
        <ele>170</ele>
        <time>2022-09-05T09:05:07.000Z</time>
      </trkpt>
      <trkpt lat="49.85628" lon="4.78883">
        <ele>171</ele>
        <time>2022-09-05T09:05:08.000Z</time>
      </trkpt>
      <trkpt lat="49.85628" lon="4.78881">
        <ele>171</ele>
        <time>2022-09-05T09:05:09.000Z</time>
      </trkpt>
      <trkpt lat="49.85629" lon="4.78879">
        <ele>172</ele>
        <time>2022-09-05T09:05:10.000Z</time>
      </trkpt>
      <trkpt lat="49.85629" lon="4.78877">
        <ele>172</ele>
        <time>2022-09-05T09:05:11.000Z</time>
      </trkpt>
      <trkpt lat="49.8563" lon="4.78875">
        <ele>173</ele>
        <time>2022-09-05T09:05:12.000Z</time>
      </trkpt>
      <trkpt lat="49.8563" lon="4.78872">
        <ele>173</ele>
        <time>2022-09-05T09:05:13.000Z</time>
      </trkpt>
      <trkpt lat="49.85631" lon="4.7887">
        <ele>173</ele>
        <time>2022-09-05T09:05:14.000Z</time>
      </trkpt>
      <trkpt lat="49.85632" lon="4.78868">
        <ele>174</ele>
        <time>2022-09-05T09:05:15.000Z</time>
      </trkpt>
      <trkpt lat="49.85632" lon="4.78866">
        <ele>174</ele>
        <time>2022-09-05T09:05:16.000Z</time>
      </trkpt>
      <trkpt lat="49.85632" lon="4.78864">
        <ele>174</ele>
        <time>2022-09-05T09:05:17.000Z</time>
      </trkpt>
      <trkpt lat="49.85632" lon="4.78861">
        <ele>175</ele>
        <time>2022-09-05T09:05:18.000Z</time>
      </trkpt>
      <trkpt lat="49.85633" lon="4.78859">
        <ele>175</ele>
        <time>2022-09-05T09:05:19.000Z</time>
      </trkpt>
      <trkpt lat="49.85633" lon="4.78856">
        <ele>175</ele>
        <time>2022-09-05T09:05:20.000Z</time>
      </trkpt>
      <trkpt lat="49.85634" lon="4.78855">
        <ele>175</ele>
        <time>2022-09-05T09:05:21.000Z</time>
      </trkpt>
      <trkpt lat="49.85634" lon="4.78853">
        <ele>176</ele>
        <time>2022-09-05T09:05:22.000Z</time>
      </trkpt>
      <trkpt lat="49.85635" lon="4.78851">
        <ele>176</ele>
        <time>2022-09-05T09:05:23.000Z</time>
      </trkpt>
      <trkpt lat="49.85636" lon="4.78849">
        <ele>176</ele>
        <time>2022-09-05T09:05:24.000Z</time>
      </trkpt>
      <trkpt lat="49.85637" lon="4.78846">
        <ele>177</ele>
        <time>2022-09-05T09:05:25.000Z</time>
      </trkpt>
      <trkpt lat="49.85638" lon="4.78844">
        <ele>177</ele>
        <time>2022-09-05T09:05:26.000Z</time>
      </trkpt>
      <trkpt lat="49.85638" lon="4.7884">
        <ele>177</ele>
        <time>2022-09-05T09:05:27.000Z</time>
      </trkpt>
      <trkpt lat="49.85639" lon="4.78837">
        <ele>178</ele>
        <time>2022-09-05T09:05:28.000Z</time>
      </trkpt>
      <trkpt lat="49.8564" lon="4.78834">
        <ele>178</ele>
        <time>2022-09-05T09:05:29.000Z</time>
      </trkpt>
      <trkpt lat="49.85641" lon="4.78832">
        <ele>178</ele>
        <time>2022-09-05T09:05:30.000Z</time>
      </trkpt>
      <trkpt lat="49.85642" lon="4.78829">
        <ele>179</ele>
        <time>2022-09-05T09:05:31.000Z</time>
      </trkpt>
      <trkpt lat="49.85643" lon="4.78827">
        <ele>179</ele>
        <time>2022-09-05T09:05:32.000Z</time>
      </trkpt>
      <trkpt lat="49.85645" lon="4.78824">
        <ele>179</ele>
        <time>2022-09-05T09:05:33.000Z</time>
      </trkpt>
      <trkpt lat="49.85646" lon="4.78822">
        <ele>179</ele>
        <time>2022-09-05T09:05:34.000Z</time>
      </trkpt>
      <trkpt lat="49.85646" lon="4.78821">
        <ele>180</ele>
        <time>2022-09-05T09:05:35.000Z</time>
      </trkpt>
      <trkpt lat="49.85647" lon="4.78818">
        <ele>180</ele>
        <time>2022-09-05T09:05:36.000Z</time>
      </trkpt>
      <trkpt lat="49.85648" lon="4.78816">
        <ele>180</ele>
        <time>2022-09-05T09:05:37.000Z</time>
      </trkpt>
      <trkpt lat="49.85649" lon="4.78815">
        <ele>181</ele>
        <time>2022-09-05T09:05:38.000Z</time>
      </trkpt>
      <trkpt lat="49.8565" lon="4.78813">
        <ele>181</ele>
        <time>2022-09-05T09:05:39.000Z</time>
      </trkpt>
      <trkpt lat="49.85651" lon="4.78811">
        <ele>181</ele>
        <time>2022-09-05T09:05:40.000Z</time>
      </trkpt>
      <trkpt lat="49.85652" lon="4.78808">
        <ele>181</ele>
        <time>2022-09-05T09:05:41.000Z</time>
      </trkpt>
      <trkpt lat="49.85652" lon="4.78805">
        <ele>182</ele>
        <time>2022-09-05T09:05:42.000Z</time>
      </trkpt>
      <trkpt lat="49.85653" lon="4.78802">
        <ele>182</ele>
        <time>2022-09-05T09:05:43.000Z</time>
      </trkpt>
      <trkpt lat="49.85654" lon="4.78801">
        <ele>182</ele>
        <time>2022-09-05T09:05:44.000Z</time>
      </trkpt>
      <trkpt lat="49.85655" lon="4.78799">
        <ele>182</ele>
        <time>2022-09-05T09:05:45.000Z</time>
      </trkpt>
      <trkpt lat="49.85655" lon="4.78797">
        <ele>183</ele>
        <time>2022-09-05T09:05:46.000Z</time>
      </trkpt>
      <trkpt lat="49.85655" lon="4.78796">
        <ele>183</ele>
        <time>2022-09-05T09:05:47.000Z</time>
      </trkpt>
      <trkpt lat="49.85655" lon="4.78795">
        <ele>183</ele>
        <time>2022-09-05T09:05:48.000Z</time>
      </trkpt>
      <trkpt lat="49.85654" lon="4.78795">
        <ele>184</ele>
        <time>2022-09-05T09:05:49.000Z</time>
      </trkpt>
      <trkpt lat="49.85654" lon="4.78796">
        <ele>184</ele>
        <time>2022-09-05T09:05:50.000Z</time>
      </trkpt>
      <trkpt lat="49.85653" lon="4.78798">
        <ele>185</ele>
        <time>2022-09-05T09:05:51.000Z</time>
      </trkpt>
      <trkpt lat="49.85652" lon="4.78801">
        <ele>185</ele>
        <time>2022-09-05T09:05:52.000Z</time>
      </trkpt>
      <trkpt lat="49.85651" lon="4.78802">
        <ele>185</ele>
        <time>2022-09-05T09:05:53.000Z</time>
      </trkpt>
      <trkpt lat="49.8565" lon="4.78804">
        <ele>186</ele>
        <time>2022-09-05T09:05:54.000Z</time>
      </trkpt>
      <trkpt lat="49.85649" lon="4.78807">
        <ele>186</ele>
        <time>2022-09-05T09:05:55.000Z</time>
      </trkpt>
      <trkpt lat="49.85648" lon="4.78809">
        <ele>186</ele>
        <time>2022-09-05T09:05:56.000Z</time>
      </trkpt>
      <trkpt lat="49.85648" lon="4.78811">
        <ele>187</ele>
        <time>2022-09-05T09:05:57.000Z</time>
      </trkpt>
      <trkpt lat="49.85647" lon="4.78813">
        <ele>187</ele>
        <time>2022-09-05T09:05:58.000Z</time>
      </trkpt>
      <trkpt lat="49.85646" lon="4.78815">
        <ele>187</ele>
        <time>2022-09-05T09:05:59.000Z</time>
      </trkpt>
      <trkpt lat="49.85644" lon="4.78817">
        <ele>187</ele>
        <time>2022-09-05T09:06:00.000Z</time>
      </trkpt>
      <trkpt lat="49.85643" lon="4.7882">
        <ele>187</ele>
        <time>2022-09-05T09:06:01.000Z</time>
      </trkpt>
      <trkpt lat="49.85642" lon="4.78822">
        <ele>188</ele>
        <time>2022-09-05T09:06:02.000Z</time>
      </trkpt>
      <trkpt lat="49.85642" lon="4.78825">
        <ele>188</ele>
        <time>2022-09-05T09:06:03.000Z</time>
      </trkpt>
      <trkpt lat="49.8564" lon="4.78826">
        <ele>188</ele>
        <time>2022-09-05T09:06:04.000Z</time>
      </trkpt>
      <trkpt lat="49.85639" lon="4.78828">
        <ele>188</ele>
        <time>2022-09-05T09:06:05.000Z</time>
      </trkpt>
      <trkpt lat="49.85638" lon="4.78831">
        <ele>188</ele>
        <time>2022-09-05T09:06:06.000Z</time>
      </trkpt>
      <trkpt lat="49.85637" lon="4.78833">
        <ele>188</ele>
        <time>2022-09-05T09:06:07.000Z</time>
      </trkpt>
      <trkpt lat="49.85635" lon="4.78836">
        <ele>188</ele>
        <time>2022-09-05T09:06:08.000Z</time>
      </trkpt>
      <trkpt lat="49.85633" lon="4.78838">
        <ele>188</ele>
        <time>2022-09-05T09:06:09.000Z</time>
      </trkpt>
      <trkpt lat="49.85631" lon="4.78841">
        <ele>188</ele>
        <time>2022-09-05T09:06:10.000Z</time>
      </trkpt>
      <trkpt lat="49.85628" lon="4.78844">
        <ele>188</ele>
        <time>2022-09-05T09:06:11.000Z</time>
      </trkpt>
      <trkpt lat="49.85626" lon="4.78846">
        <ele>188</ele>
        <time>2022-09-05T09:06:12.000Z</time>
      </trkpt>
      <trkpt lat="49.85624" lon="4.78848">
        <ele>188</ele>
        <time>2022-09-05T09:06:13.000Z</time>
      </trkpt>
      <trkpt lat="49.85622" lon="4.78851">
        <ele>188</ele>
        <time>2022-09-05T09:06:14.000Z</time>
      </trkpt>
      <trkpt lat="49.8562" lon="4.78853">
        <ele>188</ele>
        <time>2022-09-05T09:06:15.000Z</time>
      </trkpt>
      <trkpt lat="49.85617" lon="4.78856">
        <ele>188</ele>
        <time>2022-09-05T09:06:16.000Z</time>
      </trkpt>
      <trkpt lat="49.85615" lon="4.78858">
        <ele>188</ele>
        <time>2022-09-05T09:06:17.000Z</time>
      </trkpt>
      <trkpt lat="49.85612" lon="4.7886">
        <ele>188</ele>
        <time>2022-09-05T09:06:18.000Z</time>
      </trkpt>
      <trkpt lat="49.8561" lon="4.78863">
        <ele>188</ele>
        <time>2022-09-05T09:06:19.000Z</time>
      </trkpt>
      <trkpt lat="49.85608" lon="4.78867">
        <ele>188</ele>
        <time>2022-09-05T09:06:20.000Z</time>
      </trkpt>
      <trkpt lat="49.85606" lon="4.78869">
        <ele>188</ele>
        <time>2022-09-05T09:06:21.000Z</time>
      </trkpt>
      <trkpt lat="49.85603" lon="4.78872">
        <ele>188</ele>
        <time>2022-09-05T09:06:22.000Z</time>
      </trkpt>
      <trkpt lat="49.856" lon="4.78875">
        <ele>188</ele>
        <time>2022-09-05T09:06:23.000Z</time>
      </trkpt>
      <trkpt lat="49.85598" lon="4.78879">
        <ele>187</ele>
        <time>2022-09-05T09:06:24.000Z</time>
      </trkpt>
      <trkpt lat="49.85595" lon="4.78883">
        <ele>187</ele>
        <time>2022-09-05T09:06:25.000Z</time>
      </trkpt>
      <trkpt lat="49.85592" lon="4.78886">
        <ele>187</ele>
        <time>2022-09-05T09:06:26.000Z</time>
      </trkpt>
      <trkpt lat="49.8559" lon="4.78889">
        <ele>187</ele>
        <time>2022-09-05T09:06:27.000Z</time>
      </trkpt>
      <trkpt lat="49.85587" lon="4.78893">
        <ele>187</ele>
        <time>2022-09-05T09:06:28.000Z</time>
      </trkpt>
      <trkpt lat="49.85585" lon="4.78897">
        <ele>188</ele>
        <time>2022-09-05T09:06:29.000Z</time>
      </trkpt>
      <trkpt lat="49.85583" lon="4.789">
        <ele>188</ele>
        <time>2022-09-05T09:06:30.000Z</time>
      </trkpt>
      <trkpt lat="49.8558" lon="4.78904">
        <ele>188</ele>
        <time>2022-09-05T09:06:31.000Z</time>
      </trkpt>
      <trkpt lat="49.85578" lon="4.78907">
        <ele>188</ele>
        <time>2022-09-05T09:06:32.000Z</time>
      </trkpt>
      <trkpt lat="49.85576" lon="4.7891">
        <ele>188</ele>
        <time>2022-09-05T09:06:33.000Z</time>
      </trkpt>
      <trkpt lat="49.85573" lon="4.78913">
        <ele>188</ele>
        <time>2022-09-05T09:06:34.000Z</time>
      </trkpt>
      <trkpt lat="49.85572" lon="4.78915">
        <ele>188</ele>
        <time>2022-09-05T09:06:35.000Z</time>
      </trkpt>
      <trkpt lat="49.8557" lon="4.78918">
        <ele>189</ele>
        <time>2022-09-05T09:06:36.000Z</time>
      </trkpt>
      <trkpt lat="49.85569" lon="4.7892">
        <ele>189</ele>
        <time>2022-09-05T09:06:37.000Z</time>
      </trkpt>
      <trkpt lat="49.85568" lon="4.78922">
        <ele>189</ele>
        <time>2022-09-05T09:06:38.000Z</time>
      </trkpt>
      <trkpt lat="49.85566" lon="4.78925">
        <ele>189</ele>
        <time>2022-09-05T09:06:39.000Z</time>
      </trkpt>
      <trkpt lat="49.85564" lon="4.78927">
        <ele>190</ele>
        <time>2022-09-05T09:06:40.000Z</time>
      </trkpt>
      <trkpt lat="49.85562" lon="4.78929">
        <ele>190</ele>
        <time>2022-09-05T09:06:41.000Z</time>
      </trkpt>
      <trkpt lat="49.85561" lon="4.78932">
        <ele>190</ele>
        <time>2022-09-05T09:06:42.000Z</time>
      </trkpt>
      <trkpt lat="49.85559" lon="4.78934">
        <ele>190</ele>
        <time>2022-09-05T09:06:43.000Z</time>
      </trkpt>
      <trkpt lat="49.85557" lon="4.78937">
        <ele>191</ele>
        <time>2022-09-05T09:06:44.000Z</time>
      </trkpt>
      <trkpt lat="49.85556" lon="4.78939">
        <ele>191</ele>
        <time>2022-09-05T09:06:45.000Z</time>
      </trkpt>
      <trkpt lat="49.85555" lon="4.78941">
        <ele>191</ele>
        <time>2022-09-05T09:06:46.000Z</time>
      </trkpt>
      <trkpt lat="49.85553" lon="4.78943">
        <ele>192</ele>
        <time>2022-09-05T09:06:47.000Z</time>
      </trkpt>
      <trkpt lat="49.85552" lon="4.78946">
        <ele>192</ele>
        <time>2022-09-05T09:06:48.000Z</time>
      </trkpt>
      <trkpt lat="49.85551" lon="4.78947">
        <ele>192</ele>
        <time>2022-09-05T09:06:49.000Z</time>
      </trkpt>
      <trkpt lat="49.85549" lon="4.7895">
        <ele>192</ele>
        <time>2022-09-05T09:06:50.000Z</time>
      </trkpt>
      <trkpt lat="49.85548" lon="4.78952">
        <ele>193</ele>
        <time>2022-09-05T09:06:51.000Z</time>
      </trkpt>
      <trkpt lat="49.85547" lon="4.78953">
        <ele>193</ele>
        <time>2022-09-05T09:06:52.000Z</time>
      </trkpt>
      <trkpt lat="49.85545" lon="4.78954">
        <ele>193</ele>
        <time>2022-09-05T09:06:53.000Z</time>
      </trkpt>
      <trkpt lat="49.85544" lon="4.78956">
        <ele>194</ele>
        <time>2022-09-05T09:06:54.000Z</time>
      </trkpt>
      <trkpt lat="49.85543" lon="4.78957">
        <ele>194</ele>
        <time>2022-09-05T09:06:55.000Z</time>
      </trkpt>
      <trkpt lat="49.85541" lon="4.78958">
        <ele>194</ele>
        <time>2022-09-05T09:06:56.000Z</time>
      </trkpt>
      <trkpt lat="49.8554" lon="4.78958">
        <ele>194</ele>
        <time>2022-09-05T09:06:57.000Z</time>
      </trkpt>
      <trkpt lat="49.8554" lon="4.78959">
        <ele>195</ele>
        <time>2022-09-05T09:06:58.000Z</time>
      </trkpt>
      <trkpt lat="49.85539" lon="4.78959">
        <ele>195</ele>
        <time>2022-09-05T09:06:59.000Z</time>
      </trkpt>
      <trkpt lat="49.85539" lon="4.7896">
        <ele>195</ele>
        <time>2022-09-05T09:07:00.000Z</time>
      </trkpt>
      <trkpt lat="49.85538" lon="4.7896">
        <ele>195</ele>
        <time>2022-09-05T09:07:01.000Z</time>
      </trkpt>
      <trkpt lat="49.85538" lon="4.7896">
        <ele>195</ele>
        <time>2022-09-05T09:07:02.000Z</time>
      </trkpt>
      <trkpt lat="49.85537" lon="4.78961">
        <ele>196</ele>
        <time>2022-09-05T09:07:03.000Z</time>
      </trkpt>
      <trkpt lat="49.85536" lon="4.78962">
        <ele>196</ele>
        <time>2022-09-05T09:07:04.000Z</time>
      </trkpt>
      <trkpt lat="49.85535" lon="4.78963">
        <ele>196</ele>
        <time>2022-09-05T09:07:05.000Z</time>
      </trkpt>
      <trkpt lat="49.85534" lon="4.78964">
        <ele>196</ele>
        <time>2022-09-05T09:07:06.000Z</time>
      </trkpt>
      <trkpt lat="49.85533" lon="4.78965">
        <ele>196</ele>
        <time>2022-09-05T09:07:07.000Z</time>
      </trkpt>
      <trkpt lat="49.85531" lon="4.78966">
        <ele>197</ele>
        <time>2022-09-05T09:07:08.000Z</time>
      </trkpt>
      <trkpt lat="49.8553" lon="4.78967">
        <ele>197</ele>
        <time>2022-09-05T09:07:09.000Z</time>
      </trkpt>
      <trkpt lat="49.85528" lon="4.78967">
        <ele>197</ele>
        <time>2022-09-05T09:07:10.000Z</time>
      </trkpt>
      <trkpt lat="49.85527" lon="4.78968">
        <ele>197</ele>
        <time>2022-09-05T09:07:11.000Z</time>
      </trkpt>
      <trkpt lat="49.85526" lon="4.78968">
        <ele>197</ele>
        <time>2022-09-05T09:07:12.000Z</time>
      </trkpt>
      <trkpt lat="49.85525" lon="4.78969">
        <ele>197</ele>
        <time>2022-09-05T09:07:13.000Z</time>
      </trkpt>
      <trkpt lat="49.85524" lon="4.7897">
        <ele>198</ele>
        <time>2022-09-05T09:07:14.000Z</time>
      </trkpt>
      <trkpt lat="49.85523" lon="4.78971">
        <ele>198</ele>
        <time>2022-09-05T09:07:15.000Z</time>
      </trkpt>
      <trkpt lat="49.85521" lon="4.78972">
        <ele>198</ele>
        <time>2022-09-05T09:07:16.000Z</time>
      </trkpt>
      <trkpt lat="49.8552" lon="4.78973">
        <ele>198</ele>
        <time>2022-09-05T09:07:17.000Z</time>
      </trkpt>
      <trkpt lat="49.85519" lon="4.78974">
        <ele>198</ele>
        <time>2022-09-05T09:07:18.000Z</time>
      </trkpt>
      <trkpt lat="49.85517" lon="4.78976">
        <ele>198</ele>
        <time>2022-09-05T09:07:19.000Z</time>
      </trkpt>
      <trkpt lat="49.85515" lon="4.78978">
        <ele>198</ele>
        <time>2022-09-05T09:07:20.000Z</time>
      </trkpt>
      <trkpt lat="49.85514" lon="4.7898">
        <ele>198</ele>
        <time>2022-09-05T09:07:21.000Z</time>
      </trkpt>
      <trkpt lat="49.85513" lon="4.78981">
        <ele>199</ele>
        <time>2022-09-05T09:07:22.000Z</time>
      </trkpt>
      <trkpt lat="49.85511" lon="4.78984">
        <ele>199</ele>
        <time>2022-09-05T09:07:23.000Z</time>
      </trkpt>
      <trkpt lat="49.8551" lon="4.78986">
        <ele>199</ele>
        <time>2022-09-05T09:07:24.000Z</time>
      </trkpt>
      <trkpt lat="49.85508" lon="4.78989">
        <ele>199</ele>
        <time>2022-09-05T09:07:25.000Z</time>
      </trkpt>
      <trkpt lat="49.85507" lon="4.78991">
        <ele>199</ele>
        <time>2022-09-05T09:07:26.000Z</time>
      </trkpt>
      <trkpt lat="49.85505" lon="4.78994">
        <ele>199</ele>
        <time>2022-09-05T09:07:27.000Z</time>
      </trkpt>
      <trkpt lat="49.85503" lon="4.78996">
        <ele>199</ele>
        <time>2022-09-05T09:07:28.000Z</time>
      </trkpt>
      <trkpt lat="49.85501" lon="4.78998">
        <ele>200</ele>
        <time>2022-09-05T09:07:29.000Z</time>
      </trkpt>
      <trkpt lat="49.85499" lon="4.79001">
        <ele>200</ele>
        <time>2022-09-05T09:07:30.000Z</time>
      </trkpt>
      <trkpt lat="49.85497" lon="4.79003">
        <ele>200</ele>
        <time>2022-09-05T09:07:31.000Z</time>
      </trkpt>
      <trkpt lat="49.85496" lon="4.79006">
        <ele>200</ele>
        <time>2022-09-05T09:07:32.000Z</time>
      </trkpt>
      <trkpt lat="49.85494" lon="4.79008">
        <ele>200</ele>
        <time>2022-09-05T09:07:33.000Z</time>
      </trkpt>
      <trkpt lat="49.85492" lon="4.79009">
        <ele>200</ele>
        <time>2022-09-05T09:07:34.000Z</time>
      </trkpt>
      <trkpt lat="49.85491" lon="4.79011">
        <ele>201</ele>
        <time>2022-09-05T09:07:35.000Z</time>
      </trkpt>
      <trkpt lat="49.85489" lon="4.79013">
        <ele>201</ele>
        <time>2022-09-05T09:07:36.000Z</time>
      </trkpt>
      <trkpt lat="49.85488" lon="4.79015">
        <ele>201</ele>
        <time>2022-09-05T09:07:37.000Z</time>
      </trkpt>
      <trkpt lat="49.85487" lon="4.79017">
        <ele>201</ele>
        <time>2022-09-05T09:07:38.000Z</time>
      </trkpt>
      <trkpt lat="49.85485" lon="4.7902">
        <ele>201</ele>
        <time>2022-09-05T09:07:39.000Z</time>
      </trkpt>
      <trkpt lat="49.85484" lon="4.79022">
        <ele>201</ele>
        <time>2022-09-05T09:07:40.000Z</time>
      </trkpt>
      <trkpt lat="49.85483" lon="4.79024">
        <ele>202</ele>
        <time>2022-09-05T09:07:41.000Z</time>
      </trkpt>
      <trkpt lat="49.85481" lon="4.79026">
        <ele>202</ele>
        <time>2022-09-05T09:07:42.000Z</time>
      </trkpt>
      <trkpt lat="49.8548" lon="4.79028">
        <ele>202</ele>
        <time>2022-09-05T09:07:43.000Z</time>
      </trkpt>
      <trkpt lat="49.85479" lon="4.7903">
        <ele>202</ele>
        <time>2022-09-05T09:07:44.000Z</time>
      </trkpt>
      <trkpt lat="49.85477" lon="4.79033">
        <ele>202</ele>
        <time>2022-09-05T09:07:45.000Z</time>
      </trkpt>
      <trkpt lat="49.85476" lon="4.79035">
        <ele>202</ele>
        <time>2022-09-05T09:07:46.000Z</time>
      </trkpt>
      <trkpt lat="49.85474" lon="4.79037">
        <ele>203</ele>
        <time>2022-09-05T09:07:47.000Z</time>
      </trkpt>
      <trkpt lat="49.85473" lon="4.79039">
        <ele>203</ele>
        <time>2022-09-05T09:07:48.000Z</time>
      </trkpt>
      <trkpt lat="49.85471" lon="4.79041">
        <ele>203</ele>
        <time>2022-09-05T09:07:49.000Z</time>
      </trkpt>
      <trkpt lat="49.8547" lon="4.79043">
        <ele>203</ele>
        <time>2022-09-05T09:07:50.000Z</time>
      </trkpt>
      <trkpt lat="49.85468" lon="4.79044">
        <ele>203</ele>
        <time>2022-09-05T09:07:51.000Z</time>
      </trkpt>
      <trkpt lat="49.85468" lon="4.79045">
        <ele>203</ele>
        <time>2022-09-05T09:07:52.000Z</time>
      </trkpt>
      <trkpt lat="49.85466" lon="4.79045">
        <ele>204</ele>
        <time>2022-09-05T09:07:53.000Z</time>
      </trkpt>
      <trkpt lat="49.85465" lon="4.79044">
        <ele>204</ele>
        <time>2022-09-05T09:07:54.000Z</time>
      </trkpt>
      <trkpt lat="49.85463" lon="4.79042">
        <ele>204</ele>
        <time>2022-09-05T09:07:55.000Z</time>
      </trkpt>
      <trkpt lat="49.85462" lon="4.79039">
        <ele>204</ele>
        <time>2022-09-05T09:07:56.000Z</time>
      </trkpt>
      <trkpt lat="49.85461" lon="4.79037">
        <ele>205</ele>
        <time>2022-09-05T09:07:57.000Z</time>
      </trkpt>
      <trkpt lat="49.85462" lon="4.79035">
        <ele>205</ele>
        <time>2022-09-05T09:07:58.000Z</time>
      </trkpt>
      <trkpt lat="49.85462" lon="4.79033">
        <ele>205</ele>
        <time>2022-09-05T09:07:59.000Z</time>
      </trkpt>
      <trkpt lat="49.85463" lon="4.79031">
        <ele>205</ele>
        <time>2022-09-05T09:08:00.000Z</time>
      </trkpt>
      <trkpt lat="49.85463" lon="4.7903">
        <ele>206</ele>
        <time>2022-09-05T09:08:01.000Z</time>
      </trkpt>
      <trkpt lat="49.85464" lon="4.79029">
        <ele>206</ele>
        <time>2022-09-05T09:08:02.000Z</time>
      </trkpt>
      <trkpt lat="49.85465" lon="4.79028">
        <ele>206</ele>
        <time>2022-09-05T09:08:03.000Z</time>
      </trkpt>
      <trkpt lat="49.85465" lon="4.79026">
        <ele>206</ele>
        <time>2022-09-05T09:08:04.000Z</time>
      </trkpt>
      <trkpt lat="49.85466" lon="4.79025">
        <ele>207</ele>
        <time>2022-09-05T09:08:05.000Z</time>
      </trkpt>
      <trkpt lat="49.85466" lon="4.79024">
        <ele>207</ele>
        <time>2022-09-05T09:08:06.000Z</time>
      </trkpt>
      <trkpt lat="49.85467" lon="4.79022">
        <ele>207</ele>
        <time>2022-09-05T09:08:07.000Z</time>
      </trkpt>
      <trkpt lat="49.85467" lon="4.7902">
        <ele>208</ele>
        <time>2022-09-05T09:08:08.000Z</time>
      </trkpt>
      <trkpt lat="49.85468" lon="4.79018">
        <ele>208</ele>
        <time>2022-09-05T09:08:09.000Z</time>
      </trkpt>
      <trkpt lat="49.85468" lon="4.79015">
        <ele>208</ele>
        <time>2022-09-05T09:08:10.000Z</time>
      </trkpt>
      <trkpt lat="49.85469" lon="4.79013">
        <ele>209</ele>
        <time>2022-09-05T09:08:11.000Z</time>
      </trkpt>
      <trkpt lat="49.85471" lon="4.79012">
        <ele>209</ele>
        <time>2022-09-05T09:08:12.000Z</time>
      </trkpt>
      <trkpt lat="49.85472" lon="4.7901">
        <ele>210</ele>
        <time>2022-09-05T09:08:13.000Z</time>
      </trkpt>
      <trkpt lat="49.85472" lon="4.79008">
        <ele>210</ele>
        <time>2022-09-05T09:08:14.000Z</time>
      </trkpt>
      <trkpt lat="49.85473" lon="4.79007">
        <ele>210</ele>
        <time>2022-09-05T09:08:15.000Z</time>
      </trkpt>
      <trkpt lat="49.85474" lon="4.79005">
        <ele>210</ele>
        <time>2022-09-05T09:08:16.000Z</time>
      </trkpt>
      <trkpt lat="49.85475" lon="4.79004">
        <ele>211</ele>
        <time>2022-09-05T09:08:17.000Z</time>
      </trkpt>
      <trkpt lat="49.85476" lon="4.79002">
        <ele>211</ele>
        <time>2022-09-05T09:08:18.000Z</time>
      </trkpt>
      <trkpt lat="49.85477" lon="4.79">
        <ele>211</ele>
        <time>2022-09-05T09:08:19.000Z</time>
      </trkpt>
      <trkpt lat="49.85478" lon="4.78998">
        <ele>212</ele>
        <time>2022-09-05T09:08:20.000Z</time>
      </trkpt>
      <trkpt lat="49.85479" lon="4.78996">
        <ele>212</ele>
        <time>2022-09-05T09:08:21.000Z</time>
      </trkpt>
      <trkpt lat="49.8548" lon="4.78993">
        <ele>212</ele>
        <time>2022-09-05T09:08:22.000Z</time>
      </trkpt>
      <trkpt lat="49.85481" lon="4.78991">
        <ele>212</ele>
        <time>2022-09-05T09:08:23.000Z</time>
      </trkpt>
      <trkpt lat="49.85482" lon="4.78988">
        <ele>212</ele>
        <time>2022-09-05T09:08:24.000Z</time>
      </trkpt>
      <trkpt lat="49.85483" lon="4.78986">
        <ele>213</ele>
        <time>2022-09-05T09:08:25.000Z</time>
      </trkpt>
      <trkpt lat="49.85484" lon="4.78983">
        <ele>213</ele>
        <time>2022-09-05T09:08:26.000Z</time>
      </trkpt>
      <trkpt lat="49.85485" lon="4.7898">
        <ele>213</ele>
        <time>2022-09-05T09:08:27.000Z</time>
      </trkpt>
      <trkpt lat="49.85485" lon="4.78978">
        <ele>213</ele>
        <time>2022-09-05T09:08:28.000Z</time>
      </trkpt>
      <trkpt lat="49.85486" lon="4.78975">
        <ele>213</ele>
        <time>2022-09-05T09:08:29.000Z</time>
      </trkpt>
      <trkpt lat="49.85487" lon="4.78972">
        <ele>214</ele>
        <time>2022-09-05T09:08:30.000Z</time>
      </trkpt>
      <trkpt lat="49.85488" lon="4.7897">
        <ele>214</ele>
        <time>2022-09-05T09:08:31.000Z</time>
      </trkpt>
      <trkpt lat="49.85489" lon="4.78967">
        <ele>214</ele>
        <time>2022-09-05T09:08:32.000Z</time>
      </trkpt>
      <trkpt lat="49.85489" lon="4.78965">
        <ele>214</ele>
        <time>2022-09-05T09:08:33.000Z</time>
      </trkpt>
      <trkpt lat="49.8549" lon="4.78962">
        <ele>214</ele>
        <time>2022-09-05T09:08:34.000Z</time>
      </trkpt>
      <trkpt lat="49.85491" lon="4.7896">
        <ele>215</ele>
        <time>2022-09-05T09:08:35.000Z</time>
      </trkpt>
      <trkpt lat="49.85491" lon="4.78958">
        <ele>215</ele>
        <time>2022-09-05T09:08:36.000Z</time>
      </trkpt>
      <trkpt lat="49.85492" lon="4.78956">
        <ele>215</ele>
        <time>2022-09-05T09:08:37.000Z</time>
      </trkpt>
      <trkpt lat="49.85494" lon="4.78953">
        <ele>215</ele>
        <time>2022-09-05T09:08:38.000Z</time>
      </trkpt>
      <trkpt lat="49.85495" lon="4.78951">
        <ele>215</ele>
        <time>2022-09-05T09:08:39.000Z</time>
      </trkpt>
      <trkpt lat="49.85496" lon="4.78949">
        <ele>216</ele>
        <time>2022-09-05T09:08:40.000Z</time>
      </trkpt>
      <trkpt lat="49.85497" lon="4.78947">
        <ele>216</ele>
        <time>2022-09-05T09:08:41.000Z</time>
      </trkpt>
      <trkpt lat="49.85498" lon="4.78944">
        <ele>216</ele>
        <time>2022-09-05T09:08:42.000Z</time>
      </trkpt>
      <trkpt lat="49.85499" lon="4.78942">
        <ele>216</ele>
        <time>2022-09-05T09:08:43.000Z</time>
      </trkpt>
      <trkpt lat="49.85501" lon="4.78939">
        <ele>216</ele>
        <time>2022-09-05T09:08:44.000Z</time>
      </trkpt>
      <trkpt lat="49.85502" lon="4.78937">
        <ele>217</ele>
        <time>2022-09-05T09:08:45.000Z</time>
      </trkpt>
      <trkpt lat="49.85503" lon="4.78935">
        <ele>217</ele>
        <time>2022-09-05T09:08:46.000Z</time>
      </trkpt>
      <trkpt lat="49.85504" lon="4.78933">
        <ele>217</ele>
        <time>2022-09-05T09:08:47.000Z</time>
      </trkpt>
      <trkpt lat="49.85505" lon="4.78931">
        <ele>217</ele>
        <time>2022-09-05T09:08:48.000Z</time>
      </trkpt>
      <trkpt lat="49.85506" lon="4.78929">
        <ele>217</ele>
        <time>2022-09-05T09:08:49.000Z</time>
      </trkpt>
      <trkpt lat="49.85507" lon="4.78927">
        <ele>218</ele>
        <time>2022-09-05T09:08:50.000Z</time>
      </trkpt>
      <trkpt lat="49.85508" lon="4.78925">
        <ele>218</ele>
        <time>2022-09-05T09:08:51.000Z</time>
      </trkpt>
      <trkpt lat="49.8551" lon="4.78924">
        <ele>218</ele>
        <time>2022-09-05T09:08:52.000Z</time>
      </trkpt>
      <trkpt lat="49.85511" lon="4.78922">
        <ele>219</ele>
        <time>2022-09-05T09:08:53.000Z</time>
      </trkpt>
      <trkpt lat="49.85512" lon="4.7892">
        <ele>219</ele>
        <time>2022-09-05T09:08:54.000Z</time>
      </trkpt>
      <trkpt lat="49.85513" lon="4.78918">
        <ele>219</ele>
        <time>2022-09-05T09:08:55.000Z</time>
      </trkpt>
      <trkpt lat="49.85514" lon="4.78916">
        <ele>219</ele>
        <time>2022-09-05T09:08:56.000Z</time>
      </trkpt>
      <trkpt lat="49.85515" lon="4.78914">
        <ele>220</ele>
        <time>2022-09-05T09:08:57.000Z</time>
      </trkpt>
      <trkpt lat="49.85515" lon="4.78912">
        <ele>220</ele>
        <time>2022-09-05T09:08:58.000Z</time>
      </trkpt>
      <trkpt lat="49.85516" lon="4.78911">
        <ele>220</ele>
        <time>2022-09-05T09:08:59.000Z</time>
      </trkpt>
      <trkpt lat="49.85517" lon="4.7891">
        <ele>220</ele>
        <time>2022-09-05T09:09:00.000Z</time>
      </trkpt>
      <trkpt lat="49.85518" lon="4.78908">
        <ele>221</ele>
        <time>2022-09-05T09:09:01.000Z</time>
      </trkpt>
      <trkpt lat="49.85519" lon="4.78907">
        <ele>221</ele>
        <time>2022-09-05T09:09:02.000Z</time>
      </trkpt>
      <trkpt lat="49.85519" lon="4.78905">
        <ele>221</ele>
        <time>2022-09-05T09:09:03.000Z</time>
      </trkpt>
      <trkpt lat="49.8552" lon="4.78904">
        <ele>221</ele>
        <time>2022-09-05T09:09:04.000Z</time>
      </trkpt>
      <trkpt lat="49.8552" lon="4.78902">
        <ele>221</ele>
        <time>2022-09-05T09:09:05.000Z</time>
      </trkpt>
      <trkpt lat="49.8552" lon="4.78899">
        <ele>222</ele>
        <time>2022-09-05T09:09:06.000Z</time>
      </trkpt>
      <trkpt lat="49.8552" lon="4.78896">
        <ele>222</ele>
        <time>2022-09-05T09:09:07.000Z</time>
      </trkpt>
      <trkpt lat="49.85519" lon="4.78894">
        <ele>222</ele>
        <time>2022-09-05T09:09:08.000Z</time>
      </trkpt>
      <trkpt lat="49.85518" lon="4.78893">
        <ele>222</ele>
        <time>2022-09-05T09:09:09.000Z</time>
      </trkpt>
      <trkpt lat="49.85516" lon="4.78892">
        <ele>222</ele>
        <time>2022-09-05T09:09:10.000Z</time>
      </trkpt>
      <trkpt lat="49.85515" lon="4.78892">
        <ele>222</ele>
        <time>2022-09-05T09:09:11.000Z</time>
      </trkpt>
      <trkpt lat="49.85514" lon="4.78893">
        <ele>223</ele>
        <time>2022-09-05T09:09:12.000Z</time>
      </trkpt>
      <trkpt lat="49.85512" lon="4.78894">
        <ele>223</ele>
        <time>2022-09-05T09:09:13.000Z</time>
      </trkpt>
      <trkpt lat="49.85511" lon="4.78895">
        <ele>223</ele>
        <time>2022-09-05T09:09:14.000Z</time>
      </trkpt>
      <trkpt lat="49.8551" lon="4.78895">
        <ele>223</ele>
        <time>2022-09-05T09:09:15.000Z</time>
      </trkpt>
      <trkpt lat="49.85509" lon="4.78896">
        <ele>223</ele>
        <time>2022-09-05T09:09:16.000Z</time>
      </trkpt>
      <trkpt lat="49.85507" lon="4.78897">
        <ele>224</ele>
        <time>2022-09-05T09:09:17.000Z</time>
      </trkpt>
      <trkpt lat="49.85505" lon="4.78898">
        <ele>224</ele>
        <time>2022-09-05T09:09:18.000Z</time>
      </trkpt>
      <trkpt lat="49.85503" lon="4.789">
        <ele>224</ele>
        <time>2022-09-05T09:09:19.000Z</time>
      </trkpt>
      <trkpt lat="49.85501" lon="4.78902">
        <ele>225</ele>
        <time>2022-09-05T09:09:20.000Z</time>
      </trkpt>
      <trkpt lat="49.855" lon="4.78903">
        <ele>225</ele>
        <time>2022-09-05T09:09:21.000Z</time>
      </trkpt>
      <trkpt lat="49.85498" lon="4.78905">
        <ele>225</ele>
        <time>2022-09-05T09:09:22.000Z</time>
      </trkpt>
      <trkpt lat="49.85497" lon="4.78906">
        <ele>225</ele>
        <time>2022-09-05T09:09:23.000Z</time>
      </trkpt>
      <trkpt lat="49.85496" lon="4.78908">
        <ele>226</ele>
        <time>2022-09-05T09:09:24.000Z</time>
      </trkpt>
      <trkpt lat="49.85494" lon="4.7891">
        <ele>226</ele>
        <time>2022-09-05T09:09:25.000Z</time>
      </trkpt>
      <trkpt lat="49.85493" lon="4.78911">
        <ele>226</ele>
        <time>2022-09-05T09:09:26.000Z</time>
      </trkpt>
      <trkpt lat="49.85491" lon="4.78913">
        <ele>226</ele>
        <time>2022-09-05T09:09:27.000Z</time>
      </trkpt>
      <trkpt lat="49.8549" lon="4.78916">
        <ele>227</ele>
        <time>2022-09-05T09:09:28.000Z</time>
      </trkpt>
      <trkpt lat="49.85489" lon="4.78918">
        <ele>227</ele>
        <time>2022-09-05T09:09:29.000Z</time>
      </trkpt>
      <trkpt lat="49.85488" lon="4.7892">
        <ele>227</ele>
        <time>2022-09-05T09:09:30.000Z</time>
      </trkpt>
      <trkpt lat="49.85487" lon="4.78922">
        <ele>227</ele>
        <time>2022-09-05T09:09:31.000Z</time>
      </trkpt>
      <trkpt lat="49.85486" lon="4.78925">
        <ele>228</ele>
        <time>2022-09-05T09:09:32.000Z</time>
      </trkpt>
      <trkpt lat="49.85485" lon="4.78928">
        <ele>228</ele>
        <time>2022-09-05T09:09:33.000Z</time>
      </trkpt>
      <trkpt lat="49.85483" lon="4.7893">
        <ele>229</ele>
        <time>2022-09-05T09:09:34.000Z</time>
      </trkpt>
      <trkpt lat="49.85482" lon="4.78932">
        <ele>229</ele>
        <time>2022-09-05T09:09:35.000Z</time>
      </trkpt>
      <trkpt lat="49.85481" lon="4.78934">
        <ele>230</ele>
        <time>2022-09-05T09:09:36.000Z</time>
      </trkpt>
      <trkpt lat="49.8548" lon="4.78936">
        <ele>230</ele>
        <time>2022-09-05T09:09:37.000Z</time>
      </trkpt>
      <trkpt lat="49.85478" lon="4.78938">
        <ele>230</ele>
        <time>2022-09-05T09:09:38.000Z</time>
      </trkpt>
      <trkpt lat="49.85477" lon="4.7894">
        <ele>231</ele>
        <time>2022-09-05T09:09:39.000Z</time>
      </trkpt>
      <trkpt lat="49.85476" lon="4.78941">
        <ele>231</ele>
        <time>2022-09-05T09:09:40.000Z</time>
      </trkpt>
      <trkpt lat="49.85475" lon="4.78943">
        <ele>231</ele>
        <time>2022-09-05T09:09:41.000Z</time>
      </trkpt>
      <trkpt lat="49.85474" lon="4.78945">
        <ele>232</ele>
        <time>2022-09-05T09:09:42.000Z</time>
      </trkpt>
      <trkpt lat="49.85472" lon="4.78946">
        <ele>232</ele>
        <time>2022-09-05T09:09:43.000Z</time>
      </trkpt>
      <trkpt lat="49.85471" lon="4.78947">
        <ele>232</ele>
        <time>2022-09-05T09:09:44.000Z</time>
      </trkpt>
      <trkpt lat="49.8547" lon="4.78949">
        <ele>232</ele>
        <time>2022-09-05T09:09:45.000Z</time>
      </trkpt>
      <trkpt lat="49.85469" lon="4.7895">
        <ele>233</ele>
        <time>2022-09-05T09:09:46.000Z</time>
      </trkpt>
      <trkpt lat="49.85467" lon="4.78952">
        <ele>233</ele>
        <time>2022-09-05T09:09:47.000Z</time>
      </trkpt>
      <trkpt lat="49.85466" lon="4.78953">
        <ele>233</ele>
        <time>2022-09-05T09:09:48.000Z</time>
      </trkpt>
      <trkpt lat="49.85465" lon="4.78955">
        <ele>233</ele>
        <time>2022-09-05T09:09:49.000Z</time>
      </trkpt>
      <trkpt lat="49.85463" lon="4.78956">
        <ele>234</ele>
        <time>2022-09-05T09:09:50.000Z</time>
      </trkpt>
      <trkpt lat="49.85462" lon="4.78958">
        <ele>234</ele>
        <time>2022-09-05T09:09:51.000Z</time>
      </trkpt>
      <trkpt lat="49.8546" lon="4.78959">
        <ele>234</ele>
        <time>2022-09-05T09:09:52.000Z</time>
      </trkpt>
      <trkpt lat="49.85459" lon="4.7896">
        <ele>234</ele>
        <time>2022-09-05T09:09:53.000Z</time>
      </trkpt>
      <trkpt lat="49.85457" lon="4.78962">
        <ele>234</ele>
        <time>2022-09-05T09:09:54.000Z</time>
      </trkpt>
      <trkpt lat="49.85456" lon="4.78963">
        <ele>235</ele>
        <time>2022-09-05T09:09:55.000Z</time>
      </trkpt>
      <trkpt lat="49.85454" lon="4.78964">
        <ele>235</ele>
        <time>2022-09-05T09:09:56.000Z</time>
      </trkpt>
      <trkpt lat="49.85453" lon="4.78966">
        <ele>235</ele>
        <time>2022-09-05T09:09:57.000Z</time>
      </trkpt>
      <trkpt lat="49.85452" lon="4.78967">
        <ele>235</ele>
        <time>2022-09-05T09:09:58.000Z</time>
      </trkpt>
      <trkpt lat="49.85451" lon="4.78968">
        <ele>236</ele>
        <time>2022-09-05T09:09:59.000Z</time>
      </trkpt>
      <trkpt lat="49.85449" lon="4.7897">
        <ele>236</ele>
        <time>2022-09-05T09:10:00.000Z</time>
      </trkpt>
      <trkpt lat="49.85448" lon="4.78971">
        <ele>236</ele>
        <time>2022-09-05T09:10:01.000Z</time>
      </trkpt>
      <trkpt lat="49.85446" lon="4.78972">
        <ele>237</ele>
        <time>2022-09-05T09:10:02.000Z</time>
      </trkpt>
      <trkpt lat="49.85445" lon="4.78973">
        <ele>237</ele>
        <time>2022-09-05T09:10:03.000Z</time>
      </trkpt>
      <trkpt lat="49.85444" lon="4.78974">
        <ele>237</ele>
        <time>2022-09-05T09:10:04.000Z</time>
      </trkpt>
      <trkpt lat="49.85443" lon="4.78974">
        <ele>237</ele>
        <time>2022-09-05T09:10:05.000Z</time>
      </trkpt>
      <trkpt lat="49.85442" lon="4.78975">
        <ele>237</ele>
        <time>2022-09-05T09:10:06.000Z</time>
      </trkpt>
      <trkpt lat="49.85441" lon="4.78976">
        <ele>238</ele>
        <time>2022-09-05T09:10:07.000Z</time>
      </trkpt>
      <trkpt lat="49.8544" lon="4.78977">
        <ele>238</ele>
        <time>2022-09-05T09:10:08.000Z</time>
      </trkpt>
      <trkpt lat="49.85439" lon="4.78978">
        <ele>238</ele>
        <time>2022-09-05T09:10:09.000Z</time>
      </trkpt>
      <trkpt lat="49.85437" lon="4.7898">
        <ele>238</ele>
        <time>2022-09-05T09:10:10.000Z</time>
      </trkpt>
      <trkpt lat="49.85435" lon="4.78981">
        <ele>238</ele>
        <time>2022-09-05T09:10:11.000Z</time>
      </trkpt>
      <trkpt lat="49.85434" lon="4.78982">
        <ele>239</ele>
        <time>2022-09-05T09:10:12.000Z</time>
      </trkpt>
      <trkpt lat="49.85432" lon="4.78983">
        <ele>239</ele>
        <time>2022-09-05T09:10:13.000Z</time>
      </trkpt>
      <trkpt lat="49.8543" lon="4.78984">
        <ele>239</ele>
        <time>2022-09-05T09:10:14.000Z</time>
      </trkpt>
      <trkpt lat="49.85428" lon="4.78984">
        <ele>239</ele>
        <time>2022-09-05T09:10:15.000Z</time>
      </trkpt>
      <trkpt lat="49.85427" lon="4.78984">
        <ele>240</ele>
        <time>2022-09-05T09:10:16.000Z</time>
      </trkpt>
      <trkpt lat="49.85425" lon="4.78985">
        <ele>240</ele>
        <time>2022-09-05T09:10:17.000Z</time>
      </trkpt>
      <trkpt lat="49.85423" lon="4.78985">
        <ele>240</ele>
        <time>2022-09-05T09:10:18.000Z</time>
      </trkpt>
      <trkpt lat="49.85422" lon="4.78986">
        <ele>240</ele>
        <time>2022-09-05T09:10:19.000Z</time>
      </trkpt>
      <trkpt lat="49.85421" lon="4.78985">
        <ele>240</ele>
        <time>2022-09-05T09:10:20.000Z</time>
      </trkpt>
      <trkpt lat="49.8542" lon="4.78985">
        <ele>241</ele>
        <time>2022-09-05T09:10:21.000Z</time>
      </trkpt>
      <trkpt lat="49.85418" lon="4.78985">
        <ele>241</ele>
        <time>2022-09-05T09:10:22.000Z</time>
      </trkpt>
      <trkpt lat="49.85416" lon="4.78984">
        <ele>241</ele>
        <time>2022-09-05T09:10:23.000Z</time>
      </trkpt>
      <trkpt lat="49.85415" lon="4.78984">
        <ele>241</ele>
        <time>2022-09-05T09:10:24.000Z</time>
      </trkpt>
      <trkpt lat="49.85413" lon="4.78983">
        <ele>241</ele>
        <time>2022-09-05T09:10:25.000Z</time>
      </trkpt>
      <trkpt lat="49.85412" lon="4.78983">
        <ele>242</ele>
        <time>2022-09-05T09:10:26.000Z</time>
      </trkpt>
      <trkpt lat="49.8541" lon="4.78982">
        <ele>242</ele>
        <time>2022-09-05T09:10:27.000Z</time>
      </trkpt>
      <trkpt lat="49.85408" lon="4.78982">
        <ele>242</ele>
        <time>2022-09-05T09:10:28.000Z</time>
      </trkpt>
      <trkpt lat="49.85406" lon="4.78982">
        <ele>242</ele>
        <time>2022-09-05T09:10:29.000Z</time>
      </trkpt>
      <trkpt lat="49.85404" lon="4.78982">
        <ele>243</ele>
        <time>2022-09-05T09:10:30.000Z</time>
      </trkpt>
      <trkpt lat="49.85403" lon="4.78981">
        <ele>243</ele>
        <time>2022-09-05T09:10:31.000Z</time>
      </trkpt>
      <trkpt lat="49.85401" lon="4.78981">
        <ele>243</ele>
        <time>2022-09-05T09:10:32.000Z</time>
      </trkpt>
      <trkpt lat="49.85399" lon="4.78981">
        <ele>243</ele>
        <time>2022-09-05T09:10:33.000Z</time>
      </trkpt>
      <trkpt lat="49.85398" lon="4.7898">
        <ele>243</ele>
        <time>2022-09-05T09:10:34.000Z</time>
      </trkpt>
      <trkpt lat="49.85396" lon="4.7898">
        <ele>243</ele>
        <time>2022-09-05T09:10:35.000Z</time>
      </trkpt>
      <trkpt lat="49.85395" lon="4.7898">
        <ele>243</ele>
        <time>2022-09-05T09:10:36.000Z</time>
      </trkpt>
      <trkpt lat="49.85393" lon="4.7898">
        <ele>243</ele>
        <time>2022-09-05T09:10:37.000Z</time>
      </trkpt>
      <trkpt lat="49.85391" lon="4.78979">
        <ele>243</ele>
        <time>2022-09-05T09:10:38.000Z</time>
      </trkpt>
      <trkpt lat="49.85389" lon="4.78979">
        <ele>244</ele>
        <time>2022-09-05T09:10:39.000Z</time>
      </trkpt>
      <trkpt lat="49.85388" lon="4.78978">
        <ele>244</ele>
        <time>2022-09-05T09:10:40.000Z</time>
      </trkpt>
      <trkpt lat="49.85386" lon="4.78978">
        <ele>244</ele>
        <time>2022-09-05T09:10:41.000Z</time>
      </trkpt>
      <trkpt lat="49.85385" lon="4.78978">
        <ele>244</ele>
        <time>2022-09-05T09:10:42.000Z</time>
      </trkpt>
      <trkpt lat="49.85383" lon="4.78977">
        <ele>244</ele>
        <time>2022-09-05T09:10:43.000Z</time>
      </trkpt>
      <trkpt lat="49.85382" lon="4.78977">
        <ele>245</ele>
        <time>2022-09-05T09:10:44.000Z</time>
      </trkpt>
      <trkpt lat="49.85381" lon="4.78976">
        <ele>245</ele>
        <time>2022-09-05T09:10:45.000Z</time>
      </trkpt>
      <trkpt lat="49.85379" lon="4.78976">
        <ele>245</ele>
        <time>2022-09-05T09:10:46.000Z</time>
      </trkpt>
      <trkpt lat="49.85377" lon="4.78976">
        <ele>245</ele>
        <time>2022-09-05T09:10:47.000Z</time>
      </trkpt>
      <trkpt lat="49.85375" lon="4.78975">
        <ele>246</ele>
        <time>2022-09-05T09:10:48.000Z</time>
      </trkpt>
      <trkpt lat="49.85374" lon="4.78974">
        <ele>246</ele>
        <time>2022-09-05T09:10:49.000Z</time>
      </trkpt>
      <trkpt lat="49.85372" lon="4.78973">
        <ele>246</ele>
        <time>2022-09-05T09:10:50.000Z</time>
      </trkpt>
      <trkpt lat="49.85371" lon="4.78974">
        <ele>246</ele>
        <time>2022-09-05T09:10:51.000Z</time>
      </trkpt>
      <trkpt lat="49.8537" lon="4.78975">
        <ele>247</ele>
        <time>2022-09-05T09:10:52.000Z</time>
      </trkpt>
      <trkpt lat="49.85368" lon="4.78975">
        <ele>247</ele>
        <time>2022-09-05T09:10:53.000Z</time>
      </trkpt>
      <trkpt lat="49.85367" lon="4.78976">
        <ele>247</ele>
        <time>2022-09-05T09:10:54.000Z</time>
      </trkpt>
      <trkpt lat="49.85366" lon="4.78977">
        <ele>248</ele>
        <time>2022-09-05T09:10:55.000Z</time>
      </trkpt>
      <trkpt lat="49.85365" lon="4.78978">
        <ele>248</ele>
        <time>2022-09-05T09:10:56.000Z</time>
      </trkpt>
      <trkpt lat="49.85364" lon="4.78979">
        <ele>249</ele>
        <time>2022-09-05T09:10:57.000Z</time>
      </trkpt>
      <trkpt lat="49.85363" lon="4.78981">
        <ele>249</ele>
        <time>2022-09-05T09:10:58.000Z</time>
      </trkpt>
      <trkpt lat="49.85363" lon="4.78982">
        <ele>250</ele>
        <time>2022-09-05T09:10:59.000Z</time>
      </trkpt>
      <trkpt lat="49.85362" lon="4.78983">
        <ele>250</ele>
        <time>2022-09-05T09:11:00.000Z</time>
      </trkpt>
      <trkpt lat="49.85362" lon="4.78984">
        <ele>251</ele>
        <time>2022-09-05T09:11:01.000Z</time>
      </trkpt>
      <trkpt lat="49.85362" lon="4.78985">
        <ele>252</ele>
        <time>2022-09-05T09:11:02.000Z</time>
      </trkpt>
      <trkpt lat="49.85361" lon="4.78986">
        <ele>252</ele>
        <time>2022-09-05T09:11:03.000Z</time>
      </trkpt>
      <trkpt lat="49.8536" lon="4.78987">
        <ele>253</ele>
        <time>2022-09-05T09:11:04.000Z</time>
      </trkpt>
      <trkpt lat="49.8536" lon="4.78986">
        <ele>253</ele>
        <time>2022-09-05T09:11:05.000Z</time>
      </trkpt>
      <trkpt lat="49.85358" lon="4.78987">
        <ele>254</ele>
        <time>2022-09-05T09:11:06.000Z</time>
      </trkpt>
      <trkpt lat="49.85357" lon="4.78986">
        <ele>255</ele>
        <time>2022-09-05T09:11:07.000Z</time>
      </trkpt>
      <trkpt lat="49.85356" lon="4.78985">
        <ele>255</ele>
        <time>2022-09-05T09:11:08.000Z</time>
      </trkpt>
      <trkpt lat="49.85356" lon="4.78983">
        <ele>256</ele>
        <time>2022-09-05T09:11:09.000Z</time>
      </trkpt>
      <trkpt lat="49.85354" lon="4.78982">
        <ele>256</ele>
        <time>2022-09-05T09:11:10.000Z</time>
      </trkpt>
      <trkpt lat="49.85353" lon="4.7898">
        <ele>257</ele>
        <time>2022-09-05T09:11:11.000Z</time>
      </trkpt>
      <trkpt lat="49.85352" lon="4.78977">
        <ele>257</ele>
        <time>2022-09-05T09:11:12.000Z</time>
      </trkpt>
      <trkpt lat="49.85351" lon="4.78975">
        <ele>257</ele>
        <time>2022-09-05T09:11:13.000Z</time>
      </trkpt>
      <trkpt lat="49.85351" lon="4.78973">
        <ele>258</ele>
        <time>2022-09-05T09:11:14.000Z</time>
      </trkpt>
      <trkpt lat="49.8535" lon="4.78971">
        <ele>258</ele>
        <time>2022-09-05T09:11:15.000Z</time>
      </trkpt>
      <trkpt lat="49.8535" lon="4.78969">
        <ele>259</ele>
        <time>2022-09-05T09:11:16.000Z</time>
      </trkpt>
      <trkpt lat="49.85351" lon="4.78967">
        <ele>259</ele>
        <time>2022-09-05T09:11:17.000Z</time>
      </trkpt>
      <trkpt lat="49.85351" lon="4.78965">
        <ele>260</ele>
        <time>2022-09-05T09:11:18.000Z</time>
      </trkpt>
      <trkpt lat="49.85352" lon="4.78963">
        <ele>260</ele>
        <time>2022-09-05T09:11:19.000Z</time>
      </trkpt>
      <trkpt lat="49.85353" lon="4.78961">
        <ele>261</ele>
        <time>2022-09-05T09:11:20.000Z</time>
      </trkpt>
      <trkpt lat="49.85355" lon="4.78958">
        <ele>261</ele>
        <time>2022-09-05T09:11:21.000Z</time>
      </trkpt>
      <trkpt lat="49.85356" lon="4.78956">
        <ele>262</ele>
        <time>2022-09-05T09:11:22.000Z</time>
      </trkpt>
      <trkpt lat="49.85357" lon="4.78954">
        <ele>262</ele>
        <time>2022-09-05T09:11:23.000Z</time>
      </trkpt>
      <trkpt lat="49.85359" lon="4.78951">
        <ele>262</ele>
        <time>2022-09-05T09:11:24.000Z</time>
      </trkpt>
      <trkpt lat="49.8536" lon="4.78949">
        <ele>263</ele>
        <time>2022-09-05T09:11:25.000Z</time>
      </trkpt>
      <trkpt lat="49.85361" lon="4.78946">
        <ele>263</ele>
        <time>2022-09-05T09:11:26.000Z</time>
      </trkpt>
      <trkpt lat="49.85361" lon="4.78945">
        <ele>263</ele>
        <time>2022-09-05T09:11:27.000Z</time>
      </trkpt>
      <trkpt lat="49.85361" lon="4.78944">
        <ele>264</ele>
        <time>2022-09-05T09:11:28.000Z</time>
      </trkpt>
      <trkpt lat="49.85361" lon="4.78943">
        <ele>264</ele>
        <time>2022-09-05T09:11:29.000Z</time>
      </trkpt>
      <trkpt lat="49.85362" lon="4.78942">
        <ele>265</ele>
        <time>2022-09-05T09:11:30.000Z</time>
      </trkpt>
      <trkpt lat="49.85362" lon="4.7894">
        <ele>265</ele>
        <time>2022-09-05T09:11:31.000Z</time>
      </trkpt>
      <trkpt lat="49.85362" lon="4.78939">
        <ele>266</ele>
        <time>2022-09-05T09:11:32.000Z</time>
      </trkpt>
      <trkpt lat="49.85363" lon="4.78938">
        <ele>266</ele>
        <time>2022-09-05T09:11:33.000Z</time>
      </trkpt>
      <trkpt lat="49.85363" lon="4.78936">
        <ele>267</ele>
        <time>2022-09-05T09:11:34.000Z</time>
      </trkpt>
      <trkpt lat="49.85364" lon="4.78935">
        <ele>267</ele>
        <time>2022-09-05T09:11:35.000Z</time>
      </trkpt>
      <trkpt lat="49.85365" lon="4.78934">
        <ele>268</ele>
        <time>2022-09-05T09:11:36.000Z</time>
      </trkpt>
      <trkpt lat="49.85366" lon="4.78932">
        <ele>268</ele>
        <time>2022-09-05T09:11:37.000Z</time>
      </trkpt>
      <trkpt lat="49.85367" lon="4.78931">
        <ele>269</ele>
        <time>2022-09-05T09:11:38.000Z</time>
      </trkpt>
      <trkpt lat="49.85367" lon="4.7893">
        <ele>269</ele>
        <time>2022-09-05T09:11:39.000Z</time>
      </trkpt>
      <trkpt lat="49.85369" lon="4.78929">
        <ele>269</ele>
        <time>2022-09-05T09:11:40.000Z</time>
      </trkpt>
      <trkpt lat="49.8537" lon="4.78929">
        <ele>270</ele>
        <time>2022-09-05T09:11:41.000Z</time>
      </trkpt>
      <trkpt lat="49.85371" lon="4.78928">
        <ele>270</ele>
        <time>2022-09-05T09:11:42.000Z</time>
      </trkpt>
      <trkpt lat="49.85372" lon="4.78928">
        <ele>270</ele>
        <time>2022-09-05T09:11:43.000Z</time>
      </trkpt>
      <trkpt lat="49.85374" lon="4.78928">
        <ele>270</ele>
        <time>2022-09-05T09:11:44.000Z</time>
      </trkpt>
      <trkpt lat="49.85375" lon="4.78928">
        <ele>271</ele>
        <time>2022-09-05T09:11:45.000Z</time>
      </trkpt>
      <trkpt lat="49.85377" lon="4.78928">
        <ele>271</ele>
        <time>2022-09-05T09:11:46.000Z</time>
      </trkpt>
      <trkpt lat="49.85379" lon="4.78927">
        <ele>271</ele>
        <time>2022-09-05T09:11:47.000Z</time>
      </trkpt>
      <trkpt lat="49.8538" lon="4.78927">
        <ele>271</ele>
        <time>2022-09-05T09:11:48.000Z</time>
      </trkpt>
      <trkpt lat="49.85382" lon="4.78926">
        <ele>271</ele>
        <time>2022-09-05T09:11:49.000Z</time>
      </trkpt>
      <trkpt lat="49.85384" lon="4.78925">
        <ele>271</ele>
        <time>2022-09-05T09:11:50.000Z</time>
      </trkpt>
      <trkpt lat="49.85385" lon="4.78923">
        <ele>271</ele>
        <time>2022-09-05T09:11:51.000Z</time>
      </trkpt>
      <trkpt lat="49.85387" lon="4.78922">
        <ele>271</ele>
        <time>2022-09-05T09:11:52.000Z</time>
      </trkpt>
      <trkpt lat="49.85389" lon="4.78921">
        <ele>272</ele>
        <time>2022-09-05T09:11:53.000Z</time>
      </trkpt>
      <trkpt lat="49.85391" lon="4.7892">
        <ele>272</ele>
        <time>2022-09-05T09:11:54.000Z</time>
      </trkpt>
      <trkpt lat="49.85392" lon="4.78919">
        <ele>272</ele>
        <time>2022-09-05T09:11:55.000Z</time>
      </trkpt>
      <trkpt lat="49.85394" lon="4.78918">
        <ele>272</ele>
        <time>2022-09-05T09:11:56.000Z</time>
      </trkpt>
      <trkpt lat="49.85395" lon="4.78918">
        <ele>272</ele>
        <time>2022-09-05T09:11:57.000Z</time>
      </trkpt>
      <trkpt lat="49.85397" lon="4.78917">
        <ele>272</ele>
        <time>2022-09-05T09:11:58.000Z</time>
      </trkpt>
      <trkpt lat="49.85399" lon="4.78916">
        <ele>272</ele>
        <time>2022-09-05T09:11:59.000Z</time>
      </trkpt>
      <trkpt lat="49.85401" lon="4.78915">
        <ele>272</ele>
        <time>2022-09-05T09:12:00.000Z</time>
      </trkpt>
      <trkpt lat="49.85403" lon="4.78914">
        <ele>272</ele>
        <time>2022-09-05T09:12:01.000Z</time>
      </trkpt>
      <trkpt lat="49.85404" lon="4.78913">
        <ele>273</ele>
        <time>2022-09-05T09:12:02.000Z</time>
      </trkpt>
      <trkpt lat="49.85406" lon="4.78912">
        <ele>273</ele>
        <time>2022-09-05T09:12:03.000Z</time>
      </trkpt>
      <trkpt lat="49.85407" lon="4.78911">
        <ele>273</ele>
        <time>2022-09-05T09:12:04.000Z</time>
      </trkpt>
      <trkpt lat="49.85409" lon="4.7891">
        <ele>273</ele>
        <time>2022-09-05T09:12:05.000Z</time>
      </trkpt>
      <trkpt lat="49.85411" lon="4.78908">
        <ele>273</ele>
        <time>2022-09-05T09:12:06.000Z</time>
      </trkpt>
      <trkpt lat="49.85412" lon="4.78907">
        <ele>273</ele>
        <time>2022-09-05T09:12:07.000Z</time>
      </trkpt>
      <trkpt lat="49.85413" lon="4.78905">
        <ele>273</ele>
        <time>2022-09-05T09:12:08.000Z</time>
      </trkpt>
      <trkpt lat="49.85414" lon="4.78902">
        <ele>273</ele>
        <time>2022-09-05T09:12:09.000Z</time>
      </trkpt>
      <trkpt lat="49.85415" lon="4.78899">
        <ele>273</ele>
        <time>2022-09-05T09:12:10.000Z</time>
      </trkpt>
      <trkpt lat="49.85416" lon="4.78897">
        <ele>274</ele>
        <time>2022-09-05T09:12:11.000Z</time>
      </trkpt>
      <trkpt lat="49.85417" lon="4.78894">
        <ele>274</ele>
        <time>2022-09-05T09:12:12.000Z</time>
      </trkpt>
      <trkpt lat="49.85419" lon="4.78891">
        <ele>274</ele>
        <time>2022-09-05T09:12:13.000Z</time>
      </trkpt>
      <trkpt lat="49.8542" lon="4.78889">
        <ele>274</ele>
        <time>2022-09-05T09:12:14.000Z</time>
      </trkpt>
      <trkpt lat="49.85422" lon="4.78886">
        <ele>274</ele>
        <time>2022-09-05T09:12:15.000Z</time>
      </trkpt>
      <trkpt lat="49.85424" lon="4.78884">
        <ele>275</ele>
        <time>2022-09-05T09:12:16.000Z</time>
      </trkpt>
      <trkpt lat="49.85425" lon="4.78882">
        <ele>275</ele>
        <time>2022-09-05T09:12:17.000Z</time>
      </trkpt>
      <trkpt lat="49.85426" lon="4.78879">
        <ele>275</ele>
        <time>2022-09-05T09:12:18.000Z</time>
      </trkpt>
      <trkpt lat="49.85428" lon="4.78877">
        <ele>276</ele>
        <time>2022-09-05T09:12:19.000Z</time>
      </trkpt>
      <trkpt lat="49.85429" lon="4.78874">
        <ele>276</ele>
        <time>2022-09-05T09:12:20.000Z</time>
      </trkpt>
      <trkpt lat="49.8543" lon="4.78872">
        <ele>276</ele>
        <time>2022-09-05T09:12:21.000Z</time>
      </trkpt>
      <trkpt lat="49.85432" lon="4.7887">
        <ele>276</ele>
        <time>2022-09-05T09:12:22.000Z</time>
      </trkpt>
      <trkpt lat="49.85433" lon="4.78868">
        <ele>276</ele>
        <time>2022-09-05T09:12:23.000Z</time>
      </trkpt>
      <trkpt lat="49.85433" lon="4.78866">
        <ele>276</ele>
        <time>2022-09-05T09:12:24.000Z</time>
      </trkpt>
      <trkpt lat="49.85434" lon="4.78865">
        <ele>276</ele>
        <time>2022-09-05T09:12:25.000Z</time>
      </trkpt>
      <trkpt lat="49.85435" lon="4.78863">
        <ele>276</ele>
        <time>2022-09-05T09:12:26.000Z</time>
      </trkpt>
      <trkpt lat="49.85436" lon="4.78861">
        <ele>276</ele>
        <time>2022-09-05T09:12:27.000Z</time>
      </trkpt>
      <trkpt lat="49.85438" lon="4.78859">
        <ele>277</ele>
        <time>2022-09-05T09:12:28.000Z</time>
      </trkpt>
      <trkpt lat="49.85439" lon="4.78856">
        <ele>277</ele>
        <time>2022-09-05T09:12:29.000Z</time>
      </trkpt>
      <trkpt lat="49.85441" lon="4.78853">
        <ele>277</ele>
        <time>2022-09-05T09:12:30.000Z</time>
      </trkpt>
      <trkpt lat="49.85442" lon="4.78851">
        <ele>277</ele>
        <time>2022-09-05T09:12:31.000Z</time>
      </trkpt>
      <trkpt lat="49.85444" lon="4.78848">
        <ele>277</ele>
        <time>2022-09-05T09:12:32.000Z</time>
      </trkpt>
      <trkpt lat="49.85445" lon="4.78845">
        <ele>277</ele>
        <time>2022-09-05T09:12:33.000Z</time>
      </trkpt>
      <trkpt lat="49.85446" lon="4.78842">
        <ele>277</ele>
        <time>2022-09-05T09:12:34.000Z</time>
      </trkpt>
      <trkpt lat="49.85447" lon="4.78838">
        <ele>277</ele>
        <time>2022-09-05T09:12:35.000Z</time>
      </trkpt>
      <trkpt lat="49.85449" lon="4.78835">
        <ele>277</ele>
        <time>2022-09-05T09:12:36.000Z</time>
      </trkpt>
      <trkpt lat="49.8545" lon="4.78831">
        <ele>277</ele>
        <time>2022-09-05T09:12:37.000Z</time>
      </trkpt>
      <trkpt lat="49.85451" lon="4.78827">
        <ele>278</ele>
        <time>2022-09-05T09:12:38.000Z</time>
      </trkpt>
      <trkpt lat="49.85452" lon="4.78824">
        <ele>278</ele>
        <time>2022-09-05T09:12:39.000Z</time>
      </trkpt>
      <trkpt lat="49.85454" lon="4.78821">
        <ele>278</ele>
        <time>2022-09-05T09:12:40.000Z</time>
      </trkpt>
      <trkpt lat="49.85456" lon="4.78818">
        <ele>278</ele>
        <time>2022-09-05T09:12:41.000Z</time>
      </trkpt>
      <trkpt lat="49.85457" lon="4.78815">
        <ele>279</ele>
        <time>2022-09-05T09:12:42.000Z</time>
      </trkpt>
      <trkpt lat="49.85459" lon="4.78812">
        <ele>279</ele>
        <time>2022-09-05T09:12:43.000Z</time>
      </trkpt>
      <trkpt lat="49.8546" lon="4.78809">
        <ele>280</ele>
        <time>2022-09-05T09:12:44.000Z</time>
      </trkpt>
      <trkpt lat="49.85462" lon="4.78806">
        <ele>280</ele>
        <time>2022-09-05T09:12:45.000Z</time>
      </trkpt>
      <trkpt lat="49.85464" lon="4.78804">
        <ele>280</ele>
        <time>2022-09-05T09:12:46.000Z</time>
      </trkpt>
      <trkpt lat="49.85466" lon="4.78801">
        <ele>280</ele>
        <time>2022-09-05T09:12:47.000Z</time>
      </trkpt>
      <trkpt lat="49.85467" lon="4.78799">
        <ele>281</ele>
        <time>2022-09-05T09:12:48.000Z</time>
      </trkpt>
      <trkpt lat="49.85468" lon="4.78796">
        <ele>281</ele>
        <time>2022-09-05T09:12:49.000Z</time>
      </trkpt>
      <trkpt lat="49.8547" lon="4.78794">
        <ele>281</ele>
        <time>2022-09-05T09:12:50.000Z</time>
      </trkpt>
      <trkpt lat="49.85471" lon="4.78792">
        <ele>281</ele>
        <time>2022-09-05T09:12:51.000Z</time>
      </trkpt>
      <trkpt lat="49.85473" lon="4.7879">
        <ele>281</ele>
        <time>2022-09-05T09:12:52.000Z</time>
      </trkpt>
      <trkpt lat="49.85475" lon="4.78789">
        <ele>282</ele>
        <time>2022-09-05T09:12:53.000Z</time>
      </trkpt>
      <trkpt lat="49.85477" lon="4.78788">
        <ele>282</ele>
        <time>2022-09-05T09:12:54.000Z</time>
      </trkpt>
      <trkpt lat="49.85478" lon="4.78787">
        <ele>282</ele>
        <time>2022-09-05T09:12:55.000Z</time>
      </trkpt>
      <trkpt lat="49.85479" lon="4.78786">
        <ele>282</ele>
        <time>2022-09-05T09:12:56.000Z</time>
      </trkpt>
      <trkpt lat="49.8548" lon="4.78786">
        <ele>282</ele>
        <time>2022-09-05T09:12:57.000Z</time>
      </trkpt>
      <trkpt lat="49.85481" lon="4.78785">
        <ele>283</ele>
        <time>2022-09-05T09:12:58.000Z</time>
      </trkpt>
      <trkpt lat="49.85483" lon="4.78784">
        <ele>283</ele>
        <time>2022-09-05T09:12:59.000Z</time>
      </trkpt>
      <trkpt lat="49.85485" lon="4.78782">
        <ele>283</ele>
        <time>2022-09-05T09:13:00.000Z</time>
      </trkpt>
      <trkpt lat="49.85487" lon="4.7878">
        <ele>283</ele>
        <time>2022-09-05T09:13:01.000Z</time>
      </trkpt>
      <trkpt lat="49.85489" lon="4.78778">
        <ele>283</ele>
        <time>2022-09-05T09:13:02.000Z</time>
      </trkpt>
      <trkpt lat="49.85492" lon="4.78776">
        <ele>283</ele>
        <time>2022-09-05T09:13:03.000Z</time>
      </trkpt>
      <trkpt lat="49.85494" lon="4.78774">
        <ele>283</ele>
        <time>2022-09-05T09:13:04.000Z</time>
      </trkpt>
      <trkpt lat="49.85497" lon="4.78773">
        <ele>283</ele>
        <time>2022-09-05T09:13:05.000Z</time>
      </trkpt>
      <trkpt lat="49.85499" lon="4.78771">
        <ele>283</ele>
        <time>2022-09-05T09:13:06.000Z</time>
      </trkpt>
      <trkpt lat="49.85502" lon="4.78769">
        <ele>283</ele>
        <time>2022-09-05T09:13:07.000Z</time>
      </trkpt>
      <trkpt lat="49.85504" lon="4.78766">
        <ele>283</ele>
        <time>2022-09-05T09:13:08.000Z</time>
      </trkpt>
      <trkpt lat="49.85507" lon="4.78763">
        <ele>283</ele>
        <time>2022-09-05T09:13:09.000Z</time>
      </trkpt>
      <trkpt lat="49.85509" lon="4.78761">
        <ele>282</ele>
        <time>2022-09-05T09:13:10.000Z</time>
      </trkpt>
      <trkpt lat="49.85511" lon="4.78759">
        <ele>282</ele>
        <time>2022-09-05T09:13:11.000Z</time>
      </trkpt>
      <trkpt lat="49.85513" lon="4.78757">
        <ele>282</ele>
        <time>2022-09-05T09:13:12.000Z</time>
      </trkpt>
      <trkpt lat="49.85515" lon="4.78754">
        <ele>282</ele>
        <time>2022-09-05T09:13:13.000Z</time>
      </trkpt>
      <trkpt lat="49.85517" lon="4.78751">
        <ele>282</ele>
        <time>2022-09-05T09:13:14.000Z</time>
      </trkpt>
      <trkpt lat="49.85519" lon="4.78749">
        <ele>282</ele>
        <time>2022-09-05T09:13:15.000Z</time>
      </trkpt>
      <trkpt lat="49.85521" lon="4.78746">
        <ele>282</ele>
        <time>2022-09-05T09:13:16.000Z</time>
      </trkpt>
      <trkpt lat="49.85522" lon="4.78743">
        <ele>282</ele>
        <time>2022-09-05T09:13:17.000Z</time>
      </trkpt>
      <trkpt lat="49.85523" lon="4.78741">
        <ele>282</ele>
        <time>2022-09-05T09:13:18.000Z</time>
      </trkpt>
      <trkpt lat="49.85525" lon="4.78738">
        <ele>282</ele>
        <time>2022-09-05T09:13:19.000Z</time>
      </trkpt>
      <trkpt lat="49.85526" lon="4.78736">
        <ele>282</ele>
        <time>2022-09-05T09:13:20.000Z</time>
      </trkpt>
      <trkpt lat="49.85527" lon="4.78734">
        <ele>282</ele>
        <time>2022-09-05T09:13:21.000Z</time>
      </trkpt>
      <trkpt lat="49.85529" lon="4.78731">
        <ele>282</ele>
        <time>2022-09-05T09:13:22.000Z</time>
      </trkpt>
      <trkpt lat="49.8553" lon="4.78729">
        <ele>282</ele>
        <time>2022-09-05T09:13:23.000Z</time>
      </trkpt>
      <trkpt lat="49.85533" lon="4.78727">
        <ele>282</ele>
        <time>2022-09-05T09:13:24.000Z</time>
      </trkpt>
      <trkpt lat="49.85535" lon="4.78724">
        <ele>283</ele>
        <time>2022-09-05T09:13:25.000Z</time>
      </trkpt>
      <trkpt lat="49.85537" lon="4.78722">
        <ele>283</ele>
        <time>2022-09-05T09:13:26.000Z</time>
      </trkpt>
      <trkpt lat="49.85538" lon="4.7872">
        <ele>283</ele>
        <time>2022-09-05T09:13:27.000Z</time>
      </trkpt>
      <trkpt lat="49.85539" lon="4.78717">
        <ele>283</ele>
        <time>2022-09-05T09:13:28.000Z</time>
      </trkpt>
      <trkpt lat="49.8554" lon="4.78715">
        <ele>283</ele>
        <time>2022-09-05T09:13:29.000Z</time>
      </trkpt>
      <trkpt lat="49.85541" lon="4.78713">
        <ele>283</ele>
        <time>2022-09-05T09:13:30.000Z</time>
      </trkpt>
      <trkpt lat="49.85542" lon="4.7871">
        <ele>283</ele>
        <time>2022-09-05T09:13:31.000Z</time>
      </trkpt>
      <trkpt lat="49.85543" lon="4.78707">
        <ele>283</ele>
        <time>2022-09-05T09:13:32.000Z</time>
      </trkpt>
      <trkpt lat="49.85544" lon="4.78705">
        <ele>283</ele>
        <time>2022-09-05T09:13:33.000Z</time>
      </trkpt>
      <trkpt lat="49.85545" lon="4.78703">
        <ele>284</ele>
        <time>2022-09-05T09:13:34.000Z</time>
      </trkpt>
      <trkpt lat="49.85546" lon="4.78701">
        <ele>284</ele>
        <time>2022-09-05T09:13:35.000Z</time>
      </trkpt>
      <trkpt lat="49.85547" lon="4.78699">
        <ele>284</ele>
        <time>2022-09-05T09:13:36.000Z</time>
      </trkpt>
      <trkpt lat="49.85548" lon="4.78696">
        <ele>284</ele>
        <time>2022-09-05T09:13:37.000Z</time>
      </trkpt>
      <trkpt lat="49.85549" lon="4.78694">
        <ele>284</ele>
        <time>2022-09-05T09:13:38.000Z</time>
      </trkpt>
      <trkpt lat="49.85549" lon="4.78691">
        <ele>284</ele>
        <time>2022-09-05T09:13:39.000Z</time>
      </trkpt>
      <trkpt lat="49.85549" lon="4.78688">
        <ele>284</ele>
        <time>2022-09-05T09:13:40.000Z</time>
      </trkpt>
      <trkpt lat="49.8555" lon="4.78686">
        <ele>284</ele>
        <time>2022-09-05T09:13:41.000Z</time>
      </trkpt>
      <trkpt lat="49.85549" lon="4.78683">
        <ele>284</ele>
        <time>2022-09-05T09:13:42.000Z</time>
      </trkpt>
      <trkpt lat="49.85548" lon="4.78679">
        <ele>284</ele>
        <time>2022-09-05T09:13:43.000Z</time>
      </trkpt>
      <trkpt lat="49.85546" lon="4.78674">
        <ele>284</ele>
        <time>2022-09-05T09:13:44.000Z</time>
      </trkpt>
      <trkpt lat="49.85543" lon="4.78668">
        <ele>284</ele>
        <time>2022-09-05T09:13:45.000Z</time>
      </trkpt>
      <trkpt lat="49.85539" lon="4.78663">
        <ele>284</ele>
        <time>2022-09-05T09:13:46.000Z</time>
      </trkpt>
      <trkpt lat="49.85536" lon="4.78658">
        <ele>284</ele>
        <time>2022-09-05T09:13:47.000Z</time>
      </trkpt>
      <trkpt lat="49.85534" lon="4.78654">
        <ele>284</ele>
        <time>2022-09-05T09:13:48.000Z</time>
      </trkpt>
      <trkpt lat="49.85532" lon="4.78651">
        <ele>284</ele>
        <time>2022-09-05T09:13:49.000Z</time>
      </trkpt>
      <trkpt lat="49.8553" lon="4.78648">
        <ele>284</ele>
        <time>2022-09-05T09:13:50.000Z</time>
      </trkpt>
      <trkpt lat="49.85528" lon="4.78645">
        <ele>284</ele>
        <time>2022-09-05T09:13:51.000Z</time>
      </trkpt>
      <trkpt lat="49.85527" lon="4.78642">
        <ele>284</ele>
        <time>2022-09-05T09:13:52.000Z</time>
      </trkpt>
      <trkpt lat="49.85526" lon="4.78638">
        <ele>284</ele>
        <time>2022-09-05T09:13:53.000Z</time>
      </trkpt>
      <trkpt lat="49.85525" lon="4.78634">
        <ele>283</ele>
        <time>2022-09-05T09:13:54.000Z</time>
      </trkpt>
      <trkpt lat="49.85523" lon="4.7863">
        <ele>283</ele>
        <time>2022-09-05T09:13:55.000Z</time>
      </trkpt>
      <trkpt lat="49.85522" lon="4.78625">
        <ele>283</ele>
        <time>2022-09-05T09:13:56.000Z</time>
      </trkpt>
      <trkpt lat="49.85521" lon="4.78621">
        <ele>283</ele>
        <time>2022-09-05T09:13:57.000Z</time>
      </trkpt>
      <trkpt lat="49.8552" lon="4.78615">
        <ele>283</ele>
        <time>2022-09-05T09:13:58.000Z</time>
      </trkpt>
      <trkpt lat="49.85519" lon="4.78611">
        <ele>284</ele>
        <time>2022-09-05T09:13:59.000Z</time>
      </trkpt>
      <trkpt lat="49.85519" lon="4.78606">
        <ele>284</ele>
        <time>2022-09-05T09:14:00.000Z</time>
      </trkpt>
      <trkpt lat="49.85518" lon="4.78602">
        <ele>284</ele>
        <time>2022-09-05T09:14:01.000Z</time>
      </trkpt>
      <trkpt lat="49.85518" lon="4.78598">
        <ele>284</ele>
        <time>2022-09-05T09:14:02.000Z</time>
      </trkpt>
      <trkpt lat="49.85518" lon="4.78594">
        <ele>284</ele>
        <time>2022-09-05T09:14:03.000Z</time>
      </trkpt>
      <trkpt lat="49.85518" lon="4.7859">
        <ele>285</ele>
        <time>2022-09-05T09:14:04.000Z</time>
      </trkpt>
      <trkpt lat="49.85519" lon="4.78586">
        <ele>285</ele>
        <time>2022-09-05T09:14:05.000Z</time>
      </trkpt>
      <trkpt lat="49.8552" lon="4.78583">
        <ele>286</ele>
        <time>2022-09-05T09:14:06.000Z</time>
      </trkpt>
      <trkpt lat="49.85521" lon="4.7858">
        <ele>286</ele>
        <time>2022-09-05T09:14:07.000Z</time>
      </trkpt>
      <trkpt lat="49.85522" lon="4.78578">
        <ele>286</ele>
        <time>2022-09-05T09:14:08.000Z</time>
      </trkpt>
      <trkpt lat="49.85523" lon="4.78576">
        <ele>287</ele>
        <time>2022-09-05T09:14:09.000Z</time>
      </trkpt>
      <trkpt lat="49.85523" lon="4.78574">
        <ele>287</ele>
        <time>2022-09-05T09:14:10.000Z</time>
      </trkpt>
      <trkpt lat="49.85524" lon="4.78571">
        <ele>287</ele>
        <time>2022-09-05T09:14:11.000Z</time>
      </trkpt>
      <trkpt lat="49.85524" lon="4.78569">
        <ele>288</ele>
        <time>2022-09-05T09:14:12.000Z</time>
      </trkpt>
      <trkpt lat="49.85525" lon="4.78567">
        <ele>288</ele>
        <time>2022-09-05T09:14:13.000Z</time>
      </trkpt>
      <trkpt lat="49.85525" lon="4.78565">
        <ele>288</ele>
        <time>2022-09-05T09:14:14.000Z</time>
      </trkpt>
      <trkpt lat="49.85525" lon="4.78563">
        <ele>289</ele>
        <time>2022-09-05T09:14:15.000Z</time>
      </trkpt>
      <trkpt lat="49.85525" lon="4.78561">
        <ele>289</ele>
        <time>2022-09-05T09:14:16.000Z</time>
      </trkpt>
      <trkpt lat="49.85525" lon="4.78558">
        <ele>290</ele>
        <time>2022-09-05T09:14:17.000Z</time>
      </trkpt>
      <trkpt lat="49.85525" lon="4.78557">
        <ele>290</ele>
        <time>2022-09-05T09:14:18.000Z</time>
      </trkpt>
      <trkpt lat="49.85524" lon="4.78555">
        <ele>290</ele>
        <time>2022-09-05T09:14:19.000Z</time>
      </trkpt>
      <trkpt lat="49.85525" lon="4.78554">
        <ele>291</ele>
        <time>2022-09-05T09:14:20.000Z</time>
      </trkpt>
      <trkpt lat="49.85525" lon="4.78552">
        <ele>291</ele>
        <time>2022-09-05T09:14:21.000Z</time>
      </trkpt>
      <trkpt lat="49.85526" lon="4.7855">
        <ele>291</ele>
        <time>2022-09-05T09:14:22.000Z</time>
      </trkpt>
      <trkpt lat="49.85527" lon="4.78548">
        <ele>291</ele>
        <time>2022-09-05T09:14:23.000Z</time>
      </trkpt>
      <trkpt lat="49.85528" lon="4.78545">
        <ele>292</ele>
        <time>2022-09-05T09:14:24.000Z</time>
      </trkpt>
      <trkpt lat="49.85529" lon="4.78543">
        <ele>292</ele>
        <time>2022-09-05T09:14:25.000Z</time>
      </trkpt>
      <trkpt lat="49.85529" lon="4.78542">
        <ele>292</ele>
        <time>2022-09-05T09:14:26.000Z</time>
      </trkpt>
      <trkpt lat="49.8553" lon="4.7854">
        <ele>292</ele>
        <time>2022-09-05T09:14:27.000Z</time>
      </trkpt>
      <trkpt lat="49.85531" lon="4.78538">
        <ele>293</ele>
        <time>2022-09-05T09:14:28.000Z</time>
      </trkpt>
      <trkpt lat="49.85532" lon="4.78536">
        <ele>293</ele>
        <time>2022-09-05T09:14:29.000Z</time>
      </trkpt>
      <trkpt lat="49.85533" lon="4.78534">
        <ele>293</ele>
        <time>2022-09-05T09:14:30.000Z</time>
      </trkpt>
      <trkpt lat="49.85534" lon="4.78532">
        <ele>293</ele>
        <time>2022-09-05T09:14:31.000Z</time>
      </trkpt>
      <trkpt lat="49.85535" lon="4.7853">
        <ele>293</ele>
        <time>2022-09-05T09:14:32.000Z</time>
      </trkpt>
      <trkpt lat="49.85536" lon="4.78529">
        <ele>294</ele>
        <time>2022-09-05T09:14:33.000Z</time>
      </trkpt>
      <trkpt lat="49.85536" lon="4.78527">
        <ele>294</ele>
        <time>2022-09-05T09:14:34.000Z</time>
      </trkpt>
      <trkpt lat="49.85538" lon="4.78525">
        <ele>294</ele>
        <time>2022-09-05T09:14:35.000Z</time>
      </trkpt>
      <trkpt lat="49.85539" lon="4.78524">
        <ele>294</ele>
        <time>2022-09-05T09:14:36.000Z</time>
      </trkpt>
      <trkpt lat="49.85541" lon="4.78522">
        <ele>294</ele>
        <time>2022-09-05T09:14:37.000Z</time>
      </trkpt>
      <trkpt lat="49.85542" lon="4.7852">
        <ele>295</ele>
        <time>2022-09-05T09:14:38.000Z</time>
      </trkpt>
      <trkpt lat="49.85544" lon="4.78518">
        <ele>295</ele>
        <time>2022-09-05T09:14:39.000Z</time>
      </trkpt>
      <trkpt lat="49.85546" lon="4.78517">
        <ele>295</ele>
        <time>2022-09-05T09:14:40.000Z</time>
      </trkpt>
      <trkpt lat="49.85547" lon="4.78515">
        <ele>295</ele>
        <time>2022-09-05T09:14:41.000Z</time>
      </trkpt>
      <trkpt lat="49.85548" lon="4.78514">
        <ele>295</ele>
        <time>2022-09-05T09:14:42.000Z</time>
      </trkpt>
      <trkpt lat="49.8555" lon="4.78512">
        <ele>296</ele>
        <time>2022-09-05T09:14:43.000Z</time>
      </trkpt>
      <trkpt lat="49.85551" lon="4.7851">
        <ele>296</ele>
        <time>2022-09-05T09:14:44.000Z</time>
      </trkpt>
      <trkpt lat="49.85552" lon="4.78509">
        <ele>296</ele>
        <time>2022-09-05T09:14:45.000Z</time>
      </trkpt>
      <trkpt lat="49.85553" lon="4.78507">
        <ele>296</ele>
        <time>2022-09-05T09:14:46.000Z</time>
      </trkpt>
      <trkpt lat="49.85554" lon="4.78505">
        <ele>297</ele>
        <time>2022-09-05T09:14:47.000Z</time>
      </trkpt>
      <trkpt lat="49.85555" lon="4.78503">
        <ele>297</ele>
        <time>2022-09-05T09:14:48.000Z</time>
      </trkpt>
      <trkpt lat="49.85556" lon="4.78501">
        <ele>297</ele>
        <time>2022-09-05T09:14:49.000Z</time>
      </trkpt>
      <trkpt lat="49.85557" lon="4.78498">
        <ele>297</ele>
        <time>2022-09-05T09:14:50.000Z</time>
      </trkpt>
      <trkpt lat="49.85558" lon="4.78495">
        <ele>297</ele>
        <time>2022-09-05T09:14:51.000Z</time>
      </trkpt>
      <trkpt lat="49.85559" lon="4.78492">
        <ele>297</ele>
        <time>2022-09-05T09:14:52.000Z</time>
      </trkpt>
      <trkpt lat="49.85559" lon="4.7849">
        <ele>298</ele>
        <time>2022-09-05T09:14:53.000Z</time>
      </trkpt>
      <trkpt lat="49.8556" lon="4.78487">
        <ele>298</ele>
        <time>2022-09-05T09:14:54.000Z</time>
      </trkpt>
      <trkpt lat="49.85561" lon="4.78485">
        <ele>298</ele>
        <time>2022-09-05T09:14:55.000Z</time>
      </trkpt>
      <trkpt lat="49.85562" lon="4.78482">
        <ele>298</ele>
        <time>2022-09-05T09:14:56.000Z</time>
      </trkpt>
      <trkpt lat="49.85563" lon="4.7848">
        <ele>298</ele>
        <time>2022-09-05T09:14:57.000Z</time>
      </trkpt>
      <trkpt lat="49.85564" lon="4.78478">
        <ele>299</ele>
        <time>2022-09-05T09:14:58.000Z</time>
      </trkpt>
      <trkpt lat="49.85565" lon="4.78476">
        <ele>299</ele>
        <time>2022-09-05T09:14:59.000Z</time>
      </trkpt>
      <trkpt lat="49.85566" lon="4.78474">
        <ele>299</ele>
        <time>2022-09-05T09:15:00.000Z</time>
      </trkpt>
      <trkpt lat="49.85567" lon="4.78471">
        <ele>299</ele>
        <time>2022-09-05T09:15:01.000Z</time>
      </trkpt>
      <trkpt lat="49.85568" lon="4.78469">
        <ele>299</ele>
        <time>2022-09-05T09:15:02.000Z</time>
      </trkpt>
      <trkpt lat="49.85569" lon="4.78466">
        <ele>299</ele>
        <time>2022-09-05T09:15:03.000Z</time>
      </trkpt>
      <trkpt lat="49.8557" lon="4.78463">
        <ele>300</ele>
        <time>2022-09-05T09:15:04.000Z</time>
      </trkpt>
      <trkpt lat="49.85572" lon="4.78461">
        <ele>300</ele>
        <time>2022-09-05T09:15:05.000Z</time>
      </trkpt>
      <trkpt lat="49.85573" lon="4.78459">
        <ele>300</ele>
        <time>2022-09-05T09:15:06.000Z</time>
      </trkpt>
      <trkpt lat="49.85573" lon="4.78456">
        <ele>301</ele>
        <time>2022-09-05T09:15:07.000Z</time>
      </trkpt>
      <trkpt lat="49.85574" lon="4.78454">
        <ele>301</ele>
        <time>2022-09-05T09:15:08.000Z</time>
      </trkpt>
      <trkpt lat="49.85574" lon="4.78451">
        <ele>301</ele>
        <time>2022-09-05T09:15:09.000Z</time>
      </trkpt>
      <trkpt lat="49.85575" lon="4.78449">
        <ele>302</ele>
        <time>2022-09-05T09:15:10.000Z</time>
      </trkpt>
      <trkpt lat="49.85575" lon="4.78446">
        <ele>302</ele>
        <time>2022-09-05T09:15:11.000Z</time>
      </trkpt>
      <trkpt lat="49.85576" lon="4.78443">
        <ele>302</ele>
        <time>2022-09-05T09:15:12.000Z</time>
      </trkpt>
      <trkpt lat="49.85577" lon="4.7844">
        <ele>303</ele>
        <time>2022-09-05T09:15:13.000Z</time>
      </trkpt>
      <trkpt lat="49.85577" lon="4.78437">
        <ele>303</ele>
        <time>2022-09-05T09:15:14.000Z</time>
      </trkpt>
      <trkpt lat="49.85578" lon="4.78434">
        <ele>303</ele>
        <time>2022-09-05T09:15:15.000Z</time>
      </trkpt>
      <trkpt lat="49.85578" lon="4.78431">
        <ele>303</ele>
        <time>2022-09-05T09:15:16.000Z</time>
      </trkpt>
      <trkpt lat="49.85579" lon="4.78428">
        <ele>304</ele>
        <time>2022-09-05T09:15:17.000Z</time>
      </trkpt>
      <trkpt lat="49.85579" lon="4.78425">
        <ele>304</ele>
        <time>2022-09-05T09:15:18.000Z</time>
      </trkpt>
      <trkpt lat="49.8558" lon="4.78423">
        <ele>304</ele>
        <time>2022-09-05T09:15:19.000Z</time>
      </trkpt>
      <trkpt lat="49.8558" lon="4.78421">
        <ele>305</ele>
        <time>2022-09-05T09:15:20.000Z</time>
      </trkpt>
      <trkpt lat="49.85581" lon="4.78418">
        <ele>305</ele>
        <time>2022-09-05T09:15:21.000Z</time>
      </trkpt>
      <trkpt lat="49.85581" lon="4.78416">
        <ele>305</ele>
        <time>2022-09-05T09:15:22.000Z</time>
      </trkpt>
      <trkpt lat="49.85582" lon="4.78414">
        <ele>306</ele>
        <time>2022-09-05T09:15:23.000Z</time>
      </trkpt>
      <trkpt lat="49.85582" lon="4.78412">
        <ele>306</ele>
        <time>2022-09-05T09:15:24.000Z</time>
      </trkpt>
      <trkpt lat="49.85583" lon="4.78409">
        <ele>306</ele>
        <time>2022-09-05T09:15:25.000Z</time>
      </trkpt>
      <trkpt lat="49.85584" lon="4.78406">
        <ele>307</ele>
        <time>2022-09-05T09:15:26.000Z</time>
      </trkpt>
      <trkpt lat="49.85585" lon="4.78404">
        <ele>307</ele>
        <time>2022-09-05T09:15:27.000Z</time>
      </trkpt>
      <trkpt lat="49.85586" lon="4.78401">
        <ele>307</ele>
        <time>2022-09-05T09:15:28.000Z</time>
      </trkpt>
      <trkpt lat="49.85587" lon="4.78399">
        <ele>307</ele>
        <time>2022-09-05T09:15:29.000Z</time>
      </trkpt>
      <trkpt lat="49.85589" lon="4.78397">
        <ele>308</ele>
        <time>2022-09-05T09:15:30.000Z</time>
      </trkpt>
      <trkpt lat="49.85591" lon="4.78394">
        <ele>308</ele>
        <time>2022-09-05T09:15:31.000Z</time>
      </trkpt>
      <trkpt lat="49.85592" lon="4.78392">
        <ele>308</ele>
        <time>2022-09-05T09:15:32.000Z</time>
      </trkpt>
      <trkpt lat="49.85594" lon="4.7839">
        <ele>308</ele>
        <time>2022-09-05T09:15:33.000Z</time>
      </trkpt>
      <trkpt lat="49.85595" lon="4.78387">
        <ele>308</ele>
        <time>2022-09-05T09:15:34.000Z</time>
      </trkpt>
      <trkpt lat="49.85596" lon="4.78385">
        <ele>309</ele>
        <time>2022-09-05T09:15:35.000Z</time>
      </trkpt>
      <trkpt lat="49.85598" lon="4.78383">
        <ele>309</ele>
        <time>2022-09-05T09:15:36.000Z</time>
      </trkpt>
      <trkpt lat="49.85599" lon="4.7838">
        <ele>309</ele>
        <time>2022-09-05T09:15:37.000Z</time>
      </trkpt>
      <trkpt lat="49.85601" lon="4.78377">
        <ele>309</ele>
        <time>2022-09-05T09:15:38.000Z</time>
      </trkpt>
      <trkpt lat="49.85602" lon="4.78373">
        <ele>309</ele>
        <time>2022-09-05T09:15:39.000Z</time>
      </trkpt>
      <trkpt lat="49.85602" lon="4.7837">
        <ele>309</ele>
        <time>2022-09-05T09:15:40.000Z</time>
      </trkpt>
      <trkpt lat="49.85603" lon="4.78367">
        <ele>309</ele>
        <time>2022-09-05T09:15:41.000Z</time>
      </trkpt>
      <trkpt lat="49.85604" lon="4.78363">
        <ele>309</ele>
        <time>2022-09-05T09:15:42.000Z</time>
      </trkpt>
      <trkpt lat="49.85604" lon="4.78359">
        <ele>309</ele>
        <time>2022-09-05T09:15:43.000Z</time>
      </trkpt>
      <trkpt lat="49.85604" lon="4.78355">
        <ele>309</ele>
        <time>2022-09-05T09:15:44.000Z</time>
      </trkpt>
      <trkpt lat="49.85603" lon="4.78352">
        <ele>309</ele>
        <time>2022-09-05T09:15:45.000Z</time>
      </trkpt>
      <trkpt lat="49.85602" lon="4.78349">
        <ele>309</ele>
        <time>2022-09-05T09:15:46.000Z</time>
      </trkpt>
      <trkpt lat="49.85601" lon="4.78346">
        <ele>309</ele>
        <time>2022-09-05T09:15:47.000Z</time>
      </trkpt>
      <trkpt lat="49.856" lon="4.78342">
        <ele>309</ele>
        <time>2022-09-05T09:15:48.000Z</time>
      </trkpt>
      <trkpt lat="49.85599" lon="4.78339">
        <ele>309</ele>
        <time>2022-09-05T09:15:49.000Z</time>
      </trkpt>
      <trkpt lat="49.85597" lon="4.78336">
        <ele>309</ele>
        <time>2022-09-05T09:15:50.000Z</time>
      </trkpt>
      <trkpt lat="49.85596" lon="4.78334">
        <ele>309</ele>
        <time>2022-09-05T09:15:51.000Z</time>
      </trkpt>
      <trkpt lat="49.85594" lon="4.78331">
        <ele>309</ele>
        <time>2022-09-05T09:15:52.000Z</time>
      </trkpt>
      <trkpt lat="49.85592" lon="4.78328">
        <ele>309</ele>
        <time>2022-09-05T09:15:53.000Z</time>
      </trkpt>
      <trkpt lat="49.8559" lon="4.78325">
        <ele>309</ele>
        <time>2022-09-05T09:15:54.000Z</time>
      </trkpt>
      <trkpt lat="49.85588" lon="4.78323">
        <ele>310</ele>
        <time>2022-09-05T09:15:55.000Z</time>
      </trkpt>
      <trkpt lat="49.85586" lon="4.7832">
        <ele>310</ele>
        <time>2022-09-05T09:15:56.000Z</time>
      </trkpt>
      <trkpt lat="49.85584" lon="4.78317">
        <ele>310</ele>
        <time>2022-09-05T09:15:57.000Z</time>
      </trkpt>
      <trkpt lat="49.85582" lon="4.78314">
        <ele>310</ele>
        <time>2022-09-05T09:15:58.000Z</time>
      </trkpt>
      <trkpt lat="49.8558" lon="4.78312">
        <ele>310</ele>
        <time>2022-09-05T09:15:59.000Z</time>
      </trkpt>
      <trkpt lat="49.85578" lon="4.78309">
        <ele>310</ele>
        <time>2022-09-05T09:16:00.000Z</time>
      </trkpt>
      <trkpt lat="49.85576" lon="4.78306">
        <ele>310</ele>
        <time>2022-09-05T09:16:01.000Z</time>
      </trkpt>
      <trkpt lat="49.85574" lon="4.78303">
        <ele>310</ele>
        <time>2022-09-05T09:16:02.000Z</time>
      </trkpt>
      <trkpt lat="49.85572" lon="4.78301">
        <ele>310</ele>
        <time>2022-09-05T09:16:03.000Z</time>
      </trkpt>
      <trkpt lat="49.8557" lon="4.78297">
        <ele>310</ele>
        <time>2022-09-05T09:16:04.000Z</time>
      </trkpt>
      <trkpt lat="49.85568" lon="4.78295">
        <ele>310</ele>
        <time>2022-09-05T09:16:05.000Z</time>
      </trkpt>
      <trkpt lat="49.85566" lon="4.78291">
        <ele>310</ele>
        <time>2022-09-05T09:16:06.000Z</time>
      </trkpt>
      <trkpt lat="49.85564" lon="4.78288">
        <ele>310</ele>
        <time>2022-09-05T09:16:07.000Z</time>
      </trkpt>
      <trkpt lat="49.85562" lon="4.78285">
        <ele>310</ele>
        <time>2022-09-05T09:16:08.000Z</time>
      </trkpt>
      <trkpt lat="49.8556" lon="4.78282">
        <ele>310</ele>
        <time>2022-09-05T09:16:09.000Z</time>
      </trkpt>
      <trkpt lat="49.85558" lon="4.78279">
        <ele>310</ele>
        <time>2022-09-05T09:16:10.000Z</time>
      </trkpt>
      <trkpt lat="49.85556" lon="4.78276">
        <ele>310</ele>
        <time>2022-09-05T09:16:11.000Z</time>
      </trkpt>
      <trkpt lat="49.85554" lon="4.78272">
        <ele>311</ele>
        <time>2022-09-05T09:16:12.000Z</time>
      </trkpt>
      <trkpt lat="49.85552" lon="4.78269">
        <ele>311</ele>
        <time>2022-09-05T09:16:13.000Z</time>
      </trkpt>
      <trkpt lat="49.8555" lon="4.78267">
        <ele>311</ele>
        <time>2022-09-05T09:16:14.000Z</time>
      </trkpt>
      <trkpt lat="49.85548" lon="4.78264">
        <ele>311</ele>
        <time>2022-09-05T09:16:15.000Z</time>
      </trkpt>
      <trkpt lat="49.85546" lon="4.78261">
        <ele>311</ele>
        <time>2022-09-05T09:16:16.000Z</time>
      </trkpt>
      <trkpt lat="49.85545" lon="4.78259">
        <ele>311</ele>
        <time>2022-09-05T09:16:17.000Z</time>
      </trkpt>
      <trkpt lat="49.85543" lon="4.78256">
        <ele>311</ele>
        <time>2022-09-05T09:16:18.000Z</time>
      </trkpt>
      <trkpt lat="49.85541" lon="4.78253">
        <ele>311</ele>
        <time>2022-09-05T09:16:19.000Z</time>
      </trkpt>
      <trkpt lat="49.85539" lon="4.78251">
        <ele>311</ele>
        <time>2022-09-05T09:16:20.000Z</time>
      </trkpt>
      <trkpt lat="49.85536" lon="4.78249">
        <ele>311</ele>
        <time>2022-09-05T09:16:21.000Z</time>
      </trkpt>
      <trkpt lat="49.85534" lon="4.78246">
        <ele>311</ele>
        <time>2022-09-05T09:16:22.000Z</time>
      </trkpt>
      <trkpt lat="49.85532" lon="4.78244">
        <ele>311</ele>
        <time>2022-09-05T09:16:23.000Z</time>
      </trkpt>
      <trkpt lat="49.85529" lon="4.78242">
        <ele>311</ele>
        <time>2022-09-05T09:16:24.000Z</time>
      </trkpt>
      <trkpt lat="49.85526" lon="4.78239">
        <ele>311</ele>
        <time>2022-09-05T09:16:25.000Z</time>
      </trkpt>
      <trkpt lat="49.85523" lon="4.78236">
        <ele>311</ele>
        <time>2022-09-05T09:16:26.000Z</time>
      </trkpt>
      <trkpt lat="49.8552" lon="4.78233">
        <ele>311</ele>
        <time>2022-09-05T09:16:27.000Z</time>
      </trkpt>
      <trkpt lat="49.85518" lon="4.78231">
        <ele>311</ele>
        <time>2022-09-05T09:16:28.000Z</time>
      </trkpt>
      <trkpt lat="49.85517" lon="4.78227">
        <ele>311</ele>
        <time>2022-09-05T09:16:29.000Z</time>
      </trkpt>
      <trkpt lat="49.85516" lon="4.78224">
        <ele>311</ele>
        <time>2022-09-05T09:16:30.000Z</time>
      </trkpt>
      <trkpt lat="49.85516" lon="4.78219">
        <ele>311</ele>
        <time>2022-09-05T09:16:31.000Z</time>
      </trkpt>
      <trkpt lat="49.85514" lon="4.78214">
        <ele>311</ele>
        <time>2022-09-05T09:16:32.000Z</time>
      </trkpt>
      <trkpt lat="49.85512" lon="4.7821">
        <ele>311</ele>
        <time>2022-09-05T09:16:33.000Z</time>
      </trkpt>
      <trkpt lat="49.8551" lon="4.78207">
        <ele>311</ele>
        <time>2022-09-05T09:16:34.000Z</time>
      </trkpt>
      <trkpt lat="49.85506" lon="4.78205">
        <ele>311</ele>
        <time>2022-09-05T09:16:35.000Z</time>
      </trkpt>
      <trkpt lat="49.85503" lon="4.78206">
        <ele>311</ele>
        <time>2022-09-05T09:16:36.000Z</time>
      </trkpt>
      <trkpt lat="49.85501" lon="4.78208">
        <ele>311</ele>
        <time>2022-09-05T09:16:37.000Z</time>
      </trkpt>
      <trkpt lat="49.85498" lon="4.78208">
        <ele>311</ele>
        <time>2022-09-05T09:16:38.000Z</time>
      </trkpt>
      <trkpt lat="49.85496" lon="4.78207">
        <ele>311</ele>
        <time>2022-09-05T09:16:39.000Z</time>
      </trkpt>
      <trkpt lat="49.85494" lon="4.78205">
        <ele>311</ele>
        <time>2022-09-05T09:16:40.000Z</time>
      </trkpt>
      <trkpt lat="49.85492" lon="4.78203">
        <ele>311</ele>
        <time>2022-09-05T09:16:41.000Z</time>
      </trkpt>
      <trkpt lat="49.85491" lon="4.78201">
        <ele>311</ele>
        <time>2022-09-05T09:16:42.000Z</time>
      </trkpt>
      <trkpt lat="49.8549" lon="4.78198">
        <ele>311</ele>
        <time>2022-09-05T09:16:43.000Z</time>
      </trkpt>
      <trkpt lat="49.85488" lon="4.78196">
        <ele>311</ele>
        <time>2022-09-05T09:16:44.000Z</time>
      </trkpt>
      <trkpt lat="49.85485" lon="4.78194">
        <ele>311</ele>
        <time>2022-09-05T09:16:45.000Z</time>
      </trkpt>
      <trkpt lat="49.85482" lon="4.7819">
        <ele>311</ele>
        <time>2022-09-05T09:16:46.000Z</time>
      </trkpt>
      <trkpt lat="49.85479" lon="4.78186">
        <ele>311</ele>
        <time>2022-09-05T09:16:47.000Z</time>
      </trkpt>
      <trkpt lat="49.85476" lon="4.78184">
        <ele>310</ele>
        <time>2022-09-05T09:16:48.000Z</time>
      </trkpt>
      <trkpt lat="49.85475" lon="4.78181">
        <ele>310</ele>
        <time>2022-09-05T09:16:49.000Z</time>
      </trkpt>
      <trkpt lat="49.85473" lon="4.78181">
        <ele>310</ele>
        <time>2022-09-05T09:16:50.000Z</time>
      </trkpt>
      <trkpt lat="49.85471" lon="4.78183">
        <ele>310</ele>
        <time>2022-09-05T09:16:51.000Z</time>
      </trkpt>
      <trkpt lat="49.85469" lon="4.78185">
        <ele>310</ele>
        <time>2022-09-05T09:16:52.000Z</time>
      </trkpt>
      <trkpt lat="49.85467" lon="4.78188">
        <ele>310</ele>
        <time>2022-09-05T09:16:53.000Z</time>
      </trkpt>
      <trkpt lat="49.85465" lon="4.78191">
        <ele>310</ele>
        <time>2022-09-05T09:16:54.000Z</time>
      </trkpt>
      <trkpt lat="49.85463" lon="4.78194">
        <ele>310</ele>
        <time>2022-09-05T09:16:55.000Z</time>
      </trkpt>
      <trkpt lat="49.85461" lon="4.78198">
        <ele>310</ele>
        <time>2022-09-05T09:16:56.000Z</time>
      </trkpt>
      <trkpt lat="49.85458" lon="4.78202">
        <ele>310</ele>
        <time>2022-09-05T09:16:57.000Z</time>
      </trkpt>
      <trkpt lat="49.85455" lon="4.78206">
        <ele>310</ele>
        <time>2022-09-05T09:16:58.000Z</time>
      </trkpt>
      <trkpt lat="49.85452" lon="4.7821">
        <ele>310</ele>
        <time>2022-09-05T09:16:59.000Z</time>
      </trkpt>
      <trkpt lat="49.85449" lon="4.78214">
        <ele>310</ele>
        <time>2022-09-05T09:17:00.000Z</time>
      </trkpt>
      <trkpt lat="49.85446" lon="4.78218">
        <ele>310</ele>
        <time>2022-09-05T09:17:01.000Z</time>
      </trkpt>
      <trkpt lat="49.85443" lon="4.78221">
        <ele>310</ele>
        <time>2022-09-05T09:17:02.000Z</time>
      </trkpt>
      <trkpt lat="49.85441" lon="4.78225">
        <ele>310</ele>
        <time>2022-09-05T09:17:03.000Z</time>
      </trkpt>
      <trkpt lat="49.85438" lon="4.78229">
        <ele>310</ele>
        <time>2022-09-05T09:17:04.000Z</time>
      </trkpt>
      <trkpt lat="49.85435" lon="4.78233">
        <ele>311</ele>
        <time>2022-09-05T09:17:05.000Z</time>
      </trkpt>
      <trkpt lat="49.85433" lon="4.78237">
        <ele>311</ele>
        <time>2022-09-05T09:17:06.000Z</time>
      </trkpt>
      <trkpt lat="49.8543" lon="4.78242">
        <ele>311</ele>
        <time>2022-09-05T09:17:07.000Z</time>
      </trkpt>
      <trkpt lat="49.85427" lon="4.78245">
        <ele>311</ele>
        <time>2022-09-05T09:17:08.000Z</time>
      </trkpt>
      <trkpt lat="49.85424" lon="4.78248">
        <ele>311</ele>
        <time>2022-09-05T09:17:09.000Z</time>
      </trkpt>
      <trkpt lat="49.8542" lon="4.78251">
        <ele>311</ele>
        <time>2022-09-05T09:17:10.000Z</time>
      </trkpt>
      <trkpt lat="49.85417" lon="4.78254">
        <ele>311</ele>
        <time>2022-09-05T09:17:11.000Z</time>
      </trkpt>
      <trkpt lat="49.85414" lon="4.78258">
        <ele>312</ele>
        <time>2022-09-05T09:17:12.000Z</time>
      </trkpt>
      <trkpt lat="49.85411" lon="4.7826">
        <ele>312</ele>
        <time>2022-09-05T09:17:13.000Z</time>
      </trkpt>
      <trkpt lat="49.85409" lon="4.78263">
        <ele>312</ele>
        <time>2022-09-05T09:17:14.000Z</time>
      </trkpt>
      <trkpt lat="49.85406" lon="4.78266">
        <ele>312</ele>
        <time>2022-09-05T09:17:15.000Z</time>
      </trkpt>
      <trkpt lat="49.85403" lon="4.7827">
        <ele>312</ele>
        <time>2022-09-05T09:17:16.000Z</time>
      </trkpt>
      <trkpt lat="49.854" lon="4.78273">
        <ele>313</ele>
        <time>2022-09-05T09:17:17.000Z</time>
      </trkpt>
      <trkpt lat="49.85397" lon="4.78277">
        <ele>313</ele>
        <time>2022-09-05T09:17:18.000Z</time>
      </trkpt>
      <trkpt lat="49.85394" lon="4.7828">
        <ele>313</ele>
        <time>2022-09-05T09:17:19.000Z</time>
      </trkpt>
      <trkpt lat="49.85391" lon="4.78283">
        <ele>313</ele>
        <time>2022-09-05T09:17:20.000Z</time>
      </trkpt>
      <trkpt lat="49.85389" lon="4.78286">
        <ele>314</ele>
        <time>2022-09-05T09:17:21.000Z</time>
      </trkpt>
      <trkpt lat="49.85386" lon="4.78288">
        <ele>314</ele>
        <time>2022-09-05T09:17:22.000Z</time>
      </trkpt>
      <trkpt lat="49.85384" lon="4.78291">
        <ele>314</ele>
        <time>2022-09-05T09:17:23.000Z</time>
      </trkpt>
      <trkpt lat="49.85382" lon="4.78293">
        <ele>314</ele>
        <time>2022-09-05T09:17:24.000Z</time>
      </trkpt>
      <trkpt lat="49.8538" lon="4.78296">
        <ele>314</ele>
        <time>2022-09-05T09:17:25.000Z</time>
      </trkpt>
      <trkpt lat="49.85378" lon="4.78299">
        <ele>314</ele>
        <time>2022-09-05T09:17:26.000Z</time>
      </trkpt>
      <trkpt lat="49.85376" lon="4.78301">
        <ele>315</ele>
        <time>2022-09-05T09:17:27.000Z</time>
      </trkpt>
      <trkpt lat="49.85374" lon="4.78304">
        <ele>315</ele>
        <time>2022-09-05T09:17:28.000Z</time>
      </trkpt>
      <trkpt lat="49.85372" lon="4.78307">
        <ele>315</ele>
        <time>2022-09-05T09:17:29.000Z</time>
      </trkpt>
      <trkpt lat="49.85371" lon="4.78309">
        <ele>315</ele>
        <time>2022-09-05T09:17:30.000Z</time>
      </trkpt>
      <trkpt lat="49.85369" lon="4.78312">
        <ele>316</ele>
        <time>2022-09-05T09:17:31.000Z</time>
      </trkpt>
      <trkpt lat="49.85367" lon="4.78315">
        <ele>316</ele>
        <time>2022-09-05T09:17:32.000Z</time>
      </trkpt>
      <trkpt lat="49.85365" lon="4.78318">
        <ele>316</ele>
        <time>2022-09-05T09:17:33.000Z</time>
      </trkpt>
      <trkpt lat="49.85364" lon="4.78321">
        <ele>316</ele>
        <time>2022-09-05T09:17:34.000Z</time>
      </trkpt>
      <trkpt lat="49.85362" lon="4.78324">
        <ele>317</ele>
        <time>2022-09-05T09:17:35.000Z</time>
      </trkpt>
      <trkpt lat="49.8536" lon="4.78326">
        <ele>317</ele>
        <time>2022-09-05T09:17:36.000Z</time>
      </trkpt>
      <trkpt lat="49.85357" lon="4.78329">
        <ele>317</ele>
        <time>2022-09-05T09:17:37.000Z</time>
      </trkpt>
      <trkpt lat="49.85355" lon="4.78332">
        <ele>318</ele>
        <time>2022-09-05T09:17:38.000Z</time>
      </trkpt>
      <trkpt lat="49.85354" lon="4.78334">
        <ele>318</ele>
        <time>2022-09-05T09:17:39.000Z</time>
      </trkpt>
      <trkpt lat="49.85352" lon="4.78337">
        <ele>318</ele>
        <time>2022-09-05T09:17:40.000Z</time>
      </trkpt>
      <trkpt lat="49.8535" lon="4.7834">
        <ele>319</ele>
        <time>2022-09-05T09:17:41.000Z</time>
      </trkpt>
      <trkpt lat="49.85349" lon="4.78343">
        <ele>319</ele>
        <time>2022-09-05T09:17:42.000Z</time>
      </trkpt>
      <trkpt lat="49.85347" lon="4.78346">
        <ele>319</ele>
        <time>2022-09-05T09:17:43.000Z</time>
      </trkpt>
      <trkpt lat="49.85346" lon="4.78348">
        <ele>320</ele>
        <time>2022-09-05T09:17:44.000Z</time>
      </trkpt>
      <trkpt lat="49.85344" lon="4.78351">
        <ele>320</ele>
        <time>2022-09-05T09:17:45.000Z</time>
      </trkpt>
      <trkpt lat="49.85343" lon="4.78354">
        <ele>320</ele>
        <time>2022-09-05T09:17:46.000Z</time>
      </trkpt>
      <trkpt lat="49.85342" lon="4.78356">
        <ele>320</ele>
        <time>2022-09-05T09:17:47.000Z</time>
      </trkpt>
      <trkpt lat="49.85341" lon="4.78359">
        <ele>321</ele>
        <time>2022-09-05T09:17:48.000Z</time>
      </trkpt>
      <trkpt lat="49.85339" lon="4.78361">
        <ele>321</ele>
        <time>2022-09-05T09:17:49.000Z</time>
      </trkpt>
      <trkpt lat="49.85338" lon="4.78363">
        <ele>321</ele>
        <time>2022-09-05T09:17:50.000Z</time>
      </trkpt>
      <trkpt lat="49.85336" lon="4.78365">
        <ele>321</ele>
        <time>2022-09-05T09:17:51.000Z</time>
      </trkpt>
      <trkpt lat="49.85334" lon="4.78367">
        <ele>321</ele>
        <time>2022-09-05T09:17:52.000Z</time>
      </trkpt>
      <trkpt lat="49.85333" lon="4.78369">
        <ele>321</ele>
        <time>2022-09-05T09:17:53.000Z</time>
      </trkpt>
      <trkpt lat="49.85331" lon="4.78371">
        <ele>322</ele>
        <time>2022-09-05T09:17:54.000Z</time>
      </trkpt>
      <trkpt lat="49.8533" lon="4.78374">
        <ele>322</ele>
        <time>2022-09-05T09:17:55.000Z</time>
      </trkpt>
      <trkpt lat="49.85329" lon="4.78376">
        <ele>322</ele>
        <time>2022-09-05T09:17:56.000Z</time>
      </trkpt>
      <trkpt lat="49.85327" lon="4.78379">
        <ele>322</ele>
        <time>2022-09-05T09:17:57.000Z</time>
      </trkpt>
      <trkpt lat="49.85326" lon="4.78381">
        <ele>323</ele>
        <time>2022-09-05T09:17:58.000Z</time>
      </trkpt>
      <trkpt lat="49.85324" lon="4.78384">
        <ele>323</ele>
        <time>2022-09-05T09:17:59.000Z</time>
      </trkpt>
      <trkpt lat="49.85322" lon="4.78387">
        <ele>323</ele>
        <time>2022-09-05T09:18:00.000Z</time>
      </trkpt>
      <trkpt lat="49.85321" lon="4.78389">
        <ele>324</ele>
        <time>2022-09-05T09:18:01.000Z</time>
      </trkpt>
      <trkpt lat="49.8532" lon="4.78392">
        <ele>324</ele>
        <time>2022-09-05T09:18:02.000Z</time>
      </trkpt>
      <trkpt lat="49.85318" lon="4.78395">
        <ele>324</ele>
        <time>2022-09-05T09:18:03.000Z</time>
      </trkpt>
      <trkpt lat="49.85317" lon="4.78397">
        <ele>324</ele>
        <time>2022-09-05T09:18:04.000Z</time>
      </trkpt>
      <trkpt lat="49.85315" lon="4.78399">
        <ele>325</ele>
        <time>2022-09-05T09:18:05.000Z</time>
      </trkpt>
      <trkpt lat="49.85314" lon="4.78402">
        <ele>325</ele>
        <time>2022-09-05T09:18:06.000Z</time>
      </trkpt>
      <trkpt lat="49.85312" lon="4.78404">
        <ele>325</ele>
        <time>2022-09-05T09:18:07.000Z</time>
      </trkpt>
      <trkpt lat="49.85311" lon="4.78407">
        <ele>325</ele>
        <time>2022-09-05T09:18:08.000Z</time>
      </trkpt>
      <trkpt lat="49.8531" lon="4.7841">
        <ele>325</ele>
        <time>2022-09-05T09:18:09.000Z</time>
      </trkpt>
      <trkpt lat="49.85308" lon="4.78412">
        <ele>326</ele>
        <time>2022-09-05T09:18:10.000Z</time>
      </trkpt>
      <trkpt lat="49.85307" lon="4.78414">
        <ele>326</ele>
        <time>2022-09-05T09:18:11.000Z</time>
      </trkpt>
      <trkpt lat="49.85306" lon="4.78417">
        <ele>326</ele>
        <time>2022-09-05T09:18:12.000Z</time>
      </trkpt>
      <trkpt lat="49.85305" lon="4.78419">
        <ele>326</ele>
        <time>2022-09-05T09:18:13.000Z</time>
      </trkpt>
      <trkpt lat="49.85303" lon="4.78422">
        <ele>326</ele>
        <time>2022-09-05T09:18:14.000Z</time>
      </trkpt>
      <trkpt lat="49.85302" lon="4.78424">
        <ele>327</ele>
        <time>2022-09-05T09:18:15.000Z</time>
      </trkpt>
      <trkpt lat="49.853" lon="4.78427">
        <ele>327</ele>
        <time>2022-09-05T09:18:16.000Z</time>
      </trkpt>
      <trkpt lat="49.85298" lon="4.78429">
        <ele>327</ele>
        <time>2022-09-05T09:18:17.000Z</time>
      </trkpt>
      <trkpt lat="49.85297" lon="4.78432">
        <ele>327</ele>
        <time>2022-09-05T09:18:18.000Z</time>
      </trkpt>
      <trkpt lat="49.85295" lon="4.78436">
        <ele>328</ele>
        <time>2022-09-05T09:18:19.000Z</time>
      </trkpt>
      <trkpt lat="49.85294" lon="4.78439">
        <ele>328</ele>
        <time>2022-09-05T09:18:20.000Z</time>
      </trkpt>
      <trkpt lat="49.85292" lon="4.78442">
        <ele>328</ele>
        <time>2022-09-05T09:18:21.000Z</time>
      </trkpt>
      <trkpt lat="49.85291" lon="4.78444">
        <ele>329</ele>
        <time>2022-09-05T09:18:22.000Z</time>
      </trkpt>
      <trkpt lat="49.8529" lon="4.78447">
        <ele>329</ele>
        <time>2022-09-05T09:18:23.000Z</time>
      </trkpt>
      <trkpt lat="49.85289" lon="4.7845">
        <ele>329</ele>
        <time>2022-09-05T09:18:24.000Z</time>
      </trkpt>
      <trkpt lat="49.85287" lon="4.78453">
        <ele>329</ele>
        <time>2022-09-05T09:18:25.000Z</time>
      </trkpt>
      <trkpt lat="49.85286" lon="4.78456">
        <ele>330</ele>
        <time>2022-09-05T09:18:26.000Z</time>
      </trkpt>
      <trkpt lat="49.85285" lon="4.7846">
        <ele>330</ele>
        <time>2022-09-05T09:18:27.000Z</time>
      </trkpt>
      <trkpt lat="49.85284" lon="4.78463">
        <ele>330</ele>
        <time>2022-09-05T09:18:28.000Z</time>
      </trkpt>
      <trkpt lat="49.85282" lon="4.78467">
        <ele>330</ele>
        <time>2022-09-05T09:18:29.000Z</time>
      </trkpt>
      <trkpt lat="49.8528" lon="4.7847">
        <ele>331</ele>
        <time>2022-09-05T09:18:30.000Z</time>
      </trkpt>
      <trkpt lat="49.85278" lon="4.78474">
        <ele>331</ele>
        <time>2022-09-05T09:18:31.000Z</time>
      </trkpt>
      <trkpt lat="49.85276" lon="4.78477">
        <ele>331</ele>
        <time>2022-09-05T09:18:32.000Z</time>
      </trkpt>
      <trkpt lat="49.85274" lon="4.78481">
        <ele>332</ele>
        <time>2022-09-05T09:18:33.000Z</time>
      </trkpt>
      <trkpt lat="49.85272" lon="4.78484">
        <ele>332</ele>
        <time>2022-09-05T09:18:34.000Z</time>
      </trkpt>
      <trkpt lat="49.8527" lon="4.78487">
        <ele>332</ele>
        <time>2022-09-05T09:18:35.000Z</time>
      </trkpt>
      <trkpt lat="49.85268" lon="4.7849">
        <ele>333</ele>
        <time>2022-09-05T09:18:36.000Z</time>
      </trkpt>
      <trkpt lat="49.85267" lon="4.78494">
        <ele>333</ele>
        <time>2022-09-05T09:18:37.000Z</time>
      </trkpt>
      <trkpt lat="49.85265" lon="4.78498">
        <ele>333</ele>
        <time>2022-09-05T09:18:38.000Z</time>
      </trkpt>
      <trkpt lat="49.85262" lon="4.78501">
        <ele>334</ele>
        <time>2022-09-05T09:18:39.000Z</time>
      </trkpt>
      <trkpt lat="49.8526" lon="4.78503">
        <ele>334</ele>
        <time>2022-09-05T09:18:40.000Z</time>
      </trkpt>
      <trkpt lat="49.85258" lon="4.78507">
        <ele>334</ele>
        <time>2022-09-05T09:18:41.000Z</time>
      </trkpt>
      <trkpt lat="49.85255" lon="4.78511">
        <ele>334</ele>
        <time>2022-09-05T09:18:42.000Z</time>
      </trkpt>
      <trkpt lat="49.85252" lon="4.78515">
        <ele>335</ele>
        <time>2022-09-05T09:18:43.000Z</time>
      </trkpt>
      <trkpt lat="49.85249" lon="4.78519">
        <ele>335</ele>
        <time>2022-09-05T09:18:44.000Z</time>
      </trkpt>
      <trkpt lat="49.85247" lon="4.78523">
        <ele>335</ele>
        <time>2022-09-05T09:18:45.000Z</time>
      </trkpt>
      <trkpt lat="49.85244" lon="4.78525">
        <ele>335</ele>
        <time>2022-09-05T09:18:46.000Z</time>
      </trkpt>
      <trkpt lat="49.85241" lon="4.78529">
        <ele>336</ele>
        <time>2022-09-05T09:18:47.000Z</time>
      </trkpt>
      <trkpt lat="49.85238" lon="4.78533">
        <ele>336</ele>
        <time>2022-09-05T09:18:48.000Z</time>
      </trkpt>
      <trkpt lat="49.85236" lon="4.78536">
        <ele>336</ele>
        <time>2022-09-05T09:18:49.000Z</time>
      </trkpt>
      <trkpt lat="49.85234" lon="4.7854">
        <ele>336</ele>
        <time>2022-09-05T09:18:50.000Z</time>
      </trkpt>
      <trkpt lat="49.85231" lon="4.78543">
        <ele>336</ele>
        <time>2022-09-05T09:18:51.000Z</time>
      </trkpt>
      <trkpt lat="49.85229" lon="4.78546">
        <ele>337</ele>
        <time>2022-09-05T09:18:52.000Z</time>
      </trkpt>
      <trkpt lat="49.85227" lon="4.7855">
        <ele>337</ele>
        <time>2022-09-05T09:18:53.000Z</time>
      </trkpt>
      <trkpt lat="49.85224" lon="4.78554">
        <ele>337</ele>
        <time>2022-09-05T09:18:54.000Z</time>
      </trkpt>
      <trkpt lat="49.85222" lon="4.78558">
        <ele>337</ele>
        <time>2022-09-05T09:18:55.000Z</time>
      </trkpt>
      <trkpt lat="49.85219" lon="4.78562">
        <ele>337</ele>
        <time>2022-09-05T09:18:56.000Z</time>
      </trkpt>
      <trkpt lat="49.85216" lon="4.78566">
        <ele>337</ele>
        <time>2022-09-05T09:18:57.000Z</time>
      </trkpt>
      <trkpt lat="49.85213" lon="4.7857">
        <ele>338</ele>
        <time>2022-09-05T09:18:58.000Z</time>
      </trkpt>
      <trkpt lat="49.8521" lon="4.78573">
        <ele>338</ele>
        <time>2022-09-05T09:18:59.000Z</time>
      </trkpt>
      <trkpt lat="49.85207" lon="4.78577">
        <ele>338</ele>
        <time>2022-09-05T09:19:00.000Z</time>
      </trkpt>
      <trkpt lat="49.85204" lon="4.78581">
        <ele>338</ele>
        <time>2022-09-05T09:19:01.000Z</time>
      </trkpt>
      <trkpt lat="49.85202" lon="4.78585">
        <ele>338</ele>
        <time>2022-09-05T09:19:02.000Z</time>
      </trkpt>
      <trkpt lat="49.85199" lon="4.7859">
        <ele>338</ele>
        <time>2022-09-05T09:19:03.000Z</time>
      </trkpt>
      <trkpt lat="49.85196" lon="4.78594">
        <ele>338</ele>
        <time>2022-09-05T09:19:04.000Z</time>
      </trkpt>
      <trkpt lat="49.85193" lon="4.78597">
        <ele>338</ele>
        <time>2022-09-05T09:19:05.000Z</time>
      </trkpt>
      <trkpt lat="49.8519" lon="4.78601">
        <ele>338</ele>
        <time>2022-09-05T09:19:06.000Z</time>
      </trkpt>
      <trkpt lat="49.85187" lon="4.78604">
        <ele>338</ele>
        <time>2022-09-05T09:19:07.000Z</time>
      </trkpt>
      <trkpt lat="49.85185" lon="4.78608">
        <ele>338</ele>
        <time>2022-09-05T09:19:08.000Z</time>
      </trkpt>
      <trkpt lat="49.85182" lon="4.78612">
        <ele>338</ele>
        <time>2022-09-05T09:19:09.000Z</time>
      </trkpt>
      <trkpt lat="49.85179" lon="4.78615">
        <ele>338</ele>
        <time>2022-09-05T09:19:10.000Z</time>
      </trkpt>
      <trkpt lat="49.85176" lon="4.78619">
        <ele>338</ele>
        <time>2022-09-05T09:19:11.000Z</time>
      </trkpt>
      <trkpt lat="49.85174" lon="4.78622">
        <ele>338</ele>
        <time>2022-09-05T09:19:12.000Z</time>
      </trkpt>
      <trkpt lat="49.85171" lon="4.78626">
        <ele>338</ele>
        <time>2022-09-05T09:19:13.000Z</time>
      </trkpt>
      <trkpt lat="49.85168" lon="4.78629">
        <ele>338</ele>
        <time>2022-09-05T09:19:14.000Z</time>
      </trkpt>
      <trkpt lat="49.85165" lon="4.78632">
        <ele>338</ele>
        <time>2022-09-05T09:19:15.000Z</time>
      </trkpt>
      <trkpt lat="49.85163" lon="4.78636">
        <ele>338</ele>
        <time>2022-09-05T09:19:16.000Z</time>
      </trkpt>
      <trkpt lat="49.8516" lon="4.78639">
        <ele>338</ele>
        <time>2022-09-05T09:19:17.000Z</time>
      </trkpt>
      <trkpt lat="49.85157" lon="4.78642">
        <ele>338</ele>
        <time>2022-09-05T09:19:18.000Z</time>
      </trkpt>
      <trkpt lat="49.85154" lon="4.78645">
        <ele>338</ele>
        <time>2022-09-05T09:19:19.000Z</time>
      </trkpt>
      <trkpt lat="49.85151" lon="4.78649">
        <ele>338</ele>
        <time>2022-09-05T09:19:20.000Z</time>
      </trkpt>
      <trkpt lat="49.85148" lon="4.78653">
        <ele>338</ele>
        <time>2022-09-05T09:19:21.000Z</time>
      </trkpt>
      <trkpt lat="49.85145" lon="4.78656">
        <ele>338</ele>
        <time>2022-09-05T09:19:22.000Z</time>
      </trkpt>
      <trkpt lat="49.85142" lon="4.7866">
        <ele>339</ele>
        <time>2022-09-05T09:19:23.000Z</time>
      </trkpt>
      <trkpt lat="49.85139" lon="4.78664">
        <ele>339</ele>
        <time>2022-09-05T09:19:24.000Z</time>
      </trkpt>
      <trkpt lat="49.85137" lon="4.78667">
        <ele>339</ele>
        <time>2022-09-05T09:19:25.000Z</time>
      </trkpt>
      <trkpt lat="49.85134" lon="4.78671">
        <ele>339</ele>
        <time>2022-09-05T09:19:26.000Z</time>
      </trkpt>
      <trkpt lat="49.85132" lon="4.78675">
        <ele>339</ele>
        <time>2022-09-05T09:19:27.000Z</time>
      </trkpt>
      <trkpt lat="49.85129" lon="4.78678">
        <ele>339</ele>
        <time>2022-09-05T09:19:28.000Z</time>
      </trkpt>
      <trkpt lat="49.85127" lon="4.78682">
        <ele>339</ele>
        <time>2022-09-05T09:19:29.000Z</time>
      </trkpt>
      <trkpt lat="49.85124" lon="4.78686">
        <ele>339</ele>
        <time>2022-09-05T09:19:30.000Z</time>
      </trkpt>
      <trkpt lat="49.85121" lon="4.78691">
        <ele>340</ele>
        <time>2022-09-05T09:19:31.000Z</time>
      </trkpt>
      <trkpt lat="49.85119" lon="4.78695">
        <ele>340</ele>
        <time>2022-09-05T09:19:32.000Z</time>
      </trkpt>
      <trkpt lat="49.85116" lon="4.787">
        <ele>340</ele>
        <time>2022-09-05T09:19:33.000Z</time>
      </trkpt>
      <trkpt lat="49.85114" lon="4.78704">
        <ele>340</ele>
        <time>2022-09-05T09:19:34.000Z</time>
      </trkpt>
      <trkpt lat="49.85112" lon="4.78708">
        <ele>340</ele>
        <time>2022-09-05T09:19:35.000Z</time>
      </trkpt>
      <trkpt lat="49.85109" lon="4.78711">
        <ele>340</ele>
        <time>2022-09-05T09:19:36.000Z</time>
      </trkpt>
      <trkpt lat="49.85107" lon="4.78714">
        <ele>340</ele>
        <time>2022-09-05T09:19:37.000Z</time>
      </trkpt>
      <trkpt lat="49.85105" lon="4.78717">
        <ele>340</ele>
        <time>2022-09-05T09:19:38.000Z</time>
      </trkpt>
      <trkpt lat="49.85102" lon="4.78721">
        <ele>340</ele>
        <time>2022-09-05T09:19:39.000Z</time>
      </trkpt>
      <trkpt lat="49.85099" lon="4.78725">
        <ele>340</ele>
        <time>2022-09-05T09:19:40.000Z</time>
      </trkpt>
      <trkpt lat="49.85096" lon="4.78728">
        <ele>340</ele>
        <time>2022-09-05T09:19:41.000Z</time>
      </trkpt>
      <trkpt lat="49.85094" lon="4.78732">
        <ele>340</ele>
        <time>2022-09-05T09:19:42.000Z</time>
      </trkpt>
      <trkpt lat="49.85092" lon="4.78736">
        <ele>340</ele>
        <time>2022-09-05T09:19:43.000Z</time>
      </trkpt>
      <trkpt lat="49.85088" lon="4.7874">
        <ele>341</ele>
        <time>2022-09-05T09:19:44.000Z</time>
      </trkpt>
      <trkpt lat="49.85085" lon="4.78744">
        <ele>341</ele>
        <time>2022-09-05T09:19:45.000Z</time>
      </trkpt>
      <trkpt lat="49.85082" lon="4.78748">
        <ele>341</ele>
        <time>2022-09-05T09:19:46.000Z</time>
      </trkpt>
      <trkpt lat="49.85079" lon="4.78752">
        <ele>341</ele>
        <time>2022-09-05T09:19:47.000Z</time>
      </trkpt>
      <trkpt lat="49.85076" lon="4.78756">
        <ele>341</ele>
        <time>2022-09-05T09:19:48.000Z</time>
      </trkpt>
      <trkpt lat="49.85073" lon="4.7876">
        <ele>341</ele>
        <time>2022-09-05T09:19:49.000Z</time>
      </trkpt>
      <trkpt lat="49.85071" lon="4.78765">
        <ele>341</ele>
        <time>2022-09-05T09:19:50.000Z</time>
      </trkpt>
      <trkpt lat="49.85069" lon="4.78769">
        <ele>341</ele>
        <time>2022-09-05T09:19:51.000Z</time>
      </trkpt>
      <trkpt lat="49.85067" lon="4.78773">
        <ele>341</ele>
        <time>2022-09-05T09:19:52.000Z</time>
      </trkpt>
      <trkpt lat="49.85064" lon="4.78778">
        <ele>341</ele>
        <time>2022-09-05T09:19:53.000Z</time>
      </trkpt>
      <trkpt lat="49.85061" lon="4.78783">
        <ele>341</ele>
        <time>2022-09-05T09:19:54.000Z</time>
      </trkpt>
      <trkpt lat="49.85059" lon="4.78789">
        <ele>341</ele>
        <time>2022-09-05T09:19:55.000Z</time>
      </trkpt>
      <trkpt lat="49.85057" lon="4.78795">
        <ele>341</ele>
        <time>2022-09-05T09:19:56.000Z</time>
      </trkpt>
      <trkpt lat="49.85055" lon="4.78801">
        <ele>341</ele>
        <time>2022-09-05T09:19:57.000Z</time>
      </trkpt>
      <trkpt lat="49.85053" lon="4.78806">
        <ele>341</ele>
        <time>2022-09-05T09:19:58.000Z</time>
      </trkpt>
      <trkpt lat="49.85051" lon="4.78812">
        <ele>341</ele>
        <time>2022-09-05T09:19:59.000Z</time>
      </trkpt>
      <trkpt lat="49.85048" lon="4.78817">
        <ele>342</ele>
        <time>2022-09-05T09:20:00.000Z</time>
      </trkpt>
      <trkpt lat="49.85045" lon="4.78822">
        <ele>342</ele>
        <time>2022-09-05T09:20:01.000Z</time>
      </trkpt>
      <trkpt lat="49.85042" lon="4.78827">
        <ele>342</ele>
        <time>2022-09-05T09:20:02.000Z</time>
      </trkpt>
      <trkpt lat="49.85038" lon="4.78831">
        <ele>342</ele>
        <time>2022-09-05T09:20:03.000Z</time>
      </trkpt>
      <trkpt lat="49.85035" lon="4.78835">
        <ele>342</ele>
        <time>2022-09-05T09:20:04.000Z</time>
      </trkpt>
      <trkpt lat="49.85033" lon="4.78839">
        <ele>342</ele>
        <time>2022-09-05T09:20:05.000Z</time>
      </trkpt>
      <trkpt lat="49.85029" lon="4.78842">
        <ele>342</ele>
        <time>2022-09-05T09:20:06.000Z</time>
      </trkpt>
      <trkpt lat="49.85027" lon="4.78845">
        <ele>342</ele>
        <time>2022-09-05T09:20:07.000Z</time>
      </trkpt>
      <trkpt lat="49.85023" lon="4.78849">
        <ele>342</ele>
        <time>2022-09-05T09:20:08.000Z</time>
      </trkpt>
      <trkpt lat="49.8502" lon="4.78853">
        <ele>342</ele>
        <time>2022-09-05T09:20:09.000Z</time>
      </trkpt>
      <trkpt lat="49.85017" lon="4.78857">
        <ele>342</ele>
        <time>2022-09-05T09:20:10.000Z</time>
      </trkpt>
      <trkpt lat="49.85014" lon="4.78862">
        <ele>342</ele>
        <time>2022-09-05T09:20:11.000Z</time>
      </trkpt>
      <trkpt lat="49.85011" lon="4.78867">
        <ele>342</ele>
        <time>2022-09-05T09:20:12.000Z</time>
      </trkpt>
      <trkpt lat="49.85007" lon="4.78872">
        <ele>342</ele>
        <time>2022-09-05T09:20:13.000Z</time>
      </trkpt>
      <trkpt lat="49.85003" lon="4.78877">
        <ele>342</ele>
        <time>2022-09-05T09:20:14.000Z</time>
      </trkpt>
      <trkpt lat="49.84999" lon="4.78881">
        <ele>342</ele>
        <time>2022-09-05T09:20:15.000Z</time>
      </trkpt>
      <trkpt lat="49.84996" lon="4.78886">
        <ele>342</ele>
        <time>2022-09-05T09:20:16.000Z</time>
      </trkpt>
      <trkpt lat="49.84992" lon="4.7889">
        <ele>343</ele>
        <time>2022-09-05T09:20:17.000Z</time>
      </trkpt>
      <trkpt lat="49.84988" lon="4.78894">
        <ele>343</ele>
        <time>2022-09-05T09:20:18.000Z</time>
      </trkpt>
      <trkpt lat="49.84985" lon="4.78899">
        <ele>343</ele>
        <time>2022-09-05T09:20:19.000Z</time>
      </trkpt>
      <trkpt lat="49.84981" lon="4.78902">
        <ele>343</ele>
        <time>2022-09-05T09:20:20.000Z</time>
      </trkpt>
      <trkpt lat="49.84978" lon="4.78907">
        <ele>343</ele>
        <time>2022-09-05T09:20:21.000Z</time>
      </trkpt>
      <trkpt lat="49.84975" lon="4.78911">
        <ele>343</ele>
        <time>2022-09-05T09:20:22.000Z</time>
      </trkpt>
      <trkpt lat="49.84973" lon="4.78914">
        <ele>343</ele>
        <time>2022-09-05T09:20:23.000Z</time>
      </trkpt>
      <trkpt lat="49.8497" lon="4.78918">
        <ele>343</ele>
        <time>2022-09-05T09:20:24.000Z</time>
      </trkpt>
      <trkpt lat="49.84968" lon="4.78921">
        <ele>343</ele>
        <time>2022-09-05T09:20:25.000Z</time>
      </trkpt>
      <trkpt lat="49.84966" lon="4.78925">
        <ele>343</ele>
        <time>2022-09-05T09:20:26.000Z</time>
      </trkpt>
      <trkpt lat="49.84965" lon="4.78928">
        <ele>343</ele>
        <time>2022-09-05T09:20:27.000Z</time>
      </trkpt>
      <trkpt lat="49.84962" lon="4.78932">
        <ele>344</ele>
        <time>2022-09-05T09:20:28.000Z</time>
      </trkpt>
      <trkpt lat="49.8496" lon="4.78935">
        <ele>344</ele>
        <time>2022-09-05T09:20:29.000Z</time>
      </trkpt>
      <trkpt lat="49.84958" lon="4.78938">
        <ele>344</ele>
        <time>2022-09-05T09:20:30.000Z</time>
      </trkpt>
      <trkpt lat="49.84955" lon="4.78941">
        <ele>344</ele>
        <time>2022-09-05T09:20:31.000Z</time>
      </trkpt>
      <trkpt lat="49.84953" lon="4.78946">
        <ele>345</ele>
        <time>2022-09-05T09:20:32.000Z</time>
      </trkpt>
      <trkpt lat="49.84952" lon="4.7895">
        <ele>345</ele>
        <time>2022-09-05T09:20:33.000Z</time>
      </trkpt>
      <trkpt lat="49.84951" lon="4.78955">
        <ele>345</ele>
        <time>2022-09-05T09:20:34.000Z</time>
      </trkpt>
      <trkpt lat="49.84951" lon="4.7896">
        <ele>345</ele>
        <time>2022-09-05T09:20:35.000Z</time>
      </trkpt>
      <trkpt lat="49.84951" lon="4.78965">
        <ele>345</ele>
        <time>2022-09-05T09:20:36.000Z</time>
      </trkpt>
      <trkpt lat="49.84949" lon="4.7897">
        <ele>345</ele>
        <time>2022-09-05T09:20:37.000Z</time>
      </trkpt>
      <trkpt lat="49.84947" lon="4.78974">
        <ele>346</ele>
        <time>2022-09-05T09:20:38.000Z</time>
      </trkpt>
      <trkpt lat="49.84944" lon="4.78978">
        <ele>346</ele>
        <time>2022-09-05T09:20:39.000Z</time>
      </trkpt>
      <trkpt lat="49.84942" lon="4.78981">
        <ele>346</ele>
        <time>2022-09-05T09:20:40.000Z</time>
      </trkpt>
      <trkpt lat="49.8494" lon="4.78984">
        <ele>346</ele>
        <time>2022-09-05T09:20:41.000Z</time>
      </trkpt>
      <trkpt lat="49.8494" lon="4.78987">
        <ele>346</ele>
        <time>2022-09-05T09:20:42.000Z</time>
      </trkpt>
      <trkpt lat="49.84939" lon="4.78991">
        <ele>346</ele>
        <time>2022-09-05T09:20:43.000Z</time>
      </trkpt>
      <trkpt lat="49.8494" lon="4.78994">
        <ele>346</ele>
        <time>2022-09-05T09:20:44.000Z</time>
      </trkpt>
      <trkpt lat="49.8494" lon="4.78998">
        <ele>347</ele>
        <time>2022-09-05T09:20:45.000Z</time>
      </trkpt>
      <trkpt lat="49.84939" lon="4.79002">
        <ele>347</ele>
        <time>2022-09-05T09:20:46.000Z</time>
      </trkpt>
      <trkpt lat="49.84938" lon="4.79006">
        <ele>347</ele>
        <time>2022-09-05T09:20:47.000Z</time>
      </trkpt>
      <trkpt lat="49.84936" lon="4.79009">
        <ele>347</ele>
        <time>2022-09-05T09:20:48.000Z</time>
      </trkpt>
      <trkpt lat="49.84935" lon="4.79011">
        <ele>347</ele>
        <time>2022-09-05T09:20:49.000Z</time>
      </trkpt>
      <trkpt lat="49.84932" lon="4.79014">
        <ele>347</ele>
        <time>2022-09-05T09:20:50.000Z</time>
      </trkpt>
      <trkpt lat="49.8493" lon="4.79017">
        <ele>347</ele>
        <time>2022-09-05T09:20:51.000Z</time>
      </trkpt>
      <trkpt lat="49.84929" lon="4.79022">
        <ele>347</ele>
        <time>2022-09-05T09:20:52.000Z</time>
      </trkpt>
      <trkpt lat="49.84927" lon="4.79027">
        <ele>347</ele>
        <time>2022-09-05T09:20:53.000Z</time>
      </trkpt>
      <trkpt lat="49.84926" lon="4.79032">
        <ele>347</ele>
        <time>2022-09-05T09:20:54.000Z</time>
      </trkpt>
      <trkpt lat="49.84925" lon="4.79037">
        <ele>348</ele>
        <time>2022-09-05T09:20:55.000Z</time>
      </trkpt>
      <trkpt lat="49.84924" lon="4.79042">
        <ele>348</ele>
        <time>2022-09-05T09:20:56.000Z</time>
      </trkpt>
      <trkpt lat="49.84923" lon="4.79047">
        <ele>348</ele>
        <time>2022-09-05T09:20:57.000Z</time>
      </trkpt>
      <trkpt lat="49.84921" lon="4.79052">
        <ele>348</ele>
        <time>2022-09-05T09:20:58.000Z</time>
      </trkpt>
      <trkpt lat="49.8492" lon="4.79058">
        <ele>348</ele>
        <time>2022-09-05T09:20:59.000Z</time>
      </trkpt>
      <trkpt lat="49.84918" lon="4.79063">
        <ele>348</ele>
        <time>2022-09-05T09:21:00.000Z</time>
      </trkpt>
      <trkpt lat="49.84917" lon="4.79068">
        <ele>348</ele>
        <time>2022-09-05T09:21:01.000Z</time>
      </trkpt>
      <trkpt lat="49.84916" lon="4.79073">
        <ele>349</ele>
        <time>2022-09-05T09:21:02.000Z</time>
      </trkpt>
      <trkpt lat="49.84915" lon="4.79078">
        <ele>349</ele>
        <time>2022-09-05T09:21:03.000Z</time>
      </trkpt>
      <trkpt lat="49.84915" lon="4.79082">
        <ele>349</ele>
        <time>2022-09-05T09:21:04.000Z</time>
      </trkpt>
      <trkpt lat="49.84914" lon="4.79086">
        <ele>349</ele>
        <time>2022-09-05T09:21:05.000Z</time>
      </trkpt>
      <trkpt lat="49.84913" lon="4.79091">
        <ele>349</ele>
        <time>2022-09-05T09:21:06.000Z</time>
      </trkpt>
      <trkpt lat="49.84912" lon="4.79095">
        <ele>349</ele>
        <time>2022-09-05T09:21:07.000Z</time>
      </trkpt>
      <trkpt lat="49.84911" lon="4.791">
        <ele>349</ele>
        <time>2022-09-05T09:21:08.000Z</time>
      </trkpt>
      <trkpt lat="49.84909" lon="4.79104">
        <ele>349</ele>
        <time>2022-09-05T09:21:09.000Z</time>
      </trkpt>
      <trkpt lat="49.84908" lon="4.79108">
        <ele>349</ele>
        <time>2022-09-05T09:21:10.000Z</time>
      </trkpt>
      <trkpt lat="49.84907" lon="4.79113">
        <ele>349</ele>
        <time>2022-09-05T09:21:11.000Z</time>
      </trkpt>
      <trkpt lat="49.84906" lon="4.79117">
        <ele>349</ele>
        <time>2022-09-05T09:21:12.000Z</time>
      </trkpt>
      <trkpt lat="49.84905" lon="4.79122">
        <ele>349</ele>
        <time>2022-09-05T09:21:13.000Z</time>
      </trkpt>
      <trkpt lat="49.84904" lon="4.79127">
        <ele>349</ele>
        <time>2022-09-05T09:21:14.000Z</time>
      </trkpt>
      <trkpt lat="49.84904" lon="4.79131">
        <ele>349</ele>
        <time>2022-09-05T09:21:15.000Z</time>
      </trkpt>
      <trkpt lat="49.84903" lon="4.79137">
        <ele>350</ele>
        <time>2022-09-05T09:21:16.000Z</time>
      </trkpt>
      <trkpt lat="49.84902" lon="4.79143">
        <ele>350</ele>
        <time>2022-09-05T09:21:17.000Z</time>
      </trkpt>
      <trkpt lat="49.849" lon="4.79148">
        <ele>350</ele>
        <time>2022-09-05T09:21:18.000Z</time>
      </trkpt>
      <trkpt lat="49.84899" lon="4.79153">
        <ele>350</ele>
        <time>2022-09-05T09:21:19.000Z</time>
      </trkpt>
      <trkpt lat="49.84898" lon="4.79158">
        <ele>350</ele>
        <time>2022-09-05T09:21:20.000Z</time>
      </trkpt>
      <trkpt lat="49.84897" lon="4.79163">
        <ele>350</ele>
        <time>2022-09-05T09:21:21.000Z</time>
      </trkpt>
      <trkpt lat="49.84896" lon="4.79169">
        <ele>350</ele>
        <time>2022-09-05T09:21:22.000Z</time>
      </trkpt>
      <trkpt lat="49.84895" lon="4.79173">
        <ele>350</ele>
        <time>2022-09-05T09:21:23.000Z</time>
      </trkpt>
      <trkpt lat="49.84895" lon="4.79179">
        <ele>350</ele>
        <time>2022-09-05T09:21:24.000Z</time>
      </trkpt>
      <trkpt lat="49.84895" lon="4.79183">
        <ele>350</ele>
        <time>2022-09-05T09:21:25.000Z</time>
      </trkpt>
      <trkpt lat="49.84894" lon="4.79189">
        <ele>350</ele>
        <time>2022-09-05T09:21:26.000Z</time>
      </trkpt>
      <trkpt lat="49.84893" lon="4.79194">
        <ele>350</ele>
        <time>2022-09-05T09:21:27.000Z</time>
      </trkpt>
      <trkpt lat="49.84892" lon="4.792">
        <ele>350</ele>
        <time>2022-09-05T09:21:28.000Z</time>
      </trkpt>
      <trkpt lat="49.84892" lon="4.79206">
        <ele>350</ele>
        <time>2022-09-05T09:21:29.000Z</time>
      </trkpt>
      <trkpt lat="49.84893" lon="4.79211">
        <ele>350</ele>
        <time>2022-09-05T09:21:30.000Z</time>
      </trkpt>
      <trkpt lat="49.84893" lon="4.79217">
        <ele>350</ele>
        <time>2022-09-05T09:21:31.000Z</time>
      </trkpt>
      <trkpt lat="49.84892" lon="4.79223">
        <ele>350</ele>
        <time>2022-09-05T09:21:32.000Z</time>
      </trkpt>
      <trkpt lat="49.8489" lon="4.79228">
        <ele>350</ele>
        <time>2022-09-05T09:21:33.000Z</time>
      </trkpt>
      <trkpt lat="49.84889" lon="4.79234">
        <ele>350</ele>
        <time>2022-09-05T09:21:34.000Z</time>
      </trkpt>
      <trkpt lat="49.84888" lon="4.7924">
        <ele>350</ele>
        <time>2022-09-05T09:21:35.000Z</time>
      </trkpt>
      <trkpt lat="49.84888" lon="4.79246">
        <ele>350</ele>
        <time>2022-09-05T09:21:36.000Z</time>
      </trkpt>
      <trkpt lat="49.84888" lon="4.79252">
        <ele>350</ele>
        <time>2022-09-05T09:21:37.000Z</time>
      </trkpt>
      <trkpt lat="49.84887" lon="4.79259">
        <ele>350</ele>
        <time>2022-09-05T09:21:38.000Z</time>
      </trkpt>
      <trkpt lat="49.84886" lon="4.79264">
        <ele>350</ele>
        <time>2022-09-05T09:21:39.000Z</time>
      </trkpt>
      <trkpt lat="49.84886" lon="4.79271">
        <ele>350</ele>
        <time>2022-09-05T09:21:40.000Z</time>
      </trkpt>
      <trkpt lat="49.84885" lon="4.79276">
        <ele>350</ele>
        <time>2022-09-05T09:21:41.000Z</time>
      </trkpt>
      <trkpt lat="49.84885" lon="4.79282">
        <ele>350</ele>
        <time>2022-09-05T09:21:42.000Z</time>
      </trkpt>
      <trkpt lat="49.84884" lon="4.79289">
        <ele>350</ele>
        <time>2022-09-05T09:21:43.000Z</time>
      </trkpt>
      <trkpt lat="49.84883" lon="4.79295">
        <ele>350</ele>
        <time>2022-09-05T09:21:44.000Z</time>
      </trkpt>
      <trkpt lat="49.84883" lon="4.79301">
        <ele>350</ele>
        <time>2022-09-05T09:21:45.000Z</time>
      </trkpt>
      <trkpt lat="49.84881" lon="4.79307">
        <ele>350</ele>
        <time>2022-09-05T09:21:46.000Z</time>
      </trkpt>
      <trkpt lat="49.8488" lon="4.79314">
        <ele>350</ele>
        <time>2022-09-05T09:21:47.000Z</time>
      </trkpt>
      <trkpt lat="49.84879" lon="4.7932">
        <ele>350</ele>
        <time>2022-09-05T09:21:48.000Z</time>
      </trkpt>
      <trkpt lat="49.84878" lon="4.79326">
        <ele>350</ele>
        <time>2022-09-05T09:21:49.000Z</time>
      </trkpt>
      <trkpt lat="49.84877" lon="4.79333">
        <ele>350</ele>
        <time>2022-09-05T09:21:50.000Z</time>
      </trkpt>
      <trkpt lat="49.84876" lon="4.79339">
        <ele>350</ele>
        <time>2022-09-05T09:21:51.000Z</time>
      </trkpt>
      <trkpt lat="49.84876" lon="4.79345">
        <ele>350</ele>
        <time>2022-09-05T09:21:52.000Z</time>
      </trkpt>
      <trkpt lat="49.84877" lon="4.7935">
        <ele>350</ele>
        <time>2022-09-05T09:21:53.000Z</time>
      </trkpt>
      <trkpt lat="49.84878" lon="4.79356">
        <ele>349</ele>
        <time>2022-09-05T09:21:54.000Z</time>
      </trkpt>
      <trkpt lat="49.84878" lon="4.79362">
        <ele>349</ele>
        <time>2022-09-05T09:21:55.000Z</time>
      </trkpt>
      <trkpt lat="49.84877" lon="4.79369">
        <ele>349</ele>
        <time>2022-09-05T09:21:56.000Z</time>
      </trkpt>
      <trkpt lat="49.84876" lon="4.79375">
        <ele>349</ele>
        <time>2022-09-05T09:21:57.000Z</time>
      </trkpt>
      <trkpt lat="49.84873" lon="4.7938">
        <ele>349</ele>
        <time>2022-09-05T09:21:58.000Z</time>
      </trkpt>
      <trkpt lat="49.84871" lon="4.79385">
        <ele>349</ele>
        <time>2022-09-05T09:21:59.000Z</time>
      </trkpt>
      <trkpt lat="49.84869" lon="4.7939">
        <ele>349</ele>
        <time>2022-09-05T09:22:00.000Z</time>
      </trkpt>
      <trkpt lat="49.84867" lon="4.79396">
        <ele>349</ele>
        <time>2022-09-05T09:22:01.000Z</time>
      </trkpt>
      <trkpt lat="49.84866" lon="4.79401">
        <ele>349</ele>
        <time>2022-09-05T09:22:02.000Z</time>
      </trkpt>
      <trkpt lat="49.84865" lon="4.79407">
        <ele>349</ele>
        <time>2022-09-05T09:22:03.000Z</time>
      </trkpt>
      <trkpt lat="49.84864" lon="4.79412">
        <ele>349</ele>
        <time>2022-09-05T09:22:04.000Z</time>
      </trkpt>
      <trkpt lat="49.84862" lon="4.79417">
        <ele>349</ele>
        <time>2022-09-05T09:22:05.000Z</time>
      </trkpt>
      <trkpt lat="49.84861" lon="4.79422">
        <ele>349</ele>
        <time>2022-09-05T09:22:06.000Z</time>
      </trkpt>
      <trkpt lat="49.8486" lon="4.79427">
        <ele>349</ele>
        <time>2022-09-05T09:22:07.000Z</time>
      </trkpt>
      <trkpt lat="49.84858" lon="4.79432">
        <ele>350</ele>
        <time>2022-09-05T09:22:08.000Z</time>
      </trkpt>
      <trkpt lat="49.84857" lon="4.79438">
        <ele>350</ele>
        <time>2022-09-05T09:22:09.000Z</time>
      </trkpt>
      <trkpt lat="49.84855" lon="4.79443">
        <ele>350</ele>
        <time>2022-09-05T09:22:10.000Z</time>
      </trkpt>
      <trkpt lat="49.84853" lon="4.79449">
        <ele>350</ele>
        <time>2022-09-05T09:22:11.000Z</time>
      </trkpt>
      <trkpt lat="49.84851" lon="4.79455">
        <ele>350</ele>
        <time>2022-09-05T09:22:12.000Z</time>
      </trkpt>
      <trkpt lat="49.8485" lon="4.79461">
        <ele>350</ele>
        <time>2022-09-05T09:22:13.000Z</time>
      </trkpt>
      <trkpt lat="49.84848" lon="4.79467">
        <ele>350</ele>
        <time>2022-09-05T09:22:14.000Z</time>
      </trkpt>
      <trkpt lat="49.84846" lon="4.79473">
        <ele>351</ele>
        <time>2022-09-05T09:22:15.000Z</time>
      </trkpt>
      <trkpt lat="49.84844" lon="4.79479">
        <ele>351</ele>
        <time>2022-09-05T09:22:16.000Z</time>
      </trkpt>
      <trkpt lat="49.84841" lon="4.79484">
        <ele>351</ele>
        <time>2022-09-05T09:22:17.000Z</time>
      </trkpt>
      <trkpt lat="49.84838" lon="4.7949">
        <ele>351</ele>
        <time>2022-09-05T09:22:18.000Z</time>
      </trkpt>
      <trkpt lat="49.84835" lon="4.79495">
        <ele>352</ele>
        <time>2022-09-05T09:22:19.000Z</time>
      </trkpt>
      <trkpt lat="49.84833" lon="4.795">
        <ele>352</ele>
        <time>2022-09-05T09:22:20.000Z</time>
      </trkpt>
      <trkpt lat="49.8483" lon="4.79504">
        <ele>352</ele>
        <time>2022-09-05T09:22:21.000Z</time>
      </trkpt>
      <trkpt lat="49.84829" lon="4.79508">
        <ele>352</ele>
        <time>2022-09-05T09:22:22.000Z</time>
      </trkpt>
      <trkpt lat="49.84827" lon="4.79512">
        <ele>352</ele>
        <time>2022-09-05T09:22:23.000Z</time>
      </trkpt>
      <trkpt lat="49.84825" lon="4.79515">
        <ele>352</ele>
        <time>2022-09-05T09:22:24.000Z</time>
      </trkpt>
      <trkpt lat="49.84823" lon="4.79519">
        <ele>352</ele>
        <time>2022-09-05T09:22:25.000Z</time>
      </trkpt>
      <trkpt lat="49.84821" lon="4.79524">
        <ele>353</ele>
        <time>2022-09-05T09:22:26.000Z</time>
      </trkpt>
      <trkpt lat="49.8482" lon="4.79528">
        <ele>353</ele>
        <time>2022-09-05T09:22:27.000Z</time>
      </trkpt>
      <trkpt lat="49.84818" lon="4.79533">
        <ele>353</ele>
        <time>2022-09-05T09:22:28.000Z</time>
      </trkpt>
      <trkpt lat="49.84816" lon="4.79537">
        <ele>354</ele>
        <time>2022-09-05T09:22:29.000Z</time>
      </trkpt>
      <trkpt lat="49.84814" lon="4.7954">
        <ele>354</ele>
        <time>2022-09-05T09:22:30.000Z</time>
      </trkpt>
      <trkpt lat="49.84812" lon="4.79543">
        <ele>354</ele>
        <time>2022-09-05T09:22:31.000Z</time>
      </trkpt>
      <trkpt lat="49.8481" lon="4.79547">
        <ele>355</ele>
        <time>2022-09-05T09:22:32.000Z</time>
      </trkpt>
      <trkpt lat="49.84809" lon="4.7955">
        <ele>355</ele>
        <time>2022-09-05T09:22:33.000Z</time>
      </trkpt>
      <trkpt lat="49.84808" lon="4.79553">
        <ele>355</ele>
        <time>2022-09-05T09:22:34.000Z</time>
      </trkpt>
      <trkpt lat="49.84807" lon="4.79557">
        <ele>356</ele>
        <time>2022-09-05T09:22:35.000Z</time>
      </trkpt>
      <trkpt lat="49.84806" lon="4.79561">
        <ele>356</ele>
        <time>2022-09-05T09:22:36.000Z</time>
      </trkpt>
      <trkpt lat="49.84805" lon="4.79565">
        <ele>356</ele>
        <time>2022-09-05T09:22:37.000Z</time>
      </trkpt>
      <trkpt lat="49.84804" lon="4.79568">
        <ele>357</ele>
        <time>2022-09-05T09:22:38.000Z</time>
      </trkpt>
      <trkpt lat="49.84803" lon="4.79573">
        <ele>357</ele>
        <time>2022-09-05T09:22:39.000Z</time>
      </trkpt>
      <trkpt lat="49.84803" lon="4.79577">
        <ele>357</ele>
        <time>2022-09-05T09:22:40.000Z</time>
      </trkpt>
      <trkpt lat="49.84802" lon="4.79581">
        <ele>358</ele>
        <time>2022-09-05T09:22:41.000Z</time>
      </trkpt>
      <trkpt lat="49.84802" lon="4.79585">
        <ele>358</ele>
        <time>2022-09-05T09:22:42.000Z</time>
      </trkpt>
      <trkpt lat="49.84803" lon="4.7959">
        <ele>358</ele>
        <time>2022-09-05T09:22:43.000Z</time>
      </trkpt>
      <trkpt lat="49.84804" lon="4.79594">
        <ele>358</ele>
        <time>2022-09-05T09:22:44.000Z</time>
      </trkpt>
      <trkpt lat="49.84805" lon="4.79599">
        <ele>358</ele>
        <time>2022-09-05T09:22:45.000Z</time>
      </trkpt>
      <trkpt lat="49.84805" lon="4.79604">
        <ele>358</ele>
        <time>2022-09-05T09:22:46.000Z</time>
      </trkpt>
      <trkpt lat="49.84806" lon="4.79608">
        <ele>358</ele>
        <time>2022-09-05T09:22:47.000Z</time>
      </trkpt>
      <trkpt lat="49.84805" lon="4.79613">
        <ele>358</ele>
        <time>2022-09-05T09:22:48.000Z</time>
      </trkpt>
      <trkpt lat="49.84805" lon="4.79618">
        <ele>358</ele>
        <time>2022-09-05T09:22:49.000Z</time>
      </trkpt>
      <trkpt lat="49.84805" lon="4.79622">
        <ele>358</ele>
        <time>2022-09-05T09:22:50.000Z</time>
      </trkpt>
      <trkpt lat="49.84805" lon="4.79626">
        <ele>358</ele>
        <time>2022-09-05T09:22:51.000Z</time>
      </trkpt>
      <trkpt lat="49.84806" lon="4.7963">
        <ele>358</ele>
        <time>2022-09-05T09:22:52.000Z</time>
      </trkpt>
      <trkpt lat="49.84806" lon="4.79634">
        <ele>358</ele>
        <time>2022-09-05T09:22:53.000Z</time>
      </trkpt>
      <trkpt lat="49.84807" lon="4.79638">
        <ele>358</ele>
        <time>2022-09-05T09:22:54.000Z</time>
      </trkpt>
      <trkpt lat="49.84808" lon="4.79642">
        <ele>358</ele>
        <time>2022-09-05T09:22:55.000Z</time>
      </trkpt>
      <trkpt lat="49.84809" lon="4.79646">
        <ele>358</ele>
        <time>2022-09-05T09:22:56.000Z</time>
      </trkpt>
      <trkpt lat="49.84809" lon="4.7965">
        <ele>358</ele>
        <time>2022-09-05T09:22:57.000Z</time>
      </trkpt>
      <trkpt lat="49.84809" lon="4.79655">
        <ele>358</ele>
        <time>2022-09-05T09:22:58.000Z</time>
      </trkpt>
      <trkpt lat="49.84809" lon="4.79659">
        <ele>359</ele>
        <time>2022-09-05T09:22:59.000Z</time>
      </trkpt>
      <trkpt lat="49.84809" lon="4.79664">
        <ele>359</ele>
        <time>2022-09-05T09:23:00.000Z</time>
      </trkpt>
      <trkpt lat="49.84809" lon="4.79669">
        <ele>359</ele>
        <time>2022-09-05T09:23:01.000Z</time>
      </trkpt>
      <trkpt lat="49.8481" lon="4.79672">
        <ele>359</ele>
        <time>2022-09-05T09:23:02.000Z</time>
      </trkpt>
      <trkpt lat="49.8481" lon="4.79676">
        <ele>359</ele>
        <time>2022-09-05T09:23:03.000Z</time>
      </trkpt>
      <trkpt lat="49.8481" lon="4.7968">
        <ele>359</ele>
        <time>2022-09-05T09:23:04.000Z</time>
      </trkpt>
      <trkpt lat="49.8481" lon="4.79685">
        <ele>359</ele>
        <time>2022-09-05T09:23:05.000Z</time>
      </trkpt>
      <trkpt lat="49.8481" lon="4.79689">
        <ele>359</ele>
        <time>2022-09-05T09:23:06.000Z</time>
      </trkpt>
      <trkpt lat="49.8481" lon="4.79693">
        <ele>359</ele>
        <time>2022-09-05T09:23:07.000Z</time>
      </trkpt>
      <trkpt lat="49.84809" lon="4.79697">
        <ele>359</ele>
        <time>2022-09-05T09:23:08.000Z</time>
      </trkpt>
      <trkpt lat="49.8481" lon="4.79701">
        <ele>360</ele>
        <time>2022-09-05T09:23:09.000Z</time>
      </trkpt>
      <trkpt lat="49.8481" lon="4.79705">
        <ele>360</ele>
        <time>2022-09-05T09:23:10.000Z</time>
      </trkpt>
      <trkpt lat="49.8481" lon="4.7971">
        <ele>360</ele>
        <time>2022-09-05T09:23:11.000Z</time>
      </trkpt>
      <trkpt lat="49.8481" lon="4.79714">
        <ele>360</ele>
        <time>2022-09-05T09:23:12.000Z</time>
      </trkpt>
      <trkpt lat="49.84811" lon="4.79719">
        <ele>360</ele>
        <time>2022-09-05T09:23:13.000Z</time>
      </trkpt>
      <trkpt lat="49.84811" lon="4.79724">
        <ele>360</ele>
        <time>2022-09-05T09:23:14.000Z</time>
      </trkpt>
      <trkpt lat="49.84811" lon="4.79729">
        <ele>361</ele>
        <time>2022-09-05T09:23:15.000Z</time>
      </trkpt>
      <trkpt lat="49.84812" lon="4.79733">
        <ele>361</ele>
        <time>2022-09-05T09:23:16.000Z</time>
      </trkpt>
      <trkpt lat="49.84812" lon="4.79739">
        <ele>361</ele>
        <time>2022-09-05T09:23:17.000Z</time>
      </trkpt>
      <trkpt lat="49.84813" lon="4.79744">
        <ele>361</ele>
        <time>2022-09-05T09:23:18.000Z</time>
      </trkpt>
      <trkpt lat="49.84813" lon="4.79749">
        <ele>361</ele>
        <time>2022-09-05T09:23:19.000Z</time>
      </trkpt>
      <trkpt lat="49.84813" lon="4.79755">
        <ele>361</ele>
        <time>2022-09-05T09:23:20.000Z</time>
      </trkpt>
      <trkpt lat="49.84814" lon="4.7976">
        <ele>362</ele>
        <time>2022-09-05T09:23:21.000Z</time>
      </trkpt>
      <trkpt lat="49.84814" lon="4.79765">
        <ele>362</ele>
        <time>2022-09-05T09:23:22.000Z</time>
      </trkpt>
      <trkpt lat="49.84814" lon="4.7977">
        <ele>362</ele>
        <time>2022-09-05T09:23:23.000Z</time>
      </trkpt>
      <trkpt lat="49.84814" lon="4.79774">
        <ele>362</ele>
        <time>2022-09-05T09:23:24.000Z</time>
      </trkpt>
      <trkpt lat="49.84814" lon="4.79779">
        <ele>362</ele>
        <time>2022-09-05T09:23:25.000Z</time>
      </trkpt>
      <trkpt lat="49.84815" lon="4.79783">
        <ele>362</ele>
        <time>2022-09-05T09:23:26.000Z</time>
      </trkpt>
      <trkpt lat="49.84816" lon="4.79787">
        <ele>362</ele>
        <time>2022-09-05T09:23:27.000Z</time>
      </trkpt>
      <trkpt lat="49.84816" lon="4.79791">
        <ele>362</ele>
        <time>2022-09-05T09:23:28.000Z</time>
      </trkpt>
      <trkpt lat="49.84817" lon="4.79795">
        <ele>362</ele>
        <time>2022-09-05T09:23:29.000Z</time>
      </trkpt>
      <trkpt lat="49.84818" lon="4.79799">
        <ele>362</ele>
        <time>2022-09-05T09:23:30.000Z</time>
      </trkpt>
      <trkpt lat="49.84818" lon="4.79803">
        <ele>363</ele>
        <time>2022-09-05T09:23:31.000Z</time>
      </trkpt>
      <trkpt lat="49.84818" lon="4.79806">
        <ele>363</ele>
        <time>2022-09-05T09:23:32.000Z</time>
      </trkpt>
      <trkpt lat="49.84819" lon="4.7981">
        <ele>363</ele>
        <time>2022-09-05T09:23:33.000Z</time>
      </trkpt>
      <trkpt lat="49.84819" lon="4.79814">
        <ele>363</ele>
        <time>2022-09-05T09:23:34.000Z</time>
      </trkpt>
      <trkpt lat="49.84819" lon="4.79818">
        <ele>363</ele>
        <time>2022-09-05T09:23:35.000Z</time>
      </trkpt>
      <trkpt lat="49.84819" lon="4.79822">
        <ele>363</ele>
        <time>2022-09-05T09:23:36.000Z</time>
      </trkpt>
      <trkpt lat="49.8482" lon="4.79826">
        <ele>363</ele>
        <time>2022-09-05T09:23:37.000Z</time>
      </trkpt>
      <trkpt lat="49.8482" lon="4.79829">
        <ele>364</ele>
        <time>2022-09-05T09:23:38.000Z</time>
      </trkpt>
      <trkpt lat="49.8482" lon="4.79832">
        <ele>364</ele>
        <time>2022-09-05T09:23:39.000Z</time>
      </trkpt>
      <trkpt lat="49.84821" lon="4.79836">
        <ele>364</ele>
        <time>2022-09-05T09:23:40.000Z</time>
      </trkpt>
      <trkpt lat="49.84821" lon="4.7984">
        <ele>364</ele>
        <time>2022-09-05T09:23:41.000Z</time>
      </trkpt>
      <trkpt lat="49.84822" lon="4.79845">
        <ele>364</ele>
        <time>2022-09-05T09:23:42.000Z</time>
      </trkpt>
      <trkpt lat="49.84823" lon="4.79849">
        <ele>364</ele>
        <time>2022-09-05T09:23:43.000Z</time>
      </trkpt>
      <trkpt lat="49.84824" lon="4.79854">
        <ele>364</ele>
        <time>2022-09-05T09:23:44.000Z</time>
      </trkpt>
      <trkpt lat="49.84825" lon="4.79858">
        <ele>364</ele>
        <time>2022-09-05T09:23:45.000Z</time>
      </trkpt>
      <trkpt lat="49.84826" lon="4.79863">
        <ele>364</ele>
        <time>2022-09-05T09:23:46.000Z</time>
      </trkpt>
      <trkpt lat="49.84827" lon="4.79867">
        <ele>365</ele>
        <time>2022-09-05T09:23:47.000Z</time>
      </trkpt>
      <trkpt lat="49.84827" lon="4.79871">
        <ele>365</ele>
        <time>2022-09-05T09:23:48.000Z</time>
      </trkpt>
      <trkpt lat="49.84827" lon="4.79876">
        <ele>365</ele>
        <time>2022-09-05T09:23:49.000Z</time>
      </trkpt>
      <trkpt lat="49.84827" lon="4.79881">
        <ele>365</ele>
        <time>2022-09-05T09:23:50.000Z</time>
      </trkpt>
      <trkpt lat="49.84828" lon="4.79887">
        <ele>366</ele>
        <time>2022-09-05T09:23:51.000Z</time>
      </trkpt>
      <trkpt lat="49.84827" lon="4.79892">
        <ele>366</ele>
        <time>2022-09-05T09:23:52.000Z</time>
      </trkpt>
      <trkpt lat="49.84827" lon="4.79897">
        <ele>366</ele>
        <time>2022-09-05T09:23:53.000Z</time>
      </trkpt>
      <trkpt lat="49.84826" lon="4.79903">
        <ele>366</ele>
        <time>2022-09-05T09:23:54.000Z</time>
      </trkpt>
      <trkpt lat="49.84825" lon="4.79908">
        <ele>367</ele>
        <time>2022-09-05T09:23:55.000Z</time>
      </trkpt>
      <trkpt lat="49.84824" lon="4.79913">
        <ele>367</ele>
        <time>2022-09-05T09:23:56.000Z</time>
      </trkpt>
      <trkpt lat="49.84823" lon="4.79918">
        <ele>367</ele>
        <time>2022-09-05T09:23:57.000Z</time>
      </trkpt>
      <trkpt lat="49.84822" lon="4.79924">
        <ele>367</ele>
        <time>2022-09-05T09:23:58.000Z</time>
      </trkpt>
      <trkpt lat="49.84821" lon="4.79929">
        <ele>367</ele>
        <time>2022-09-05T09:23:59.000Z</time>
      </trkpt>
      <trkpt lat="49.84821" lon="4.79935">
        <ele>368</ele>
        <time>2022-09-05T09:24:00.000Z</time>
      </trkpt>
      <trkpt lat="49.8482" lon="4.7994">
        <ele>368</ele>
        <time>2022-09-05T09:24:01.000Z</time>
      </trkpt>
      <trkpt lat="49.84819" lon="4.79946">
        <ele>368</ele>
        <time>2022-09-05T09:24:02.000Z</time>
      </trkpt>
      <trkpt lat="49.84819" lon="4.7995">
        <ele>368</ele>
        <time>2022-09-05T09:24:03.000Z</time>
      </trkpt>
      <trkpt lat="49.84818" lon="4.79954">
        <ele>368</ele>
        <time>2022-09-05T09:24:04.000Z</time>
      </trkpt>
      <trkpt lat="49.84818" lon="4.79957">
        <ele>368</ele>
        <time>2022-09-05T09:24:05.000Z</time>
      </trkpt>
      <trkpt lat="49.84818" lon="4.79962">
        <ele>369</ele>
        <time>2022-09-05T09:24:06.000Z</time>
      </trkpt>
      <trkpt lat="49.84818" lon="4.79968">
        <ele>369</ele>
        <time>2022-09-05T09:24:07.000Z</time>
      </trkpt>
      <trkpt lat="49.84818" lon="4.79973">
        <ele>369</ele>
        <time>2022-09-05T09:24:08.000Z</time>
      </trkpt>
      <trkpt lat="49.84817" lon="4.79978">
        <ele>369</ele>
        <time>2022-09-05T09:24:09.000Z</time>
      </trkpt>
      <trkpt lat="49.84817" lon="4.79984">
        <ele>369</ele>
        <time>2022-09-05T09:24:10.000Z</time>
      </trkpt>
      <trkpt lat="49.84816" lon="4.79989">
        <ele>369</ele>
        <time>2022-09-05T09:24:11.000Z</time>
      </trkpt>
      <trkpt lat="49.84816" lon="4.79995">
        <ele>370</ele>
        <time>2022-09-05T09:24:12.000Z</time>
      </trkpt>
      <trkpt lat="49.84815" lon="4.8">
        <ele>370</ele>
        <time>2022-09-05T09:24:13.000Z</time>
      </trkpt>
      <trkpt lat="49.84814" lon="4.80005">
        <ele>370</ele>
        <time>2022-09-05T09:24:14.000Z</time>
      </trkpt>
      <trkpt lat="49.84812" lon="4.8001">
        <ele>370</ele>
        <time>2022-09-05T09:24:15.000Z</time>
      </trkpt>
      <trkpt lat="49.8481" lon="4.80015">
        <ele>371</ele>
        <time>2022-09-05T09:24:16.000Z</time>
      </trkpt>
      <trkpt lat="49.84809" lon="4.8002">
        <ele>371</ele>
        <time>2022-09-05T09:24:17.000Z</time>
      </trkpt>
      <trkpt lat="49.84808" lon="4.80024">
        <ele>371</ele>
        <time>2022-09-05T09:24:18.000Z</time>
      </trkpt>
      <trkpt lat="49.84806" lon="4.80029">
        <ele>371</ele>
        <time>2022-09-05T09:24:19.000Z</time>
      </trkpt>
      <trkpt lat="49.84805" lon="4.80033">
        <ele>372</ele>
        <time>2022-09-05T09:24:20.000Z</time>
      </trkpt>
      <trkpt lat="49.84804" lon="4.80036">
        <ele>372</ele>
        <time>2022-09-05T09:24:21.000Z</time>
      </trkpt>
      <trkpt lat="49.84802" lon="4.80039">
        <ele>372</ele>
        <time>2022-09-05T09:24:22.000Z</time>
      </trkpt>
      <trkpt lat="49.84801" lon="4.80043">
        <ele>373</ele>
        <time>2022-09-05T09:24:23.000Z</time>
      </trkpt>
      <trkpt lat="49.84799" lon="4.80046">
        <ele>373</ele>
        <time>2022-09-05T09:24:24.000Z</time>
      </trkpt>
      <trkpt lat="49.84797" lon="4.80049">
        <ele>373</ele>
        <time>2022-09-05T09:24:25.000Z</time>
      </trkpt>
      <trkpt lat="49.84796" lon="4.80053">
        <ele>374</ele>
        <time>2022-09-05T09:24:26.000Z</time>
      </trkpt>
      <trkpt lat="49.84795" lon="4.80059">
        <ele>374</ele>
        <time>2022-09-05T09:24:27.000Z</time>
      </trkpt>
      <trkpt lat="49.84794" lon="4.80063">
        <ele>374</ele>
        <time>2022-09-05T09:24:28.000Z</time>
      </trkpt>
      <trkpt lat="49.84793" lon="4.80068">
        <ele>375</ele>
        <time>2022-09-05T09:24:29.000Z</time>
      </trkpt>
      <trkpt lat="49.84792" lon="4.80073">
        <ele>375</ele>
        <time>2022-09-05T09:24:30.000Z</time>
      </trkpt>
      <trkpt lat="49.84791" lon="4.80079">
        <ele>375</ele>
        <time>2022-09-05T09:24:31.000Z</time>
      </trkpt>
      <trkpt lat="49.84789" lon="4.80083">
        <ele>376</ele>
        <time>2022-09-05T09:24:32.000Z</time>
      </trkpt>
      <trkpt lat="49.84788" lon="4.80088">
        <ele>376</ele>
        <time>2022-09-05T09:24:33.000Z</time>
      </trkpt>
      <trkpt lat="49.84786" lon="4.80094">
        <ele>376</ele>
        <time>2022-09-05T09:24:34.000Z</time>
      </trkpt>
      <trkpt lat="49.84785" lon="4.80099">
        <ele>376</ele>
        <time>2022-09-05T09:24:35.000Z</time>
      </trkpt>
      <trkpt lat="49.84784" lon="4.80103">
        <ele>377</ele>
        <time>2022-09-05T09:24:36.000Z</time>
      </trkpt>
      <trkpt lat="49.84784" lon="4.80108">
        <ele>377</ele>
        <time>2022-09-05T09:24:37.000Z</time>
      </trkpt>
      <trkpt lat="49.84782" lon="4.80113">
        <ele>377</ele>
        <time>2022-09-05T09:24:38.000Z</time>
      </trkpt>
      <trkpt lat="49.84781" lon="4.80118">
        <ele>377</ele>
        <time>2022-09-05T09:24:39.000Z</time>
      </trkpt>
      <trkpt lat="49.84781" lon="4.80122">
        <ele>377</ele>
        <time>2022-09-05T09:24:40.000Z</time>
      </trkpt>
      <trkpt lat="49.8478" lon="4.80126">
        <ele>377</ele>
        <time>2022-09-05T09:24:41.000Z</time>
      </trkpt>
      <trkpt lat="49.84779" lon="4.8013">
        <ele>378</ele>
        <time>2022-09-05T09:24:42.000Z</time>
      </trkpt>
      <trkpt lat="49.84778" lon="4.80134">
        <ele>378</ele>
        <time>2022-09-05T09:24:43.000Z</time>
      </trkpt>
      <trkpt lat="49.84777" lon="4.80139">
        <ele>378</ele>
        <time>2022-09-05T09:24:44.000Z</time>
      </trkpt>
      <trkpt lat="49.84776" lon="4.80143">
        <ele>378</ele>
        <time>2022-09-05T09:24:45.000Z</time>
      </trkpt>
      <trkpt lat="49.84774" lon="4.80148">
        <ele>378</ele>
        <time>2022-09-05T09:24:46.000Z</time>
      </trkpt>
      <trkpt lat="49.84773" lon="4.80152">
        <ele>379</ele>
        <time>2022-09-05T09:24:47.000Z</time>
      </trkpt>
      <trkpt lat="49.84772" lon="4.80157">
        <ele>379</ele>
        <time>2022-09-05T09:24:48.000Z</time>
      </trkpt>
      <trkpt lat="49.84771" lon="4.80162">
        <ele>379</ele>
        <time>2022-09-05T09:24:49.000Z</time>
      </trkpt>
      <trkpt lat="49.84771" lon="4.80167">
        <ele>379</ele>
        <time>2022-09-05T09:24:50.000Z</time>
      </trkpt>
      <trkpt lat="49.8477" lon="4.80172">
        <ele>379</ele>
        <time>2022-09-05T09:24:51.000Z</time>
      </trkpt>
      <trkpt lat="49.8477" lon="4.80177">
        <ele>380</ele>
        <time>2022-09-05T09:24:52.000Z</time>
      </trkpt>
      <trkpt lat="49.84768" lon="4.80181">
        <ele>380</ele>
        <time>2022-09-05T09:24:53.000Z</time>
      </trkpt>
      <trkpt lat="49.84767" lon="4.80184">
        <ele>380</ele>
        <time>2022-09-05T09:24:54.000Z</time>
      </trkpt>
      <trkpt lat="49.84767" lon="4.80187">
        <ele>380</ele>
        <time>2022-09-05T09:24:55.000Z</time>
      </trkpt>
      <trkpt lat="49.84767" lon="4.80191">
        <ele>381</ele>
        <time>2022-09-05T09:24:56.000Z</time>
      </trkpt>
      <trkpt lat="49.84767" lon="4.80195">
        <ele>381</ele>
        <time>2022-09-05T09:24:57.000Z</time>
      </trkpt>
      <trkpt lat="49.84767" lon="4.802">
        <ele>381</ele>
        <time>2022-09-05T09:24:58.000Z</time>
      </trkpt>
      <trkpt lat="49.84767" lon="4.80204">
        <ele>381</ele>
        <time>2022-09-05T09:24:59.000Z</time>
      </trkpt>
      <trkpt lat="49.84767" lon="4.8021">
        <ele>381</ele>
        <time>2022-09-05T09:25:00.000Z</time>
      </trkpt>
      <trkpt lat="49.84767" lon="4.80215">
        <ele>382</ele>
        <time>2022-09-05T09:25:01.000Z</time>
      </trkpt>
      <trkpt lat="49.84766" lon="4.8022">
        <ele>382</ele>
        <time>2022-09-05T09:25:02.000Z</time>
      </trkpt>
      <trkpt lat="49.84766" lon="4.80224">
        <ele>382</ele>
        <time>2022-09-05T09:25:03.000Z</time>
      </trkpt>
      <trkpt lat="49.84766" lon="4.80229">
        <ele>382</ele>
        <time>2022-09-05T09:25:04.000Z</time>
      </trkpt>
      <trkpt lat="49.84765" lon="4.80233">
        <ele>382</ele>
        <time>2022-09-05T09:25:05.000Z</time>
      </trkpt>
      <trkpt lat="49.84765" lon="4.80237">
        <ele>382</ele>
        <time>2022-09-05T09:25:06.000Z</time>
      </trkpt>
      <trkpt lat="49.84764" lon="4.80241">
        <ele>382</ele>
        <time>2022-09-05T09:25:07.000Z</time>
      </trkpt>
      <trkpt lat="49.84763" lon="4.80245">
        <ele>383</ele>
        <time>2022-09-05T09:25:08.000Z</time>
      </trkpt>
      <trkpt lat="49.84762" lon="4.80249">
        <ele>383</ele>
        <time>2022-09-05T09:25:09.000Z</time>
      </trkpt>
      <trkpt lat="49.84761" lon="4.80253">
        <ele>383</ele>
        <time>2022-09-05T09:25:10.000Z</time>
      </trkpt>
      <trkpt lat="49.84761" lon="4.80257">
        <ele>383</ele>
        <time>2022-09-05T09:25:11.000Z</time>
      </trkpt>
      <trkpt lat="49.84761" lon="4.80262">
        <ele>383</ele>
        <time>2022-09-05T09:25:12.000Z</time>
      </trkpt>
      <trkpt lat="49.8476" lon="4.80267">
        <ele>383</ele>
        <time>2022-09-05T09:25:13.000Z</time>
      </trkpt>
      <trkpt lat="49.8476" lon="4.80272">
        <ele>383</ele>
        <time>2022-09-05T09:25:14.000Z</time>
      </trkpt>
      <trkpt lat="49.84758" lon="4.80276">
        <ele>383</ele>
        <time>2022-09-05T09:25:15.000Z</time>
      </trkpt>
      <trkpt lat="49.84757" lon="4.80281">
        <ele>384</ele>
        <time>2022-09-05T09:25:16.000Z</time>
      </trkpt>
      <trkpt lat="49.84756" lon="4.80287">
        <ele>384</ele>
        <time>2022-09-05T09:25:17.000Z</time>
      </trkpt>
      <trkpt lat="49.84756" lon="4.80291">
        <ele>384</ele>
        <time>2022-09-05T09:25:18.000Z</time>
      </trkpt>
      <trkpt lat="49.84756" lon="4.80295">
        <ele>384</ele>
        <time>2022-09-05T09:25:19.000Z</time>
      </trkpt>
      <trkpt lat="49.84755" lon="4.803">
        <ele>384</ele>
        <time>2022-09-05T09:25:20.000Z</time>
      </trkpt>
      <trkpt lat="49.84754" lon="4.80304">
        <ele>384</ele>
        <time>2022-09-05T09:25:21.000Z</time>
      </trkpt>
      <trkpt lat="49.84752" lon="4.80309">
        <ele>385</ele>
        <time>2022-09-05T09:25:22.000Z</time>
      </trkpt>
      <trkpt lat="49.8475" lon="4.80314">
        <ele>385</ele>
        <time>2022-09-05T09:25:23.000Z</time>
      </trkpt>
      <trkpt lat="49.84749" lon="4.80319">
        <ele>385</ele>
        <time>2022-09-05T09:25:24.000Z</time>
      </trkpt>
      <trkpt lat="49.84749" lon="4.80324">
        <ele>385</ele>
        <time>2022-09-05T09:25:25.000Z</time>
      </trkpt>
      <trkpt lat="49.84749" lon="4.80328">
        <ele>385</ele>
        <time>2022-09-05T09:25:26.000Z</time>
      </trkpt>
      <trkpt lat="49.84749" lon="4.80334">
        <ele>385</ele>
        <time>2022-09-05T09:25:27.000Z</time>
      </trkpt>
      <trkpt lat="49.84749" lon="4.80339">
        <ele>386</ele>
        <time>2022-09-05T09:25:28.000Z</time>
      </trkpt>
      <trkpt lat="49.84749" lon="4.80344">
        <ele>386</ele>
        <time>2022-09-05T09:25:29.000Z</time>
      </trkpt>
      <trkpt lat="49.84748" lon="4.80348">
        <ele>386</ele>
        <time>2022-09-05T09:25:30.000Z</time>
      </trkpt>
      <trkpt lat="49.84748" lon="4.80353">
        <ele>386</ele>
        <time>2022-09-05T09:25:31.000Z</time>
      </trkpt>
      <trkpt lat="49.84747" lon="4.80358">
        <ele>386</ele>
        <time>2022-09-05T09:25:32.000Z</time>
      </trkpt>
      <trkpt lat="49.84747" lon="4.80363">
        <ele>386</ele>
        <time>2022-09-05T09:25:33.000Z</time>
      </trkpt>
      <trkpt lat="49.84747" lon="4.80368">
        <ele>386</ele>
        <time>2022-09-05T09:25:34.000Z</time>
      </trkpt>
      <trkpt lat="49.84747" lon="4.80374">
        <ele>387</ele>
        <time>2022-09-05T09:25:35.000Z</time>
      </trkpt>
      <trkpt lat="49.84747" lon="4.80379">
        <ele>387</ele>
        <time>2022-09-05T09:25:36.000Z</time>
      </trkpt>
      <trkpt lat="49.84746" lon="4.80384">
        <ele>387</ele>
        <time>2022-09-05T09:25:37.000Z</time>
      </trkpt>
      <trkpt lat="49.84746" lon="4.80389">
        <ele>387</ele>
        <time>2022-09-05T09:25:38.000Z</time>
      </trkpt>
      <trkpt lat="49.84747" lon="4.80395">
        <ele>387</ele>
        <time>2022-09-05T09:25:39.000Z</time>
      </trkpt>
      <trkpt lat="49.84747" lon="4.804">
        <ele>387</ele>
        <time>2022-09-05T09:25:40.000Z</time>
      </trkpt>
      <trkpt lat="49.84747" lon="4.80405">
        <ele>387</ele>
        <time>2022-09-05T09:25:41.000Z</time>
      </trkpt>
      <trkpt lat="49.84747" lon="4.8041">
        <ele>387</ele>
        <time>2022-09-05T09:25:42.000Z</time>
      </trkpt>
      <trkpt lat="49.84748" lon="4.80416">
        <ele>387</ele>
        <time>2022-09-05T09:25:43.000Z</time>
      </trkpt>
      <trkpt lat="49.84748" lon="4.80422">
        <ele>387</ele>
        <time>2022-09-05T09:25:44.000Z</time>
      </trkpt>
      <trkpt lat="49.84749" lon="4.80428">
        <ele>387</ele>
        <time>2022-09-05T09:25:45.000Z</time>
      </trkpt>
      <trkpt lat="49.84749" lon="4.80434">
        <ele>387</ele>
        <time>2022-09-05T09:25:46.000Z</time>
      </trkpt>
      <trkpt lat="49.8475" lon="4.8044">
        <ele>387</ele>
        <time>2022-09-05T09:25:47.000Z</time>
      </trkpt>
      <trkpt lat="49.84751" lon="4.80446">
        <ele>387</ele>
        <time>2022-09-05T09:25:48.000Z</time>
      </trkpt>
      <trkpt lat="49.84752" lon="4.80453">
        <ele>387</ele>
        <time>2022-09-05T09:25:49.000Z</time>
      </trkpt>
      <trkpt lat="49.84753" lon="4.80459">
        <ele>387</ele>
        <time>2022-09-05T09:25:50.000Z</time>
      </trkpt>
      <trkpt lat="49.84754" lon="4.80466">
        <ele>387</ele>
        <time>2022-09-05T09:25:51.000Z</time>
      </trkpt>
      <trkpt lat="49.84756" lon="4.80471">
        <ele>387</ele>
        <time>2022-09-05T09:25:52.000Z</time>
      </trkpt>
      <trkpt lat="49.84756" lon="4.80477">
        <ele>387</ele>
        <time>2022-09-05T09:25:53.000Z</time>
      </trkpt>
      <trkpt lat="49.84757" lon="4.80482">
        <ele>387</ele>
        <time>2022-09-05T09:25:54.000Z</time>
      </trkpt>
      <trkpt lat="49.84757" lon="4.80487">
        <ele>387</ele>
        <time>2022-09-05T09:25:55.000Z</time>
      </trkpt>
      <trkpt lat="49.84757" lon="4.80491">
        <ele>387</ele>
        <time>2022-09-05T09:25:56.000Z</time>
      </trkpt>
      <trkpt lat="49.84758" lon="4.80496">
        <ele>387</ele>
        <time>2022-09-05T09:25:57.000Z</time>
      </trkpt>
      <trkpt lat="49.84758" lon="4.80501">
        <ele>387</ele>
        <time>2022-09-05T09:25:58.000Z</time>
      </trkpt>
      <trkpt lat="49.84758" lon="4.80507">
        <ele>387</ele>
        <time>2022-09-05T09:25:59.000Z</time>
      </trkpt>
      <trkpt lat="49.84759" lon="4.80513">
        <ele>387</ele>
        <time>2022-09-05T09:26:00.000Z</time>
      </trkpt>
      <trkpt lat="49.84759" lon="4.8052">
        <ele>387</ele>
        <time>2022-09-05T09:26:01.000Z</time>
      </trkpt>
      <trkpt lat="49.8476" lon="4.80527">
        <ele>387</ele>
        <time>2022-09-05T09:26:02.000Z</time>
      </trkpt>
      <trkpt lat="49.8476" lon="4.80534">
        <ele>387</ele>
        <time>2022-09-05T09:26:03.000Z</time>
      </trkpt>
      <trkpt lat="49.84759" lon="4.80539">
        <ele>387</ele>
        <time>2022-09-05T09:26:04.000Z</time>
      </trkpt>
      <trkpt lat="49.84758" lon="4.80545">
        <ele>387</ele>
        <time>2022-09-05T09:26:05.000Z</time>
      </trkpt>
      <trkpt lat="49.84757" lon="4.8055">
        <ele>387</ele>
        <time>2022-09-05T09:26:06.000Z</time>
      </trkpt>
      <trkpt lat="49.84755" lon="4.80555">
        <ele>387</ele>
        <time>2022-09-05T09:26:07.000Z</time>
      </trkpt>
      <trkpt lat="49.84754" lon="4.80559">
        <ele>387</ele>
        <time>2022-09-05T09:26:08.000Z</time>
      </trkpt>
      <trkpt lat="49.84753" lon="4.80562">
        <ele>387</ele>
        <time>2022-09-05T09:26:09.000Z</time>
      </trkpt>
      <trkpt lat="49.84753" lon="4.80566">
        <ele>387</ele>
        <time>2022-09-05T09:26:10.000Z</time>
      </trkpt>
      <trkpt lat="49.84752" lon="4.8057">
        <ele>387</ele>
        <time>2022-09-05T09:26:11.000Z</time>
      </trkpt>
      <trkpt lat="49.84752" lon="4.80574">
        <ele>387</ele>
        <time>2022-09-05T09:26:12.000Z</time>
      </trkpt>
      <trkpt lat="49.84752" lon="4.80578">
        <ele>387</ele>
        <time>2022-09-05T09:26:13.000Z</time>
      </trkpt>
      <trkpt lat="49.84753" lon="4.80583">
        <ele>387</ele>
        <time>2022-09-05T09:26:14.000Z</time>
      </trkpt>
      <trkpt lat="49.84754" lon="4.80587">
        <ele>387</ele>
        <time>2022-09-05T09:26:15.000Z</time>
      </trkpt>
      <trkpt lat="49.84756" lon="4.80592">
        <ele>387</ele>
        <time>2022-09-05T09:26:16.000Z</time>
      </trkpt>
      <trkpt lat="49.84759" lon="4.80597">
        <ele>386</ele>
        <time>2022-09-05T09:26:17.000Z</time>
      </trkpt>
      <trkpt lat="49.84761" lon="4.80602">
        <ele>386</ele>
        <time>2022-09-05T09:26:18.000Z</time>
      </trkpt>
      <trkpt lat="49.84764" lon="4.80607">
        <ele>386</ele>
        <time>2022-09-05T09:26:19.000Z</time>
      </trkpt>
      <trkpt lat="49.84767" lon="4.80613">
        <ele>386</ele>
        <time>2022-09-05T09:26:20.000Z</time>
      </trkpt>
      <trkpt lat="49.84769" lon="4.8062">
        <ele>386</ele>
        <time>2022-09-05T09:26:21.000Z</time>
      </trkpt>
      <trkpt lat="49.84772" lon="4.80626">
        <ele>386</ele>
        <time>2022-09-05T09:26:22.000Z</time>
      </trkpt>
      <trkpt lat="49.84775" lon="4.80632">
        <ele>386</ele>
        <time>2022-09-05T09:26:23.000Z</time>
      </trkpt>
      <trkpt lat="49.84777" lon="4.80638">
        <ele>386</ele>
        <time>2022-09-05T09:26:24.000Z</time>
      </trkpt>
      <trkpt lat="49.8478" lon="4.80644">
        <ele>385</ele>
        <time>2022-09-05T09:26:25.000Z</time>
      </trkpt>
      <trkpt lat="49.84783" lon="4.8065">
        <ele>385</ele>
        <time>2022-09-05T09:26:26.000Z</time>
      </trkpt>
      <trkpt lat="49.84785" lon="4.80657">
        <ele>385</ele>
        <time>2022-09-05T09:26:27.000Z</time>
      </trkpt>
      <trkpt lat="49.84788" lon="4.80663">
        <ele>385</ele>
        <time>2022-09-05T09:26:28.000Z</time>
      </trkpt>
      <trkpt lat="49.84791" lon="4.80669">
        <ele>385</ele>
        <time>2022-09-05T09:26:29.000Z</time>
      </trkpt>
      <trkpt lat="49.84794" lon="4.80675">
        <ele>385</ele>
        <time>2022-09-05T09:26:30.000Z</time>
      </trkpt>
      <trkpt lat="49.84796" lon="4.80681">
        <ele>385</ele>
        <time>2022-09-05T09:26:31.000Z</time>
      </trkpt>
      <trkpt lat="49.84799" lon="4.80687">
        <ele>384</ele>
        <time>2022-09-05T09:26:32.000Z</time>
      </trkpt>
      <trkpt lat="49.84802" lon="4.80693">
        <ele>384</ele>
        <time>2022-09-05T09:26:33.000Z</time>
      </trkpt>
      <trkpt lat="49.84805" lon="4.80699">
        <ele>384</ele>
        <time>2022-09-05T09:26:34.000Z</time>
      </trkpt>
      <trkpt lat="49.84809" lon="4.80703">
        <ele>384</ele>
        <time>2022-09-05T09:26:35.000Z</time>
      </trkpt>
      <trkpt lat="49.84813" lon="4.80707">
        <ele>384</ele>
        <time>2022-09-05T09:26:36.000Z</time>
      </trkpt>
      <trkpt lat="49.84816" lon="4.80712">
        <ele>384</ele>
        <time>2022-09-05T09:26:37.000Z</time>
      </trkpt>
      <trkpt lat="49.84818" lon="4.80718">
        <ele>384</ele>
        <time>2022-09-05T09:26:38.000Z</time>
      </trkpt>
      <trkpt lat="49.8482" lon="4.80723">
        <ele>384</ele>
        <time>2022-09-05T09:26:39.000Z</time>
      </trkpt>
      <trkpt lat="49.84822" lon="4.80729">
        <ele>383</ele>
        <time>2022-09-05T09:26:40.000Z</time>
      </trkpt>
      <trkpt lat="49.84824" lon="4.80736">
        <ele>383</ele>
        <time>2022-09-05T09:26:41.000Z</time>
      </trkpt>
      <trkpt lat="49.84827" lon="4.80742">
        <ele>383</ele>
        <time>2022-09-05T09:26:42.000Z</time>
      </trkpt>
      <trkpt lat="49.8483" lon="4.80748">
        <ele>383</ele>
        <time>2022-09-05T09:26:43.000Z</time>
      </trkpt>
      <trkpt lat="49.84833" lon="4.80754">
        <ele>383</ele>
        <time>2022-09-05T09:26:44.000Z</time>
      </trkpt>
      <trkpt lat="49.84836" lon="4.80761">
        <ele>383</ele>
        <time>2022-09-05T09:26:45.000Z</time>
      </trkpt>
      <trkpt lat="49.8484" lon="4.80766">
        <ele>383</ele>
        <time>2022-09-05T09:26:46.000Z</time>
      </trkpt>
      <trkpt lat="49.84843" lon="4.80771">
        <ele>383</ele>
        <time>2022-09-05T09:26:47.000Z</time>
      </trkpt>
      <trkpt lat="49.84846" lon="4.80776">
        <ele>383</ele>
        <time>2022-09-05T09:26:48.000Z</time>
      </trkpt>
      <trkpt lat="49.84849" lon="4.8078">
        <ele>383</ele>
        <time>2022-09-05T09:26:49.000Z</time>
      </trkpt>
      <trkpt lat="49.84852" lon="4.80784">
        <ele>383</ele>
        <time>2022-09-05T09:26:50.000Z</time>
      </trkpt>
      <trkpt lat="49.84854" lon="4.80788">
        <ele>383</ele>
        <time>2022-09-05T09:26:51.000Z</time>
      </trkpt>
      <trkpt lat="49.84858" lon="4.80792">
        <ele>383</ele>
        <time>2022-09-05T09:26:52.000Z</time>
      </trkpt>
      <trkpt lat="49.84862" lon="4.80796">
        <ele>383</ele>
        <time>2022-09-05T09:26:53.000Z</time>
      </trkpt>
      <trkpt lat="49.84867" lon="4.80799">
        <ele>383</ele>
        <time>2022-09-05T09:26:54.000Z</time>
      </trkpt>
      <trkpt lat="49.84872" lon="4.80802">
        <ele>383</ele>
        <time>2022-09-05T09:26:55.000Z</time>
      </trkpt>
      <trkpt lat="49.84877" lon="4.80804">
        <ele>383</ele>
        <time>2022-09-05T09:26:56.000Z</time>
      </trkpt>
      <trkpt lat="49.84883" lon="4.80807">
        <ele>383</ele>
        <time>2022-09-05T09:26:57.000Z</time>
      </trkpt>
      <trkpt lat="49.84888" lon="4.80811">
        <ele>383</ele>
        <time>2022-09-05T09:26:58.000Z</time>
      </trkpt>
      <trkpt lat="49.84893" lon="4.80818">
        <ele>383</ele>
        <time>2022-09-05T09:26:59.000Z</time>
      </trkpt>
      <trkpt lat="49.84898" lon="4.80826">
        <ele>383</ele>
        <time>2022-09-05T09:27:00.000Z</time>
      </trkpt>
      <trkpt lat="49.84903" lon="4.80836">
        <ele>383</ele>
        <time>2022-09-05T09:27:01.000Z</time>
      </trkpt>
      <trkpt lat="49.84907" lon="4.80845">
        <ele>383</ele>
        <time>2022-09-05T09:27:02.000Z</time>
      </trkpt>
      <trkpt lat="49.84912" lon="4.80855">
        <ele>383</ele>
        <time>2022-09-05T09:27:03.000Z</time>
      </trkpt>
      <trkpt lat="49.84917" lon="4.80863">
        <ele>383</ele>
        <time>2022-09-05T09:27:04.000Z</time>
      </trkpt>
      <trkpt lat="49.84922" lon="4.80873">
        <ele>383</ele>
        <time>2022-09-05T09:27:05.000Z</time>
      </trkpt>
      <trkpt lat="49.84926" lon="4.80883">
        <ele>383</ele>
        <time>2022-09-05T09:27:06.000Z</time>
      </trkpt>
      <trkpt lat="49.84929" lon="4.80893">
        <ele>383</ele>
        <time>2022-09-05T09:27:07.000Z</time>
      </trkpt>
      <trkpt lat="49.84931" lon="4.80904">
        <ele>383</ele>
        <time>2022-09-05T09:27:08.000Z</time>
      </trkpt>
      <trkpt lat="49.84932" lon="4.80914">
        <ele>383</ele>
        <time>2022-09-05T09:27:09.000Z</time>
      </trkpt>
      <trkpt lat="49.84933" lon="4.80925">
        <ele>383</ele>
        <time>2022-09-05T09:27:10.000Z</time>
      </trkpt>
      <trkpt lat="49.84935" lon="4.80934">
        <ele>382</ele>
        <time>2022-09-05T09:27:11.000Z</time>
      </trkpt>
      <trkpt lat="49.84937" lon="4.80943">
        <ele>382</ele>
        <time>2022-09-05T09:27:12.000Z</time>
      </trkpt>
      <trkpt lat="49.84939" lon="4.8095">
        <ele>382</ele>
        <time>2022-09-05T09:27:13.000Z</time>
      </trkpt>
      <trkpt lat="49.84941" lon="4.80958">
        <ele>382</ele>
        <time>2022-09-05T09:27:14.000Z</time>
      </trkpt>
      <trkpt lat="49.84944" lon="4.80966">
        <ele>382</ele>
        <time>2022-09-05T09:27:15.000Z</time>
      </trkpt>
      <trkpt lat="49.84947" lon="4.80973">
        <ele>382</ele>
        <time>2022-09-05T09:27:16.000Z</time>
      </trkpt>
      <trkpt lat="49.84949" lon="4.80981">
        <ele>382</ele>
        <time>2022-09-05T09:27:17.000Z</time>
      </trkpt>
      <trkpt lat="49.84952" lon="4.80988">
        <ele>382</ele>
        <time>2022-09-05T09:27:18.000Z</time>
      </trkpt>
      <trkpt lat="49.84954" lon="4.80995">
        <ele>382</ele>
        <time>2022-09-05T09:27:19.000Z</time>
      </trkpt>
      <trkpt lat="49.84957" lon="4.81003">
        <ele>382</ele>
        <time>2022-09-05T09:27:20.000Z</time>
      </trkpt>
      <trkpt lat="49.84959" lon="4.8101">
        <ele>381</ele>
        <time>2022-09-05T09:27:21.000Z</time>
      </trkpt>
      <trkpt lat="49.84961" lon="4.81017">
        <ele>381</ele>
        <time>2022-09-05T09:27:22.000Z</time>
      </trkpt>
      <trkpt lat="49.84963" lon="4.81024">
        <ele>381</ele>
        <time>2022-09-05T09:27:23.000Z</time>
      </trkpt>
      <trkpt lat="49.84965" lon="4.8103">
        <ele>381</ele>
        <time>2022-09-05T09:27:24.000Z</time>
      </trkpt>
      <trkpt lat="49.84968" lon="4.81036">
        <ele>381</ele>
        <time>2022-09-05T09:27:25.000Z</time>
      </trkpt>
      <trkpt lat="49.84971" lon="4.81042">
        <ele>381</ele>
        <time>2022-09-05T09:27:26.000Z</time>
      </trkpt>
      <trkpt lat="49.84973" lon="4.81048">
        <ele>381</ele>
        <time>2022-09-05T09:27:27.000Z</time>
      </trkpt>
      <trkpt lat="49.84975" lon="4.81055">
        <ele>381</ele>
        <time>2022-09-05T09:27:28.000Z</time>
      </trkpt>
      <trkpt lat="49.84978" lon="4.81062">
        <ele>381</ele>
        <time>2022-09-05T09:27:29.000Z</time>
      </trkpt>
      <trkpt lat="49.8498" lon="4.81069">
        <ele>381</ele>
        <time>2022-09-05T09:27:30.000Z</time>
      </trkpt>
      <trkpt lat="49.84983" lon="4.81075">
        <ele>381</ele>
        <time>2022-09-05T09:27:31.000Z</time>
      </trkpt>
      <trkpt lat="49.84985" lon="4.81082">
        <ele>381</ele>
        <time>2022-09-05T09:27:32.000Z</time>
      </trkpt>
      <trkpt lat="49.84987" lon="4.81089">
        <ele>381</ele>
        <time>2022-09-05T09:27:33.000Z</time>
      </trkpt>
      <trkpt lat="49.8499" lon="4.81095">
        <ele>382</ele>
        <time>2022-09-05T09:27:34.000Z</time>
      </trkpt>
      <trkpt lat="49.84992" lon="4.81101">
        <ele>382</ele>
        <time>2022-09-05T09:27:35.000Z</time>
      </trkpt>
      <trkpt lat="49.84995" lon="4.81107">
        <ele>382</ele>
        <time>2022-09-05T09:27:36.000Z</time>
      </trkpt>
      <trkpt lat="49.84997" lon="4.81113">
        <ele>382</ele>
        <time>2022-09-05T09:27:37.000Z</time>
      </trkpt>
      <trkpt lat="49.84999" lon="4.81119">
        <ele>382</ele>
        <time>2022-09-05T09:27:38.000Z</time>
      </trkpt>
      <trkpt lat="49.85002" lon="4.81125">
        <ele>382</ele>
        <time>2022-09-05T09:27:39.000Z</time>
      </trkpt>
      <trkpt lat="49.85004" lon="4.8113">
        <ele>382</ele>
        <time>2022-09-05T09:27:40.000Z</time>
      </trkpt>
      <trkpt lat="49.85007" lon="4.81136">
        <ele>382</ele>
        <time>2022-09-05T09:27:41.000Z</time>
      </trkpt>
      <trkpt lat="49.85009" lon="4.81142">
        <ele>382</ele>
        <time>2022-09-05T09:27:42.000Z</time>
      </trkpt>
      <trkpt lat="49.85012" lon="4.81147">
        <ele>382</ele>
        <time>2022-09-05T09:27:43.000Z</time>
      </trkpt>
      <trkpt lat="49.85015" lon="4.81152">
        <ele>382</ele>
        <time>2022-09-05T09:27:44.000Z</time>
      </trkpt>
      <trkpt lat="49.85017" lon="4.81158">
        <ele>382</ele>
        <time>2022-09-05T09:27:45.000Z</time>
      </trkpt>
      <trkpt lat="49.8502" lon="4.81162">
        <ele>382</ele>
        <time>2022-09-05T09:27:46.000Z</time>
      </trkpt>
      <trkpt lat="49.85023" lon="4.81168">
        <ele>382</ele>
        <time>2022-09-05T09:27:47.000Z</time>
      </trkpt>
      <trkpt lat="49.85026" lon="4.81173">
        <ele>382</ele>
        <time>2022-09-05T09:27:48.000Z</time>
      </trkpt>
      <trkpt lat="49.8503" lon="4.81179">
        <ele>382</ele>
        <time>2022-09-05T09:27:49.000Z</time>
      </trkpt>
      <trkpt lat="49.85033" lon="4.81184">
        <ele>382</ele>
        <time>2022-09-05T09:27:50.000Z</time>
      </trkpt>
      <trkpt lat="49.85036" lon="4.8119">
        <ele>382</ele>
        <time>2022-09-05T09:27:51.000Z</time>
      </trkpt>
      <trkpt lat="49.8504" lon="4.81196">
        <ele>382</ele>
        <time>2022-09-05T09:27:52.000Z</time>
      </trkpt>
      <trkpt lat="49.85043" lon="4.81202">
        <ele>381</ele>
        <time>2022-09-05T09:27:53.000Z</time>
      </trkpt>
      <trkpt lat="49.85047" lon="4.81207">
        <ele>381</ele>
        <time>2022-09-05T09:27:54.000Z</time>
      </trkpt>
      <trkpt lat="49.85051" lon="4.81213">
        <ele>381</ele>
        <time>2022-09-05T09:27:55.000Z</time>
      </trkpt>
      <trkpt lat="49.85054" lon="4.8122">
        <ele>381</ele>
        <time>2022-09-05T09:27:56.000Z</time>
      </trkpt>
      <trkpt lat="49.85058" lon="4.81226">
        <ele>381</ele>
        <time>2022-09-05T09:27:57.000Z</time>
      </trkpt>
      <trkpt lat="49.85062" lon="4.81232">
        <ele>381</ele>
        <time>2022-09-05T09:27:58.000Z</time>
      </trkpt>
      <trkpt lat="49.85066" lon="4.81238">
        <ele>381</ele>
        <time>2022-09-05T09:27:59.000Z</time>
      </trkpt>
      <trkpt lat="49.8507" lon="4.81244">
        <ele>381</ele>
        <time>2022-09-05T09:28:00.000Z</time>
      </trkpt>
      <trkpt lat="49.85075" lon="4.81251">
        <ele>381</ele>
        <time>2022-09-05T09:28:01.000Z</time>
      </trkpt>
      <trkpt lat="49.85079" lon="4.81257">
        <ele>381</ele>
        <time>2022-09-05T09:28:02.000Z</time>
      </trkpt>
      <trkpt lat="49.85083" lon="4.81263">
        <ele>381</ele>
        <time>2022-09-05T09:28:03.000Z</time>
      </trkpt>
      <trkpt lat="49.85086" lon="4.81269">
        <ele>381</ele>
        <time>2022-09-05T09:28:04.000Z</time>
      </trkpt>
      <trkpt lat="49.85091" lon="4.81275">
        <ele>381</ele>
        <time>2022-09-05T09:28:05.000Z</time>
      </trkpt>
      <trkpt lat="49.85095" lon="4.81281">
        <ele>381</ele>
        <time>2022-09-05T09:28:06.000Z</time>
      </trkpt>
      <trkpt lat="49.85099" lon="4.81287">
        <ele>381</ele>
        <time>2022-09-05T09:28:07.000Z</time>
      </trkpt>
      <trkpt lat="49.85103" lon="4.81292">
        <ele>381</ele>
        <time>2022-09-05T09:28:08.000Z</time>
      </trkpt>
      <trkpt lat="49.85106" lon="4.81299">
        <ele>381</ele>
        <time>2022-09-05T09:28:09.000Z</time>
      </trkpt>
      <trkpt lat="49.8511" lon="4.81305">
        <ele>381</ele>
        <time>2022-09-05T09:28:10.000Z</time>
      </trkpt>
      <trkpt lat="49.85113" lon="4.81311">
        <ele>381</ele>
        <time>2022-09-05T09:28:11.000Z</time>
      </trkpt>
      <trkpt lat="49.85116" lon="4.81317">
        <ele>381</ele>
        <time>2022-09-05T09:28:12.000Z</time>
      </trkpt>
      <trkpt lat="49.85118" lon="4.81323">
        <ele>382</ele>
        <time>2022-09-05T09:28:13.000Z</time>
      </trkpt>
      <trkpt lat="49.85121" lon="4.81328">
        <ele>382</ele>
        <time>2022-09-05T09:28:14.000Z</time>
      </trkpt>
      <trkpt lat="49.85124" lon="4.81333">
        <ele>382</ele>
        <time>2022-09-05T09:28:15.000Z</time>
      </trkpt>
      <trkpt lat="49.85127" lon="4.81338">
        <ele>382</ele>
        <time>2022-09-05T09:28:16.000Z</time>
      </trkpt>
      <trkpt lat="49.8513" lon="4.81342">
        <ele>382</ele>
        <time>2022-09-05T09:28:17.000Z</time>
      </trkpt>
      <trkpt lat="49.85133" lon="4.81348">
        <ele>382</ele>
        <time>2022-09-05T09:28:18.000Z</time>
      </trkpt>
      <trkpt lat="49.85136" lon="4.81354">
        <ele>382</ele>
        <time>2022-09-05T09:28:19.000Z</time>
      </trkpt>
      <trkpt lat="49.85138" lon="4.8136">
        <ele>382</ele>
        <time>2022-09-05T09:28:20.000Z</time>
      </trkpt>
      <trkpt lat="49.85141" lon="4.81367">
        <ele>382</ele>
        <time>2022-09-05T09:28:21.000Z</time>
      </trkpt>
      <trkpt lat="49.85143" lon="4.81373">
        <ele>382</ele>
        <time>2022-09-05T09:28:22.000Z</time>
      </trkpt>
      <trkpt lat="49.85145" lon="4.8138">
        <ele>383</ele>
        <time>2022-09-05T09:28:23.000Z</time>
      </trkpt>
      <trkpt lat="49.85147" lon="4.81387">
        <ele>383</ele>
        <time>2022-09-05T09:28:24.000Z</time>
      </trkpt>
      <trkpt lat="49.85148" lon="4.81394">
        <ele>383</ele>
        <time>2022-09-05T09:28:25.000Z</time>
      </trkpt>
      <trkpt lat="49.85149" lon="4.81401">
        <ele>383</ele>
        <time>2022-09-05T09:28:26.000Z</time>
      </trkpt>
      <trkpt lat="49.8515" lon="4.81409">
        <ele>383</ele>
        <time>2022-09-05T09:28:27.000Z</time>
      </trkpt>
      <trkpt lat="49.85151" lon="4.81416">
        <ele>383</ele>
        <time>2022-09-05T09:28:28.000Z</time>
      </trkpt>
      <trkpt lat="49.85151" lon="4.81423">
        <ele>383</ele>
        <time>2022-09-05T09:28:29.000Z</time>
      </trkpt>
      <trkpt lat="49.85152" lon="4.8143">
        <ele>383</ele>
        <time>2022-09-05T09:28:30.000Z</time>
      </trkpt>
      <trkpt lat="49.85152" lon="4.81437">
        <ele>383</ele>
        <time>2022-09-05T09:28:31.000Z</time>
      </trkpt>
      <trkpt lat="49.85152" lon="4.81444">
        <ele>383</ele>
        <time>2022-09-05T09:28:32.000Z</time>
      </trkpt>
      <trkpt lat="49.85153" lon="4.81452">
        <ele>383</ele>
        <time>2022-09-05T09:28:33.000Z</time>
      </trkpt>
      <trkpt lat="49.85152" lon="4.8146">
        <ele>383</ele>
        <time>2022-09-05T09:28:34.000Z</time>
      </trkpt>
      <trkpt lat="49.85152" lon="4.81468">
        <ele>383</ele>
        <time>2022-09-05T09:28:35.000Z</time>
      </trkpt>
      <trkpt lat="49.85152" lon="4.81475">
        <ele>383</ele>
        <time>2022-09-05T09:28:36.000Z</time>
      </trkpt>
      <trkpt lat="49.85151" lon="4.81483">
        <ele>384</ele>
        <time>2022-09-05T09:28:37.000Z</time>
      </trkpt>
      <trkpt lat="49.85151" lon="4.81491">
        <ele>384</ele>
        <time>2022-09-05T09:28:38.000Z</time>
      </trkpt>
      <trkpt lat="49.8515" lon="4.81499">
        <ele>384</ele>
        <time>2022-09-05T09:28:39.000Z</time>
      </trkpt>
      <trkpt lat="49.8515" lon="4.81506">
        <ele>384</ele>
        <time>2022-09-05T09:28:40.000Z</time>
      </trkpt>
      <trkpt lat="49.85149" lon="4.81514">
        <ele>384</ele>
        <time>2022-09-05T09:28:41.000Z</time>
      </trkpt>
      <trkpt lat="49.85149" lon="4.81521">
        <ele>384</ele>
        <time>2022-09-05T09:28:42.000Z</time>
      </trkpt>
      <trkpt lat="49.85148" lon="4.81528">
        <ele>384</ele>
        <time>2022-09-05T09:28:43.000Z</time>
      </trkpt>
      <trkpt lat="49.85148" lon="4.81535">
        <ele>384</ele>
        <time>2022-09-05T09:28:44.000Z</time>
      </trkpt>
      <trkpt lat="49.85147" lon="4.81542">
        <ele>384</ele>
        <time>2022-09-05T09:28:45.000Z</time>
      </trkpt>
      <trkpt lat="49.85147" lon="4.81549">
        <ele>384</ele>
        <time>2022-09-05T09:28:46.000Z</time>
      </trkpt>
      <trkpt lat="49.85146" lon="4.81556">
        <ele>384</ele>
        <time>2022-09-05T09:28:47.000Z</time>
      </trkpt>
      <trkpt lat="49.85145" lon="4.81562">
        <ele>385</ele>
        <time>2022-09-05T09:28:48.000Z</time>
      </trkpt>
      <trkpt lat="49.85145" lon="4.81569">
        <ele>385</ele>
        <time>2022-09-05T09:28:49.000Z</time>
      </trkpt>
      <trkpt lat="49.85145" lon="4.81576">
        <ele>385</ele>
        <time>2022-09-05T09:28:50.000Z</time>
      </trkpt>
      <trkpt lat="49.85145" lon="4.81583">
        <ele>385</ele>
        <time>2022-09-05T09:28:51.000Z</time>
      </trkpt>
      <trkpt lat="49.85144" lon="4.81589">
        <ele>385</ele>
        <time>2022-09-05T09:28:52.000Z</time>
      </trkpt>
      <trkpt lat="49.85144" lon="4.81596">
        <ele>385</ele>
        <time>2022-09-05T09:28:53.000Z</time>
      </trkpt>
      <trkpt lat="49.85144" lon="4.81603">
        <ele>385</ele>
        <time>2022-09-05T09:28:54.000Z</time>
      </trkpt>
      <trkpt lat="49.85144" lon="4.81609">
        <ele>385</ele>
        <time>2022-09-05T09:28:55.000Z</time>
      </trkpt>
      <trkpt lat="49.85144" lon="4.81615">
        <ele>386</ele>
        <time>2022-09-05T09:28:56.000Z</time>
      </trkpt>
      <trkpt lat="49.85144" lon="4.81621">
        <ele>386</ele>
        <time>2022-09-05T09:28:57.000Z</time>
      </trkpt>
      <trkpt lat="49.85144" lon="4.81628">
        <ele>386</ele>
        <time>2022-09-05T09:28:58.000Z</time>
      </trkpt>
      <trkpt lat="49.85145" lon="4.81634">
        <ele>386</ele>
        <time>2022-09-05T09:28:59.000Z</time>
      </trkpt>
      <trkpt lat="49.85145" lon="4.81641">
        <ele>386</ele>
        <time>2022-09-05T09:29:00.000Z</time>
      </trkpt>
      <trkpt lat="49.85145" lon="4.81648">
        <ele>386</ele>
        <time>2022-09-05T09:29:01.000Z</time>
      </trkpt>
      <trkpt lat="49.85146" lon="4.81654">
        <ele>387</ele>
        <time>2022-09-05T09:29:02.000Z</time>
      </trkpt>
      <trkpt lat="49.85147" lon="4.81661">
        <ele>387</ele>
        <time>2022-09-05T09:29:03.000Z</time>
      </trkpt>
      <trkpt lat="49.85148" lon="4.81667">
        <ele>387</ele>
        <time>2022-09-05T09:29:04.000Z</time>
      </trkpt>
      <trkpt lat="49.85149" lon="4.81673">
        <ele>387</ele>
        <time>2022-09-05T09:29:05.000Z</time>
      </trkpt>
      <trkpt lat="49.8515" lon="4.8168">
        <ele>387</ele>
        <time>2022-09-05T09:29:06.000Z</time>
      </trkpt>
      <trkpt lat="49.85152" lon="4.81686">
        <ele>387</ele>
        <time>2022-09-05T09:29:07.000Z</time>
      </trkpt>
      <trkpt lat="49.85153" lon="4.81692">
        <ele>387</ele>
        <time>2022-09-05T09:29:08.000Z</time>
      </trkpt>
      <trkpt lat="49.85154" lon="4.81698">
        <ele>388</ele>
        <time>2022-09-05T09:29:09.000Z</time>
      </trkpt>
      <trkpt lat="49.85156" lon="4.81705">
        <ele>388</ele>
        <time>2022-09-05T09:29:10.000Z</time>
      </trkpt>
      <trkpt lat="49.85157" lon="4.81711">
        <ele>388</ele>
        <time>2022-09-05T09:29:11.000Z</time>
      </trkpt>
      <trkpt lat="49.8516" lon="4.81718">
        <ele>388</ele>
        <time>2022-09-05T09:29:12.000Z</time>
      </trkpt>
      <trkpt lat="49.85161" lon="4.81725">
        <ele>388</ele>
        <time>2022-09-05T09:29:13.000Z</time>
      </trkpt>
      <trkpt lat="49.85163" lon="4.81733">
        <ele>388</ele>
        <time>2022-09-05T09:29:14.000Z</time>
      </trkpt>
      <trkpt lat="49.85164" lon="4.81741">
        <ele>388</ele>
        <time>2022-09-05T09:29:15.000Z</time>
      </trkpt>
      <trkpt lat="49.85165" lon="4.81749">
        <ele>388</ele>
        <time>2022-09-05T09:29:16.000Z</time>
      </trkpt>
      <trkpt lat="49.85167" lon="4.81757">
        <ele>388</ele>
        <time>2022-09-05T09:29:17.000Z</time>
      </trkpt>
      <trkpt lat="49.85169" lon="4.81766">
        <ele>388</ele>
        <time>2022-09-05T09:29:18.000Z</time>
      </trkpt>
      <trkpt lat="49.85171" lon="4.81775">
        <ele>388</ele>
        <time>2022-09-05T09:29:19.000Z</time>
      </trkpt>
      <trkpt lat="49.85173" lon="4.81783">
        <ele>388</ele>
        <time>2022-09-05T09:29:20.000Z</time>
      </trkpt>
      <trkpt lat="49.85174" lon="4.81793">
        <ele>388</ele>
        <time>2022-09-05T09:29:21.000Z</time>
      </trkpt>
      <trkpt lat="49.85176" lon="4.81802">
        <ele>388</ele>
        <time>2022-09-05T09:29:22.000Z</time>
      </trkpt>
      <trkpt lat="49.85178" lon="4.81811">
        <ele>388</ele>
        <time>2022-09-05T09:29:23.000Z</time>
      </trkpt>
      <trkpt lat="49.85181" lon="4.8182">
        <ele>388</ele>
        <time>2022-09-05T09:29:24.000Z</time>
      </trkpt>
      <trkpt lat="49.85183" lon="4.8183">
        <ele>388</ele>
        <time>2022-09-05T09:29:25.000Z</time>
      </trkpt>
      <trkpt lat="49.85186" lon="4.81841">
        <ele>388</ele>
        <time>2022-09-05T09:29:26.000Z</time>
      </trkpt>
      <trkpt lat="49.85187" lon="4.81852">
        <ele>388</ele>
        <time>2022-09-05T09:29:27.000Z</time>
      </trkpt>
      <trkpt lat="49.85189" lon="4.81864">
        <ele>388</ele>
        <time>2022-09-05T09:29:28.000Z</time>
      </trkpt>
      <trkpt lat="49.8519" lon="4.81877">
        <ele>387</ele>
        <time>2022-09-05T09:29:29.000Z</time>
      </trkpt>
      <trkpt lat="49.85191" lon="4.81889">
        <ele>387</ele>
        <time>2022-09-05T09:29:30.000Z</time>
      </trkpt>
      <trkpt lat="49.85191" lon="4.81902">
        <ele>387</ele>
        <time>2022-09-05T09:29:31.000Z</time>
      </trkpt>
      <trkpt lat="49.85191" lon="4.81915">
        <ele>387</ele>
        <time>2022-09-05T09:29:32.000Z</time>
      </trkpt>
      <trkpt lat="49.85191" lon="4.81928">
        <ele>386</ele>
        <time>2022-09-05T09:29:33.000Z</time>
      </trkpt>
      <trkpt lat="49.8519" lon="4.81942">
        <ele>386</ele>
        <time>2022-09-05T09:29:34.000Z</time>
      </trkpt>
      <trkpt lat="49.8519" lon="4.81956">
        <ele>386</ele>
        <time>2022-09-05T09:29:35.000Z</time>
      </trkpt>
      <trkpt lat="49.85191" lon="4.81969">
        <ele>386</ele>
        <time>2022-09-05T09:29:36.000Z</time>
      </trkpt>
      <trkpt lat="49.85192" lon="4.81983">
        <ele>385</ele>
        <time>2022-09-05T09:29:37.000Z</time>
      </trkpt>
      <trkpt lat="49.85194" lon="4.81997">
        <ele>385</ele>
        <time>2022-09-05T09:29:38.000Z</time>
      </trkpt>
      <trkpt lat="49.85195" lon="4.82011">
        <ele>384</ele>
        <time>2022-09-05T09:29:39.000Z</time>
      </trkpt>
      <trkpt lat="49.85196" lon="4.82025">
        <ele>384</ele>
        <time>2022-09-05T09:29:40.000Z</time>
      </trkpt>
      <trkpt lat="49.85198" lon="4.82038">
        <ele>383</ele>
        <time>2022-09-05T09:29:41.000Z</time>
      </trkpt>
      <trkpt lat="49.85199" lon="4.82051">
        <ele>383</ele>
        <time>2022-09-05T09:29:42.000Z</time>
      </trkpt>
      <trkpt lat="49.85201" lon="4.82065">
        <ele>382</ele>
        <time>2022-09-05T09:29:43.000Z</time>
      </trkpt>
      <trkpt lat="49.85203" lon="4.82079">
        <ele>382</ele>
        <time>2022-09-05T09:29:44.000Z</time>
      </trkpt>
      <trkpt lat="49.85204" lon="4.82092">
        <ele>381</ele>
        <time>2022-09-05T09:29:45.000Z</time>
      </trkpt>
      <trkpt lat="49.85206" lon="4.82104">
        <ele>380</ele>
        <time>2022-09-05T09:29:46.000Z</time>
      </trkpt>
      <trkpt lat="49.85207" lon="4.82117">
        <ele>379</ele>
        <time>2022-09-05T09:29:47.000Z</time>
      </trkpt>
      <trkpt lat="49.85209" lon="4.8213">
        <ele>379</ele>
        <time>2022-09-05T09:29:48.000Z</time>
      </trkpt>
      <trkpt lat="49.8521" lon="4.82144">
        <ele>378</ele>
        <time>2022-09-05T09:29:49.000Z</time>
      </trkpt>
      <trkpt lat="49.85211" lon="4.82158">
        <ele>377</ele>
        <time>2022-09-05T09:29:50.000Z</time>
      </trkpt>
      <trkpt lat="49.85213" lon="4.82171">
        <ele>377</ele>
        <time>2022-09-05T09:29:51.000Z</time>
      </trkpt>
      <trkpt lat="49.85214" lon="4.82182">
        <ele>376</ele>
        <time>2022-09-05T09:29:52.000Z</time>
      </trkpt>
      <trkpt lat="49.85216" lon="4.82194">
        <ele>375</ele>
        <time>2022-09-05T09:29:53.000Z</time>
      </trkpt>
      <trkpt lat="49.85218" lon="4.82206">
        <ele>375</ele>
        <time>2022-09-05T09:29:54.000Z</time>
      </trkpt>
      <trkpt lat="49.85219" lon="4.8222">
        <ele>374</ele>
        <time>2022-09-05T09:29:55.000Z</time>
      </trkpt>
      <trkpt lat="49.8522" lon="4.82233">
        <ele>373</ele>
        <time>2022-09-05T09:29:56.000Z</time>
      </trkpt>
      <trkpt lat="49.8522" lon="4.82247">
        <ele>373</ele>
        <time>2022-09-05T09:29:57.000Z</time>
      </trkpt>
      <trkpt lat="49.85221" lon="4.8226">
        <ele>372</ele>
        <time>2022-09-05T09:29:58.000Z</time>
      </trkpt>
      <trkpt lat="49.85221" lon="4.82274">
        <ele>371</ele>
        <time>2022-09-05T09:29:59.000Z</time>
      </trkpt>
      <trkpt lat="49.85223" lon="4.82287">
        <ele>370</ele>
        <time>2022-09-05T09:30:00.000Z</time>
      </trkpt>
      <trkpt lat="49.85225" lon="4.823">
        <ele>369</ele>
        <time>2022-09-05T09:30:01.000Z</time>
      </trkpt>
      <trkpt lat="49.85227" lon="4.82313">
        <ele>369</ele>
        <time>2022-09-05T09:30:02.000Z</time>
      </trkpt>
      <trkpt lat="49.85229" lon="4.82325">
        <ele>368</ele>
        <time>2022-09-05T09:30:03.000Z</time>
      </trkpt>
      <trkpt lat="49.85231" lon="4.82338">
        <ele>367</ele>
        <time>2022-09-05T09:30:04.000Z</time>
      </trkpt>
      <trkpt lat="49.85232" lon="4.82351">
        <ele>366</ele>
        <time>2022-09-05T09:30:05.000Z</time>
      </trkpt>
      <trkpt lat="49.85233" lon="4.82364">
        <ele>365</ele>
        <time>2022-09-05T09:30:06.000Z</time>
      </trkpt>
      <trkpt lat="49.85234" lon="4.82376">
        <ele>365</ele>
        <time>2022-09-05T09:30:07.000Z</time>
      </trkpt>
      <trkpt lat="49.85234" lon="4.82386">
        <ele>364</ele>
        <time>2022-09-05T09:30:08.000Z</time>
      </trkpt>
      <trkpt lat="49.85233" lon="4.82395">
        <ele>363</ele>
        <time>2022-09-05T09:30:09.000Z</time>
      </trkpt>
      <trkpt lat="49.85232" lon="4.82403">
        <ele>362</ele>
        <time>2022-09-05T09:30:10.000Z</time>
      </trkpt>
      <trkpt lat="49.8523" lon="4.82411">
        <ele>362</ele>
        <time>2022-09-05T09:30:11.000Z</time>
      </trkpt>
      <trkpt lat="49.85227" lon="4.82418">
        <ele>361</ele>
        <time>2022-09-05T09:30:12.000Z</time>
      </trkpt>
      <trkpt lat="49.85226" lon="4.82426">
        <ele>361</ele>
        <time>2022-09-05T09:30:13.000Z</time>
      </trkpt>
      <trkpt lat="49.85224" lon="4.82433">
        <ele>361</ele>
        <time>2022-09-05T09:30:14.000Z</time>
      </trkpt>
      <trkpt lat="49.85223" lon="4.8244">
        <ele>360</ele>
        <time>2022-09-05T09:30:15.000Z</time>
      </trkpt>
      <trkpt lat="49.85222" lon="4.82445">
        <ele>360</ele>
        <time>2022-09-05T09:30:16.000Z</time>
      </trkpt>
      <trkpt lat="49.8522" lon="4.82451">
        <ele>360</ele>
        <time>2022-09-05T09:30:17.000Z</time>
      </trkpt>
      <trkpt lat="49.85219" lon="4.82456">
        <ele>360</ele>
        <time>2022-09-05T09:30:18.000Z</time>
      </trkpt>
      <trkpt lat="49.85217" lon="4.82461">
        <ele>359</ele>
        <time>2022-09-05T09:30:19.000Z</time>
      </trkpt>
      <trkpt lat="49.85215" lon="4.82465">
        <ele>359</ele>
        <time>2022-09-05T09:30:20.000Z</time>
      </trkpt>
      <trkpt lat="49.85214" lon="4.82469">
        <ele>359</ele>
        <time>2022-09-05T09:30:21.000Z</time>
      </trkpt>
      <trkpt lat="49.85213" lon="4.82473">
        <ele>359</ele>
        <time>2022-09-05T09:30:22.000Z</time>
      </trkpt>
      <trkpt lat="49.85211" lon="4.82477">
        <ele>359</ele>
        <time>2022-09-05T09:30:23.000Z</time>
      </trkpt>
      <trkpt lat="49.8521" lon="4.82481">
        <ele>360</ele>
        <time>2022-09-05T09:30:24.000Z</time>
      </trkpt>
      <trkpt lat="49.85209" lon="4.82485">
        <ele>360</ele>
        <time>2022-09-05T09:30:25.000Z</time>
      </trkpt>
      <trkpt lat="49.85207" lon="4.82489">
        <ele>360</ele>
        <time>2022-09-05T09:30:26.000Z</time>
      </trkpt>
      <trkpt lat="49.85206" lon="4.82492">
        <ele>360</ele>
        <time>2022-09-05T09:30:27.000Z</time>
      </trkpt>
      <trkpt lat="49.85205" lon="4.82494">
        <ele>360</ele>
        <time>2022-09-05T09:30:28.000Z</time>
      </trkpt>
      <trkpt lat="49.85204" lon="4.82496">
        <ele>361</ele>
        <time>2022-09-05T09:30:29.000Z</time>
      </trkpt>
      <trkpt lat="49.85204" lon="4.82498">
        <ele>361</ele>
        <time>2022-09-05T09:30:30.000Z</time>
      </trkpt>
      <trkpt lat="49.85203" lon="4.82501">
        <ele>361</ele>
        <time>2022-09-05T09:30:31.000Z</time>
      </trkpt>
      <trkpt lat="49.85201" lon="4.82504">
        <ele>362</ele>
        <time>2022-09-05T09:30:32.000Z</time>
      </trkpt>
      <trkpt lat="49.852" lon="4.82506">
        <ele>362</ele>
        <time>2022-09-05T09:30:33.000Z</time>
      </trkpt>
      <trkpt lat="49.85199" lon="4.82509">
        <ele>362</ele>
        <time>2022-09-05T09:30:34.000Z</time>
      </trkpt>
      <trkpt lat="49.85197" lon="4.82512">
        <ele>362</ele>
        <time>2022-09-05T09:30:35.000Z</time>
      </trkpt>
      <trkpt lat="49.85195" lon="4.82514">
        <ele>363</ele>
        <time>2022-09-05T09:30:36.000Z</time>
      </trkpt>
      <trkpt lat="49.85194" lon="4.82517">
        <ele>363</ele>
        <time>2022-09-05T09:30:37.000Z</time>
      </trkpt>
      <trkpt lat="49.85192" lon="4.82519">
        <ele>363</ele>
        <time>2022-09-05T09:30:38.000Z</time>
      </trkpt>
      <trkpt lat="49.85191" lon="4.82521">
        <ele>364</ele>
        <time>2022-09-05T09:30:39.000Z</time>
      </trkpt>
      <trkpt lat="49.85189" lon="4.82523">
        <ele>364</ele>
        <time>2022-09-05T09:30:40.000Z</time>
      </trkpt>
      <trkpt lat="49.85188" lon="4.82526">
        <ele>364</ele>
        <time>2022-09-05T09:30:41.000Z</time>
      </trkpt>
      <trkpt lat="49.85187" lon="4.82529">
        <ele>364</ele>
        <time>2022-09-05T09:30:42.000Z</time>
      </trkpt>
      <trkpt lat="49.85186" lon="4.82531">
        <ele>365</ele>
        <time>2022-09-05T09:30:43.000Z</time>
      </trkpt>
      <trkpt lat="49.85185" lon="4.82533">
        <ele>365</ele>
        <time>2022-09-05T09:30:44.000Z</time>
      </trkpt>
      <trkpt lat="49.85184" lon="4.82536">
        <ele>365</ele>
        <time>2022-09-05T09:30:45.000Z</time>
      </trkpt>
      <trkpt lat="49.85183" lon="4.82538">
        <ele>366</ele>
        <time>2022-09-05T09:30:46.000Z</time>
      </trkpt>
      <trkpt lat="49.85182" lon="4.8254">
        <ele>366</ele>
        <time>2022-09-05T09:30:47.000Z</time>
      </trkpt>
      <trkpt lat="49.85181" lon="4.82542">
        <ele>366</ele>
        <time>2022-09-05T09:30:48.000Z</time>
      </trkpt>
      <trkpt lat="49.8518" lon="4.82544">
        <ele>367</ele>
        <time>2022-09-05T09:30:49.000Z</time>
      </trkpt>
      <trkpt lat="49.85178" lon="4.82546">
        <ele>367</ele>
        <time>2022-09-05T09:30:50.000Z</time>
      </trkpt>
      <trkpt lat="49.85177" lon="4.82548">
        <ele>367</ele>
        <time>2022-09-05T09:30:51.000Z</time>
      </trkpt>
      <trkpt lat="49.85176" lon="4.8255">
        <ele>367</ele>
        <time>2022-09-05T09:30:52.000Z</time>
      </trkpt>
      <trkpt lat="49.85175" lon="4.82552">
        <ele>368</ele>
        <time>2022-09-05T09:30:53.000Z</time>
      </trkpt>
      <trkpt lat="49.85174" lon="4.82554">
        <ele>368</ele>
        <time>2022-09-05T09:30:54.000Z</time>
      </trkpt>
      <trkpt lat="49.85174" lon="4.82556">
        <ele>368</ele>
        <time>2022-09-05T09:30:55.000Z</time>
      </trkpt>
      <trkpt lat="49.85173" lon="4.82559">
        <ele>368</ele>
        <time>2022-09-05T09:30:56.000Z</time>
      </trkpt>
      <trkpt lat="49.85172" lon="4.8256">
        <ele>369</ele>
        <time>2022-09-05T09:30:57.000Z</time>
      </trkpt>
      <trkpt lat="49.85171" lon="4.82562">
        <ele>369</ele>
        <time>2022-09-05T09:30:58.000Z</time>
      </trkpt>
      <trkpt lat="49.8517" lon="4.82564">
        <ele>369</ele>
        <time>2022-09-05T09:30:59.000Z</time>
      </trkpt>
      <trkpt lat="49.85169" lon="4.82566">
        <ele>370</ele>
        <time>2022-09-05T09:31:00.000Z</time>
      </trkpt>
      <trkpt lat="49.85167" lon="4.82568">
        <ele>370</ele>
        <time>2022-09-05T09:31:01.000Z</time>
      </trkpt>
      <trkpt lat="49.85166" lon="4.8257">
        <ele>370</ele>
        <time>2022-09-05T09:31:02.000Z</time>
      </trkpt>
      <trkpt lat="49.85165" lon="4.82572">
        <ele>371</ele>
        <time>2022-09-05T09:31:03.000Z</time>
      </trkpt>
      <trkpt lat="49.85164" lon="4.82573">
        <ele>371</ele>
        <time>2022-09-05T09:31:04.000Z</time>
      </trkpt>
      <trkpt lat="49.85163" lon="4.82575">
        <ele>371</ele>
        <time>2022-09-05T09:31:05.000Z</time>
      </trkpt>
      <trkpt lat="49.85162" lon="4.82577">
        <ele>372</ele>
        <time>2022-09-05T09:31:06.000Z</time>
      </trkpt>
      <trkpt lat="49.85161" lon="4.82579">
        <ele>372</ele>
        <time>2022-09-05T09:31:07.000Z</time>
      </trkpt>
      <trkpt lat="49.8516" lon="4.82582">
        <ele>372</ele>
        <time>2022-09-05T09:31:08.000Z</time>
      </trkpt>
      <trkpt lat="49.85159" lon="4.82584">
        <ele>372</ele>
        <time>2022-09-05T09:31:09.000Z</time>
      </trkpt>
      <trkpt lat="49.85158" lon="4.82586">
        <ele>373</ele>
        <time>2022-09-05T09:31:10.000Z</time>
      </trkpt>
      <trkpt lat="49.85157" lon="4.82589">
        <ele>373</ele>
        <time>2022-09-05T09:31:11.000Z</time>
      </trkpt>
      <trkpt lat="49.85156" lon="4.82591">
        <ele>373</ele>
        <time>2022-09-05T09:31:12.000Z</time>
      </trkpt>
      <trkpt lat="49.85154" lon="4.82594">
        <ele>373</ele>
        <time>2022-09-05T09:31:13.000Z</time>
      </trkpt>
      <trkpt lat="49.85154" lon="4.82595">
        <ele>373</ele>
        <time>2022-09-05T09:31:14.000Z</time>
      </trkpt>
      <trkpt lat="49.85153" lon="4.82597">
        <ele>374</ele>
        <time>2022-09-05T09:31:15.000Z</time>
      </trkpt>
      <trkpt lat="49.85152" lon="4.82599">
        <ele>374</ele>
        <time>2022-09-05T09:31:16.000Z</time>
      </trkpt>
      <trkpt lat="49.85151" lon="4.82601">
        <ele>374</ele>
        <time>2022-09-05T09:31:17.000Z</time>
      </trkpt>
      <trkpt lat="49.8515" lon="4.82604">
        <ele>374</ele>
        <time>2022-09-05T09:31:18.000Z</time>
      </trkpt>
      <trkpt lat="49.85149" lon="4.82606">
        <ele>375</ele>
        <time>2022-09-05T09:31:19.000Z</time>
      </trkpt>
      <trkpt lat="49.85148" lon="4.82609">
        <ele>375</ele>
        <time>2022-09-05T09:31:20.000Z</time>
      </trkpt>
      <trkpt lat="49.85147" lon="4.82611">
        <ele>375</ele>
        <time>2022-09-05T09:31:21.000Z</time>
      </trkpt>
      <trkpt lat="49.85146" lon="4.82614">
        <ele>375</ele>
        <time>2022-09-05T09:31:22.000Z</time>
      </trkpt>
      <trkpt lat="49.85145" lon="4.82617">
        <ele>376</ele>
        <time>2022-09-05T09:31:23.000Z</time>
      </trkpt>
      <trkpt lat="49.85143" lon="4.82619">
        <ele>376</ele>
        <time>2022-09-05T09:31:24.000Z</time>
      </trkpt>
      <trkpt lat="49.85142" lon="4.82622">
        <ele>376</ele>
        <time>2022-09-05T09:31:25.000Z</time>
      </trkpt>
      <trkpt lat="49.85141" lon="4.82625">
        <ele>376</ele>
        <time>2022-09-05T09:31:26.000Z</time>
      </trkpt>
      <trkpt lat="49.8514" lon="4.82628">
        <ele>376</ele>
        <time>2022-09-05T09:31:27.000Z</time>
      </trkpt>
      <trkpt lat="49.85139" lon="4.82631">
        <ele>377</ele>
        <time>2022-09-05T09:31:28.000Z</time>
      </trkpt>
      <trkpt lat="49.85137" lon="4.82633">
        <ele>377</ele>
        <time>2022-09-05T09:31:29.000Z</time>
      </trkpt>
      <trkpt lat="49.85136" lon="4.82636">
        <ele>377</ele>
        <time>2022-09-05T09:31:30.000Z</time>
      </trkpt>
      <trkpt lat="49.85136" lon="4.82638">
        <ele>377</ele>
        <time>2022-09-05T09:31:31.000Z</time>
      </trkpt>
      <trkpt lat="49.85134" lon="4.82641">
        <ele>377</ele>
        <time>2022-09-05T09:31:32.000Z</time>
      </trkpt>
      <trkpt lat="49.85133" lon="4.82644">
        <ele>377</ele>
        <time>2022-09-05T09:31:33.000Z</time>
      </trkpt>
      <trkpt lat="49.85131" lon="4.82647">
        <ele>377</ele>
        <time>2022-09-05T09:31:34.000Z</time>
      </trkpt>
      <trkpt lat="49.8513" lon="4.8265">
        <ele>377</ele>
        <time>2022-09-05T09:31:35.000Z</time>
      </trkpt>
      <trkpt lat="49.8513" lon="4.82654">
        <ele>377</ele>
        <time>2022-09-05T09:31:36.000Z</time>
      </trkpt>
      <trkpt lat="49.85128" lon="4.82658">
        <ele>378</ele>
        <time>2022-09-05T09:31:37.000Z</time>
      </trkpt>
      <trkpt lat="49.85126" lon="4.82661">
        <ele>378</ele>
        <time>2022-09-05T09:31:38.000Z</time>
      </trkpt>
      <trkpt lat="49.85124" lon="4.82663">
        <ele>378</ele>
        <time>2022-09-05T09:31:39.000Z</time>
      </trkpt>
      <trkpt lat="49.85123" lon="4.82666">
        <ele>378</ele>
        <time>2022-09-05T09:31:40.000Z</time>
      </trkpt>
      <trkpt lat="49.85121" lon="4.8267">
        <ele>378</ele>
        <time>2022-09-05T09:31:41.000Z</time>
      </trkpt>
      <trkpt lat="49.85119" lon="4.82673">
        <ele>378</ele>
        <time>2022-09-05T09:31:42.000Z</time>
      </trkpt>
      <trkpt lat="49.85117" lon="4.82674">
        <ele>378</ele>
        <time>2022-09-05T09:31:43.000Z</time>
      </trkpt>
      <trkpt lat="49.85115" lon="4.82676">
        <ele>378</ele>
        <time>2022-09-05T09:31:44.000Z</time>
      </trkpt>
      <trkpt lat="49.85112" lon="4.82678">
        <ele>378</ele>
        <time>2022-09-05T09:31:45.000Z</time>
      </trkpt>
      <trkpt lat="49.8511" lon="4.8268">
        <ele>379</ele>
        <time>2022-09-05T09:31:46.000Z</time>
      </trkpt>
      <trkpt lat="49.85108" lon="4.82683">
        <ele>379</ele>
        <time>2022-09-05T09:31:47.000Z</time>
      </trkpt>
      <trkpt lat="49.85106" lon="4.82687">
        <ele>379</ele>
        <time>2022-09-05T09:31:48.000Z</time>
      </trkpt>
      <trkpt lat="49.85104" lon="4.82691">
        <ele>379</ele>
        <time>2022-09-05T09:31:49.000Z</time>
      </trkpt>
      <trkpt lat="49.85103" lon="4.82696">
        <ele>379</ele>
        <time>2022-09-05T09:31:50.000Z</time>
      </trkpt>
      <trkpt lat="49.85102" lon="4.82701">
        <ele>379</ele>
        <time>2022-09-05T09:31:51.000Z</time>
      </trkpt>
      <trkpt lat="49.85102" lon="4.82707">
        <ele>379</ele>
        <time>2022-09-05T09:31:52.000Z</time>
      </trkpt>
      <trkpt lat="49.85102" lon="4.82713">
        <ele>379</ele>
        <time>2022-09-05T09:31:53.000Z</time>
      </trkpt>
      <trkpt lat="49.85101" lon="4.82719">
        <ele>379</ele>
        <time>2022-09-05T09:31:54.000Z</time>
      </trkpt>
      <trkpt lat="49.851" lon="4.82725">
        <ele>379</ele>
        <time>2022-09-05T09:31:55.000Z</time>
      </trkpt>
      <trkpt lat="49.85098" lon="4.8273">
        <ele>379</ele>
        <time>2022-09-05T09:31:56.000Z</time>
      </trkpt>
      <trkpt lat="49.85095" lon="4.82734">
        <ele>379</ele>
        <time>2022-09-05T09:31:57.000Z</time>
      </trkpt>
      <trkpt lat="49.85092" lon="4.82737">
        <ele>379</ele>
        <time>2022-09-05T09:31:58.000Z</time>
      </trkpt>
      <trkpt lat="49.85089" lon="4.82739">
        <ele>379</ele>
        <time>2022-09-05T09:31:59.000Z</time>
      </trkpt>
      <trkpt lat="49.85085" lon="4.82742">
        <ele>379</ele>
        <time>2022-09-05T09:32:00.000Z</time>
      </trkpt>
      <trkpt lat="49.85082" lon="4.82747">
        <ele>379</ele>
        <time>2022-09-05T09:32:01.000Z</time>
      </trkpt>
      <trkpt lat="49.85078" lon="4.82751">
        <ele>379</ele>
        <time>2022-09-05T09:32:02.000Z</time>
      </trkpt>
      <trkpt lat="49.85074" lon="4.82754">
        <ele>379</ele>
        <time>2022-09-05T09:32:03.000Z</time>
      </trkpt>
      <trkpt lat="49.85071" lon="4.82756">
        <ele>379</ele>
        <time>2022-09-05T09:32:04.000Z</time>
      </trkpt>
      <trkpt lat="49.85068" lon="4.82758">
        <ele>379</ele>
        <time>2022-09-05T09:32:05.000Z</time>
      </trkpt>
      <trkpt lat="49.85066" lon="4.8276">
        <ele>380</ele>
        <time>2022-09-05T09:32:06.000Z</time>
      </trkpt>
      <trkpt lat="49.85066" lon="4.82762">
        <ele>380</ele>
        <time>2022-09-05T09:32:07.000Z</time>
      </trkpt>
      <trkpt lat="49.85065" lon="4.82764">
        <ele>380</ele>
        <time>2022-09-05T09:32:08.000Z</time>
      </trkpt>
      <trkpt lat="49.85064" lon="4.82767">
        <ele>380</ele>
        <time>2022-09-05T09:32:09.000Z</time>
      </trkpt>
      <trkpt lat="49.85062" lon="4.8277">
        <ele>380</ele>
        <time>2022-09-05T09:32:10.000Z</time>
      </trkpt>
      <trkpt lat="49.8506" lon="4.82774">
        <ele>380</ele>
        <time>2022-09-05T09:32:11.000Z</time>
      </trkpt>
      <trkpt lat="49.85057" lon="4.82778">
        <ele>380</ele>
        <time>2022-09-05T09:32:12.000Z</time>
      </trkpt>
      <trkpt lat="49.85053" lon="4.82781">
        <ele>380</ele>
        <time>2022-09-05T09:32:13.000Z</time>
      </trkpt>
      <trkpt lat="49.8505" lon="4.82785">
        <ele>380</ele>
        <time>2022-09-05T09:32:14.000Z</time>
      </trkpt>
      <trkpt lat="49.85047" lon="4.82789">
        <ele>380</ele>
        <time>2022-09-05T09:32:15.000Z</time>
      </trkpt>
      <trkpt lat="49.85044" lon="4.82792">
        <ele>380</ele>
        <time>2022-09-05T09:32:16.000Z</time>
      </trkpt>
      <trkpt lat="49.85042" lon="4.82795">
        <ele>380</ele>
        <time>2022-09-05T09:32:17.000Z</time>
      </trkpt>
      <trkpt lat="49.8504" lon="4.82797">
        <ele>380</ele>
        <time>2022-09-05T09:32:18.000Z</time>
      </trkpt>
      <trkpt lat="49.85039" lon="4.82799">
        <ele>381</ele>
        <time>2022-09-05T09:32:19.000Z</time>
      </trkpt>
      <trkpt lat="49.85037" lon="4.82801">
        <ele>381</ele>
        <time>2022-09-05T09:32:20.000Z</time>
      </trkpt>
      <trkpt lat="49.85036" lon="4.82803">
        <ele>381</ele>
        <time>2022-09-05T09:32:21.000Z</time>
      </trkpt>
      <trkpt lat="49.85034" lon="4.82804">
        <ele>381</ele>
        <time>2022-09-05T09:32:22.000Z</time>
      </trkpt>
      <trkpt lat="49.85031" lon="4.82806">
        <ele>381</ele>
        <time>2022-09-05T09:32:23.000Z</time>
      </trkpt>
      <trkpt lat="49.85029" lon="4.82808">
        <ele>381</ele>
        <time>2022-09-05T09:32:24.000Z</time>
      </trkpt>
      <trkpt lat="49.85027" lon="4.8281">
        <ele>381</ele>
        <time>2022-09-05T09:32:25.000Z</time>
      </trkpt>
      <trkpt lat="49.85025" lon="4.82811">
        <ele>381</ele>
        <time>2022-09-05T09:32:26.000Z</time>
      </trkpt>
      <trkpt lat="49.85022" lon="4.82814">
        <ele>381</ele>
        <time>2022-09-05T09:32:27.000Z</time>
      </trkpt>
      <trkpt lat="49.8502" lon="4.82817">
        <ele>381</ele>
        <time>2022-09-05T09:32:28.000Z</time>
      </trkpt>
      <trkpt lat="49.85018" lon="4.82818">
        <ele>381</ele>
        <time>2022-09-05T09:32:29.000Z</time>
      </trkpt>
      <trkpt lat="49.85016" lon="4.8282">
        <ele>381</ele>
        <time>2022-09-05T09:32:30.000Z</time>
      </trkpt>
      <trkpt lat="49.85015" lon="4.82822">
        <ele>382</ele>
        <time>2022-09-05T09:32:31.000Z</time>
      </trkpt>
      <trkpt lat="49.85012" lon="4.82823">
        <ele>382</ele>
        <time>2022-09-05T09:32:32.000Z</time>
      </trkpt>
      <trkpt lat="49.8501" lon="4.82825">
        <ele>382</ele>
        <time>2022-09-05T09:32:33.000Z</time>
      </trkpt>
      <trkpt lat="49.85008" lon="4.82826">
        <ele>382</ele>
        <time>2022-09-05T09:32:34.000Z</time>
      </trkpt>
      <trkpt lat="49.85005" lon="4.82828">
        <ele>382</ele>
        <time>2022-09-05T09:32:35.000Z</time>
      </trkpt>
      <trkpt lat="49.85003" lon="4.8283">
        <ele>382</ele>
        <time>2022-09-05T09:32:36.000Z</time>
      </trkpt>
      <trkpt lat="49.85002" lon="4.82833">
        <ele>382</ele>
        <time>2022-09-05T09:32:37.000Z</time>
      </trkpt>
      <trkpt lat="49.85" lon="4.82835">
        <ele>382</ele>
        <time>2022-09-05T09:32:38.000Z</time>
      </trkpt>
      <trkpt lat="49.85" lon="4.82837">
        <ele>382</ele>
        <time>2022-09-05T09:32:39.000Z</time>
      </trkpt>
      <trkpt lat="49.84999" lon="4.82838">
        <ele>382</ele>
        <time>2022-09-05T09:32:40.000Z</time>
      </trkpt>
      <trkpt lat="49.84999" lon="4.82839">
        <ele>382</ele>
        <time>2022-09-05T09:32:41.000Z</time>
      </trkpt>
      <trkpt lat="49.84999" lon="4.8284">
        <ele>382</ele>
        <time>2022-09-05T09:32:42.000Z</time>
      </trkpt>
      <trkpt lat="49.84999" lon="4.82841">
        <ele>382</ele>
        <time>2022-09-05T09:32:43.000Z</time>
      </trkpt>
      <trkpt lat="49.84999" lon="4.82842">
        <ele>382</ele>
        <time>2022-09-05T09:32:44.000Z</time>
      </trkpt>
      <trkpt lat="49.84999" lon="4.82842">
        <ele>382</ele>
        <time>2022-09-05T09:32:45.000Z</time>
      </trkpt>
      <trkpt lat="49.84999" lon="4.82844">
        <ele>382</ele>
        <time>2022-09-05T09:32:46.000Z</time>
      </trkpt>
      <trkpt lat="49.84998" lon="4.82845">
        <ele>382</ele>
        <time>2022-09-05T09:32:47.000Z</time>
      </trkpt>
      <trkpt lat="49.84998" lon="4.82846">
        <ele>382</ele>
        <time>2022-09-05T09:32:48.000Z</time>
      </trkpt>
      <trkpt lat="49.84998" lon="4.82846">
        <ele>382</ele>
        <time>2022-09-05T09:32:49.000Z</time>
      </trkpt>
      <trkpt lat="49.84998" lon="4.82846">
        <ele>382</ele>
        <time>2022-09-05T09:32:50.000Z</time>
      </trkpt>
      <trkpt lat="49.84998" lon="4.82847">
        <ele>382</ele>
        <time>2022-09-05T09:32:51.000Z</time>
      </trkpt>
      <trkpt lat="49.84998" lon="4.82847">
        <ele>382</ele>
        <time>2022-09-05T09:32:52.000Z</time>
      </trkpt>
      <trkpt lat="49.84998" lon="4.82847">
        <ele>382</ele>
        <time>2022-09-05T09:32:53.000Z</time>
      </trkpt>
      <trkpt lat="49.84998" lon="4.82848">
        <ele>381</ele>
        <time>2022-09-05T09:32:54.000Z</time>
      </trkpt>
      <trkpt lat="49.84997" lon="4.82849">
        <ele>381</ele>
        <time>2022-09-05T09:32:55.000Z</time>
      </trkpt>
      <trkpt lat="49.84996" lon="4.82851">
        <ele>381</ele>
        <time>2022-09-05T09:32:56.000Z</time>
      </trkpt>
      <trkpt lat="49.84995" lon="4.82853">
        <ele>381</ele>
        <time>2022-09-05T09:32:57.000Z</time>
      </trkpt>
      <trkpt lat="49.84993" lon="4.82855">
        <ele>381</ele>
        <time>2022-09-05T09:32:58.000Z</time>
      </trkpt>
      <trkpt lat="49.84991" lon="4.82859">
        <ele>381</ele>
        <time>2022-09-05T09:32:59.000Z</time>
      </trkpt>
      <trkpt lat="49.84987" lon="4.82862">
        <ele>380</ele>
        <time>2022-09-05T09:33:00.000Z</time>
      </trkpt>
      <trkpt lat="49.84984" lon="4.82865">
        <ele>380</ele>
        <time>2022-09-05T09:33:01.000Z</time>
      </trkpt>
      <trkpt lat="49.8498" lon="4.82868">
        <ele>380</ele>
        <time>2022-09-05T09:33:02.000Z</time>
      </trkpt>
      <trkpt lat="49.84975" lon="4.82871">
        <ele>380</ele>
        <time>2022-09-05T09:33:03.000Z</time>
      </trkpt>
      <trkpt lat="49.84971" lon="4.82875">
        <ele>380</ele>
        <time>2022-09-05T09:33:04.000Z</time>
      </trkpt>
      <trkpt lat="49.84967" lon="4.82878">
        <ele>379</ele>
        <time>2022-09-05T09:33:05.000Z</time>
      </trkpt>
      <trkpt lat="49.84965" lon="4.8288">
        <ele>379</ele>
        <time>2022-09-05T09:33:06.000Z</time>
      </trkpt>
      <trkpt lat="49.84962" lon="4.82881">
        <ele>379</ele>
        <time>2022-09-05T09:33:07.000Z</time>
      </trkpt>
      <trkpt lat="49.8496" lon="4.82883">
        <ele>379</ele>
        <time>2022-09-05T09:33:08.000Z</time>
      </trkpt>
      <trkpt lat="49.84958" lon="4.82884">
        <ele>379</ele>
        <time>2022-09-05T09:33:09.000Z</time>
      </trkpt>
      <trkpt lat="49.84956" lon="4.82887">
        <ele>379</ele>
        <time>2022-09-05T09:33:10.000Z</time>
      </trkpt>
      <trkpt lat="49.84956" lon="4.82891">
        <ele>378</ele>
        <time>2022-09-05T09:33:11.000Z</time>
      </trkpt>
      <trkpt lat="49.84955" lon="4.82895">
        <ele>378</ele>
        <time>2022-09-05T09:33:12.000Z</time>
      </trkpt>
      <trkpt lat="49.84954" lon="4.829">
        <ele>378</ele>
        <time>2022-09-05T09:33:13.000Z</time>
      </trkpt>
      <trkpt lat="49.84954" lon="4.82904">
        <ele>378</ele>
        <time>2022-09-05T09:33:14.000Z</time>
      </trkpt>
      <trkpt lat="49.84954" lon="4.82907">
        <ele>378</ele>
        <time>2022-09-05T09:33:15.000Z</time>
      </trkpt>
      <trkpt lat="49.84954" lon="4.82912">
        <ele>377</ele>
        <time>2022-09-05T09:33:16.000Z</time>
      </trkpt>
      <trkpt lat="49.84955" lon="4.82917">
        <ele>377</ele>
        <time>2022-09-05T09:33:17.000Z</time>
      </trkpt>
      <trkpt lat="49.84954" lon="4.82922">
        <ele>377</ele>
        <time>2022-09-05T09:33:18.000Z</time>
      </trkpt>
      <trkpt lat="49.84952" lon="4.82927">
        <ele>377</ele>
        <time>2022-09-05T09:33:19.000Z</time>
      </trkpt>
      <trkpt lat="49.8495" lon="4.82934">
        <ele>376</ele>
        <time>2022-09-05T09:33:20.000Z</time>
      </trkpt>
      <trkpt lat="49.84948" lon="4.8294">
        <ele>376</ele>
        <time>2022-09-05T09:33:21.000Z</time>
      </trkpt>
      <trkpt lat="49.84945" lon="4.82946">
        <ele>376</ele>
        <time>2022-09-05T09:33:22.000Z</time>
      </trkpt>
      <trkpt lat="49.84941" lon="4.82951">
        <ele>376</ele>
        <time>2022-09-05T09:33:23.000Z</time>
      </trkpt>
      <trkpt lat="49.84937" lon="4.82957">
        <ele>376</ele>
        <time>2022-09-05T09:33:24.000Z</time>
      </trkpt>
      <trkpt lat="49.84934" lon="4.82965">
        <ele>376</ele>
        <time>2022-09-05T09:33:25.000Z</time>
      </trkpt>
      <trkpt lat="49.84931" lon="4.82973">
        <ele>375</ele>
        <time>2022-09-05T09:33:26.000Z</time>
      </trkpt>
      <trkpt lat="49.84927" lon="4.8298">
        <ele>375</ele>
        <time>2022-09-05T09:33:27.000Z</time>
      </trkpt>
      <trkpt lat="49.84924" lon="4.82987">
        <ele>375</ele>
        <time>2022-09-05T09:33:28.000Z</time>
      </trkpt>
      <trkpt lat="49.8492" lon="4.82995">
        <ele>375</ele>
        <time>2022-09-05T09:33:29.000Z</time>
      </trkpt>
      <trkpt lat="49.84916" lon="4.83002">
        <ele>375</ele>
        <time>2022-09-05T09:33:30.000Z</time>
      </trkpt>
      <trkpt lat="49.84912" lon="4.8301">
        <ele>374</ele>
        <time>2022-09-05T09:33:31.000Z</time>
      </trkpt>
      <trkpt lat="49.84908" lon="4.83017">
        <ele>374</ele>
        <time>2022-09-05T09:33:32.000Z</time>
      </trkpt>
      <trkpt lat="49.84903" lon="4.83023">
        <ele>374</ele>
        <time>2022-09-05T09:33:33.000Z</time>
      </trkpt>
      <trkpt lat="49.84899" lon="4.8303">
        <ele>374</ele>
        <time>2022-09-05T09:33:34.000Z</time>
      </trkpt>
      <trkpt lat="49.84894" lon="4.83037">
        <ele>374</ele>
        <time>2022-09-05T09:33:35.000Z</time>
      </trkpt>
      <trkpt lat="49.8489" lon="4.83044">
        <ele>373</ele>
        <time>2022-09-05T09:33:36.000Z</time>
      </trkpt>
      <trkpt lat="49.84887" lon="4.8305">
        <ele>373</ele>
        <time>2022-09-05T09:33:37.000Z</time>
      </trkpt>
      <trkpt lat="49.84882" lon="4.83056">
        <ele>373</ele>
        <time>2022-09-05T09:33:38.000Z</time>
      </trkpt>
      <trkpt lat="49.84878" lon="4.83063">
        <ele>372</ele>
        <time>2022-09-05T09:33:39.000Z</time>
      </trkpt>
      <trkpt lat="49.84873" lon="4.8307">
        <ele>372</ele>
        <time>2022-09-05T09:33:40.000Z</time>
      </trkpt>
      <trkpt lat="49.8487" lon="4.83076">
        <ele>372</ele>
        <time>2022-09-05T09:33:41.000Z</time>
      </trkpt>
      <trkpt lat="49.84866" lon="4.83082">
        <ele>372</ele>
        <time>2022-09-05T09:33:42.000Z</time>
      </trkpt>
      <trkpt lat="49.84862" lon="4.83088">
        <ele>371</ele>
        <time>2022-09-05T09:33:43.000Z</time>
      </trkpt>
      <trkpt lat="49.84859" lon="4.83093">
        <ele>371</ele>
        <time>2022-09-05T09:33:44.000Z</time>
      </trkpt>
      <trkpt lat="49.84855" lon="4.83098">
        <ele>371</ele>
        <time>2022-09-05T09:33:45.000Z</time>
      </trkpt>
      <trkpt lat="49.84852" lon="4.83104">
        <ele>371</ele>
        <time>2022-09-05T09:33:46.000Z</time>
      </trkpt>
      <trkpt lat="49.84848" lon="4.8311">
        <ele>370</ele>
        <time>2022-09-05T09:33:47.000Z</time>
      </trkpt>
      <trkpt lat="49.84845" lon="4.83116">
        <ele>370</ele>
        <time>2022-09-05T09:33:48.000Z</time>
      </trkpt>
      <trkpt lat="49.84842" lon="4.83121">
        <ele>370</ele>
        <time>2022-09-05T09:33:49.000Z</time>
      </trkpt>
      <trkpt lat="49.84839" lon="4.83126">
        <ele>369</ele>
        <time>2022-09-05T09:33:50.000Z</time>
      </trkpt>
      <trkpt lat="49.84835" lon="4.83132">
        <ele>369</ele>
        <time>2022-09-05T09:33:51.000Z</time>
      </trkpt>
      <trkpt lat="49.84832" lon="4.83138">
        <ele>369</ele>
        <time>2022-09-05T09:33:52.000Z</time>
      </trkpt>
      <trkpt lat="49.84828" lon="4.83144">
        <ele>368</ele>
        <time>2022-09-05T09:33:53.000Z</time>
      </trkpt>
      <trkpt lat="49.84825" lon="4.83148">
        <ele>368</ele>
        <time>2022-09-05T09:33:54.000Z</time>
      </trkpt>
      <trkpt lat="49.84821" lon="4.83153">
        <ele>368</ele>
        <time>2022-09-05T09:33:55.000Z</time>
      </trkpt>
      <trkpt lat="49.84818" lon="4.83157">
        <ele>368</ele>
        <time>2022-09-05T09:33:56.000Z</time>
      </trkpt>
      <trkpt lat="49.84815" lon="4.83162">
        <ele>367</ele>
        <time>2022-09-05T09:33:57.000Z</time>
      </trkpt>
      <trkpt lat="49.84812" lon="4.83167">
        <ele>367</ele>
        <time>2022-09-05T09:33:58.000Z</time>
      </trkpt>
      <trkpt lat="49.84808" lon="4.83172">
        <ele>367</ele>
        <time>2022-09-05T09:33:59.000Z</time>
      </trkpt>
      <trkpt lat="49.84805" lon="4.83177">
        <ele>367</ele>
        <time>2022-09-05T09:34:00.000Z</time>
      </trkpt>
      <trkpt lat="49.84803" lon="4.83182">
        <ele>367</ele>
        <time>2022-09-05T09:34:01.000Z</time>
      </trkpt>
      <trkpt lat="49.848" lon="4.83187">
        <ele>367</ele>
        <time>2022-09-05T09:34:02.000Z</time>
      </trkpt>
      <trkpt lat="49.84797" lon="4.83192">
        <ele>366</ele>
        <time>2022-09-05T09:34:03.000Z</time>
      </trkpt>
      <trkpt lat="49.84794" lon="4.83196">
        <ele>366</ele>
        <time>2022-09-05T09:34:04.000Z</time>
      </trkpt>
      <trkpt lat="49.8479" lon="4.83201">
        <ele>366</ele>
        <time>2022-09-05T09:34:05.000Z</time>
      </trkpt>
      <trkpt lat="49.84786" lon="4.83206">
        <ele>366</ele>
        <time>2022-09-05T09:34:06.000Z</time>
      </trkpt>
      <trkpt lat="49.84783" lon="4.83211">
        <ele>365</ele>
        <time>2022-09-05T09:34:07.000Z</time>
      </trkpt>
      <trkpt lat="49.84781" lon="4.83216">
        <ele>365</ele>
        <time>2022-09-05T09:34:08.000Z</time>
      </trkpt>
      <trkpt lat="49.84779" lon="4.83222">
        <ele>365</ele>
        <time>2022-09-05T09:34:09.000Z</time>
      </trkpt>
      <trkpt lat="49.84778" lon="4.83227">
        <ele>365</ele>
        <time>2022-09-05T09:34:10.000Z</time>
      </trkpt>
      <trkpt lat="49.84777" lon="4.83232">
        <ele>365</ele>
        <time>2022-09-05T09:34:11.000Z</time>
      </trkpt>
      <trkpt lat="49.84776" lon="4.83237">
        <ele>364</ele>
        <time>2022-09-05T09:34:12.000Z</time>
      </trkpt>
      <trkpt lat="49.84774" lon="4.83242">
        <ele>364</ele>
        <time>2022-09-05T09:34:13.000Z</time>
      </trkpt>
      <trkpt lat="49.84774" lon="4.83248">
        <ele>364</ele>
        <time>2022-09-05T09:34:14.000Z</time>
      </trkpt>
      <trkpt lat="49.84773" lon="4.83255">
        <ele>364</ele>
        <time>2022-09-05T09:34:15.000Z</time>
      </trkpt>
      <trkpt lat="49.84774" lon="4.83262">
        <ele>364</ele>
        <time>2022-09-05T09:34:16.000Z</time>
      </trkpt>
      <trkpt lat="49.84775" lon="4.83268">
        <ele>364</ele>
        <time>2022-09-05T09:34:17.000Z</time>
      </trkpt>
      <trkpt lat="49.84777" lon="4.83274">
        <ele>364</ele>
        <time>2022-09-05T09:34:18.000Z</time>
      </trkpt>
      <trkpt lat="49.84779" lon="4.83281">
        <ele>364</ele>
        <time>2022-09-05T09:34:19.000Z</time>
      </trkpt>
      <trkpt lat="49.8478" lon="4.83289">
        <ele>364</ele>
        <time>2022-09-05T09:34:20.000Z</time>
      </trkpt>
      <trkpt lat="49.8478" lon="4.83298">
        <ele>364</ele>
        <time>2022-09-05T09:34:21.000Z</time>
      </trkpt>
      <trkpt lat="49.84781" lon="4.83306">
        <ele>363</ele>
        <time>2022-09-05T09:34:22.000Z</time>
      </trkpt>
      <trkpt lat="49.84782" lon="4.83316">
        <ele>363</ele>
        <time>2022-09-05T09:34:23.000Z</time>
      </trkpt>
      <trkpt lat="49.84783" lon="4.83327">
        <ele>363</ele>
        <time>2022-09-05T09:34:24.000Z</time>
      </trkpt>
      <trkpt lat="49.84784" lon="4.83338">
        <ele>363</ele>
        <time>2022-09-05T09:34:25.000Z</time>
      </trkpt>
      <trkpt lat="49.84784" lon="4.83349">
        <ele>362</ele>
        <time>2022-09-05T09:34:26.000Z</time>
      </trkpt>
      <trkpt lat="49.84784" lon="4.83361">
        <ele>362</ele>
        <time>2022-09-05T09:34:27.000Z</time>
      </trkpt>
      <trkpt lat="49.84784" lon="4.83371">
        <ele>362</ele>
        <time>2022-09-05T09:34:28.000Z</time>
      </trkpt>
      <trkpt lat="49.84784" lon="4.83382">
        <ele>361</ele>
        <time>2022-09-05T09:34:29.000Z</time>
      </trkpt>
      <trkpt lat="49.84784" lon="4.83393">
        <ele>361</ele>
        <time>2022-09-05T09:34:30.000Z</time>
      </trkpt>
      <trkpt lat="49.84785" lon="4.83404">
        <ele>361</ele>
        <time>2022-09-05T09:34:31.000Z</time>
      </trkpt>
      <trkpt lat="49.84786" lon="4.83415">
        <ele>360</ele>
        <time>2022-09-05T09:34:32.000Z</time>
      </trkpt>
      <trkpt lat="49.84787" lon="4.83428">
        <ele>360</ele>
        <time>2022-09-05T09:34:33.000Z</time>
      </trkpt>
      <trkpt lat="49.84787" lon="4.83441">
        <ele>359</ele>
        <time>2022-09-05T09:34:34.000Z</time>
      </trkpt>
      <trkpt lat="49.84786" lon="4.83455">
        <ele>359</ele>
        <time>2022-09-05T09:34:35.000Z</time>
      </trkpt>
      <trkpt lat="49.84786" lon="4.83467">
        <ele>358</ele>
        <time>2022-09-05T09:34:36.000Z</time>
      </trkpt>
      <trkpt lat="49.84786" lon="4.83476">
        <ele>358</ele>
        <time>2022-09-05T09:34:37.000Z</time>
      </trkpt>
      <trkpt lat="49.84786" lon="4.83483">
        <ele>357</ele>
        <time>2022-09-05T09:34:38.000Z</time>
      </trkpt>
      <trkpt lat="49.84786" lon="4.8349">
        <ele>357</ele>
        <time>2022-09-05T09:34:39.000Z</time>
      </trkpt>
      <trkpt lat="49.84786" lon="4.83497">
        <ele>356</ele>
        <time>2022-09-05T09:34:40.000Z</time>
      </trkpt>
      <trkpt lat="49.84786" lon="4.83505">
        <ele>356</ele>
        <time>2022-09-05T09:34:41.000Z</time>
      </trkpt>
      <trkpt lat="49.84786" lon="4.83511">
        <ele>356</ele>
        <time>2022-09-05T09:34:42.000Z</time>
      </trkpt>
      <trkpt lat="49.84786" lon="4.83519">
        <ele>355</ele>
        <time>2022-09-05T09:34:43.000Z</time>
      </trkpt>
      <trkpt lat="49.84785" lon="4.83527">
        <ele>355</ele>
        <time>2022-09-05T09:34:44.000Z</time>
      </trkpt>
      <trkpt lat="49.84785" lon="4.83534">
        <ele>355</ele>
        <time>2022-09-05T09:34:45.000Z</time>
      </trkpt>
      <trkpt lat="49.84786" lon="4.83541">
        <ele>355</ele>
        <time>2022-09-05T09:34:46.000Z</time>
      </trkpt>
      <trkpt lat="49.84785" lon="4.83549">
        <ele>354</ele>
        <time>2022-09-05T09:34:47.000Z</time>
      </trkpt>
      <trkpt lat="49.84785" lon="4.83556">
        <ele>354</ele>
        <time>2022-09-05T09:34:48.000Z</time>
      </trkpt>
      <trkpt lat="49.84784" lon="4.83564">
        <ele>354</ele>
        <time>2022-09-05T09:34:49.000Z</time>
      </trkpt>
      <trkpt lat="49.84784" lon="4.8357">
        <ele>354</ele>
        <time>2022-09-05T09:34:50.000Z</time>
      </trkpt>
      <trkpt lat="49.84783" lon="4.83577">
        <ele>353</ele>
        <time>2022-09-05T09:34:51.000Z</time>
      </trkpt>
      <trkpt lat="49.84783" lon="4.83584">
        <ele>353</ele>
        <time>2022-09-05T09:34:52.000Z</time>
      </trkpt>
      <trkpt lat="49.84782" lon="4.83591">
        <ele>353</ele>
        <time>2022-09-05T09:34:53.000Z</time>
      </trkpt>
      <trkpt lat="49.84781" lon="4.83598">
        <ele>353</ele>
        <time>2022-09-05T09:34:54.000Z</time>
      </trkpt>
      <trkpt lat="49.8478" lon="4.83606">
        <ele>353</ele>
        <time>2022-09-05T09:34:55.000Z</time>
      </trkpt>
      <trkpt lat="49.8478" lon="4.83613">
        <ele>352</ele>
        <time>2022-09-05T09:34:56.000Z</time>
      </trkpt>
      <trkpt lat="49.8478" lon="4.83621">
        <ele>352</ele>
        <time>2022-09-05T09:34:57.000Z</time>
      </trkpt>
      <trkpt lat="49.84781" lon="4.83629">
        <ele>352</ele>
        <time>2022-09-05T09:34:58.000Z</time>
      </trkpt>
      <trkpt lat="49.84781" lon="4.83637">
        <ele>352</ele>
        <time>2022-09-05T09:34:59.000Z</time>
      </trkpt>
      <trkpt lat="49.84782" lon="4.83645">
        <ele>352</ele>
        <time>2022-09-05T09:35:00.000Z</time>
      </trkpt>
      <trkpt lat="49.84783" lon="4.83653">
        <ele>352</ele>
        <time>2022-09-05T09:35:01.000Z</time>
      </trkpt>
      <trkpt lat="49.84782" lon="4.83662">
        <ele>352</ele>
        <time>2022-09-05T09:35:02.000Z</time>
      </trkpt>
      <trkpt lat="49.84783" lon="4.83671">
        <ele>352</ele>
        <time>2022-09-05T09:35:03.000Z</time>
      </trkpt>
      <trkpt lat="49.84784" lon="4.83679">
        <ele>352</ele>
        <time>2022-09-05T09:35:04.000Z</time>
      </trkpt>
      <trkpt lat="49.84785" lon="4.83688">
        <ele>351</ele>
        <time>2022-09-05T09:35:05.000Z</time>
      </trkpt>
      <trkpt lat="49.84785" lon="4.83697">
        <ele>351</ele>
        <time>2022-09-05T09:35:06.000Z</time>
      </trkpt>
      <trkpt lat="49.84785" lon="4.83705">
        <ele>351</ele>
        <time>2022-09-05T09:35:07.000Z</time>
      </trkpt>
      <trkpt lat="49.84785" lon="4.83714">
        <ele>351</ele>
        <time>2022-09-05T09:35:08.000Z</time>
      </trkpt>
      <trkpt lat="49.84785" lon="4.83723">
        <ele>351</ele>
        <time>2022-09-05T09:35:09.000Z</time>
      </trkpt>
      <trkpt lat="49.84786" lon="4.83733">
        <ele>351</ele>
        <time>2022-09-05T09:35:10.000Z</time>
      </trkpt>
      <trkpt lat="49.84785" lon="4.83742">
        <ele>351</ele>
        <time>2022-09-05T09:35:11.000Z</time>
      </trkpt>
      <trkpt lat="49.84785" lon="4.8375">
        <ele>351</ele>
        <time>2022-09-05T09:35:12.000Z</time>
      </trkpt>
      <trkpt lat="49.84785" lon="4.83757">
        <ele>351</ele>
        <time>2022-09-05T09:35:13.000Z</time>
      </trkpt>
      <trkpt lat="49.84786" lon="4.83765">
        <ele>350</ele>
        <time>2022-09-05T09:35:14.000Z</time>
      </trkpt>
      <trkpt lat="49.84785" lon="4.83773">
        <ele>350</ele>
        <time>2022-09-05T09:35:15.000Z</time>
      </trkpt>
      <trkpt lat="49.84785" lon="4.83781">
        <ele>350</ele>
        <time>2022-09-05T09:35:16.000Z</time>
      </trkpt>
      <trkpt lat="49.84785" lon="4.83787">
        <ele>350</ele>
        <time>2022-09-05T09:35:17.000Z</time>
      </trkpt>
      <trkpt lat="49.84785" lon="4.83795">
        <ele>350</ele>
        <time>2022-09-05T09:35:18.000Z</time>
      </trkpt>
      <trkpt lat="49.84785" lon="4.83802">
        <ele>350</ele>
        <time>2022-09-05T09:35:19.000Z</time>
      </trkpt>
      <trkpt lat="49.84785" lon="4.83809">
        <ele>350</ele>
        <time>2022-09-05T09:35:20.000Z</time>
      </trkpt>
      <trkpt lat="49.84785" lon="4.83816">
        <ele>350</ele>
        <time>2022-09-05T09:35:21.000Z</time>
      </trkpt>
      <trkpt lat="49.84785" lon="4.83822">
        <ele>350</ele>
        <time>2022-09-05T09:35:22.000Z</time>
      </trkpt>
      <trkpt lat="49.84784" lon="4.83829">
        <ele>350</ele>
        <time>2022-09-05T09:35:23.000Z</time>
      </trkpt>
      <trkpt lat="49.84782" lon="4.83834">
        <ele>350</ele>
        <time>2022-09-05T09:35:24.000Z</time>
      </trkpt>
      <trkpt lat="49.8478" lon="4.8384">
        <ele>351</ele>
        <time>2022-09-05T09:35:25.000Z</time>
      </trkpt>
      <trkpt lat="49.84779" lon="4.83847">
        <ele>351</ele>
        <time>2022-09-05T09:35:26.000Z</time>
      </trkpt>
      <trkpt lat="49.84777" lon="4.83853">
        <ele>351</ele>
        <time>2022-09-05T09:35:27.000Z</time>
      </trkpt>
      <trkpt lat="49.84775" lon="4.83859">
        <ele>351</ele>
        <time>2022-09-05T09:35:28.000Z</time>
      </trkpt>
      <trkpt lat="49.84773" lon="4.83865">
        <ele>351</ele>
        <time>2022-09-05T09:35:29.000Z</time>
      </trkpt>
      <trkpt lat="49.8477" lon="4.83871">
        <ele>351</ele>
        <time>2022-09-05T09:35:30.000Z</time>
      </trkpt>
      <trkpt lat="49.84768" lon="4.83877">
        <ele>351</ele>
        <time>2022-09-05T09:35:31.000Z</time>
      </trkpt>
      <trkpt lat="49.84766" lon="4.83882">
        <ele>351</ele>
        <time>2022-09-05T09:35:32.000Z</time>
      </trkpt>
      <trkpt lat="49.84764" lon="4.83888">
        <ele>351</ele>
        <time>2022-09-05T09:35:33.000Z</time>
      </trkpt>
      <trkpt lat="49.84761" lon="4.83893">
        <ele>351</ele>
        <time>2022-09-05T09:35:34.000Z</time>
      </trkpt>
      <trkpt lat="49.84758" lon="4.83898">
        <ele>352</ele>
        <time>2022-09-05T09:35:35.000Z</time>
      </trkpt>
      <trkpt lat="49.84755" lon="4.83903">
        <ele>352</ele>
        <time>2022-09-05T09:35:36.000Z</time>
      </trkpt>
      <trkpt lat="49.84753" lon="4.83909">
        <ele>352</ele>
        <time>2022-09-05T09:35:37.000Z</time>
      </trkpt>
      <trkpt lat="49.8475" lon="4.83914">
        <ele>352</ele>
        <time>2022-09-05T09:35:38.000Z</time>
      </trkpt>
      <trkpt lat="49.84747" lon="4.83919">
        <ele>353</ele>
        <time>2022-09-05T09:35:39.000Z</time>
      </trkpt>
      <trkpt lat="49.84745" lon="4.83925">
        <ele>353</ele>
        <time>2022-09-05T09:35:40.000Z</time>
      </trkpt>
      <trkpt lat="49.84742" lon="4.83929">
        <ele>353</ele>
        <time>2022-09-05T09:35:41.000Z</time>
      </trkpt>
      <trkpt lat="49.8474" lon="4.83934">
        <ele>354</ele>
        <time>2022-09-05T09:35:42.000Z</time>
      </trkpt>
      <trkpt lat="49.84737" lon="4.83938">
        <ele>354</ele>
        <time>2022-09-05T09:35:43.000Z</time>
      </trkpt>
      <trkpt lat="49.84734" lon="4.83943">
        <ele>354</ele>
        <time>2022-09-05T09:35:44.000Z</time>
      </trkpt>
      <trkpt lat="49.84732" lon="4.83947">
        <ele>355</ele>
        <time>2022-09-05T09:35:45.000Z</time>
      </trkpt>
      <trkpt lat="49.84729" lon="4.83952">
        <ele>355</ele>
        <time>2022-09-05T09:35:46.000Z</time>
      </trkpt>
      <trkpt lat="49.84727" lon="4.83956">
        <ele>355</ele>
        <time>2022-09-05T09:35:47.000Z</time>
      </trkpt>
      <trkpt lat="49.84724" lon="4.83961">
        <ele>356</ele>
        <time>2022-09-05T09:35:48.000Z</time>
      </trkpt>
      <trkpt lat="49.84721" lon="4.83964">
        <ele>356</ele>
        <time>2022-09-05T09:35:49.000Z</time>
      </trkpt>
      <trkpt lat="49.84718" lon="4.83968">
        <ele>356</ele>
        <time>2022-09-05T09:35:50.000Z</time>
      </trkpt>
      <trkpt lat="49.84714" lon="4.83971">
        <ele>356</ele>
        <time>2022-09-05T09:35:51.000Z</time>
      </trkpt>
      <trkpt lat="49.8471" lon="4.83974">
        <ele>356</ele>
        <time>2022-09-05T09:35:52.000Z</time>
      </trkpt>
      <trkpt lat="49.84706" lon="4.83976">
        <ele>356</ele>
        <time>2022-09-05T09:35:53.000Z</time>
      </trkpt>
      <trkpt lat="49.84702" lon="4.83978">
        <ele>356</ele>
        <time>2022-09-05T09:35:54.000Z</time>
      </trkpt>
      <trkpt lat="49.84698" lon="4.8398">
        <ele>357</ele>
        <time>2022-09-05T09:35:55.000Z</time>
      </trkpt>
      <trkpt lat="49.84694" lon="4.83982">
        <ele>357</ele>
        <time>2022-09-05T09:35:56.000Z</time>
      </trkpt>
      <trkpt lat="49.8469" lon="4.83984">
        <ele>357</ele>
        <time>2022-09-05T09:35:57.000Z</time>
      </trkpt>
      <trkpt lat="49.84685" lon="4.83985">
        <ele>357</ele>
        <time>2022-09-05T09:35:58.000Z</time>
      </trkpt>
      <trkpt lat="49.8468" lon="4.83986">
        <ele>357</ele>
        <time>2022-09-05T09:35:59.000Z</time>
      </trkpt>
      <trkpt lat="49.84676" lon="4.83987">
        <ele>357</ele>
        <time>2022-09-05T09:36:00.000Z</time>
      </trkpt>
      <trkpt lat="49.84672" lon="4.83988">
        <ele>357</ele>
        <time>2022-09-05T09:36:01.000Z</time>
      </trkpt>
      <trkpt lat="49.84667" lon="4.83989">
        <ele>358</ele>
        <time>2022-09-05T09:36:02.000Z</time>
      </trkpt>
      <trkpt lat="49.84663" lon="4.83991">
        <ele>358</ele>
        <time>2022-09-05T09:36:03.000Z</time>
      </trkpt>
      <trkpt lat="49.84658" lon="4.83993">
        <ele>358</ele>
        <time>2022-09-05T09:36:04.000Z</time>
      </trkpt>
      <trkpt lat="49.84654" lon="4.83994">
        <ele>358</ele>
        <time>2022-09-05T09:36:05.000Z</time>
      </trkpt>
      <trkpt lat="49.8465" lon="4.83995">
        <ele>358</ele>
        <time>2022-09-05T09:36:06.000Z</time>
      </trkpt>
      <trkpt lat="49.84646" lon="4.83996">
        <ele>358</ele>
        <time>2022-09-05T09:36:07.000Z</time>
      </trkpt>
      <trkpt lat="49.84643" lon="4.83997">
        <ele>358</ele>
        <time>2022-09-05T09:36:08.000Z</time>
      </trkpt>
      <trkpt lat="49.8464" lon="4.83998">
        <ele>358</ele>
        <time>2022-09-05T09:36:09.000Z</time>
      </trkpt>
      <trkpt lat="49.84637" lon="4.83999">
        <ele>358</ele>
        <time>2022-09-05T09:36:10.000Z</time>
      </trkpt>
      <trkpt lat="49.84634" lon="4.83999">
        <ele>358</ele>
        <time>2022-09-05T09:36:11.000Z</time>
      </trkpt>
      <trkpt lat="49.84633" lon="4.83999">
        <ele>358</ele>
        <time>2022-09-05T09:36:12.000Z</time>
      </trkpt>
      <trkpt lat="49.8463" lon="4.83999">
        <ele>358</ele>
        <time>2022-09-05T09:36:13.000Z</time>
      </trkpt>
      <trkpt lat="49.84628" lon="4.84">
        <ele>359</ele>
        <time>2022-09-05T09:36:14.000Z</time>
      </trkpt>
      <trkpt lat="49.84626" lon="4.84001">
        <ele>359</ele>
        <time>2022-09-05T09:36:15.000Z</time>
      </trkpt>
      <trkpt lat="49.84623" lon="4.84002">
        <ele>359</ele>
        <time>2022-09-05T09:36:16.000Z</time>
      </trkpt>
      <trkpt lat="49.84621" lon="4.84003">
        <ele>359</ele>
        <time>2022-09-05T09:36:17.000Z</time>
      </trkpt>
      <trkpt lat="49.84618" lon="4.84005">
        <ele>360</ele>
        <time>2022-09-05T09:36:18.000Z</time>
      </trkpt>
      <trkpt lat="49.84615" lon="4.84006">
        <ele>360</ele>
        <time>2022-09-05T09:36:19.000Z</time>
      </trkpt>
      <trkpt lat="49.84612" lon="4.84006">
        <ele>360</ele>
        <time>2022-09-05T09:36:20.000Z</time>
      </trkpt>
      <trkpt lat="49.84609" lon="4.84007">
        <ele>361</ele>
        <time>2022-09-05T09:36:21.000Z</time>
      </trkpt>
      <trkpt lat="49.84607" lon="4.84008">
        <ele>361</ele>
        <time>2022-09-05T09:36:22.000Z</time>
      </trkpt>
      <trkpt lat="49.84604" lon="4.84009">
        <ele>361</ele>
        <time>2022-09-05T09:36:23.000Z</time>
      </trkpt>
      <trkpt lat="49.84601" lon="4.84011">
        <ele>361</ele>
        <time>2022-09-05T09:36:24.000Z</time>
      </trkpt>
      <trkpt lat="49.84599" lon="4.84013">
        <ele>362</ele>
        <time>2022-09-05T09:36:25.000Z</time>
      </trkpt>
      <trkpt lat="49.84596" lon="4.84016">
        <ele>362</ele>
        <time>2022-09-05T09:36:26.000Z</time>
      </trkpt>
      <trkpt lat="49.84594" lon="4.84018">
        <ele>362</ele>
        <time>2022-09-05T09:36:27.000Z</time>
      </trkpt>
      <trkpt lat="49.8459" lon="4.84021">
        <ele>363</ele>
        <time>2022-09-05T09:36:28.000Z</time>
      </trkpt>
      <trkpt lat="49.84587" lon="4.84023">
        <ele>363</ele>
        <time>2022-09-05T09:36:29.000Z</time>
      </trkpt>
      <trkpt lat="49.84584" lon="4.84026">
        <ele>363</ele>
        <time>2022-09-05T09:36:30.000Z</time>
      </trkpt>
      <trkpt lat="49.8458" lon="4.84029">
        <ele>363</ele>
        <time>2022-09-05T09:36:31.000Z</time>
      </trkpt>
      <trkpt lat="49.84576" lon="4.84032">
        <ele>364</ele>
        <time>2022-09-05T09:36:32.000Z</time>
      </trkpt>
      <trkpt lat="49.84573" lon="4.84036">
        <ele>364</ele>
        <time>2022-09-05T09:36:33.000Z</time>
      </trkpt>
      <trkpt lat="49.8457" lon="4.8404">
        <ele>364</ele>
        <time>2022-09-05T09:36:34.000Z</time>
      </trkpt>
      <trkpt lat="49.84566" lon="4.84043">
        <ele>365</ele>
        <time>2022-09-05T09:36:35.000Z</time>
      </trkpt>
      <trkpt lat="49.84563" lon="4.84047">
        <ele>365</ele>
        <time>2022-09-05T09:36:36.000Z</time>
      </trkpt>
      <trkpt lat="49.84559" lon="4.84051">
        <ele>365</ele>
        <time>2022-09-05T09:36:37.000Z</time>
      </trkpt>
      <trkpt lat="49.84555" lon="4.84055">
        <ele>366</ele>
        <time>2022-09-05T09:36:38.000Z</time>
      </trkpt>
      <trkpt lat="49.84551" lon="4.84059">
        <ele>366</ele>
        <time>2022-09-05T09:36:39.000Z</time>
      </trkpt>
      <trkpt lat="49.84547" lon="4.84064">
        <ele>367</ele>
        <time>2022-09-05T09:36:40.000Z</time>
      </trkpt>
      <trkpt lat="49.84543" lon="4.84069">
        <ele>367</ele>
        <time>2022-09-05T09:36:41.000Z</time>
      </trkpt>
      <trkpt lat="49.84539" lon="4.84074">
        <ele>367</ele>
        <time>2022-09-05T09:36:42.000Z</time>
      </trkpt>
      <trkpt lat="49.84534" lon="4.8408">
        <ele>368</ele>
        <time>2022-09-05T09:36:43.000Z</time>
      </trkpt>
      <trkpt lat="49.84529" lon="4.84086">
        <ele>368</ele>
        <time>2022-09-05T09:36:44.000Z</time>
      </trkpt>
      <trkpt lat="49.84525" lon="4.84091">
        <ele>368</ele>
        <time>2022-09-05T09:36:45.000Z</time>
      </trkpt>
      <trkpt lat="49.8452" lon="4.84098">
        <ele>368</ele>
        <time>2022-09-05T09:36:46.000Z</time>
      </trkpt>
      <trkpt lat="49.84516" lon="4.84104">
        <ele>369</ele>
        <time>2022-09-05T09:36:47.000Z</time>
      </trkpt>
      <trkpt lat="49.84511" lon="4.8411">
        <ele>369</ele>
        <time>2022-09-05T09:36:48.000Z</time>
      </trkpt>
      <trkpt lat="49.84506" lon="4.84116">
        <ele>369</ele>
        <time>2022-09-05T09:36:49.000Z</time>
      </trkpt>
      <trkpt lat="49.84501" lon="4.84122">
        <ele>369</ele>
        <time>2022-09-05T09:36:50.000Z</time>
      </trkpt>
      <trkpt lat="49.84497" lon="4.84128">
        <ele>369</ele>
        <time>2022-09-05T09:36:51.000Z</time>
      </trkpt>
      <trkpt lat="49.84493" lon="4.84134">
        <ele>369</ele>
        <time>2022-09-05T09:36:52.000Z</time>
      </trkpt>
      <trkpt lat="49.84489" lon="4.84141">
        <ele>369</ele>
        <time>2022-09-05T09:36:53.000Z</time>
      </trkpt>
      <trkpt lat="49.84485" lon="4.84147">
        <ele>369</ele>
        <time>2022-09-05T09:36:54.000Z</time>
      </trkpt>
      <trkpt lat="49.8448" lon="4.84153">
        <ele>369</ele>
        <time>2022-09-05T09:36:55.000Z</time>
      </trkpt>
      <trkpt lat="49.84475" lon="4.8416">
        <ele>369</ele>
        <time>2022-09-05T09:36:56.000Z</time>
      </trkpt>
      <trkpt lat="49.8447" lon="4.84166">
        <ele>369</ele>
        <time>2022-09-05T09:36:57.000Z</time>
      </trkpt>
      <trkpt lat="49.84464" lon="4.84172">
        <ele>369</ele>
        <time>2022-09-05T09:36:58.000Z</time>
      </trkpt>
      <trkpt lat="49.84459" lon="4.84177">
        <ele>369</ele>
        <time>2022-09-05T09:36:59.000Z</time>
      </trkpt>
      <trkpt lat="49.84453" lon="4.84183">
        <ele>369</ele>
        <time>2022-09-05T09:37:00.000Z</time>
      </trkpt>
      <trkpt lat="49.84448" lon="4.84189">
        <ele>368</ele>
        <time>2022-09-05T09:37:01.000Z</time>
      </trkpt>
      <trkpt lat="49.84443" lon="4.84195">
        <ele>368</ele>
        <time>2022-09-05T09:37:02.000Z</time>
      </trkpt>
      <trkpt lat="49.84437" lon="4.84201">
        <ele>368</ele>
        <time>2022-09-05T09:37:03.000Z</time>
      </trkpt>
      <trkpt lat="49.84433" lon="4.84206">
        <ele>368</ele>
        <time>2022-09-05T09:37:04.000Z</time>
      </trkpt>
      <trkpt lat="49.84429" lon="4.8421">
        <ele>367</ele>
        <time>2022-09-05T09:37:05.000Z</time>
      </trkpt>
      <trkpt lat="49.84424" lon="4.84214">
        <ele>367</ele>
        <time>2022-09-05T09:37:06.000Z</time>
      </trkpt>
      <trkpt lat="49.84419" lon="4.84218">
        <ele>367</ele>
        <time>2022-09-05T09:37:07.000Z</time>
      </trkpt>
      <trkpt lat="49.84415" lon="4.8422">
        <ele>367</ele>
        <time>2022-09-05T09:37:08.000Z</time>
      </trkpt>
      <trkpt lat="49.84409" lon="4.84223">
        <ele>367</ele>
        <time>2022-09-05T09:37:09.000Z</time>
      </trkpt>
      <trkpt lat="49.84404" lon="4.84226">
        <ele>366</ele>
        <time>2022-09-05T09:37:10.000Z</time>
      </trkpt>
      <trkpt lat="49.84398" lon="4.84229">
        <ele>366</ele>
        <time>2022-09-05T09:37:11.000Z</time>
      </trkpt>
      <trkpt lat="49.84393" lon="4.84232">
        <ele>366</ele>
        <time>2022-09-05T09:37:12.000Z</time>
      </trkpt>
      <trkpt lat="49.84389" lon="4.84235">
        <ele>366</ele>
        <time>2022-09-05T09:37:13.000Z</time>
      </trkpt>
      <trkpt lat="49.84385" lon="4.84239">
        <ele>366</ele>
        <time>2022-09-05T09:37:14.000Z</time>
      </trkpt>
      <trkpt lat="49.84381" lon="4.8424">
        <ele>366</ele>
        <time>2022-09-05T09:37:15.000Z</time>
      </trkpt>
      <trkpt lat="49.84377" lon="4.84242">
        <ele>366</ele>
        <time>2022-09-05T09:37:16.000Z</time>
      </trkpt>
      <trkpt lat="49.84373" lon="4.84243">
        <ele>365</ele>
        <time>2022-09-05T09:37:17.000Z</time>
      </trkpt>
      <trkpt lat="49.84369" lon="4.84244">
        <ele>365</ele>
        <time>2022-09-05T09:37:18.000Z</time>
      </trkpt>
      <trkpt lat="49.84364" lon="4.84245">
        <ele>365</ele>
        <time>2022-09-05T09:37:19.000Z</time>
      </trkpt>
      <trkpt lat="49.8436" lon="4.84246">
        <ele>364</ele>
        <time>2022-09-05T09:37:20.000Z</time>
      </trkpt>
      <trkpt lat="49.84355" lon="4.84246">
        <ele>364</ele>
        <time>2022-09-05T09:37:21.000Z</time>
      </trkpt>
      <trkpt lat="49.8435" lon="4.84247">
        <ele>364</ele>
        <time>2022-09-05T09:37:22.000Z</time>
      </trkpt>
      <trkpt lat="49.84345" lon="4.84247">
        <ele>363</ele>
        <time>2022-09-05T09:37:23.000Z</time>
      </trkpt>
      <trkpt lat="49.84339" lon="4.84248">
        <ele>363</ele>
        <time>2022-09-05T09:37:24.000Z</time>
      </trkpt>
      <trkpt lat="49.84334" lon="4.84249">
        <ele>363</ele>
        <time>2022-09-05T09:37:25.000Z</time>
      </trkpt>
      <trkpt lat="49.84329" lon="4.8425">
        <ele>362</ele>
        <time>2022-09-05T09:37:26.000Z</time>
      </trkpt>
      <trkpt lat="49.84324" lon="4.84251">
        <ele>362</ele>
        <time>2022-09-05T09:37:27.000Z</time>
      </trkpt>
      <trkpt lat="49.8432" lon="4.84252">
        <ele>361</ele>
        <time>2022-09-05T09:37:28.000Z</time>
      </trkpt>
      <trkpt lat="49.84315" lon="4.84254">
        <ele>361</ele>
        <time>2022-09-05T09:37:29.000Z</time>
      </trkpt>
      <trkpt lat="49.84311" lon="4.84255">
        <ele>361</ele>
        <time>2022-09-05T09:37:30.000Z</time>
      </trkpt>
      <trkpt lat="49.84307" lon="4.84257">
        <ele>360</ele>
        <time>2022-09-05T09:37:31.000Z</time>
      </trkpt>
      <trkpt lat="49.84303" lon="4.84259">
        <ele>360</ele>
        <time>2022-09-05T09:37:32.000Z</time>
      </trkpt>
      <trkpt lat="49.84298" lon="4.84261">
        <ele>360</ele>
        <time>2022-09-05T09:37:33.000Z</time>
      </trkpt>
      <trkpt lat="49.84294" lon="4.84263">
        <ele>360</ele>
        <time>2022-09-05T09:37:34.000Z</time>
      </trkpt>
      <trkpt lat="49.8429" lon="4.84265">
        <ele>359</ele>
        <time>2022-09-05T09:37:35.000Z</time>
      </trkpt>
      <trkpt lat="49.84286" lon="4.84267">
        <ele>359</ele>
        <time>2022-09-05T09:37:36.000Z</time>
      </trkpt>
      <trkpt lat="49.84282" lon="4.84269">
        <ele>359</ele>
        <time>2022-09-05T09:37:37.000Z</time>
      </trkpt>
      <trkpt lat="49.84279" lon="4.84271">
        <ele>359</ele>
        <time>2022-09-05T09:37:38.000Z</time>
      </trkpt>
      <trkpt lat="49.84275" lon="4.84273">
        <ele>359</ele>
        <time>2022-09-05T09:37:39.000Z</time>
      </trkpt>
      <trkpt lat="49.8427" lon="4.84275">
        <ele>358</ele>
        <time>2022-09-05T09:37:40.000Z</time>
      </trkpt>
      <trkpt lat="49.84267" lon="4.84278">
        <ele>358</ele>
        <time>2022-09-05T09:37:41.000Z</time>
      </trkpt>
      <trkpt lat="49.84263" lon="4.8428">
        <ele>358</ele>
        <time>2022-09-05T09:37:42.000Z</time>
      </trkpt>
      <trkpt lat="49.8426" lon="4.8428">
        <ele>358</ele>
        <time>2022-09-05T09:37:43.000Z</time>
      </trkpt>
      <trkpt lat="49.84257" lon="4.8428">
        <ele>358</ele>
        <time>2022-09-05T09:37:44.000Z</time>
      </trkpt>
      <trkpt lat="49.84254" lon="4.84281">
        <ele>358</ele>
        <time>2022-09-05T09:37:45.000Z</time>
      </trkpt>
      <trkpt lat="49.84252" lon="4.84284">
        <ele>358</ele>
        <time>2022-09-05T09:37:46.000Z</time>
      </trkpt>
      <trkpt lat="49.84251" lon="4.84289">
        <ele>358</ele>
        <time>2022-09-05T09:37:47.000Z</time>
      </trkpt>
      <trkpt lat="49.8425" lon="4.84294">
        <ele>358</ele>
        <time>2022-09-05T09:37:48.000Z</time>
      </trkpt>
      <trkpt lat="49.84249" lon="4.84299">
        <ele>358</ele>
        <time>2022-09-05T09:37:49.000Z</time>
      </trkpt>
      <trkpt lat="49.84247" lon="4.84304">
        <ele>357</ele>
        <time>2022-09-05T09:37:50.000Z</time>
      </trkpt>
      <trkpt lat="49.84243" lon="4.84308">
        <ele>357</ele>
        <time>2022-09-05T09:37:51.000Z</time>
      </trkpt>
      <trkpt lat="49.84239" lon="4.84311">
        <ele>357</ele>
        <time>2022-09-05T09:37:52.000Z</time>
      </trkpt>
      <trkpt lat="49.84235" lon="4.84312">
        <ele>357</ele>
        <time>2022-09-05T09:37:53.000Z</time>
      </trkpt>
      <trkpt lat="49.8423" lon="4.84313">
        <ele>357</ele>
        <time>2022-09-05T09:37:54.000Z</time>
      </trkpt>
      <trkpt lat="49.84225" lon="4.84313">
        <ele>357</ele>
        <time>2022-09-05T09:37:55.000Z</time>
      </trkpt>
      <trkpt lat="49.84219" lon="4.84313">
        <ele>357</ele>
        <time>2022-09-05T09:37:56.000Z</time>
      </trkpt>
      <trkpt lat="49.84213" lon="4.84313">
        <ele>357</ele>
        <time>2022-09-05T09:37:57.000Z</time>
      </trkpt>
      <trkpt lat="49.84206" lon="4.84313">
        <ele>357</ele>
        <time>2022-09-05T09:37:58.000Z</time>
      </trkpt>
      <trkpt lat="49.842" lon="4.84313">
        <ele>357</ele>
        <time>2022-09-05T09:37:59.000Z</time>
      </trkpt>
      <trkpt lat="49.84194" lon="4.84312">
        <ele>357</ele>
        <time>2022-09-05T09:38:00.000Z</time>
      </trkpt>
      <trkpt lat="49.84187" lon="4.84312">
        <ele>357</ele>
        <time>2022-09-05T09:38:01.000Z</time>
      </trkpt>
      <trkpt lat="49.84181" lon="4.84311">
        <ele>357</ele>
        <time>2022-09-05T09:38:02.000Z</time>
      </trkpt>
      <trkpt lat="49.84174" lon="4.84311">
        <ele>357</ele>
        <time>2022-09-05T09:38:03.000Z</time>
      </trkpt>
      <trkpt lat="49.84168" lon="4.8431">
        <ele>357</ele>
        <time>2022-09-05T09:38:04.000Z</time>
      </trkpt>
      <trkpt lat="49.84161" lon="4.84309">
        <ele>357</ele>
        <time>2022-09-05T09:38:05.000Z</time>
      </trkpt>
      <trkpt lat="49.84155" lon="4.84308">
        <ele>357</ele>
        <time>2022-09-05T09:38:06.000Z</time>
      </trkpt>
      <trkpt lat="49.84149" lon="4.84307">
        <ele>357</ele>
        <time>2022-09-05T09:38:07.000Z</time>
      </trkpt>
      <trkpt lat="49.84143" lon="4.84307">
        <ele>357</ele>
        <time>2022-09-05T09:38:08.000Z</time>
      </trkpt>
      <trkpt lat="49.84137" lon="4.84306">
        <ele>358</ele>
        <time>2022-09-05T09:38:09.000Z</time>
      </trkpt>
      <trkpt lat="49.8413" lon="4.84305">
        <ele>358</ele>
        <time>2022-09-05T09:38:10.000Z</time>
      </trkpt>
      <trkpt lat="49.84124" lon="4.84305">
        <ele>358</ele>
        <time>2022-09-05T09:38:11.000Z</time>
      </trkpt>
      <trkpt lat="49.84119" lon="4.84304">
        <ele>358</ele>
        <time>2022-09-05T09:38:12.000Z</time>
      </trkpt>
      <trkpt lat="49.84113" lon="4.84303">
        <ele>358</ele>
        <time>2022-09-05T09:38:13.000Z</time>
      </trkpt>
      <trkpt lat="49.84107" lon="4.84302">
        <ele>358</ele>
        <time>2022-09-05T09:38:14.000Z</time>
      </trkpt>
      <trkpt lat="49.84102" lon="4.84301">
        <ele>358</ele>
        <time>2022-09-05T09:38:15.000Z</time>
      </trkpt>
      <trkpt lat="49.84096" lon="4.843">
        <ele>358</ele>
        <time>2022-09-05T09:38:16.000Z</time>
      </trkpt>
      <trkpt lat="49.84091" lon="4.84299">
        <ele>358</ele>
        <time>2022-09-05T09:38:17.000Z</time>
      </trkpt>
      <trkpt lat="49.84086" lon="4.84298">
        <ele>358</ele>
        <time>2022-09-05T09:38:18.000Z</time>
      </trkpt>
      <trkpt lat="49.8408" lon="4.84296">
        <ele>358</ele>
        <time>2022-09-05T09:38:19.000Z</time>
      </trkpt>
      <trkpt lat="49.84075" lon="4.84296">
        <ele>358</ele>
        <time>2022-09-05T09:38:20.000Z</time>
      </trkpt>
      <trkpt lat="49.84069" lon="4.84295">
        <ele>358</ele>
        <time>2022-09-05T09:38:21.000Z</time>
      </trkpt>
      <trkpt lat="49.84063" lon="4.84293">
        <ele>358</ele>
        <time>2022-09-05T09:38:22.000Z</time>
      </trkpt>
      <trkpt lat="49.84058" lon="4.84292">
        <ele>358</ele>
        <time>2022-09-05T09:38:23.000Z</time>
      </trkpt>
      <trkpt lat="49.84053" lon="4.84291">
        <ele>358</ele>
        <time>2022-09-05T09:38:24.000Z</time>
      </trkpt>
      <trkpt lat="49.84048" lon="4.84291">
        <ele>358</ele>
        <time>2022-09-05T09:38:25.000Z</time>
      </trkpt>
      <trkpt lat="49.84042" lon="4.8429">
        <ele>358</ele>
        <time>2022-09-05T09:38:26.000Z</time>
      </trkpt>
      <trkpt lat="49.84037" lon="4.84288">
        <ele>358</ele>
        <time>2022-09-05T09:38:27.000Z</time>
      </trkpt>
      <trkpt lat="49.84032" lon="4.84286">
        <ele>358</ele>
        <time>2022-09-05T09:38:28.000Z</time>
      </trkpt>
      <trkpt lat="49.84026" lon="4.84285">
        <ele>358</ele>
        <time>2022-09-05T09:38:29.000Z</time>
      </trkpt>
      <trkpt lat="49.8402" lon="4.84284">
        <ele>358</ele>
        <time>2022-09-05T09:38:30.000Z</time>
      </trkpt>
      <trkpt lat="49.84014" lon="4.84283">
        <ele>358</ele>
        <time>2022-09-05T09:38:31.000Z</time>
      </trkpt>
      <trkpt lat="49.84008" lon="4.84282">
        <ele>358</ele>
        <time>2022-09-05T09:38:32.000Z</time>
      </trkpt>
      <trkpt lat="49.84001" lon="4.8428">
        <ele>358</ele>
        <time>2022-09-05T09:38:33.000Z</time>
      </trkpt>
      <trkpt lat="49.83995" lon="4.84279">
        <ele>358</ele>
        <time>2022-09-05T09:38:34.000Z</time>
      </trkpt>
      <trkpt lat="49.83988" lon="4.84277">
        <ele>358</ele>
        <time>2022-09-05T09:38:35.000Z</time>
      </trkpt>
      <trkpt lat="49.83981" lon="4.84276">
        <ele>358</ele>
        <time>2022-09-05T09:38:36.000Z</time>
      </trkpt>
      <trkpt lat="49.83974" lon="4.84274">
        <ele>358</ele>
        <time>2022-09-05T09:38:37.000Z</time>
      </trkpt>
      <trkpt lat="49.83968" lon="4.84273">
        <ele>358</ele>
        <time>2022-09-05T09:38:38.000Z</time>
      </trkpt>
      <trkpt lat="49.83961" lon="4.84272">
        <ele>357</ele>
        <time>2022-09-05T09:38:39.000Z</time>
      </trkpt>
      <trkpt lat="49.83955" lon="4.8427">
        <ele>357</ele>
        <time>2022-09-05T09:38:40.000Z</time>
      </trkpt>
      <trkpt lat="49.83948" lon="4.84269">
        <ele>357</ele>
        <time>2022-09-05T09:38:41.000Z</time>
      </trkpt>
      <trkpt lat="49.83942" lon="4.84267">
        <ele>357</ele>
        <time>2022-09-05T09:38:42.000Z</time>
      </trkpt>
      <trkpt lat="49.83935" lon="4.84266">
        <ele>356</ele>
        <time>2022-09-05T09:38:43.000Z</time>
      </trkpt>
      <trkpt lat="49.83929" lon="4.84264">
        <ele>356</ele>
        <time>2022-09-05T09:38:44.000Z</time>
      </trkpt>
      <trkpt lat="49.83922" lon="4.84263">
        <ele>356</ele>
        <time>2022-09-05T09:38:45.000Z</time>
      </trkpt>
      <trkpt lat="49.83915" lon="4.84262">
        <ele>356</ele>
        <time>2022-09-05T09:38:46.000Z</time>
      </trkpt>
      <trkpt lat="49.83908" lon="4.8426">
        <ele>355</ele>
        <time>2022-09-05T09:38:47.000Z</time>
      </trkpt>
      <trkpt lat="49.83901" lon="4.84259">
        <ele>355</ele>
        <time>2022-09-05T09:38:48.000Z</time>
      </trkpt>
      <trkpt lat="49.83894" lon="4.84258">
        <ele>355</ele>
        <time>2022-09-05T09:38:49.000Z</time>
      </trkpt>
      <trkpt lat="49.83887" lon="4.84256">
        <ele>355</ele>
        <time>2022-09-05T09:38:50.000Z</time>
      </trkpt>
      <trkpt lat="49.8388" lon="4.84254">
        <ele>354</ele>
        <time>2022-09-05T09:38:51.000Z</time>
      </trkpt>
      <trkpt lat="49.83873" lon="4.84253">
        <ele>354</ele>
        <time>2022-09-05T09:38:52.000Z</time>
      </trkpt>
      <trkpt lat="49.83867" lon="4.84251">
        <ele>354</ele>
        <time>2022-09-05T09:38:53.000Z</time>
      </trkpt>
      <trkpt lat="49.8386" lon="4.84249">
        <ele>354</ele>
        <time>2022-09-05T09:38:54.000Z</time>
      </trkpt>
      <trkpt lat="49.83854" lon="4.84248">
        <ele>354</ele>
        <time>2022-09-05T09:38:55.000Z</time>
      </trkpt>
      <trkpt lat="49.83847" lon="4.84247">
        <ele>353</ele>
        <time>2022-09-05T09:38:56.000Z</time>
      </trkpt>
      <trkpt lat="49.83841" lon="4.84246">
        <ele>353</ele>
        <time>2022-09-05T09:38:57.000Z</time>
      </trkpt>
      <trkpt lat="49.83834" lon="4.84244">
        <ele>353</ele>
        <time>2022-09-05T09:38:58.000Z</time>
      </trkpt>
      <trkpt lat="49.83828" lon="4.84243">
        <ele>353</ele>
        <time>2022-09-05T09:38:59.000Z</time>
      </trkpt>
      <trkpt lat="49.83822" lon="4.84242">
        <ele>352</ele>
        <time>2022-09-05T09:39:00.000Z</time>
      </trkpt>
      <trkpt lat="49.83817" lon="4.8424">
        <ele>352</ele>
        <time>2022-09-05T09:39:01.000Z</time>
      </trkpt>
      <trkpt lat="49.83811" lon="4.84239">
        <ele>352</ele>
        <time>2022-09-05T09:39:02.000Z</time>
      </trkpt>
      <trkpt lat="49.83806" lon="4.84238">
        <ele>352</ele>
        <time>2022-09-05T09:39:03.000Z</time>
      </trkpt>
      <trkpt lat="49.838" lon="4.84236">
        <ele>352</ele>
        <time>2022-09-05T09:39:04.000Z</time>
      </trkpt>
      <trkpt lat="49.83795" lon="4.84235">
        <ele>352</ele>
        <time>2022-09-05T09:39:05.000Z</time>
      </trkpt>
      <trkpt lat="49.8379" lon="4.84234">
        <ele>352</ele>
        <time>2022-09-05T09:39:06.000Z</time>
      </trkpt>
      <trkpt lat="49.83785" lon="4.84233">
        <ele>353</ele>
        <time>2022-09-05T09:39:07.000Z</time>
      </trkpt>
      <trkpt lat="49.8378" lon="4.84232">
        <ele>353</ele>
        <time>2022-09-05T09:39:08.000Z</time>
      </trkpt>
      <trkpt lat="49.83776" lon="4.84231">
        <ele>353</ele>
        <time>2022-09-05T09:39:09.000Z</time>
      </trkpt>
      <trkpt lat="49.83772" lon="4.8423">
        <ele>353</ele>
        <time>2022-09-05T09:39:10.000Z</time>
      </trkpt>
      <trkpt lat="49.83768" lon="4.84229">
        <ele>353</ele>
        <time>2022-09-05T09:39:11.000Z</time>
      </trkpt>
      <trkpt lat="49.83763" lon="4.84228">
        <ele>353</ele>
        <time>2022-09-05T09:39:12.000Z</time>
      </trkpt>
      <trkpt lat="49.83759" lon="4.84227">
        <ele>353</ele>
        <time>2022-09-05T09:39:13.000Z</time>
      </trkpt>
      <trkpt lat="49.83755" lon="4.84226">
        <ele>353</ele>
        <time>2022-09-05T09:39:14.000Z</time>
      </trkpt>
      <trkpt lat="49.83751" lon="4.84225">
        <ele>354</ele>
        <time>2022-09-05T09:39:15.000Z</time>
      </trkpt>
      <trkpt lat="49.83747" lon="4.84225">
        <ele>354</ele>
        <time>2022-09-05T09:39:16.000Z</time>
      </trkpt>
      <trkpt lat="49.83742" lon="4.84224">
        <ele>354</ele>
        <time>2022-09-05T09:39:17.000Z</time>
      </trkpt>
      <trkpt lat="49.83738" lon="4.84223">
        <ele>354</ele>
        <time>2022-09-05T09:39:18.000Z</time>
      </trkpt>
      <trkpt lat="49.83734" lon="4.84222">
        <ele>354</ele>
        <time>2022-09-05T09:39:19.000Z</time>
      </trkpt>
      <trkpt lat="49.83729" lon="4.84221">
        <ele>355</ele>
        <time>2022-09-05T09:39:20.000Z</time>
      </trkpt>
      <trkpt lat="49.83725" lon="4.8422">
        <ele>355</ele>
        <time>2022-09-05T09:39:21.000Z</time>
      </trkpt>
      <trkpt lat="49.83721" lon="4.8422">
        <ele>355</ele>
        <time>2022-09-05T09:39:22.000Z</time>
      </trkpt>
      <trkpt lat="49.83716" lon="4.84219">
        <ele>355</ele>
        <time>2022-09-05T09:39:23.000Z</time>
      </trkpt>
      <trkpt lat="49.83712" lon="4.84218">
        <ele>356</ele>
        <time>2022-09-05T09:39:24.000Z</time>
      </trkpt>
      <trkpt lat="49.83707" lon="4.84217">
        <ele>356</ele>
        <time>2022-09-05T09:39:25.000Z</time>
      </trkpt>
      <trkpt lat="49.83703" lon="4.84216">
        <ele>356</ele>
        <time>2022-09-05T09:39:26.000Z</time>
      </trkpt>
      <trkpt lat="49.83698" lon="4.84215">
        <ele>357</ele>
        <time>2022-09-05T09:39:27.000Z</time>
      </trkpt>
      <trkpt lat="49.83694" lon="4.84214">
        <ele>357</ele>
        <time>2022-09-05T09:39:28.000Z</time>
      </trkpt>
      <trkpt lat="49.8369" lon="4.84213">
        <ele>357</ele>
        <time>2022-09-05T09:39:29.000Z</time>
      </trkpt>
      <trkpt lat="49.83686" lon="4.84212">
        <ele>358</ele>
        <time>2022-09-05T09:39:30.000Z</time>
      </trkpt>
      <trkpt lat="49.83682" lon="4.84211">
        <ele>358</ele>
        <time>2022-09-05T09:39:31.000Z</time>
      </trkpt>
      <trkpt lat="49.83679" lon="4.84211">
        <ele>358</ele>
        <time>2022-09-05T09:39:32.000Z</time>
      </trkpt>
      <trkpt lat="49.83676" lon="4.8421">
        <ele>358</ele>
        <time>2022-09-05T09:39:33.000Z</time>
      </trkpt>
      <trkpt lat="49.83672" lon="4.84209">
        <ele>359</ele>
        <time>2022-09-05T09:39:34.000Z</time>
      </trkpt>
      <trkpt lat="49.83669" lon="4.84208">
        <ele>359</ele>
        <time>2022-09-05T09:39:35.000Z</time>
      </trkpt>
      <trkpt lat="49.83665" lon="4.84207">
        <ele>359</ele>
        <time>2022-09-05T09:39:36.000Z</time>
      </trkpt>
      <trkpt lat="49.83662" lon="4.84206">
        <ele>359</ele>
        <time>2022-09-05T09:39:37.000Z</time>
      </trkpt>
      <trkpt lat="49.83659" lon="4.84205">
        <ele>359</ele>
        <time>2022-09-05T09:39:38.000Z</time>
      </trkpt>
      <trkpt lat="49.83657" lon="4.84203">
        <ele>360</ele>
        <time>2022-09-05T09:39:39.000Z</time>
      </trkpt>
      <trkpt lat="49.83655" lon="4.84203">
        <ele>360</ele>
        <time>2022-09-05T09:39:40.000Z</time>
      </trkpt>
      <trkpt lat="49.83654" lon="4.84203">
        <ele>360</ele>
        <time>2022-09-05T09:39:41.000Z</time>
      </trkpt>
      <trkpt lat="49.83653" lon="4.84204">
        <ele>360</ele>
        <time>2022-09-05T09:39:42.000Z</time>
      </trkpt>
      <trkpt lat="49.83651" lon="4.84206">
        <ele>360</ele>
        <time>2022-09-05T09:39:43.000Z</time>
      </trkpt>
      <trkpt lat="49.83649" lon="4.84208">
        <ele>360</ele>
        <time>2022-09-05T09:39:44.000Z</time>
      </trkpt>
      <trkpt lat="49.83647" lon="4.84211">
        <ele>360</ele>
        <time>2022-09-05T09:39:45.000Z</time>
      </trkpt>
      <trkpt lat="49.83644" lon="4.84215">
        <ele>360</ele>
        <time>2022-09-05T09:39:46.000Z</time>
      </trkpt>
      <trkpt lat="49.83641" lon="4.84219">
        <ele>360</ele>
        <time>2022-09-05T09:39:47.000Z</time>
      </trkpt>
      <trkpt lat="49.83638" lon="4.84225">
        <ele>360</ele>
        <time>2022-09-05T09:39:48.000Z</time>
      </trkpt>
      <trkpt lat="49.83634" lon="4.84232">
        <ele>360</ele>
        <time>2022-09-05T09:39:49.000Z</time>
      </trkpt>
      <trkpt lat="49.83631" lon="4.8424">
        <ele>360</ele>
        <time>2022-09-05T09:39:50.000Z</time>
      </trkpt>
      <trkpt lat="49.83628" lon="4.84249">
        <ele>360</ele>
        <time>2022-09-05T09:39:51.000Z</time>
      </trkpt>
      <trkpt lat="49.83624" lon="4.84257">
        <ele>360</ele>
        <time>2022-09-05T09:39:52.000Z</time>
      </trkpt>
      <trkpt lat="49.8362" lon="4.84268">
        <ele>360</ele>
        <time>2022-09-05T09:39:53.000Z</time>
      </trkpt>
      <trkpt lat="49.83616" lon="4.84279">
        <ele>360</ele>
        <time>2022-09-05T09:39:54.000Z</time>
      </trkpt>
      <trkpt lat="49.83612" lon="4.8429">
        <ele>360</ele>
        <time>2022-09-05T09:39:55.000Z</time>
      </trkpt>
      <trkpt lat="49.83608" lon="4.84301">
        <ele>359</ele>
        <time>2022-09-05T09:39:56.000Z</time>
      </trkpt>
      <trkpt lat="49.83603" lon="4.84312">
        <ele>359</ele>
        <time>2022-09-05T09:39:57.000Z</time>
      </trkpt>
      <trkpt lat="49.83599" lon="4.84323">
        <ele>359</ele>
        <time>2022-09-05T09:39:58.000Z</time>
      </trkpt>
      <trkpt lat="49.83596" lon="4.84335">
        <ele>358</ele>
        <time>2022-09-05T09:39:59.000Z</time>
      </trkpt>
      <trkpt lat="49.83593" lon="4.84347">
        <ele>358</ele>
        <time>2022-09-05T09:40:00.000Z</time>
      </trkpt>
      <trkpt lat="49.8359" lon="4.84359">
        <ele>358</ele>
        <time>2022-09-05T09:40:01.000Z</time>
      </trkpt>
      <trkpt lat="49.83588" lon="4.84371">
        <ele>357</ele>
        <time>2022-09-05T09:40:02.000Z</time>
      </trkpt>
      <trkpt lat="49.83587" lon="4.84384">
        <ele>357</ele>
        <time>2022-09-05T09:40:03.000Z</time>
      </trkpt>
      <trkpt lat="49.83584" lon="4.84397">
        <ele>356</ele>
        <time>2022-09-05T09:40:04.000Z</time>
      </trkpt>
      <trkpt lat="49.83582" lon="4.84409">
        <ele>356</ele>
        <time>2022-09-05T09:40:05.000Z</time>
      </trkpt>
      <trkpt lat="49.8358" lon="4.84421">
        <ele>356</ele>
        <time>2022-09-05T09:40:06.000Z</time>
      </trkpt>
      <trkpt lat="49.83578" lon="4.84432">
        <ele>355</ele>
        <time>2022-09-05T09:40:07.000Z</time>
      </trkpt>
      <trkpt lat="49.83575" lon="4.84443">
        <ele>355</ele>
        <time>2022-09-05T09:40:08.000Z</time>
      </trkpt>
      <trkpt lat="49.83573" lon="4.84455">
        <ele>354</ele>
        <time>2022-09-05T09:40:09.000Z</time>
      </trkpt>
      <trkpt lat="49.83571" lon="4.84466">
        <ele>354</ele>
        <time>2022-09-05T09:40:10.000Z</time>
      </trkpt>
      <trkpt lat="49.83569" lon="4.84477">
        <ele>354</ele>
        <time>2022-09-05T09:40:11.000Z</time>
      </trkpt>
      <trkpt lat="49.83567" lon="4.84488">
        <ele>353</ele>
        <time>2022-09-05T09:40:12.000Z</time>
      </trkpt>
      <trkpt lat="49.83566" lon="4.84498">
        <ele>353</ele>
        <time>2022-09-05T09:40:13.000Z</time>
      </trkpt>
      <trkpt lat="49.83564" lon="4.84508">
        <ele>352</ele>
        <time>2022-09-05T09:40:14.000Z</time>
      </trkpt>
      <trkpt lat="49.83562" lon="4.84518">
        <ele>352</ele>
        <time>2022-09-05T09:40:15.000Z</time>
      </trkpt>
      <trkpt lat="49.83561" lon="4.84528">
        <ele>352</ele>
        <time>2022-09-05T09:40:16.000Z</time>
      </trkpt>
      <trkpt lat="49.83559" lon="4.84537">
        <ele>352</ele>
        <time>2022-09-05T09:40:17.000Z</time>
      </trkpt>
      <trkpt lat="49.83557" lon="4.84547">
        <ele>351</ele>
        <time>2022-09-05T09:40:18.000Z</time>
      </trkpt>
      <trkpt lat="49.83556" lon="4.84557">
        <ele>351</ele>
        <time>2022-09-05T09:40:19.000Z</time>
      </trkpt>
      <trkpt lat="49.83554" lon="4.84567">
        <ele>351</ele>
        <time>2022-09-05T09:40:20.000Z</time>
      </trkpt>
      <trkpt lat="49.83553" lon="4.84577">
        <ele>350</ele>
        <time>2022-09-05T09:40:21.000Z</time>
      </trkpt>
      <trkpt lat="49.83551" lon="4.84586">
        <ele>350</ele>
        <time>2022-09-05T09:40:22.000Z</time>
      </trkpt>
      <trkpt lat="49.83548" lon="4.84595">
        <ele>350</ele>
        <time>2022-09-05T09:40:23.000Z</time>
      </trkpt>
      <trkpt lat="49.83547" lon="4.84605">
        <ele>350</ele>
        <time>2022-09-05T09:40:24.000Z</time>
      </trkpt>
      <trkpt lat="49.83545" lon="4.84615">
        <ele>349</ele>
        <time>2022-09-05T09:40:25.000Z</time>
      </trkpt>
      <trkpt lat="49.83544" lon="4.84625">
        <ele>349</ele>
        <time>2022-09-05T09:40:26.000Z</time>
      </trkpt>
      <trkpt lat="49.83542" lon="4.84634">
        <ele>349</ele>
        <time>2022-09-05T09:40:27.000Z</time>
      </trkpt>
      <trkpt lat="49.8354" lon="4.84644">
        <ele>349</ele>
        <time>2022-09-05T09:40:28.000Z</time>
      </trkpt>
      <trkpt lat="49.83538" lon="4.84653">
        <ele>348</ele>
        <time>2022-09-05T09:40:29.000Z</time>
      </trkpt>
      <trkpt lat="49.83537" lon="4.84663">
        <ele>348</ele>
        <time>2022-09-05T09:40:30.000Z</time>
      </trkpt>
      <trkpt lat="49.83535" lon="4.84672">
        <ele>348</ele>
        <time>2022-09-05T09:40:31.000Z</time>
      </trkpt>
      <trkpt lat="49.83533" lon="4.84682">
        <ele>348</ele>
        <time>2022-09-05T09:40:32.000Z</time>
      </trkpt>
      <trkpt lat="49.83532" lon="4.84691">
        <ele>348</ele>
        <time>2022-09-05T09:40:33.000Z</time>
      </trkpt>
      <trkpt lat="49.8353" lon="4.847">
        <ele>347</ele>
        <time>2022-09-05T09:40:34.000Z</time>
      </trkpt>
      <trkpt lat="49.83529" lon="4.8471">
        <ele>347</ele>
        <time>2022-09-05T09:40:35.000Z</time>
      </trkpt>
      <trkpt lat="49.83528" lon="4.84719">
        <ele>347</ele>
        <time>2022-09-05T09:40:36.000Z</time>
      </trkpt>
      <trkpt lat="49.83526" lon="4.84728">
        <ele>347</ele>
        <time>2022-09-05T09:40:37.000Z</time>
      </trkpt>
      <trkpt lat="49.83524" lon="4.84737">
        <ele>347</ele>
        <time>2022-09-05T09:40:38.000Z</time>
      </trkpt>
      <trkpt lat="49.83522" lon="4.84746">
        <ele>346</ele>
        <time>2022-09-05T09:40:39.000Z</time>
      </trkpt>
      <trkpt lat="49.83521" lon="4.84755">
        <ele>346</ele>
        <time>2022-09-05T09:40:40.000Z</time>
      </trkpt>
      <trkpt lat="49.83519" lon="4.84764">
        <ele>346</ele>
        <time>2022-09-05T09:40:41.000Z</time>
      </trkpt>
      <trkpt lat="49.83518" lon="4.84773">
        <ele>346</ele>
        <time>2022-09-05T09:40:42.000Z</time>
      </trkpt>
      <trkpt lat="49.83517" lon="4.84782">
        <ele>346</ele>
        <time>2022-09-05T09:40:43.000Z</time>
      </trkpt>
      <trkpt lat="49.83515" lon="4.84791">
        <ele>346</ele>
        <time>2022-09-05T09:40:44.000Z</time>
      </trkpt>
      <trkpt lat="49.83514" lon="4.848">
        <ele>346</ele>
        <time>2022-09-05T09:40:45.000Z</time>
      </trkpt>
      <trkpt lat="49.83512" lon="4.84808">
        <ele>345</ele>
        <time>2022-09-05T09:40:46.000Z</time>
      </trkpt>
      <trkpt lat="49.83511" lon="4.84817">
        <ele>345</ele>
        <time>2022-09-05T09:40:47.000Z</time>
      </trkpt>
      <trkpt lat="49.8351" lon="4.84825">
        <ele>345</ele>
        <time>2022-09-05T09:40:48.000Z</time>
      </trkpt>
      <trkpt lat="49.83509" lon="4.84833">
        <ele>345</ele>
        <time>2022-09-05T09:40:49.000Z</time>
      </trkpt>
      <trkpt lat="49.83507" lon="4.84842">
        <ele>345</ele>
        <time>2022-09-05T09:40:50.000Z</time>
      </trkpt>
      <trkpt lat="49.83506" lon="4.8485">
        <ele>345</ele>
        <time>2022-09-05T09:40:51.000Z</time>
      </trkpt>
      <trkpt lat="49.83504" lon="4.84857">
        <ele>345</ele>
        <time>2022-09-05T09:40:52.000Z</time>
      </trkpt>
      <trkpt lat="49.83503" lon="4.84865">
        <ele>345</ele>
        <time>2022-09-05T09:40:53.000Z</time>
      </trkpt>
      <trkpt lat="49.83501" lon="4.84872">
        <ele>345</ele>
        <time>2022-09-05T09:40:54.000Z</time>
      </trkpt>
      <trkpt lat="49.83498" lon="4.84879">
        <ele>345</ele>
        <time>2022-09-05T09:40:55.000Z</time>
      </trkpt>
      <trkpt lat="49.83496" lon="4.84885">
        <ele>345</ele>
        <time>2022-09-05T09:40:56.000Z</time>
      </trkpt>
      <trkpt lat="49.83494" lon="4.84891">
        <ele>345</ele>
        <time>2022-09-05T09:40:57.000Z</time>
      </trkpt>
      <trkpt lat="49.83491" lon="4.84896">
        <ele>345</ele>
        <time>2022-09-05T09:40:58.000Z</time>
      </trkpt>
      <trkpt lat="49.83488" lon="4.84901">
        <ele>345</ele>
        <time>2022-09-05T09:40:59.000Z</time>
      </trkpt>
      <trkpt lat="49.83485" lon="4.84905">
        <ele>345</ele>
        <time>2022-09-05T09:41:00.000Z</time>
      </trkpt>
      <trkpt lat="49.83482" lon="4.84909">
        <ele>345</ele>
        <time>2022-09-05T09:41:01.000Z</time>
      </trkpt>
      <trkpt lat="49.83479" lon="4.84913">
        <ele>345</ele>
        <time>2022-09-05T09:41:02.000Z</time>
      </trkpt>
      <trkpt lat="49.83475" lon="4.84917">
        <ele>345</ele>
        <time>2022-09-05T09:41:03.000Z</time>
      </trkpt>
      <trkpt lat="49.83472" lon="4.84921">
        <ele>345</ele>
        <time>2022-09-05T09:41:04.000Z</time>
      </trkpt>
      <trkpt lat="49.83468" lon="4.84924">
        <ele>346</ele>
        <time>2022-09-05T09:41:05.000Z</time>
      </trkpt>
      <trkpt lat="49.83465" lon="4.84927">
        <ele>346</ele>
        <time>2022-09-05T09:41:06.000Z</time>
      </trkpt>
      <trkpt lat="49.83462" lon="4.84931">
        <ele>346</ele>
        <time>2022-09-05T09:41:07.000Z</time>
      </trkpt>
      <trkpt lat="49.83458" lon="4.84934">
        <ele>346</ele>
        <time>2022-09-05T09:41:08.000Z</time>
      </trkpt>
      <trkpt lat="49.83455" lon="4.84937">
        <ele>346</ele>
        <time>2022-09-05T09:41:09.000Z</time>
      </trkpt>
      <trkpt lat="49.83451" lon="4.84941">
        <ele>346</ele>
        <time>2022-09-05T09:41:10.000Z</time>
      </trkpt>
      <trkpt lat="49.83447" lon="4.84944">
        <ele>346</ele>
        <time>2022-09-05T09:41:11.000Z</time>
      </trkpt>
      <trkpt lat="49.83444" lon="4.84948">
        <ele>346</ele>
        <time>2022-09-05T09:41:12.000Z</time>
      </trkpt>
      <trkpt lat="49.8344" lon="4.84952">
        <ele>346</ele>
        <time>2022-09-05T09:41:13.000Z</time>
      </trkpt>
      <trkpt lat="49.83437" lon="4.84955">
        <ele>346</ele>
        <time>2022-09-05T09:41:14.000Z</time>
      </trkpt>
      <trkpt lat="49.83433" lon="4.84959">
        <ele>346</ele>
        <time>2022-09-05T09:41:15.000Z</time>
      </trkpt>
      <trkpt lat="49.83429" lon="4.84962">
        <ele>346</ele>
        <time>2022-09-05T09:41:16.000Z</time>
      </trkpt>
      <trkpt lat="49.83426" lon="4.84965">
        <ele>346</ele>
        <time>2022-09-05T09:41:17.000Z</time>
      </trkpt>
      <trkpt lat="49.83422" lon="4.84968">
        <ele>347</ele>
        <time>2022-09-05T09:41:18.000Z</time>
      </trkpt>
      <trkpt lat="49.83419" lon="4.84971">
        <ele>347</ele>
        <time>2022-09-05T09:41:19.000Z</time>
      </trkpt>
      <trkpt lat="49.83416" lon="4.84974">
        <ele>347</ele>
        <time>2022-09-05T09:41:20.000Z</time>
      </trkpt>
      <trkpt lat="49.83413" lon="4.84977">
        <ele>347</ele>
        <time>2022-09-05T09:41:21.000Z</time>
      </trkpt>
      <trkpt lat="49.83411" lon="4.8498">
        <ele>347</ele>
        <time>2022-09-05T09:41:22.000Z</time>
      </trkpt>
      <trkpt lat="49.83408" lon="4.84983">
        <ele>347</ele>
        <time>2022-09-05T09:41:23.000Z</time>
      </trkpt>
      <trkpt lat="49.83405" lon="4.84985">
        <ele>348</ele>
        <time>2022-09-05T09:41:24.000Z</time>
      </trkpt>
      <trkpt lat="49.83403" lon="4.84988">
        <ele>348</ele>
        <time>2022-09-05T09:41:25.000Z</time>
      </trkpt>
      <trkpt lat="49.834" lon="4.84991">
        <ele>348</ele>
        <time>2022-09-05T09:41:26.000Z</time>
      </trkpt>
      <trkpt lat="49.83396" lon="4.84994">
        <ele>348</ele>
        <time>2022-09-05T09:41:27.000Z</time>
      </trkpt>
      <trkpt lat="49.83393" lon="4.84997">
        <ele>348</ele>
        <time>2022-09-05T09:41:28.000Z</time>
      </trkpt>
      <trkpt lat="49.8339" lon="4.85">
        <ele>348</ele>
        <time>2022-09-05T09:41:29.000Z</time>
      </trkpt>
      <trkpt lat="49.83387" lon="4.85003">
        <ele>348</ele>
        <time>2022-09-05T09:41:30.000Z</time>
      </trkpt>
      <trkpt lat="49.83384" lon="4.85006">
        <ele>349</ele>
        <time>2022-09-05T09:41:31.000Z</time>
      </trkpt>
      <trkpt lat="49.8338" lon="4.85009">
        <ele>349</ele>
        <time>2022-09-05T09:41:32.000Z</time>
      </trkpt>
      <trkpt lat="49.83377" lon="4.85011">
        <ele>349</ele>
        <time>2022-09-05T09:41:33.000Z</time>
      </trkpt>
      <trkpt lat="49.83374" lon="4.85014">
        <ele>349</ele>
        <time>2022-09-05T09:41:34.000Z</time>
      </trkpt>
      <trkpt lat="49.83371" lon="4.85017">
        <ele>349</ele>
        <time>2022-09-05T09:41:35.000Z</time>
      </trkpt>
      <trkpt lat="49.83368" lon="4.8502">
        <ele>349</ele>
        <time>2022-09-05T09:41:36.000Z</time>
      </trkpt>
      <trkpt lat="49.83365" lon="4.85022">
        <ele>350</ele>
        <time>2022-09-05T09:41:37.000Z</time>
      </trkpt>
      <trkpt lat="49.83362" lon="4.85024">
        <ele>350</ele>
        <time>2022-09-05T09:41:38.000Z</time>
      </trkpt>
      <trkpt lat="49.83359" lon="4.85026">
        <ele>350</ele>
        <time>2022-09-05T09:41:39.000Z</time>
      </trkpt>
      <trkpt lat="49.83357" lon="4.85029">
        <ele>350</ele>
        <time>2022-09-05T09:41:40.000Z</time>
      </trkpt>
      <trkpt lat="49.83354" lon="4.85031">
        <ele>350</ele>
        <time>2022-09-05T09:41:41.000Z</time>
      </trkpt>
      <trkpt lat="49.83352" lon="4.85032">
        <ele>350</ele>
        <time>2022-09-05T09:41:42.000Z</time>
      </trkpt>
      <trkpt lat="49.83349" lon="4.85034">
        <ele>350</ele>
        <time>2022-09-05T09:41:43.000Z</time>
      </trkpt>
      <trkpt lat="49.83347" lon="4.85036">
        <ele>351</ele>
        <time>2022-09-05T09:41:44.000Z</time>
      </trkpt>
      <trkpt lat="49.83344" lon="4.85038">
        <ele>351</ele>
        <time>2022-09-05T09:41:45.000Z</time>
      </trkpt>
      <trkpt lat="49.83341" lon="4.85039">
        <ele>351</ele>
        <time>2022-09-05T09:41:46.000Z</time>
      </trkpt>
      <trkpt lat="49.83339" lon="4.8504">
        <ele>351</ele>
        <time>2022-09-05T09:41:47.000Z</time>
      </trkpt>
      <trkpt lat="49.83336" lon="4.85041">
        <ele>351</ele>
        <time>2022-09-05T09:41:48.000Z</time>
      </trkpt>
      <trkpt lat="49.83333" lon="4.85042">
        <ele>352</ele>
        <time>2022-09-05T09:41:49.000Z</time>
      </trkpt>
      <trkpt lat="49.83331" lon="4.85043">
        <ele>352</ele>
        <time>2022-09-05T09:41:50.000Z</time>
      </trkpt>
      <trkpt lat="49.83329" lon="4.85043">
        <ele>352</ele>
        <time>2022-09-05T09:41:51.000Z</time>
      </trkpt>
      <trkpt lat="49.83327" lon="4.85043">
        <ele>352</ele>
        <time>2022-09-05T09:41:52.000Z</time>
      </trkpt>
      <trkpt lat="49.83324" lon="4.85043">
        <ele>352</ele>
        <time>2022-09-05T09:41:53.000Z</time>
      </trkpt>
      <trkpt lat="49.83322" lon="4.85044">
        <ele>352</ele>
        <time>2022-09-05T09:41:54.000Z</time>
      </trkpt>
      <trkpt lat="49.83319" lon="4.85044">
        <ele>352</ele>
        <time>2022-09-05T09:41:55.000Z</time>
      </trkpt>
      <trkpt lat="49.83316" lon="4.85045">
        <ele>352</ele>
        <time>2022-09-05T09:41:56.000Z</time>
      </trkpt>
      <trkpt lat="49.83313" lon="4.85046">
        <ele>352</ele>
        <time>2022-09-05T09:41:57.000Z</time>
      </trkpt>
      <trkpt lat="49.8331" lon="4.85047">
        <ele>353</ele>
        <time>2022-09-05T09:41:58.000Z</time>
      </trkpt>
      <trkpt lat="49.83307" lon="4.85047">
        <ele>353</ele>
        <time>2022-09-05T09:41:59.000Z</time>
      </trkpt>
      <trkpt lat="49.83304" lon="4.85048">
        <ele>353</ele>
        <time>2022-09-05T09:42:00.000Z</time>
      </trkpt>
      <trkpt lat="49.833" lon="4.8505">
        <ele>353</ele>
        <time>2022-09-05T09:42:01.000Z</time>
      </trkpt>
      <trkpt lat="49.83297" lon="4.85051">
        <ele>353</ele>
        <time>2022-09-05T09:42:02.000Z</time>
      </trkpt>
      <trkpt lat="49.83294" lon="4.85052">
        <ele>353</ele>
        <time>2022-09-05T09:42:03.000Z</time>
      </trkpt>
      <trkpt lat="49.8329" lon="4.85053">
        <ele>354</ele>
        <time>2022-09-05T09:42:04.000Z</time>
      </trkpt>
      <trkpt lat="49.83287" lon="4.85054">
        <ele>354</ele>
        <time>2022-09-05T09:42:05.000Z</time>
      </trkpt>
      <trkpt lat="49.83284" lon="4.85055">
        <ele>354</ele>
        <time>2022-09-05T09:42:06.000Z</time>
      </trkpt>
      <trkpt lat="49.83281" lon="4.85057">
        <ele>355</ele>
        <time>2022-09-05T09:42:07.000Z</time>
      </trkpt>
      <trkpt lat="49.83278" lon="4.85058">
        <ele>355</ele>
        <time>2022-09-05T09:42:08.000Z</time>
      </trkpt>
      <trkpt lat="49.83274" lon="4.8506">
        <ele>355</ele>
        <time>2022-09-05T09:42:09.000Z</time>
      </trkpt>
      <trkpt lat="49.83271" lon="4.85062">
        <ele>355</ele>
        <time>2022-09-05T09:42:10.000Z</time>
      </trkpt>
      <trkpt lat="49.83268" lon="4.85063">
        <ele>356</ele>
        <time>2022-09-05T09:42:11.000Z</time>
      </trkpt>
      <trkpt lat="49.83265" lon="4.85064">
        <ele>356</ele>
        <time>2022-09-05T09:42:12.000Z</time>
      </trkpt>
      <trkpt lat="49.83262" lon="4.85065">
        <ele>356</ele>
        <time>2022-09-05T09:42:13.000Z</time>
      </trkpt>
      <trkpt lat="49.83259" lon="4.85067">
        <ele>356</ele>
        <time>2022-09-05T09:42:14.000Z</time>
      </trkpt>
      <trkpt lat="49.83256" lon="4.85069">
        <ele>356</ele>
        <time>2022-09-05T09:42:15.000Z</time>
      </trkpt>
      <trkpt lat="49.83252" lon="4.85071">
        <ele>357</ele>
        <time>2022-09-05T09:42:16.000Z</time>
      </trkpt>
      <trkpt lat="49.83249" lon="4.85073">
        <ele>357</ele>
        <time>2022-09-05T09:42:17.000Z</time>
      </trkpt>
      <trkpt lat="49.83245" lon="4.85075">
        <ele>357</ele>
        <time>2022-09-05T09:42:18.000Z</time>
      </trkpt>
      <trkpt lat="49.8324" lon="4.85077">
        <ele>357</ele>
        <time>2022-09-05T09:42:19.000Z</time>
      </trkpt>
      <trkpt lat="49.83236" lon="4.85079">
        <ele>358</ele>
        <time>2022-09-05T09:42:20.000Z</time>
      </trkpt>
      <trkpt lat="49.83231" lon="4.8508">
        <ele>358</ele>
        <time>2022-09-05T09:42:21.000Z</time>
      </trkpt>
      <trkpt lat="49.83226" lon="4.85081">
        <ele>358</ele>
        <time>2022-09-05T09:42:22.000Z</time>
      </trkpt>
      <trkpt lat="49.83221" lon="4.85083">
        <ele>359</ele>
        <time>2022-09-05T09:42:23.000Z</time>
      </trkpt>
      <trkpt lat="49.83216" lon="4.85085">
        <ele>359</ele>
        <time>2022-09-05T09:42:24.000Z</time>
      </trkpt>
      <trkpt lat="49.83212" lon="4.85087">
        <ele>359</ele>
        <time>2022-09-05T09:42:25.000Z</time>
      </trkpt>
      <trkpt lat="49.83207" lon="4.85089">
        <ele>360</ele>
        <time>2022-09-05T09:42:26.000Z</time>
      </trkpt>
      <trkpt lat="49.83201" lon="4.85091">
        <ele>360</ele>
        <time>2022-09-05T09:42:27.000Z</time>
      </trkpt>
      <trkpt lat="49.83196" lon="4.85093">
        <ele>360</ele>
        <time>2022-09-05T09:42:28.000Z</time>
      </trkpt>
      <trkpt lat="49.8319" lon="4.85095">
        <ele>360</ele>
        <time>2022-09-05T09:42:29.000Z</time>
      </trkpt>
      <trkpt lat="49.83184" lon="4.85097">
        <ele>361</ele>
        <time>2022-09-05T09:42:30.000Z</time>
      </trkpt>
      <trkpt lat="49.83177" lon="4.85099">
        <ele>361</ele>
        <time>2022-09-05T09:42:31.000Z</time>
      </trkpt>
      <trkpt lat="49.83171" lon="4.85103">
        <ele>361</ele>
        <time>2022-09-05T09:42:32.000Z</time>
      </trkpt>
      <trkpt lat="49.83164" lon="4.85106">
        <ele>362</ele>
        <time>2022-09-05T09:42:33.000Z</time>
      </trkpt>
      <trkpt lat="49.83156" lon="4.85111">
        <ele>362</ele>
        <time>2022-09-05T09:42:34.000Z</time>
      </trkpt>
      <trkpt lat="49.83148" lon="4.85115">
        <ele>362</ele>
        <time>2022-09-05T09:42:35.000Z</time>
      </trkpt>
      <trkpt lat="49.83141" lon="4.85119">
        <ele>362</ele>
        <time>2022-09-05T09:42:36.000Z</time>
      </trkpt>
      <trkpt lat="49.83133" lon="4.85123">
        <ele>362</ele>
        <time>2022-09-05T09:42:37.000Z</time>
      </trkpt>
      <trkpt lat="49.83125" lon="4.85125">
        <ele>362</ele>
        <time>2022-09-05T09:42:38.000Z</time>
      </trkpt>
      <trkpt lat="49.83116" lon="4.85127">
        <ele>362</ele>
        <time>2022-09-05T09:42:39.000Z</time>
      </trkpt>
      <trkpt lat="49.83107" lon="4.85127">
        <ele>361</ele>
        <time>2022-09-05T09:42:40.000Z</time>
      </trkpt>
      <trkpt lat="49.83099" lon="4.85127">
        <ele>361</ele>
        <time>2022-09-05T09:42:41.000Z</time>
      </trkpt>
      <trkpt lat="49.8309" lon="4.85126">
        <ele>361</ele>
        <time>2022-09-05T09:42:42.000Z</time>
      </trkpt>
      <trkpt lat="49.83081" lon="4.85126">
        <ele>360</ele>
        <time>2022-09-05T09:42:43.000Z</time>
      </trkpt>
      <trkpt lat="49.83072" lon="4.85124">
        <ele>360</ele>
        <time>2022-09-05T09:42:44.000Z</time>
      </trkpt>
      <trkpt lat="49.83062" lon="4.85123">
        <ele>360</ele>
        <time>2022-09-05T09:42:45.000Z</time>
      </trkpt>
      <trkpt lat="49.83052" lon="4.85121">
        <ele>360</ele>
        <time>2022-09-05T09:42:46.000Z</time>
      </trkpt>
      <trkpt lat="49.83042" lon="4.85119">
        <ele>359</ele>
        <time>2022-09-05T09:42:47.000Z</time>
      </trkpt>
      <trkpt lat="49.83031" lon="4.85117">
        <ele>359</ele>
        <time>2022-09-05T09:42:48.000Z</time>
      </trkpt>
      <trkpt lat="49.83021" lon="4.85114">
        <ele>358</ele>
        <time>2022-09-05T09:42:49.000Z</time>
      </trkpt>
      <trkpt lat="49.8301" lon="4.85111">
        <ele>357</ele>
        <time>2022-09-05T09:42:50.000Z</time>
      </trkpt>
      <trkpt lat="49.82999" lon="4.85107">
        <ele>357</ele>
        <time>2022-09-05T09:42:51.000Z</time>
      </trkpt>
      <trkpt lat="49.82989" lon="4.85104">
        <ele>356</ele>
        <time>2022-09-05T09:42:52.000Z</time>
      </trkpt>
      <trkpt lat="49.82978" lon="4.85101">
        <ele>355</ele>
        <time>2022-09-05T09:42:53.000Z</time>
      </trkpt>
      <trkpt lat="49.82968" lon="4.85098">
        <ele>354</ele>
        <time>2022-09-05T09:42:54.000Z</time>
      </trkpt>
      <trkpt lat="49.82959" lon="4.85095">
        <ele>353</ele>
        <time>2022-09-05T09:42:55.000Z</time>
      </trkpt>
      <trkpt lat="49.8295" lon="4.85091">
        <ele>352</ele>
        <time>2022-09-05T09:42:56.000Z</time>
      </trkpt>
      <trkpt lat="49.82942" lon="4.85086">
        <ele>351</ele>
        <time>2022-09-05T09:42:57.000Z</time>
      </trkpt>
      <trkpt lat="49.82934" lon="4.85082">
        <ele>349</ele>
        <time>2022-09-05T09:42:58.000Z</time>
      </trkpt>
      <trkpt lat="49.82926" lon="4.85078">
        <ele>348</ele>
        <time>2022-09-05T09:42:59.000Z</time>
      </trkpt>
      <trkpt lat="49.8292" lon="4.85073">
        <ele>347</ele>
        <time>2022-09-05T09:43:00.000Z</time>
      </trkpt>
      <trkpt lat="49.82915" lon="4.85068">
        <ele>346</ele>
        <time>2022-09-05T09:43:01.000Z</time>
      </trkpt>
      <trkpt lat="49.8291" lon="4.85064">
        <ele>345</ele>
        <time>2022-09-05T09:43:02.000Z</time>
      </trkpt>
      <trkpt lat="49.82907" lon="4.85062">
        <ele>344</ele>
        <time>2022-09-05T09:43:03.000Z</time>
      </trkpt>
      <trkpt lat="49.82903" lon="4.8506">
        <ele>343</ele>
        <time>2022-09-05T09:43:04.000Z</time>
      </trkpt>
      <trkpt lat="49.829" lon="4.8506">
        <ele>343</ele>
        <time>2022-09-05T09:43:05.000Z</time>
      </trkpt>
      <trkpt lat="49.82897" lon="4.85062">
        <ele>342</ele>
        <time>2022-09-05T09:43:06.000Z</time>
      </trkpt>
      <trkpt lat="49.82895" lon="4.85065">
        <ele>342</ele>
        <time>2022-09-05T09:43:07.000Z</time>
      </trkpt>
      <trkpt lat="49.82893" lon="4.85067">
        <ele>341</ele>
        <time>2022-09-05T09:43:08.000Z</time>
      </trkpt>
      <trkpt lat="49.82891" lon="4.85071">
        <ele>341</ele>
        <time>2022-09-05T09:43:09.000Z</time>
      </trkpt>
      <trkpt lat="49.82889" lon="4.85074">
        <ele>341</ele>
        <time>2022-09-05T09:43:10.000Z</time>
      </trkpt>
      <trkpt lat="49.82887" lon="4.85077">
        <ele>340</ele>
        <time>2022-09-05T09:43:11.000Z</time>
      </trkpt>
      <trkpt lat="49.82885" lon="4.85079">
        <ele>340</ele>
        <time>2022-09-05T09:43:12.000Z</time>
      </trkpt>
      <trkpt lat="49.82883" lon="4.85082">
        <ele>340</ele>
        <time>2022-09-05T09:43:13.000Z</time>
      </trkpt>
      <trkpt lat="49.82881" lon="4.85086">
        <ele>339</ele>
        <time>2022-09-05T09:43:14.000Z</time>
      </trkpt>
      <trkpt lat="49.82879" lon="4.85088">
        <ele>339</ele>
        <time>2022-09-05T09:43:15.000Z</time>
      </trkpt>
      <trkpt lat="49.82876" lon="4.8509">
        <ele>339</ele>
        <time>2022-09-05T09:43:16.000Z</time>
      </trkpt>
      <trkpt lat="49.82874" lon="4.85093">
        <ele>339</ele>
        <time>2022-09-05T09:43:17.000Z</time>
      </trkpt>
      <trkpt lat="49.82872" lon="4.85096">
        <ele>339</ele>
        <time>2022-09-05T09:43:18.000Z</time>
      </trkpt>
      <trkpt lat="49.82871" lon="4.85099">
        <ele>339</ele>
        <time>2022-09-05T09:43:19.000Z</time>
      </trkpt>
      <trkpt lat="49.82869" lon="4.85102">
        <ele>339</ele>
        <time>2022-09-05T09:43:20.000Z</time>
      </trkpt>
      <trkpt lat="49.82867" lon="4.85105">
        <ele>339</ele>
        <time>2022-09-05T09:43:21.000Z</time>
      </trkpt>
      <trkpt lat="49.82865" lon="4.85107">
        <ele>339</ele>
        <time>2022-09-05T09:43:22.000Z</time>
      </trkpt>
      <trkpt lat="49.82863" lon="4.8511">
        <ele>339</ele>
        <time>2022-09-05T09:43:23.000Z</time>
      </trkpt>
      <trkpt lat="49.8286" lon="4.85113">
        <ele>339</ele>
        <time>2022-09-05T09:43:24.000Z</time>
      </trkpt>
      <trkpt lat="49.82858" lon="4.85116">
        <ele>339</ele>
        <time>2022-09-05T09:43:25.000Z</time>
      </trkpt>
      <trkpt lat="49.82855" lon="4.85119">
        <ele>339</ele>
        <time>2022-09-05T09:43:26.000Z</time>
      </trkpt>
      <trkpt lat="49.82853" lon="4.85122">
        <ele>339</ele>
        <time>2022-09-05T09:43:27.000Z</time>
      </trkpt>
      <trkpt lat="49.82851" lon="4.85125">
        <ele>339</ele>
        <time>2022-09-05T09:43:28.000Z</time>
      </trkpt>
      <trkpt lat="49.82849" lon="4.85128">
        <ele>339</ele>
        <time>2022-09-05T09:43:29.000Z</time>
      </trkpt>
      <trkpt lat="49.82846" lon="4.85131">
        <ele>340</ele>
        <time>2022-09-05T09:43:30.000Z</time>
      </trkpt>
      <trkpt lat="49.82844" lon="4.85134">
        <ele>340</ele>
        <time>2022-09-05T09:43:31.000Z</time>
      </trkpt>
      <trkpt lat="49.82841" lon="4.85138">
        <ele>340</ele>
        <time>2022-09-05T09:43:32.000Z</time>
      </trkpt>
      <trkpt lat="49.82839" lon="4.85142">
        <ele>340</ele>
        <time>2022-09-05T09:43:33.000Z</time>
      </trkpt>
      <trkpt lat="49.82836" lon="4.85145">
        <ele>340</ele>
        <time>2022-09-05T09:43:34.000Z</time>
      </trkpt>
      <trkpt lat="49.82834" lon="4.85149">
        <ele>341</ele>
        <time>2022-09-05T09:43:35.000Z</time>
      </trkpt>
      <trkpt lat="49.82832" lon="4.85153">
        <ele>341</ele>
        <time>2022-09-05T09:43:36.000Z</time>
      </trkpt>
      <trkpt lat="49.82831" lon="4.85156">
        <ele>341</ele>
        <time>2022-09-05T09:43:37.000Z</time>
      </trkpt>
      <trkpt lat="49.82829" lon="4.8516">
        <ele>341</ele>
        <time>2022-09-05T09:43:38.000Z</time>
      </trkpt>
      <trkpt lat="49.82827" lon="4.85164">
        <ele>341</ele>
        <time>2022-09-05T09:43:39.000Z</time>
      </trkpt>
      <trkpt lat="49.82825" lon="4.85169">
        <ele>341</ele>
        <time>2022-09-05T09:43:40.000Z</time>
      </trkpt>
      <trkpt lat="49.82822" lon="4.85173">
        <ele>341</ele>
        <time>2022-09-05T09:43:41.000Z</time>
      </trkpt>
      <trkpt lat="49.8282" lon="4.85176">
        <ele>341</ele>
        <time>2022-09-05T09:43:42.000Z</time>
      </trkpt>
      <trkpt lat="49.82818" lon="4.8518">
        <ele>341</ele>
        <time>2022-09-05T09:43:43.000Z</time>
      </trkpt>
      <trkpt lat="49.82815" lon="4.85183">
        <ele>342</ele>
        <time>2022-09-05T09:43:44.000Z</time>
      </trkpt>
      <trkpt lat="49.82813" lon="4.85187">
        <ele>342</ele>
        <time>2022-09-05T09:43:45.000Z</time>
      </trkpt>
      <trkpt lat="49.82811" lon="4.85191">
        <ele>342</ele>
        <time>2022-09-05T09:43:46.000Z</time>
      </trkpt>
      <trkpt lat="49.82809" lon="4.85195">
        <ele>342</ele>
        <time>2022-09-05T09:43:47.000Z</time>
      </trkpt>
      <trkpt lat="49.82807" lon="4.85198">
        <ele>342</ele>
        <time>2022-09-05T09:43:48.000Z</time>
      </trkpt>
      <trkpt lat="49.82805" lon="4.85202">
        <ele>342</ele>
        <time>2022-09-05T09:43:49.000Z</time>
      </trkpt>
      <trkpt lat="49.82803" lon="4.85207">
        <ele>342</ele>
        <time>2022-09-05T09:43:50.000Z</time>
      </trkpt>
      <trkpt lat="49.82801" lon="4.85211">
        <ele>342</ele>
        <time>2022-09-05T09:43:51.000Z</time>
      </trkpt>
      <trkpt lat="49.828" lon="4.85216">
        <ele>342</ele>
        <time>2022-09-05T09:43:52.000Z</time>
      </trkpt>
      <trkpt lat="49.82798" lon="4.8522">
        <ele>342</ele>
        <time>2022-09-05T09:43:53.000Z</time>
      </trkpt>
      <trkpt lat="49.82797" lon="4.85224">
        <ele>343</ele>
        <time>2022-09-05T09:43:54.000Z</time>
      </trkpt>
      <trkpt lat="49.82795" lon="4.85228">
        <ele>343</ele>
        <time>2022-09-05T09:43:55.000Z</time>
      </trkpt>
      <trkpt lat="49.82793" lon="4.85232">
        <ele>343</ele>
        <time>2022-09-05T09:43:56.000Z</time>
      </trkpt>
      <trkpt lat="49.82791" lon="4.85235">
        <ele>343</ele>
        <time>2022-09-05T09:43:57.000Z</time>
      </trkpt>
      <trkpt lat="49.82789" lon="4.85238">
        <ele>343</ele>
        <time>2022-09-05T09:43:58.000Z</time>
      </trkpt>
      <trkpt lat="49.82788" lon="4.85241">
        <ele>343</ele>
        <time>2022-09-05T09:43:59.000Z</time>
      </trkpt>
      <trkpt lat="49.82787" lon="4.85245">
        <ele>344</ele>
        <time>2022-09-05T09:44:00.000Z</time>
      </trkpt>
      <trkpt lat="49.82787" lon="4.85249">
        <ele>344</ele>
        <time>2022-09-05T09:44:01.000Z</time>
      </trkpt>
      <trkpt lat="49.82785" lon="4.85253">
        <ele>344</ele>
        <time>2022-09-05T09:44:02.000Z</time>
      </trkpt>
      <trkpt lat="49.82784" lon="4.85258">
        <ele>345</ele>
        <time>2022-09-05T09:44:03.000Z</time>
      </trkpt>
      <trkpt lat="49.82783" lon="4.85262">
        <ele>345</ele>
        <time>2022-09-05T09:44:04.000Z</time>
      </trkpt>
      <trkpt lat="49.82781" lon="4.85266">
        <ele>345</ele>
        <time>2022-09-05T09:44:05.000Z</time>
      </trkpt>
      <trkpt lat="49.8278" lon="4.8527">
        <ele>346</ele>
        <time>2022-09-05T09:44:06.000Z</time>
      </trkpt>
      <trkpt lat="49.82779" lon="4.85274">
        <ele>346</ele>
        <time>2022-09-05T09:44:07.000Z</time>
      </trkpt>
      <trkpt lat="49.82779" lon="4.85278">
        <ele>346</ele>
        <time>2022-09-05T09:44:08.000Z</time>
      </trkpt>
      <trkpt lat="49.82778" lon="4.85282">
        <ele>347</ele>
        <time>2022-09-05T09:44:09.000Z</time>
      </trkpt>
      <trkpt lat="49.82778" lon="4.85287">
        <ele>347</ele>
        <time>2022-09-05T09:44:10.000Z</time>
      </trkpt>
      <trkpt lat="49.82779" lon="4.85292">
        <ele>347</ele>
        <time>2022-09-05T09:44:11.000Z</time>
      </trkpt>
      <trkpt lat="49.8278" lon="4.85297">
        <ele>347</ele>
        <time>2022-09-05T09:44:12.000Z</time>
      </trkpt>
      <trkpt lat="49.82782" lon="4.85301">
        <ele>347</ele>
        <time>2022-09-05T09:44:13.000Z</time>
      </trkpt>
      <trkpt lat="49.82783" lon="4.85306">
        <ele>347</ele>
        <time>2022-09-05T09:44:14.000Z</time>
      </trkpt>
      <trkpt lat="49.82785" lon="4.8531">
        <ele>347</ele>
        <time>2022-09-05T09:44:15.000Z</time>
      </trkpt>
      <trkpt lat="49.82787" lon="4.85314">
        <ele>347</ele>
        <time>2022-09-05T09:44:16.000Z</time>
      </trkpt>
      <trkpt lat="49.8279" lon="4.85318">
        <ele>348</ele>
        <time>2022-09-05T09:44:17.000Z</time>
      </trkpt>
      <trkpt lat="49.82793" lon="4.85322">
        <ele>348</ele>
        <time>2022-09-05T09:44:18.000Z</time>
      </trkpt>
      <trkpt lat="49.82796" lon="4.85325">
        <ele>348</ele>
        <time>2022-09-05T09:44:19.000Z</time>
      </trkpt>
      <trkpt lat="49.82799" lon="4.85329">
        <ele>348</ele>
        <time>2022-09-05T09:44:20.000Z</time>
      </trkpt>
      <trkpt lat="49.82802" lon="4.85333">
        <ele>348</ele>
        <time>2022-09-05T09:44:21.000Z</time>
      </trkpt>
      <trkpt lat="49.82805" lon="4.85336">
        <ele>348</ele>
        <time>2022-09-05T09:44:22.000Z</time>
      </trkpt>
      <trkpt lat="49.82807" lon="4.8534">
        <ele>348</ele>
        <time>2022-09-05T09:44:23.000Z</time>
      </trkpt>
      <trkpt lat="49.8281" lon="4.85344">
        <ele>348</ele>
        <time>2022-09-05T09:44:24.000Z</time>
      </trkpt>
      <trkpt lat="49.82813" lon="4.85348">
        <ele>348</ele>
        <time>2022-09-05T09:44:25.000Z</time>
      </trkpt>
      <trkpt lat="49.82816" lon="4.85352">
        <ele>348</ele>
        <time>2022-09-05T09:44:26.000Z</time>
      </trkpt>
      <trkpt lat="49.82818" lon="4.85356">
        <ele>348</ele>
        <time>2022-09-05T09:44:27.000Z</time>
      </trkpt>
      <trkpt lat="49.82822" lon="4.85361">
        <ele>349</ele>
        <time>2022-09-05T09:44:28.000Z</time>
      </trkpt>
      <trkpt lat="49.82825" lon="4.85365">
        <ele>349</ele>
        <time>2022-09-05T09:44:29.000Z</time>
      </trkpt>
      <trkpt lat="49.82828" lon="4.85368">
        <ele>349</ele>
        <time>2022-09-05T09:44:30.000Z</time>
      </trkpt>
      <trkpt lat="49.82831" lon="4.85371">
        <ele>349</ele>
        <time>2022-09-05T09:44:31.000Z</time>
      </trkpt>
      <trkpt lat="49.82835" lon="4.85375">
        <ele>349</ele>
        <time>2022-09-05T09:44:32.000Z</time>
      </trkpt>
      <trkpt lat="49.82839" lon="4.8538">
        <ele>350</ele>
        <time>2022-09-05T09:44:33.000Z</time>
      </trkpt>
      <trkpt lat="49.82843" lon="4.85384">
        <ele>350</ele>
        <time>2022-09-05T09:44:34.000Z</time>
      </trkpt>
      <trkpt lat="49.82847" lon="4.85389">
        <ele>350</ele>
        <time>2022-09-05T09:44:35.000Z</time>
      </trkpt>
      <trkpt lat="49.82851" lon="4.85394">
        <ele>350</ele>
        <time>2022-09-05T09:44:36.000Z</time>
      </trkpt>
      <trkpt lat="49.82854" lon="4.85399">
        <ele>351</ele>
        <time>2022-09-05T09:44:37.000Z</time>
      </trkpt>
      <trkpt lat="49.82858" lon="4.85404">
        <ele>351</ele>
        <time>2022-09-05T09:44:38.000Z</time>
      </trkpt>
      <trkpt lat="49.82863" lon="4.8541">
        <ele>351</ele>
        <time>2022-09-05T09:44:39.000Z</time>
      </trkpt>
      <trkpt lat="49.82866" lon="4.85415">
        <ele>351</ele>
        <time>2022-09-05T09:44:40.000Z</time>
      </trkpt>
      <trkpt lat="49.8287" lon="4.85421">
        <ele>351</ele>
        <time>2022-09-05T09:44:41.000Z</time>
      </trkpt>
      <trkpt lat="49.82874" lon="4.85427">
        <ele>351</ele>
        <time>2022-09-05T09:44:42.000Z</time>
      </trkpt>
      <trkpt lat="49.82877" lon="4.85435">
        <ele>351</ele>
        <time>2022-09-05T09:44:43.000Z</time>
      </trkpt>
      <trkpt lat="49.8288" lon="4.85442">
        <ele>351</ele>
        <time>2022-09-05T09:44:44.000Z</time>
      </trkpt>
      <trkpt lat="49.82883" lon="4.85451">
        <ele>351</ele>
        <time>2022-09-05T09:44:45.000Z</time>
      </trkpt>
      <trkpt lat="49.82886" lon="4.8546">
        <ele>351</ele>
        <time>2022-09-05T09:44:46.000Z</time>
      </trkpt>
      <trkpt lat="49.82889" lon="4.85468">
        <ele>351</ele>
        <time>2022-09-05T09:44:47.000Z</time>
      </trkpt>
      <trkpt lat="49.82891" lon="4.85478">
        <ele>351</ele>
        <time>2022-09-05T09:44:48.000Z</time>
      </trkpt>
      <trkpt lat="49.82894" lon="4.85487">
        <ele>351</ele>
        <time>2022-09-05T09:44:49.000Z</time>
      </trkpt>
      <trkpt lat="49.82896" lon="4.85496">
        <ele>351</ele>
        <time>2022-09-05T09:44:50.000Z</time>
      </trkpt>
      <trkpt lat="49.82898" lon="4.85506">
        <ele>351</ele>
        <time>2022-09-05T09:44:51.000Z</time>
      </trkpt>
      <trkpt lat="49.829" lon="4.85515">
        <ele>351</ele>
        <time>2022-09-05T09:44:52.000Z</time>
      </trkpt>
      <trkpt lat="49.82902" lon="4.85525">
        <ele>351</ele>
        <time>2022-09-05T09:44:53.000Z</time>
      </trkpt>
      <trkpt lat="49.82904" lon="4.85535">
        <ele>351</ele>
        <time>2022-09-05T09:44:54.000Z</time>
      </trkpt>
      <trkpt lat="49.82906" lon="4.85546">
        <ele>351</ele>
        <time>2022-09-05T09:44:55.000Z</time>
      </trkpt>
      <trkpt lat="49.82909" lon="4.85556">
        <ele>351</ele>
        <time>2022-09-05T09:44:56.000Z</time>
      </trkpt>
      <trkpt lat="49.82912" lon="4.85567">
        <ele>351</ele>
        <time>2022-09-05T09:44:57.000Z</time>
      </trkpt>
      <trkpt lat="49.82915" lon="4.85577">
        <ele>350</ele>
        <time>2022-09-05T09:44:58.000Z</time>
      </trkpt>
      <trkpt lat="49.82918" lon="4.85587">
        <ele>350</ele>
        <time>2022-09-05T09:44:59.000Z</time>
      </trkpt>
      <trkpt lat="49.8292" lon="4.85598">
        <ele>350</ele>
        <time>2022-09-05T09:45:00.000Z</time>
      </trkpt>
      <trkpt lat="49.82923" lon="4.85608">
        <ele>350</ele>
        <time>2022-09-05T09:45:01.000Z</time>
      </trkpt>
      <trkpt lat="49.82925" lon="4.85619">
        <ele>349</ele>
        <time>2022-09-05T09:45:02.000Z</time>
      </trkpt>
      <trkpt lat="49.82927" lon="4.85629">
        <ele>349</ele>
        <time>2022-09-05T09:45:03.000Z</time>
      </trkpt>
      <trkpt lat="49.8293" lon="4.8564">
        <ele>349</ele>
        <time>2022-09-05T09:45:04.000Z</time>
      </trkpt>
      <trkpt lat="49.82934" lon="4.85649">
        <ele>348</ele>
        <time>2022-09-05T09:45:05.000Z</time>
      </trkpt>
      <trkpt lat="49.82938" lon="4.85659">
        <ele>348</ele>
        <time>2022-09-05T09:45:06.000Z</time>
      </trkpt>
      <trkpt lat="49.82943" lon="4.85668">
        <ele>348</ele>
        <time>2022-09-05T09:45:07.000Z</time>
      </trkpt>
      <trkpt lat="49.82949" lon="4.85678">
        <ele>347</ele>
        <time>2022-09-05T09:45:08.000Z</time>
      </trkpt>
      <trkpt lat="49.82954" lon="4.85687">
        <ele>347</ele>
        <time>2022-09-05T09:45:09.000Z</time>
      </trkpt>
      <trkpt lat="49.82959" lon="4.85696">
        <ele>346</ele>
        <time>2022-09-05T09:45:10.000Z</time>
      </trkpt>
      <trkpt lat="49.82964" lon="4.85706">
        <ele>346</ele>
        <time>2022-09-05T09:45:11.000Z</time>
      </trkpt>
      <trkpt lat="49.82969" lon="4.85716">
        <ele>346</ele>
        <time>2022-09-05T09:45:12.000Z</time>
      </trkpt>
      <trkpt lat="49.82973" lon="4.85726">
        <ele>345</ele>
        <time>2022-09-05T09:45:13.000Z</time>
      </trkpt>
      <trkpt lat="49.82976" lon="4.85737">
        <ele>344</ele>
        <time>2022-09-05T09:45:14.000Z</time>
      </trkpt>
      <trkpt lat="49.82978" lon="4.85748">
        <ele>344</ele>
        <time>2022-09-05T09:45:15.000Z</time>
      </trkpt>
      <trkpt lat="49.8298" lon="4.85759">
        <ele>343</ele>
        <time>2022-09-05T09:45:16.000Z</time>
      </trkpt>
      <trkpt lat="49.82981" lon="4.8577">
        <ele>343</ele>
        <time>2022-09-05T09:45:17.000Z</time>
      </trkpt>
      <trkpt lat="49.82982" lon="4.8578">
        <ele>342</ele>
        <time>2022-09-05T09:45:18.000Z</time>
      </trkpt>
      <trkpt lat="49.82983" lon="4.85791">
        <ele>341</ele>
        <time>2022-09-05T09:45:19.000Z</time>
      </trkpt>
      <trkpt lat="49.82983" lon="4.85801">
        <ele>341</ele>
        <time>2022-09-05T09:45:20.000Z</time>
      </trkpt>
      <trkpt lat="49.82983" lon="4.85811">
        <ele>340</ele>
        <time>2022-09-05T09:45:21.000Z</time>
      </trkpt>
      <trkpt lat="49.82983" lon="4.85821">
        <ele>340</ele>
        <time>2022-09-05T09:45:22.000Z</time>
      </trkpt>
      <trkpt lat="49.82983" lon="4.8583">
        <ele>339</ele>
        <time>2022-09-05T09:45:23.000Z</time>
      </trkpt>
      <trkpt lat="49.82983" lon="4.8584">
        <ele>339</ele>
        <time>2022-09-05T09:45:24.000Z</time>
      </trkpt>
      <trkpt lat="49.82983" lon="4.8585">
        <ele>339</ele>
        <time>2022-09-05T09:45:25.000Z</time>
      </trkpt>
      <trkpt lat="49.82983" lon="4.85859">
        <ele>338</ele>
        <time>2022-09-05T09:45:26.000Z</time>
      </trkpt>
      <trkpt lat="49.82983" lon="4.85869">
        <ele>338</ele>
        <time>2022-09-05T09:45:27.000Z</time>
      </trkpt>
      <trkpt lat="49.82984" lon="4.85878">
        <ele>338</ele>
        <time>2022-09-05T09:45:28.000Z</time>
      </trkpt>
      <trkpt lat="49.82987" lon="4.85887">
        <ele>337</ele>
        <time>2022-09-05T09:45:29.000Z</time>
      </trkpt>
      <trkpt lat="49.82989" lon="4.85896">
        <ele>337</ele>
        <time>2022-09-05T09:45:30.000Z</time>
      </trkpt>
      <trkpt lat="49.82991" lon="4.85904">
        <ele>337</ele>
        <time>2022-09-05T09:45:31.000Z</time>
      </trkpt>
      <trkpt lat="49.82993" lon="4.85911">
        <ele>337</ele>
        <time>2022-09-05T09:45:32.000Z</time>
      </trkpt>
      <trkpt lat="49.82995" lon="4.85919">
        <ele>337</ele>
        <time>2022-09-05T09:45:33.000Z</time>
      </trkpt>
      <trkpt lat="49.82998" lon="4.85926">
        <ele>337</ele>
        <time>2022-09-05T09:45:34.000Z</time>
      </trkpt>
      <trkpt lat="49.83" lon="4.85932">
        <ele>337</ele>
        <time>2022-09-05T09:45:35.000Z</time>
      </trkpt>
      <trkpt lat="49.83002" lon="4.85938">
        <ele>337</ele>
        <time>2022-09-05T09:45:36.000Z</time>
      </trkpt>
      <trkpt lat="49.83004" lon="4.85945">
        <ele>337</ele>
        <time>2022-09-05T09:45:37.000Z</time>
      </trkpt>
      <trkpt lat="49.83005" lon="4.85951">
        <ele>337</ele>
        <time>2022-09-05T09:45:38.000Z</time>
      </trkpt>
      <trkpt lat="49.83007" lon="4.85957">
        <ele>337</ele>
        <time>2022-09-05T09:45:39.000Z</time>
      </trkpt>
      <trkpt lat="49.83009" lon="4.85962">
        <ele>337</ele>
        <time>2022-09-05T09:45:40.000Z</time>
      </trkpt>
      <trkpt lat="49.8301" lon="4.85968">
        <ele>337</ele>
        <time>2022-09-05T09:45:41.000Z</time>
      </trkpt>
      <trkpt lat="49.83011" lon="4.85975">
        <ele>337</ele>
        <time>2022-09-05T09:45:42.000Z</time>
      </trkpt>
      <trkpt lat="49.83012" lon="4.85981">
        <ele>337</ele>
        <time>2022-09-05T09:45:43.000Z</time>
      </trkpt>
      <trkpt lat="49.83013" lon="4.85987">
        <ele>337</ele>
        <time>2022-09-05T09:45:44.000Z</time>
      </trkpt>
      <trkpt lat="49.83013" lon="4.85994">
        <ele>336</ele>
        <time>2022-09-05T09:45:45.000Z</time>
      </trkpt>
      <trkpt lat="49.83014" lon="4.86">
        <ele>336</ele>
        <time>2022-09-05T09:45:46.000Z</time>
      </trkpt>
      <trkpt lat="49.83014" lon="4.86006">
        <ele>336</ele>
        <time>2022-09-05T09:45:47.000Z</time>
      </trkpt>
      <trkpt lat="49.83015" lon="4.86013">
        <ele>336</ele>
        <time>2022-09-05T09:45:48.000Z</time>
      </trkpt>
      <trkpt lat="49.83015" lon="4.86019">
        <ele>336</ele>
        <time>2022-09-05T09:45:49.000Z</time>
      </trkpt>
      <trkpt lat="49.83016" lon="4.86025">
        <ele>336</ele>
        <time>2022-09-05T09:45:50.000Z</time>
      </trkpt>
      <trkpt lat="49.83017" lon="4.86032">
        <ele>336</ele>
        <time>2022-09-05T09:45:51.000Z</time>
      </trkpt>
      <trkpt lat="49.83017" lon="4.86038">
        <ele>336</ele>
        <time>2022-09-05T09:45:52.000Z</time>
      </trkpt>
      <trkpt lat="49.83018" lon="4.86045">
        <ele>336</ele>
        <time>2022-09-05T09:45:53.000Z</time>
      </trkpt>
      <trkpt lat="49.83018" lon="4.86051">
        <ele>336</ele>
        <time>2022-09-05T09:45:54.000Z</time>
      </trkpt>
      <trkpt lat="49.83019" lon="4.86058">
        <ele>336</ele>
        <time>2022-09-05T09:45:55.000Z</time>
      </trkpt>
      <trkpt lat="49.8302" lon="4.86064">
        <ele>336</ele>
        <time>2022-09-05T09:45:56.000Z</time>
      </trkpt>
      <trkpt lat="49.8302" lon="4.8607">
        <ele>336</ele>
        <time>2022-09-05T09:45:57.000Z</time>
      </trkpt>
      <trkpt lat="49.83021" lon="4.86077">
        <ele>336</ele>
        <time>2022-09-05T09:45:58.000Z</time>
      </trkpt>
      <trkpt lat="49.83021" lon="4.86083">
        <ele>337</ele>
        <time>2022-09-05T09:45:59.000Z</time>
      </trkpt>
      <trkpt lat="49.83022" lon="4.86089">
        <ele>337</ele>
        <time>2022-09-05T09:46:00.000Z</time>
      </trkpt>
      <trkpt lat="49.83023" lon="4.86095">
        <ele>337</ele>
        <time>2022-09-05T09:46:01.000Z</time>
      </trkpt>
      <trkpt lat="49.83025" lon="4.861">
        <ele>337</ele>
        <time>2022-09-05T09:46:02.000Z</time>
      </trkpt>
      <trkpt lat="49.83026" lon="4.86106">
        <ele>337</ele>
        <time>2022-09-05T09:46:03.000Z</time>
      </trkpt>
      <trkpt lat="49.83027" lon="4.86113">
        <ele>337</ele>
        <time>2022-09-05T09:46:04.000Z</time>
      </trkpt>
      <trkpt lat="49.83028" lon="4.86119">
        <ele>338</ele>
        <time>2022-09-05T09:46:05.000Z</time>
      </trkpt>
      <trkpt lat="49.83028" lon="4.86125">
        <ele>338</ele>
        <time>2022-09-05T09:46:06.000Z</time>
      </trkpt>
      <trkpt lat="49.83028" lon="4.86132">
        <ele>338</ele>
        <time>2022-09-05T09:46:07.000Z</time>
      </trkpt>
      <trkpt lat="49.83029" lon="4.86138">
        <ele>338</ele>
        <time>2022-09-05T09:46:08.000Z</time>
      </trkpt>
      <trkpt lat="49.83029" lon="4.86143">
        <ele>338</ele>
        <time>2022-09-05T09:46:09.000Z</time>
      </trkpt>
      <trkpt lat="49.83029" lon="4.86148">
        <ele>339</ele>
        <time>2022-09-05T09:46:10.000Z</time>
      </trkpt>
      <trkpt lat="49.83029" lon="4.86154">
        <ele>339</ele>
        <time>2022-09-05T09:46:11.000Z</time>
      </trkpt>
      <trkpt lat="49.83028" lon="4.8616">
        <ele>339</ele>
        <time>2022-09-05T09:46:12.000Z</time>
      </trkpt>
      <trkpt lat="49.83027" lon="4.86166">
        <ele>339</ele>
        <time>2022-09-05T09:46:13.000Z</time>
      </trkpt>
      <trkpt lat="49.83026" lon="4.86172">
        <ele>339</ele>
        <time>2022-09-05T09:46:14.000Z</time>
      </trkpt>
      <trkpt lat="49.83025" lon="4.86179">
        <ele>339</ele>
        <time>2022-09-05T09:46:15.000Z</time>
      </trkpt>
      <trkpt lat="49.83025" lon="4.86185">
        <ele>339</ele>
        <time>2022-09-05T09:46:16.000Z</time>
      </trkpt>
      <trkpt lat="49.83023" lon="4.86191">
        <ele>340</ele>
        <time>2022-09-05T09:46:17.000Z</time>
      </trkpt>
      <trkpt lat="49.83023" lon="4.86198">
        <ele>340</ele>
        <time>2022-09-05T09:46:18.000Z</time>
      </trkpt>
      <trkpt lat="49.83022" lon="4.86204">
        <ele>340</ele>
        <time>2022-09-05T09:46:19.000Z</time>
      </trkpt>
      <trkpt lat="49.83021" lon="4.8621">
        <ele>340</ele>
        <time>2022-09-05T09:46:20.000Z</time>
      </trkpt>
      <trkpt lat="49.83019" lon="4.86216">
        <ele>340</ele>
        <time>2022-09-05T09:46:21.000Z</time>
      </trkpt>
      <trkpt lat="49.83017" lon="4.86222">
        <ele>340</ele>
        <time>2022-09-05T09:46:22.000Z</time>
      </trkpt>
      <trkpt lat="49.83015" lon="4.86229">
        <ele>341</ele>
        <time>2022-09-05T09:46:23.000Z</time>
      </trkpt>
      <trkpt lat="49.83013" lon="4.86236">
        <ele>341</ele>
        <time>2022-09-05T09:46:24.000Z</time>
      </trkpt>
      <trkpt lat="49.83011" lon="4.86243">
        <ele>341</ele>
        <time>2022-09-05T09:46:25.000Z</time>
      </trkpt>
      <trkpt lat="49.83009" lon="4.8625">
        <ele>341</ele>
        <time>2022-09-05T09:46:26.000Z</time>
      </trkpt>
      <trkpt lat="49.83007" lon="4.86257">
        <ele>341</ele>
        <time>2022-09-05T09:46:27.000Z</time>
      </trkpt>
      <trkpt lat="49.83005" lon="4.86264">
        <ele>342</ele>
        <time>2022-09-05T09:46:28.000Z</time>
      </trkpt>
      <trkpt lat="49.83004" lon="4.86271">
        <ele>342</ele>
        <time>2022-09-05T09:46:29.000Z</time>
      </trkpt>
      <trkpt lat="49.83003" lon="4.86279">
        <ele>342</ele>
        <time>2022-09-05T09:46:30.000Z</time>
      </trkpt>
      <trkpt lat="49.83002" lon="4.86286">
        <ele>342</ele>
        <time>2022-09-05T09:46:31.000Z</time>
      </trkpt>
      <trkpt lat="49.83001" lon="4.86294">
        <ele>343</ele>
        <time>2022-09-05T09:46:32.000Z</time>
      </trkpt>
      <trkpt lat="49.83" lon="4.863">
        <ele>343</ele>
        <time>2022-09-05T09:46:33.000Z</time>
      </trkpt>
      <trkpt lat="49.82998" lon="4.86306">
        <ele>343</ele>
        <time>2022-09-05T09:46:34.000Z</time>
      </trkpt>
      <trkpt lat="49.82996" lon="4.86313">
        <ele>343</ele>
        <time>2022-09-05T09:46:35.000Z</time>
      </trkpt>
      <trkpt lat="49.82994" lon="4.86319">
        <ele>343</ele>
        <time>2022-09-05T09:46:36.000Z</time>
      </trkpt>
      <trkpt lat="49.82992" lon="4.86325">
        <ele>343</ele>
        <time>2022-09-05T09:46:37.000Z</time>
      </trkpt>
      <trkpt lat="49.82989" lon="4.86331">
        <ele>343</ele>
        <time>2022-09-05T09:46:38.000Z</time>
      </trkpt>
      <trkpt lat="49.82987" lon="4.86337">
        <ele>344</ele>
        <time>2022-09-05T09:46:39.000Z</time>
      </trkpt>
      <trkpt lat="49.82985" lon="4.86342">
        <ele>344</ele>
        <time>2022-09-05T09:46:40.000Z</time>
      </trkpt>
      <trkpt lat="49.82982" lon="4.86348">
        <ele>344</ele>
        <time>2022-09-05T09:46:41.000Z</time>
      </trkpt>
      <trkpt lat="49.82979" lon="4.86354">
        <ele>344</ele>
        <time>2022-09-05T09:46:42.000Z</time>
      </trkpt>
      <trkpt lat="49.82977" lon="4.8636">
        <ele>344</ele>
        <time>2022-09-05T09:46:43.000Z</time>
      </trkpt>
      <trkpt lat="49.82975" lon="4.86365">
        <ele>344</ele>
        <time>2022-09-05T09:46:44.000Z</time>
      </trkpt>
      <trkpt lat="49.82972" lon="4.86371">
        <ele>344</ele>
        <time>2022-09-05T09:46:45.000Z</time>
      </trkpt>
      <trkpt lat="49.8297" lon="4.86377">
        <ele>344</ele>
        <time>2022-09-05T09:46:46.000Z</time>
      </trkpt>
      <trkpt lat="49.82967" lon="4.86383">
        <ele>344</ele>
        <time>2022-09-05T09:46:47.000Z</time>
      </trkpt>
      <trkpt lat="49.82964" lon="4.86389">
        <ele>344</ele>
        <time>2022-09-05T09:46:48.000Z</time>
      </trkpt>
      <trkpt lat="49.82961" lon="4.86395">
        <ele>344</ele>
        <time>2022-09-05T09:46:49.000Z</time>
      </trkpt>
      <trkpt lat="49.82959" lon="4.86401">
        <ele>344</ele>
        <time>2022-09-05T09:46:50.000Z</time>
      </trkpt>
      <trkpt lat="49.82956" lon="4.86408">
        <ele>344</ele>
        <time>2022-09-05T09:46:51.000Z</time>
      </trkpt>
      <trkpt lat="49.82953" lon="4.86414">
        <ele>344</ele>
        <time>2022-09-05T09:46:52.000Z</time>
      </trkpt>
      <trkpt lat="49.82951" lon="4.8642">
        <ele>345</ele>
        <time>2022-09-05T09:46:53.000Z</time>
      </trkpt>
      <trkpt lat="49.82948" lon="4.86426">
        <ele>345</ele>
        <time>2022-09-05T09:46:54.000Z</time>
      </trkpt>
      <trkpt lat="49.82945" lon="4.86433">
        <ele>345</ele>
        <time>2022-09-05T09:46:55.000Z</time>
      </trkpt>
      <trkpt lat="49.82942" lon="4.86438">
        <ele>345</ele>
        <time>2022-09-05T09:46:56.000Z</time>
      </trkpt>
      <trkpt lat="49.8294" lon="4.86444">
        <ele>345</ele>
        <time>2022-09-05T09:46:57.000Z</time>
      </trkpt>
      <trkpt lat="49.82936" lon="4.86449">
        <ele>345</ele>
        <time>2022-09-05T09:46:58.000Z</time>
      </trkpt>
      <trkpt lat="49.82932" lon="4.86455">
        <ele>345</ele>
        <time>2022-09-05T09:46:59.000Z</time>
      </trkpt>
      <trkpt lat="49.82929" lon="4.86461">
        <ele>346</ele>
        <time>2022-09-05T09:47:00.000Z</time>
      </trkpt>
      <trkpt lat="49.82926" lon="4.86467">
        <ele>346</ele>
        <time>2022-09-05T09:47:01.000Z</time>
      </trkpt>
      <trkpt lat="49.82923" lon="4.86473">
        <ele>346</ele>
        <time>2022-09-05T09:47:02.000Z</time>
      </trkpt>
      <trkpt lat="49.82919" lon="4.86479">
        <ele>346</ele>
        <time>2022-09-05T09:47:03.000Z</time>
      </trkpt>
      <trkpt lat="49.82916" lon="4.86485">
        <ele>346</ele>
        <time>2022-09-05T09:47:04.000Z</time>
      </trkpt>
      <trkpt lat="49.82913" lon="4.8649">
        <ele>346</ele>
        <time>2022-09-05T09:47:05.000Z</time>
      </trkpt>
      <trkpt lat="49.82909" lon="4.86495">
        <ele>346</ele>
        <time>2022-09-05T09:47:06.000Z</time>
      </trkpt>
      <trkpt lat="49.82905" lon="4.865">
        <ele>347</ele>
        <time>2022-09-05T09:47:07.000Z</time>
      </trkpt>
      <trkpt lat="49.82902" lon="4.86505">
        <ele>347</ele>
        <time>2022-09-05T09:47:08.000Z</time>
      </trkpt>
      <trkpt lat="49.82899" lon="4.86511">
        <ele>347</ele>
        <time>2022-09-05T09:47:09.000Z</time>
      </trkpt>
      <trkpt lat="49.82895" lon="4.86516">
        <ele>347</ele>
        <time>2022-09-05T09:47:10.000Z</time>
      </trkpt>
      <trkpt lat="49.82891" lon="4.86521">
        <ele>347</ele>
        <time>2022-09-05T09:47:11.000Z</time>
      </trkpt>
      <trkpt lat="49.82887" lon="4.86526">
        <ele>347</ele>
        <time>2022-09-05T09:47:12.000Z</time>
      </trkpt>
      <trkpt lat="49.82883" lon="4.8653">
        <ele>347</ele>
        <time>2022-09-05T09:47:13.000Z</time>
      </trkpt>
      <trkpt lat="49.82878" lon="4.86533">
        <ele>347</ele>
        <time>2022-09-05T09:47:14.000Z</time>
      </trkpt>
      <trkpt lat="49.82873" lon="4.86537">
        <ele>348</ele>
        <time>2022-09-05T09:47:15.000Z</time>
      </trkpt>
      <trkpt lat="49.82868" lon="4.8654">
        <ele>348</ele>
        <time>2022-09-05T09:47:16.000Z</time>
      </trkpt>
      <trkpt lat="49.82863" lon="4.86544">
        <ele>348</ele>
        <time>2022-09-05T09:47:17.000Z</time>
      </trkpt>
      <trkpt lat="49.82859" lon="4.86548">
        <ele>348</ele>
        <time>2022-09-05T09:47:18.000Z</time>
      </trkpt>
      <trkpt lat="49.82855" lon="4.86551">
        <ele>348</ele>
        <time>2022-09-05T09:47:19.000Z</time>
      </trkpt>
      <trkpt lat="49.8285" lon="4.86554">
        <ele>348</ele>
        <time>2022-09-05T09:47:20.000Z</time>
      </trkpt>
      <trkpt lat="49.82845" lon="4.86558">
        <ele>348</ele>
        <time>2022-09-05T09:47:21.000Z</time>
      </trkpt>
      <trkpt lat="49.82842" lon="4.86561">
        <ele>348</ele>
        <time>2022-09-05T09:47:22.000Z</time>
      </trkpt>
      <trkpt lat="49.82838" lon="4.86563">
        <ele>348</ele>
        <time>2022-09-05T09:47:23.000Z</time>
      </trkpt>
      <trkpt lat="49.82833" lon="4.86565">
        <ele>348</ele>
        <time>2022-09-05T09:47:24.000Z</time>
      </trkpt>
      <trkpt lat="49.82829" lon="4.86568">
        <ele>349</ele>
        <time>2022-09-05T09:47:25.000Z</time>
      </trkpt>
      <trkpt lat="49.82825" lon="4.8657">
        <ele>349</ele>
        <time>2022-09-05T09:47:26.000Z</time>
      </trkpt>
      <trkpt lat="49.82821" lon="4.86572">
        <ele>349</ele>
        <time>2022-09-05T09:47:27.000Z</time>
      </trkpt>
      <trkpt lat="49.82816" lon="4.86575">
        <ele>349</ele>
        <time>2022-09-05T09:47:28.000Z</time>
      </trkpt>
      <trkpt lat="49.82812" lon="4.86577">
        <ele>349</ele>
        <time>2022-09-05T09:47:29.000Z</time>
      </trkpt>
      <trkpt lat="49.82809" lon="4.86579">
        <ele>349</ele>
        <time>2022-09-05T09:47:30.000Z</time>
      </trkpt>
      <trkpt lat="49.82805" lon="4.86581">
        <ele>349</ele>
        <time>2022-09-05T09:47:31.000Z</time>
      </trkpt>
      <trkpt lat="49.82801" lon="4.86583">
        <ele>349</ele>
        <time>2022-09-05T09:47:32.000Z</time>
      </trkpt>
      <trkpt lat="49.82797" lon="4.86585">
        <ele>349</ele>
        <time>2022-09-05T09:47:33.000Z</time>
      </trkpt>
      <trkpt lat="49.82793" lon="4.86587">
        <ele>350</ele>
        <time>2022-09-05T09:47:34.000Z</time>
      </trkpt>
      <trkpt lat="49.82788" lon="4.86589">
        <ele>350</ele>
        <time>2022-09-05T09:47:35.000Z</time>
      </trkpt>
      <trkpt lat="49.82784" lon="4.86592">
        <ele>350</ele>
        <time>2022-09-05T09:47:36.000Z</time>
      </trkpt>
      <trkpt lat="49.8278" lon="4.86595">
        <ele>350</ele>
        <time>2022-09-05T09:47:37.000Z</time>
      </trkpt>
      <trkpt lat="49.82776" lon="4.86598">
        <ele>350</ele>
        <time>2022-09-05T09:47:38.000Z</time>
      </trkpt>
      <trkpt lat="49.82772" lon="4.86601">
        <ele>350</ele>
        <time>2022-09-05T09:47:39.000Z</time>
      </trkpt>
      <trkpt lat="49.82768" lon="4.86604">
        <ele>351</ele>
        <time>2022-09-05T09:47:40.000Z</time>
      </trkpt>
      <trkpt lat="49.82764" lon="4.86606">
        <ele>351</ele>
        <time>2022-09-05T09:47:41.000Z</time>
      </trkpt>
      <trkpt lat="49.82759" lon="4.86608">
        <ele>351</ele>
        <time>2022-09-05T09:47:42.000Z</time>
      </trkpt>
      <trkpt lat="49.82755" lon="4.86611">
        <ele>351</ele>
        <time>2022-09-05T09:47:43.000Z</time>
      </trkpt>
      <trkpt lat="49.8275" lon="4.86614">
        <ele>351</ele>
        <time>2022-09-05T09:47:44.000Z</time>
      </trkpt>
      <trkpt lat="49.82746" lon="4.86617">
        <ele>351</ele>
        <time>2022-09-05T09:47:45.000Z</time>
      </trkpt>
      <trkpt lat="49.82742" lon="4.8662">
        <ele>351</ele>
        <time>2022-09-05T09:47:46.000Z</time>
      </trkpt>
      <trkpt lat="49.82738" lon="4.86624">
        <ele>351</ele>
        <time>2022-09-05T09:47:47.000Z</time>
      </trkpt>
      <trkpt lat="49.82734" lon="4.86628">
        <ele>351</ele>
        <time>2022-09-05T09:47:48.000Z</time>
      </trkpt>
      <trkpt lat="49.8273" lon="4.86633">
        <ele>351</ele>
        <time>2022-09-05T09:47:49.000Z</time>
      </trkpt>
      <trkpt lat="49.82726" lon="4.86638">
        <ele>351</ele>
        <time>2022-09-05T09:47:50.000Z</time>
      </trkpt>
      <trkpt lat="49.82722" lon="4.86643">
        <ele>351</ele>
        <time>2022-09-05T09:47:51.000Z</time>
      </trkpt>
      <trkpt lat="49.82718" lon="4.86648">
        <ele>351</ele>
        <time>2022-09-05T09:47:52.000Z</time>
      </trkpt>
      <trkpt lat="49.82715" lon="4.86652">
        <ele>351</ele>
        <time>2022-09-05T09:47:53.000Z</time>
      </trkpt>
      <trkpt lat="49.82712" lon="4.86657">
        <ele>351</ele>
        <time>2022-09-05T09:47:54.000Z</time>
      </trkpt>
      <trkpt lat="49.82709" lon="4.86663">
        <ele>351</ele>
        <time>2022-09-05T09:47:55.000Z</time>
      </trkpt>
      <trkpt lat="49.82707" lon="4.86668">
        <ele>351</ele>
        <time>2022-09-05T09:47:56.000Z</time>
      </trkpt>
      <trkpt lat="49.82704" lon="4.86673">
        <ele>351</ele>
        <time>2022-09-05T09:47:57.000Z</time>
      </trkpt>
      <trkpt lat="49.82701" lon="4.86678">
        <ele>351</ele>
        <time>2022-09-05T09:47:58.000Z</time>
      </trkpt>
      <trkpt lat="49.82698" lon="4.86683">
        <ele>351</ele>
        <time>2022-09-05T09:47:59.000Z</time>
      </trkpt>
      <trkpt lat="49.82696" lon="4.86689">
        <ele>351</ele>
        <time>2022-09-05T09:48:00.000Z</time>
      </trkpt>
      <trkpt lat="49.82693" lon="4.86694">
        <ele>351</ele>
        <time>2022-09-05T09:48:01.000Z</time>
      </trkpt>
      <trkpt lat="49.82691" lon="4.86699">
        <ele>351</ele>
        <time>2022-09-05T09:48:02.000Z</time>
      </trkpt>
      <trkpt lat="49.82689" lon="4.86704">
        <ele>351</ele>
        <time>2022-09-05T09:48:03.000Z</time>
      </trkpt>
      <trkpt lat="49.82686" lon="4.86709">
        <ele>351</ele>
        <time>2022-09-05T09:48:04.000Z</time>
      </trkpt>
      <trkpt lat="49.82683" lon="4.86714">
        <ele>352</ele>
        <time>2022-09-05T09:48:05.000Z</time>
      </trkpt>
      <trkpt lat="49.82681" lon="4.8672">
        <ele>352</ele>
        <time>2022-09-05T09:48:06.000Z</time>
      </trkpt>
      <trkpt lat="49.82678" lon="4.86725">
        <ele>352</ele>
        <time>2022-09-05T09:48:07.000Z</time>
      </trkpt>
      <trkpt lat="49.82676" lon="4.8673">
        <ele>352</ele>
        <time>2022-09-05T09:48:08.000Z</time>
      </trkpt>
      <trkpt lat="49.82673" lon="4.86736">
        <ele>352</ele>
        <time>2022-09-05T09:48:09.000Z</time>
      </trkpt>
      <trkpt lat="49.82671" lon="4.86741">
        <ele>352</ele>
        <time>2022-09-05T09:48:10.000Z</time>
      </trkpt>
      <trkpt lat="49.82669" lon="4.86747">
        <ele>352</ele>
        <time>2022-09-05T09:48:11.000Z</time>
      </trkpt>
      <trkpt lat="49.82667" lon="4.86752">
        <ele>352</ele>
        <time>2022-09-05T09:48:12.000Z</time>
      </trkpt>
      <trkpt lat="49.82665" lon="4.86757">
        <ele>352</ele>
        <time>2022-09-05T09:48:13.000Z</time>
      </trkpt>
      <trkpt lat="49.82663" lon="4.86763">
        <ele>352</ele>
        <time>2022-09-05T09:48:14.000Z</time>
      </trkpt>
      <trkpt lat="49.82661" lon="4.86769">
        <ele>352</ele>
        <time>2022-09-05T09:48:15.000Z</time>
      </trkpt>
      <trkpt lat="49.82659" lon="4.86773">
        <ele>352</ele>
        <time>2022-09-05T09:48:16.000Z</time>
      </trkpt>
      <trkpt lat="49.82657" lon="4.86778">
        <ele>352</ele>
        <time>2022-09-05T09:48:17.000Z</time>
      </trkpt>
      <trkpt lat="49.82656" lon="4.86784">
        <ele>352</ele>
        <time>2022-09-05T09:48:18.000Z</time>
      </trkpt>
      <trkpt lat="49.82654" lon="4.86789">
        <ele>352</ele>
        <time>2022-09-05T09:48:19.000Z</time>
      </trkpt>
      <trkpt lat="49.82653" lon="4.86795">
        <ele>352</ele>
        <time>2022-09-05T09:48:20.000Z</time>
      </trkpt>
      <trkpt lat="49.82653" lon="4.86801">
        <ele>352</ele>
        <time>2022-09-05T09:48:21.000Z</time>
      </trkpt>
      <trkpt lat="49.82652" lon="4.86806">
        <ele>352</ele>
        <time>2022-09-05T09:48:22.000Z</time>
      </trkpt>
      <trkpt lat="49.82651" lon="4.86812">
        <ele>352</ele>
        <time>2022-09-05T09:48:23.000Z</time>
      </trkpt>
      <trkpt lat="49.82651" lon="4.86817">
        <ele>352</ele>
        <time>2022-09-05T09:48:24.000Z</time>
      </trkpt>
      <trkpt lat="49.8265" lon="4.86822">
        <ele>352</ele>
        <time>2022-09-05T09:48:25.000Z</time>
      </trkpt>
      <trkpt lat="49.82649" lon="4.86828">
        <ele>352</ele>
        <time>2022-09-05T09:48:26.000Z</time>
      </trkpt>
      <trkpt lat="49.82648" lon="4.86834">
        <ele>352</ele>
        <time>2022-09-05T09:48:27.000Z</time>
      </trkpt>
      <trkpt lat="49.82647" lon="4.8684">
        <ele>352</ele>
        <time>2022-09-05T09:48:28.000Z</time>
      </trkpt>
      <trkpt lat="49.82647" lon="4.86846">
        <ele>352</ele>
        <time>2022-09-05T09:48:29.000Z</time>
      </trkpt>
      <trkpt lat="49.82645" lon="4.86851">
        <ele>352</ele>
        <time>2022-09-05T09:48:30.000Z</time>
      </trkpt>
      <trkpt lat="49.82645" lon="4.86858">
        <ele>352</ele>
        <time>2022-09-05T09:48:31.000Z</time>
      </trkpt>
      <trkpt lat="49.82644" lon="4.86864">
        <ele>352</ele>
        <time>2022-09-05T09:48:32.000Z</time>
      </trkpt>
      <trkpt lat="49.82644" lon="4.86869">
        <ele>352</ele>
        <time>2022-09-05T09:48:33.000Z</time>
      </trkpt>
      <trkpt lat="49.82644" lon="4.86874">
        <ele>352</ele>
        <time>2022-09-05T09:48:34.000Z</time>
      </trkpt>
      <trkpt lat="49.82643" lon="4.86879">
        <ele>352</ele>
        <time>2022-09-05T09:48:35.000Z</time>
      </trkpt>
      <trkpt lat="49.82643" lon="4.86885">
        <ele>353</ele>
        <time>2022-09-05T09:48:36.000Z</time>
      </trkpt>
      <trkpt lat="49.82642" lon="4.8689">
        <ele>353</ele>
        <time>2022-09-05T09:48:37.000Z</time>
      </trkpt>
      <trkpt lat="49.82642" lon="4.86896">
        <ele>353</ele>
        <time>2022-09-05T09:48:38.000Z</time>
      </trkpt>
      <trkpt lat="49.82641" lon="4.86902">
        <ele>353</ele>
        <time>2022-09-05T09:48:39.000Z</time>
      </trkpt>
      <trkpt lat="49.82641" lon="4.86908">
        <ele>353</ele>
        <time>2022-09-05T09:48:40.000Z</time>
      </trkpt>
      <trkpt lat="49.82641" lon="4.86914">
        <ele>353</ele>
        <time>2022-09-05T09:48:41.000Z</time>
      </trkpt>
      <trkpt lat="49.8264" lon="4.8692">
        <ele>353</ele>
        <time>2022-09-05T09:48:42.000Z</time>
      </trkpt>
      <trkpt lat="49.8264" lon="4.86926">
        <ele>353</ele>
        <time>2022-09-05T09:48:43.000Z</time>
      </trkpt>
      <trkpt lat="49.82639" lon="4.86932">
        <ele>353</ele>
        <time>2022-09-05T09:48:44.000Z</time>
      </trkpt>
      <trkpt lat="49.82638" lon="4.86937">
        <ele>354</ele>
        <time>2022-09-05T09:48:45.000Z</time>
      </trkpt>
      <trkpt lat="49.82638" lon="4.86943">
        <ele>354</ele>
        <time>2022-09-05T09:48:46.000Z</time>
      </trkpt>
      <trkpt lat="49.82637" lon="4.86949">
        <ele>354</ele>
        <time>2022-09-05T09:48:47.000Z</time>
      </trkpt>
      <trkpt lat="49.82636" lon="4.86955">
        <ele>354</ele>
        <time>2022-09-05T09:48:48.000Z</time>
      </trkpt>
      <trkpt lat="49.82635" lon="4.86961">
        <ele>354</ele>
        <time>2022-09-05T09:48:49.000Z</time>
      </trkpt>
      <trkpt lat="49.82634" lon="4.86967">
        <ele>354</ele>
        <time>2022-09-05T09:48:50.000Z</time>
      </trkpt>
      <trkpt lat="49.82632" lon="4.86973">
        <ele>354</ele>
        <time>2022-09-05T09:48:51.000Z</time>
      </trkpt>
      <trkpt lat="49.8263" lon="4.86978">
        <ele>354</ele>
        <time>2022-09-05T09:48:52.000Z</time>
      </trkpt>
      <trkpt lat="49.82629" lon="4.86984">
        <ele>354</ele>
        <time>2022-09-05T09:48:53.000Z</time>
      </trkpt>
      <trkpt lat="49.82626" lon="4.8699">
        <ele>354</ele>
        <time>2022-09-05T09:48:54.000Z</time>
      </trkpt>
      <trkpt lat="49.82624" lon="4.86995">
        <ele>355</ele>
        <time>2022-09-05T09:48:55.000Z</time>
      </trkpt>
      <trkpt lat="49.8262" lon="4.87">
        <ele>355</ele>
        <time>2022-09-05T09:48:56.000Z</time>
      </trkpt>
      <trkpt lat="49.82617" lon="4.87005">
        <ele>355</ele>
        <time>2022-09-05T09:48:57.000Z</time>
      </trkpt>
      <trkpt lat="49.82614" lon="4.87009">
        <ele>355</ele>
        <time>2022-09-05T09:48:58.000Z</time>
      </trkpt>
      <trkpt lat="49.82611" lon="4.87015">
        <ele>355</ele>
        <time>2022-09-05T09:48:59.000Z</time>
      </trkpt>
      <trkpt lat="49.82608" lon="4.87019">
        <ele>355</ele>
        <time>2022-09-05T09:49:00.000Z</time>
      </trkpt>
      <trkpt lat="49.82604" lon="4.87024">
        <ele>355</ele>
        <time>2022-09-05T09:49:01.000Z</time>
      </trkpt>
      <trkpt lat="49.82599" lon="4.87028">
        <ele>355</ele>
        <time>2022-09-05T09:49:02.000Z</time>
      </trkpt>
      <trkpt lat="49.82595" lon="4.87032">
        <ele>355</ele>
        <time>2022-09-05T09:49:03.000Z</time>
      </trkpt>
      <trkpt lat="49.82591" lon="4.87036">
        <ele>355</ele>
        <time>2022-09-05T09:49:04.000Z</time>
      </trkpt>
      <trkpt lat="49.82586" lon="4.87039">
        <ele>355</ele>
        <time>2022-09-05T09:49:05.000Z</time>
      </trkpt>
      <trkpt lat="49.82582" lon="4.87043">
        <ele>355</ele>
        <time>2022-09-05T09:49:06.000Z</time>
      </trkpt>
      <trkpt lat="49.82578" lon="4.87046">
        <ele>355</ele>
        <time>2022-09-05T09:49:07.000Z</time>
      </trkpt>
      <trkpt lat="49.82574" lon="4.87049">
        <ele>355</ele>
        <time>2022-09-05T09:49:08.000Z</time>
      </trkpt>
      <trkpt lat="49.82569" lon="4.87052">
        <ele>355</ele>
        <time>2022-09-05T09:49:09.000Z</time>
      </trkpt>
      <trkpt lat="49.82565" lon="4.87056">
        <ele>355</ele>
        <time>2022-09-05T09:49:10.000Z</time>
      </trkpt>
      <trkpt lat="49.8256" lon="4.8706">
        <ele>355</ele>
        <time>2022-09-05T09:49:11.000Z</time>
      </trkpt>
      <trkpt lat="49.82555" lon="4.87063">
        <ele>355</ele>
        <time>2022-09-05T09:49:12.000Z</time>
      </trkpt>
      <trkpt lat="49.82551" lon="4.87066">
        <ele>355</ele>
        <time>2022-09-05T09:49:13.000Z</time>
      </trkpt>
      <trkpt lat="49.82548" lon="4.87069">
        <ele>355</ele>
        <time>2022-09-05T09:49:14.000Z</time>
      </trkpt>
      <trkpt lat="49.82544" lon="4.87072">
        <ele>355</ele>
        <time>2022-09-05T09:49:15.000Z</time>
      </trkpt>
      <trkpt lat="49.82541" lon="4.87075">
        <ele>355</ele>
        <time>2022-09-05T09:49:16.000Z</time>
      </trkpt>
      <trkpt lat="49.82537" lon="4.87079">
        <ele>355</ele>
        <time>2022-09-05T09:49:17.000Z</time>
      </trkpt>
      <trkpt lat="49.82533" lon="4.87083">
        <ele>355</ele>
        <time>2022-09-05T09:49:18.000Z</time>
      </trkpt>
      <trkpt lat="49.8253" lon="4.87087">
        <ele>355</ele>
        <time>2022-09-05T09:49:19.000Z</time>
      </trkpt>
      <trkpt lat="49.82525" lon="4.87091">
        <ele>355</ele>
        <time>2022-09-05T09:49:20.000Z</time>
      </trkpt>
      <trkpt lat="49.82521" lon="4.87096">
        <ele>355</ele>
        <time>2022-09-05T09:49:21.000Z</time>
      </trkpt>
      <trkpt lat="49.82516" lon="4.87102">
        <ele>355</ele>
        <time>2022-09-05T09:49:22.000Z</time>
      </trkpt>
      <trkpt lat="49.82513" lon="4.87108">
        <ele>355</ele>
        <time>2022-09-05T09:49:23.000Z</time>
      </trkpt>
      <trkpt lat="49.82509" lon="4.87113">
        <ele>355</ele>
        <time>2022-09-05T09:49:24.000Z</time>
      </trkpt>
      <trkpt lat="49.82506" lon="4.87118">
        <ele>356</ele>
        <time>2022-09-05T09:49:25.000Z</time>
      </trkpt>
      <trkpt lat="49.82503" lon="4.87124">
        <ele>356</ele>
        <time>2022-09-05T09:49:26.000Z</time>
      </trkpt>
      <trkpt lat="49.82501" lon="4.87131">
        <ele>356</ele>
        <time>2022-09-05T09:49:27.000Z</time>
      </trkpt>
      <trkpt lat="49.82498" lon="4.87137">
        <ele>356</ele>
        <time>2022-09-05T09:49:28.000Z</time>
      </trkpt>
      <trkpt lat="49.82495" lon="4.87143">
        <ele>356</ele>
        <time>2022-09-05T09:49:29.000Z</time>
      </trkpt>
      <trkpt lat="49.82492" lon="4.87149">
        <ele>356</ele>
        <time>2022-09-05T09:49:30.000Z</time>
      </trkpt>
      <trkpt lat="49.82489" lon="4.87156">
        <ele>356</ele>
        <time>2022-09-05T09:49:31.000Z</time>
      </trkpt>
      <trkpt lat="49.82487" lon="4.87162">
        <ele>356</ele>
        <time>2022-09-05T09:49:32.000Z</time>
      </trkpt>
      <trkpt lat="49.82484" lon="4.87169">
        <ele>356</ele>
        <time>2022-09-05T09:49:33.000Z</time>
      </trkpt>
      <trkpt lat="49.82482" lon="4.87176">
        <ele>356</ele>
        <time>2022-09-05T09:49:34.000Z</time>
      </trkpt>
      <trkpt lat="49.82479" lon="4.87183">
        <ele>356</ele>
        <time>2022-09-05T09:49:35.000Z</time>
      </trkpt>
      <trkpt lat="49.82476" lon="4.8719">
        <ele>356</ele>
        <time>2022-09-05T09:49:36.000Z</time>
      </trkpt>
      <trkpt lat="49.82474" lon="4.87197">
        <ele>356</ele>
        <time>2022-09-05T09:49:37.000Z</time>
      </trkpt>
      <trkpt lat="49.82471" lon="4.87204">
        <ele>356</ele>
        <time>2022-09-05T09:49:38.000Z</time>
      </trkpt>
      <trkpt lat="49.82469" lon="4.87211">
        <ele>356</ele>
        <time>2022-09-05T09:49:39.000Z</time>
      </trkpt>
      <trkpt lat="49.82466" lon="4.87218">
        <ele>356</ele>
        <time>2022-09-05T09:49:40.000Z</time>
      </trkpt>
      <trkpt lat="49.82464" lon="4.87225">
        <ele>356</ele>
        <time>2022-09-05T09:49:41.000Z</time>
      </trkpt>
      <trkpt lat="49.82461" lon="4.87232">
        <ele>356</ele>
        <time>2022-09-05T09:49:42.000Z</time>
      </trkpt>
      <trkpt lat="49.82458" lon="4.87239">
        <ele>356</ele>
        <time>2022-09-05T09:49:43.000Z</time>
      </trkpt>
      <trkpt lat="49.82456" lon="4.87246">
        <ele>356</ele>
        <time>2022-09-05T09:49:44.000Z</time>
      </trkpt>
      <trkpt lat="49.82453" lon="4.87252">
        <ele>356</ele>
        <time>2022-09-05T09:49:45.000Z</time>
      </trkpt>
      <trkpt lat="49.8245" lon="4.87259">
        <ele>356</ele>
        <time>2022-09-05T09:49:46.000Z</time>
      </trkpt>
      <trkpt lat="49.82448" lon="4.87265">
        <ele>356</ele>
        <time>2022-09-05T09:49:47.000Z</time>
      </trkpt>
      <trkpt lat="49.82446" lon="4.87272">
        <ele>357</ele>
        <time>2022-09-05T09:49:48.000Z</time>
      </trkpt>
      <trkpt lat="49.82443" lon="4.87278">
        <ele>357</ele>
        <time>2022-09-05T09:49:49.000Z</time>
      </trkpt>
      <trkpt lat="49.82441" lon="4.87283">
        <ele>357</ele>
        <time>2022-09-05T09:49:50.000Z</time>
      </trkpt>
      <trkpt lat="49.82439" lon="4.87289">
        <ele>357</ele>
        <time>2022-09-05T09:49:51.000Z</time>
      </trkpt>
      <trkpt lat="49.82437" lon="4.87295">
        <ele>357</ele>
        <time>2022-09-05T09:49:52.000Z</time>
      </trkpt>
      <trkpt lat="49.82435" lon="4.87302">
        <ele>357</ele>
        <time>2022-09-05T09:49:53.000Z</time>
      </trkpt>
      <trkpt lat="49.82434" lon="4.87308">
        <ele>357</ele>
        <time>2022-09-05T09:49:54.000Z</time>
      </trkpt>
      <trkpt lat="49.82432" lon="4.87314">
        <ele>357</ele>
        <time>2022-09-05T09:49:55.000Z</time>
      </trkpt>
      <trkpt lat="49.82431" lon="4.8732">
        <ele>357</ele>
        <time>2022-09-05T09:49:56.000Z</time>
      </trkpt>
      <trkpt lat="49.8243" lon="4.87327">
        <ele>357</ele>
        <time>2022-09-05T09:49:57.000Z</time>
      </trkpt>
      <trkpt lat="49.82429" lon="4.87334">
        <ele>357</ele>
        <time>2022-09-05T09:49:58.000Z</time>
      </trkpt>
      <trkpt lat="49.82428" lon="4.8734">
        <ele>357</ele>
        <time>2022-09-05T09:49:59.000Z</time>
      </trkpt>
      <trkpt lat="49.82427" lon="4.87347">
        <ele>357</ele>
        <time>2022-09-05T09:50:00.000Z</time>
      </trkpt>
      <trkpt lat="49.82426" lon="4.87353">
        <ele>357</ele>
        <time>2022-09-05T09:50:01.000Z</time>
      </trkpt>
      <trkpt lat="49.82425" lon="4.8736">
        <ele>357</ele>
        <time>2022-09-05T09:50:02.000Z</time>
      </trkpt>
      <trkpt lat="49.82424" lon="4.87366">
        <ele>357</ele>
        <time>2022-09-05T09:50:03.000Z</time>
      </trkpt>
      <trkpt lat="49.82424" lon="4.87372">
        <ele>357</ele>
        <time>2022-09-05T09:50:04.000Z</time>
      </trkpt>
      <trkpt lat="49.82424" lon="4.87378">
        <ele>357</ele>
        <time>2022-09-05T09:50:05.000Z</time>
      </trkpt>
      <trkpt lat="49.82423" lon="4.87384">
        <ele>357</ele>
        <time>2022-09-05T09:50:06.000Z</time>
      </trkpt>
      <trkpt lat="49.82423" lon="4.8739">
        <ele>357</ele>
        <time>2022-09-05T09:50:07.000Z</time>
      </trkpt>
      <trkpt lat="49.82423" lon="4.87396">
        <ele>357</ele>
        <time>2022-09-05T09:50:08.000Z</time>
      </trkpt>
      <trkpt lat="49.82423" lon="4.87402">
        <ele>357</ele>
        <time>2022-09-05T09:50:09.000Z</time>
      </trkpt>
      <trkpt lat="49.82421" lon="4.87407">
        <ele>357</ele>
        <time>2022-09-05T09:50:10.000Z</time>
      </trkpt>
      <trkpt lat="49.82419" lon="4.87411">
        <ele>357</ele>
        <time>2022-09-05T09:50:11.000Z</time>
      </trkpt>
      <trkpt lat="49.82415" lon="4.87412">
        <ele>357</ele>
        <time>2022-09-05T09:50:12.000Z</time>
      </trkpt>
      <trkpt lat="49.82412" lon="4.8741">
        <ele>357</ele>
        <time>2022-09-05T09:50:13.000Z</time>
      </trkpt>
      <trkpt lat="49.8241" lon="4.87405">
        <ele>358</ele>
        <time>2022-09-05T09:50:14.000Z</time>
      </trkpt>
      <trkpt lat="49.82409" lon="4.874">
        <ele>358</ele>
        <time>2022-09-05T09:50:15.000Z</time>
      </trkpt>
      <trkpt lat="49.82407" lon="4.87395">
        <ele>358</ele>
        <time>2022-09-05T09:50:16.000Z</time>
      </trkpt>
      <trkpt lat="49.82405" lon="4.8739">
        <ele>358</ele>
        <time>2022-09-05T09:50:17.000Z</time>
      </trkpt>
      <trkpt lat="49.82403" lon="4.87384">
        <ele>358</ele>
        <time>2022-09-05T09:50:18.000Z</time>
      </trkpt>
      <trkpt lat="49.82402" lon="4.87379">
        <ele>359</ele>
        <time>2022-09-05T09:50:19.000Z</time>
      </trkpt>
      <trkpt lat="49.824" lon="4.87373">
        <ele>359</ele>
        <time>2022-09-05T09:50:20.000Z</time>
      </trkpt>
      <trkpt lat="49.82398" lon="4.87368">
        <ele>359</ele>
        <time>2022-09-05T09:50:21.000Z</time>
      </trkpt>
      <trkpt lat="49.82396" lon="4.87362">
        <ele>360</ele>
        <time>2022-09-05T09:50:22.000Z</time>
      </trkpt>
      <trkpt lat="49.82394" lon="4.87356">
        <ele>360</ele>
        <time>2022-09-05T09:50:23.000Z</time>
      </trkpt>
      <trkpt lat="49.82392" lon="4.8735">
        <ele>360</ele>
        <time>2022-09-05T09:50:24.000Z</time>
      </trkpt>
      <trkpt lat="49.8239" lon="4.87344">
        <ele>360</ele>
        <time>2022-09-05T09:50:25.000Z</time>
      </trkpt>
      <trkpt lat="49.82388" lon="4.87338">
        <ele>360</ele>
        <time>2022-09-05T09:50:26.000Z</time>
      </trkpt>
      <trkpt lat="49.82387" lon="4.87332">
        <ele>360</ele>
        <time>2022-09-05T09:50:27.000Z</time>
      </trkpt>
      <trkpt lat="49.82385" lon="4.87325">
        <ele>361</ele>
        <time>2022-09-05T09:50:28.000Z</time>
      </trkpt>
      <trkpt lat="49.82384" lon="4.87319">
        <ele>361</ele>
        <time>2022-09-05T09:50:29.000Z</time>
      </trkpt>
      <trkpt lat="49.82382" lon="4.87313">
        <ele>361</ele>
        <time>2022-09-05T09:50:30.000Z</time>
      </trkpt>
      <trkpt lat="49.82381" lon="4.87306">
        <ele>361</ele>
        <time>2022-09-05T09:50:31.000Z</time>
      </trkpt>
      <trkpt lat="49.82378" lon="4.873">
        <ele>361</ele>
        <time>2022-09-05T09:50:32.000Z</time>
      </trkpt>
      <trkpt lat="49.82376" lon="4.87295">
        <ele>361</ele>
        <time>2022-09-05T09:50:33.000Z</time>
      </trkpt>
      <trkpt lat="49.82374" lon="4.87289">
        <ele>361</ele>
        <time>2022-09-05T09:50:34.000Z</time>
      </trkpt>
      <trkpt lat="49.82371" lon="4.87283">
        <ele>361</ele>
        <time>2022-09-05T09:50:35.000Z</time>
      </trkpt>
      <trkpt lat="49.82369" lon="4.87277">
        <ele>361</ele>
        <time>2022-09-05T09:50:36.000Z</time>
      </trkpt>
      <trkpt lat="49.82366" lon="4.87272">
        <ele>361</ele>
        <time>2022-09-05T09:50:37.000Z</time>
      </trkpt>
      <trkpt lat="49.82363" lon="4.87267">
        <ele>361</ele>
        <time>2022-09-05T09:50:38.000Z</time>
      </trkpt>
      <trkpt lat="49.8236" lon="4.87262">
        <ele>361</ele>
        <time>2022-09-05T09:50:39.000Z</time>
      </trkpt>
      <trkpt lat="49.82357" lon="4.87257">
        <ele>361</ele>
        <time>2022-09-05T09:50:40.000Z</time>
      </trkpt>
      <trkpt lat="49.82354" lon="4.87252">
        <ele>361</ele>
        <time>2022-09-05T09:50:41.000Z</time>
      </trkpt>
      <trkpt lat="49.8235" lon="4.87247">
        <ele>361</ele>
        <time>2022-09-05T09:50:42.000Z</time>
      </trkpt>
      <trkpt lat="49.82347" lon="4.87242">
        <ele>362</ele>
        <time>2022-09-05T09:50:43.000Z</time>
      </trkpt>
      <trkpt lat="49.82344" lon="4.87238">
        <ele>362</ele>
        <time>2022-09-05T09:50:44.000Z</time>
      </trkpt>
      <trkpt lat="49.82341" lon="4.87234">
        <ele>362</ele>
        <time>2022-09-05T09:50:45.000Z</time>
      </trkpt>
      <trkpt lat="49.82338" lon="4.8723">
        <ele>362</ele>
        <time>2022-09-05T09:50:46.000Z</time>
      </trkpt>
      <trkpt lat="49.82335" lon="4.87226">
        <ele>362</ele>
        <time>2022-09-05T09:50:47.000Z</time>
      </trkpt>
      <trkpt lat="49.82332" lon="4.87222">
        <ele>362</ele>
        <time>2022-09-05T09:50:48.000Z</time>
      </trkpt>
      <trkpt lat="49.82329" lon="4.87219">
        <ele>362</ele>
        <time>2022-09-05T09:50:49.000Z</time>
      </trkpt>
      <trkpt lat="49.82326" lon="4.87215">
        <ele>362</ele>
        <time>2022-09-05T09:50:50.000Z</time>
      </trkpt>
      <trkpt lat="49.82324" lon="4.87212">
        <ele>362</ele>
        <time>2022-09-05T09:50:51.000Z</time>
      </trkpt>
      <trkpt lat="49.82321" lon="4.87209">
        <ele>362</ele>
        <time>2022-09-05T09:50:52.000Z</time>
      </trkpt>
      <trkpt lat="49.82318" lon="4.87205">
        <ele>362</ele>
        <time>2022-09-05T09:50:53.000Z</time>
      </trkpt>
      <trkpt lat="49.82315" lon="4.87202">
        <ele>362</ele>
        <time>2022-09-05T09:50:54.000Z</time>
      </trkpt>
      <trkpt lat="49.82313" lon="4.87199">
        <ele>361</ele>
        <time>2022-09-05T09:50:55.000Z</time>
      </trkpt>
      <trkpt lat="49.8231" lon="4.87197">
        <ele>361</ele>
        <time>2022-09-05T09:50:56.000Z</time>
      </trkpt>
      <trkpt lat="49.82308" lon="4.87196">
        <ele>361</ele>
        <time>2022-09-05T09:50:57.000Z</time>
      </trkpt>
      <trkpt lat="49.82308" lon="4.87196">
        <ele>361</ele>
        <time>2022-09-05T09:50:58.000Z</time>
      </trkpt>
      <trkpt lat="49.82307" lon="4.87195">
        <ele>361</ele>
        <time>2022-09-05T09:50:59.000Z</time>
      </trkpt>
      <trkpt lat="49.82307" lon="4.87195">
        <ele>361</ele>
        <time>2022-09-05T09:51:00.000Z</time>
      </trkpt>
      <trkpt lat="49.82307" lon="4.87195">
        <ele>361</ele>
        <time>2022-09-05T09:51:01.000Z</time>
      </trkpt>
      <trkpt lat="49.82307" lon="4.87195">
        <ele>361</ele>
        <time>2022-09-05T09:51:02.000Z</time>
      </trkpt>
      <trkpt lat="49.82307" lon="4.87195">
        <ele>361</ele>
        <time>2022-09-05T09:51:03.000Z</time>
      </trkpt>
      <trkpt lat="49.82306" lon="4.87196">
        <ele>361</ele>
        <time>2022-09-05T09:51:04.000Z</time>
      </trkpt>
      <trkpt lat="49.82306" lon="4.87196">
        <ele>361</ele>
        <time>2022-09-05T09:51:05.000Z</time>
      </trkpt>
      <trkpt lat="49.82305" lon="4.87195">
        <ele>361</ele>
        <time>2022-09-05T09:51:06.000Z</time>
      </trkpt>
      <trkpt lat="49.82305" lon="4.87195">
        <ele>361</ele>
        <time>2022-09-05T09:51:07.000Z</time>
      </trkpt>
      <trkpt lat="49.82305" lon="4.87195">
        <ele>361</ele>
        <time>2022-09-05T09:51:08.000Z</time>
      </trkpt>
      <trkpt lat="49.82305" lon="4.87194">
        <ele>361</ele>
        <time>2022-09-05T09:51:09.000Z</time>
      </trkpt>
      <trkpt lat="49.82305" lon="4.87193">
        <ele>361</ele>
        <time>2022-09-05T09:51:10.000Z</time>
      </trkpt>
      <trkpt lat="49.82305" lon="4.87193">
        <ele>361</ele>
        <time>2022-09-05T09:51:11.000Z</time>
      </trkpt>
      <trkpt lat="49.82305" lon="4.87193">
        <ele>361</ele>
        <time>2022-09-05T09:51:12.000Z</time>
      </trkpt>
      <trkpt lat="49.82305" lon="4.87193">
        <ele>361</ele>
        <time>2022-09-05T09:51:13.000Z</time>
      </trkpt>
      <trkpt lat="49.82305" lon="4.87193">
        <ele>361</ele>
        <time>2022-09-05T09:51:14.000Z</time>
      </trkpt>
      <trkpt lat="49.82305" lon="4.87193">
        <ele>361</ele>
        <time>2022-09-05T09:51:15.000Z</time>
      </trkpt>
      <trkpt lat="49.82305" lon="4.87193">
        <ele>361</ele>
        <time>2022-09-05T09:51:16.000Z</time>
      </trkpt>
      <trkpt lat="49.82305" lon="4.87193">
        <ele>361</ele>
        <time>2022-09-05T09:51:17.000Z</time>
      </trkpt>
      <trkpt lat="49.82305" lon="4.87193">
        <ele>361</ele>
        <time>2022-09-05T09:51:18.000Z</time>
      </trkpt>
      <trkpt lat="49.82305" lon="4.87193">
        <ele>361</ele>
        <time>2022-09-05T09:51:19.000Z</time>
      </trkpt>
      <trkpt lat="49.82305" lon="4.87193">
        <ele>361</ele>
        <time>2022-09-05T09:51:20.000Z</time>
      </trkpt>
      <trkpt lat="49.82305" lon="4.87193">
        <ele>361</ele>
        <time>2022-09-05T09:51:21.000Z</time>
      </trkpt>
      <trkpt lat="49.82305" lon="4.87193">
        <ele>361</ele>
        <time>2022-09-05T09:51:22.000Z</time>
      </trkpt>
      <trkpt lat="49.82305" lon="4.87193">
        <ele>361</ele>
        <time>2022-09-05T09:51:23.000Z</time>
      </trkpt>
      <trkpt lat="49.82305" lon="4.87193">
        <ele>361</ele>
        <time>2022-09-05T09:51:24.000Z</time>
      </trkpt>
      <trkpt lat="49.82305" lon="4.87193">
        <ele>361</ele>
        <time>2022-09-05T09:51:25.000Z</time>
      </trkpt>
      <trkpt lat="49.82305" lon="4.87193">
        <ele>361</ele>
        <time>2022-09-05T09:51:26.000Z</time>
      </trkpt>
      <trkpt lat="49.82305" lon="4.87193">
        <ele>361</ele>
        <time>2022-09-05T09:51:27.000Z</time>
      </trkpt>
      <trkpt lat="49.82305" lon="4.87193">
        <ele>361</ele>
        <time>2022-09-05T09:51:28.000Z</time>
      </trkpt>
      <trkpt lat="49.82305" lon="4.87192">
        <ele>361</ele>
        <time>2022-09-05T09:51:29.000Z</time>
      </trkpt>
      <trkpt lat="49.82305" lon="4.87192">
        <ele>361</ele>
        <time>2022-09-05T09:51:30.000Z</time>
      </trkpt>
      <trkpt lat="49.82305" lon="4.87192">
        <ele>361</ele>
        <time>2022-09-05T09:51:31.000Z</time>
      </trkpt>
      <trkpt lat="49.82305" lon="4.87192">
        <ele>361</ele>
        <time>2022-09-05T09:51:32.000Z</time>
      </trkpt>
      <trkpt lat="49.82305" lon="4.87192">
        <ele>361</ele>
        <time>2022-09-05T09:51:33.000Z</time>
      </trkpt>
      <trkpt lat="49.82305" lon="4.87192">
        <ele>361</ele>
        <time>2022-09-05T09:51:34.000Z</time>
      </trkpt>
      <trkpt lat="49.82305" lon="4.87192">
        <ele>361</ele>
        <time>2022-09-05T09:51:35.000Z</time>
      </trkpt>
      <trkpt lat="49.82305" lon="4.87192">
        <ele>361</ele>
        <time>2022-09-05T09:51:36.000Z</time>
      </trkpt>
      <trkpt lat="49.82305" lon="4.87192">
        <ele>361</ele>
        <time>2022-09-05T09:51:37.000Z</time>
      </trkpt>
      <trkpt lat="49.82306" lon="4.87193">
        <ele>361</ele>
        <time>2022-09-05T09:51:38.000Z</time>
      </trkpt>
      <trkpt lat="49.82306" lon="4.87192">
        <ele>361</ele>
        <time>2022-09-05T09:51:39.000Z</time>
      </trkpt>
      <trkpt lat="49.82306" lon="4.87192">
        <ele>361</ele>
        <time>2022-09-05T09:51:40.000Z</time>
      </trkpt>
      <trkpt lat="49.82306" lon="4.87192">
        <ele>361</ele>
        <time>2022-09-05T09:51:41.000Z</time>
      </trkpt>
      <trkpt lat="49.82306" lon="4.87192">
        <ele>361</ele>
        <time>2022-09-05T09:51:42.000Z</time>
      </trkpt>
      <trkpt lat="49.82305" lon="4.87192">
        <ele>361</ele>
        <time>2022-09-05T09:51:43.000Z</time>
      </trkpt>
      <trkpt lat="49.82305" lon="4.87192">
        <ele>361</ele>
        <time>2022-09-05T09:51:44.000Z</time>
      </trkpt>
      <trkpt lat="49.82305" lon="4.87192">
        <ele>361</ele>
        <time>2022-09-05T09:51:45.000Z</time>
      </trkpt>
      <trkpt lat="49.82305" lon="4.87192">
        <ele>361</ele>
        <time>2022-09-05T09:51:46.000Z</time>
      </trkpt>
      <trkpt lat="49.82305" lon="4.87192">
        <ele>361</ele>
        <time>2022-09-05T09:51:47.000Z</time>
      </trkpt>
      <trkpt lat="49.82305" lon="4.87192">
        <ele>361</ele>
        <time>2022-09-05T09:51:48.000Z</time>
      </trkpt>
      <trkpt lat="49.82305" lon="4.87192">
        <ele>361</ele>
        <time>2022-09-05T09:51:49.000Z</time>
      </trkpt>
      <trkpt lat="49.82305" lon="4.87192">
        <ele>361</ele>
        <time>2022-09-05T09:51:50.000Z</time>
      </trkpt>
      <trkpt lat="49.82304" lon="4.87193">
        <ele>362</ele>
        <time>2022-09-05T09:51:51.000Z</time>
      </trkpt>
      <trkpt lat="49.82304" lon="4.87193">
        <ele>362</ele>
        <time>2022-09-05T09:51:52.000Z</time>
      </trkpt>
      <trkpt lat="49.82304" lon="4.87193">
        <ele>362</ele>
        <time>2022-09-05T09:51:53.000Z</time>
      </trkpt>
      <trkpt lat="49.82304" lon="4.87194">
        <ele>362</ele>
        <time>2022-09-05T09:51:54.000Z</time>
      </trkpt>
      <trkpt lat="49.82305" lon="4.87194">
        <ele>362</ele>
        <time>2022-09-05T09:51:55.000Z</time>
      </trkpt>
      <trkpt lat="49.82305" lon="4.87194">
        <ele>362</ele>
        <time>2022-09-05T09:51:56.000Z</time>
      </trkpt>
      <trkpt lat="49.82305" lon="4.87194">
        <ele>362</ele>
        <time>2022-09-05T09:51:57.000Z</time>
      </trkpt>
      <trkpt lat="49.82305" lon="4.87194">
        <ele>362</ele>
        <time>2022-09-05T09:51:58.000Z</time>
      </trkpt>
      <trkpt lat="49.82306" lon="4.87194">
        <ele>362</ele>
        <time>2022-09-05T09:51:59.000Z</time>
      </trkpt>
      <trkpt lat="49.82306" lon="4.87195">
        <ele>362</ele>
        <time>2022-09-05T09:52:00.000Z</time>
      </trkpt>
      <trkpt lat="49.82306" lon="4.87195">
        <ele>362</ele>
        <time>2022-09-05T09:52:01.000Z</time>
      </trkpt>
      <trkpt lat="49.82306" lon="4.87195">
        <ele>362</ele>
        <time>2022-09-05T09:52:02.000Z</time>
      </trkpt>
      <trkpt lat="49.82306" lon="4.87195">
        <ele>362</ele>
        <time>2022-09-05T09:52:03.000Z</time>
      </trkpt>
      <trkpt lat="49.82306" lon="4.87195">
        <ele>362</ele>
        <time>2022-09-05T09:52:04.000Z</time>
      </trkpt>
      <trkpt lat="49.82306" lon="4.87195">
        <ele>362</ele>
        <time>2022-09-05T09:52:05.000Z</time>
      </trkpt>
      <trkpt lat="49.82306" lon="4.87195">
        <ele>362</ele>
        <time>2022-09-05T09:52:06.000Z</time>
      </trkpt>
      <trkpt lat="49.82306" lon="4.87195">
        <ele>362</ele>
        <time>2022-09-05T09:52:07.000Z</time>
      </trkpt>
      <trkpt lat="49.82306" lon="4.87195">
        <ele>362</ele>
        <time>2022-09-05T09:52:08.000Z</time>
      </trkpt>
      <trkpt lat="49.82306" lon="4.87195">
        <ele>361</ele>
        <time>2022-09-05T09:52:09.000Z</time>
      </trkpt>
      <trkpt lat="49.82306" lon="4.87195">
        <ele>361</ele>
        <time>2022-09-05T09:52:10.000Z</time>
      </trkpt>
      <trkpt lat="49.82307" lon="4.87195">
        <ele>361</ele>
        <time>2022-09-05T09:52:11.000Z</time>
      </trkpt>
      <trkpt lat="49.82307" lon="4.87195">
        <ele>362</ele>
        <time>2022-09-05T09:52:12.000Z</time>
      </trkpt>
      <trkpt lat="49.82307" lon="4.87195">
        <ele>362</ele>
        <time>2022-09-05T09:52:13.000Z</time>
      </trkpt>
      <trkpt lat="49.82307" lon="4.87195">
        <ele>362</ele>
        <time>2022-09-05T09:52:14.000Z</time>
      </trkpt>
      <trkpt lat="49.82307" lon="4.87196">
        <ele>362</ele>
        <time>2022-09-05T09:52:15.000Z</time>
      </trkpt>
      <trkpt lat="49.82307" lon="4.87196">
        <ele>362</ele>
        <time>2022-09-05T09:52:16.000Z</time>
      </trkpt>
      <trkpt lat="49.82307" lon="4.87196">
        <ele>362</ele>
        <time>2022-09-05T09:52:17.000Z</time>
      </trkpt>
      <trkpt lat="49.82307" lon="4.87196">
        <ele>362</ele>
        <time>2022-09-05T09:52:18.000Z</time>
      </trkpt>
      <trkpt lat="49.82307" lon="4.87196">
        <ele>362</ele>
        <time>2022-09-05T09:52:19.000Z</time>
      </trkpt>
      <trkpt lat="49.82307" lon="4.87196">
        <ele>362</ele>
        <time>2022-09-05T09:52:20.000Z</time>
      </trkpt>
      <trkpt lat="49.82307" lon="4.87196">
        <ele>362</ele>
        <time>2022-09-05T09:52:21.000Z</time>
      </trkpt>
      <trkpt lat="49.82307" lon="4.87196">
        <ele>362</ele>
        <time>2022-09-05T09:52:22.000Z</time>
      </trkpt>
      <trkpt lat="49.82307" lon="4.87196">
        <ele>362</ele>
        <time>2022-09-05T09:52:23.000Z</time>
      </trkpt>
      <trkpt lat="49.82307" lon="4.87196">
        <ele>362</ele>
        <time>2022-09-05T09:52:24.000Z</time>
      </trkpt>
      <trkpt lat="49.82307" lon="4.87196">
        <ele>362</ele>
        <time>2022-09-05T09:52:25.000Z</time>
      </trkpt>
      <trkpt lat="49.82307" lon="4.87196">
        <ele>362</ele>
        <time>2022-09-05T09:52:26.000Z</time>
      </trkpt>
      <trkpt lat="49.82307" lon="4.87196">
        <ele>362</ele>
        <time>2022-09-05T09:52:27.000Z</time>
      </trkpt>
      <trkpt lat="49.82307" lon="4.87196">
        <ele>362</ele>
        <time>2022-09-05T09:52:28.000Z</time>
      </trkpt>
      <trkpt lat="49.82307" lon="4.87196">
        <ele>362</ele>
        <time>2022-09-05T09:52:29.000Z</time>
      </trkpt>
      <trkpt lat="49.82307" lon="4.87196">
        <ele>362</ele>
        <time>2022-09-05T09:52:30.000Z</time>
      </trkpt>
      <trkpt lat="49.82307" lon="4.87196">
        <ele>362</ele>
        <time>2022-09-05T09:52:31.000Z</time>
      </trkpt>
      <trkpt lat="49.82307" lon="4.87196">
        <ele>362</ele>
        <time>2022-09-05T09:52:32.000Z</time>
      </trkpt>
      <trkpt lat="49.82307" lon="4.87196">
        <ele>362</ele>
        <time>2022-09-05T09:52:33.000Z</time>
      </trkpt>
      <trkpt lat="49.82307" lon="4.87197">
        <ele>362</ele>
        <time>2022-09-05T09:52:34.000Z</time>
      </trkpt>
      <trkpt lat="49.82307" lon="4.87197">
        <ele>362</ele>
        <time>2022-09-05T09:52:35.000Z</time>
      </trkpt>
      <trkpt lat="49.82308" lon="4.87196">
        <ele>362</ele>
        <time>2022-09-05T09:52:36.000Z</time>
      </trkpt>
      <trkpt lat="49.82308" lon="4.87196">
        <ele>362</ele>
        <time>2022-09-05T09:52:37.000Z</time>
      </trkpt>
      <trkpt lat="49.82308" lon="4.87197">
        <ele>362</ele>
        <time>2022-09-05T09:52:38.000Z</time>
      </trkpt>
      <trkpt lat="49.82308" lon="4.87197">
        <ele>362</ele>
        <time>2022-09-05T09:52:39.000Z</time>
      </trkpt>
      <trkpt lat="49.82308" lon="4.87197">
        <ele>362</ele>
        <time>2022-09-05T09:52:40.000Z</time>
      </trkpt>
      <trkpt lat="49.82308" lon="4.87197">
        <ele>362</ele>
        <time>2022-09-05T09:52:41.000Z</time>
      </trkpt>
      <trkpt lat="49.82307" lon="4.87197">
        <ele>362</ele>
        <time>2022-09-05T09:52:42.000Z</time>
      </trkpt>
      <trkpt lat="49.82307" lon="4.87197">
        <ele>362</ele>
        <time>2022-09-05T09:52:43.000Z</time>
      </trkpt>
      <trkpt lat="49.82307" lon="4.87197">
        <ele>362</ele>
        <time>2022-09-05T09:52:44.000Z</time>
      </trkpt>
      <trkpt lat="49.82307" lon="4.87197">
        <ele>362</ele>
        <time>2022-09-05T09:52:45.000Z</time>
      </trkpt>
      <trkpt lat="49.82307" lon="4.87197">
        <ele>362</ele>
        <time>2022-09-05T09:52:46.000Z</time>
      </trkpt>
      <trkpt lat="49.82307" lon="4.87197">
        <ele>362</ele>
        <time>2022-09-05T09:52:47.000Z</time>
      </trkpt>
      <trkpt lat="49.82307" lon="4.87197">
        <ele>362</ele>
        <time>2022-09-05T09:52:48.000Z</time>
      </trkpt>
      <trkpt lat="49.82307" lon="4.87197">
        <ele>362</ele>
        <time>2022-09-05T09:52:49.000Z</time>
      </trkpt>
      <trkpt lat="49.82307" lon="4.87197">
        <ele>362</ele>
        <time>2022-09-05T09:52:50.000Z</time>
      </trkpt>
      <trkpt lat="49.82307" lon="4.87197">
        <ele>362</ele>
        <time>2022-09-05T09:52:51.000Z</time>
      </trkpt>
      <trkpt lat="49.82307" lon="4.87197">
        <ele>362</ele>
        <time>2022-09-05T09:52:52.000Z</time>
      </trkpt>
      <trkpt lat="49.82307" lon="4.87197">
        <ele>362</ele>
        <time>2022-09-05T09:52:53.000Z</time>
      </trkpt>
      <trkpt lat="49.82307" lon="4.87197">
        <ele>362</ele>
        <time>2022-09-05T09:52:54.000Z</time>
      </trkpt>
      <trkpt lat="49.82307" lon="4.87197">
        <ele>362</ele>
        <time>2022-09-05T09:52:55.000Z</time>
      </trkpt>
      <trkpt lat="49.82307" lon="4.87197">
        <ele>362</ele>
        <time>2022-09-05T09:52:56.000Z</time>
      </trkpt>
      <trkpt lat="49.82308" lon="4.87197">
        <ele>362</ele>
        <time>2022-09-05T09:52:57.000Z</time>
      </trkpt>
      <trkpt lat="49.82308" lon="4.87197">
        <ele>362</ele>
        <time>2022-09-05T09:52:58.000Z</time>
      </trkpt>
      <trkpt lat="49.82308" lon="4.87197">
        <ele>362</ele>
        <time>2022-09-05T09:52:59.000Z</time>
      </trkpt>
      <trkpt lat="49.82308" lon="4.87197">
        <ele>362</ele>
        <time>2022-09-05T09:53:00.000Z</time>
      </trkpt>
      <trkpt lat="49.82308" lon="4.87197">
        <ele>362</ele>
        <time>2022-09-05T09:53:01.000Z</time>
      </trkpt>
      <trkpt lat="49.82308" lon="4.87197">
        <ele>362</ele>
        <time>2022-09-05T09:53:02.000Z</time>
      </trkpt>
      <trkpt lat="49.82308" lon="4.87197">
        <ele>362</ele>
        <time>2022-09-05T09:53:03.000Z</time>
      </trkpt>
      <trkpt lat="49.82308" lon="4.87197">
        <ele>362</ele>
        <time>2022-09-05T09:53:04.000Z</time>
      </trkpt>
      <trkpt lat="49.82308" lon="4.87197">
        <ele>362</ele>
        <time>2022-09-05T09:53:05.000Z</time>
      </trkpt>
      <trkpt lat="49.82308" lon="4.87197">
        <ele>362</ele>
        <time>2022-09-05T09:53:06.000Z</time>
      </trkpt>
      <trkpt lat="49.82308" lon="4.87197">
        <ele>362</ele>
        <time>2022-09-05T09:53:07.000Z</time>
      </trkpt>
      <trkpt lat="49.82308" lon="4.87197">
        <ele>362</ele>
        <time>2022-09-05T09:53:08.000Z</time>
      </trkpt>
      <trkpt lat="49.82308" lon="4.87197">
        <ele>362</ele>
        <time>2022-09-05T09:53:09.000Z</time>
      </trkpt>
      <trkpt lat="49.82308" lon="4.87197">
        <ele>362</ele>
        <time>2022-09-05T09:53:10.000Z</time>
      </trkpt>
      <trkpt lat="49.82308" lon="4.87197">
        <ele>362</ele>
        <time>2022-09-05T09:53:11.000Z</time>
      </trkpt>
      <trkpt lat="49.82308" lon="4.87197">
        <ele>362</ele>
        <time>2022-09-05T09:53:12.000Z</time>
      </trkpt>
      <trkpt lat="49.82308" lon="4.87197">
        <ele>362</ele>
        <time>2022-09-05T09:53:13.000Z</time>
      </trkpt>
      <trkpt lat="49.82308" lon="4.87197">
        <ele>362</ele>
        <time>2022-09-05T09:53:14.000Z</time>
      </trkpt>
      <trkpt lat="49.82308" lon="4.87197">
        <ele>362</ele>
        <time>2022-09-05T09:53:15.000Z</time>
      </trkpt>
      <trkpt lat="49.82308" lon="4.87197">
        <ele>362</ele>
        <time>2022-09-05T09:53:16.000Z</time>
      </trkpt>
      <trkpt lat="49.82308" lon="4.87197">
        <ele>362</ele>
        <time>2022-09-05T09:53:17.000Z</time>
      </trkpt>
      <trkpt lat="49.82308" lon="4.87197">
        <ele>362</ele>
        <time>2022-09-05T09:53:18.000Z</time>
      </trkpt>
      <trkpt lat="49.82308" lon="4.87197">
        <ele>362</ele>
        <time>2022-09-05T09:53:19.000Z</time>
      </trkpt>
      <trkpt lat="49.82308" lon="4.87197">
        <ele>362</ele>
        <time>2022-09-05T09:53:20.000Z</time>
      </trkpt>
      <trkpt lat="49.82308" lon="4.87197">
        <ele>362</ele>
        <time>2022-09-05T09:53:21.000Z</time>
      </trkpt>
      <trkpt lat="49.82308" lon="4.87197">
        <ele>362</ele>
        <time>2022-09-05T09:53:22.000Z</time>
      </trkpt>
      <trkpt lat="49.82308" lon="4.87197">
        <ele>362</ele>
        <time>2022-09-05T09:53:23.000Z</time>
      </trkpt>
      <trkpt lat="49.82308" lon="4.87197">
        <ele>362</ele>
        <time>2022-09-05T09:53:24.000Z</time>
      </trkpt>
      <trkpt lat="49.82308" lon="4.87197">
        <ele>362</ele>
        <time>2022-09-05T09:53:25.000Z</time>
      </trkpt>
      <trkpt lat="49.82308" lon="4.87197">
        <ele>362</ele>
        <time>2022-09-05T09:53:26.000Z</time>
      </trkpt>
      <trkpt lat="49.82308" lon="4.87197">
        <ele>362</ele>
        <time>2022-09-05T09:53:27.000Z</time>
      </trkpt>
      <trkpt lat="49.82308" lon="4.87198">
        <ele>362</ele>
        <time>2022-09-05T09:53:28.000Z</time>
      </trkpt>
      <trkpt lat="49.82307" lon="4.87198">
        <ele>362</ele>
        <time>2022-09-05T09:53:29.000Z</time>
      </trkpt>
      <trkpt lat="49.82307" lon="4.87198">
        <ele>362</ele>
        <time>2022-09-05T09:53:30.000Z</time>
      </trkpt>
      <trkpt lat="49.82308" lon="4.87198">
        <ele>361</ele>
        <time>2022-09-05T09:53:31.000Z</time>
      </trkpt>
      <trkpt lat="49.82308" lon="4.87198">
        <ele>361</ele>
        <time>2022-09-05T09:53:32.000Z</time>
      </trkpt>
      <trkpt lat="49.82307" lon="4.87198">
        <ele>361</ele>
        <time>2022-09-05T09:53:33.000Z</time>
      </trkpt>
      <trkpt lat="49.82307" lon="4.87197">
        <ele>361</ele>
        <time>2022-09-05T09:53:34.000Z</time>
      </trkpt>
      <trkpt lat="49.82307" lon="4.87197">
        <ele>361</ele>
        <time>2022-09-05T09:53:35.000Z</time>
      </trkpt>
      <trkpt lat="49.82307" lon="4.87197">
        <ele>361</ele>
        <time>2022-09-05T09:53:36.000Z</time>
      </trkpt>
      <trkpt lat="49.82307" lon="4.87197">
        <ele>361</ele>
        <time>2022-09-05T09:53:37.000Z</time>
      </trkpt>
      <trkpt lat="49.82307" lon="4.87197">
        <ele>361</ele>
        <time>2022-09-05T09:53:38.000Z</time>
      </trkpt>
      <trkpt lat="49.82307" lon="4.87197">
        <ele>361</ele>
        <time>2022-09-05T09:53:39.000Z</time>
      </trkpt>
      <trkpt lat="49.82307" lon="4.87197">
        <ele>361</ele>
        <time>2022-09-05T09:53:40.000Z</time>
      </trkpt>
      <trkpt lat="49.82307" lon="4.87197">
        <ele>361</ele>
        <time>2022-09-05T09:53:41.000Z</time>
      </trkpt>
      <trkpt lat="49.82307" lon="4.87197">
        <ele>361</ele>
        <time>2022-09-05T09:53:42.000Z</time>
      </trkpt>
      <trkpt lat="49.82307" lon="4.87197">
        <ele>361</ele>
        <time>2022-09-05T09:53:43.000Z</time>
      </trkpt>
      <trkpt lat="49.82307" lon="4.87197">
        <ele>361</ele>
        <time>2022-09-05T09:53:44.000Z</time>
      </trkpt>
      <trkpt lat="49.82307" lon="4.87197">
        <ele>361</ele>
        <time>2022-09-05T09:53:45.000Z</time>
      </trkpt>
      <trkpt lat="49.82307" lon="4.87197">
        <ele>361</ele>
        <time>2022-09-05T09:53:46.000Z</time>
      </trkpt>
      <trkpt lat="49.82307" lon="4.87197">
        <ele>361</ele>
        <time>2022-09-05T09:53:47.000Z</time>
      </trkpt>
      <trkpt lat="49.82307" lon="4.87197">
        <ele>361</ele>
        <time>2022-09-05T09:53:48.000Z</time>
      </trkpt>
      <trkpt lat="49.82307" lon="4.87197">
        <ele>361</ele>
        <time>2022-09-05T09:53:49.000Z</time>
      </trkpt>
      <trkpt lat="49.82307" lon="4.87197">
        <ele>361</ele>
        <time>2022-09-05T09:53:50.000Z</time>
      </trkpt>
      <trkpt lat="49.82306" lon="4.87197">
        <ele>361</ele>
        <time>2022-09-05T09:53:51.000Z</time>
      </trkpt>
      <trkpt lat="49.82307" lon="4.87197">
        <ele>361</ele>
        <time>2022-09-05T09:53:52.000Z</time>
      </trkpt>
      <trkpt lat="49.82307" lon="4.87197">
        <ele>361</ele>
        <time>2022-09-05T09:53:53.000Z</time>
      </trkpt>
      <trkpt lat="49.82306" lon="4.87197">
        <ele>361</ele>
        <time>2022-09-05T09:53:54.000Z</time>
      </trkpt>
      <trkpt lat="49.82306" lon="4.87197">
        <ele>361</ele>
        <time>2022-09-05T09:53:55.000Z</time>
      </trkpt>
      <trkpt lat="49.82306" lon="4.87197">
        <ele>361</ele>
        <time>2022-09-05T09:53:56.000Z</time>
      </trkpt>
      <trkpt lat="49.82306" lon="4.87197">
        <ele>361</ele>
        <time>2022-09-05T09:53:57.000Z</time>
      </trkpt>
      <trkpt lat="49.82306" lon="4.87197">
        <ele>361</ele>
        <time>2022-09-05T09:53:58.000Z</time>
      </trkpt>
      <trkpt lat="49.82306" lon="4.87197">
        <ele>361</ele>
        <time>2022-09-05T09:53:59.000Z</time>
      </trkpt>
      <trkpt lat="49.82306" lon="4.87197">
        <ele>361</ele>
        <time>2022-09-05T09:54:00.000Z</time>
      </trkpt>
      <trkpt lat="49.82306" lon="4.87197">
        <ele>361</ele>
        <time>2022-09-05T09:54:01.000Z</time>
      </trkpt>
      <trkpt lat="49.82306" lon="4.87197">
        <ele>361</ele>
        <time>2022-09-05T09:54:02.000Z</time>
      </trkpt>
      <trkpt lat="49.82306" lon="4.87197">
        <ele>361</ele>
        <time>2022-09-05T09:54:03.000Z</time>
      </trkpt>
      <trkpt lat="49.82306" lon="4.87197">
        <ele>361</ele>
        <time>2022-09-05T09:54:04.000Z</time>
      </trkpt>
      <trkpt lat="49.82306" lon="4.87197">
        <ele>361</ele>
        <time>2022-09-05T09:54:05.000Z</time>
      </trkpt>
      <trkpt lat="49.82306" lon="4.87197">
        <ele>361</ele>
        <time>2022-09-05T09:54:06.000Z</time>
      </trkpt>
      <trkpt lat="49.82306" lon="4.87197">
        <ele>361</ele>
        <time>2022-09-05T09:54:07.000Z</time>
      </trkpt>
      <trkpt lat="49.82306" lon="4.87197">
        <ele>361</ele>
        <time>2022-09-05T09:54:08.000Z</time>
      </trkpt>
      <trkpt lat="49.82306" lon="4.87198">
        <ele>361</ele>
        <time>2022-09-05T09:54:09.000Z</time>
      </trkpt>
      <trkpt lat="49.82306" lon="4.87198">
        <ele>361</ele>
        <time>2022-09-05T09:54:10.000Z</time>
      </trkpt>
      <trkpt lat="49.82306" lon="4.87198">
        <ele>361</ele>
        <time>2022-09-05T09:54:11.000Z</time>
      </trkpt>
      <trkpt lat="49.82306" lon="4.87198">
        <ele>361</ele>
        <time>2022-09-05T09:54:12.000Z</time>
      </trkpt>
      <trkpt lat="49.82306" lon="4.87198">
        <ele>361</ele>
        <time>2022-09-05T09:54:13.000Z</time>
      </trkpt>
      <trkpt lat="49.82306" lon="4.87198">
        <ele>361</ele>
        <time>2022-09-05T09:54:14.000Z</time>
      </trkpt>
      <trkpt lat="49.82307" lon="4.87198">
        <ele>361</ele>
        <time>2022-09-05T09:54:15.000Z</time>
      </trkpt>
      <trkpt lat="49.82307" lon="4.87198">
        <ele>361</ele>
        <time>2022-09-05T09:54:16.000Z</time>
      </trkpt>
      <trkpt lat="49.82307" lon="4.87198">
        <ele>361</ele>
        <time>2022-09-05T09:54:17.000Z</time>
      </trkpt>
      <trkpt lat="49.82307" lon="4.87198">
        <ele>361</ele>
        <time>2022-09-05T09:54:18.000Z</time>
      </trkpt>
      <trkpt lat="49.82307" lon="4.87198">
        <ele>361</ele>
        <time>2022-09-05T09:54:19.000Z</time>
      </trkpt>
      <trkpt lat="49.82306" lon="4.87198">
        <ele>361</ele>
        <time>2022-09-05T09:54:20.000Z</time>
      </trkpt>
      <trkpt lat="49.82306" lon="4.87197">
        <ele>361</ele>
        <time>2022-09-05T09:54:21.000Z</time>
      </trkpt>
      <trkpt lat="49.82306" lon="4.87196">
        <ele>361</ele>
        <time>2022-09-05T09:54:22.000Z</time>
      </trkpt>
      <trkpt lat="49.82306" lon="4.87196">
        <ele>361</ele>
        <time>2022-09-05T09:54:23.000Z</time>
      </trkpt>
      <trkpt lat="49.82306" lon="4.87196">
        <ele>361</ele>
        <time>2022-09-05T09:54:24.000Z</time>
      </trkpt>
      <trkpt lat="49.82306" lon="4.87196">
        <ele>361</ele>
        <time>2022-09-05T09:54:25.000Z</time>
      </trkpt>
      <trkpt lat="49.82306" lon="4.87196">
        <ele>362</ele>
        <time>2022-09-05T09:54:26.000Z</time>
      </trkpt>
      <trkpt lat="49.82306" lon="4.87196">
        <ele>362</ele>
        <time>2022-09-05T09:54:27.000Z</time>
      </trkpt>
      <trkpt lat="49.82306" lon="4.87195">
        <ele>362</ele>
        <time>2022-09-05T09:54:28.000Z</time>
      </trkpt>
      <trkpt lat="49.82307" lon="4.87196">
        <ele>362</ele>
        <time>2022-09-05T09:54:29.000Z</time>
      </trkpt>
      <trkpt lat="49.82307" lon="4.87197">
        <ele>362</ele>
        <time>2022-09-05T09:54:30.000Z</time>
      </trkpt>
      <trkpt lat="49.82307" lon="4.87199">
        <ele>362</ele>
        <time>2022-09-05T09:54:31.000Z</time>
      </trkpt>
      <trkpt lat="49.82307" lon="4.872">
        <ele>362</ele>
        <time>2022-09-05T09:54:32.000Z</time>
      </trkpt>
      <trkpt lat="49.82308" lon="4.872">
        <ele>362</ele>
        <time>2022-09-05T09:54:33.000Z</time>
      </trkpt>
      <trkpt lat="49.82308" lon="4.87201">
        <ele>362</ele>
        <time>2022-09-05T09:54:34.000Z</time>
      </trkpt>
      <trkpt lat="49.82308" lon="4.87201">
        <ele>362</ele>
        <time>2022-09-05T09:54:35.000Z</time>
      </trkpt>
      <trkpt lat="49.82308" lon="4.87201">
        <ele>362</ele>
        <time>2022-09-05T09:54:36.000Z</time>
      </trkpt>
      <trkpt lat="49.82308" lon="4.87201">
        <ele>362</ele>
        <time>2022-09-05T09:54:37.000Z</time>
      </trkpt>
      <trkpt lat="49.82308" lon="4.87201">
        <ele>362</ele>
        <time>2022-09-05T09:54:38.000Z</time>
      </trkpt>
      <trkpt lat="49.82308" lon="4.87201">
        <ele>362</ele>
        <time>2022-09-05T09:54:39.000Z</time>
      </trkpt>
      <trkpt lat="49.82308" lon="4.87201">
        <ele>362</ele>
        <time>2022-09-05T09:54:40.000Z</time>
      </trkpt>
      <trkpt lat="49.82308" lon="4.87201">
        <ele>362</ele>
        <time>2022-09-05T09:54:41.000Z</time>
      </trkpt>
      <trkpt lat="49.82308" lon="4.87201">
        <ele>362</ele>
        <time>2022-09-05T09:54:42.000Z</time>
      </trkpt>
      <trkpt lat="49.82308" lon="4.87201">
        <ele>362</ele>
        <time>2022-09-05T09:54:43.000Z</time>
      </trkpt>
      <trkpt lat="49.82308" lon="4.87201">
        <ele>362</ele>
        <time>2022-09-05T09:54:44.000Z</time>
      </trkpt>
      <trkpt lat="49.82308" lon="4.87201">
        <ele>362</ele>
        <time>2022-09-05T09:54:45.000Z</time>
      </trkpt>
      <trkpt lat="49.82308" lon="4.87201">
        <ele>362</ele>
        <time>2022-09-05T09:54:46.000Z</time>
      </trkpt>
      <trkpt lat="49.82308" lon="4.87201">
        <ele>362</ele>
        <time>2022-09-05T09:54:47.000Z</time>
      </trkpt>
      <trkpt lat="49.82308" lon="4.87201">
        <ele>362</ele>
        <time>2022-09-05T09:54:48.000Z</time>
      </trkpt>
      <trkpt lat="49.82308" lon="4.87201">
        <ele>362</ele>
        <time>2022-09-05T09:54:49.000Z</time>
      </trkpt>
      <trkpt lat="49.82308" lon="4.87201">
        <ele>362</ele>
        <time>2022-09-05T09:54:50.000Z</time>
      </trkpt>
      <trkpt lat="49.82308" lon="4.87201">
        <ele>362</ele>
        <time>2022-09-05T09:54:51.000Z</time>
      </trkpt>
      <trkpt lat="49.82308" lon="4.87201">
        <ele>362</ele>
        <time>2022-09-05T09:54:52.000Z</time>
      </trkpt>
      <trkpt lat="49.82308" lon="4.87201">
        <ele>362</ele>
        <time>2022-09-05T09:54:53.000Z</time>
      </trkpt>
      <trkpt lat="49.82308" lon="4.87201">
        <ele>362</ele>
        <time>2022-09-05T09:54:54.000Z</time>
      </trkpt>
      <trkpt lat="49.82308" lon="4.87201">
        <ele>362</ele>
        <time>2022-09-05T09:54:55.000Z</time>
      </trkpt>
      <trkpt lat="49.82308" lon="4.87201">
        <ele>362</ele>
        <time>2022-09-05T09:54:56.000Z</time>
      </trkpt>
      <trkpt lat="49.82308" lon="4.872">
        <ele>362</ele>
        <time>2022-09-05T09:54:57.000Z</time>
      </trkpt>
      <trkpt lat="49.82307" lon="4.87198">
        <ele>362</ele>
        <time>2022-09-05T09:54:58.000Z</time>
      </trkpt>
      <trkpt lat="49.82307" lon="4.87197">
        <ele>362</ele>
        <time>2022-09-05T09:54:59.000Z</time>
      </trkpt>
      <trkpt lat="49.82307" lon="4.87197">
        <ele>362</ele>
        <time>2022-09-05T09:55:00.000Z</time>
      </trkpt>
      <trkpt lat="49.82307" lon="4.87197">
        <ele>362</ele>
        <time>2022-09-05T09:55:01.000Z</time>
      </trkpt>
      <trkpt lat="49.82307" lon="4.87197">
        <ele>362</ele>
        <time>2022-09-05T09:55:02.000Z</time>
      </trkpt>
      <trkpt lat="49.82307" lon="4.87197">
        <ele>362</ele>
        <time>2022-09-05T09:55:03.000Z</time>
      </trkpt>
      <trkpt lat="49.82307" lon="4.87197">
        <ele>362</ele>
        <time>2022-09-05T09:55:04.000Z</time>
      </trkpt>
      <trkpt lat="49.82307" lon="4.87197">
        <ele>362</ele>
        <time>2022-09-05T09:55:05.000Z</time>
      </trkpt>
      <trkpt lat="49.82307" lon="4.87196">
        <ele>362</ele>
        <time>2022-09-05T09:55:06.000Z</time>
      </trkpt>
      <trkpt lat="49.82307" lon="4.87196">
        <ele>362</ele>
        <time>2022-09-05T09:55:07.000Z</time>
      </trkpt>
      <trkpt lat="49.82307" lon="4.87197">
        <ele>362</ele>
        <time>2022-09-05T09:55:08.000Z</time>
      </trkpt>
      <trkpt lat="49.82307" lon="4.87197">
        <ele>362</ele>
        <time>2022-09-05T09:55:09.000Z</time>
      </trkpt>
      <trkpt lat="49.82308" lon="4.87197">
        <ele>362</ele>
        <time>2022-09-05T09:55:10.000Z</time>
      </trkpt>
      <trkpt lat="49.82308" lon="4.87197">
        <ele>362</ele>
        <time>2022-09-05T09:55:11.000Z</time>
      </trkpt>
      <trkpt lat="49.82309" lon="4.87198">
        <ele>362</ele>
        <time>2022-09-05T09:55:12.000Z</time>
      </trkpt>
      <trkpt lat="49.8231" lon="4.87199">
        <ele>362</ele>
        <time>2022-09-05T09:55:13.000Z</time>
      </trkpt>
      <trkpt lat="49.82311" lon="4.872">
        <ele>362</ele>
        <time>2022-09-05T09:55:14.000Z</time>
      </trkpt>
      <trkpt lat="49.82313" lon="4.87202">
        <ele>362</ele>
        <time>2022-09-05T09:55:15.000Z</time>
      </trkpt>
      <trkpt lat="49.82315" lon="4.87204">
        <ele>362</ele>
        <time>2022-09-05T09:55:16.000Z</time>
      </trkpt>
      <trkpt lat="49.82317" lon="4.87206">
        <ele>362</ele>
        <time>2022-09-05T09:55:17.000Z</time>
      </trkpt>
      <trkpt lat="49.8232" lon="4.87208">
        <ele>362</ele>
        <time>2022-09-05T09:55:18.000Z</time>
      </trkpt>
      <trkpt lat="49.82323" lon="4.87211">
        <ele>361</ele>
        <time>2022-09-05T09:55:19.000Z</time>
      </trkpt>
      <trkpt lat="49.82325" lon="4.87214">
        <ele>361</ele>
        <time>2022-09-05T09:55:20.000Z</time>
      </trkpt>
      <trkpt lat="49.82328" lon="4.87218">
        <ele>361</ele>
        <time>2022-09-05T09:55:21.000Z</time>
      </trkpt>
      <trkpt lat="49.82331" lon="4.87221">
        <ele>361</ele>
        <time>2022-09-05T09:55:22.000Z</time>
      </trkpt>
      <trkpt lat="49.82334" lon="4.87225">
        <ele>361</ele>
        <time>2022-09-05T09:55:23.000Z</time>
      </trkpt>
      <trkpt lat="49.82336" lon="4.87229">
        <ele>361</ele>
        <time>2022-09-05T09:55:24.000Z</time>
      </trkpt>
      <trkpt lat="49.82339" lon="4.87233">
        <ele>361</ele>
        <time>2022-09-05T09:55:25.000Z</time>
      </trkpt>
      <trkpt lat="49.82342" lon="4.87236">
        <ele>361</ele>
        <time>2022-09-05T09:55:26.000Z</time>
      </trkpt>
      <trkpt lat="49.82345" lon="4.87241">
        <ele>360</ele>
        <time>2022-09-05T09:55:27.000Z</time>
      </trkpt>
      <trkpt lat="49.82348" lon="4.87245">
        <ele>360</ele>
        <time>2022-09-05T09:55:28.000Z</time>
      </trkpt>
      <trkpt lat="49.82351" lon="4.87249">
        <ele>360</ele>
        <time>2022-09-05T09:55:29.000Z</time>
      </trkpt>
      <trkpt lat="49.82354" lon="4.87253">
        <ele>360</ele>
        <time>2022-09-05T09:55:30.000Z</time>
      </trkpt>
      <trkpt lat="49.82357" lon="4.87258">
        <ele>360</ele>
        <time>2022-09-05T09:55:31.000Z</time>
      </trkpt>
      <trkpt lat="49.8236" lon="4.87262">
        <ele>360</ele>
        <time>2022-09-05T09:55:32.000Z</time>
      </trkpt>
      <trkpt lat="49.82363" lon="4.87266">
        <ele>360</ele>
        <time>2022-09-05T09:55:33.000Z</time>
      </trkpt>
      <trkpt lat="49.82365" lon="4.8727">
        <ele>360</ele>
        <time>2022-09-05T09:55:34.000Z</time>
      </trkpt>
      <trkpt lat="49.82368" lon="4.87275">
        <ele>360</ele>
        <time>2022-09-05T09:55:35.000Z</time>
      </trkpt>
      <trkpt lat="49.8237" lon="4.87279">
        <ele>360</ele>
        <time>2022-09-05T09:55:36.000Z</time>
      </trkpt>
      <trkpt lat="49.82373" lon="4.87284">
        <ele>360</ele>
        <time>2022-09-05T09:55:37.000Z</time>
      </trkpt>
      <trkpt lat="49.82375" lon="4.87289">
        <ele>360</ele>
        <time>2022-09-05T09:55:38.000Z</time>
      </trkpt>
      <trkpt lat="49.82377" lon="4.87294">
        <ele>360</ele>
        <time>2022-09-05T09:55:39.000Z</time>
      </trkpt>
      <trkpt lat="49.82379" lon="4.873">
        <ele>360</ele>
        <time>2022-09-05T09:55:40.000Z</time>
      </trkpt>
      <trkpt lat="49.82381" lon="4.87305">
        <ele>360</ele>
        <time>2022-09-05T09:55:41.000Z</time>
      </trkpt>
      <trkpt lat="49.82383" lon="4.87311">
        <ele>360</ele>
        <time>2022-09-05T09:55:42.000Z</time>
      </trkpt>
      <trkpt lat="49.82384" lon="4.87317">
        <ele>360</ele>
        <time>2022-09-05T09:55:43.000Z</time>
      </trkpt>
      <trkpt lat="49.82385" lon="4.87323">
        <ele>359</ele>
        <time>2022-09-05T09:55:44.000Z</time>
      </trkpt>
      <trkpt lat="49.82387" lon="4.87329">
        <ele>359</ele>
        <time>2022-09-05T09:55:45.000Z</time>
      </trkpt>
      <trkpt lat="49.82389" lon="4.87335">
        <ele>359</ele>
        <time>2022-09-05T09:55:46.000Z</time>
      </trkpt>
      <trkpt lat="49.82391" lon="4.87341">
        <ele>359</ele>
        <time>2022-09-05T09:55:47.000Z</time>
      </trkpt>
      <trkpt lat="49.82393" lon="4.87347">
        <ele>359</ele>
        <time>2022-09-05T09:55:48.000Z</time>
      </trkpt>
      <trkpt lat="49.82394" lon="4.87353">
        <ele>359</ele>
        <time>2022-09-05T09:55:49.000Z</time>
      </trkpt>
      <trkpt lat="49.82396" lon="4.8736">
        <ele>359</ele>
        <time>2022-09-05T09:55:50.000Z</time>
      </trkpt>
      <trkpt lat="49.82398" lon="4.87367">
        <ele>359</ele>
        <time>2022-09-05T09:55:51.000Z</time>
      </trkpt>
      <trkpt lat="49.82401" lon="4.87374">
        <ele>359</ele>
        <time>2022-09-05T09:55:52.000Z</time>
      </trkpt>
      <trkpt lat="49.82403" lon="4.87381">
        <ele>358</ele>
        <time>2022-09-05T09:55:53.000Z</time>
      </trkpt>
      <trkpt lat="49.82405" lon="4.87389">
        <ele>358</ele>
        <time>2022-09-05T09:55:54.000Z</time>
      </trkpt>
      <trkpt lat="49.82408" lon="4.87397">
        <ele>358</ele>
        <time>2022-09-05T09:55:55.000Z</time>
      </trkpt>
      <trkpt lat="49.82411" lon="4.87404">
        <ele>358</ele>
        <time>2022-09-05T09:55:56.000Z</time>
      </trkpt>
      <trkpt lat="49.82413" lon="4.8741">
        <ele>358</ele>
        <time>2022-09-05T09:55:57.000Z</time>
      </trkpt>
      <trkpt lat="49.82414" lon="4.87415">
        <ele>357</ele>
        <time>2022-09-05T09:55:58.000Z</time>
      </trkpt>
      <trkpt lat="49.82415" lon="4.87419">
        <ele>357</ele>
        <time>2022-09-05T09:55:59.000Z</time>
      </trkpt>
      <trkpt lat="49.82414" lon="4.87422">
        <ele>357</ele>
        <time>2022-09-05T09:56:00.000Z</time>
      </trkpt>
      <trkpt lat="49.82413" lon="4.87424">
        <ele>357</ele>
        <time>2022-09-05T09:56:01.000Z</time>
      </trkpt>
      <trkpt lat="49.82411" lon="4.87425">
        <ele>357</ele>
        <time>2022-09-05T09:56:02.000Z</time>
      </trkpt>
      <trkpt lat="49.82409" lon="4.87426">
        <ele>357</ele>
        <time>2022-09-05T09:56:03.000Z</time>
      </trkpt>
      <trkpt lat="49.82406" lon="4.87426">
        <ele>357</ele>
        <time>2022-09-05T09:56:04.000Z</time>
      </trkpt>
      <trkpt lat="49.82404" lon="4.87426">
        <ele>357</ele>
        <time>2022-09-05T09:56:05.000Z</time>
      </trkpt>
      <trkpt lat="49.82401" lon="4.87426">
        <ele>357</ele>
        <time>2022-09-05T09:56:06.000Z</time>
      </trkpt>
      <trkpt lat="49.82398" lon="4.87426">
        <ele>357</ele>
        <time>2022-09-05T09:56:07.000Z</time>
      </trkpt>
      <trkpt lat="49.82395" lon="4.87425">
        <ele>357</ele>
        <time>2022-09-05T09:56:08.000Z</time>
      </trkpt>
      <trkpt lat="49.82392" lon="4.87425">
        <ele>357</ele>
        <time>2022-09-05T09:56:09.000Z</time>
      </trkpt>
      <trkpt lat="49.82389" lon="4.87424">
        <ele>357</ele>
        <time>2022-09-05T09:56:10.000Z</time>
      </trkpt>
      <trkpt lat="49.82386" lon="4.87425">
        <ele>357</ele>
        <time>2022-09-05T09:56:11.000Z</time>
      </trkpt>
      <trkpt lat="49.82383" lon="4.87426">
        <ele>357</ele>
        <time>2022-09-05T09:56:12.000Z</time>
      </trkpt>
      <trkpt lat="49.82379" lon="4.87427">
        <ele>357</ele>
        <time>2022-09-05T09:56:13.000Z</time>
      </trkpt>
      <trkpt lat="49.82376" lon="4.87429">
        <ele>357</ele>
        <time>2022-09-05T09:56:14.000Z</time>
      </trkpt>
      <trkpt lat="49.82372" lon="4.87432">
        <ele>357</ele>
        <time>2022-09-05T09:56:15.000Z</time>
      </trkpt>
      <trkpt lat="49.82368" lon="4.87436">
        <ele>357</ele>
        <time>2022-09-05T09:56:16.000Z</time>
      </trkpt>
      <trkpt lat="49.82365" lon="4.87441">
        <ele>357</ele>
        <time>2022-09-05T09:56:17.000Z</time>
      </trkpt>
      <trkpt lat="49.82362" lon="4.87446">
        <ele>357</ele>
        <time>2022-09-05T09:56:18.000Z</time>
      </trkpt>
      <trkpt lat="49.82359" lon="4.87452">
        <ele>357</ele>
        <time>2022-09-05T09:56:19.000Z</time>
      </trkpt>
      <trkpt lat="49.82356" lon="4.87457">
        <ele>357</ele>
        <time>2022-09-05T09:56:20.000Z</time>
      </trkpt>
      <trkpt lat="49.82354" lon="4.87463">
        <ele>357</ele>
        <time>2022-09-05T09:56:21.000Z</time>
      </trkpt>
      <trkpt lat="49.82351" lon="4.87468">
        <ele>357</ele>
        <time>2022-09-05T09:56:22.000Z</time>
      </trkpt>
      <trkpt lat="49.82348" lon="4.87474">
        <ele>357</ele>
        <time>2022-09-05T09:56:23.000Z</time>
      </trkpt>
      <trkpt lat="49.82345" lon="4.87479">
        <ele>356</ele>
        <time>2022-09-05T09:56:24.000Z</time>
      </trkpt>
      <trkpt lat="49.82342" lon="4.87485">
        <ele>356</ele>
        <time>2022-09-05T09:56:25.000Z</time>
      </trkpt>
      <trkpt lat="49.82339" lon="4.87491">
        <ele>356</ele>
        <time>2022-09-05T09:56:26.000Z</time>
      </trkpt>
      <trkpt lat="49.82335" lon="4.87497">
        <ele>356</ele>
        <time>2022-09-05T09:56:27.000Z</time>
      </trkpt>
      <trkpt lat="49.82331" lon="4.87503">
        <ele>356</ele>
        <time>2022-09-05T09:56:28.000Z</time>
      </trkpt>
      <trkpt lat="49.82327" lon="4.87508">
        <ele>356</ele>
        <time>2022-09-05T09:56:29.000Z</time>
      </trkpt>
      <trkpt lat="49.82323" lon="4.87513">
        <ele>355</ele>
        <time>2022-09-05T09:56:30.000Z</time>
      </trkpt>
      <trkpt lat="49.82318" lon="4.87518">
        <ele>355</ele>
        <time>2022-09-05T09:56:31.000Z</time>
      </trkpt>
      <trkpt lat="49.82312" lon="4.87522">
        <ele>354</ele>
        <time>2022-09-05T09:56:32.000Z</time>
      </trkpt>
      <trkpt lat="49.82307" lon="4.87527">
        <ele>354</ele>
        <time>2022-09-05T09:56:33.000Z</time>
      </trkpt>
      <trkpt lat="49.82301" lon="4.87531">
        <ele>353</ele>
        <time>2022-09-05T09:56:34.000Z</time>
      </trkpt>
      <trkpt lat="49.82295" lon="4.87535">
        <ele>353</ele>
        <time>2022-09-05T09:56:35.000Z</time>
      </trkpt>
      <trkpt lat="49.8229" lon="4.87537">
        <ele>352</ele>
        <time>2022-09-05T09:56:36.000Z</time>
      </trkpt>
      <trkpt lat="49.82285" lon="4.87539">
        <ele>352</ele>
        <time>2022-09-05T09:56:37.000Z</time>
      </trkpt>
      <trkpt lat="49.82279" lon="4.87542">
        <ele>351</ele>
        <time>2022-09-05T09:56:38.000Z</time>
      </trkpt>
      <trkpt lat="49.82274" lon="4.87544">
        <ele>350</ele>
        <time>2022-09-05T09:56:39.000Z</time>
      </trkpt>
      <trkpt lat="49.82268" lon="4.87546">
        <ele>349</ele>
        <time>2022-09-05T09:56:40.000Z</time>
      </trkpt>
      <trkpt lat="49.82262" lon="4.87548">
        <ele>348</ele>
        <time>2022-09-05T09:56:41.000Z</time>
      </trkpt>
      <trkpt lat="49.82256" lon="4.8755">
        <ele>347</ele>
        <time>2022-09-05T09:56:42.000Z</time>
      </trkpt>
      <trkpt lat="49.8225" lon="4.8755">
        <ele>346</ele>
        <time>2022-09-05T09:56:43.000Z</time>
      </trkpt>
      <trkpt lat="49.82244" lon="4.87549">
        <ele>345</ele>
        <time>2022-09-05T09:56:44.000Z</time>
      </trkpt>
      <trkpt lat="49.82238" lon="4.87546">
        <ele>345</ele>
        <time>2022-09-05T09:56:45.000Z</time>
      </trkpt>
      <trkpt lat="49.82232" lon="4.87543">
        <ele>344</ele>
        <time>2022-09-05T09:56:46.000Z</time>
      </trkpt>
      <trkpt lat="49.82228" lon="4.87539">
        <ele>343</ele>
        <time>2022-09-05T09:56:47.000Z</time>
      </trkpt>
      <trkpt lat="49.82223" lon="4.87534">
        <ele>343</ele>
        <time>2022-09-05T09:56:48.000Z</time>
      </trkpt>
      <trkpt lat="49.82219" lon="4.87529">
        <ele>343</ele>
        <time>2022-09-05T09:56:49.000Z</time>
      </trkpt>
      <trkpt lat="49.82214" lon="4.87524">
        <ele>342</ele>
        <time>2022-09-05T09:56:50.000Z</time>
      </trkpt>
      <trkpt lat="49.82209" lon="4.8752">
        <ele>342</ele>
        <time>2022-09-05T09:56:51.000Z</time>
      </trkpt>
      <trkpt lat="49.82204" lon="4.87518">
        <ele>342</ele>
        <time>2022-09-05T09:56:52.000Z</time>
      </trkpt>
      <trkpt lat="49.822" lon="4.87516">
        <ele>342</ele>
        <time>2022-09-05T09:56:53.000Z</time>
      </trkpt>
      <trkpt lat="49.82196" lon="4.87515">
        <ele>342</ele>
        <time>2022-09-05T09:56:54.000Z</time>
      </trkpt>
      <trkpt lat="49.82192" lon="4.87514">
        <ele>342</ele>
        <time>2022-09-05T09:56:55.000Z</time>
      </trkpt>
      <trkpt lat="49.82186" lon="4.87514">
        <ele>341</ele>
        <time>2022-09-05T09:56:56.000Z</time>
      </trkpt>
      <trkpt lat="49.82181" lon="4.87515">
        <ele>341</ele>
        <time>2022-09-05T09:56:57.000Z</time>
      </trkpt>
      <trkpt lat="49.82175" lon="4.87516">
        <ele>341</ele>
        <time>2022-09-05T09:56:58.000Z</time>
      </trkpt>
      <trkpt lat="49.82169" lon="4.87517">
        <ele>341</ele>
        <time>2022-09-05T09:56:59.000Z</time>
      </trkpt>
      <trkpt lat="49.82164" lon="4.87519">
        <ele>341</ele>
        <time>2022-09-05T09:57:00.000Z</time>
      </trkpt>
      <trkpt lat="49.82158" lon="4.87519">
        <ele>340</ele>
        <time>2022-09-05T09:57:01.000Z</time>
      </trkpt>
      <trkpt lat="49.82153" lon="4.87519">
        <ele>340</ele>
        <time>2022-09-05T09:57:02.000Z</time>
      </trkpt>
      <trkpt lat="49.82149" lon="4.8752">
        <ele>340</ele>
        <time>2022-09-05T09:57:03.000Z</time>
      </trkpt>
      <trkpt lat="49.82146" lon="4.87519">
        <ele>340</ele>
        <time>2022-09-05T09:57:04.000Z</time>
      </trkpt>
      <trkpt lat="49.82144" lon="4.87517">
        <ele>339</ele>
        <time>2022-09-05T09:57:05.000Z</time>
      </trkpt>
      <trkpt lat="49.82142" lon="4.87513">
        <ele>339</ele>
        <time>2022-09-05T09:57:06.000Z</time>
      </trkpt>
      <trkpt lat="49.8214" lon="4.87508">
        <ele>339</ele>
        <time>2022-09-05T09:57:07.000Z</time>
      </trkpt>
      <trkpt lat="49.82138" lon="4.87502">
        <ele>339</ele>
        <time>2022-09-05T09:57:08.000Z</time>
      </trkpt>
      <trkpt lat="49.82136" lon="4.87496">
        <ele>339</ele>
        <time>2022-09-05T09:57:09.000Z</time>
      </trkpt>
      <trkpt lat="49.82134" lon="4.8749">
        <ele>338</ele>
        <time>2022-09-05T09:57:10.000Z</time>
      </trkpt>
      <trkpt lat="49.82132" lon="4.87484">
        <ele>338</ele>
        <time>2022-09-05T09:57:11.000Z</time>
      </trkpt>
      <trkpt lat="49.8213" lon="4.87478">
        <ele>338</ele>
        <time>2022-09-05T09:57:12.000Z</time>
      </trkpt>
      <trkpt lat="49.82128" lon="4.87471">
        <ele>338</ele>
        <time>2022-09-05T09:57:13.000Z</time>
      </trkpt>
      <trkpt lat="49.82127" lon="4.87464">
        <ele>338</ele>
        <time>2022-09-05T09:57:14.000Z</time>
      </trkpt>
      <trkpt lat="49.82125" lon="4.87455">
        <ele>338</ele>
        <time>2022-09-05T09:57:15.000Z</time>
      </trkpt>
      <trkpt lat="49.82124" lon="4.87446">
        <ele>337</ele>
        <time>2022-09-05T09:57:16.000Z</time>
      </trkpt>
      <trkpt lat="49.82122" lon="4.87438">
        <ele>337</ele>
        <time>2022-09-05T09:57:17.000Z</time>
      </trkpt>
      <trkpt lat="49.8212" lon="4.87431">
        <ele>337</ele>
        <time>2022-09-05T09:57:18.000Z</time>
      </trkpt>
      <trkpt lat="49.82119" lon="4.87427">
        <ele>337</ele>
        <time>2022-09-05T09:57:19.000Z</time>
      </trkpt>
      <trkpt lat="49.82117" lon="4.87426">
        <ele>336</ele>
        <time>2022-09-05T09:57:20.000Z</time>
      </trkpt>
      <trkpt lat="49.82117" lon="4.87425">
        <ele>336</ele>
        <time>2022-09-05T09:57:21.000Z</time>
      </trkpt>
      <trkpt lat="49.82116" lon="4.87425">
        <ele>336</ele>
        <time>2022-09-05T09:57:22.000Z</time>
      </trkpt>
      <trkpt lat="49.82116" lon="4.87424">
        <ele>336</ele>
        <time>2022-09-05T09:57:23.000Z</time>
      </trkpt>
      <trkpt lat="49.82116" lon="4.87423">
        <ele>335</ele>
        <time>2022-09-05T09:57:24.000Z</time>
      </trkpt>
      <trkpt lat="49.82116" lon="4.87422">
        <ele>335</ele>
        <time>2022-09-05T09:57:25.000Z</time>
      </trkpt>
      <trkpt lat="49.82115" lon="4.87422">
        <ele>335</ele>
        <time>2022-09-05T09:57:26.000Z</time>
      </trkpt>
      <trkpt lat="49.82116" lon="4.87421">
        <ele>335</ele>
        <time>2022-09-05T09:57:27.000Z</time>
      </trkpt>
      <trkpt lat="49.82116" lon="4.87421">
        <ele>334</ele>
        <time>2022-09-05T09:57:28.000Z</time>
      </trkpt>
      <trkpt lat="49.82116" lon="4.87421">
        <ele>334</ele>
        <time>2022-09-05T09:57:29.000Z</time>
      </trkpt>
      <trkpt lat="49.82116" lon="4.87421">
        <ele>334</ele>
        <time>2022-09-05T09:57:30.000Z</time>
      </trkpt>
      <trkpt lat="49.82116" lon="4.87421">
        <ele>334</ele>
        <time>2022-09-05T09:57:31.000Z</time>
      </trkpt>
      <trkpt lat="49.82116" lon="4.87421">
        <ele>334</ele>
        <time>2022-09-05T09:57:32.000Z</time>
      </trkpt>
      <trkpt lat="49.82116" lon="4.87421">
        <ele>334</ele>
        <time>2022-09-05T09:57:33.000Z</time>
      </trkpt>
      <trkpt lat="49.82114" lon="4.87421">
        <ele>334</ele>
        <time>2022-09-05T09:57:34.000Z</time>
      </trkpt>
      <trkpt lat="49.82113" lon="4.8742">
        <ele>334</ele>
        <time>2022-09-05T09:57:35.000Z</time>
      </trkpt>
      <trkpt lat="49.82111" lon="4.87421">
        <ele>333</ele>
        <time>2022-09-05T09:57:36.000Z</time>
      </trkpt>
      <trkpt lat="49.82109" lon="4.87421">
        <ele>333</ele>
        <time>2022-09-05T09:57:37.000Z</time>
      </trkpt>
      <trkpt lat="49.82107" lon="4.87422">
        <ele>333</ele>
        <time>2022-09-05T09:57:38.000Z</time>
      </trkpt>
      <trkpt lat="49.82105" lon="4.87422">
        <ele>333</ele>
        <time>2022-09-05T09:57:39.000Z</time>
      </trkpt>
      <trkpt lat="49.82102" lon="4.87423">
        <ele>333</ele>
        <time>2022-09-05T09:57:40.000Z</time>
      </trkpt>
      <trkpt lat="49.821" lon="4.87425">
        <ele>332</ele>
        <time>2022-09-05T09:57:41.000Z</time>
      </trkpt>
      <trkpt lat="49.82098" lon="4.87427">
        <ele>332</ele>
        <time>2022-09-05T09:57:42.000Z</time>
      </trkpt>
      <trkpt lat="49.82096" lon="4.8743">
        <ele>332</ele>
        <time>2022-09-05T09:57:43.000Z</time>
      </trkpt>
      <trkpt lat="49.82092" lon="4.87432">
        <ele>332</ele>
        <time>2022-09-05T09:57:44.000Z</time>
      </trkpt>
      <trkpt lat="49.82089" lon="4.87435">
        <ele>332</ele>
        <time>2022-09-05T09:57:45.000Z</time>
      </trkpt>
      <trkpt lat="49.82087" lon="4.87438">
        <ele>332</ele>
        <time>2022-09-05T09:57:46.000Z</time>
      </trkpt>
      <trkpt lat="49.82085" lon="4.8744">
        <ele>331</ele>
        <time>2022-09-05T09:57:47.000Z</time>
      </trkpt>
      <trkpt lat="49.82084" lon="4.87442">
        <ele>331</ele>
        <time>2022-09-05T09:57:48.000Z</time>
      </trkpt>
      <trkpt lat="49.82082" lon="4.87445">
        <ele>331</ele>
        <time>2022-09-05T09:57:49.000Z</time>
      </trkpt>
      <trkpt lat="49.82081" lon="4.87449">
        <ele>331</ele>
        <time>2022-09-05T09:57:50.000Z</time>
      </trkpt>
      <trkpt lat="49.82079" lon="4.87452">
        <ele>331</ele>
        <time>2022-09-05T09:57:51.000Z</time>
      </trkpt>
      <trkpt lat="49.82077" lon="4.87456">
        <ele>330</ele>
        <time>2022-09-05T09:57:52.000Z</time>
      </trkpt>
      <trkpt lat="49.82074" lon="4.8746">
        <ele>330</ele>
        <time>2022-09-05T09:57:53.000Z</time>
      </trkpt>
      <trkpt lat="49.82072" lon="4.87463">
        <ele>330</ele>
        <time>2022-09-05T09:57:54.000Z</time>
      </trkpt>
      <trkpt lat="49.8207" lon="4.87465">
        <ele>329</ele>
        <time>2022-09-05T09:57:55.000Z</time>
      </trkpt>
      <trkpt lat="49.82068" lon="4.87467">
        <ele>329</ele>
        <time>2022-09-05T09:57:56.000Z</time>
      </trkpt>
      <trkpt lat="49.82066" lon="4.87471">
        <ele>328</ele>
        <time>2022-09-05T09:57:57.000Z</time>
      </trkpt>
      <trkpt lat="49.82064" lon="4.87475">
        <ele>328</ele>
        <time>2022-09-05T09:57:58.000Z</time>
      </trkpt>
      <trkpt lat="49.82061" lon="4.87479">
        <ele>328</ele>
        <time>2022-09-05T09:57:59.000Z</time>
      </trkpt>
      <trkpt lat="49.82058" lon="4.87482">
        <ele>327</ele>
        <time>2022-09-05T09:58:00.000Z</time>
      </trkpt>
      <trkpt lat="49.82055" lon="4.87486">
        <ele>326</ele>
        <time>2022-09-05T09:58:01.000Z</time>
      </trkpt>
      <trkpt lat="49.82052" lon="4.8749">
        <ele>326</ele>
        <time>2022-09-05T09:58:02.000Z</time>
      </trkpt>
      <trkpt lat="49.82049" lon="4.87493">
        <ele>325</ele>
        <time>2022-09-05T09:58:03.000Z</time>
      </trkpt>
      <trkpt lat="49.82046" lon="4.87497">
        <ele>325</ele>
        <time>2022-09-05T09:58:04.000Z</time>
      </trkpt>
      <trkpt lat="49.82043" lon="4.87501">
        <ele>324</ele>
        <time>2022-09-05T09:58:05.000Z</time>
      </trkpt>
      <trkpt lat="49.8204" lon="4.87505">
        <ele>324</ele>
        <time>2022-09-05T09:58:06.000Z</time>
      </trkpt>
      <trkpt lat="49.82036" lon="4.8751">
        <ele>323</ele>
        <time>2022-09-05T09:58:07.000Z</time>
      </trkpt>
      <trkpt lat="49.82032" lon="4.87515">
        <ele>323</ele>
        <time>2022-09-05T09:58:08.000Z</time>
      </trkpt>
      <trkpt lat="49.82028" lon="4.87519">
        <ele>322</ele>
        <time>2022-09-05T09:58:09.000Z</time>
      </trkpt>
      <trkpt lat="49.82024" lon="4.87522">
        <ele>322</ele>
        <time>2022-09-05T09:58:10.000Z</time>
      </trkpt>
      <trkpt lat="49.82021" lon="4.87527">
        <ele>321</ele>
        <time>2022-09-05T09:58:11.000Z</time>
      </trkpt>
      <trkpt lat="49.82017" lon="4.8753">
        <ele>321</ele>
        <time>2022-09-05T09:58:12.000Z</time>
      </trkpt>
      <trkpt lat="49.82014" lon="4.87534">
        <ele>320</ele>
        <time>2022-09-05T09:58:13.000Z</time>
      </trkpt>
      <trkpt lat="49.8201" lon="4.87537">
        <ele>320</ele>
        <time>2022-09-05T09:58:14.000Z</time>
      </trkpt>
      <trkpt lat="49.82007" lon="4.87538">
        <ele>319</ele>
        <time>2022-09-05T09:58:15.000Z</time>
      </trkpt>
      <trkpt lat="49.82004" lon="4.87539">
        <ele>319</ele>
        <time>2022-09-05T09:58:16.000Z</time>
      </trkpt>
      <trkpt lat="49.81999" lon="4.8754">
        <ele>318</ele>
        <time>2022-09-05T09:58:17.000Z</time>
      </trkpt>
      <trkpt lat="49.81994" lon="4.87541">
        <ele>318</ele>
        <time>2022-09-05T09:58:18.000Z</time>
      </trkpt>
      <trkpt lat="49.8199" lon="4.87543">
        <ele>317</ele>
        <time>2022-09-05T09:58:19.000Z</time>
      </trkpt>
      <trkpt lat="49.81987" lon="4.87543">
        <ele>317</ele>
        <time>2022-09-05T09:58:20.000Z</time>
      </trkpt>
      <trkpt lat="49.81983" lon="4.87544">
        <ele>316</ele>
        <time>2022-09-05T09:58:21.000Z</time>
      </trkpt>
      <trkpt lat="49.8198" lon="4.87545">
        <ele>315</ele>
        <time>2022-09-05T09:58:22.000Z</time>
      </trkpt>
      <trkpt lat="49.81976" lon="4.87547">
        <ele>315</ele>
        <time>2022-09-05T09:58:23.000Z</time>
      </trkpt>
      <trkpt lat="49.81973" lon="4.87549">
        <ele>315</ele>
        <time>2022-09-05T09:58:24.000Z</time>
      </trkpt>
      <trkpt lat="49.81969" lon="4.8755">
        <ele>314</ele>
        <time>2022-09-05T09:58:25.000Z</time>
      </trkpt>
      <trkpt lat="49.81964" lon="4.87551">
        <ele>314</ele>
        <time>2022-09-05T09:58:26.000Z</time>
      </trkpt>
      <trkpt lat="49.81959" lon="4.87552">
        <ele>313</ele>
        <time>2022-09-05T09:58:27.000Z</time>
      </trkpt>
      <trkpt lat="49.81953" lon="4.87552">
        <ele>312</ele>
        <time>2022-09-05T09:58:28.000Z</time>
      </trkpt>
      <trkpt lat="49.81947" lon="4.87553">
        <ele>312</ele>
        <time>2022-09-05T09:58:29.000Z</time>
      </trkpt>
      <trkpt lat="49.81942" lon="4.87553">
        <ele>311</ele>
        <time>2022-09-05T09:58:30.000Z</time>
      </trkpt>
      <trkpt lat="49.81937" lon="4.87553">
        <ele>310</ele>
        <time>2022-09-05T09:58:31.000Z</time>
      </trkpt>
      <trkpt lat="49.81933" lon="4.87554">
        <ele>310</ele>
        <time>2022-09-05T09:58:32.000Z</time>
      </trkpt>
      <trkpt lat="49.81928" lon="4.87553">
        <ele>309</ele>
        <time>2022-09-05T09:58:33.000Z</time>
      </trkpt>
      <trkpt lat="49.81923" lon="4.87552">
        <ele>308</ele>
        <time>2022-09-05T09:58:34.000Z</time>
      </trkpt>
      <trkpt lat="49.81919" lon="4.8755">
        <ele>308</ele>
        <time>2022-09-05T09:58:35.000Z</time>
      </trkpt>
      <trkpt lat="49.81915" lon="4.87549">
        <ele>307</ele>
        <time>2022-09-05T09:58:36.000Z</time>
      </trkpt>
      <trkpt lat="49.8191" lon="4.87549">
        <ele>306</ele>
        <time>2022-09-05T09:58:37.000Z</time>
      </trkpt>
      <trkpt lat="49.81905" lon="4.87549">
        <ele>306</ele>
        <time>2022-09-05T09:58:38.000Z</time>
      </trkpt>
      <trkpt lat="49.81901" lon="4.87549">
        <ele>305</ele>
        <time>2022-09-05T09:58:39.000Z</time>
      </trkpt>
      <trkpt lat="49.81898" lon="4.87549">
        <ele>305</ele>
        <time>2022-09-05T09:58:40.000Z</time>
      </trkpt>
      <trkpt lat="49.81895" lon="4.8755">
        <ele>304</ele>
        <time>2022-09-05T09:58:41.000Z</time>
      </trkpt>
      <trkpt lat="49.81892" lon="4.87551">
        <ele>303</ele>
        <time>2022-09-05T09:58:42.000Z</time>
      </trkpt>
      <trkpt lat="49.81889" lon="4.87553">
        <ele>303</ele>
        <time>2022-09-05T09:58:43.000Z</time>
      </trkpt>
      <trkpt lat="49.81885" lon="4.87553">
        <ele>302</ele>
        <time>2022-09-05T09:58:44.000Z</time>
      </trkpt>
      <trkpt lat="49.81881" lon="4.87553">
        <ele>301</ele>
        <time>2022-09-05T09:58:45.000Z</time>
      </trkpt>
      <trkpt lat="49.81876" lon="4.87553">
        <ele>300</ele>
        <time>2022-09-05T09:58:46.000Z</time>
      </trkpt>
      <trkpt lat="49.81871" lon="4.87553">
        <ele>300</ele>
        <time>2022-09-05T09:58:47.000Z</time>
      </trkpt>
      <trkpt lat="49.81866" lon="4.87552">
        <ele>299</ele>
        <time>2022-09-05T09:58:48.000Z</time>
      </trkpt>
      <trkpt lat="49.81862" lon="4.87551">
        <ele>298</ele>
        <time>2022-09-05T09:58:49.000Z</time>
      </trkpt>
      <trkpt lat="49.81857" lon="4.87551">
        <ele>297</ele>
        <time>2022-09-05T09:58:50.000Z</time>
      </trkpt>
      <trkpt lat="49.81853" lon="4.87551">
        <ele>297</ele>
        <time>2022-09-05T09:58:51.000Z</time>
      </trkpt>
      <trkpt lat="49.81848" lon="4.8755">
        <ele>296</ele>
        <time>2022-09-05T09:58:52.000Z</time>
      </trkpt>
      <trkpt lat="49.81843" lon="4.8755">
        <ele>295</ele>
        <time>2022-09-05T09:58:53.000Z</time>
      </trkpt>
      <trkpt lat="49.81839" lon="4.87549">
        <ele>294</ele>
        <time>2022-09-05T09:58:54.000Z</time>
      </trkpt>
      <trkpt lat="49.81834" lon="4.87549">
        <ele>294</ele>
        <time>2022-09-05T09:58:55.000Z</time>
      </trkpt>
      <trkpt lat="49.81828" lon="4.8755">
        <ele>293</ele>
        <time>2022-09-05T09:58:56.000Z</time>
      </trkpt>
      <trkpt lat="49.81823" lon="4.87549">
        <ele>292</ele>
        <time>2022-09-05T09:58:57.000Z</time>
      </trkpt>
      <trkpt lat="49.81818" lon="4.87548">
        <ele>291</ele>
        <time>2022-09-05T09:58:58.000Z</time>
      </trkpt>
      <trkpt lat="49.81814" lon="4.87547">
        <ele>291</ele>
        <time>2022-09-05T09:58:59.000Z</time>
      </trkpt>
      <trkpt lat="49.81809" lon="4.87547">
        <ele>290</ele>
        <time>2022-09-05T09:59:00.000Z</time>
      </trkpt>
      <trkpt lat="49.81804" lon="4.87547">
        <ele>290</ele>
        <time>2022-09-05T09:59:01.000Z</time>
      </trkpt>
      <trkpt lat="49.81799" lon="4.87548">
        <ele>289</ele>
        <time>2022-09-05T09:59:02.000Z</time>
      </trkpt>
      <trkpt lat="49.81793" lon="4.87549">
        <ele>289</ele>
        <time>2022-09-05T09:59:03.000Z</time>
      </trkpt>
      <trkpt lat="49.81786" lon="4.87549">
        <ele>288</ele>
        <time>2022-09-05T09:59:04.000Z</time>
      </trkpt>
      <trkpt lat="49.8178" lon="4.87549">
        <ele>287</ele>
        <time>2022-09-05T09:59:05.000Z</time>
      </trkpt>
      <trkpt lat="49.81774" lon="4.87548">
        <ele>287</ele>
        <time>2022-09-05T09:59:06.000Z</time>
      </trkpt>
      <trkpt lat="49.81769" lon="4.87548">
        <ele>287</ele>
        <time>2022-09-05T09:59:07.000Z</time>
      </trkpt>
      <trkpt lat="49.81763" lon="4.87546">
        <ele>286</ele>
        <time>2022-09-05T09:59:08.000Z</time>
      </trkpt>
      <trkpt lat="49.81759" lon="4.87543">
        <ele>286</ele>
        <time>2022-09-05T09:59:09.000Z</time>
      </trkpt>
      <trkpt lat="49.81755" lon="4.8754">
        <ele>285</ele>
        <time>2022-09-05T09:59:10.000Z</time>
      </trkpt>
      <trkpt lat="49.81752" lon="4.87536">
        <ele>285</ele>
        <time>2022-09-05T09:59:11.000Z</time>
      </trkpt>
      <trkpt lat="49.81749" lon="4.87532">
        <ele>285</ele>
        <time>2022-09-05T09:59:12.000Z</time>
      </trkpt>
      <trkpt lat="49.81746" lon="4.87527">
        <ele>284</ele>
        <time>2022-09-05T09:59:13.000Z</time>
      </trkpt>
      <trkpt lat="49.81742" lon="4.87523">
        <ele>284</ele>
        <time>2022-09-05T09:59:14.000Z</time>
      </trkpt>
      <trkpt lat="49.81739" lon="4.87517">
        <ele>283</ele>
        <time>2022-09-05T09:59:15.000Z</time>
      </trkpt>
      <trkpt lat="49.81736" lon="4.87513">
        <ele>283</ele>
        <time>2022-09-05T09:59:16.000Z</time>
      </trkpt>
      <trkpt lat="49.81733" lon="4.87508">
        <ele>282</ele>
        <time>2022-09-05T09:59:17.000Z</time>
      </trkpt>
      <trkpt lat="49.8173" lon="4.87501">
        <ele>282</ele>
        <time>2022-09-05T09:59:18.000Z</time>
      </trkpt>
      <trkpt lat="49.81726" lon="4.87495">
        <ele>281</ele>
        <time>2022-09-05T09:59:19.000Z</time>
      </trkpt>
      <trkpt lat="49.81722" lon="4.87489">
        <ele>281</ele>
        <time>2022-09-05T09:59:20.000Z</time>
      </trkpt>
      <trkpt lat="49.81719" lon="4.87484">
        <ele>281</ele>
        <time>2022-09-05T09:59:21.000Z</time>
      </trkpt>
      <trkpt lat="49.81716" lon="4.87479">
        <ele>280</ele>
        <time>2022-09-05T09:59:22.000Z</time>
      </trkpt>
      <trkpt lat="49.81713" lon="4.87474">
        <ele>280</ele>
        <time>2022-09-05T09:59:23.000Z</time>
      </trkpt>
      <trkpt lat="49.81709" lon="4.87469">
        <ele>279</ele>
        <time>2022-09-05T09:59:24.000Z</time>
      </trkpt>
      <trkpt lat="49.81706" lon="4.87462">
        <ele>279</ele>
        <time>2022-09-05T09:59:25.000Z</time>
      </trkpt>
      <trkpt lat="49.81703" lon="4.87455">
        <ele>278</ele>
        <time>2022-09-05T09:59:26.000Z</time>
      </trkpt>
      <trkpt lat="49.81699" lon="4.87448">
        <ele>278</ele>
        <time>2022-09-05T09:59:27.000Z</time>
      </trkpt>
      <trkpt lat="49.81696" lon="4.8744">
        <ele>278</ele>
        <time>2022-09-05T09:59:28.000Z</time>
      </trkpt>
      <trkpt lat="49.81693" lon="4.87432">
        <ele>277</ele>
        <time>2022-09-05T09:59:29.000Z</time>
      </trkpt>
      <trkpt lat="49.8169" lon="4.87424">
        <ele>277</ele>
        <time>2022-09-05T09:59:30.000Z</time>
      </trkpt>
      <trkpt lat="49.81687" lon="4.87416">
        <ele>277</ele>
        <time>2022-09-05T09:59:31.000Z</time>
      </trkpt>
      <trkpt lat="49.81684" lon="4.87408">
        <ele>276</ele>
        <time>2022-09-05T09:59:32.000Z</time>
      </trkpt>
      <trkpt lat="49.81682" lon="4.874">
        <ele>276</ele>
        <time>2022-09-05T09:59:33.000Z</time>
      </trkpt>
      <trkpt lat="49.81678" lon="4.87392">
        <ele>276</ele>
        <time>2022-09-05T09:59:34.000Z</time>
      </trkpt>
      <trkpt lat="49.81675" lon="4.87385">
        <ele>275</ele>
        <time>2022-09-05T09:59:35.000Z</time>
      </trkpt>
      <trkpt lat="49.81671" lon="4.87377">
        <ele>275</ele>
        <time>2022-09-05T09:59:36.000Z</time>
      </trkpt>
      <trkpt lat="49.81667" lon="4.87369">
        <ele>275</ele>
        <time>2022-09-05T09:59:37.000Z</time>
      </trkpt>
      <trkpt lat="49.81664" lon="4.87361">
        <ele>274</ele>
        <time>2022-09-05T09:59:38.000Z</time>
      </trkpt>
      <trkpt lat="49.81659" lon="4.87353">
        <ele>274</ele>
        <time>2022-09-05T09:59:39.000Z</time>
      </trkpt>
      <trkpt lat="49.81655" lon="4.87346">
        <ele>274</ele>
        <time>2022-09-05T09:59:40.000Z</time>
      </trkpt>
      <trkpt lat="49.8165" lon="4.87339">
        <ele>274</ele>
        <time>2022-09-05T09:59:41.000Z</time>
      </trkpt>
      <trkpt lat="49.81645" lon="4.87333">
        <ele>273</ele>
        <time>2022-09-05T09:59:42.000Z</time>
      </trkpt>
      <trkpt lat="49.81641" lon="4.87329">
        <ele>273</ele>
        <time>2022-09-05T09:59:43.000Z</time>
      </trkpt>
      <trkpt lat="49.81637" lon="4.87328">
        <ele>273</ele>
        <time>2022-09-05T09:59:44.000Z</time>
      </trkpt>
      <trkpt lat="49.81633" lon="4.87326">
        <ele>272</ele>
        <time>2022-09-05T09:59:45.000Z</time>
      </trkpt>
      <trkpt lat="49.8163" lon="4.87326">
        <ele>272</ele>
        <time>2022-09-05T09:59:46.000Z</time>
      </trkpt>
      <trkpt lat="49.81628" lon="4.87326">
        <ele>272</ele>
        <time>2022-09-05T09:59:47.000Z</time>
      </trkpt>
      <trkpt lat="49.81625" lon="4.87325">
        <ele>272</ele>
        <time>2022-09-05T09:59:48.000Z</time>
      </trkpt>
      <trkpt lat="49.81622" lon="4.87323">
        <ele>271</ele>
        <time>2022-09-05T09:59:49.000Z</time>
      </trkpt>
      <trkpt lat="49.81619" lon="4.87321">
        <ele>271</ele>
        <time>2022-09-05T09:59:50.000Z</time>
      </trkpt>
      <trkpt lat="49.81617" lon="4.87319">
        <ele>270</ele>
        <time>2022-09-05T09:59:51.000Z</time>
      </trkpt>
      <trkpt lat="49.81615" lon="4.87316">
        <ele>270</ele>
        <time>2022-09-05T09:59:52.000Z</time>
      </trkpt>
      <trkpt lat="49.81614" lon="4.87312">
        <ele>270</ele>
        <time>2022-09-05T09:59:53.000Z</time>
      </trkpt>
      <trkpt lat="49.81613" lon="4.8731">
        <ele>269</ele>
        <time>2022-09-05T09:59:54.000Z</time>
      </trkpt>
      <trkpt lat="49.81612" lon="4.87308">
        <ele>269</ele>
        <time>2022-09-05T09:59:55.000Z</time>
      </trkpt>
      <trkpt lat="49.81611" lon="4.87307">
        <ele>269</ele>
        <time>2022-09-05T09:59:56.000Z</time>
      </trkpt>
      <trkpt lat="49.8161" lon="4.87304">
        <ele>269</ele>
        <time>2022-09-05T09:59:57.000Z</time>
      </trkpt>
      <trkpt lat="49.8161" lon="4.87302">
        <ele>268</ele>
        <time>2022-09-05T09:59:58.000Z</time>
      </trkpt>
      <trkpt lat="49.81608" lon="4.87299">
        <ele>268</ele>
        <time>2022-09-05T09:59:59.000Z</time>
      </trkpt>
      <trkpt lat="49.81607" lon="4.87297">
        <ele>268</ele>
        <time>2022-09-05T10:00:00.000Z</time>
      </trkpt>
      <trkpt lat="49.81604" lon="4.87294">
        <ele>267</ele>
        <time>2022-09-05T10:00:01.000Z</time>
      </trkpt>
      <trkpt lat="49.81602" lon="4.8729">
        <ele>267</ele>
        <time>2022-09-05T10:00:02.000Z</time>
      </trkpt>
      <trkpt lat="49.816" lon="4.87287">
        <ele>267</ele>
        <time>2022-09-05T10:00:03.000Z</time>
      </trkpt>
      <trkpt lat="49.81598" lon="4.87284">
        <ele>266</ele>
        <time>2022-09-05T10:00:04.000Z</time>
      </trkpt>
      <trkpt lat="49.81596" lon="4.87282">
        <ele>266</ele>
        <time>2022-09-05T10:00:05.000Z</time>
      </trkpt>
      <trkpt lat="49.81594" lon="4.8728">
        <ele>266</ele>
        <time>2022-09-05T10:00:06.000Z</time>
      </trkpt>
      <trkpt lat="49.81592" lon="4.87277">
        <ele>266</ele>
        <time>2022-09-05T10:00:07.000Z</time>
      </trkpt>
      <trkpt lat="49.8159" lon="4.87274">
        <ele>266</ele>
        <time>2022-09-05T10:00:08.000Z</time>
      </trkpt>
      <trkpt lat="49.81587" lon="4.87271">
        <ele>266</ele>
        <time>2022-09-05T10:00:09.000Z</time>
      </trkpt>
      <trkpt lat="49.81586" lon="4.87268">
        <ele>265</ele>
        <time>2022-09-05T10:00:10.000Z</time>
      </trkpt>
      <trkpt lat="49.81584" lon="4.87265">
        <ele>265</ele>
        <time>2022-09-05T10:00:11.000Z</time>
      </trkpt>
      <trkpt lat="49.81582" lon="4.87261">
        <ele>265</ele>
        <time>2022-09-05T10:00:12.000Z</time>
      </trkpt>
      <trkpt lat="49.8158" lon="4.87258">
        <ele>265</ele>
        <time>2022-09-05T10:00:13.000Z</time>
      </trkpt>
      <trkpt lat="49.81578" lon="4.87255">
        <ele>265</ele>
        <time>2022-09-05T10:00:14.000Z</time>
      </trkpt>
      <trkpt lat="49.81576" lon="4.87252">
        <ele>265</ele>
        <time>2022-09-05T10:00:15.000Z</time>
      </trkpt>
      <trkpt lat="49.81574" lon="4.87248">
        <ele>265</ele>
        <time>2022-09-05T10:00:16.000Z</time>
      </trkpt>
      <trkpt lat="49.81572" lon="4.87244">
        <ele>265</ele>
        <time>2022-09-05T10:00:17.000Z</time>
      </trkpt>
      <trkpt lat="49.8157" lon="4.8724">
        <ele>265</ele>
        <time>2022-09-05T10:00:18.000Z</time>
      </trkpt>
      <trkpt lat="49.81568" lon="4.87234">
        <ele>265</ele>
        <time>2022-09-05T10:00:19.000Z</time>
      </trkpt>
      <trkpt lat="49.81566" lon="4.87229">
        <ele>265</ele>
        <time>2022-09-05T10:00:20.000Z</time>
      </trkpt>
      <trkpt lat="49.81563" lon="4.87223">
        <ele>265</ele>
        <time>2022-09-05T10:00:21.000Z</time>
      </trkpt>
      <trkpt lat="49.81561" lon="4.87218">
        <ele>265</ele>
        <time>2022-09-05T10:00:22.000Z</time>
      </trkpt>
      <trkpt lat="49.8156" lon="4.87214">
        <ele>265</ele>
        <time>2022-09-05T10:00:23.000Z</time>
      </trkpt>
      <trkpt lat="49.81558" lon="4.87209">
        <ele>265</ele>
        <time>2022-09-05T10:00:24.000Z</time>
      </trkpt>
      <trkpt lat="49.81557" lon="4.87204">
        <ele>265</ele>
        <time>2022-09-05T10:00:25.000Z</time>
      </trkpt>
      <trkpt lat="49.81556" lon="4.872">
        <ele>265</ele>
        <time>2022-09-05T10:00:26.000Z</time>
      </trkpt>
      <trkpt lat="49.81554" lon="4.87195">
        <ele>265</ele>
        <time>2022-09-05T10:00:27.000Z</time>
      </trkpt>
      <trkpt lat="49.81553" lon="4.8719">
        <ele>265</ele>
        <time>2022-09-05T10:00:28.000Z</time>
      </trkpt>
      <trkpt lat="49.81551" lon="4.87185">
        <ele>265</ele>
        <time>2022-09-05T10:00:29.000Z</time>
      </trkpt>
      <trkpt lat="49.81549" lon="4.8718">
        <ele>265</ele>
        <time>2022-09-05T10:00:30.000Z</time>
      </trkpt>
      <trkpt lat="49.81548" lon="4.87175">
        <ele>265</ele>
        <time>2022-09-05T10:00:31.000Z</time>
      </trkpt>
      <trkpt lat="49.81546" lon="4.8717">
        <ele>265</ele>
        <time>2022-09-05T10:00:32.000Z</time>
      </trkpt>
      <trkpt lat="49.81545" lon="4.87165">
        <ele>265</ele>
        <time>2022-09-05T10:00:33.000Z</time>
      </trkpt>
      <trkpt lat="49.81544" lon="4.8716">
        <ele>265</ele>
        <time>2022-09-05T10:00:34.000Z</time>
      </trkpt>
      <trkpt lat="49.81542" lon="4.87154">
        <ele>265</ele>
        <time>2022-09-05T10:00:35.000Z</time>
      </trkpt>
      <trkpt lat="49.81541" lon="4.87148">
        <ele>265</ele>
        <time>2022-09-05T10:00:36.000Z</time>
      </trkpt>
      <trkpt lat="49.8154" lon="4.87142">
        <ele>265</ele>
        <time>2022-09-05T10:00:37.000Z</time>
      </trkpt>
      <trkpt lat="49.81538" lon="4.87135">
        <ele>264</ele>
        <time>2022-09-05T10:00:38.000Z</time>
      </trkpt>
      <trkpt lat="49.81537" lon="4.8713">
        <ele>264</ele>
        <time>2022-09-05T10:00:39.000Z</time>
      </trkpt>
      <trkpt lat="49.81536" lon="4.87124">
        <ele>264</ele>
        <time>2022-09-05T10:00:40.000Z</time>
      </trkpt>
      <trkpt lat="49.81534" lon="4.87118">
        <ele>264</ele>
        <time>2022-09-05T10:00:41.000Z</time>
      </trkpt>
      <trkpt lat="49.81532" lon="4.87113">
        <ele>264</ele>
        <time>2022-09-05T10:00:42.000Z</time>
      </trkpt>
      <trkpt lat="49.81531" lon="4.8711">
        <ele>264</ele>
        <time>2022-09-05T10:00:43.000Z</time>
      </trkpt>
      <trkpt lat="49.81531" lon="4.87109">
        <ele>263</ele>
        <time>2022-09-05T10:00:44.000Z</time>
      </trkpt>
      <trkpt lat="49.81531" lon="4.87107">
        <ele>263</ele>
        <time>2022-09-05T10:00:45.000Z</time>
      </trkpt>
      <trkpt lat="49.81531" lon="4.87105">
        <ele>263</ele>
        <time>2022-09-05T10:00:46.000Z</time>
      </trkpt>
      <trkpt lat="49.81531" lon="4.87102">
        <ele>263</ele>
        <time>2022-09-05T10:00:47.000Z</time>
      </trkpt>
      <trkpt lat="49.81531" lon="4.87099">
        <ele>263</ele>
        <time>2022-09-05T10:00:48.000Z</time>
      </trkpt>
      <trkpt lat="49.8153" lon="4.87095">
        <ele>262</ele>
        <time>2022-09-05T10:00:49.000Z</time>
      </trkpt>
      <trkpt lat="49.81528" lon="4.87091">
        <ele>262</ele>
        <time>2022-09-05T10:00:50.000Z</time>
      </trkpt>
      <trkpt lat="49.81527" lon="4.87086">
        <ele>262</ele>
        <time>2022-09-05T10:00:51.000Z</time>
      </trkpt>
      <trkpt lat="49.81526" lon="4.87081">
        <ele>262</ele>
        <time>2022-09-05T10:00:52.000Z</time>
      </trkpt>
      <trkpt lat="49.81525" lon="4.87076">
        <ele>261</ele>
        <time>2022-09-05T10:00:53.000Z</time>
      </trkpt>
      <trkpt lat="49.81524" lon="4.87071">
        <ele>261</ele>
        <time>2022-09-05T10:00:54.000Z</time>
      </trkpt>
      <trkpt lat="49.81523" lon="4.87066">
        <ele>261</ele>
        <time>2022-09-05T10:00:55.000Z</time>
      </trkpt>
      <trkpt lat="49.81521" lon="4.87061">
        <ele>261</ele>
        <time>2022-09-05T10:00:56.000Z</time>
      </trkpt>
      <trkpt lat="49.8152" lon="4.87055">
        <ele>260</ele>
        <time>2022-09-05T10:00:57.000Z</time>
      </trkpt>
      <trkpt lat="49.81519" lon="4.8705">
        <ele>260</ele>
        <time>2022-09-05T10:00:58.000Z</time>
      </trkpt>
      <trkpt lat="49.81518" lon="4.87044">
        <ele>260</ele>
        <time>2022-09-05T10:00:59.000Z</time>
      </trkpt>
      <trkpt lat="49.81517" lon="4.87038">
        <ele>260</ele>
        <time>2022-09-05T10:01:00.000Z</time>
      </trkpt>
      <trkpt lat="49.81516" lon="4.87033">
        <ele>259</ele>
        <time>2022-09-05T10:01:01.000Z</time>
      </trkpt>
      <trkpt lat="49.81515" lon="4.87027">
        <ele>259</ele>
        <time>2022-09-05T10:01:02.000Z</time>
      </trkpt>
      <trkpt lat="49.81514" lon="4.8702">
        <ele>259</ele>
        <time>2022-09-05T10:01:03.000Z</time>
      </trkpt>
      <trkpt lat="49.81513" lon="4.87012">
        <ele>259</ele>
        <time>2022-09-05T10:01:04.000Z</time>
      </trkpt>
      <trkpt lat="49.81512" lon="4.87004">
        <ele>258</ele>
        <time>2022-09-05T10:01:05.000Z</time>
      </trkpt>
      <trkpt lat="49.8151" lon="4.86996">
        <ele>258</ele>
        <time>2022-09-05T10:01:06.000Z</time>
      </trkpt>
      <trkpt lat="49.81508" lon="4.86987">
        <ele>258</ele>
        <time>2022-09-05T10:01:07.000Z</time>
      </trkpt>
      <trkpt lat="49.81506" lon="4.86979">
        <ele>258</ele>
        <time>2022-09-05T10:01:08.000Z</time>
      </trkpt>
      <trkpt lat="49.81503" lon="4.86971">
        <ele>258</ele>
        <time>2022-09-05T10:01:09.000Z</time>
      </trkpt>
      <trkpt lat="49.815" lon="4.86963">
        <ele>257</ele>
        <time>2022-09-05T10:01:10.000Z</time>
      </trkpt>
      <trkpt lat="49.81496" lon="4.86956">
        <ele>257</ele>
        <time>2022-09-05T10:01:11.000Z</time>
      </trkpt>
      <trkpt lat="49.81492" lon="4.86949">
        <ele>257</ele>
        <time>2022-09-05T10:01:12.000Z</time>
      </trkpt>
      <trkpt lat="49.81487" lon="4.86943">
        <ele>257</ele>
        <time>2022-09-05T10:01:13.000Z</time>
      </trkpt>
      <trkpt lat="49.81483" lon="4.86936">
        <ele>256</ele>
        <time>2022-09-05T10:01:14.000Z</time>
      </trkpt>
      <trkpt lat="49.81478" lon="4.86931">
        <ele>256</ele>
        <time>2022-09-05T10:01:15.000Z</time>
      </trkpt>
      <trkpt lat="49.81473" lon="4.86925">
        <ele>255</ele>
        <time>2022-09-05T10:01:16.000Z</time>
      </trkpt>
      <trkpt lat="49.81469" lon="4.86919">
        <ele>255</ele>
        <time>2022-09-05T10:01:17.000Z</time>
      </trkpt>
      <trkpt lat="49.81464" lon="4.86914">
        <ele>255</ele>
        <time>2022-09-05T10:01:18.000Z</time>
      </trkpt>
      <trkpt lat="49.8146" lon="4.86909">
        <ele>254</ele>
        <time>2022-09-05T10:01:19.000Z</time>
      </trkpt>
      <trkpt lat="49.81455" lon="4.86905">
        <ele>254</ele>
        <time>2022-09-05T10:01:20.000Z</time>
      </trkpt>
      <trkpt lat="49.8145" lon="4.869">
        <ele>254</ele>
        <time>2022-09-05T10:01:21.000Z</time>
      </trkpt>
      <trkpt lat="49.81445" lon="4.86896">
        <ele>254</ele>
        <time>2022-09-05T10:01:22.000Z</time>
      </trkpt>
      <trkpt lat="49.81441" lon="4.86891">
        <ele>253</ele>
        <time>2022-09-05T10:01:23.000Z</time>
      </trkpt>
      <trkpt lat="49.81436" lon="4.86886">
        <ele>253</ele>
        <time>2022-09-05T10:01:24.000Z</time>
      </trkpt>
      <trkpt lat="49.8143" lon="4.86882">
        <ele>253</ele>
        <time>2022-09-05T10:01:25.000Z</time>
      </trkpt>
      <trkpt lat="49.81425" lon="4.86877">
        <ele>253</ele>
        <time>2022-09-05T10:01:26.000Z</time>
      </trkpt>
      <trkpt lat="49.81419" lon="4.86872">
        <ele>252</ele>
        <time>2022-09-05T10:01:27.000Z</time>
      </trkpt>
      <trkpt lat="49.81414" lon="4.86868">
        <ele>252</ele>
        <time>2022-09-05T10:01:28.000Z</time>
      </trkpt>
      <trkpt lat="49.81409" lon="4.86864">
        <ele>251</ele>
        <time>2022-09-05T10:01:29.000Z</time>
      </trkpt>
      <trkpt lat="49.81404" lon="4.86859">
        <ele>251</ele>
        <time>2022-09-05T10:01:30.000Z</time>
      </trkpt>
      <trkpt lat="49.81398" lon="4.86856">
        <ele>250</ele>
        <time>2022-09-05T10:01:31.000Z</time>
      </trkpt>
      <trkpt lat="49.81393" lon="4.86851">
        <ele>250</ele>
        <time>2022-09-05T10:01:32.000Z</time>
      </trkpt>
      <trkpt lat="49.81388" lon="4.86847">
        <ele>250</ele>
        <time>2022-09-05T10:01:33.000Z</time>
      </trkpt>
      <trkpt lat="49.81383" lon="4.86843">
        <ele>249</ele>
        <time>2022-09-05T10:01:34.000Z</time>
      </trkpt>
      <trkpt lat="49.81377" lon="4.86839">
        <ele>249</ele>
        <time>2022-09-05T10:01:35.000Z</time>
      </trkpt>
      <trkpt lat="49.81372" lon="4.86835">
        <ele>249</ele>
        <time>2022-09-05T10:01:36.000Z</time>
      </trkpt>
      <trkpt lat="49.81366" lon="4.8683">
        <ele>249</ele>
        <time>2022-09-05T10:01:37.000Z</time>
      </trkpt>
      <trkpt lat="49.81361" lon="4.86826">
        <ele>248</ele>
        <time>2022-09-05T10:01:38.000Z</time>
      </trkpt>
      <trkpt lat="49.81356" lon="4.86822">
        <ele>248</ele>
        <time>2022-09-05T10:01:39.000Z</time>
      </trkpt>
      <trkpt lat="49.81351" lon="4.86818">
        <ele>248</ele>
        <time>2022-09-05T10:01:40.000Z</time>
      </trkpt>
      <trkpt lat="49.81346" lon="4.86813">
        <ele>248</ele>
        <time>2022-09-05T10:01:41.000Z</time>
      </trkpt>
      <trkpt lat="49.81342" lon="4.86808">
        <ele>248</ele>
        <time>2022-09-05T10:01:42.000Z</time>
      </trkpt>
      <trkpt lat="49.81338" lon="4.86802">
        <ele>247</ele>
        <time>2022-09-05T10:01:43.000Z</time>
      </trkpt>
      <trkpt lat="49.81333" lon="4.86798">
        <ele>247</ele>
        <time>2022-09-05T10:01:44.000Z</time>
      </trkpt>
      <trkpt lat="49.81328" lon="4.86794">
        <ele>247</ele>
        <time>2022-09-05T10:01:45.000Z</time>
      </trkpt>
      <trkpt lat="49.81323" lon="4.8679">
        <ele>247</ele>
        <time>2022-09-05T10:01:46.000Z</time>
      </trkpt>
      <trkpt lat="49.81318" lon="4.86786">
        <ele>247</ele>
        <time>2022-09-05T10:01:47.000Z</time>
      </trkpt>
      <trkpt lat="49.81313" lon="4.86782">
        <ele>247</ele>
        <time>2022-09-05T10:01:48.000Z</time>
      </trkpt>
      <trkpt lat="49.81308" lon="4.86778">
        <ele>247</ele>
        <time>2022-09-05T10:01:49.000Z</time>
      </trkpt>
      <trkpt lat="49.81303" lon="4.86774">
        <ele>247</ele>
        <time>2022-09-05T10:01:50.000Z</time>
      </trkpt>
      <trkpt lat="49.81298" lon="4.86771">
        <ele>247</ele>
        <time>2022-09-05T10:01:51.000Z</time>
      </trkpt>
      <trkpt lat="49.81293" lon="4.86769">
        <ele>247</ele>
        <time>2022-09-05T10:01:52.000Z</time>
      </trkpt>
      <trkpt lat="49.81288" lon="4.86768">
        <ele>246</ele>
        <time>2022-09-05T10:01:53.000Z</time>
      </trkpt>
      <trkpt lat="49.81284" lon="4.86769">
        <ele>246</ele>
        <time>2022-09-05T10:01:54.000Z</time>
      </trkpt>
      <trkpt lat="49.81278" lon="4.8677">
        <ele>246</ele>
        <time>2022-09-05T10:01:55.000Z</time>
      </trkpt>
      <trkpt lat="49.81274" lon="4.86771">
        <ele>246</ele>
        <time>2022-09-05T10:01:56.000Z</time>
      </trkpt>
      <trkpt lat="49.81269" lon="4.86772">
        <ele>246</ele>
        <time>2022-09-05T10:01:57.000Z</time>
      </trkpt>
      <trkpt lat="49.81265" lon="4.86773">
        <ele>246</ele>
        <time>2022-09-05T10:01:58.000Z</time>
      </trkpt>
      <trkpt lat="49.81261" lon="4.86774">
        <ele>246</ele>
        <time>2022-09-05T10:01:59.000Z</time>
      </trkpt>
      <trkpt lat="49.81257" lon="4.86775">
        <ele>245</ele>
        <time>2022-09-05T10:02:00.000Z</time>
      </trkpt>
      <trkpt lat="49.81254" lon="4.86776">
        <ele>245</ele>
        <time>2022-09-05T10:02:01.000Z</time>
      </trkpt>
      <trkpt lat="49.81251" lon="4.86778">
        <ele>245</ele>
        <time>2022-09-05T10:02:02.000Z</time>
      </trkpt>
      <trkpt lat="49.81248" lon="4.8678">
        <ele>245</ele>
        <time>2022-09-05T10:02:03.000Z</time>
      </trkpt>
      <trkpt lat="49.81246" lon="4.86783">
        <ele>245</ele>
        <time>2022-09-05T10:02:04.000Z</time>
      </trkpt>
      <trkpt lat="49.81243" lon="4.86785">
        <ele>245</ele>
        <time>2022-09-05T10:02:05.000Z</time>
      </trkpt>
      <trkpt lat="49.8124" lon="4.86788">
        <ele>245</ele>
        <time>2022-09-05T10:02:06.000Z</time>
      </trkpt>
      <trkpt lat="49.81236" lon="4.8679">
        <ele>245</ele>
        <time>2022-09-05T10:02:07.000Z</time>
      </trkpt>
      <trkpt lat="49.81233" lon="4.86793">
        <ele>245</ele>
        <time>2022-09-05T10:02:08.000Z</time>
      </trkpt>
      <trkpt lat="49.8123" lon="4.86796">
        <ele>245</ele>
        <time>2022-09-05T10:02:09.000Z</time>
      </trkpt>
      <trkpt lat="49.81227" lon="4.868">
        <ele>245</ele>
        <time>2022-09-05T10:02:10.000Z</time>
      </trkpt>
      <trkpt lat="49.81225" lon="4.86805">
        <ele>245</ele>
        <time>2022-09-05T10:02:11.000Z</time>
      </trkpt>
      <trkpt lat="49.81222" lon="4.86811">
        <ele>245</ele>
        <time>2022-09-05T10:02:12.000Z</time>
      </trkpt>
      <trkpt lat="49.81219" lon="4.86817">
        <ele>245</ele>
        <time>2022-09-05T10:02:13.000Z</time>
      </trkpt>
      <trkpt lat="49.81216" lon="4.86822">
        <ele>246</ele>
        <time>2022-09-05T10:02:14.000Z</time>
      </trkpt>
      <trkpt lat="49.81214" lon="4.86827">
        <ele>246</ele>
        <time>2022-09-05T10:02:15.000Z</time>
      </trkpt>
      <trkpt lat="49.81212" lon="4.86832">
        <ele>246</ele>
        <time>2022-09-05T10:02:16.000Z</time>
      </trkpt>
      <trkpt lat="49.81209" lon="4.86837">
        <ele>246</ele>
        <time>2022-09-05T10:02:17.000Z</time>
      </trkpt>
      <trkpt lat="49.81207" lon="4.86843">
        <ele>246</ele>
        <time>2022-09-05T10:02:18.000Z</time>
      </trkpt>
      <trkpt lat="49.81205" lon="4.86848">
        <ele>246</ele>
        <time>2022-09-05T10:02:19.000Z</time>
      </trkpt>
      <trkpt lat="49.81203" lon="4.86854">
        <ele>246</ele>
        <time>2022-09-05T10:02:20.000Z</time>
      </trkpt>
      <trkpt lat="49.81201" lon="4.8686">
        <ele>246</ele>
        <time>2022-09-05T10:02:21.000Z</time>
      </trkpt>
      <trkpt lat="49.81199" lon="4.86865">
        <ele>246</ele>
        <time>2022-09-05T10:02:22.000Z</time>
      </trkpt>
      <trkpt lat="49.81197" lon="4.86871">
        <ele>246</ele>
        <time>2022-09-05T10:02:23.000Z</time>
      </trkpt>
      <trkpt lat="49.81195" lon="4.86876">
        <ele>247</ele>
        <time>2022-09-05T10:02:24.000Z</time>
      </trkpt>
      <trkpt lat="49.81192" lon="4.86881">
        <ele>247</ele>
        <time>2022-09-05T10:02:25.000Z</time>
      </trkpt>
      <trkpt lat="49.8119" lon="4.86886">
        <ele>247</ele>
        <time>2022-09-05T10:02:26.000Z</time>
      </trkpt>
      <trkpt lat="49.81188" lon="4.86892">
        <ele>247</ele>
        <time>2022-09-05T10:02:27.000Z</time>
      </trkpt>
      <trkpt lat="49.81186" lon="4.86896">
        <ele>247</ele>
        <time>2022-09-05T10:02:28.000Z</time>
      </trkpt>
      <trkpt lat="49.81183" lon="4.86901">
        <ele>248</ele>
        <time>2022-09-05T10:02:29.000Z</time>
      </trkpt>
      <trkpt lat="49.81181" lon="4.86906">
        <ele>248</ele>
        <time>2022-09-05T10:02:30.000Z</time>
      </trkpt>
      <trkpt lat="49.81178" lon="4.86911">
        <ele>248</ele>
        <time>2022-09-05T10:02:31.000Z</time>
      </trkpt>
      <trkpt lat="49.81175" lon="4.86915">
        <ele>248</ele>
        <time>2022-09-05T10:02:32.000Z</time>
      </trkpt>
      <trkpt lat="49.81172" lon="4.8692">
        <ele>248</ele>
        <time>2022-09-05T10:02:33.000Z</time>
      </trkpt>
      <trkpt lat="49.81169" lon="4.86924">
        <ele>248</ele>
        <time>2022-09-05T10:02:34.000Z</time>
      </trkpt>
      <trkpt lat="49.81167" lon="4.86929">
        <ele>248</ele>
        <time>2022-09-05T10:02:35.000Z</time>
      </trkpt>
      <trkpt lat="49.81164" lon="4.86934">
        <ele>248</ele>
        <time>2022-09-05T10:02:36.000Z</time>
      </trkpt>
      <trkpt lat="49.81162" lon="4.86939">
        <ele>249</ele>
        <time>2022-09-05T10:02:37.000Z</time>
      </trkpt>
      <trkpt lat="49.8116" lon="4.86944">
        <ele>249</ele>
        <time>2022-09-05T10:02:38.000Z</time>
      </trkpt>
      <trkpt lat="49.81157" lon="4.86949">
        <ele>249</ele>
        <time>2022-09-05T10:02:39.000Z</time>
      </trkpt>
      <trkpt lat="49.81155" lon="4.86954">
        <ele>249</ele>
        <time>2022-09-05T10:02:40.000Z</time>
      </trkpt>
      <trkpt lat="49.81153" lon="4.86959">
        <ele>249</ele>
        <time>2022-09-05T10:02:41.000Z</time>
      </trkpt>
      <trkpt lat="49.81151" lon="4.86964">
        <ele>249</ele>
        <time>2022-09-05T10:02:42.000Z</time>
      </trkpt>
      <trkpt lat="49.81149" lon="4.86969">
        <ele>249</ele>
        <time>2022-09-05T10:02:43.000Z</time>
      </trkpt>
      <trkpt lat="49.81147" lon="4.86974">
        <ele>250</ele>
        <time>2022-09-05T10:02:44.000Z</time>
      </trkpt>
      <trkpt lat="49.81146" lon="4.86979">
        <ele>250</ele>
        <time>2022-09-05T10:02:45.000Z</time>
      </trkpt>
      <trkpt lat="49.81144" lon="4.86983">
        <ele>250</ele>
        <time>2022-09-05T10:02:46.000Z</time>
      </trkpt>
      <trkpt lat="49.81143" lon="4.86988">
        <ele>250</ele>
        <time>2022-09-05T10:02:47.000Z</time>
      </trkpt>
      <trkpt lat="49.81142" lon="4.86993">
        <ele>250</ele>
        <time>2022-09-05T10:02:48.000Z</time>
      </trkpt>
      <trkpt lat="49.81141" lon="4.86998">
        <ele>250</ele>
        <time>2022-09-05T10:02:49.000Z</time>
      </trkpt>
      <trkpt lat="49.8114" lon="4.87003">
        <ele>251</ele>
        <time>2022-09-05T10:02:50.000Z</time>
      </trkpt>
      <trkpt lat="49.81139" lon="4.87009">
        <ele>251</ele>
        <time>2022-09-05T10:02:51.000Z</time>
      </trkpt>
      <trkpt lat="49.81139" lon="4.87014">
        <ele>251</ele>
        <time>2022-09-05T10:02:52.000Z</time>
      </trkpt>
      <trkpt lat="49.81139" lon="4.8702">
        <ele>251</ele>
        <time>2022-09-05T10:02:53.000Z</time>
      </trkpt>
      <trkpt lat="49.81138" lon="4.87025">
        <ele>251</ele>
        <time>2022-09-05T10:02:54.000Z</time>
      </trkpt>
      <trkpt lat="49.81138" lon="4.8703">
        <ele>251</ele>
        <time>2022-09-05T10:02:55.000Z</time>
      </trkpt>
      <trkpt lat="49.81138" lon="4.87035">
        <ele>251</ele>
        <time>2022-09-05T10:02:56.000Z</time>
      </trkpt>
      <trkpt lat="49.81138" lon="4.8704">
        <ele>251</ele>
        <time>2022-09-05T10:02:57.000Z</time>
      </trkpt>
      <trkpt lat="49.81137" lon="4.87046">
        <ele>251</ele>
        <time>2022-09-05T10:02:58.000Z</time>
      </trkpt>
      <trkpt lat="49.81137" lon="4.87051">
        <ele>251</ele>
        <time>2022-09-05T10:02:59.000Z</time>
      </trkpt>
      <trkpt lat="49.81137" lon="4.87056">
        <ele>251</ele>
        <time>2022-09-05T10:03:00.000Z</time>
      </trkpt>
      <trkpt lat="49.81136" lon="4.87061">
        <ele>251</ele>
        <time>2022-09-05T10:03:01.000Z</time>
      </trkpt>
      <trkpt lat="49.81135" lon="4.87066">
        <ele>252</ele>
        <time>2022-09-05T10:03:02.000Z</time>
      </trkpt>
      <trkpt lat="49.81134" lon="4.87071">
        <ele>252</ele>
        <time>2022-09-05T10:03:03.000Z</time>
      </trkpt>
      <trkpt lat="49.81132" lon="4.87076">
        <ele>252</ele>
        <time>2022-09-05T10:03:04.000Z</time>
      </trkpt>
      <trkpt lat="49.8113" lon="4.87079">
        <ele>252</ele>
        <time>2022-09-05T10:03:05.000Z</time>
      </trkpt>
      <trkpt lat="49.81128" lon="4.87082">
        <ele>252</ele>
        <time>2022-09-05T10:03:06.000Z</time>
      </trkpt>
      <trkpt lat="49.81126" lon="4.87084">
        <ele>253</ele>
        <time>2022-09-05T10:03:07.000Z</time>
      </trkpt>
      <trkpt lat="49.81123" lon="4.87085">
        <ele>253</ele>
        <time>2022-09-05T10:03:08.000Z</time>
      </trkpt>
      <trkpt lat="49.81121" lon="4.87085">
        <ele>253</ele>
        <time>2022-09-05T10:03:09.000Z</time>
      </trkpt>
      <trkpt lat="49.81118" lon="4.87084">
        <ele>254</ele>
        <time>2022-09-05T10:03:10.000Z</time>
      </trkpt>
      <trkpt lat="49.81116" lon="4.87082">
        <ele>254</ele>
        <time>2022-09-05T10:03:11.000Z</time>
      </trkpt>
      <trkpt lat="49.81113" lon="4.8708">
        <ele>254</ele>
        <time>2022-09-05T10:03:12.000Z</time>
      </trkpt>
      <trkpt lat="49.81111" lon="4.87079">
        <ele>254</ele>
        <time>2022-09-05T10:03:13.000Z</time>
      </trkpt>
      <trkpt lat="49.81108" lon="4.87077">
        <ele>255</ele>
        <time>2022-09-05T10:03:14.000Z</time>
      </trkpt>
      <trkpt lat="49.81106" lon="4.87075">
        <ele>255</ele>
        <time>2022-09-05T10:03:15.000Z</time>
      </trkpt>
      <trkpt lat="49.81103" lon="4.87073">
        <ele>255</ele>
        <time>2022-09-05T10:03:16.000Z</time>
      </trkpt>
      <trkpt lat="49.811" lon="4.87071">
        <ele>255</ele>
        <time>2022-09-05T10:03:17.000Z</time>
      </trkpt>
      <trkpt lat="49.81097" lon="4.87068">
        <ele>256</ele>
        <time>2022-09-05T10:03:18.000Z</time>
      </trkpt>
      <trkpt lat="49.81094" lon="4.87065">
        <ele>256</ele>
        <time>2022-09-05T10:03:19.000Z</time>
      </trkpt>
      <trkpt lat="49.81092" lon="4.87063">
        <ele>256</ele>
        <time>2022-09-05T10:03:20.000Z</time>
      </trkpt>
      <trkpt lat="49.81089" lon="4.87061">
        <ele>256</ele>
        <time>2022-09-05T10:03:21.000Z</time>
      </trkpt>
      <trkpt lat="49.81086" lon="4.87061">
        <ele>257</ele>
        <time>2022-09-05T10:03:22.000Z</time>
      </trkpt>
      <trkpt lat="49.81083" lon="4.87061">
        <ele>257</ele>
        <time>2022-09-05T10:03:23.000Z</time>
      </trkpt>
      <trkpt lat="49.8108" lon="4.87062">
        <ele>257</ele>
        <time>2022-09-05T10:03:24.000Z</time>
      </trkpt>
      <trkpt lat="49.81078" lon="4.87063">
        <ele>257</ele>
        <time>2022-09-05T10:03:25.000Z</time>
      </trkpt>
      <trkpt lat="49.81075" lon="4.87065">
        <ele>258</ele>
        <time>2022-09-05T10:03:26.000Z</time>
      </trkpt>
      <trkpt lat="49.81072" lon="4.87068">
        <ele>258</ele>
        <time>2022-09-05T10:03:27.000Z</time>
      </trkpt>
      <trkpt lat="49.8107" lon="4.8707">
        <ele>258</ele>
        <time>2022-09-05T10:03:28.000Z</time>
      </trkpt>
      <trkpt lat="49.81067" lon="4.87072">
        <ele>258</ele>
        <time>2022-09-05T10:03:29.000Z</time>
      </trkpt>
      <trkpt lat="49.81065" lon="4.87074">
        <ele>259</ele>
        <time>2022-09-05T10:03:30.000Z</time>
      </trkpt>
      <trkpt lat="49.81062" lon="4.87076">
        <ele>259</ele>
        <time>2022-09-05T10:03:31.000Z</time>
      </trkpt>
      <trkpt lat="49.8106" lon="4.87079">
        <ele>259</ele>
        <time>2022-09-05T10:03:32.000Z</time>
      </trkpt>
      <trkpt lat="49.81058" lon="4.87081">
        <ele>259</ele>
        <time>2022-09-05T10:03:33.000Z</time>
      </trkpt>
      <trkpt lat="49.81056" lon="4.87083">
        <ele>260</ele>
        <time>2022-09-05T10:03:34.000Z</time>
      </trkpt>
      <trkpt lat="49.81053" lon="4.87085">
        <ele>260</ele>
        <time>2022-09-05T10:03:35.000Z</time>
      </trkpt>
      <trkpt lat="49.81051" lon="4.87088">
        <ele>260</ele>
        <time>2022-09-05T10:03:36.000Z</time>
      </trkpt>
      <trkpt lat="49.81049" lon="4.8709">
        <ele>260</ele>
        <time>2022-09-05T10:03:37.000Z</time>
      </trkpt>
      <trkpt lat="49.81047" lon="4.87092">
        <ele>261</ele>
        <time>2022-09-05T10:03:38.000Z</time>
      </trkpt>
      <trkpt lat="49.81045" lon="4.87094">
        <ele>261</ele>
        <time>2022-09-05T10:03:39.000Z</time>
      </trkpt>
      <trkpt lat="49.81043" lon="4.87097">
        <ele>261</ele>
        <time>2022-09-05T10:03:40.000Z</time>
      </trkpt>
      <trkpt lat="49.81041" lon="4.87099">
        <ele>262</ele>
        <time>2022-09-05T10:03:41.000Z</time>
      </trkpt>
      <trkpt lat="49.81039" lon="4.87101">
        <ele>262</ele>
        <time>2022-09-05T10:03:42.000Z</time>
      </trkpt>
      <trkpt lat="49.81037" lon="4.87103">
        <ele>262</ele>
        <time>2022-09-05T10:03:43.000Z</time>
      </trkpt>
      <trkpt lat="49.81035" lon="4.87106">
        <ele>262</ele>
        <time>2022-09-05T10:03:44.000Z</time>
      </trkpt>
      <trkpt lat="49.81032" lon="4.87108">
        <ele>263</ele>
        <time>2022-09-05T10:03:45.000Z</time>
      </trkpt>
      <trkpt lat="49.8103" lon="4.87111">
        <ele>263</ele>
        <time>2022-09-05T10:03:46.000Z</time>
      </trkpt>
      <trkpt lat="49.81028" lon="4.87113">
        <ele>263</ele>
        <time>2022-09-05T10:03:47.000Z</time>
      </trkpt>
      <trkpt lat="49.81026" lon="4.87116">
        <ele>263</ele>
        <time>2022-09-05T10:03:48.000Z</time>
      </trkpt>
      <trkpt lat="49.81025" lon="4.87119">
        <ele>264</ele>
        <time>2022-09-05T10:03:49.000Z</time>
      </trkpt>
      <trkpt lat="49.81023" lon="4.87122">
        <ele>264</ele>
        <time>2022-09-05T10:03:50.000Z</time>
      </trkpt>
      <trkpt lat="49.81022" lon="4.87125">
        <ele>264</ele>
        <time>2022-09-05T10:03:51.000Z</time>
      </trkpt>
      <trkpt lat="49.8102" lon="4.87128">
        <ele>265</ele>
        <time>2022-09-05T10:03:52.000Z</time>
      </trkpt>
      <trkpt lat="49.81018" lon="4.87131">
        <ele>265</ele>
        <time>2022-09-05T10:03:53.000Z</time>
      </trkpt>
      <trkpt lat="49.81016" lon="4.87134">
        <ele>265</ele>
        <time>2022-09-05T10:03:54.000Z</time>
      </trkpt>
      <trkpt lat="49.81014" lon="4.87137">
        <ele>266</ele>
        <time>2022-09-05T10:03:55.000Z</time>
      </trkpt>
      <trkpt lat="49.81012" lon="4.87139">
        <ele>266</ele>
        <time>2022-09-05T10:03:56.000Z</time>
      </trkpt>
      <trkpt lat="49.8101" lon="4.87141">
        <ele>266</ele>
        <time>2022-09-05T10:03:57.000Z</time>
      </trkpt>
      <trkpt lat="49.81007" lon="4.87143">
        <ele>267</ele>
        <time>2022-09-05T10:03:58.000Z</time>
      </trkpt>
      <trkpt lat="49.81005" lon="4.87144">
        <ele>267</ele>
        <time>2022-09-05T10:03:59.000Z</time>
      </trkpt>
      <trkpt lat="49.81002" lon="4.87144">
        <ele>267</ele>
        <time>2022-09-05T10:04:00.000Z</time>
      </trkpt>
      <trkpt lat="49.81" lon="4.87144">
        <ele>268</ele>
        <time>2022-09-05T10:04:01.000Z</time>
      </trkpt>
      <trkpt lat="49.80998" lon="4.87143">
        <ele>268</ele>
        <time>2022-09-05T10:04:02.000Z</time>
      </trkpt>
      <trkpt lat="49.80996" lon="4.87143">
        <ele>268</ele>
        <time>2022-09-05T10:04:03.000Z</time>
      </trkpt>
      <trkpt lat="49.80994" lon="4.87142">
        <ele>268</ele>
        <time>2022-09-05T10:04:04.000Z</time>
      </trkpt>
      <trkpt lat="49.80991" lon="4.87141">
        <ele>268</ele>
        <time>2022-09-05T10:04:05.000Z</time>
      </trkpt>
      <trkpt lat="49.80988" lon="4.87142">
        <ele>269</ele>
        <time>2022-09-05T10:04:06.000Z</time>
      </trkpt>
      <trkpt lat="49.80986" lon="4.87143">
        <ele>269</ele>
        <time>2022-09-05T10:04:07.000Z</time>
      </trkpt>
      <trkpt lat="49.80983" lon="4.87145">
        <ele>269</ele>
        <time>2022-09-05T10:04:08.000Z</time>
      </trkpt>
      <trkpt lat="49.80981" lon="4.87147">
        <ele>269</ele>
        <time>2022-09-05T10:04:09.000Z</time>
      </trkpt>
      <trkpt lat="49.80979" lon="4.8715">
        <ele>270</ele>
        <time>2022-09-05T10:04:10.000Z</time>
      </trkpt>
      <trkpt lat="49.80978" lon="4.87152">
        <ele>270</ele>
        <time>2022-09-05T10:04:11.000Z</time>
      </trkpt>
      <trkpt lat="49.80976" lon="4.87155">
        <ele>270</ele>
        <time>2022-09-05T10:04:12.000Z</time>
      </trkpt>
      <trkpt lat="49.80974" lon="4.87158">
        <ele>270</ele>
        <time>2022-09-05T10:04:13.000Z</time>
      </trkpt>
      <trkpt lat="49.80972" lon="4.87161">
        <ele>270</ele>
        <time>2022-09-05T10:04:14.000Z</time>
      </trkpt>
      <trkpt lat="49.80971" lon="4.87164">
        <ele>271</ele>
        <time>2022-09-05T10:04:15.000Z</time>
      </trkpt>
      <trkpt lat="49.80969" lon="4.87167">
        <ele>271</ele>
        <time>2022-09-05T10:04:16.000Z</time>
      </trkpt>
      <trkpt lat="49.80967" lon="4.8717">
        <ele>271</ele>
        <time>2022-09-05T10:04:17.000Z</time>
      </trkpt>
      <trkpt lat="49.80965" lon="4.87172">
        <ele>271</ele>
        <time>2022-09-05T10:04:18.000Z</time>
      </trkpt>
      <trkpt lat="49.80964" lon="4.87175">
        <ele>271</ele>
        <time>2022-09-05T10:04:19.000Z</time>
      </trkpt>
      <trkpt lat="49.80962" lon="4.87178">
        <ele>271</ele>
        <time>2022-09-05T10:04:20.000Z</time>
      </trkpt>
      <trkpt lat="49.8096" lon="4.8718">
        <ele>271</ele>
        <time>2022-09-05T10:04:21.000Z</time>
      </trkpt>
      <trkpt lat="49.80958" lon="4.87183">
        <ele>272</ele>
        <time>2022-09-05T10:04:22.000Z</time>
      </trkpt>
      <trkpt lat="49.80956" lon="4.87185">
        <ele>272</ele>
        <time>2022-09-05T10:04:23.000Z</time>
      </trkpt>
      <trkpt lat="49.80954" lon="4.87187">
        <ele>272</ele>
        <time>2022-09-05T10:04:24.000Z</time>
      </trkpt>
      <trkpt lat="49.80952" lon="4.87189">
        <ele>272</ele>
        <time>2022-09-05T10:04:25.000Z</time>
      </trkpt>
      <trkpt lat="49.8095" lon="4.87191">
        <ele>272</ele>
        <time>2022-09-05T10:04:26.000Z</time>
      </trkpt>
      <trkpt lat="49.80948" lon="4.87193">
        <ele>273</ele>
        <time>2022-09-05T10:04:27.000Z</time>
      </trkpt>
      <trkpt lat="49.80946" lon="4.87195">
        <ele>273</ele>
        <time>2022-09-05T10:04:28.000Z</time>
      </trkpt>
      <trkpt lat="49.80944" lon="4.87196">
        <ele>273</ele>
        <time>2022-09-05T10:04:29.000Z</time>
      </trkpt>
      <trkpt lat="49.80942" lon="4.87198">
        <ele>273</ele>
        <time>2022-09-05T10:04:30.000Z</time>
      </trkpt>
      <trkpt lat="49.8094" lon="4.872">
        <ele>273</ele>
        <time>2022-09-05T10:04:31.000Z</time>
      </trkpt>
      <trkpt lat="49.80938" lon="4.87202">
        <ele>273</ele>
        <time>2022-09-05T10:04:32.000Z</time>
      </trkpt>
      <trkpt lat="49.80936" lon="4.87204">
        <ele>274</ele>
        <time>2022-09-05T10:04:33.000Z</time>
      </trkpt>
      <trkpt lat="49.80934" lon="4.87206">
        <ele>274</ele>
        <time>2022-09-05T10:04:34.000Z</time>
      </trkpt>
      <trkpt lat="49.80932" lon="4.87208">
        <ele>274</ele>
        <time>2022-09-05T10:04:35.000Z</time>
      </trkpt>
      <trkpt lat="49.8093" lon="4.8721">
        <ele>274</ele>
        <time>2022-09-05T10:04:36.000Z</time>
      </trkpt>
      <trkpt lat="49.80928" lon="4.87212">
        <ele>274</ele>
        <time>2022-09-05T10:04:37.000Z</time>
      </trkpt>
      <trkpt lat="49.80926" lon="4.87214">
        <ele>275</ele>
        <time>2022-09-05T10:04:38.000Z</time>
      </trkpt>
      <trkpt lat="49.80924" lon="4.87216">
        <ele>275</ele>
        <time>2022-09-05T10:04:39.000Z</time>
      </trkpt>
      <trkpt lat="49.80923" lon="4.87218">
        <ele>275</ele>
        <time>2022-09-05T10:04:40.000Z</time>
      </trkpt>
      <trkpt lat="49.80921" lon="4.8722">
        <ele>275</ele>
        <time>2022-09-05T10:04:41.000Z</time>
      </trkpt>
      <trkpt lat="49.80919" lon="4.87222">
        <ele>275</ele>
        <time>2022-09-05T10:04:42.000Z</time>
      </trkpt>
      <trkpt lat="49.80917" lon="4.87224">
        <ele>275</ele>
        <time>2022-09-05T10:04:43.000Z</time>
      </trkpt>
      <trkpt lat="49.80915" lon="4.87225">
        <ele>276</ele>
        <time>2022-09-05T10:04:44.000Z</time>
      </trkpt>
      <trkpt lat="49.80914" lon="4.87227">
        <ele>276</ele>
        <time>2022-09-05T10:04:45.000Z</time>
      </trkpt>
      <trkpt lat="49.80912" lon="4.87229">
        <ele>276</ele>
        <time>2022-09-05T10:04:46.000Z</time>
      </trkpt>
      <trkpt lat="49.80909" lon="4.87232">
        <ele>276</ele>
        <time>2022-09-05T10:04:47.000Z</time>
      </trkpt>
      <trkpt lat="49.80907" lon="4.87234">
        <ele>276</ele>
        <time>2022-09-05T10:04:48.000Z</time>
      </trkpt>
      <trkpt lat="49.80905" lon="4.87237">
        <ele>277</ele>
        <time>2022-09-05T10:04:49.000Z</time>
      </trkpt>
      <trkpt lat="49.80903" lon="4.87239">
        <ele>277</ele>
        <time>2022-09-05T10:04:50.000Z</time>
      </trkpt>
      <trkpt lat="49.80901" lon="4.87241">
        <ele>277</ele>
        <time>2022-09-05T10:04:51.000Z</time>
      </trkpt>
      <trkpt lat="49.80899" lon="4.87243">
        <ele>277</ele>
        <time>2022-09-05T10:04:52.000Z</time>
      </trkpt>
      <trkpt lat="49.80897" lon="4.87245">
        <ele>277</ele>
        <time>2022-09-05T10:04:53.000Z</time>
      </trkpt>
      <trkpt lat="49.80895" lon="4.87248">
        <ele>278</ele>
        <time>2022-09-05T10:04:54.000Z</time>
      </trkpt>
      <trkpt lat="49.80893" lon="4.8725">
        <ele>278</ele>
        <time>2022-09-05T10:04:55.000Z</time>
      </trkpt>
      <trkpt lat="49.80891" lon="4.87252">
        <ele>278</ele>
        <time>2022-09-05T10:04:56.000Z</time>
      </trkpt>
      <trkpt lat="49.80889" lon="4.87254">
        <ele>278</ele>
        <time>2022-09-05T10:04:57.000Z</time>
      </trkpt>
      <trkpt lat="49.80887" lon="4.87257">
        <ele>278</ele>
        <time>2022-09-05T10:04:58.000Z</time>
      </trkpt>
      <trkpt lat="49.80885" lon="4.87259">
        <ele>279</ele>
        <time>2022-09-05T10:04:59.000Z</time>
      </trkpt>
      <trkpt lat="49.80882" lon="4.8726">
        <ele>279</ele>
        <time>2022-09-05T10:05:00.000Z</time>
      </trkpt>
      <trkpt lat="49.80881" lon="4.87262">
        <ele>279</ele>
        <time>2022-09-05T10:05:01.000Z</time>
      </trkpt>
      <trkpt lat="49.80879" lon="4.87264">
        <ele>279</ele>
        <time>2022-09-05T10:05:02.000Z</time>
      </trkpt>
      <trkpt lat="49.80877" lon="4.87267">
        <ele>279</ele>
        <time>2022-09-05T10:05:03.000Z</time>
      </trkpt>
      <trkpt lat="49.80875" lon="4.87269">
        <ele>280</ele>
        <time>2022-09-05T10:05:04.000Z</time>
      </trkpt>
      <trkpt lat="49.80873" lon="4.87271">
        <ele>280</ele>
        <time>2022-09-05T10:05:05.000Z</time>
      </trkpt>
      <trkpt lat="49.80871" lon="4.87273">
        <ele>280</ele>
        <time>2022-09-05T10:05:06.000Z</time>
      </trkpt>
      <trkpt lat="49.80869" lon="4.87275">
        <ele>281</ele>
        <time>2022-09-05T10:05:07.000Z</time>
      </trkpt>
      <trkpt lat="49.80867" lon="4.87277">
        <ele>281</ele>
        <time>2022-09-05T10:05:08.000Z</time>
      </trkpt>
      <trkpt lat="49.80865" lon="4.87279">
        <ele>281</ele>
        <time>2022-09-05T10:05:09.000Z</time>
      </trkpt>
      <trkpt lat="49.80863" lon="4.87281">
        <ele>282</ele>
        <time>2022-09-05T10:05:10.000Z</time>
      </trkpt>
      <trkpt lat="49.80861" lon="4.87283">
        <ele>282</ele>
        <time>2022-09-05T10:05:11.000Z</time>
      </trkpt>
      <trkpt lat="49.80859" lon="4.87285">
        <ele>282</ele>
        <time>2022-09-05T10:05:12.000Z</time>
      </trkpt>
      <trkpt lat="49.80857" lon="4.87288">
        <ele>282</ele>
        <time>2022-09-05T10:05:13.000Z</time>
      </trkpt>
      <trkpt lat="49.80855" lon="4.8729">
        <ele>283</ele>
        <time>2022-09-05T10:05:14.000Z</time>
      </trkpt>
      <trkpt lat="49.80853" lon="4.87292">
        <ele>283</ele>
        <time>2022-09-05T10:05:15.000Z</time>
      </trkpt>
      <trkpt lat="49.80851" lon="4.87295">
        <ele>283</ele>
        <time>2022-09-05T10:05:16.000Z</time>
      </trkpt>
      <trkpt lat="49.80849" lon="4.87297">
        <ele>284</ele>
        <time>2022-09-05T10:05:17.000Z</time>
      </trkpt>
      <trkpt lat="49.80847" lon="4.87299">
        <ele>284</ele>
        <time>2022-09-05T10:05:18.000Z</time>
      </trkpt>
      <trkpt lat="49.80845" lon="4.87302">
        <ele>284</ele>
        <time>2022-09-05T10:05:19.000Z</time>
      </trkpt>
      <trkpt lat="49.80843" lon="4.87304">
        <ele>285</ele>
        <time>2022-09-05T10:05:20.000Z</time>
      </trkpt>
      <trkpt lat="49.80841" lon="4.87307">
        <ele>285</ele>
        <time>2022-09-05T10:05:21.000Z</time>
      </trkpt>
      <trkpt lat="49.80839" lon="4.87309">
        <ele>285</ele>
        <time>2022-09-05T10:05:22.000Z</time>
      </trkpt>
      <trkpt lat="49.80838" lon="4.87312">
        <ele>285</ele>
        <time>2022-09-05T10:05:23.000Z</time>
      </trkpt>
      <trkpt lat="49.80836" lon="4.87315">
        <ele>286</ele>
        <time>2022-09-05T10:05:24.000Z</time>
      </trkpt>
      <trkpt lat="49.80835" lon="4.87318">
        <ele>286</ele>
        <time>2022-09-05T10:05:25.000Z</time>
      </trkpt>
      <trkpt lat="49.80833" lon="4.87321">
        <ele>286</ele>
        <time>2022-09-05T10:05:26.000Z</time>
      </trkpt>
      <trkpt lat="49.80832" lon="4.87325">
        <ele>286</ele>
        <time>2022-09-05T10:05:27.000Z</time>
      </trkpt>
      <trkpt lat="49.8083" lon="4.87328">
        <ele>287</ele>
        <time>2022-09-05T10:05:28.000Z</time>
      </trkpt>
      <trkpt lat="49.80828" lon="4.8733">
        <ele>287</ele>
        <time>2022-09-05T10:05:29.000Z</time>
      </trkpt>
      <trkpt lat="49.80827" lon="4.87334">
        <ele>287</ele>
        <time>2022-09-05T10:05:30.000Z</time>
      </trkpt>
      <trkpt lat="49.80825" lon="4.87337">
        <ele>287</ele>
        <time>2022-09-05T10:05:31.000Z</time>
      </trkpt>
      <trkpt lat="49.80824" lon="4.8734">
        <ele>287</ele>
        <time>2022-09-05T10:05:32.000Z</time>
      </trkpt>
      <trkpt lat="49.80822" lon="4.87343">
        <ele>288</ele>
        <time>2022-09-05T10:05:33.000Z</time>
      </trkpt>
      <trkpt lat="49.80821" lon="4.87346">
        <ele>288</ele>
        <time>2022-09-05T10:05:34.000Z</time>
      </trkpt>
      <trkpt lat="49.8082" lon="4.8735">
        <ele>288</ele>
        <time>2022-09-05T10:05:35.000Z</time>
      </trkpt>
      <trkpt lat="49.80819" lon="4.87353">
        <ele>288</ele>
        <time>2022-09-05T10:05:36.000Z</time>
      </trkpt>
      <trkpt lat="49.80818" lon="4.87356">
        <ele>288</ele>
        <time>2022-09-05T10:05:37.000Z</time>
      </trkpt>
      <trkpt lat="49.80817" lon="4.87359">
        <ele>288</ele>
        <time>2022-09-05T10:05:38.000Z</time>
      </trkpt>
      <trkpt lat="49.80817" lon="4.87363">
        <ele>288</ele>
        <time>2022-09-05T10:05:39.000Z</time>
      </trkpt>
      <trkpt lat="49.80816" lon="4.87366">
        <ele>289</ele>
        <time>2022-09-05T10:05:40.000Z</time>
      </trkpt>
      <trkpt lat="49.80816" lon="4.8737">
        <ele>289</ele>
        <time>2022-09-05T10:05:41.000Z</time>
      </trkpt>
      <trkpt lat="49.80816" lon="4.87373">
        <ele>289</ele>
        <time>2022-09-05T10:05:42.000Z</time>
      </trkpt>
      <trkpt lat="49.80815" lon="4.87377">
        <ele>289</ele>
        <time>2022-09-05T10:05:43.000Z</time>
      </trkpt>
      <trkpt lat="49.80814" lon="4.8738">
        <ele>290</ele>
        <time>2022-09-05T10:05:44.000Z</time>
      </trkpt>
      <trkpt lat="49.80813" lon="4.87383">
        <ele>290</ele>
        <time>2022-09-05T10:05:45.000Z</time>
      </trkpt>
      <trkpt lat="49.80812" lon="4.87387">
        <ele>290</ele>
        <time>2022-09-05T10:05:46.000Z</time>
      </trkpt>
      <trkpt lat="49.80812" lon="4.87391">
        <ele>290</ele>
        <time>2022-09-05T10:05:47.000Z</time>
      </trkpt>
      <trkpt lat="49.80812" lon="4.87395">
        <ele>291</ele>
        <time>2022-09-05T10:05:48.000Z</time>
      </trkpt>
      <trkpt lat="49.80811" lon="4.87398">
        <ele>291</ele>
        <time>2022-09-05T10:05:49.000Z</time>
      </trkpt>
      <trkpt lat="49.80811" lon="4.87402">
        <ele>291</ele>
        <time>2022-09-05T10:05:50.000Z</time>
      </trkpt>
      <trkpt lat="49.8081" lon="4.87406">
        <ele>291</ele>
        <time>2022-09-05T10:05:51.000Z</time>
      </trkpt>
      <trkpt lat="49.8081" lon="4.87409">
        <ele>292</ele>
        <time>2022-09-05T10:05:52.000Z</time>
      </trkpt>
      <trkpt lat="49.80809" lon="4.87414">
        <ele>292</ele>
        <time>2022-09-05T10:05:53.000Z</time>
      </trkpt>
      <trkpt lat="49.80809" lon="4.87417">
        <ele>292</ele>
        <time>2022-09-05T10:05:54.000Z</time>
      </trkpt>
      <trkpt lat="49.80808" lon="4.87421">
        <ele>292</ele>
        <time>2022-09-05T10:05:55.000Z</time>
      </trkpt>
      <trkpt lat="49.80808" lon="4.87425">
        <ele>293</ele>
        <time>2022-09-05T10:05:56.000Z</time>
      </trkpt>
      <trkpt lat="49.80808" lon="4.87428">
        <ele>293</ele>
        <time>2022-09-05T10:05:57.000Z</time>
      </trkpt>
      <trkpt lat="49.80807" lon="4.87432">
        <ele>293</ele>
        <time>2022-09-05T10:05:58.000Z</time>
      </trkpt>
      <trkpt lat="49.80807" lon="4.87436">
        <ele>294</ele>
        <time>2022-09-05T10:05:59.000Z</time>
      </trkpt>
      <trkpt lat="49.80807" lon="4.8744">
        <ele>294</ele>
        <time>2022-09-05T10:06:00.000Z</time>
      </trkpt>
      <trkpt lat="49.80806" lon="4.87443">
        <ele>294</ele>
        <time>2022-09-05T10:06:01.000Z</time>
      </trkpt>
      <trkpt lat="49.80806" lon="4.87447">
        <ele>295</ele>
        <time>2022-09-05T10:06:02.000Z</time>
      </trkpt>
      <trkpt lat="49.80806" lon="4.8745">
        <ele>295</ele>
        <time>2022-09-05T10:06:03.000Z</time>
      </trkpt>
      <trkpt lat="49.80805" lon="4.87454">
        <ele>295</ele>
        <time>2022-09-05T10:06:04.000Z</time>
      </trkpt>
      <trkpt lat="49.80805" lon="4.87458">
        <ele>296</ele>
        <time>2022-09-05T10:06:05.000Z</time>
      </trkpt>
      <trkpt lat="49.80804" lon="4.87461">
        <ele>296</ele>
        <time>2022-09-05T10:06:06.000Z</time>
      </trkpt>
      <trkpt lat="49.80803" lon="4.87465">
        <ele>297</ele>
        <time>2022-09-05T10:06:07.000Z</time>
      </trkpt>
      <trkpt lat="49.80803" lon="4.87469">
        <ele>297</ele>
        <time>2022-09-05T10:06:08.000Z</time>
      </trkpt>
      <trkpt lat="49.80802" lon="4.87472">
        <ele>297</ele>
        <time>2022-09-05T10:06:09.000Z</time>
      </trkpt>
      <trkpt lat="49.80802" lon="4.87476">
        <ele>297</ele>
        <time>2022-09-05T10:06:10.000Z</time>
      </trkpt>
      <trkpt lat="49.80801" lon="4.8748">
        <ele>298</ele>
        <time>2022-09-05T10:06:11.000Z</time>
      </trkpt>
      <trkpt lat="49.80799" lon="4.87484">
        <ele>298</ele>
        <time>2022-09-05T10:06:12.000Z</time>
      </trkpt>
      <trkpt lat="49.80798" lon="4.87487">
        <ele>298</ele>
        <time>2022-09-05T10:06:13.000Z</time>
      </trkpt>
      <trkpt lat="49.80797" lon="4.87491">
        <ele>299</ele>
        <time>2022-09-05T10:06:14.000Z</time>
      </trkpt>
      <trkpt lat="49.80795" lon="4.87494">
        <ele>299</ele>
        <time>2022-09-05T10:06:15.000Z</time>
      </trkpt>
      <trkpt lat="49.80793" lon="4.87497">
        <ele>299</ele>
        <time>2022-09-05T10:06:16.000Z</time>
      </trkpt>
      <trkpt lat="49.80791" lon="4.875">
        <ele>300</ele>
        <time>2022-09-05T10:06:17.000Z</time>
      </trkpt>
      <trkpt lat="49.80789" lon="4.87503">
        <ele>300</ele>
        <time>2022-09-05T10:06:18.000Z</time>
      </trkpt>
      <trkpt lat="49.80787" lon="4.87505">
        <ele>300</ele>
        <time>2022-09-05T10:06:19.000Z</time>
      </trkpt>
      <trkpt lat="49.80785" lon="4.87507">
        <ele>300</ele>
        <time>2022-09-05T10:06:20.000Z</time>
      </trkpt>
      <trkpt lat="49.80783" lon="4.87509">
        <ele>301</ele>
        <time>2022-09-05T10:06:21.000Z</time>
      </trkpt>
      <trkpt lat="49.80781" lon="4.8751">
        <ele>301</ele>
        <time>2022-09-05T10:06:22.000Z</time>
      </trkpt>
      <trkpt lat="49.8078" lon="4.87511">
        <ele>301</ele>
        <time>2022-09-05T10:06:23.000Z</time>
      </trkpt>
      <trkpt lat="49.80778" lon="4.87512">
        <ele>301</ele>
        <time>2022-09-05T10:06:24.000Z</time>
      </trkpt>
      <trkpt lat="49.80776" lon="4.87513">
        <ele>302</ele>
        <time>2022-09-05T10:06:25.000Z</time>
      </trkpt>
      <trkpt lat="49.80774" lon="4.87514">
        <ele>302</ele>
        <time>2022-09-05T10:06:26.000Z</time>
      </trkpt>
      <trkpt lat="49.80771" lon="4.87515">
        <ele>302</ele>
        <time>2022-09-05T10:06:27.000Z</time>
      </trkpt>
      <trkpt lat="49.80769" lon="4.87515">
        <ele>302</ele>
        <time>2022-09-05T10:06:28.000Z</time>
      </trkpt>
      <trkpt lat="49.80767" lon="4.87515">
        <ele>302</ele>
        <time>2022-09-05T10:06:29.000Z</time>
      </trkpt>
      <trkpt lat="49.80765" lon="4.87515">
        <ele>303</ele>
        <time>2022-09-05T10:06:30.000Z</time>
      </trkpt>
      <trkpt lat="49.80763" lon="4.87515">
        <ele>303</ele>
        <time>2022-09-05T10:06:31.000Z</time>
      </trkpt>
      <trkpt lat="49.80761" lon="4.87516">
        <ele>303</ele>
        <time>2022-09-05T10:06:32.000Z</time>
      </trkpt>
      <trkpt lat="49.80759" lon="4.87516">
        <ele>303</ele>
        <time>2022-09-05T10:06:33.000Z</time>
      </trkpt>
      <trkpt lat="49.80757" lon="4.87516">
        <ele>303</ele>
        <time>2022-09-05T10:06:34.000Z</time>
      </trkpt>
      <trkpt lat="49.80755" lon="4.87516">
        <ele>304</ele>
        <time>2022-09-05T10:06:35.000Z</time>
      </trkpt>
      <trkpt lat="49.80753" lon="4.87517">
        <ele>304</ele>
        <time>2022-09-05T10:06:36.000Z</time>
      </trkpt>
      <trkpt lat="49.80751" lon="4.87518">
        <ele>304</ele>
        <time>2022-09-05T10:06:37.000Z</time>
      </trkpt>
      <trkpt lat="49.80748" lon="4.87518">
        <ele>304</ele>
        <time>2022-09-05T10:06:38.000Z</time>
      </trkpt>
      <trkpt lat="49.80746" lon="4.87519">
        <ele>305</ele>
        <time>2022-09-05T10:06:39.000Z</time>
      </trkpt>
      <trkpt lat="49.80744" lon="4.87519">
        <ele>305</ele>
        <time>2022-09-05T10:06:40.000Z</time>
      </trkpt>
      <trkpt lat="49.80742" lon="4.8752">
        <ele>305</ele>
        <time>2022-09-05T10:06:41.000Z</time>
      </trkpt>
      <trkpt lat="49.8074" lon="4.87521">
        <ele>305</ele>
        <time>2022-09-05T10:06:42.000Z</time>
      </trkpt>
      <trkpt lat="49.80737" lon="4.87521">
        <ele>305</ele>
        <time>2022-09-05T10:06:43.000Z</time>
      </trkpt>
      <trkpt lat="49.80734" lon="4.87522">
        <ele>306</ele>
        <time>2022-09-05T10:06:44.000Z</time>
      </trkpt>
      <trkpt lat="49.80732" lon="4.87523">
        <ele>306</ele>
        <time>2022-09-05T10:06:45.000Z</time>
      </trkpt>
      <trkpt lat="49.8073" lon="4.87524">
        <ele>306</ele>
        <time>2022-09-05T10:06:46.000Z</time>
      </trkpt>
      <trkpt lat="49.80727" lon="4.87525">
        <ele>306</ele>
        <time>2022-09-05T10:06:47.000Z</time>
      </trkpt>
      <trkpt lat="49.80725" lon="4.87527">
        <ele>306</ele>
        <time>2022-09-05T10:06:48.000Z</time>
      </trkpt>
      <trkpt lat="49.80723" lon="4.87528">
        <ele>307</ele>
        <time>2022-09-05T10:06:49.000Z</time>
      </trkpt>
      <trkpt lat="49.8072" lon="4.87529">
        <ele>307</ele>
        <time>2022-09-05T10:06:50.000Z</time>
      </trkpt>
      <trkpt lat="49.80718" lon="4.8753">
        <ele>307</ele>
        <time>2022-09-05T10:06:51.000Z</time>
      </trkpt>
      <trkpt lat="49.80716" lon="4.87531">
        <ele>308</ele>
        <time>2022-09-05T10:06:52.000Z</time>
      </trkpt>
      <trkpt lat="49.80714" lon="4.87533">
        <ele>308</ele>
        <time>2022-09-05T10:06:53.000Z</time>
      </trkpt>
      <trkpt lat="49.80711" lon="4.87535">
        <ele>308</ele>
        <time>2022-09-05T10:06:54.000Z</time>
      </trkpt>
      <trkpt lat="49.80709" lon="4.87537">
        <ele>308</ele>
        <time>2022-09-05T10:06:55.000Z</time>
      </trkpt>
      <trkpt lat="49.80707" lon="4.87539">
        <ele>309</ele>
        <time>2022-09-05T10:06:56.000Z</time>
      </trkpt>
      <trkpt lat="49.80706" lon="4.8754">
        <ele>309</ele>
        <time>2022-09-05T10:06:57.000Z</time>
      </trkpt>
      <trkpt lat="49.80704" lon="4.87542">
        <ele>309</ele>
        <time>2022-09-05T10:06:58.000Z</time>
      </trkpt>
      <trkpt lat="49.80702" lon="4.87545">
        <ele>309</ele>
        <time>2022-09-05T10:06:59.000Z</time>
      </trkpt>
      <trkpt lat="49.807" lon="4.87547">
        <ele>309</ele>
        <time>2022-09-05T10:07:00.000Z</time>
      </trkpt>
      <trkpt lat="49.80699" lon="4.87549">
        <ele>310</ele>
        <time>2022-09-05T10:07:01.000Z</time>
      </trkpt>
      <trkpt lat="49.80697" lon="4.87552">
        <ele>310</ele>
        <time>2022-09-05T10:07:02.000Z</time>
      </trkpt>
      <trkpt lat="49.80696" lon="4.87554">
        <ele>310</ele>
        <time>2022-09-05T10:07:03.000Z</time>
      </trkpt>
      <trkpt lat="49.80695" lon="4.87557">
        <ele>311</ele>
        <time>2022-09-05T10:07:04.000Z</time>
      </trkpt>
      <trkpt lat="49.80693" lon="4.87559">
        <ele>311</ele>
        <time>2022-09-05T10:07:05.000Z</time>
      </trkpt>
      <trkpt lat="49.80692" lon="4.87562">
        <ele>312</ele>
        <time>2022-09-05T10:07:06.000Z</time>
      </trkpt>
      <trkpt lat="49.80691" lon="4.87566">
        <ele>312</ele>
        <time>2022-09-05T10:07:07.000Z</time>
      </trkpt>
      <trkpt lat="49.8069" lon="4.87569">
        <ele>312</ele>
        <time>2022-09-05T10:07:08.000Z</time>
      </trkpt>
      <trkpt lat="49.80689" lon="4.87571">
        <ele>313</ele>
        <time>2022-09-05T10:07:09.000Z</time>
      </trkpt>
      <trkpt lat="49.80687" lon="4.87574">
        <ele>313</ele>
        <time>2022-09-05T10:07:10.000Z</time>
      </trkpt>
      <trkpt lat="49.80685" lon="4.87576">
        <ele>314</ele>
        <time>2022-09-05T10:07:11.000Z</time>
      </trkpt>
      <trkpt lat="49.80683" lon="4.87578">
        <ele>314</ele>
        <time>2022-09-05T10:07:12.000Z</time>
      </trkpt>
      <trkpt lat="49.80682" lon="4.87581">
        <ele>315</ele>
        <time>2022-09-05T10:07:13.000Z</time>
      </trkpt>
      <trkpt lat="49.80682" lon="4.87584">
        <ele>315</ele>
        <time>2022-09-05T10:07:14.000Z</time>
      </trkpt>
      <trkpt lat="49.80682" lon="4.87588">
        <ele>316</ele>
        <time>2022-09-05T10:07:15.000Z</time>
      </trkpt>
      <trkpt lat="49.80682" lon="4.87591">
        <ele>316</ele>
        <time>2022-09-05T10:07:16.000Z</time>
      </trkpt>
      <trkpt lat="49.80682" lon="4.87595">
        <ele>316</ele>
        <time>2022-09-05T10:07:17.000Z</time>
      </trkpt>
      <trkpt lat="49.80682" lon="4.87599">
        <ele>317</ele>
        <time>2022-09-05T10:07:18.000Z</time>
      </trkpt>
      <trkpt lat="49.80682" lon="4.87603">
        <ele>317</ele>
        <time>2022-09-05T10:07:19.000Z</time>
      </trkpt>
      <trkpt lat="49.80682" lon="4.87606">
        <ele>318</ele>
        <time>2022-09-05T10:07:20.000Z</time>
      </trkpt>
      <trkpt lat="49.80683" lon="4.87609">
        <ele>318</ele>
        <time>2022-09-05T10:07:21.000Z</time>
      </trkpt>
      <trkpt lat="49.80684" lon="4.87612">
        <ele>319</ele>
        <time>2022-09-05T10:07:22.000Z</time>
      </trkpt>
      <trkpt lat="49.80684" lon="4.87616">
        <ele>319</ele>
        <time>2022-09-05T10:07:23.000Z</time>
      </trkpt>
      <trkpt lat="49.80686" lon="4.8762">
        <ele>320</ele>
        <time>2022-09-05T10:07:24.000Z</time>
      </trkpt>
      <trkpt lat="49.80687" lon="4.87624">
        <ele>320</ele>
        <time>2022-09-05T10:07:25.000Z</time>
      </trkpt>
      <trkpt lat="49.80688" lon="4.87628">
        <ele>321</ele>
        <time>2022-09-05T10:07:26.000Z</time>
      </trkpt>
      <trkpt lat="49.80689" lon="4.87632">
        <ele>321</ele>
        <time>2022-09-05T10:07:27.000Z</time>
      </trkpt>
      <trkpt lat="49.80691" lon="4.87636">
        <ele>322</ele>
        <time>2022-09-05T10:07:28.000Z</time>
      </trkpt>
      <trkpt lat="49.80692" lon="4.87639">
        <ele>322</ele>
        <time>2022-09-05T10:07:29.000Z</time>
      </trkpt>
      <trkpt lat="49.80694" lon="4.87642">
        <ele>322</ele>
        <time>2022-09-05T10:07:30.000Z</time>
      </trkpt>
      <trkpt lat="49.80696" lon="4.87646">
        <ele>323</ele>
        <time>2022-09-05T10:07:31.000Z</time>
      </trkpt>
      <trkpt lat="49.80698" lon="4.87649">
        <ele>323</ele>
        <time>2022-09-05T10:07:32.000Z</time>
      </trkpt>
      <trkpt lat="49.80699" lon="4.87653">
        <ele>324</ele>
        <time>2022-09-05T10:07:33.000Z</time>
      </trkpt>
      <trkpt lat="49.80701" lon="4.87656">
        <ele>324</ele>
        <time>2022-09-05T10:07:34.000Z</time>
      </trkpt>
      <trkpt lat="49.80703" lon="4.87659">
        <ele>325</ele>
        <time>2022-09-05T10:07:35.000Z</time>
      </trkpt>
      <trkpt lat="49.80705" lon="4.87662">
        <ele>325</ele>
        <time>2022-09-05T10:07:36.000Z</time>
      </trkpt>
      <trkpt lat="49.80707" lon="4.87665">
        <ele>326</ele>
        <time>2022-09-05T10:07:37.000Z</time>
      </trkpt>
      <trkpt lat="49.80708" lon="4.87668">
        <ele>326</ele>
        <time>2022-09-05T10:07:38.000Z</time>
      </trkpt>
      <trkpt lat="49.8071" lon="4.87671">
        <ele>327</ele>
        <time>2022-09-05T10:07:39.000Z</time>
      </trkpt>
      <trkpt lat="49.80711" lon="4.87674">
        <ele>327</ele>
        <time>2022-09-05T10:07:40.000Z</time>
      </trkpt>
      <trkpt lat="49.80713" lon="4.87676">
        <ele>328</ele>
        <time>2022-09-05T10:07:41.000Z</time>
      </trkpt>
      <trkpt lat="49.80716" lon="4.87678">
        <ele>328</ele>
        <time>2022-09-05T10:07:42.000Z</time>
      </trkpt>
      <trkpt lat="49.80717" lon="4.8768">
        <ele>328</ele>
        <time>2022-09-05T10:07:43.000Z</time>
      </trkpt>
      <trkpt lat="49.80719" lon="4.87683">
        <ele>329</ele>
        <time>2022-09-05T10:07:44.000Z</time>
      </trkpt>
      <trkpt lat="49.80721" lon="4.87686">
        <ele>329</ele>
        <time>2022-09-05T10:07:45.000Z</time>
      </trkpt>
      <trkpt lat="49.80723" lon="4.87688">
        <ele>330</ele>
        <time>2022-09-05T10:07:46.000Z</time>
      </trkpt>
      <trkpt lat="49.80725" lon="4.87691">
        <ele>330</ele>
        <time>2022-09-05T10:07:47.000Z</time>
      </trkpt>
      <trkpt lat="49.80726" lon="4.87693">
        <ele>330</ele>
        <time>2022-09-05T10:07:48.000Z</time>
      </trkpt>
      <trkpt lat="49.80728" lon="4.87696">
        <ele>331</ele>
        <time>2022-09-05T10:07:49.000Z</time>
      </trkpt>
      <trkpt lat="49.80729" lon="4.87699">
        <ele>331</ele>
        <time>2022-09-05T10:07:50.000Z</time>
      </trkpt>
      <trkpt lat="49.8073" lon="4.87702">
        <ele>331</ele>
        <time>2022-09-05T10:07:51.000Z</time>
      </trkpt>
      <trkpt lat="49.80731" lon="4.87705">
        <ele>331</ele>
        <time>2022-09-05T10:07:52.000Z</time>
      </trkpt>
      <trkpt lat="49.80733" lon="4.87708">
        <ele>332</ele>
        <time>2022-09-05T10:07:53.000Z</time>
      </trkpt>
      <trkpt lat="49.80734" lon="4.87711">
        <ele>332</ele>
        <time>2022-09-05T10:07:54.000Z</time>
      </trkpt>
      <trkpt lat="49.80735" lon="4.87713">
        <ele>332</ele>
        <time>2022-09-05T10:07:55.000Z</time>
      </trkpt>
      <trkpt lat="49.80735" lon="4.87716">
        <ele>332</ele>
        <time>2022-09-05T10:07:56.000Z</time>
      </trkpt>
      <trkpt lat="49.80736" lon="4.87719">
        <ele>333</ele>
        <time>2022-09-05T10:07:57.000Z</time>
      </trkpt>
      <trkpt lat="49.80736" lon="4.87723">
        <ele>333</ele>
        <time>2022-09-05T10:07:58.000Z</time>
      </trkpt>
      <trkpt lat="49.80737" lon="4.87727">
        <ele>333</ele>
        <time>2022-09-05T10:07:59.000Z</time>
      </trkpt>
      <trkpt lat="49.80737" lon="4.87731">
        <ele>333</ele>
        <time>2022-09-05T10:08:00.000Z</time>
      </trkpt>
      <trkpt lat="49.80737" lon="4.87735">
        <ele>334</ele>
        <time>2022-09-05T10:08:01.000Z</time>
      </trkpt>
      <trkpt lat="49.80736" lon="4.87738">
        <ele>334</ele>
        <time>2022-09-05T10:08:02.000Z</time>
      </trkpt>
      <trkpt lat="49.80736" lon="4.87741">
        <ele>334</ele>
        <time>2022-09-05T10:08:03.000Z</time>
      </trkpt>
      <trkpt lat="49.80736" lon="4.87745">
        <ele>334</ele>
        <time>2022-09-05T10:08:04.000Z</time>
      </trkpt>
      <trkpt lat="49.80735" lon="4.87748">
        <ele>335</ele>
        <time>2022-09-05T10:08:05.000Z</time>
      </trkpt>
      <trkpt lat="49.80735" lon="4.87752">
        <ele>335</ele>
        <time>2022-09-05T10:08:06.000Z</time>
      </trkpt>
      <trkpt lat="49.80734" lon="4.87755">
        <ele>335</ele>
        <time>2022-09-05T10:08:07.000Z</time>
      </trkpt>
      <trkpt lat="49.80734" lon="4.87759">
        <ele>336</ele>
        <time>2022-09-05T10:08:08.000Z</time>
      </trkpt>
      <trkpt lat="49.80734" lon="4.87762">
        <ele>336</ele>
        <time>2022-09-05T10:08:09.000Z</time>
      </trkpt>
      <trkpt lat="49.80734" lon="4.87765">
        <ele>336</ele>
        <time>2022-09-05T10:08:10.000Z</time>
      </trkpt>
      <trkpt lat="49.80735" lon="4.87769">
        <ele>336</ele>
        <time>2022-09-05T10:08:11.000Z</time>
      </trkpt>
      <trkpt lat="49.80735" lon="4.87772">
        <ele>336</ele>
        <time>2022-09-05T10:08:12.000Z</time>
      </trkpt>
      <trkpt lat="49.80735" lon="4.87775">
        <ele>337</ele>
        <time>2022-09-05T10:08:13.000Z</time>
      </trkpt>
      <trkpt lat="49.80735" lon="4.87779">
        <ele>337</ele>
        <time>2022-09-05T10:08:14.000Z</time>
      </trkpt>
      <trkpt lat="49.80735" lon="4.87782">
        <ele>337</ele>
        <time>2022-09-05T10:08:15.000Z</time>
      </trkpt>
      <trkpt lat="49.80735" lon="4.87786">
        <ele>337</ele>
        <time>2022-09-05T10:08:16.000Z</time>
      </trkpt>
      <trkpt lat="49.80735" lon="4.87789">
        <ele>337</ele>
        <time>2022-09-05T10:08:17.000Z</time>
      </trkpt>
      <trkpt lat="49.80735" lon="4.87793">
        <ele>337</ele>
        <time>2022-09-05T10:08:18.000Z</time>
      </trkpt>
      <trkpt lat="49.80735" lon="4.87796">
        <ele>338</ele>
        <time>2022-09-05T10:08:19.000Z</time>
      </trkpt>
      <trkpt lat="49.80734" lon="4.878">
        <ele>338</ele>
        <time>2022-09-05T10:08:20.000Z</time>
      </trkpt>
      <trkpt lat="49.80734" lon="4.87803">
        <ele>338</ele>
        <time>2022-09-05T10:08:21.000Z</time>
      </trkpt>
      <trkpt lat="49.80733" lon="4.87807">
        <ele>338</ele>
        <time>2022-09-05T10:08:22.000Z</time>
      </trkpt>
      <trkpt lat="49.80732" lon="4.8781">
        <ele>339</ele>
        <time>2022-09-05T10:08:23.000Z</time>
      </trkpt>
      <trkpt lat="49.80732" lon="4.87813">
        <ele>339</ele>
        <time>2022-09-05T10:08:24.000Z</time>
      </trkpt>
      <trkpt lat="49.80731" lon="4.87817">
        <ele>339</ele>
        <time>2022-09-05T10:08:25.000Z</time>
      </trkpt>
      <trkpt lat="49.80731" lon="4.87821">
        <ele>339</ele>
        <time>2022-09-05T10:08:26.000Z</time>
      </trkpt>
      <trkpt lat="49.8073" lon="4.87824">
        <ele>339</ele>
        <time>2022-09-05T10:08:27.000Z</time>
      </trkpt>
      <trkpt lat="49.80729" lon="4.87827">
        <ele>339</ele>
        <time>2022-09-05T10:08:28.000Z</time>
      </trkpt>
      <trkpt lat="49.80728" lon="4.8783">
        <ele>340</ele>
        <time>2022-09-05T10:08:29.000Z</time>
      </trkpt>
      <trkpt lat="49.80728" lon="4.87833">
        <ele>340</ele>
        <time>2022-09-05T10:08:30.000Z</time>
      </trkpt>
      <trkpt lat="49.80728" lon="4.87836">
        <ele>340</ele>
        <time>2022-09-05T10:08:31.000Z</time>
      </trkpt>
      <trkpt lat="49.80727" lon="4.8784">
        <ele>340</ele>
        <time>2022-09-05T10:08:32.000Z</time>
      </trkpt>
      <trkpt lat="49.80727" lon="4.87843">
        <ele>340</ele>
        <time>2022-09-05T10:08:33.000Z</time>
      </trkpt>
      <trkpt lat="49.80727" lon="4.87848">
        <ele>341</ele>
        <time>2022-09-05T10:08:34.000Z</time>
      </trkpt>
      <trkpt lat="49.80727" lon="4.87851">
        <ele>341</ele>
        <time>2022-09-05T10:08:35.000Z</time>
      </trkpt>
      <trkpt lat="49.80727" lon="4.87855">
        <ele>341</ele>
        <time>2022-09-05T10:08:36.000Z</time>
      </trkpt>
      <trkpt lat="49.80727" lon="4.8786">
        <ele>341</ele>
        <time>2022-09-05T10:08:37.000Z</time>
      </trkpt>
      <trkpt lat="49.80728" lon="4.87863">
        <ele>341</ele>
        <time>2022-09-05T10:08:38.000Z</time>
      </trkpt>
      <trkpt lat="49.80728" lon="4.87867">
        <ele>341</ele>
        <time>2022-09-05T10:08:39.000Z</time>
      </trkpt>
      <trkpt lat="49.80728" lon="4.87871">
        <ele>341</ele>
        <time>2022-09-05T10:08:40.000Z</time>
      </trkpt>
      <trkpt lat="49.80729" lon="4.87875">
        <ele>342</ele>
        <time>2022-09-05T10:08:41.000Z</time>
      </trkpt>
      <trkpt lat="49.80729" lon="4.87879">
        <ele>342</ele>
        <time>2022-09-05T10:08:42.000Z</time>
      </trkpt>
      <trkpt lat="49.8073" lon="4.87883">
        <ele>341</ele>
        <time>2022-09-05T10:08:43.000Z</time>
      </trkpt>
      <trkpt lat="49.8073" lon="4.87887">
        <ele>342</ele>
        <time>2022-09-05T10:08:44.000Z</time>
      </trkpt>
      <trkpt lat="49.8073" lon="4.87891">
        <ele>342</ele>
        <time>2022-09-05T10:08:45.000Z</time>
      </trkpt>
      <trkpt lat="49.8073" lon="4.87894">
        <ele>342</ele>
        <time>2022-09-05T10:08:46.000Z</time>
      </trkpt>
      <trkpt lat="49.8073" lon="4.87897">
        <ele>342</ele>
        <time>2022-09-05T10:08:47.000Z</time>
      </trkpt>
      <trkpt lat="49.8073" lon="4.87901">
        <ele>342</ele>
        <time>2022-09-05T10:08:48.000Z</time>
      </trkpt>
      <trkpt lat="49.80731" lon="4.87904">
        <ele>342</ele>
        <time>2022-09-05T10:08:49.000Z</time>
      </trkpt>
      <trkpt lat="49.80731" lon="4.87907">
        <ele>342</ele>
        <time>2022-09-05T10:08:50.000Z</time>
      </trkpt>
      <trkpt lat="49.80732" lon="4.8791">
        <ele>342</ele>
        <time>2022-09-05T10:08:51.000Z</time>
      </trkpt>
      <trkpt lat="49.80733" lon="4.87914">
        <ele>343</ele>
        <time>2022-09-05T10:08:52.000Z</time>
      </trkpt>
      <trkpt lat="49.80734" lon="4.87917">
        <ele>343</ele>
        <time>2022-09-05T10:08:53.000Z</time>
      </trkpt>
      <trkpt lat="49.80735" lon="4.8792">
        <ele>343</ele>
        <time>2022-09-05T10:08:54.000Z</time>
      </trkpt>
      <trkpt lat="49.80736" lon="4.87922">
        <ele>343</ele>
        <time>2022-09-05T10:08:55.000Z</time>
      </trkpt>
      <trkpt lat="49.80736" lon="4.87925">
        <ele>343</ele>
        <time>2022-09-05T10:08:56.000Z</time>
      </trkpt>
      <trkpt lat="49.80737" lon="4.87928">
        <ele>344</ele>
        <time>2022-09-05T10:08:57.000Z</time>
      </trkpt>
      <trkpt lat="49.80737" lon="4.87931">
        <ele>344</ele>
        <time>2022-09-05T10:08:58.000Z</time>
      </trkpt>
      <trkpt lat="49.80738" lon="4.87935">
        <ele>344</ele>
        <time>2022-09-05T10:08:59.000Z</time>
      </trkpt>
      <trkpt lat="49.80738" lon="4.87939">
        <ele>344</ele>
        <time>2022-09-05T10:09:00.000Z</time>
      </trkpt>
      <trkpt lat="49.80739" lon="4.87943">
        <ele>345</ele>
        <time>2022-09-05T10:09:01.000Z</time>
      </trkpt>
      <trkpt lat="49.80739" lon="4.87947">
        <ele>345</ele>
        <time>2022-09-05T10:09:02.000Z</time>
      </trkpt>
      <trkpt lat="49.8074" lon="4.8795">
        <ele>345</ele>
        <time>2022-09-05T10:09:03.000Z</time>
      </trkpt>
      <trkpt lat="49.80741" lon="4.87954">
        <ele>346</ele>
        <time>2022-09-05T10:09:04.000Z</time>
      </trkpt>
      <trkpt lat="49.80741" lon="4.87958">
        <ele>346</ele>
        <time>2022-09-05T10:09:05.000Z</time>
      </trkpt>
      <trkpt lat="49.80742" lon="4.87962">
        <ele>347</ele>
        <time>2022-09-05T10:09:06.000Z</time>
      </trkpt>
      <trkpt lat="49.80742" lon="4.87965">
        <ele>347</ele>
        <time>2022-09-05T10:09:07.000Z</time>
      </trkpt>
      <trkpt lat="49.80742" lon="4.87969">
        <ele>347</ele>
        <time>2022-09-05T10:09:08.000Z</time>
      </trkpt>
      <trkpt lat="49.80743" lon="4.87972">
        <ele>348</ele>
        <time>2022-09-05T10:09:09.000Z</time>
      </trkpt>
      <trkpt lat="49.80743" lon="4.87976">
        <ele>348</ele>
        <time>2022-09-05T10:09:10.000Z</time>
      </trkpt>
      <trkpt lat="49.80744" lon="4.87979">
        <ele>348</ele>
        <time>2022-09-05T10:09:11.000Z</time>
      </trkpt>
      <trkpt lat="49.80744" lon="4.87983">
        <ele>349</ele>
        <time>2022-09-05T10:09:12.000Z</time>
      </trkpt>
      <trkpt lat="49.80745" lon="4.87987">
        <ele>349</ele>
        <time>2022-09-05T10:09:13.000Z</time>
      </trkpt>
      <trkpt lat="49.80745" lon="4.87991">
        <ele>349</ele>
        <time>2022-09-05T10:09:14.000Z</time>
      </trkpt>
      <trkpt lat="49.80745" lon="4.87994">
        <ele>350</ele>
        <time>2022-09-05T10:09:15.000Z</time>
      </trkpt>
      <trkpt lat="49.80746" lon="4.87998">
        <ele>350</ele>
        <time>2022-09-05T10:09:16.000Z</time>
      </trkpt>
      <trkpt lat="49.80746" lon="4.88002">
        <ele>350</ele>
        <time>2022-09-05T10:09:17.000Z</time>
      </trkpt>
      <trkpt lat="49.80747" lon="4.88005">
        <ele>351</ele>
        <time>2022-09-05T10:09:18.000Z</time>
      </trkpt>
      <trkpt lat="49.80747" lon="4.88009">
        <ele>351</ele>
        <time>2022-09-05T10:09:19.000Z</time>
      </trkpt>
      <trkpt lat="49.80747" lon="4.88013">
        <ele>351</ele>
        <time>2022-09-05T10:09:20.000Z</time>
      </trkpt>
      <trkpt lat="49.80747" lon="4.88016">
        <ele>351</ele>
        <time>2022-09-05T10:09:21.000Z</time>
      </trkpt>
      <trkpt lat="49.80748" lon="4.88019">
        <ele>352</ele>
        <time>2022-09-05T10:09:22.000Z</time>
      </trkpt>
      <trkpt lat="49.80748" lon="4.88023">
        <ele>352</ele>
        <time>2022-09-05T10:09:23.000Z</time>
      </trkpt>
      <trkpt lat="49.80748" lon="4.88027">
        <ele>352</ele>
        <time>2022-09-05T10:09:24.000Z</time>
      </trkpt>
      <trkpt lat="49.80749" lon="4.8803">
        <ele>352</ele>
        <time>2022-09-05T10:09:25.000Z</time>
      </trkpt>
      <trkpt lat="49.80749" lon="4.88033">
        <ele>352</ele>
        <time>2022-09-05T10:09:26.000Z</time>
      </trkpt>
      <trkpt lat="49.8075" lon="4.88035">
        <ele>352</ele>
        <time>2022-09-05T10:09:27.000Z</time>
      </trkpt>
      <trkpt lat="49.80751" lon="4.88038">
        <ele>353</ele>
        <time>2022-09-05T10:09:28.000Z</time>
      </trkpt>
      <trkpt lat="49.80751" lon="4.88042">
        <ele>353</ele>
        <time>2022-09-05T10:09:29.000Z</time>
      </trkpt>
      <trkpt lat="49.80752" lon="4.88045">
        <ele>353</ele>
        <time>2022-09-05T10:09:30.000Z</time>
      </trkpt>
      <trkpt lat="49.80753" lon="4.88048">
        <ele>353</ele>
        <time>2022-09-05T10:09:31.000Z</time>
      </trkpt>
      <trkpt lat="49.80753" lon="4.88052">
        <ele>353</ele>
        <time>2022-09-05T10:09:32.000Z</time>
      </trkpt>
      <trkpt lat="49.80754" lon="4.88055">
        <ele>353</ele>
        <time>2022-09-05T10:09:33.000Z</time>
      </trkpt>
      <trkpt lat="49.80755" lon="4.88059">
        <ele>353</ele>
        <time>2022-09-05T10:09:34.000Z</time>
      </trkpt>
      <trkpt lat="49.80755" lon="4.88062">
        <ele>353</ele>
        <time>2022-09-05T10:09:35.000Z</time>
      </trkpt>
      <trkpt lat="49.80755" lon="4.88065">
        <ele>353</ele>
        <time>2022-09-05T10:09:36.000Z</time>
      </trkpt>
      <trkpt lat="49.80755" lon="4.88068">
        <ele>353</ele>
        <time>2022-09-05T10:09:37.000Z</time>
      </trkpt>
      <trkpt lat="49.80755" lon="4.88072">
        <ele>353</ele>
        <time>2022-09-05T10:09:38.000Z</time>
      </trkpt>
      <trkpt lat="49.80755" lon="4.88075">
        <ele>354</ele>
        <time>2022-09-05T10:09:39.000Z</time>
      </trkpt>
      <trkpt lat="49.80756" lon="4.88079">
        <ele>354</ele>
        <time>2022-09-05T10:09:40.000Z</time>
      </trkpt>
      <trkpt lat="49.80756" lon="4.88083">
        <ele>354</ele>
        <time>2022-09-05T10:09:41.000Z</time>
      </trkpt>
      <trkpt lat="49.80757" lon="4.88086">
        <ele>354</ele>
        <time>2022-09-05T10:09:42.000Z</time>
      </trkpt>
      <trkpt lat="49.80757" lon="4.8809">
        <ele>354</ele>
        <time>2022-09-05T10:09:43.000Z</time>
      </trkpt>
      <trkpt lat="49.80758" lon="4.88093">
        <ele>354</ele>
        <time>2022-09-05T10:09:44.000Z</time>
      </trkpt>
      <trkpt lat="49.80758" lon="4.88097">
        <ele>354</ele>
        <time>2022-09-05T10:09:45.000Z</time>
      </trkpt>
      <trkpt lat="49.80758" lon="4.88101">
        <ele>354</ele>
        <time>2022-09-05T10:09:46.000Z</time>
      </trkpt>
      <trkpt lat="49.80759" lon="4.88104">
        <ele>354</ele>
        <time>2022-09-05T10:09:47.000Z</time>
      </trkpt>
      <trkpt lat="49.80758" lon="4.88108">
        <ele>354</ele>
        <time>2022-09-05T10:09:48.000Z</time>
      </trkpt>
      <trkpt lat="49.80758" lon="4.88112">
        <ele>354</ele>
        <time>2022-09-05T10:09:49.000Z</time>
      </trkpt>
      <trkpt lat="49.80758" lon="4.88115">
        <ele>354</ele>
        <time>2022-09-05T10:09:50.000Z</time>
      </trkpt>
      <trkpt lat="49.80757" lon="4.88119">
        <ele>355</ele>
        <time>2022-09-05T10:09:51.000Z</time>
      </trkpt>
      <trkpt lat="49.80757" lon="4.88123">
        <ele>355</ele>
        <time>2022-09-05T10:09:52.000Z</time>
      </trkpt>
      <trkpt lat="49.80757" lon="4.88126">
        <ele>355</ele>
        <time>2022-09-05T10:09:53.000Z</time>
      </trkpt>
      <trkpt lat="49.80757" lon="4.88129">
        <ele>355</ele>
        <time>2022-09-05T10:09:54.000Z</time>
      </trkpt>
      <trkpt lat="49.80756" lon="4.88133">
        <ele>355</ele>
        <time>2022-09-05T10:09:55.000Z</time>
      </trkpt>
      <trkpt lat="49.80756" lon="4.88136">
        <ele>356</ele>
        <time>2022-09-05T10:09:56.000Z</time>
      </trkpt>
      <trkpt lat="49.80756" lon="4.88139">
        <ele>356</ele>
        <time>2022-09-05T10:09:57.000Z</time>
      </trkpt>
      <trkpt lat="49.80755" lon="4.88143">
        <ele>356</ele>
        <time>2022-09-05T10:09:58.000Z</time>
      </trkpt>
      <trkpt lat="49.80755" lon="4.88147">
        <ele>356</ele>
        <time>2022-09-05T10:09:59.000Z</time>
      </trkpt>
      <trkpt lat="49.80755" lon="4.8815">
        <ele>356</ele>
        <time>2022-09-05T10:10:00.000Z</time>
      </trkpt>
      <trkpt lat="49.80754" lon="4.88154">
        <ele>356</ele>
        <time>2022-09-05T10:10:01.000Z</time>
      </trkpt>
      <trkpt lat="49.80754" lon="4.88158">
        <ele>357</ele>
        <time>2022-09-05T10:10:02.000Z</time>
      </trkpt>
      <trkpt lat="49.80754" lon="4.88162">
        <ele>357</ele>
        <time>2022-09-05T10:10:03.000Z</time>
      </trkpt>
      <trkpt lat="49.80753" lon="4.88166">
        <ele>357</ele>
        <time>2022-09-05T10:10:04.000Z</time>
      </trkpt>
      <trkpt lat="49.80753" lon="4.88169">
        <ele>357</ele>
        <time>2022-09-05T10:10:05.000Z</time>
      </trkpt>
      <trkpt lat="49.80753" lon="4.88173">
        <ele>357</ele>
        <time>2022-09-05T10:10:06.000Z</time>
      </trkpt>
      <trkpt lat="49.80753" lon="4.88177">
        <ele>358</ele>
        <time>2022-09-05T10:10:07.000Z</time>
      </trkpt>
      <trkpt lat="49.80753" lon="4.88181">
        <ele>358</ele>
        <time>2022-09-05T10:10:08.000Z</time>
      </trkpt>
      <trkpt lat="49.80752" lon="4.88184">
        <ele>358</ele>
        <time>2022-09-05T10:10:09.000Z</time>
      </trkpt>
      <trkpt lat="49.80752" lon="4.88188">
        <ele>358</ele>
        <time>2022-09-05T10:10:10.000Z</time>
      </trkpt>
      <trkpt lat="49.80752" lon="4.88192">
        <ele>358</ele>
        <time>2022-09-05T10:10:11.000Z</time>
      </trkpt>
      <trkpt lat="49.80752" lon="4.88196">
        <ele>359</ele>
        <time>2022-09-05T10:10:12.000Z</time>
      </trkpt>
      <trkpt lat="49.80751" lon="4.882">
        <ele>359</ele>
        <time>2022-09-05T10:10:13.000Z</time>
      </trkpt>
      <trkpt lat="49.80751" lon="4.88203">
        <ele>359</ele>
        <time>2022-09-05T10:10:14.000Z</time>
      </trkpt>
      <trkpt lat="49.80751" lon="4.88207">
        <ele>359</ele>
        <time>2022-09-05T10:10:15.000Z</time>
      </trkpt>
      <trkpt lat="49.80752" lon="4.8821">
        <ele>359</ele>
        <time>2022-09-05T10:10:16.000Z</time>
      </trkpt>
      <trkpt lat="49.80752" lon="4.88214">
        <ele>359</ele>
        <time>2022-09-05T10:10:17.000Z</time>
      </trkpt>
      <trkpt lat="49.80752" lon="4.88218">
        <ele>359</ele>
        <time>2022-09-05T10:10:18.000Z</time>
      </trkpt>
      <trkpt lat="49.80753" lon="4.88221">
        <ele>359</ele>
        <time>2022-09-05T10:10:19.000Z</time>
      </trkpt>
      <trkpt lat="49.80753" lon="4.88224">
        <ele>359</ele>
        <time>2022-09-05T10:10:20.000Z</time>
      </trkpt>
      <trkpt lat="49.80754" lon="4.88228">
        <ele>359</ele>
        <time>2022-09-05T10:10:21.000Z</time>
      </trkpt>
      <trkpt lat="49.80755" lon="4.88231">
        <ele>359</ele>
        <time>2022-09-05T10:10:22.000Z</time>
      </trkpt>
      <trkpt lat="49.80756" lon="4.88234">
        <ele>359</ele>
        <time>2022-09-05T10:10:23.000Z</time>
      </trkpt>
      <trkpt lat="49.80757" lon="4.88237">
        <ele>359</ele>
        <time>2022-09-05T10:10:24.000Z</time>
      </trkpt>
      <trkpt lat="49.80759" lon="4.8824">
        <ele>359</ele>
        <time>2022-09-05T10:10:25.000Z</time>
      </trkpt>
      <trkpt lat="49.8076" lon="4.88243">
        <ele>359</ele>
        <time>2022-09-05T10:10:26.000Z</time>
      </trkpt>
      <trkpt lat="49.80761" lon="4.88246">
        <ele>359</ele>
        <time>2022-09-05T10:10:27.000Z</time>
      </trkpt>
      <trkpt lat="49.80762" lon="4.88249">
        <ele>359</ele>
        <time>2022-09-05T10:10:28.000Z</time>
      </trkpt>
      <trkpt lat="49.80763" lon="4.88252">
        <ele>359</ele>
        <time>2022-09-05T10:10:29.000Z</time>
      </trkpt>
      <trkpt lat="49.80764" lon="4.88256">
        <ele>359</ele>
        <time>2022-09-05T10:10:30.000Z</time>
      </trkpt>
      <trkpt lat="49.80765" lon="4.88258">
        <ele>359</ele>
        <time>2022-09-05T10:10:31.000Z</time>
      </trkpt>
      <trkpt lat="49.80766" lon="4.88261">
        <ele>359</ele>
        <time>2022-09-05T10:10:32.000Z</time>
      </trkpt>
      <trkpt lat="49.80768" lon="4.88263">
        <ele>359</ele>
        <time>2022-09-05T10:10:33.000Z</time>
      </trkpt>
      <trkpt lat="49.8077" lon="4.88266">
        <ele>359</ele>
        <time>2022-09-05T10:10:34.000Z</time>
      </trkpt>
      <trkpt lat="49.80771" lon="4.88269">
        <ele>359</ele>
        <time>2022-09-05T10:10:35.000Z</time>
      </trkpt>
      <trkpt lat="49.80773" lon="4.88271">
        <ele>359</ele>
        <time>2022-09-05T10:10:36.000Z</time>
      </trkpt>
      <trkpt lat="49.80775" lon="4.88274">
        <ele>359</ele>
        <time>2022-09-05T10:10:37.000Z</time>
      </trkpt>
      <trkpt lat="49.80777" lon="4.88277">
        <ele>359</ele>
        <time>2022-09-05T10:10:38.000Z</time>
      </trkpt>
      <trkpt lat="49.80779" lon="4.8828">
        <ele>359</ele>
        <time>2022-09-05T10:10:39.000Z</time>
      </trkpt>
      <trkpt lat="49.80781" lon="4.88283">
        <ele>359</ele>
        <time>2022-09-05T10:10:40.000Z</time>
      </trkpt>
      <trkpt lat="49.80782" lon="4.88286">
        <ele>359</ele>
        <time>2022-09-05T10:10:41.000Z</time>
      </trkpt>
      <trkpt lat="49.80784" lon="4.88288">
        <ele>359</ele>
        <time>2022-09-05T10:10:42.000Z</time>
      </trkpt>
      <trkpt lat="49.80786" lon="4.88291">
        <ele>359</ele>
        <time>2022-09-05T10:10:43.000Z</time>
      </trkpt>
      <trkpt lat="49.80788" lon="4.88293">
        <ele>359</ele>
        <time>2022-09-05T10:10:44.000Z</time>
      </trkpt>
      <trkpt lat="49.8079" lon="4.88296">
        <ele>360</ele>
        <time>2022-09-05T10:10:45.000Z</time>
      </trkpt>
      <trkpt lat="49.80791" lon="4.88298">
        <ele>360</ele>
        <time>2022-09-05T10:10:46.000Z</time>
      </trkpt>
      <trkpt lat="49.80793" lon="4.88301">
        <ele>360</ele>
        <time>2022-09-05T10:10:47.000Z</time>
      </trkpt>
      <trkpt lat="49.80795" lon="4.88304">
        <ele>360</ele>
        <time>2022-09-05T10:10:48.000Z</time>
      </trkpt>
      <trkpt lat="49.80797" lon="4.88306">
        <ele>360</ele>
        <time>2022-09-05T10:10:49.000Z</time>
      </trkpt>
      <trkpt lat="49.80799" lon="4.88309">
        <ele>361</ele>
        <time>2022-09-05T10:10:50.000Z</time>
      </trkpt>
      <trkpt lat="49.80801" lon="4.88311">
        <ele>361</ele>
        <time>2022-09-05T10:10:51.000Z</time>
      </trkpt>
      <trkpt lat="49.80803" lon="4.88313">
        <ele>361</ele>
        <time>2022-09-05T10:10:52.000Z</time>
      </trkpt>
      <trkpt lat="49.80806" lon="4.88316">
        <ele>362</ele>
        <time>2022-09-05T10:10:53.000Z</time>
      </trkpt>
      <trkpt lat="49.80807" lon="4.88319">
        <ele>362</ele>
        <time>2022-09-05T10:10:54.000Z</time>
      </trkpt>
      <trkpt lat="49.80809" lon="4.88323">
        <ele>362</ele>
        <time>2022-09-05T10:10:55.000Z</time>
      </trkpt>
      <trkpt lat="49.80811" lon="4.88326">
        <ele>362</ele>
        <time>2022-09-05T10:10:56.000Z</time>
      </trkpt>
      <trkpt lat="49.80813" lon="4.88329">
        <ele>363</ele>
        <time>2022-09-05T10:10:57.000Z</time>
      </trkpt>
      <trkpt lat="49.80815" lon="4.88331">
        <ele>363</ele>
        <time>2022-09-05T10:10:58.000Z</time>
      </trkpt>
      <trkpt lat="49.80817" lon="4.88334">
        <ele>363</ele>
        <time>2022-09-05T10:10:59.000Z</time>
      </trkpt>
      <trkpt lat="49.80819" lon="4.88337">
        <ele>363</ele>
        <time>2022-09-05T10:11:00.000Z</time>
      </trkpt>
      <trkpt lat="49.80821" lon="4.8834">
        <ele>364</ele>
        <time>2022-09-05T10:11:01.000Z</time>
      </trkpt>
      <trkpt lat="49.80822" lon="4.88343">
        <ele>364</ele>
        <time>2022-09-05T10:11:02.000Z</time>
      </trkpt>
      <trkpt lat="49.80824" lon="4.88345">
        <ele>364</ele>
        <time>2022-09-05T10:11:03.000Z</time>
      </trkpt>
      <trkpt lat="49.80826" lon="4.88348">
        <ele>364</ele>
        <time>2022-09-05T10:11:04.000Z</time>
      </trkpt>
      <trkpt lat="49.80828" lon="4.88351">
        <ele>364</ele>
        <time>2022-09-05T10:11:05.000Z</time>
      </trkpt>
      <trkpt lat="49.8083" lon="4.88353">
        <ele>364</ele>
        <time>2022-09-05T10:11:06.000Z</time>
      </trkpt>
      <trkpt lat="49.80832" lon="4.88356">
        <ele>364</ele>
        <time>2022-09-05T10:11:07.000Z</time>
      </trkpt>
      <trkpt lat="49.80834" lon="4.88359">
        <ele>364</ele>
        <time>2022-09-05T10:11:08.000Z</time>
      </trkpt>
      <trkpt lat="49.80837" lon="4.88361">
        <ele>365</ele>
        <time>2022-09-05T10:11:09.000Z</time>
      </trkpt>
      <trkpt lat="49.80839" lon="4.88364">
        <ele>365</ele>
        <time>2022-09-05T10:11:10.000Z</time>
      </trkpt>
      <trkpt lat="49.80841" lon="4.88367">
        <ele>365</ele>
        <time>2022-09-05T10:11:11.000Z</time>
      </trkpt>
      <trkpt lat="49.80843" lon="4.8837">
        <ele>365</ele>
        <time>2022-09-05T10:11:12.000Z</time>
      </trkpt>
      <trkpt lat="49.80845" lon="4.88373">
        <ele>365</ele>
        <time>2022-09-05T10:11:13.000Z</time>
      </trkpt>
      <trkpt lat="49.80845" lon="4.88377">
        <ele>365</ele>
        <time>2022-09-05T10:11:14.000Z</time>
      </trkpt>
      <trkpt lat="49.80845" lon="4.8838">
        <ele>365</ele>
        <time>2022-09-05T10:11:15.000Z</time>
      </trkpt>
      <trkpt lat="49.80843" lon="4.88382">
        <ele>365</ele>
        <time>2022-09-05T10:11:16.000Z</time>
      </trkpt>
      <trkpt lat="49.80841" lon="4.88383">
        <ele>365</ele>
        <time>2022-09-05T10:11:17.000Z</time>
      </trkpt>
      <trkpt lat="49.80838" lon="4.88382">
        <ele>365</ele>
        <time>2022-09-05T10:11:18.000Z</time>
      </trkpt>
      <trkpt lat="49.80836" lon="4.8838">
        <ele>365</ele>
        <time>2022-09-05T10:11:19.000Z</time>
      </trkpt>
      <trkpt lat="49.80833" lon="4.88378">
        <ele>365</ele>
        <time>2022-09-05T10:11:20.000Z</time>
      </trkpt>
      <trkpt lat="49.8083" lon="4.88377">
        <ele>365</ele>
        <time>2022-09-05T10:11:21.000Z</time>
      </trkpt>
      <trkpt lat="49.80827" lon="4.88376">
        <ele>366</ele>
        <time>2022-09-05T10:11:22.000Z</time>
      </trkpt>
      <trkpt lat="49.80824" lon="4.88374">
        <ele>366</ele>
        <time>2022-09-05T10:11:23.000Z</time>
      </trkpt>
      <trkpt lat="49.8082" lon="4.88372">
        <ele>366</ele>
        <time>2022-09-05T10:11:24.000Z</time>
      </trkpt>
      <trkpt lat="49.80817" lon="4.88371">
        <ele>366</ele>
        <time>2022-09-05T10:11:25.000Z</time>
      </trkpt>
      <trkpt lat="49.80814" lon="4.8837">
        <ele>366</ele>
        <time>2022-09-05T10:11:26.000Z</time>
      </trkpt>
      <trkpt lat="49.80811" lon="4.88368">
        <ele>366</ele>
        <time>2022-09-05T10:11:27.000Z</time>
      </trkpt>
      <trkpt lat="49.80808" lon="4.88367">
        <ele>366</ele>
        <time>2022-09-05T10:11:28.000Z</time>
      </trkpt>
      <trkpt lat="49.80804" lon="4.88367">
        <ele>366</ele>
        <time>2022-09-05T10:11:29.000Z</time>
      </trkpt>
      <trkpt lat="49.80801" lon="4.88365">
        <ele>366</ele>
        <time>2022-09-05T10:11:30.000Z</time>
      </trkpt>
      <trkpt lat="49.80798" lon="4.88364">
        <ele>366</ele>
        <time>2022-09-05T10:11:31.000Z</time>
      </trkpt>
      <trkpt lat="49.80794" lon="4.88363">
        <ele>366</ele>
        <time>2022-09-05T10:11:32.000Z</time>
      </trkpt>
      <trkpt lat="49.8079" lon="4.88361">
        <ele>366</ele>
        <time>2022-09-05T10:11:33.000Z</time>
      </trkpt>
      <trkpt lat="49.80786" lon="4.8836">
        <ele>366</ele>
        <time>2022-09-05T10:11:34.000Z</time>
      </trkpt>
      <trkpt lat="49.80782" lon="4.88358">
        <ele>366</ele>
        <time>2022-09-05T10:11:35.000Z</time>
      </trkpt>
      <trkpt lat="49.80778" lon="4.88357">
        <ele>366</ele>
        <time>2022-09-05T10:11:36.000Z</time>
      </trkpt>
      <trkpt lat="49.80775" lon="4.88356">
        <ele>366</ele>
        <time>2022-09-05T10:11:37.000Z</time>
      </trkpt>
      <trkpt lat="49.80771" lon="4.88355">
        <ele>366</ele>
        <time>2022-09-05T10:11:38.000Z</time>
      </trkpt>
      <trkpt lat="49.80767" lon="4.88354">
        <ele>365</ele>
        <time>2022-09-05T10:11:39.000Z</time>
      </trkpt>
      <trkpt lat="49.80762" lon="4.88353">
        <ele>365</ele>
        <time>2022-09-05T10:11:40.000Z</time>
      </trkpt>
      <trkpt lat="49.80757" lon="4.88351">
        <ele>365</ele>
        <time>2022-09-05T10:11:41.000Z</time>
      </trkpt>
      <trkpt lat="49.80752" lon="4.88349">
        <ele>365</ele>
        <time>2022-09-05T10:11:42.000Z</time>
      </trkpt>
      <trkpt lat="49.80748" lon="4.88348">
        <ele>365</ele>
        <time>2022-09-05T10:11:43.000Z</time>
      </trkpt>
      <trkpt lat="49.80743" lon="4.88347">
        <ele>365</ele>
        <time>2022-09-05T10:11:44.000Z</time>
      </trkpt>
      <trkpt lat="49.80739" lon="4.88345">
        <ele>364</ele>
        <time>2022-09-05T10:11:45.000Z</time>
      </trkpt>
      <trkpt lat="49.80734" lon="4.88344">
        <ele>364</ele>
        <time>2022-09-05T10:11:46.000Z</time>
      </trkpt>
      <trkpt lat="49.80729" lon="4.88342">
        <ele>364</ele>
        <time>2022-09-05T10:11:47.000Z</time>
      </trkpt>
      <trkpt lat="49.80725" lon="4.8834">
        <ele>364</ele>
        <time>2022-09-05T10:11:48.000Z</time>
      </trkpt>
      <trkpt lat="49.80722" lon="4.88338">
        <ele>364</ele>
        <time>2022-09-05T10:11:49.000Z</time>
      </trkpt>
      <trkpt lat="49.80719" lon="4.88337">
        <ele>364</ele>
        <time>2022-09-05T10:11:50.000Z</time>
      </trkpt>
      <trkpt lat="49.80714" lon="4.88336">
        <ele>364</ele>
        <time>2022-09-05T10:11:51.000Z</time>
      </trkpt>
      <trkpt lat="49.80711" lon="4.88335">
        <ele>364</ele>
        <time>2022-09-05T10:11:52.000Z</time>
      </trkpt>
      <trkpt lat="49.80708" lon="4.88334">
        <ele>364</ele>
        <time>2022-09-05T10:11:53.000Z</time>
      </trkpt>
      <trkpt lat="49.80705" lon="4.88331">
        <ele>364</ele>
        <time>2022-09-05T10:11:54.000Z</time>
      </trkpt>
      <trkpt lat="49.80702" lon="4.88328">
        <ele>364</ele>
        <time>2022-09-05T10:11:55.000Z</time>
      </trkpt>
      <trkpt lat="49.80699" lon="4.88325">
        <ele>364</ele>
        <time>2022-09-05T10:11:56.000Z</time>
      </trkpt>
      <trkpt lat="49.80696" lon="4.88322">
        <ele>364</ele>
        <time>2022-09-05T10:11:57.000Z</time>
      </trkpt>
      <trkpt lat="49.80693" lon="4.88318">
        <ele>364</ele>
        <time>2022-09-05T10:11:58.000Z</time>
      </trkpt>
      <trkpt lat="49.8069" lon="4.88313">
        <ele>364</ele>
        <time>2022-09-05T10:11:59.000Z</time>
      </trkpt>
      <trkpt lat="49.80688" lon="4.88309">
        <ele>364</ele>
        <time>2022-09-05T10:12:00.000Z</time>
      </trkpt>
      <trkpt lat="49.80686" lon="4.88304">
        <ele>364</ele>
        <time>2022-09-05T10:12:01.000Z</time>
      </trkpt>
      <trkpt lat="49.80683" lon="4.88299">
        <ele>364</ele>
        <time>2022-09-05T10:12:02.000Z</time>
      </trkpt>
      <trkpt lat="49.80682" lon="4.88295">
        <ele>364</ele>
        <time>2022-09-05T10:12:03.000Z</time>
      </trkpt>
      <trkpt lat="49.8068" lon="4.88291">
        <ele>364</ele>
        <time>2022-09-05T10:12:04.000Z</time>
      </trkpt>
      <trkpt lat="49.80678" lon="4.88286">
        <ele>364</ele>
        <time>2022-09-05T10:12:05.000Z</time>
      </trkpt>
      <trkpt lat="49.80676" lon="4.88281">
        <ele>364</ele>
        <time>2022-09-05T10:12:06.000Z</time>
      </trkpt>
      <trkpt lat="49.80675" lon="4.88276">
        <ele>364</ele>
        <time>2022-09-05T10:12:07.000Z</time>
      </trkpt>
      <trkpt lat="49.80674" lon="4.88272">
        <ele>364</ele>
        <time>2022-09-05T10:12:08.000Z</time>
      </trkpt>
      <trkpt lat="49.80672" lon="4.88267">
        <ele>364</ele>
        <time>2022-09-05T10:12:09.000Z</time>
      </trkpt>
      <trkpt lat="49.8067" lon="4.88263">
        <ele>364</ele>
        <time>2022-09-05T10:12:10.000Z</time>
      </trkpt>
      <trkpt lat="49.80668" lon="4.88258">
        <ele>364</ele>
        <time>2022-09-05T10:12:11.000Z</time>
      </trkpt>
      <trkpt lat="49.80666" lon="4.88254">
        <ele>364</ele>
        <time>2022-09-05T10:12:12.000Z</time>
      </trkpt>
      <trkpt lat="49.80665" lon="4.8825">
        <ele>364</ele>
        <time>2022-09-05T10:12:13.000Z</time>
      </trkpt>
      <trkpt lat="49.80663" lon="4.88245">
        <ele>364</ele>
        <time>2022-09-05T10:12:14.000Z</time>
      </trkpt>
      <trkpt lat="49.80661" lon="4.88241">
        <ele>364</ele>
        <time>2022-09-05T10:12:15.000Z</time>
      </trkpt>
      <trkpt lat="49.80659" lon="4.88236">
        <ele>364</ele>
        <time>2022-09-05T10:12:16.000Z</time>
      </trkpt>
      <trkpt lat="49.80658" lon="4.8823">
        <ele>365</ele>
        <time>2022-09-05T10:12:17.000Z</time>
      </trkpt>
      <trkpt lat="49.80656" lon="4.88225">
        <ele>365</ele>
        <time>2022-09-05T10:12:18.000Z</time>
      </trkpt>
      <trkpt lat="49.80653" lon="4.88219">
        <ele>365</ele>
        <time>2022-09-05T10:12:19.000Z</time>
      </trkpt>
      <trkpt lat="49.80651" lon="4.88213">
        <ele>365</ele>
        <time>2022-09-05T10:12:20.000Z</time>
      </trkpt>
      <trkpt lat="49.80649" lon="4.88207">
        <ele>365</ele>
        <time>2022-09-05T10:12:21.000Z</time>
      </trkpt>
      <trkpt lat="49.80647" lon="4.88201">
        <ele>365</ele>
        <time>2022-09-05T10:12:22.000Z</time>
      </trkpt>
      <trkpt lat="49.80645" lon="4.88194">
        <ele>365</ele>
        <time>2022-09-05T10:12:23.000Z</time>
      </trkpt>
      <trkpt lat="49.80643" lon="4.88188">
        <ele>365</ele>
        <time>2022-09-05T10:12:24.000Z</time>
      </trkpt>
      <trkpt lat="49.8064" lon="4.88182">
        <ele>365</ele>
        <time>2022-09-05T10:12:25.000Z</time>
      </trkpt>
      <trkpt lat="49.80638" lon="4.88175">
        <ele>365</ele>
        <time>2022-09-05T10:12:26.000Z</time>
      </trkpt>
      <trkpt lat="49.80636" lon="4.88169">
        <ele>366</ele>
        <time>2022-09-05T10:12:27.000Z</time>
      </trkpt>
      <trkpt lat="49.80634" lon="4.88163">
        <ele>366</ele>
        <time>2022-09-05T10:12:28.000Z</time>
      </trkpt>
      <trkpt lat="49.80631" lon="4.88157">
        <ele>366</ele>
        <time>2022-09-05T10:12:29.000Z</time>
      </trkpt>
      <trkpt lat="49.80629" lon="4.88152">
        <ele>366</ele>
        <time>2022-09-05T10:12:30.000Z</time>
      </trkpt>
      <trkpt lat="49.80627" lon="4.88146">
        <ele>366</ele>
        <time>2022-09-05T10:12:31.000Z</time>
      </trkpt>
      <trkpt lat="49.80626" lon="4.88141">
        <ele>366</ele>
        <time>2022-09-05T10:12:32.000Z</time>
      </trkpt>
      <trkpt lat="49.80623" lon="4.88135">
        <ele>366</ele>
        <time>2022-09-05T10:12:33.000Z</time>
      </trkpt>
      <trkpt lat="49.80621" lon="4.88129">
        <ele>366</ele>
        <time>2022-09-05T10:12:34.000Z</time>
      </trkpt>
      <trkpt lat="49.80618" lon="4.88123">
        <ele>367</ele>
        <time>2022-09-05T10:12:35.000Z</time>
      </trkpt>
      <trkpt lat="49.80615" lon="4.88116">
        <ele>367</ele>
        <time>2022-09-05T10:12:36.000Z</time>
      </trkpt>
      <trkpt lat="49.80613" lon="4.88109">
        <ele>367</ele>
        <time>2022-09-05T10:12:37.000Z</time>
      </trkpt>
      <trkpt lat="49.8061" lon="4.88103">
        <ele>366</ele>
        <time>2022-09-05T10:12:38.000Z</time>
      </trkpt>
      <trkpt lat="49.80608" lon="4.88096">
        <ele>366</ele>
        <time>2022-09-05T10:12:39.000Z</time>
      </trkpt>
      <trkpt lat="49.80605" lon="4.88089">
        <ele>366</ele>
        <time>2022-09-05T10:12:40.000Z</time>
      </trkpt>
      <trkpt lat="49.80603" lon="4.88082">
        <ele>366</ele>
        <time>2022-09-05T10:12:41.000Z</time>
      </trkpt>
      <trkpt lat="49.806" lon="4.88074">
        <ele>366</ele>
        <time>2022-09-05T10:12:42.000Z</time>
      </trkpt>
      <trkpt lat="49.80598" lon="4.88067">
        <ele>366</ele>
        <time>2022-09-05T10:12:43.000Z</time>
      </trkpt>
      <trkpt lat="49.80595" lon="4.8806">
        <ele>366</ele>
        <time>2022-09-05T10:12:44.000Z</time>
      </trkpt>
      <trkpt lat="49.80593" lon="4.88053">
        <ele>366</ele>
        <time>2022-09-05T10:12:45.000Z</time>
      </trkpt>
      <trkpt lat="49.8059" lon="4.88046">
        <ele>366</ele>
        <time>2022-09-05T10:12:46.000Z</time>
      </trkpt>
      <trkpt lat="49.80588" lon="4.88039">
        <ele>366</ele>
        <time>2022-09-05T10:12:47.000Z</time>
      </trkpt>
      <trkpt lat="49.80586" lon="4.88031">
        <ele>366</ele>
        <time>2022-09-05T10:12:48.000Z</time>
      </trkpt>
      <trkpt lat="49.80583" lon="4.88024">
        <ele>366</ele>
        <time>2022-09-05T10:12:49.000Z</time>
      </trkpt>
      <trkpt lat="49.8058" lon="4.88017">
        <ele>366</ele>
        <time>2022-09-05T10:12:50.000Z</time>
      </trkpt>
      <trkpt lat="49.80578" lon="4.88011">
        <ele>366</ele>
        <time>2022-09-05T10:12:51.000Z</time>
      </trkpt>
      <trkpt lat="49.80575" lon="4.88004">
        <ele>365</ele>
        <time>2022-09-05T10:12:52.000Z</time>
      </trkpt>
      <trkpt lat="49.80573" lon="4.87996">
        <ele>365</ele>
        <time>2022-09-05T10:12:53.000Z</time>
      </trkpt>
      <trkpt lat="49.8057" lon="4.8799">
        <ele>365</ele>
        <time>2022-09-05T10:12:54.000Z</time>
      </trkpt>
      <trkpt lat="49.80568" lon="4.87983">
        <ele>365</ele>
        <time>2022-09-05T10:12:55.000Z</time>
      </trkpt>
      <trkpt lat="49.80566" lon="4.87977">
        <ele>365</ele>
        <time>2022-09-05T10:12:56.000Z</time>
      </trkpt>
      <trkpt lat="49.80563" lon="4.8797">
        <ele>365</ele>
        <time>2022-09-05T10:12:57.000Z</time>
      </trkpt>
      <trkpt lat="49.80561" lon="4.87964">
        <ele>365</ele>
        <time>2022-09-05T10:12:58.000Z</time>
      </trkpt>
      <trkpt lat="49.80558" lon="4.87957">
        <ele>365</ele>
        <time>2022-09-05T10:12:59.000Z</time>
      </trkpt>
      <trkpt lat="49.80556" lon="4.8795">
        <ele>365</ele>
        <time>2022-09-05T10:13:00.000Z</time>
      </trkpt>
      <trkpt lat="49.80554" lon="4.87943">
        <ele>365</ele>
        <time>2022-09-05T10:13:01.000Z</time>
      </trkpt>
      <trkpt lat="49.80552" lon="4.87937">
        <ele>365</ele>
        <time>2022-09-05T10:13:02.000Z</time>
      </trkpt>
      <trkpt lat="49.80549" lon="4.8793">
        <ele>365</ele>
        <time>2022-09-05T10:13:03.000Z</time>
      </trkpt>
      <trkpt lat="49.80547" lon="4.87923">
        <ele>365</ele>
        <time>2022-09-05T10:13:04.000Z</time>
      </trkpt>
      <trkpt lat="49.80545" lon="4.87916">
        <ele>365</ele>
        <time>2022-09-05T10:13:05.000Z</time>
      </trkpt>
      <trkpt lat="49.80543" lon="4.87909">
        <ele>365</ele>
        <time>2022-09-05T10:13:06.000Z</time>
      </trkpt>
      <trkpt lat="49.8054" lon="4.87903">
        <ele>365</ele>
        <time>2022-09-05T10:13:07.000Z</time>
      </trkpt>
      <trkpt lat="49.80538" lon="4.87897">
        <ele>365</ele>
        <time>2022-09-05T10:13:08.000Z</time>
      </trkpt>
      <trkpt lat="49.80536" lon="4.8789">
        <ele>365</ele>
        <time>2022-09-05T10:13:09.000Z</time>
      </trkpt>
      <trkpt lat="49.80533" lon="4.87884">
        <ele>365</ele>
        <time>2022-09-05T10:13:10.000Z</time>
      </trkpt>
      <trkpt lat="49.8053" lon="4.87877">
        <ele>365</ele>
        <time>2022-09-05T10:13:11.000Z</time>
      </trkpt>
      <trkpt lat="49.80528" lon="4.8787">
        <ele>365</ele>
        <time>2022-09-05T10:13:12.000Z</time>
      </trkpt>
      <trkpt lat="49.80525" lon="4.87864">
        <ele>365</ele>
        <time>2022-09-05T10:13:13.000Z</time>
      </trkpt>
      <trkpt lat="49.80522" lon="4.87857">
        <ele>365</ele>
        <time>2022-09-05T10:13:14.000Z</time>
      </trkpt>
      <trkpt lat="49.8052" lon="4.8785">
        <ele>365</ele>
        <time>2022-09-05T10:13:15.000Z</time>
      </trkpt>
      <trkpt lat="49.80517" lon="4.87843">
        <ele>365</ele>
        <time>2022-09-05T10:13:16.000Z</time>
      </trkpt>
      <trkpt lat="49.80515" lon="4.87837">
        <ele>365</ele>
        <time>2022-09-05T10:13:17.000Z</time>
      </trkpt>
      <trkpt lat="49.80512" lon="4.8783">
        <ele>365</ele>
        <time>2022-09-05T10:13:18.000Z</time>
      </trkpt>
      <trkpt lat="49.8051" lon="4.87823">
        <ele>365</ele>
        <time>2022-09-05T10:13:19.000Z</time>
      </trkpt>
      <trkpt lat="49.80508" lon="4.87816">
        <ele>365</ele>
        <time>2022-09-05T10:13:20.000Z</time>
      </trkpt>
      <trkpt lat="49.80506" lon="4.8781">
        <ele>365</ele>
        <time>2022-09-05T10:13:21.000Z</time>
      </trkpt>
      <trkpt lat="49.80503" lon="4.87803">
        <ele>365</ele>
        <time>2022-09-05T10:13:22.000Z</time>
      </trkpt>
      <trkpt lat="49.805" lon="4.87796">
        <ele>365</ele>
        <time>2022-09-05T10:13:23.000Z</time>
      </trkpt>
      <trkpt lat="49.80498" lon="4.87789">
        <ele>365</ele>
        <time>2022-09-05T10:13:24.000Z</time>
      </trkpt>
      <trkpt lat="49.80495" lon="4.87782">
        <ele>365</ele>
        <time>2022-09-05T10:13:25.000Z</time>
      </trkpt>
      <trkpt lat="49.80493" lon="4.87775">
        <ele>365</ele>
        <time>2022-09-05T10:13:26.000Z</time>
      </trkpt>
      <trkpt lat="49.8049" lon="4.87768">
        <ele>365</ele>
        <time>2022-09-05T10:13:27.000Z</time>
      </trkpt>
      <trkpt lat="49.80488" lon="4.87761">
        <ele>365</ele>
        <time>2022-09-05T10:13:28.000Z</time>
      </trkpt>
      <trkpt lat="49.80486" lon="4.87754">
        <ele>365</ele>
        <time>2022-09-05T10:13:29.000Z</time>
      </trkpt>
      <trkpt lat="49.80484" lon="4.87747">
        <ele>365</ele>
        <time>2022-09-05T10:13:30.000Z</time>
      </trkpt>
      <trkpt lat="49.80482" lon="4.87739">
        <ele>365</ele>
        <time>2022-09-05T10:13:31.000Z</time>
      </trkpt>
      <trkpt lat="49.8048" lon="4.87732">
        <ele>365</ele>
        <time>2022-09-05T10:13:32.000Z</time>
      </trkpt>
      <trkpt lat="49.80478" lon="4.87725">
        <ele>365</ele>
        <time>2022-09-05T10:13:33.000Z</time>
      </trkpt>
      <trkpt lat="49.80476" lon="4.87718">
        <ele>365</ele>
        <time>2022-09-05T10:13:34.000Z</time>
      </trkpt>
      <trkpt lat="49.80474" lon="4.87711">
        <ele>365</ele>
        <time>2022-09-05T10:13:35.000Z</time>
      </trkpt>
      <trkpt lat="49.80472" lon="4.87704">
        <ele>365</ele>
        <time>2022-09-05T10:13:36.000Z</time>
      </trkpt>
      <trkpt lat="49.80469" lon="4.87698">
        <ele>365</ele>
        <time>2022-09-05T10:13:37.000Z</time>
      </trkpt>
      <trkpt lat="49.80466" lon="4.87694">
        <ele>365</ele>
        <time>2022-09-05T10:13:38.000Z</time>
      </trkpt>
      <trkpt lat="49.80463" lon="4.87693">
        <ele>365</ele>
        <time>2022-09-05T10:13:39.000Z</time>
      </trkpt>
      <trkpt lat="49.80459" lon="4.87692">
        <ele>365</ele>
        <time>2022-09-05T10:13:40.000Z</time>
      </trkpt>
      <trkpt lat="49.80456" lon="4.87691">
        <ele>365</ele>
        <time>2022-09-05T10:13:41.000Z</time>
      </trkpt>
      <trkpt lat="49.80452" lon="4.87692">
        <ele>365</ele>
        <time>2022-09-05T10:13:42.000Z</time>
      </trkpt>
      <trkpt lat="49.80448" lon="4.87692">
        <ele>365</ele>
        <time>2022-09-05T10:13:43.000Z</time>
      </trkpt>
      <trkpt lat="49.80445" lon="4.87693">
        <ele>365</ele>
        <time>2022-09-05T10:13:44.000Z</time>
      </trkpt>
      <trkpt lat="49.80441" lon="4.87694">
        <ele>365</ele>
        <time>2022-09-05T10:13:45.000Z</time>
      </trkpt>
      <trkpt lat="49.80436" lon="4.87695">
        <ele>365</ele>
        <time>2022-09-05T10:13:46.000Z</time>
      </trkpt>
      <trkpt lat="49.80432" lon="4.87696">
        <ele>365</ele>
        <time>2022-09-05T10:13:47.000Z</time>
      </trkpt>
      <trkpt lat="49.80428" lon="4.87697">
        <ele>365</ele>
        <time>2022-09-05T10:13:48.000Z</time>
      </trkpt>
      <trkpt lat="49.80424" lon="4.87699">
        <ele>365</ele>
        <time>2022-09-05T10:13:49.000Z</time>
      </trkpt>
      <trkpt lat="49.8042" lon="4.87702">
        <ele>365</ele>
        <time>2022-09-05T10:13:50.000Z</time>
      </trkpt>
      <trkpt lat="49.80417" lon="4.87705">
        <ele>364</ele>
        <time>2022-09-05T10:13:51.000Z</time>
      </trkpt>
      <trkpt lat="49.80413" lon="4.87709">
        <ele>364</ele>
        <time>2022-09-05T10:13:52.000Z</time>
      </trkpt>
      <trkpt lat="49.80409" lon="4.87712">
        <ele>364</ele>
        <time>2022-09-05T10:13:53.000Z</time>
      </trkpt>
      <trkpt lat="49.80405" lon="4.87715">
        <ele>364</ele>
        <time>2022-09-05T10:13:54.000Z</time>
      </trkpt>
      <trkpt lat="49.804" lon="4.87719">
        <ele>364</ele>
        <time>2022-09-05T10:13:55.000Z</time>
      </trkpt>
      <trkpt lat="49.80395" lon="4.87723">
        <ele>363</ele>
        <time>2022-09-05T10:13:56.000Z</time>
      </trkpt>
      <trkpt lat="49.8039" lon="4.87726">
        <ele>363</ele>
        <time>2022-09-05T10:13:57.000Z</time>
      </trkpt>
      <trkpt lat="49.80385" lon="4.8773">
        <ele>363</ele>
        <time>2022-09-05T10:13:58.000Z</time>
      </trkpt>
      <trkpt lat="49.8038" lon="4.87733">
        <ele>363</ele>
        <time>2022-09-05T10:13:59.000Z</time>
      </trkpt>
      <trkpt lat="49.80375" lon="4.87737">
        <ele>363</ele>
        <time>2022-09-05T10:14:00.000Z</time>
      </trkpt>
      <trkpt lat="49.8037" lon="4.87741">
        <ele>362</ele>
        <time>2022-09-05T10:14:01.000Z</time>
      </trkpt>
      <trkpt lat="49.80364" lon="4.87745">
        <ele>362</ele>
        <time>2022-09-05T10:14:02.000Z</time>
      </trkpt>
      <trkpt lat="49.80359" lon="4.87749">
        <ele>362</ele>
        <time>2022-09-05T10:14:03.000Z</time>
      </trkpt>
      <trkpt lat="49.80353" lon="4.87753">
        <ele>362</ele>
        <time>2022-09-05T10:14:04.000Z</time>
      </trkpt>
      <trkpt lat="49.80348" lon="4.87758">
        <ele>362</ele>
        <time>2022-09-05T10:14:05.000Z</time>
      </trkpt>
      <trkpt lat="49.80343" lon="4.87763">
        <ele>362</ele>
        <time>2022-09-05T10:14:06.000Z</time>
      </trkpt>
      <trkpt lat="49.80338" lon="4.87768">
        <ele>362</ele>
        <time>2022-09-05T10:14:07.000Z</time>
      </trkpt>
      <trkpt lat="49.80333" lon="4.87772">
        <ele>362</ele>
        <time>2022-09-05T10:14:08.000Z</time>
      </trkpt>
      <trkpt lat="49.80328" lon="4.87778">
        <ele>362</ele>
        <time>2022-09-05T10:14:09.000Z</time>
      </trkpt>
      <trkpt lat="49.80322" lon="4.87784">
        <ele>362</ele>
        <time>2022-09-05T10:14:10.000Z</time>
      </trkpt>
      <trkpt lat="49.80318" lon="4.8779">
        <ele>362</ele>
        <time>2022-09-05T10:14:11.000Z</time>
      </trkpt>
      <trkpt lat="49.80312" lon="4.87795">
        <ele>362</ele>
        <time>2022-09-05T10:14:12.000Z</time>
      </trkpt>
      <trkpt lat="49.80307" lon="4.87801">
        <ele>362</ele>
        <time>2022-09-05T10:14:13.000Z</time>
      </trkpt>
      <trkpt lat="49.80302" lon="4.87807">
        <ele>362</ele>
        <time>2022-09-05T10:14:14.000Z</time>
      </trkpt>
      <trkpt lat="49.80296" lon="4.87812">
        <ele>362</ele>
        <time>2022-09-05T10:14:15.000Z</time>
      </trkpt>
      <trkpt lat="49.80291" lon="4.87818">
        <ele>362</ele>
        <time>2022-09-05T10:14:16.000Z</time>
      </trkpt>
      <trkpt lat="49.80286" lon="4.87823">
        <ele>362</ele>
        <time>2022-09-05T10:14:17.000Z</time>
      </trkpt>
      <trkpt lat="49.8028" lon="4.87828">
        <ele>361</ele>
        <time>2022-09-05T10:14:18.000Z</time>
      </trkpt>
      <trkpt lat="49.80274" lon="4.87833">
        <ele>361</ele>
        <time>2022-09-05T10:14:19.000Z</time>
      </trkpt>
      <trkpt lat="49.80269" lon="4.87839">
        <ele>361</ele>
        <time>2022-09-05T10:14:20.000Z</time>
      </trkpt>
      <trkpt lat="49.80263" lon="4.87845">
        <ele>361</ele>
        <time>2022-09-05T10:14:21.000Z</time>
      </trkpt>
      <trkpt lat="49.80258" lon="4.87851">
        <ele>360</ele>
        <time>2022-09-05T10:14:22.000Z</time>
      </trkpt>
      <trkpt lat="49.80253" lon="4.87858">
        <ele>360</ele>
        <time>2022-09-05T10:14:23.000Z</time>
      </trkpt>
      <trkpt lat="49.80248" lon="4.87865">
        <ele>359</ele>
        <time>2022-09-05T10:14:24.000Z</time>
      </trkpt>
      <trkpt lat="49.80242" lon="4.87872">
        <ele>359</ele>
        <time>2022-09-05T10:14:25.000Z</time>
      </trkpt>
      <trkpt lat="49.80238" lon="4.87878">
        <ele>359</ele>
        <time>2022-09-05T10:14:26.000Z</time>
      </trkpt>
      <trkpt lat="49.80234" lon="4.87884">
        <ele>358</ele>
        <time>2022-09-05T10:14:27.000Z</time>
      </trkpt>
      <trkpt lat="49.80231" lon="4.8789">
        <ele>358</ele>
        <time>2022-09-05T10:14:28.000Z</time>
      </trkpt>
      <trkpt lat="49.80228" lon="4.87895">
        <ele>358</ele>
        <time>2022-09-05T10:14:29.000Z</time>
      </trkpt>
      <trkpt lat="49.80226" lon="4.879">
        <ele>358</ele>
        <time>2022-09-05T10:14:30.000Z</time>
      </trkpt>
      <trkpt lat="49.80223" lon="4.87905">
        <ele>358</ele>
        <time>2022-09-05T10:14:31.000Z</time>
      </trkpt>
      <trkpt lat="49.80221" lon="4.87911">
        <ele>357</ele>
        <time>2022-09-05T10:14:32.000Z</time>
      </trkpt>
      <trkpt lat="49.80218" lon="4.87916">
        <ele>357</ele>
        <time>2022-09-05T10:14:33.000Z</time>
      </trkpt>
      <trkpt lat="49.80215" lon="4.87921">
        <ele>357</ele>
        <time>2022-09-05T10:14:34.000Z</time>
      </trkpt>
      <trkpt lat="49.80213" lon="4.87926">
        <ele>357</ele>
        <time>2022-09-05T10:14:35.000Z</time>
      </trkpt>
      <trkpt lat="49.80211" lon="4.87931">
        <ele>357</ele>
        <time>2022-09-05T10:14:36.000Z</time>
      </trkpt>
      <trkpt lat="49.80208" lon="4.87936">
        <ele>357</ele>
        <time>2022-09-05T10:14:37.000Z</time>
      </trkpt>
      <trkpt lat="49.80206" lon="4.87941">
        <ele>356</ele>
        <time>2022-09-05T10:14:38.000Z</time>
      </trkpt>
      <trkpt lat="49.80204" lon="4.87946">
        <ele>356</ele>
        <time>2022-09-05T10:14:39.000Z</time>
      </trkpt>
      <trkpt lat="49.80201" lon="4.87953">
        <ele>356</ele>
        <time>2022-09-05T10:14:40.000Z</time>
      </trkpt>
      <trkpt lat="49.80199" lon="4.87959">
        <ele>355</ele>
        <time>2022-09-05T10:14:41.000Z</time>
      </trkpt>
      <trkpt lat="49.80197" lon="4.87965">
        <ele>355</ele>
        <time>2022-09-05T10:14:42.000Z</time>
      </trkpt>
      <trkpt lat="49.80195" lon="4.87971">
        <ele>355</ele>
        <time>2022-09-05T10:14:43.000Z</time>
      </trkpt>
      <trkpt lat="49.80192" lon="4.87978">
        <ele>355</ele>
        <time>2022-09-05T10:14:44.000Z</time>
      </trkpt>
      <trkpt lat="49.8019" lon="4.87985">
        <ele>355</ele>
        <time>2022-09-05T10:14:45.000Z</time>
      </trkpt>
      <trkpt lat="49.80188" lon="4.87992">
        <ele>354</ele>
        <time>2022-09-05T10:14:46.000Z</time>
      </trkpt>
      <trkpt lat="49.80187" lon="4.88">
        <ele>354</ele>
        <time>2022-09-05T10:14:47.000Z</time>
      </trkpt>
      <trkpt lat="49.80185" lon="4.88008">
        <ele>354</ele>
        <time>2022-09-05T10:14:48.000Z</time>
      </trkpt>
      <trkpt lat="49.80183" lon="4.88016">
        <ele>354</ele>
        <time>2022-09-05T10:14:49.000Z</time>
      </trkpt>
      <trkpt lat="49.80182" lon="4.88026">
        <ele>353</ele>
        <time>2022-09-05T10:14:50.000Z</time>
      </trkpt>
      <trkpt lat="49.80181" lon="4.88036">
        <ele>353</ele>
        <time>2022-09-05T10:14:51.000Z</time>
      </trkpt>
      <trkpt lat="49.80181" lon="4.88046">
        <ele>352</ele>
        <time>2022-09-05T10:14:52.000Z</time>
      </trkpt>
      <trkpt lat="49.8018" lon="4.88057">
        <ele>352</ele>
        <time>2022-09-05T10:14:53.000Z</time>
      </trkpt>
      <trkpt lat="49.8018" lon="4.88068">
        <ele>351</ele>
        <time>2022-09-05T10:14:54.000Z</time>
      </trkpt>
      <trkpt lat="49.80178" lon="4.88079">
        <ele>351</ele>
        <time>2022-09-05T10:14:55.000Z</time>
      </trkpt>
      <trkpt lat="49.80177" lon="4.88089">
        <ele>350</ele>
        <time>2022-09-05T10:14:56.000Z</time>
      </trkpt>
      <trkpt lat="49.80176" lon="4.881">
        <ele>350</ele>
        <time>2022-09-05T10:14:57.000Z</time>
      </trkpt>
      <trkpt lat="49.80174" lon="4.88111">
        <ele>349</ele>
        <time>2022-09-05T10:14:58.000Z</time>
      </trkpt>
      <trkpt lat="49.80172" lon="4.88122">
        <ele>348</ele>
        <time>2022-09-05T10:14:59.000Z</time>
      </trkpt>
      <trkpt lat="49.80171" lon="4.88133">
        <ele>348</ele>
        <time>2022-09-05T10:15:00.000Z</time>
      </trkpt>
      <trkpt lat="49.80169" lon="4.88144">
        <ele>347</ele>
        <time>2022-09-05T10:15:01.000Z</time>
      </trkpt>
      <trkpt lat="49.80168" lon="4.88153">
        <ele>346</ele>
        <time>2022-09-05T10:15:02.000Z</time>
      </trkpt>
      <trkpt lat="49.80167" lon="4.88162">
        <ele>346</ele>
        <time>2022-09-05T10:15:03.000Z</time>
      </trkpt>
      <trkpt lat="49.80166" lon="4.88171">
        <ele>345</ele>
        <time>2022-09-05T10:15:04.000Z</time>
      </trkpt>
      <trkpt lat="49.80164" lon="4.8818">
        <ele>345</ele>
        <time>2022-09-05T10:15:05.000Z</time>
      </trkpt>
      <trkpt lat="49.80163" lon="4.88189">
        <ele>344</ele>
        <time>2022-09-05T10:15:06.000Z</time>
      </trkpt>
      <trkpt lat="49.80162" lon="4.88197">
        <ele>344</ele>
        <time>2022-09-05T10:15:07.000Z</time>
      </trkpt>
      <trkpt lat="49.80161" lon="4.88204">
        <ele>343</ele>
        <time>2022-09-05T10:15:08.000Z</time>
      </trkpt>
      <trkpt lat="49.8016" lon="4.88211">
        <ele>343</ele>
        <time>2022-09-05T10:15:09.000Z</time>
      </trkpt>
      <trkpt lat="49.80159" lon="4.88218">
        <ele>342</ele>
        <time>2022-09-05T10:15:10.000Z</time>
      </trkpt>
      <trkpt lat="49.80156" lon="4.88224">
        <ele>342</ele>
        <time>2022-09-05T10:15:11.000Z</time>
      </trkpt>
      <trkpt lat="49.80154" lon="4.88231">
        <ele>341</ele>
        <time>2022-09-05T10:15:12.000Z</time>
      </trkpt>
      <trkpt lat="49.8015" lon="4.88238">
        <ele>341</ele>
        <time>2022-09-05T10:15:13.000Z</time>
      </trkpt>
      <trkpt lat="49.80147" lon="4.88244">
        <ele>340</ele>
        <time>2022-09-05T10:15:14.000Z</time>
      </trkpt>
      <trkpt lat="49.80143" lon="4.8825">
        <ele>340</ele>
        <time>2022-09-05T10:15:15.000Z</time>
      </trkpt>
      <trkpt lat="49.8014" lon="4.88255">
        <ele>340</ele>
        <time>2022-09-05T10:15:16.000Z</time>
      </trkpt>
      <trkpt lat="49.80136" lon="4.8826">
        <ele>339</ele>
        <time>2022-09-05T10:15:17.000Z</time>
      </trkpt>
      <trkpt lat="49.80133" lon="4.88263">
        <ele>339</ele>
        <time>2022-09-05T10:15:18.000Z</time>
      </trkpt>
      <trkpt lat="49.80131" lon="4.88267">
        <ele>339</ele>
        <time>2022-09-05T10:15:19.000Z</time>
      </trkpt>
      <trkpt lat="49.80128" lon="4.8827">
        <ele>338</ele>
        <time>2022-09-05T10:15:20.000Z</time>
      </trkpt>
      <trkpt lat="49.80125" lon="4.88274">
        <ele>338</ele>
        <time>2022-09-05T10:15:21.000Z</time>
      </trkpt>
      <trkpt lat="49.80122" lon="4.88279">
        <ele>338</ele>
        <time>2022-09-05T10:15:22.000Z</time>
      </trkpt>
      <trkpt lat="49.80119" lon="4.88284">
        <ele>337</ele>
        <time>2022-09-05T10:15:23.000Z</time>
      </trkpt>
      <trkpt lat="49.80116" lon="4.88289">
        <ele>337</ele>
        <time>2022-09-05T10:15:24.000Z</time>
      </trkpt>
      <trkpt lat="49.80113" lon="4.88294">
        <ele>337</ele>
        <time>2022-09-05T10:15:25.000Z</time>
      </trkpt>
      <trkpt lat="49.80109" lon="4.88299">
        <ele>337</ele>
        <time>2022-09-05T10:15:26.000Z</time>
      </trkpt>
      <trkpt lat="49.80106" lon="4.88305">
        <ele>336</ele>
        <time>2022-09-05T10:15:27.000Z</time>
      </trkpt>
      <trkpt lat="49.80102" lon="4.88309">
        <ele>336</ele>
        <time>2022-09-05T10:15:28.000Z</time>
      </trkpt>
      <trkpt lat="49.80097" lon="4.88314">
        <ele>336</ele>
        <time>2022-09-05T10:15:29.000Z</time>
      </trkpt>
      <trkpt lat="49.80092" lon="4.88318">
        <ele>335</ele>
        <time>2022-09-05T10:15:30.000Z</time>
      </trkpt>
      <trkpt lat="49.80086" lon="4.88321">
        <ele>335</ele>
        <time>2022-09-05T10:15:31.000Z</time>
      </trkpt>
      <trkpt lat="49.8008" lon="4.88324">
        <ele>335</ele>
        <time>2022-09-05T10:15:32.000Z</time>
      </trkpt>
      <trkpt lat="49.80074" lon="4.88327">
        <ele>334</ele>
        <time>2022-09-05T10:15:33.000Z</time>
      </trkpt>
      <trkpt lat="49.80068" lon="4.8833">
        <ele>334</ele>
        <time>2022-09-05T10:15:34.000Z</time>
      </trkpt>
      <trkpt lat="49.80062" lon="4.88333">
        <ele>333</ele>
        <time>2022-09-05T10:15:35.000Z</time>
      </trkpt>
      <trkpt lat="49.80057" lon="4.88337">
        <ele>333</ele>
        <time>2022-09-05T10:15:36.000Z</time>
      </trkpt>
      <trkpt lat="49.80051" lon="4.8834">
        <ele>333</ele>
        <time>2022-09-05T10:15:37.000Z</time>
      </trkpt>
      <trkpt lat="49.80046" lon="4.88344">
        <ele>332</ele>
        <time>2022-09-05T10:15:38.000Z</time>
      </trkpt>
      <trkpt lat="49.80041" lon="4.88348">
        <ele>332</ele>
        <time>2022-09-05T10:15:39.000Z</time>
      </trkpt>
      <trkpt lat="49.80036" lon="4.88352">
        <ele>331</ele>
        <time>2022-09-05T10:15:40.000Z</time>
      </trkpt>
      <trkpt lat="49.8003" lon="4.88356">
        <ele>331</ele>
        <time>2022-09-05T10:15:41.000Z</time>
      </trkpt>
      <trkpt lat="49.80025" lon="4.8836">
        <ele>331</ele>
        <time>2022-09-05T10:15:42.000Z</time>
      </trkpt>
      <trkpt lat="49.8002" lon="4.88363">
        <ele>330</ele>
        <time>2022-09-05T10:15:43.000Z</time>
      </trkpt>
      <trkpt lat="49.80015" lon="4.88365">
        <ele>330</ele>
        <time>2022-09-05T10:15:44.000Z</time>
      </trkpt>
      <trkpt lat="49.80009" lon="4.88366">
        <ele>329</ele>
        <time>2022-09-05T10:15:45.000Z</time>
      </trkpt>
      <trkpt lat="49.80004" lon="4.88367">
        <ele>329</ele>
        <time>2022-09-05T10:15:46.000Z</time>
      </trkpt>
      <trkpt lat="49.79999" lon="4.88367">
        <ele>328</ele>
        <time>2022-09-05T10:15:47.000Z</time>
      </trkpt>
      <trkpt lat="49.79993" lon="4.88366">
        <ele>327</ele>
        <time>2022-09-05T10:15:48.000Z</time>
      </trkpt>
      <trkpt lat="49.79987" lon="4.88365">
        <ele>327</ele>
        <time>2022-09-05T10:15:49.000Z</time>
      </trkpt>
      <trkpt lat="49.79982" lon="4.88364">
        <ele>326</ele>
        <time>2022-09-05T10:15:50.000Z</time>
      </trkpt>
      <trkpt lat="49.79977" lon="4.88363">
        <ele>326</ele>
        <time>2022-09-05T10:15:51.000Z</time>
      </trkpt>
      <trkpt lat="49.79973" lon="4.88362">
        <ele>325</ele>
        <time>2022-09-05T10:15:52.000Z</time>
      </trkpt>
      <trkpt lat="49.79969" lon="4.88362">
        <ele>325</ele>
        <time>2022-09-05T10:15:53.000Z</time>
      </trkpt>
      <trkpt lat="49.79966" lon="4.88361">
        <ele>324</ele>
        <time>2022-09-05T10:15:54.000Z</time>
      </trkpt>
      <trkpt lat="49.79962" lon="4.8836">
        <ele>324</ele>
        <time>2022-09-05T10:15:55.000Z</time>
      </trkpt>
      <trkpt lat="49.79958" lon="4.88359">
        <ele>323</ele>
        <time>2022-09-05T10:15:56.000Z</time>
      </trkpt>
      <trkpt lat="49.79955" lon="4.88358">
        <ele>323</ele>
        <time>2022-09-05T10:15:57.000Z</time>
      </trkpt>
      <trkpt lat="49.79951" lon="4.88357">
        <ele>322</ele>
        <time>2022-09-05T10:15:58.000Z</time>
      </trkpt>
      <trkpt lat="49.79948" lon="4.88355">
        <ele>322</ele>
        <time>2022-09-05T10:15:59.000Z</time>
      </trkpt>
      <trkpt lat="49.79944" lon="4.88353">
        <ele>322</ele>
        <time>2022-09-05T10:16:00.000Z</time>
      </trkpt>
      <trkpt lat="49.79941" lon="4.88351">
        <ele>321</ele>
        <time>2022-09-05T10:16:01.000Z</time>
      </trkpt>
      <trkpt lat="49.79937" lon="4.88349">
        <ele>321</ele>
        <time>2022-09-05T10:16:02.000Z</time>
      </trkpt>
      <trkpt lat="49.79934" lon="4.88346">
        <ele>321</ele>
        <time>2022-09-05T10:16:03.000Z</time>
      </trkpt>
      <trkpt lat="49.7993" lon="4.88343">
        <ele>321</ele>
        <time>2022-09-05T10:16:04.000Z</time>
      </trkpt>
      <trkpt lat="49.79927" lon="4.8834">
        <ele>320</ele>
        <time>2022-09-05T10:16:05.000Z</time>
      </trkpt>
      <trkpt lat="49.79922" lon="4.88337">
        <ele>320</ele>
        <time>2022-09-05T10:16:06.000Z</time>
      </trkpt>
      <trkpt lat="49.79919" lon="4.88334">
        <ele>320</ele>
        <time>2022-09-05T10:16:07.000Z</time>
      </trkpt>
      <trkpt lat="49.79917" lon="4.88332">
        <ele>320</ele>
        <time>2022-09-05T10:16:08.000Z</time>
      </trkpt>
      <trkpt lat="49.79914" lon="4.88328">
        <ele>319</ele>
        <time>2022-09-05T10:16:09.000Z</time>
      </trkpt>
      <trkpt lat="49.79912" lon="4.88324">
        <ele>319</ele>
        <time>2022-09-05T10:16:10.000Z</time>
      </trkpt>
      <trkpt lat="49.79909" lon="4.8832">
        <ele>319</ele>
        <time>2022-09-05T10:16:11.000Z</time>
      </trkpt>
      <trkpt lat="49.79907" lon="4.88315">
        <ele>319</ele>
        <time>2022-09-05T10:16:12.000Z</time>
      </trkpt>
      <trkpt lat="49.79904" lon="4.88309">
        <ele>319</ele>
        <time>2022-09-05T10:16:13.000Z</time>
      </trkpt>
      <trkpt lat="49.79901" lon="4.88304">
        <ele>318</ele>
        <time>2022-09-05T10:16:14.000Z</time>
      </trkpt>
      <trkpt lat="49.79898" lon="4.88299">
        <ele>318</ele>
        <time>2022-09-05T10:16:15.000Z</time>
      </trkpt>
      <trkpt lat="49.79895" lon="4.88294">
        <ele>318</ele>
        <time>2022-09-05T10:16:16.000Z</time>
      </trkpt>
      <trkpt lat="49.79892" lon="4.88288">
        <ele>318</ele>
        <time>2022-09-05T10:16:17.000Z</time>
      </trkpt>
      <trkpt lat="49.79889" lon="4.88283">
        <ele>318</ele>
        <time>2022-09-05T10:16:18.000Z</time>
      </trkpt>
      <trkpt lat="49.79886" lon="4.88277">
        <ele>318</ele>
        <time>2022-09-05T10:16:19.000Z</time>
      </trkpt>
      <trkpt lat="49.79883" lon="4.88272">
        <ele>318</ele>
        <time>2022-09-05T10:16:20.000Z</time>
      </trkpt>
      <trkpt lat="49.7988" lon="4.88267">
        <ele>317</ele>
        <time>2022-09-05T10:16:21.000Z</time>
      </trkpt>
      <trkpt lat="49.79877" lon="4.88262">
        <ele>317</ele>
        <time>2022-09-05T10:16:22.000Z</time>
      </trkpt>
      <trkpt lat="49.79874" lon="4.88257">
        <ele>317</ele>
        <time>2022-09-05T10:16:23.000Z</time>
      </trkpt>
      <trkpt lat="49.79871" lon="4.88253">
        <ele>317</ele>
        <time>2022-09-05T10:16:24.000Z</time>
      </trkpt>
      <trkpt lat="49.79868" lon="4.88249">
        <ele>317</ele>
        <time>2022-09-05T10:16:25.000Z</time>
      </trkpt>
      <trkpt lat="49.79865" lon="4.88245">
        <ele>317</ele>
        <time>2022-09-05T10:16:26.000Z</time>
      </trkpt>
      <trkpt lat="49.79862" lon="4.8824">
        <ele>317</ele>
        <time>2022-09-05T10:16:27.000Z</time>
      </trkpt>
      <trkpt lat="49.79858" lon="4.88236">
        <ele>317</ele>
        <time>2022-09-05T10:16:28.000Z</time>
      </trkpt>
      <trkpt lat="49.79855" lon="4.88232">
        <ele>316</ele>
        <time>2022-09-05T10:16:29.000Z</time>
      </trkpt>
      <trkpt lat="49.79852" lon="4.88227">
        <ele>316</ele>
        <time>2022-09-05T10:16:30.000Z</time>
      </trkpt>
      <trkpt lat="49.79848" lon="4.88222">
        <ele>316</ele>
        <time>2022-09-05T10:16:31.000Z</time>
      </trkpt>
      <trkpt lat="49.79844" lon="4.88218">
        <ele>316</ele>
        <time>2022-09-05T10:16:32.000Z</time>
      </trkpt>
      <trkpt lat="49.7984" lon="4.88213">
        <ele>316</ele>
        <time>2022-09-05T10:16:33.000Z</time>
      </trkpt>
      <trkpt lat="49.79836" lon="4.88208">
        <ele>315</ele>
        <time>2022-09-05T10:16:34.000Z</time>
      </trkpt>
      <trkpt lat="49.79831" lon="4.88204">
        <ele>315</ele>
        <time>2022-09-05T10:16:35.000Z</time>
      </trkpt>
      <trkpt lat="49.79827" lon="4.882">
        <ele>315</ele>
        <time>2022-09-05T10:16:36.000Z</time>
      </trkpt>
      <trkpt lat="49.79823" lon="4.88196">
        <ele>315</ele>
        <time>2022-09-05T10:16:37.000Z</time>
      </trkpt>
      <trkpt lat="49.79818" lon="4.88192">
        <ele>315</ele>
        <time>2022-09-05T10:16:38.000Z</time>
      </trkpt>
      <trkpt lat="49.79813" lon="4.88188">
        <ele>314</ele>
        <time>2022-09-05T10:16:39.000Z</time>
      </trkpt>
      <trkpt lat="49.79808" lon="4.88184">
        <ele>314</ele>
        <time>2022-09-05T10:16:40.000Z</time>
      </trkpt>
      <trkpt lat="49.79804" lon="4.88181">
        <ele>314</ele>
        <time>2022-09-05T10:16:41.000Z</time>
      </trkpt>
      <trkpt lat="49.79799" lon="4.88177">
        <ele>313</ele>
        <time>2022-09-05T10:16:42.000Z</time>
      </trkpt>
      <trkpt lat="49.79795" lon="4.88173">
        <ele>313</ele>
        <time>2022-09-05T10:16:43.000Z</time>
      </trkpt>
      <trkpt lat="49.79791" lon="4.8817">
        <ele>313</ele>
        <time>2022-09-05T10:16:44.000Z</time>
      </trkpt>
      <trkpt lat="49.79787" lon="4.88167">
        <ele>313</ele>
        <time>2022-09-05T10:16:45.000Z</time>
      </trkpt>
      <trkpt lat="49.79783" lon="4.88165">
        <ele>312</ele>
        <time>2022-09-05T10:16:46.000Z</time>
      </trkpt>
      <trkpt lat="49.79779" lon="4.88163">
        <ele>312</ele>
        <time>2022-09-05T10:16:47.000Z</time>
      </trkpt>
      <trkpt lat="49.79775" lon="4.88161">
        <ele>312</ele>
        <time>2022-09-05T10:16:48.000Z</time>
      </trkpt>
      <trkpt lat="49.79771" lon="4.88158">
        <ele>312</ele>
        <time>2022-09-05T10:16:49.000Z</time>
      </trkpt>
      <trkpt lat="49.79768" lon="4.88155">
        <ele>311</ele>
        <time>2022-09-05T10:16:50.000Z</time>
      </trkpt>
      <trkpt lat="49.79764" lon="4.88153">
        <ele>311</ele>
        <time>2022-09-05T10:16:51.000Z</time>
      </trkpt>
      <trkpt lat="49.79761" lon="4.8815">
        <ele>311</ele>
        <time>2022-09-05T10:16:52.000Z</time>
      </trkpt>
      <trkpt lat="49.79757" lon="4.88147">
        <ele>311</ele>
        <time>2022-09-05T10:16:53.000Z</time>
      </trkpt>
      <trkpt lat="49.79754" lon="4.88144">
        <ele>311</ele>
        <time>2022-09-05T10:16:54.000Z</time>
      </trkpt>
      <trkpt lat="49.7975" lon="4.88141">
        <ele>310</ele>
        <time>2022-09-05T10:16:55.000Z</time>
      </trkpt>
      <trkpt lat="49.79747" lon="4.88138">
        <ele>310</ele>
        <time>2022-09-05T10:16:56.000Z</time>
      </trkpt>
      <trkpt lat="49.79744" lon="4.88135">
        <ele>310</ele>
        <time>2022-09-05T10:16:57.000Z</time>
      </trkpt>
      <trkpt lat="49.79741" lon="4.88133">
        <ele>310</ele>
        <time>2022-09-05T10:16:58.000Z</time>
      </trkpt>
      <trkpt lat="49.79738" lon="4.88129">
        <ele>310</ele>
        <time>2022-09-05T10:16:59.000Z</time>
      </trkpt>
      <trkpt lat="49.79735" lon="4.88126">
        <ele>310</ele>
        <time>2022-09-05T10:17:00.000Z</time>
      </trkpt>
      <trkpt lat="49.79732" lon="4.88122">
        <ele>310</ele>
        <time>2022-09-05T10:17:01.000Z</time>
      </trkpt>
      <trkpt lat="49.79728" lon="4.88118">
        <ele>310</ele>
        <time>2022-09-05T10:17:02.000Z</time>
      </trkpt>
      <trkpt lat="49.79725" lon="4.88115">
        <ele>310</ele>
        <time>2022-09-05T10:17:03.000Z</time>
      </trkpt>
      <trkpt lat="49.79722" lon="4.88112">
        <ele>310</ele>
        <time>2022-09-05T10:17:04.000Z</time>
      </trkpt>
      <trkpt lat="49.79719" lon="4.88109">
        <ele>310</ele>
        <time>2022-09-05T10:17:05.000Z</time>
      </trkpt>
      <trkpt lat="49.79716" lon="4.88105">
        <ele>309</ele>
        <time>2022-09-05T10:17:06.000Z</time>
      </trkpt>
      <trkpt lat="49.79712" lon="4.88102">
        <ele>309</ele>
        <time>2022-09-05T10:17:07.000Z</time>
      </trkpt>
      <trkpt lat="49.79709" lon="4.88098">
        <ele>309</ele>
        <time>2022-09-05T10:17:08.000Z</time>
      </trkpt>
      <trkpt lat="49.79705" lon="4.88095">
        <ele>309</ele>
        <time>2022-09-05T10:17:09.000Z</time>
      </trkpt>
      <trkpt lat="49.79702" lon="4.88091">
        <ele>309</ele>
        <time>2022-09-05T10:17:10.000Z</time>
      </trkpt>
      <trkpt lat="49.79698" lon="4.88088">
        <ele>309</ele>
        <time>2022-09-05T10:17:11.000Z</time>
      </trkpt>
      <trkpt lat="49.79694" lon="4.88086">
        <ele>309</ele>
        <time>2022-09-05T10:17:12.000Z</time>
      </trkpt>
      <trkpt lat="49.7969" lon="4.88083">
        <ele>309</ele>
        <time>2022-09-05T10:17:13.000Z</time>
      </trkpt>
      <trkpt lat="49.79687" lon="4.8808">
        <ele>309</ele>
        <time>2022-09-05T10:17:14.000Z</time>
      </trkpt>
      <trkpt lat="49.79683" lon="4.88078">
        <ele>309</ele>
        <time>2022-09-05T10:17:15.000Z</time>
      </trkpt>
      <trkpt lat="49.79681" lon="4.88076">
        <ele>309</ele>
        <time>2022-09-05T10:17:16.000Z</time>
      </trkpt>
      <trkpt lat="49.79677" lon="4.88073">
        <ele>308</ele>
        <time>2022-09-05T10:17:17.000Z</time>
      </trkpt>
      <trkpt lat="49.79673" lon="4.8807">
        <ele>308</ele>
        <time>2022-09-05T10:17:18.000Z</time>
      </trkpt>
      <trkpt lat="49.79669" lon="4.88066">
        <ele>308</ele>
        <time>2022-09-05T10:17:19.000Z</time>
      </trkpt>
      <trkpt lat="49.79666" lon="4.88061">
        <ele>308</ele>
        <time>2022-09-05T10:17:20.000Z</time>
      </trkpt>
      <trkpt lat="49.79662" lon="4.88057">
        <ele>308</ele>
        <time>2022-09-05T10:17:21.000Z</time>
      </trkpt>
      <trkpt lat="49.79659" lon="4.88053">
        <ele>308</ele>
        <time>2022-09-05T10:17:22.000Z</time>
      </trkpt>
      <trkpt lat="49.79656" lon="4.88051">
        <ele>308</ele>
        <time>2022-09-05T10:17:23.000Z</time>
      </trkpt>
      <trkpt lat="49.79652" lon="4.88048">
        <ele>308</ele>
        <time>2022-09-05T10:17:24.000Z</time>
      </trkpt>
      <trkpt lat="49.79649" lon="4.88046">
        <ele>308</ele>
        <time>2022-09-05T10:17:25.000Z</time>
      </trkpt>
      <trkpt lat="49.79646" lon="4.88044">
        <ele>308</ele>
        <time>2022-09-05T10:17:26.000Z</time>
      </trkpt>
      <trkpt lat="49.79643" lon="4.88042">
        <ele>308</ele>
        <time>2022-09-05T10:17:27.000Z</time>
      </trkpt>
      <trkpt lat="49.79641" lon="4.8804">
        <ele>308</ele>
        <time>2022-09-05T10:17:28.000Z</time>
      </trkpt>
      <trkpt lat="49.79639" lon="4.88038">
        <ele>308</ele>
        <time>2022-09-05T10:17:29.000Z</time>
      </trkpt>
      <trkpt lat="49.79637" lon="4.88035">
        <ele>308</ele>
        <time>2022-09-05T10:17:30.000Z</time>
      </trkpt>
      <trkpt lat="49.79635" lon="4.88031">
        <ele>308</ele>
        <time>2022-09-05T10:17:31.000Z</time>
      </trkpt>
      <trkpt lat="49.79632" lon="4.88027">
        <ele>308</ele>
        <time>2022-09-05T10:17:32.000Z</time>
      </trkpt>
      <trkpt lat="49.79629" lon="4.88025">
        <ele>308</ele>
        <time>2022-09-05T10:17:33.000Z</time>
      </trkpt>
      <trkpt lat="49.79626" lon="4.88023">
        <ele>309</ele>
        <time>2022-09-05T10:17:34.000Z</time>
      </trkpt>
      <trkpt lat="49.79622" lon="4.88021">
        <ele>309</ele>
        <time>2022-09-05T10:17:35.000Z</time>
      </trkpt>
      <trkpt lat="49.79619" lon="4.8802">
        <ele>309</ele>
        <time>2022-09-05T10:17:36.000Z</time>
      </trkpt>
      <trkpt lat="49.79615" lon="4.88021">
        <ele>309</ele>
        <time>2022-09-05T10:17:37.000Z</time>
      </trkpt>
      <trkpt lat="49.79612" lon="4.88023">
        <ele>309</ele>
        <time>2022-09-05T10:17:38.000Z</time>
      </trkpt>
      <trkpt lat="49.79609" lon="4.88024">
        <ele>309</ele>
        <time>2022-09-05T10:17:39.000Z</time>
      </trkpt>
      <trkpt lat="49.79605" lon="4.88027">
        <ele>309</ele>
        <time>2022-09-05T10:17:40.000Z</time>
      </trkpt>
      <trkpt lat="49.79601" lon="4.88028">
        <ele>308</ele>
        <time>2022-09-05T10:17:41.000Z</time>
      </trkpt>
      <trkpt lat="49.79597" lon="4.8803">
        <ele>308</ele>
        <time>2022-09-05T10:17:42.000Z</time>
      </trkpt>
      <trkpt lat="49.79593" lon="4.88031">
        <ele>308</ele>
        <time>2022-09-05T10:17:43.000Z</time>
      </trkpt>
      <trkpt lat="49.7959" lon="4.88032">
        <ele>308</ele>
        <time>2022-09-05T10:17:44.000Z</time>
      </trkpt>
      <trkpt lat="49.79585" lon="4.88033">
        <ele>308</ele>
        <time>2022-09-05T10:17:45.000Z</time>
      </trkpt>
      <trkpt lat="49.7958" lon="4.88034">
        <ele>308</ele>
        <time>2022-09-05T10:17:46.000Z</time>
      </trkpt>
      <trkpt lat="49.79576" lon="4.88034">
        <ele>308</ele>
        <time>2022-09-05T10:17:47.000Z</time>
      </trkpt>
      <trkpt lat="49.79572" lon="4.88033">
        <ele>307</ele>
        <time>2022-09-05T10:17:48.000Z</time>
      </trkpt>
      <trkpt lat="49.79568" lon="4.88032">
        <ele>307</ele>
        <time>2022-09-05T10:17:49.000Z</time>
      </trkpt>
      <trkpt lat="49.79564" lon="4.88032">
        <ele>307</ele>
        <time>2022-09-05T10:17:50.000Z</time>
      </trkpt>
      <trkpt lat="49.7956" lon="4.88032">
        <ele>307</ele>
        <time>2022-09-05T10:17:51.000Z</time>
      </trkpt>
      <trkpt lat="49.79556" lon="4.88032">
        <ele>307</ele>
        <time>2022-09-05T10:17:52.000Z</time>
      </trkpt>
      <trkpt lat="49.79552" lon="4.88032">
        <ele>307</ele>
        <time>2022-09-05T10:17:53.000Z</time>
      </trkpt>
      <trkpt lat="49.79549" lon="4.88032">
        <ele>307</ele>
        <time>2022-09-05T10:17:54.000Z</time>
      </trkpt>
      <trkpt lat="49.79545" lon="4.88032">
        <ele>307</ele>
        <time>2022-09-05T10:17:55.000Z</time>
      </trkpt>
      <trkpt lat="49.79542" lon="4.88031">
        <ele>307</ele>
        <time>2022-09-05T10:17:56.000Z</time>
      </trkpt>
      <trkpt lat="49.79538" lon="4.88031">
        <ele>307</ele>
        <time>2022-09-05T10:17:57.000Z</time>
      </trkpt>
      <trkpt lat="49.79534" lon="4.88031">
        <ele>307</ele>
        <time>2022-09-05T10:17:58.000Z</time>
      </trkpt>
      <trkpt lat="49.79529" lon="4.8803">
        <ele>307</ele>
        <time>2022-09-05T10:17:59.000Z</time>
      </trkpt>
      <trkpt lat="49.79525" lon="4.88029">
        <ele>307</ele>
        <time>2022-09-05T10:18:00.000Z</time>
      </trkpt>
      <trkpt lat="49.79521" lon="4.88029">
        <ele>307</ele>
        <time>2022-09-05T10:18:01.000Z</time>
      </trkpt>
      <trkpt lat="49.79518" lon="4.88028">
        <ele>307</ele>
        <time>2022-09-05T10:18:02.000Z</time>
      </trkpt>
      <trkpt lat="49.79514" lon="4.88028">
        <ele>307</ele>
        <time>2022-09-05T10:18:03.000Z</time>
      </trkpt>
      <trkpt lat="49.7951" lon="4.88028">
        <ele>307</ele>
        <time>2022-09-05T10:18:04.000Z</time>
      </trkpt>
      <trkpt lat="49.79507" lon="4.88027">
        <ele>307</ele>
        <time>2022-09-05T10:18:05.000Z</time>
      </trkpt>
      <trkpt lat="49.79503" lon="4.88027">
        <ele>307</ele>
        <time>2022-09-05T10:18:06.000Z</time>
      </trkpt>
      <trkpt lat="49.79499" lon="4.88027">
        <ele>307</ele>
        <time>2022-09-05T10:18:07.000Z</time>
      </trkpt>
      <trkpt lat="49.79495" lon="4.88026">
        <ele>307</ele>
        <time>2022-09-05T10:18:08.000Z</time>
      </trkpt>
      <trkpt lat="49.79492" lon="4.88026">
        <ele>307</ele>
        <time>2022-09-05T10:18:09.000Z</time>
      </trkpt>
      <trkpt lat="49.79488" lon="4.88025">
        <ele>307</ele>
        <time>2022-09-05T10:18:10.000Z</time>
      </trkpt>
      <trkpt lat="49.79485" lon="4.88025">
        <ele>307</ele>
        <time>2022-09-05T10:18:11.000Z</time>
      </trkpt>
      <trkpt lat="49.79482" lon="4.88025">
        <ele>307</ele>
        <time>2022-09-05T10:18:12.000Z</time>
      </trkpt>
      <trkpt lat="49.79478" lon="4.88025">
        <ele>307</ele>
        <time>2022-09-05T10:18:13.000Z</time>
      </trkpt>
      <trkpt lat="49.79475" lon="4.88025">
        <ele>307</ele>
        <time>2022-09-05T10:18:14.000Z</time>
      </trkpt>
      <trkpt lat="49.79472" lon="4.88024">
        <ele>307</ele>
        <time>2022-09-05T10:18:15.000Z</time>
      </trkpt>
      <trkpt lat="49.79469" lon="4.88023">
        <ele>307</ele>
        <time>2022-09-05T10:18:16.000Z</time>
      </trkpt>
      <trkpt lat="49.79466" lon="4.88023">
        <ele>307</ele>
        <time>2022-09-05T10:18:17.000Z</time>
      </trkpt>
      <trkpt lat="49.79463" lon="4.88023">
        <ele>307</ele>
        <time>2022-09-05T10:18:18.000Z</time>
      </trkpt>
      <trkpt lat="49.7946" lon="4.88023">
        <ele>307</ele>
        <time>2022-09-05T10:18:19.000Z</time>
      </trkpt>
      <trkpt lat="49.79457" lon="4.88023">
        <ele>307</ele>
        <time>2022-09-05T10:18:20.000Z</time>
      </trkpt>
      <trkpt lat="49.79454" lon="4.88023">
        <ele>307</ele>
        <time>2022-09-05T10:18:21.000Z</time>
      </trkpt>
      <trkpt lat="49.79451" lon="4.88023">
        <ele>307</ele>
        <time>2022-09-05T10:18:22.000Z</time>
      </trkpt>
      <trkpt lat="49.79448" lon="4.88023">
        <ele>307</ele>
        <time>2022-09-05T10:18:23.000Z</time>
      </trkpt>
      <trkpt lat="49.79445" lon="4.88023">
        <ele>307</ele>
        <time>2022-09-05T10:18:24.000Z</time>
      </trkpt>
      <trkpt lat="49.79441" lon="4.88024">
        <ele>307</ele>
        <time>2022-09-05T10:18:25.000Z</time>
      </trkpt>
      <trkpt lat="49.79438" lon="4.88025">
        <ele>307</ele>
        <time>2022-09-05T10:18:26.000Z</time>
      </trkpt>
      <trkpt lat="49.79435" lon="4.88025">
        <ele>307</ele>
        <time>2022-09-05T10:18:27.000Z</time>
      </trkpt>
      <trkpt lat="49.79432" lon="4.88026">
        <ele>307</ele>
        <time>2022-09-05T10:18:28.000Z</time>
      </trkpt>
      <trkpt lat="49.79429" lon="4.88027">
        <ele>308</ele>
        <time>2022-09-05T10:18:29.000Z</time>
      </trkpt>
      <trkpt lat="49.79427" lon="4.88027">
        <ele>308</ele>
        <time>2022-09-05T10:18:30.000Z</time>
      </trkpt>
      <trkpt lat="49.79424" lon="4.88028">
        <ele>308</ele>
        <time>2022-09-05T10:18:31.000Z</time>
      </trkpt>
      <trkpt lat="49.79422" lon="4.8803">
        <ele>308</ele>
        <time>2022-09-05T10:18:32.000Z</time>
      </trkpt>
      <trkpt lat="49.7942" lon="4.88032">
        <ele>308</ele>
        <time>2022-09-05T10:18:33.000Z</time>
      </trkpt>
      <trkpt lat="49.79417" lon="4.88035">
        <ele>308</ele>
        <time>2022-09-05T10:18:34.000Z</time>
      </trkpt>
      <trkpt lat="49.79414" lon="4.88036">
        <ele>308</ele>
        <time>2022-09-05T10:18:35.000Z</time>
      </trkpt>
      <trkpt lat="49.79411" lon="4.88037">
        <ele>308</ele>
        <time>2022-09-05T10:18:36.000Z</time>
      </trkpt>
      <trkpt lat="49.79409" lon="4.88038">
        <ele>309</ele>
        <time>2022-09-05T10:18:37.000Z</time>
      </trkpt>
      <trkpt lat="49.79407" lon="4.88039">
        <ele>309</ele>
        <time>2022-09-05T10:18:38.000Z</time>
      </trkpt>
      <trkpt lat="49.79405" lon="4.8804">
        <ele>309</ele>
        <time>2022-09-05T10:18:39.000Z</time>
      </trkpt>
      <trkpt lat="49.79402" lon="4.88041">
        <ele>309</ele>
        <time>2022-09-05T10:18:40.000Z</time>
      </trkpt>
      <trkpt lat="49.79399" lon="4.88042">
        <ele>309</ele>
        <time>2022-09-05T10:18:41.000Z</time>
      </trkpt>
      <trkpt lat="49.79396" lon="4.88042">
        <ele>309</ele>
        <time>2022-09-05T10:18:42.000Z</time>
      </trkpt>
      <trkpt lat="49.79394" lon="4.88041">
        <ele>309</ele>
        <time>2022-09-05T10:18:43.000Z</time>
      </trkpt>
      <trkpt lat="49.79392" lon="4.88041">
        <ele>309</ele>
        <time>2022-09-05T10:18:44.000Z</time>
      </trkpt>
      <trkpt lat="49.7939" lon="4.88041">
        <ele>309</ele>
        <time>2022-09-05T10:18:45.000Z</time>
      </trkpt>
      <trkpt lat="49.79388" lon="4.88041">
        <ele>309</ele>
        <time>2022-09-05T10:18:46.000Z</time>
      </trkpt>
      <trkpt lat="49.79385" lon="4.8804">
        <ele>309</ele>
        <time>2022-09-05T10:18:47.000Z</time>
      </trkpt>
      <trkpt lat="49.79383" lon="4.88039">
        <ele>309</ele>
        <time>2022-09-05T10:18:48.000Z</time>
      </trkpt>
      <trkpt lat="49.7938" lon="4.88038">
        <ele>309</ele>
        <time>2022-09-05T10:18:49.000Z</time>
      </trkpt>
      <trkpt lat="49.79377" lon="4.88039">
        <ele>310</ele>
        <time>2022-09-05T10:18:50.000Z</time>
      </trkpt>
      <trkpt lat="49.79374" lon="4.88039">
        <ele>310</ele>
        <time>2022-09-05T10:18:51.000Z</time>
      </trkpt>
      <trkpt lat="49.79371" lon="4.8804">
        <ele>310</ele>
        <time>2022-09-05T10:18:52.000Z</time>
      </trkpt>
      <trkpt lat="49.79369" lon="4.88041">
        <ele>310</ele>
        <time>2022-09-05T10:18:53.000Z</time>
      </trkpt>
      <trkpt lat="49.79367" lon="4.88041">
        <ele>310</ele>
        <time>2022-09-05T10:18:54.000Z</time>
      </trkpt>
      <trkpt lat="49.79364" lon="4.88041">
        <ele>311</ele>
        <time>2022-09-05T10:18:55.000Z</time>
      </trkpt>
      <trkpt lat="49.79362" lon="4.88041">
        <ele>311</ele>
        <time>2022-09-05T10:18:56.000Z</time>
      </trkpt>
      <trkpt lat="49.7936" lon="4.88041">
        <ele>311</ele>
        <time>2022-09-05T10:18:57.000Z</time>
      </trkpt>
      <trkpt lat="49.79359" lon="4.88042">
        <ele>311</ele>
        <time>2022-09-05T10:18:58.000Z</time>
      </trkpt>
      <trkpt lat="49.79358" lon="4.88042">
        <ele>312</ele>
        <time>2022-09-05T10:18:59.000Z</time>
      </trkpt>
      <trkpt lat="49.79357" lon="4.88041">
        <ele>312</ele>
        <time>2022-09-05T10:19:00.000Z</time>
      </trkpt>
      <trkpt lat="49.79356" lon="4.88041">
        <ele>312</ele>
        <time>2022-09-05T10:19:01.000Z</time>
      </trkpt>
      <trkpt lat="49.79355" lon="4.88041">
        <ele>313</ele>
        <time>2022-09-05T10:19:02.000Z</time>
      </trkpt>
      <trkpt lat="49.79354" lon="4.88042">
        <ele>313</ele>
        <time>2022-09-05T10:19:03.000Z</time>
      </trkpt>
      <trkpt lat="49.79353" lon="4.88043">
        <ele>313</ele>
        <time>2022-09-05T10:19:04.000Z</time>
      </trkpt>
      <trkpt lat="49.79352" lon="4.88044">
        <ele>314</ele>
        <time>2022-09-05T10:19:05.000Z</time>
      </trkpt>
      <trkpt lat="49.79351" lon="4.88045">
        <ele>314</ele>
        <time>2022-09-05T10:19:06.000Z</time>
      </trkpt>
      <trkpt lat="49.79349" lon="4.88047">
        <ele>314</ele>
        <time>2022-09-05T10:19:07.000Z</time>
      </trkpt>
      <trkpt lat="49.79348" lon="4.88048">
        <ele>315</ele>
        <time>2022-09-05T10:19:08.000Z</time>
      </trkpt>
      <trkpt lat="49.79347" lon="4.88048">
        <ele>315</ele>
        <time>2022-09-05T10:19:09.000Z</time>
      </trkpt>
      <trkpt lat="49.79346" lon="4.8805">
        <ele>315</ele>
        <time>2022-09-05T10:19:10.000Z</time>
      </trkpt>
      <trkpt lat="49.79344" lon="4.88051">
        <ele>315</ele>
        <time>2022-09-05T10:19:11.000Z</time>
      </trkpt>
      <trkpt lat="49.79343" lon="4.88052">
        <ele>316</ele>
        <time>2022-09-05T10:19:12.000Z</time>
      </trkpt>
      <trkpt lat="49.79342" lon="4.88053">
        <ele>316</ele>
        <time>2022-09-05T10:19:13.000Z</time>
      </trkpt>
      <trkpt lat="49.79341" lon="4.88054">
        <ele>316</ele>
        <time>2022-09-05T10:19:14.000Z</time>
      </trkpt>
      <trkpt lat="49.79339" lon="4.88055">
        <ele>316</ele>
        <time>2022-09-05T10:19:15.000Z</time>
      </trkpt>
      <trkpt lat="49.79338" lon="4.88056">
        <ele>316</ele>
        <time>2022-09-05T10:19:16.000Z</time>
      </trkpt>
      <trkpt lat="49.79338" lon="4.88057">
        <ele>316</ele>
        <time>2022-09-05T10:19:17.000Z</time>
      </trkpt>
      <trkpt lat="49.79337" lon="4.88058">
        <ele>317</ele>
        <time>2022-09-05T10:19:18.000Z</time>
      </trkpt>
      <trkpt lat="49.79335" lon="4.88058">
        <ele>317</ele>
        <time>2022-09-05T10:19:19.000Z</time>
      </trkpt>
      <trkpt lat="49.79334" lon="4.88059">
        <ele>317</ele>
        <time>2022-09-05T10:19:20.000Z</time>
      </trkpt>
      <trkpt lat="49.79333" lon="4.88059">
        <ele>317</ele>
        <time>2022-09-05T10:19:21.000Z</time>
      </trkpt>
      <trkpt lat="49.79332" lon="4.8806">
        <ele>317</ele>
        <time>2022-09-05T10:19:22.000Z</time>
      </trkpt>
      <trkpt lat="49.79331" lon="4.8806">
        <ele>317</ele>
        <time>2022-09-05T10:19:23.000Z</time>
      </trkpt>
      <trkpt lat="49.7933" lon="4.8806">
        <ele>317</ele>
        <time>2022-09-05T10:19:24.000Z</time>
      </trkpt>
      <trkpt lat="49.79328" lon="4.88061">
        <ele>317</ele>
        <time>2022-09-05T10:19:25.000Z</time>
      </trkpt>
      <trkpt lat="49.79327" lon="4.88061">
        <ele>317</ele>
        <time>2022-09-05T10:19:26.000Z</time>
      </trkpt>
      <trkpt lat="49.79325" lon="4.88061">
        <ele>318</ele>
        <time>2022-09-05T10:19:27.000Z</time>
      </trkpt>
      <trkpt lat="49.79324" lon="4.88062">
        <ele>318</ele>
        <time>2022-09-05T10:19:28.000Z</time>
      </trkpt>
      <trkpt lat="49.79322" lon="4.88062">
        <ele>318</ele>
        <time>2022-09-05T10:19:29.000Z</time>
      </trkpt>
      <trkpt lat="49.79321" lon="4.88063">
        <ele>318</ele>
        <time>2022-09-05T10:19:30.000Z</time>
      </trkpt>
      <trkpt lat="49.7932" lon="4.88064">
        <ele>318</ele>
        <time>2022-09-05T10:19:31.000Z</time>
      </trkpt>
      <trkpt lat="49.79319" lon="4.88065">
        <ele>318</ele>
        <time>2022-09-05T10:19:32.000Z</time>
      </trkpt>
      <trkpt lat="49.79317" lon="4.88065">
        <ele>318</ele>
        <time>2022-09-05T10:19:33.000Z</time>
      </trkpt>
      <trkpt lat="49.79316" lon="4.88066">
        <ele>318</ele>
        <time>2022-09-05T10:19:34.000Z</time>
      </trkpt>
      <trkpt lat="49.79315" lon="4.88067">
        <ele>318</ele>
        <time>2022-09-05T10:19:35.000Z</time>
      </trkpt>
      <trkpt lat="49.79315" lon="4.88069">
        <ele>319</ele>
        <time>2022-09-05T10:19:36.000Z</time>
      </trkpt>
      <trkpt lat="49.79314" lon="4.8807">
        <ele>319</ele>
        <time>2022-09-05T10:19:37.000Z</time>
      </trkpt>
      <trkpt lat="49.79313" lon="4.8807">
        <ele>319</ele>
        <time>2022-09-05T10:19:38.000Z</time>
      </trkpt>
      <trkpt lat="49.79312" lon="4.88071">
        <ele>319</ele>
        <time>2022-09-05T10:19:39.000Z</time>
      </trkpt>
      <trkpt lat="49.79312" lon="4.88072">
        <ele>319</ele>
        <time>2022-09-05T10:19:40.000Z</time>
      </trkpt>
      <trkpt lat="49.79311" lon="4.88073">
        <ele>319</ele>
        <time>2022-09-05T10:19:41.000Z</time>
      </trkpt>
      <trkpt lat="49.7931" lon="4.88074">
        <ele>319</ele>
        <time>2022-09-05T10:19:42.000Z</time>
      </trkpt>
      <trkpt lat="49.7931" lon="4.88075">
        <ele>319</ele>
        <time>2022-09-05T10:19:43.000Z</time>
      </trkpt>
      <trkpt lat="49.79309" lon="4.88075">
        <ele>319</ele>
        <time>2022-09-05T10:19:44.000Z</time>
      </trkpt>
      <trkpt lat="49.79308" lon="4.88075">
        <ele>319</ele>
        <time>2022-09-05T10:19:45.000Z</time>
      </trkpt>
      <trkpt lat="49.79308" lon="4.88075">
        <ele>319</ele>
        <time>2022-09-05T10:19:46.000Z</time>
      </trkpt>
      <trkpt lat="49.79307" lon="4.88075">
        <ele>319</ele>
        <time>2022-09-05T10:19:47.000Z</time>
      </trkpt>
      <trkpt lat="49.79306" lon="4.88075">
        <ele>319</ele>
        <time>2022-09-05T10:19:48.000Z</time>
      </trkpt>
      <trkpt lat="49.79306" lon="4.88076">
        <ele>319</ele>
        <time>2022-09-05T10:19:49.000Z</time>
      </trkpt>
      <trkpt lat="49.79306" lon="4.88075">
        <ele>318</ele>
        <time>2022-09-05T10:19:50.000Z</time>
      </trkpt>
      <trkpt lat="49.79305" lon="4.88075">
        <ele>319</ele>
        <time>2022-09-05T10:19:51.000Z</time>
      </trkpt>
      <trkpt lat="49.79306" lon="4.88075">
        <ele>319</ele>
        <time>2022-09-05T10:19:52.000Z</time>
      </trkpt>
      <trkpt lat="49.79307" lon="4.88074">
        <ele>318</ele>
        <time>2022-09-05T10:19:53.000Z</time>
      </trkpt>
      <trkpt lat="49.79308" lon="4.88074">
        <ele>318</ele>
        <time>2022-09-05T10:19:54.000Z</time>
      </trkpt>
      <trkpt lat="49.79309" lon="4.88074">
        <ele>318</ele>
        <time>2022-09-05T10:19:55.000Z</time>
      </trkpt>
      <trkpt lat="49.7931" lon="4.88073">
        <ele>318</ele>
        <time>2022-09-05T10:19:56.000Z</time>
      </trkpt>
      <trkpt lat="49.7931" lon="4.88072">
        <ele>318</ele>
        <time>2022-09-05T10:19:57.000Z</time>
      </trkpt>
      <trkpt lat="49.79311" lon="4.88071">
        <ele>318</ele>
        <time>2022-09-05T10:19:58.000Z</time>
      </trkpt>
      <trkpt lat="49.79312" lon="4.88069">
        <ele>318</ele>
        <time>2022-09-05T10:19:59.000Z</time>
      </trkpt>
      <trkpt lat="49.79313" lon="4.88069">
        <ele>318</ele>
        <time>2022-09-05T10:20:00.000Z</time>
      </trkpt>
      <trkpt lat="49.79314" lon="4.88068">
        <ele>318</ele>
        <time>2022-09-05T10:20:01.000Z</time>
      </trkpt>
      <trkpt lat="49.79315" lon="4.88066">
        <ele>318</ele>
        <time>2022-09-05T10:20:02.000Z</time>
      </trkpt>
      <trkpt lat="49.79316" lon="4.88065">
        <ele>318</ele>
        <time>2022-09-05T10:20:03.000Z</time>
      </trkpt>
      <trkpt lat="49.79317" lon="4.88064">
        <ele>318</ele>
        <time>2022-09-05T10:20:04.000Z</time>
      </trkpt>
      <trkpt lat="49.79317" lon="4.88063">
        <ele>318</ele>
        <time>2022-09-05T10:20:05.000Z</time>
      </trkpt>
      <trkpt lat="49.79317" lon="4.88063">
        <ele>318</ele>
        <time>2022-09-05T10:20:06.000Z</time>
      </trkpt>
      <trkpt lat="49.79318" lon="4.88062">
        <ele>318</ele>
        <time>2022-09-05T10:20:07.000Z</time>
      </trkpt>
      <trkpt lat="49.79319" lon="4.88062">
        <ele>318</ele>
        <time>2022-09-05T10:20:08.000Z</time>
      </trkpt>
      <trkpt lat="49.79321" lon="4.88061">
        <ele>318</ele>
        <time>2022-09-05T10:20:09.000Z</time>
      </trkpt>
      <trkpt lat="49.79323" lon="4.8806">
        <ele>318</ele>
        <time>2022-09-05T10:20:10.000Z</time>
      </trkpt>
      <trkpt lat="49.79325" lon="4.8806">
        <ele>318</ele>
        <time>2022-09-05T10:20:11.000Z</time>
      </trkpt>
      <trkpt lat="49.79327" lon="4.88059">
        <ele>318</ele>
        <time>2022-09-05T10:20:12.000Z</time>
      </trkpt>
      <trkpt lat="49.79329" lon="4.88059">
        <ele>318</ele>
        <time>2022-09-05T10:20:13.000Z</time>
      </trkpt>
      <trkpt lat="49.79331" lon="4.88058">
        <ele>318</ele>
        <time>2022-09-05T10:20:14.000Z</time>
      </trkpt>
      <trkpt lat="49.79334" lon="4.88057">
        <ele>318</ele>
        <time>2022-09-05T10:20:15.000Z</time>
      </trkpt>
      <trkpt lat="49.79336" lon="4.88056">
        <ele>318</ele>
        <time>2022-09-05T10:20:16.000Z</time>
      </trkpt>
      <trkpt lat="49.79338" lon="4.88054">
        <ele>318</ele>
        <time>2022-09-05T10:20:17.000Z</time>
      </trkpt>
      <trkpt lat="49.79341" lon="4.88053">
        <ele>317</ele>
        <time>2022-09-05T10:20:18.000Z</time>
      </trkpt>
      <trkpt lat="49.79343" lon="4.88051">
        <ele>317</ele>
        <time>2022-09-05T10:20:19.000Z</time>
      </trkpt>
      <trkpt lat="49.79345" lon="4.88049">
        <ele>318</ele>
        <time>2022-09-05T10:20:20.000Z</time>
      </trkpt>
      <trkpt lat="49.79347" lon="4.88048">
        <ele>318</ele>
        <time>2022-09-05T10:20:21.000Z</time>
      </trkpt>
      <trkpt lat="49.79348" lon="4.88047">
        <ele>318</ele>
        <time>2022-09-05T10:20:22.000Z</time>
      </trkpt>
      <trkpt lat="49.7935" lon="4.88046">
        <ele>318</ele>
        <time>2022-09-05T10:20:23.000Z</time>
      </trkpt>
      <trkpt lat="49.79352" lon="4.88045">
        <ele>318</ele>
        <time>2022-09-05T10:20:24.000Z</time>
      </trkpt>
      <trkpt lat="49.79354" lon="4.88045">
        <ele>318</ele>
        <time>2022-09-05T10:20:25.000Z</time>
      </trkpt>
      <trkpt lat="49.79356" lon="4.88045">
        <ele>318</ele>
        <time>2022-09-05T10:20:26.000Z</time>
      </trkpt>
      <trkpt lat="49.79356" lon="4.88045">
        <ele>318</ele>
        <time>2022-09-05T10:20:27.000Z</time>
      </trkpt>
      <trkpt lat="49.79357" lon="4.88045">
        <ele>319</ele>
        <time>2022-09-05T10:20:28.000Z</time>
      </trkpt>
      <trkpt lat="49.79358" lon="4.88045">
        <ele>319</ele>
        <time>2022-09-05T10:20:29.000Z</time>
      </trkpt>
      <trkpt lat="49.79359" lon="4.88045">
        <ele>319</ele>
        <time>2022-09-05T10:20:30.000Z</time>
      </trkpt>
      <trkpt lat="49.7936" lon="4.88045">
        <ele>319</ele>
        <time>2022-09-05T10:20:31.000Z</time>
      </trkpt>
      <trkpt lat="49.79361" lon="4.88044">
        <ele>319</ele>
        <time>2022-09-05T10:20:32.000Z</time>
      </trkpt>
      <trkpt lat="49.79363" lon="4.88044">
        <ele>320</ele>
        <time>2022-09-05T10:20:33.000Z</time>
      </trkpt>
      <trkpt lat="49.79364" lon="4.88044">
        <ele>320</ele>
        <time>2022-09-05T10:20:34.000Z</time>
      </trkpt>
      <trkpt lat="49.79366" lon="4.88044">
        <ele>320</ele>
        <time>2022-09-05T10:20:35.000Z</time>
      </trkpt>
      <trkpt lat="49.79368" lon="4.88043">
        <ele>320</ele>
        <time>2022-09-05T10:20:36.000Z</time>
      </trkpt>
      <trkpt lat="49.79369" lon="4.88043">
        <ele>320</ele>
        <time>2022-09-05T10:20:37.000Z</time>
      </trkpt>
      <trkpt lat="49.79369" lon="4.88043">
        <ele>320</ele>
        <time>2022-09-05T10:20:38.000Z</time>
      </trkpt>
      <trkpt lat="49.79369" lon="4.88043">
        <ele>320</ele>
        <time>2022-09-05T10:20:39.000Z</time>
      </trkpt>
      <trkpt lat="49.7937" lon="4.88043">
        <ele>320</ele>
        <time>2022-09-05T10:20:40.000Z</time>
      </trkpt>
      <trkpt lat="49.7937" lon="4.88042">
        <ele>320</ele>
        <time>2022-09-05T10:20:41.000Z</time>
      </trkpt>
      <trkpt lat="49.79371" lon="4.88043">
        <ele>321</ele>
        <time>2022-09-05T10:20:42.000Z</time>
      </trkpt>
      <trkpt lat="49.79372" lon="4.88043">
        <ele>321</ele>
        <time>2022-09-05T10:20:43.000Z</time>
      </trkpt>
      <trkpt lat="49.79373" lon="4.88043">
        <ele>321</ele>
        <time>2022-09-05T10:20:44.000Z</time>
      </trkpt>
      <trkpt lat="49.79375" lon="4.88043">
        <ele>321</ele>
        <time>2022-09-05T10:20:45.000Z</time>
      </trkpt>
      <trkpt lat="49.79378" lon="4.88042">
        <ele>321</ele>
        <time>2022-09-05T10:20:46.000Z</time>
      </trkpt>
      <trkpt lat="49.79381" lon="4.88042">
        <ele>321</ele>
        <time>2022-09-05T10:20:47.000Z</time>
      </trkpt>
      <trkpt lat="49.79383" lon="4.88042">
        <ele>321</ele>
        <time>2022-09-05T10:20:48.000Z</time>
      </trkpt>
      <trkpt lat="49.79385" lon="4.88042">
        <ele>320</ele>
        <time>2022-09-05T10:20:49.000Z</time>
      </trkpt>
      <trkpt lat="49.79387" lon="4.88042">
        <ele>320</ele>
        <time>2022-09-05T10:20:50.000Z</time>
      </trkpt>
      <trkpt lat="49.7939" lon="4.88042">
        <ele>320</ele>
        <time>2022-09-05T10:20:51.000Z</time>
      </trkpt>
      <trkpt lat="49.79393" lon="4.88043">
        <ele>320</ele>
        <time>2022-09-05T10:20:52.000Z</time>
      </trkpt>
      <trkpt lat="49.79396" lon="4.88043">
        <ele>320</ele>
        <time>2022-09-05T10:20:53.000Z</time>
      </trkpt>
      <trkpt lat="49.79399" lon="4.88042">
        <ele>320</ele>
        <time>2022-09-05T10:20:54.000Z</time>
      </trkpt>
      <trkpt lat="49.79401" lon="4.88041">
        <ele>320</ele>
        <time>2022-09-05T10:20:55.000Z</time>
      </trkpt>
      <trkpt lat="49.79403" lon="4.8804">
        <ele>319</ele>
        <time>2022-09-05T10:20:56.000Z</time>
      </trkpt>
      <trkpt lat="49.79406" lon="4.88039">
        <ele>319</ele>
        <time>2022-09-05T10:20:57.000Z</time>
      </trkpt>
      <trkpt lat="49.79408" lon="4.88037">
        <ele>319</ele>
        <time>2022-09-05T10:20:58.000Z</time>
      </trkpt>
      <trkpt lat="49.79411" lon="4.88037">
        <ele>318</ele>
        <time>2022-09-05T10:20:59.000Z</time>
      </trkpt>
      <trkpt lat="49.79413" lon="4.88035">
        <ele>318</ele>
        <time>2022-09-05T10:21:00.000Z</time>
      </trkpt>
      <trkpt lat="49.79416" lon="4.88034">
        <ele>318</ele>
        <time>2022-09-05T10:21:01.000Z</time>
      </trkpt>
      <trkpt lat="49.79418" lon="4.88031">
        <ele>317</ele>
        <time>2022-09-05T10:21:02.000Z</time>
      </trkpt>
      <trkpt lat="49.7942" lon="4.88029">
        <ele>317</ele>
        <time>2022-09-05T10:21:03.000Z</time>
      </trkpt>
      <trkpt lat="49.79423" lon="4.88028">
        <ele>317</ele>
        <time>2022-09-05T10:21:04.000Z</time>
      </trkpt>
      <trkpt lat="49.79425" lon="4.88027">
        <ele>316</ele>
        <time>2022-09-05T10:21:05.000Z</time>
      </trkpt>
      <trkpt lat="49.79428" lon="4.88026">
        <ele>316</ele>
        <time>2022-09-05T10:21:06.000Z</time>
      </trkpt>
      <trkpt lat="49.79431" lon="4.88026">
        <ele>315</ele>
        <time>2022-09-05T10:21:07.000Z</time>
      </trkpt>
      <trkpt lat="49.79433" lon="4.88025">
        <ele>315</ele>
        <time>2022-09-05T10:21:08.000Z</time>
      </trkpt>
      <trkpt lat="49.79437" lon="4.88025">
        <ele>315</ele>
        <time>2022-09-05T10:21:09.000Z</time>
      </trkpt>
      <trkpt lat="49.7944" lon="4.88025">
        <ele>315</ele>
        <time>2022-09-05T10:21:10.000Z</time>
      </trkpt>
      <trkpt lat="49.79442" lon="4.88024">
        <ele>314</ele>
        <time>2022-09-05T10:21:11.000Z</time>
      </trkpt>
      <trkpt lat="49.79445" lon="4.88023">
        <ele>314</ele>
        <time>2022-09-05T10:21:12.000Z</time>
      </trkpt>
      <trkpt lat="49.79448" lon="4.88023">
        <ele>314</ele>
        <time>2022-09-05T10:21:13.000Z</time>
      </trkpt>
      <trkpt lat="49.79451" lon="4.88023">
        <ele>313</ele>
        <time>2022-09-05T10:21:14.000Z</time>
      </trkpt>
      <trkpt lat="49.79454" lon="4.88023">
        <ele>313</ele>
        <time>2022-09-05T10:21:15.000Z</time>
      </trkpt>
      <trkpt lat="49.79458" lon="4.88023">
        <ele>313</ele>
        <time>2022-09-05T10:21:16.000Z</time>
      </trkpt>
      <trkpt lat="49.79462" lon="4.88023">
        <ele>313</ele>
        <time>2022-09-05T10:21:17.000Z</time>
      </trkpt>
      <trkpt lat="49.79466" lon="4.88023">
        <ele>312</ele>
        <time>2022-09-05T10:21:18.000Z</time>
      </trkpt>
      <trkpt lat="49.79469" lon="4.88023">
        <ele>312</ele>
        <time>2022-09-05T10:21:19.000Z</time>
      </trkpt>
      <trkpt lat="49.79473" lon="4.88023">
        <ele>312</ele>
        <time>2022-09-05T10:21:20.000Z</time>
      </trkpt>
      <trkpt lat="49.79477" lon="4.88024">
        <ele>312</ele>
        <time>2022-09-05T10:21:21.000Z</time>
      </trkpt>
      <trkpt lat="49.7948" lon="4.88024">
        <ele>311</ele>
        <time>2022-09-05T10:21:22.000Z</time>
      </trkpt>
      <trkpt lat="49.79483" lon="4.88023">
        <ele>311</ele>
        <time>2022-09-05T10:21:23.000Z</time>
      </trkpt>
      <trkpt lat="49.79485" lon="4.88023">
        <ele>311</ele>
        <time>2022-09-05T10:21:24.000Z</time>
      </trkpt>
      <trkpt lat="49.79488" lon="4.88023">
        <ele>310</ele>
        <time>2022-09-05T10:21:25.000Z</time>
      </trkpt>
      <trkpt lat="49.79491" lon="4.88024">
        <ele>310</ele>
        <time>2022-09-05T10:21:26.000Z</time>
      </trkpt>
      <trkpt lat="49.79494" lon="4.88024">
        <ele>310</ele>
        <time>2022-09-05T10:21:27.000Z</time>
      </trkpt>
      <trkpt lat="49.79498" lon="4.88025">
        <ele>310</ele>
        <time>2022-09-05T10:21:28.000Z</time>
      </trkpt>
      <trkpt lat="49.79502" lon="4.88025">
        <ele>310</ele>
        <time>2022-09-05T10:21:29.000Z</time>
      </trkpt>
      <trkpt lat="49.79505" lon="4.88025">
        <ele>309</ele>
        <time>2022-09-05T10:21:30.000Z</time>
      </trkpt>
      <trkpt lat="49.79508" lon="4.88025">
        <ele>309</ele>
        <time>2022-09-05T10:21:31.000Z</time>
      </trkpt>
      <trkpt lat="49.79511" lon="4.88025">
        <ele>309</ele>
        <time>2022-09-05T10:21:32.000Z</time>
      </trkpt>
      <trkpt lat="49.79514" lon="4.88025">
        <ele>309</ele>
        <time>2022-09-05T10:21:33.000Z</time>
      </trkpt>
      <trkpt lat="49.79518" lon="4.88025">
        <ele>309</ele>
        <time>2022-09-05T10:21:34.000Z</time>
      </trkpt>
      <trkpt lat="49.79522" lon="4.88025">
        <ele>309</ele>
        <time>2022-09-05T10:21:35.000Z</time>
      </trkpt>
      <trkpt lat="49.79526" lon="4.88026">
        <ele>308</ele>
        <time>2022-09-05T10:21:36.000Z</time>
      </trkpt>
      <trkpt lat="49.79529" lon="4.88027">
        <ele>308</ele>
        <time>2022-09-05T10:21:37.000Z</time>
      </trkpt>
      <trkpt lat="49.79533" lon="4.88027">
        <ele>308</ele>
        <time>2022-09-05T10:21:38.000Z</time>
      </trkpt>
      <trkpt lat="49.79536" lon="4.88027">
        <ele>308</ele>
        <time>2022-09-05T10:21:39.000Z</time>
      </trkpt>
      <trkpt lat="49.7954" lon="4.88027">
        <ele>308</ele>
        <time>2022-09-05T10:21:40.000Z</time>
      </trkpt>
      <trkpt lat="49.79543" lon="4.88027">
        <ele>308</ele>
        <time>2022-09-05T10:21:41.000Z</time>
      </trkpt>
      <trkpt lat="49.79547" lon="4.88028">
        <ele>307</ele>
        <time>2022-09-05T10:21:42.000Z</time>
      </trkpt>
      <trkpt lat="49.79552" lon="4.88028">
        <ele>307</ele>
        <time>2022-09-05T10:21:43.000Z</time>
      </trkpt>
      <trkpt lat="49.79556" lon="4.88028">
        <ele>307</ele>
        <time>2022-09-05T10:21:44.000Z</time>
      </trkpt>
      <trkpt lat="49.7956" lon="4.88028">
        <ele>307</ele>
        <time>2022-09-05T10:21:45.000Z</time>
      </trkpt>
      <trkpt lat="49.79561" lon="4.88028">
        <ele>307</ele>
        <time>2022-09-05T10:21:46.000Z</time>
      </trkpt>
      <trkpt lat="49.79561" lon="4.88028">
        <ele>307</ele>
        <time>2022-09-05T10:21:47.000Z</time>
      </trkpt>
      <trkpt lat="49.79561" lon="4.88028">
        <ele>307</ele>
        <time>2022-09-05T10:21:48.000Z</time>
      </trkpt>
      <trkpt lat="49.79561" lon="4.88028">
        <ele>307</ele>
        <time>2022-09-05T10:21:49.000Z</time>
      </trkpt>
      <trkpt lat="49.79562" lon="4.88028">
        <ele>307</ele>
        <time>2022-09-05T10:21:50.000Z</time>
      </trkpt>
      <trkpt lat="49.79563" lon="4.88028">
        <ele>307</ele>
        <time>2022-09-05T10:21:51.000Z</time>
      </trkpt>
      <trkpt lat="49.79565" lon="4.88028">
        <ele>307</ele>
        <time>2022-09-05T10:21:52.000Z</time>
      </trkpt>
      <trkpt lat="49.79567" lon="4.88029">
        <ele>307</ele>
        <time>2022-09-05T10:21:53.000Z</time>
      </trkpt>
      <trkpt lat="49.79569" lon="4.88029">
        <ele>307</ele>
        <time>2022-09-05T10:21:54.000Z</time>
      </trkpt>
      <trkpt lat="49.79572" lon="4.88028">
        <ele>307</ele>
        <time>2022-09-05T10:21:55.000Z</time>
      </trkpt>
      <trkpt lat="49.79575" lon="4.88029">
        <ele>307</ele>
        <time>2022-09-05T10:21:56.000Z</time>
      </trkpt>
      <trkpt lat="49.79579" lon="4.88028">
        <ele>307</ele>
        <time>2022-09-05T10:21:57.000Z</time>
      </trkpt>
      <trkpt lat="49.79582" lon="4.88027">
        <ele>307</ele>
        <time>2022-09-05T10:21:58.000Z</time>
      </trkpt>
      <trkpt lat="49.79584" lon="4.88027">
        <ele>307</ele>
        <time>2022-09-05T10:21:59.000Z</time>
      </trkpt>
      <trkpt lat="49.79586" lon="4.88027">
        <ele>307</ele>
        <time>2022-09-05T10:22:00.000Z</time>
      </trkpt>
      <trkpt lat="49.79588" lon="4.88027">
        <ele>307</ele>
        <time>2022-09-05T10:22:01.000Z</time>
      </trkpt>
      <trkpt lat="49.7959" lon="4.88026">
        <ele>307</ele>
        <time>2022-09-05T10:22:02.000Z</time>
      </trkpt>
      <trkpt lat="49.79593" lon="4.88025">
        <ele>306</ele>
        <time>2022-09-05T10:22:03.000Z</time>
      </trkpt>
      <trkpt lat="49.79596" lon="4.88024">
        <ele>306</ele>
        <time>2022-09-05T10:22:04.000Z</time>
      </trkpt>
      <trkpt lat="49.79599" lon="4.88022">
        <ele>306</ele>
        <time>2022-09-05T10:22:05.000Z</time>
      </trkpt>
      <trkpt lat="49.79602" lon="4.88021">
        <ele>306</ele>
        <time>2022-09-05T10:22:06.000Z</time>
      </trkpt>
      <trkpt lat="49.79605" lon="4.8802">
        <ele>306</ele>
        <time>2022-09-05T10:22:07.000Z</time>
      </trkpt>
      <trkpt lat="49.79609" lon="4.8802">
        <ele>306</ele>
        <time>2022-09-05T10:22:08.000Z</time>
      </trkpt>
      <trkpt lat="49.79612" lon="4.8802">
        <ele>306</ele>
        <time>2022-09-05T10:22:09.000Z</time>
      </trkpt>
      <trkpt lat="49.79614" lon="4.88021">
        <ele>306</ele>
        <time>2022-09-05T10:22:10.000Z</time>
      </trkpt>
      <trkpt lat="49.79617" lon="4.88022">
        <ele>306</ele>
        <time>2022-09-05T10:22:11.000Z</time>
      </trkpt>
      <trkpt lat="49.79619" lon="4.88023">
        <ele>306</ele>
        <time>2022-09-05T10:22:12.000Z</time>
      </trkpt>
      <trkpt lat="49.79622" lon="4.88025">
        <ele>306</ele>
        <time>2022-09-05T10:22:13.000Z</time>
      </trkpt>
      <trkpt lat="49.79625" lon="4.88028">
        <ele>307</ele>
        <time>2022-09-05T10:22:14.000Z</time>
      </trkpt>
      <trkpt lat="49.79628" lon="4.8803">
        <ele>307</ele>
        <time>2022-09-05T10:22:15.000Z</time>
      </trkpt>
      <trkpt lat="49.7963" lon="4.88034">
        <ele>307</ele>
        <time>2022-09-05T10:22:16.000Z</time>
      </trkpt>
      <trkpt lat="49.79633" lon="4.88037">
        <ele>307</ele>
        <time>2022-09-05T10:22:17.000Z</time>
      </trkpt>
      <trkpt lat="49.79635" lon="4.8804">
        <ele>307</ele>
        <time>2022-09-05T10:22:18.000Z</time>
      </trkpt>
      <trkpt lat="49.79638" lon="4.88042">
        <ele>307</ele>
        <time>2022-09-05T10:22:19.000Z</time>
      </trkpt>
      <trkpt lat="49.79641" lon="4.88044">
        <ele>308</ele>
        <time>2022-09-05T10:22:20.000Z</time>
      </trkpt>
      <trkpt lat="49.79644" lon="4.88045">
        <ele>308</ele>
        <time>2022-09-05T10:22:21.000Z</time>
      </trkpt>
      <trkpt lat="49.79646" lon="4.88048">
        <ele>308</ele>
        <time>2022-09-05T10:22:22.000Z</time>
      </trkpt>
      <trkpt lat="49.7965" lon="4.88049">
        <ele>308</ele>
        <time>2022-09-05T10:22:23.000Z</time>
      </trkpt>
      <trkpt lat="49.79653" lon="4.88051">
        <ele>308</ele>
        <time>2022-09-05T10:22:24.000Z</time>
      </trkpt>
      <trkpt lat="49.79657" lon="4.88053">
        <ele>308</ele>
        <time>2022-09-05T10:22:25.000Z</time>
      </trkpt>
      <trkpt lat="49.79659" lon="4.88056">
        <ele>309</ele>
        <time>2022-09-05T10:22:26.000Z</time>
      </trkpt>
      <trkpt lat="49.79662" lon="4.88058">
        <ele>309</ele>
        <time>2022-09-05T10:22:27.000Z</time>
      </trkpt>
      <trkpt lat="49.79665" lon="4.8806">
        <ele>309</ele>
        <time>2022-09-05T10:22:28.000Z</time>
      </trkpt>
      <trkpt lat="49.79667" lon="4.88063">
        <ele>309</ele>
        <time>2022-09-05T10:22:29.000Z</time>
      </trkpt>
      <trkpt lat="49.7967" lon="4.88065">
        <ele>310</ele>
        <time>2022-09-05T10:22:30.000Z</time>
      </trkpt>
      <trkpt lat="49.79673" lon="4.88066">
        <ele>310</ele>
        <time>2022-09-05T10:22:31.000Z</time>
      </trkpt>
      <trkpt lat="49.79675" lon="4.88068">
        <ele>310</ele>
        <time>2022-09-05T10:22:32.000Z</time>
      </trkpt>
      <trkpt lat="49.79676" lon="4.8807">
        <ele>310</ele>
        <time>2022-09-05T10:22:33.000Z</time>
      </trkpt>
      <trkpt lat="49.79677" lon="4.88071">
        <ele>310</ele>
        <time>2022-09-05T10:22:34.000Z</time>
      </trkpt>
      <trkpt lat="49.79677" lon="4.8807">
        <ele>310</ele>
        <time>2022-09-05T10:22:35.000Z</time>
      </trkpt>
      <trkpt lat="49.79677" lon="4.88071">
        <ele>311</ele>
        <time>2022-09-05T10:22:36.000Z</time>
      </trkpt>
      <trkpt lat="49.79677" lon="4.88071">
        <ele>311</ele>
        <time>2022-09-05T10:22:37.000Z</time>
      </trkpt>
      <trkpt lat="49.79677" lon="4.88071">
        <ele>311</ele>
        <time>2022-09-05T10:22:38.000Z</time>
      </trkpt>
      <trkpt lat="49.79678" lon="4.88072">
        <ele>311</ele>
        <time>2022-09-05T10:22:39.000Z</time>
      </trkpt>
      <trkpt lat="49.7968" lon="4.88073">
        <ele>311</ele>
        <time>2022-09-05T10:22:40.000Z</time>
      </trkpt>
      <trkpt lat="49.79681" lon="4.88074">
        <ele>311</ele>
        <time>2022-09-05T10:22:41.000Z</time>
      </trkpt>
      <trkpt lat="49.79684" lon="4.88076">
        <ele>311</ele>
        <time>2022-09-05T10:22:42.000Z</time>
      </trkpt>
      <trkpt lat="49.79687" lon="4.88079">
        <ele>311</ele>
        <time>2022-09-05T10:22:43.000Z</time>
      </trkpt>
      <trkpt lat="49.79689" lon="4.8808">
        <ele>311</ele>
        <time>2022-09-05T10:22:44.000Z</time>
      </trkpt>
      <trkpt lat="49.79692" lon="4.88082">
        <ele>311</ele>
        <time>2022-09-05T10:22:45.000Z</time>
      </trkpt>
      <trkpt lat="49.79694" lon="4.88083">
        <ele>311</ele>
        <time>2022-09-05T10:22:46.000Z</time>
      </trkpt>
      <trkpt lat="49.79697" lon="4.88085">
        <ele>311</ele>
        <time>2022-09-05T10:22:47.000Z</time>
      </trkpt>
      <trkpt lat="49.797" lon="4.88087">
        <ele>311</ele>
        <time>2022-09-05T10:22:48.000Z</time>
      </trkpt>
      <trkpt lat="49.79703" lon="4.88089">
        <ele>311</ele>
        <time>2022-09-05T10:22:49.000Z</time>
      </trkpt>
      <trkpt lat="49.79706" lon="4.88091">
        <ele>311</ele>
        <time>2022-09-05T10:22:50.000Z</time>
      </trkpt>
      <trkpt lat="49.79709" lon="4.88093">
        <ele>311</ele>
        <time>2022-09-05T10:22:51.000Z</time>
      </trkpt>
      <trkpt lat="49.79712" lon="4.88096">
        <ele>311</ele>
        <time>2022-09-05T10:22:52.000Z</time>
      </trkpt>
      <trkpt lat="49.79714" lon="4.88099">
        <ele>311</ele>
        <time>2022-09-05T10:22:53.000Z</time>
      </trkpt>
      <trkpt lat="49.79717" lon="4.88101">
        <ele>311</ele>
        <time>2022-09-05T10:22:54.000Z</time>
      </trkpt>
      <trkpt lat="49.7972" lon="4.88104">
        <ele>311</ele>
        <time>2022-09-05T10:22:55.000Z</time>
      </trkpt>
      <trkpt lat="49.79723" lon="4.88107">
        <ele>311</ele>
        <time>2022-09-05T10:22:56.000Z</time>
      </trkpt>
      <trkpt lat="49.79726" lon="4.8811">
        <ele>311</ele>
        <time>2022-09-05T10:22:57.000Z</time>
      </trkpt>
      <trkpt lat="49.79729" lon="4.88113">
        <ele>312</ele>
        <time>2022-09-05T10:22:58.000Z</time>
      </trkpt>
      <trkpt lat="49.79732" lon="4.88116">
        <ele>312</ele>
        <time>2022-09-05T10:22:59.000Z</time>
      </trkpt>
      <trkpt lat="49.79735" lon="4.88119">
        <ele>312</ele>
        <time>2022-09-05T10:23:00.000Z</time>
      </trkpt>
      <trkpt lat="49.79738" lon="4.88122">
        <ele>312</ele>
        <time>2022-09-05T10:23:01.000Z</time>
      </trkpt>
      <trkpt lat="49.79741" lon="4.88125">
        <ele>312</ele>
        <time>2022-09-05T10:23:02.000Z</time>
      </trkpt>
      <trkpt lat="49.79743" lon="4.88127">
        <ele>312</ele>
        <time>2022-09-05T10:23:03.000Z</time>
      </trkpt>
      <trkpt lat="49.79746" lon="4.88129">
        <ele>312</ele>
        <time>2022-09-05T10:23:04.000Z</time>
      </trkpt>
      <trkpt lat="49.79749" lon="4.88132">
        <ele>312</ele>
        <time>2022-09-05T10:23:05.000Z</time>
      </trkpt>
      <trkpt lat="49.79752" lon="4.88134">
        <ele>312</ele>
        <time>2022-09-05T10:23:06.000Z</time>
      </trkpt>
      <trkpt lat="49.79755" lon="4.88137">
        <ele>312</ele>
        <time>2022-09-05T10:23:07.000Z</time>
      </trkpt>
      <trkpt lat="49.79758" lon="4.88139">
        <ele>312</ele>
        <time>2022-09-05T10:23:08.000Z</time>
      </trkpt>
      <trkpt lat="49.79761" lon="4.88141">
        <ele>312</ele>
        <time>2022-09-05T10:23:09.000Z</time>
      </trkpt>
      <trkpt lat="49.79764" lon="4.88144">
        <ele>312</ele>
        <time>2022-09-05T10:23:10.000Z</time>
      </trkpt>
      <trkpt lat="49.79766" lon="4.88147">
        <ele>312</ele>
        <time>2022-09-05T10:23:11.000Z</time>
      </trkpt>
      <trkpt lat="49.79769" lon="4.8815">
        <ele>313</ele>
        <time>2022-09-05T10:23:12.000Z</time>
      </trkpt>
      <trkpt lat="49.79772" lon="4.88152">
        <ele>313</ele>
        <time>2022-09-05T10:23:13.000Z</time>
      </trkpt>
      <trkpt lat="49.79775" lon="4.88155">
        <ele>313</ele>
        <time>2022-09-05T10:23:14.000Z</time>
      </trkpt>
      <trkpt lat="49.79778" lon="4.88157">
        <ele>313</ele>
        <time>2022-09-05T10:23:15.000Z</time>
      </trkpt>
      <trkpt lat="49.79781" lon="4.88159">
        <ele>313</ele>
        <time>2022-09-05T10:23:16.000Z</time>
      </trkpt>
      <trkpt lat="49.79783" lon="4.8816">
        <ele>313</ele>
        <time>2022-09-05T10:23:17.000Z</time>
      </trkpt>
      <trkpt lat="49.79786" lon="4.88162">
        <ele>313</ele>
        <time>2022-09-05T10:23:18.000Z</time>
      </trkpt>
      <trkpt lat="49.79788" lon="4.88164">
        <ele>313</ele>
        <time>2022-09-05T10:23:19.000Z</time>
      </trkpt>
      <trkpt lat="49.79791" lon="4.88166">
        <ele>313</ele>
        <time>2022-09-05T10:23:20.000Z</time>
      </trkpt>
      <trkpt lat="49.79794" lon="4.88167">
        <ele>313</ele>
        <time>2022-09-05T10:23:21.000Z</time>
      </trkpt>
      <trkpt lat="49.79797" lon="4.88169">
        <ele>313</ele>
        <time>2022-09-05T10:23:22.000Z</time>
      </trkpt>
      <trkpt lat="49.798" lon="4.88171">
        <ele>313</ele>
        <time>2022-09-05T10:23:23.000Z</time>
      </trkpt>
      <trkpt lat="49.79802" lon="4.88173">
        <ele>313</ele>
        <time>2022-09-05T10:23:24.000Z</time>
      </trkpt>
      <trkpt lat="49.79804" lon="4.88174">
        <ele>313</ele>
        <time>2022-09-05T10:23:25.000Z</time>
      </trkpt>
      <trkpt lat="49.79807" lon="4.88177">
        <ele>313</ele>
        <time>2022-09-05T10:23:26.000Z</time>
      </trkpt>
      <trkpt lat="49.79809" lon="4.88178">
        <ele>313</ele>
        <time>2022-09-05T10:23:27.000Z</time>
      </trkpt>
      <trkpt lat="49.79812" lon="4.8818">
        <ele>313</ele>
        <time>2022-09-05T10:23:28.000Z</time>
      </trkpt>
      <trkpt lat="49.79814" lon="4.88182">
        <ele>312</ele>
        <time>2022-09-05T10:23:29.000Z</time>
      </trkpt>
      <trkpt lat="49.79817" lon="4.88183">
        <ele>312</ele>
        <time>2022-09-05T10:23:30.000Z</time>
      </trkpt>
      <trkpt lat="49.79819" lon="4.88186">
        <ele>312</ele>
        <time>2022-09-05T10:23:31.000Z</time>
      </trkpt>
      <trkpt lat="49.79821" lon="4.88188">
        <ele>312</ele>
        <time>2022-09-05T10:23:32.000Z</time>
      </trkpt>
      <trkpt lat="49.79823" lon="4.8819">
        <ele>312</ele>
        <time>2022-09-05T10:23:33.000Z</time>
      </trkpt>
      <trkpt lat="49.79825" lon="4.88192">
        <ele>312</ele>
        <time>2022-09-05T10:23:34.000Z</time>
      </trkpt>
      <trkpt lat="49.79827" lon="4.88194">
        <ele>312</ele>
        <time>2022-09-05T10:23:35.000Z</time>
      </trkpt>
      <trkpt lat="49.79829" lon="4.88197">
        <ele>312</ele>
        <time>2022-09-05T10:23:36.000Z</time>
      </trkpt>
      <trkpt lat="49.79832" lon="4.88199">
        <ele>313</ele>
        <time>2022-09-05T10:23:37.000Z</time>
      </trkpt>
      <trkpt lat="49.79835" lon="4.88202">
        <ele>313</ele>
        <time>2022-09-05T10:23:38.000Z</time>
      </trkpt>
      <trkpt lat="49.79839" lon="4.88205">
        <ele>313</ele>
        <time>2022-09-05T10:23:39.000Z</time>
      </trkpt>
      <trkpt lat="49.79842" lon="4.88207">
        <ele>313</ele>
        <time>2022-09-05T10:23:40.000Z</time>
      </trkpt>
      <trkpt lat="49.79845" lon="4.8821">
        <ele>313</ele>
        <time>2022-09-05T10:23:41.000Z</time>
      </trkpt>
      <trkpt lat="49.79847" lon="4.88213">
        <ele>313</ele>
        <time>2022-09-05T10:23:42.000Z</time>
      </trkpt>
      <trkpt lat="49.7985" lon="4.88216">
        <ele>313</ele>
        <time>2022-09-05T10:23:43.000Z</time>
      </trkpt>
      <trkpt lat="49.79852" lon="4.88219">
        <ele>313</ele>
        <time>2022-09-05T10:23:44.000Z</time>
      </trkpt>
      <trkpt lat="49.79854" lon="4.88223">
        <ele>313</ele>
        <time>2022-09-05T10:23:45.000Z</time>
      </trkpt>
      <trkpt lat="49.79856" lon="4.88226">
        <ele>314</ele>
        <time>2022-09-05T10:23:46.000Z</time>
      </trkpt>
      <trkpt lat="49.79858" lon="4.88229">
        <ele>314</ele>
        <time>2022-09-05T10:23:47.000Z</time>
      </trkpt>
      <trkpt lat="49.79861" lon="4.88233">
        <ele>314</ele>
        <time>2022-09-05T10:23:48.000Z</time>
      </trkpt>
      <trkpt lat="49.79864" lon="4.88236">
        <ele>314</ele>
        <time>2022-09-05T10:23:49.000Z</time>
      </trkpt>
      <trkpt lat="49.79866" lon="4.8824">
        <ele>314</ele>
        <time>2022-09-05T10:23:50.000Z</time>
      </trkpt>
      <trkpt lat="49.79868" lon="4.88243">
        <ele>314</ele>
        <time>2022-09-05T10:23:51.000Z</time>
      </trkpt>
      <trkpt lat="49.79871" lon="4.88247">
        <ele>314</ele>
        <time>2022-09-05T10:23:52.000Z</time>
      </trkpt>
      <trkpt lat="49.79874" lon="4.8825">
        <ele>314</ele>
        <time>2022-09-05T10:23:53.000Z</time>
      </trkpt>
      <trkpt lat="49.79876" lon="4.88254">
        <ele>315</ele>
        <time>2022-09-05T10:23:54.000Z</time>
      </trkpt>
      <trkpt lat="49.79879" lon="4.88258">
        <ele>315</ele>
        <time>2022-09-05T10:23:55.000Z</time>
      </trkpt>
      <trkpt lat="49.79881" lon="4.88261">
        <ele>315</ele>
        <time>2022-09-05T10:23:56.000Z</time>
      </trkpt>
      <trkpt lat="49.79884" lon="4.88265">
        <ele>315</ele>
        <time>2022-09-05T10:23:57.000Z</time>
      </trkpt>
      <trkpt lat="49.79886" lon="4.88269">
        <ele>315</ele>
        <time>2022-09-05T10:23:58.000Z</time>
      </trkpt>
      <trkpt lat="49.79888" lon="4.88273">
        <ele>315</ele>
        <time>2022-09-05T10:23:59.000Z</time>
      </trkpt>
      <trkpt lat="49.7989" lon="4.88277">
        <ele>315</ele>
        <time>2022-09-05T10:24:00.000Z</time>
      </trkpt>
      <trkpt lat="49.79892" lon="4.88281">
        <ele>316</ele>
        <time>2022-09-05T10:24:01.000Z</time>
      </trkpt>
      <trkpt lat="49.79895" lon="4.88285">
        <ele>316</ele>
        <time>2022-09-05T10:24:02.000Z</time>
      </trkpt>
      <trkpt lat="49.79897" lon="4.88289">
        <ele>316</ele>
        <time>2022-09-05T10:24:03.000Z</time>
      </trkpt>
      <trkpt lat="49.79899" lon="4.88293">
        <ele>316</ele>
        <time>2022-09-05T10:24:04.000Z</time>
      </trkpt>
      <trkpt lat="49.79901" lon="4.88297">
        <ele>316</ele>
        <time>2022-09-05T10:24:05.000Z</time>
      </trkpt>
      <trkpt lat="49.79903" lon="4.88301">
        <ele>316</ele>
        <time>2022-09-05T10:24:06.000Z</time>
      </trkpt>
      <trkpt lat="49.79905" lon="4.88305">
        <ele>316</ele>
        <time>2022-09-05T10:24:07.000Z</time>
      </trkpt>
      <trkpt lat="49.79907" lon="4.88309">
        <ele>316</ele>
        <time>2022-09-05T10:24:08.000Z</time>
      </trkpt>
      <trkpt lat="49.79909" lon="4.88313">
        <ele>316</ele>
        <time>2022-09-05T10:24:09.000Z</time>
      </trkpt>
      <trkpt lat="49.79911" lon="4.88316">
        <ele>317</ele>
        <time>2022-09-05T10:24:10.000Z</time>
      </trkpt>
      <trkpt lat="49.79914" lon="4.8832">
        <ele>317</ele>
        <time>2022-09-05T10:24:11.000Z</time>
      </trkpt>
      <trkpt lat="49.79916" lon="4.88323">
        <ele>317</ele>
        <time>2022-09-05T10:24:12.000Z</time>
      </trkpt>
      <trkpt lat="49.79918" lon="4.88326">
        <ele>317</ele>
        <time>2022-09-05T10:24:13.000Z</time>
      </trkpt>
      <trkpt lat="49.79921" lon="4.88329">
        <ele>317</ele>
        <time>2022-09-05T10:24:14.000Z</time>
      </trkpt>
      <trkpt lat="49.79923" lon="4.88332">
        <ele>317</ele>
        <time>2022-09-05T10:24:15.000Z</time>
      </trkpt>
      <trkpt lat="49.79925" lon="4.88334">
        <ele>317</ele>
        <time>2022-09-05T10:24:16.000Z</time>
      </trkpt>
      <trkpt lat="49.79928" lon="4.88336">
        <ele>317</ele>
        <time>2022-09-05T10:24:17.000Z</time>
      </trkpt>
      <trkpt lat="49.7993" lon="4.88338">
        <ele>317</ele>
        <time>2022-09-05T10:24:18.000Z</time>
      </trkpt>
      <trkpt lat="49.79933" lon="4.88341">
        <ele>318</ele>
        <time>2022-09-05T10:24:19.000Z</time>
      </trkpt>
      <trkpt lat="49.79937" lon="4.88344">
        <ele>318</ele>
        <time>2022-09-05T10:24:20.000Z</time>
      </trkpt>
      <trkpt lat="49.7994" lon="4.88346">
        <ele>318</ele>
        <time>2022-09-05T10:24:21.000Z</time>
      </trkpt>
      <trkpt lat="49.79943" lon="4.88347">
        <ele>318</ele>
        <time>2022-09-05T10:24:22.000Z</time>
      </trkpt>
      <trkpt lat="49.79945" lon="4.88349">
        <ele>318</ele>
        <time>2022-09-05T10:24:23.000Z</time>
      </trkpt>
      <trkpt lat="49.79947" lon="4.8835">
        <ele>318</ele>
        <time>2022-09-05T10:24:24.000Z</time>
      </trkpt>
      <trkpt lat="49.79949" lon="4.88352">
        <ele>318</ele>
        <time>2022-09-05T10:24:25.000Z</time>
      </trkpt>
      <trkpt lat="49.79952" lon="4.88353">
        <ele>318</ele>
        <time>2022-09-05T10:24:26.000Z</time>
      </trkpt>
      <trkpt lat="49.79955" lon="4.88354">
        <ele>318</ele>
        <time>2022-09-05T10:24:27.000Z</time>
      </trkpt>
      <trkpt lat="49.79957" lon="4.88355">
        <ele>318</ele>
        <time>2022-09-05T10:24:28.000Z</time>
      </trkpt>
      <trkpt lat="49.7996" lon="4.88356">
        <ele>318</ele>
        <time>2022-09-05T10:24:29.000Z</time>
      </trkpt>
      <trkpt lat="49.79962" lon="4.88357">
        <ele>318</ele>
        <time>2022-09-05T10:24:30.000Z</time>
      </trkpt>
      <trkpt lat="49.79964" lon="4.88358">
        <ele>318</ele>
        <time>2022-09-05T10:24:31.000Z</time>
      </trkpt>
      <trkpt lat="49.79967" lon="4.88358">
        <ele>318</ele>
        <time>2022-09-05T10:24:32.000Z</time>
      </trkpt>
      <trkpt lat="49.79969" lon="4.88358">
        <ele>318</ele>
        <time>2022-09-05T10:24:33.000Z</time>
      </trkpt>
      <trkpt lat="49.79971" lon="4.88359">
        <ele>319</ele>
        <time>2022-09-05T10:24:34.000Z</time>
      </trkpt>
      <trkpt lat="49.79973" lon="4.88359">
        <ele>319</ele>
        <time>2022-09-05T10:24:35.000Z</time>
      </trkpt>
      <trkpt lat="49.79975" lon="4.88359">
        <ele>319</ele>
        <time>2022-09-05T10:24:36.000Z</time>
      </trkpt>
      <trkpt lat="49.79977" lon="4.88359">
        <ele>319</ele>
        <time>2022-09-05T10:24:37.000Z</time>
      </trkpt>
      <trkpt lat="49.79979" lon="4.8836">
        <ele>319</ele>
        <time>2022-09-05T10:24:38.000Z</time>
      </trkpt>
      <trkpt lat="49.79982" lon="4.8836">
        <ele>319</ele>
        <time>2022-09-05T10:24:39.000Z</time>
      </trkpt>
      <trkpt lat="49.79984" lon="4.88361">
        <ele>319</ele>
        <time>2022-09-05T10:24:40.000Z</time>
      </trkpt>
      <trkpt lat="49.79987" lon="4.88362">
        <ele>319</ele>
        <time>2022-09-05T10:24:41.000Z</time>
      </trkpt>
      <trkpt lat="49.79989" lon="4.88362">
        <ele>319</ele>
        <time>2022-09-05T10:24:42.000Z</time>
      </trkpt>
      <trkpt lat="49.79992" lon="4.88363">
        <ele>319</ele>
        <time>2022-09-05T10:24:43.000Z</time>
      </trkpt>
      <trkpt lat="49.79994" lon="4.88363">
        <ele>319</ele>
        <time>2022-09-05T10:24:44.000Z</time>
      </trkpt>
      <trkpt lat="49.79996" lon="4.88363">
        <ele>319</ele>
        <time>2022-09-05T10:24:45.000Z</time>
      </trkpt>
      <trkpt lat="49.79998" lon="4.88363">
        <ele>319</ele>
        <time>2022-09-05T10:24:46.000Z</time>
      </trkpt>
      <trkpt lat="49.8" lon="4.88363">
        <ele>319</ele>
        <time>2022-09-05T10:24:47.000Z</time>
      </trkpt>
      <trkpt lat="49.80002" lon="4.88362">
        <ele>319</ele>
        <time>2022-09-05T10:24:48.000Z</time>
      </trkpt>
      <trkpt lat="49.80005" lon="4.88362">
        <ele>319</ele>
        <time>2022-09-05T10:24:49.000Z</time>
      </trkpt>
      <trkpt lat="49.80007" lon="4.88362">
        <ele>319</ele>
        <time>2022-09-05T10:24:50.000Z</time>
      </trkpt>
      <trkpt lat="49.80009" lon="4.88361">
        <ele>320</ele>
        <time>2022-09-05T10:24:51.000Z</time>
      </trkpt>
      <trkpt lat="49.80011" lon="4.8836">
        <ele>320</ele>
        <time>2022-09-05T10:24:52.000Z</time>
      </trkpt>
      <trkpt lat="49.80014" lon="4.8836">
        <ele>320</ele>
        <time>2022-09-05T10:24:53.000Z</time>
      </trkpt>
      <trkpt lat="49.80016" lon="4.88359">
        <ele>320</ele>
        <time>2022-09-05T10:24:54.000Z</time>
      </trkpt>
      <trkpt lat="49.80018" lon="4.88357">
        <ele>320</ele>
        <time>2022-09-05T10:24:55.000Z</time>
      </trkpt>
      <trkpt lat="49.8002" lon="4.88356">
        <ele>321</ele>
        <time>2022-09-05T10:24:56.000Z</time>
      </trkpt>
      <trkpt lat="49.80023" lon="4.88355">
        <ele>321</ele>
        <time>2022-09-05T10:24:57.000Z</time>
      </trkpt>
      <trkpt lat="49.80025" lon="4.88353">
        <ele>321</ele>
        <time>2022-09-05T10:24:58.000Z</time>
      </trkpt>
      <trkpt lat="49.80027" lon="4.88351">
        <ele>321</ele>
        <time>2022-09-05T10:24:59.000Z</time>
      </trkpt>
      <trkpt lat="49.8003" lon="4.8835">
        <ele>321</ele>
        <time>2022-09-05T10:25:00.000Z</time>
      </trkpt>
      <trkpt lat="49.80031" lon="4.88348">
        <ele>321</ele>
        <time>2022-09-05T10:25:01.000Z</time>
      </trkpt>
      <trkpt lat="49.80033" lon="4.88346">
        <ele>322</ele>
        <time>2022-09-05T10:25:02.000Z</time>
      </trkpt>
      <trkpt lat="49.80035" lon="4.88344">
        <ele>322</ele>
        <time>2022-09-05T10:25:03.000Z</time>
      </trkpt>
      <trkpt lat="49.80037" lon="4.88343">
        <ele>322</ele>
        <time>2022-09-05T10:25:04.000Z</time>
      </trkpt>
      <trkpt lat="49.80039" lon="4.88341">
        <ele>322</ele>
        <time>2022-09-05T10:25:05.000Z</time>
      </trkpt>
      <trkpt lat="49.80041" lon="4.8834">
        <ele>322</ele>
        <time>2022-09-05T10:25:06.000Z</time>
      </trkpt>
      <trkpt lat="49.80043" lon="4.88338">
        <ele>322</ele>
        <time>2022-09-05T10:25:07.000Z</time>
      </trkpt>
      <trkpt lat="49.80045" lon="4.88336">
        <ele>322</ele>
        <time>2022-09-05T10:25:08.000Z</time>
      </trkpt>
      <trkpt lat="49.80047" lon="4.88335">
        <ele>322</ele>
        <time>2022-09-05T10:25:09.000Z</time>
      </trkpt>
      <trkpt lat="49.80049" lon="4.88333">
        <ele>323</ele>
        <time>2022-09-05T10:25:10.000Z</time>
      </trkpt>
      <trkpt lat="49.80052" lon="4.88332">
        <ele>323</ele>
        <time>2022-09-05T10:25:11.000Z</time>
      </trkpt>
      <trkpt lat="49.80054" lon="4.88331">
        <ele>323</ele>
        <time>2022-09-05T10:25:12.000Z</time>
      </trkpt>
      <trkpt lat="49.80056" lon="4.8833">
        <ele>323</ele>
        <time>2022-09-05T10:25:13.000Z</time>
      </trkpt>
      <trkpt lat="49.80059" lon="4.88329">
        <ele>323</ele>
        <time>2022-09-05T10:25:14.000Z</time>
      </trkpt>
      <trkpt lat="49.80061" lon="4.88328">
        <ele>323</ele>
        <time>2022-09-05T10:25:15.000Z</time>
      </trkpt>
      <trkpt lat="49.80063" lon="4.88327">
        <ele>324</ele>
        <time>2022-09-05T10:25:16.000Z</time>
      </trkpt>
      <trkpt lat="49.80065" lon="4.88326">
        <ele>324</ele>
        <time>2022-09-05T10:25:17.000Z</time>
      </trkpt>
      <trkpt lat="49.80067" lon="4.88324">
        <ele>324</ele>
        <time>2022-09-05T10:25:18.000Z</time>
      </trkpt>
      <trkpt lat="49.80069" lon="4.88324">
        <ele>324</ele>
        <time>2022-09-05T10:25:19.000Z</time>
      </trkpt>
      <trkpt lat="49.80071" lon="4.88323">
        <ele>324</ele>
        <time>2022-09-05T10:25:20.000Z</time>
      </trkpt>
      <trkpt lat="49.80073" lon="4.88323">
        <ele>324</ele>
        <time>2022-09-05T10:25:21.000Z</time>
      </trkpt>
      <trkpt lat="49.80074" lon="4.88322">
        <ele>325</ele>
        <time>2022-09-05T10:25:22.000Z</time>
      </trkpt>
      <trkpt lat="49.80075" lon="4.88321">
        <ele>325</ele>
        <time>2022-09-05T10:25:23.000Z</time>
      </trkpt>
      <trkpt lat="49.80077" lon="4.8832">
        <ele>325</ele>
        <time>2022-09-05T10:25:24.000Z</time>
      </trkpt>
      <trkpt lat="49.80078" lon="4.88319">
        <ele>325</ele>
        <time>2022-09-05T10:25:25.000Z</time>
      </trkpt>
      <trkpt lat="49.8008" lon="4.88319">
        <ele>325</ele>
        <time>2022-09-05T10:25:26.000Z</time>
      </trkpt>
      <trkpt lat="49.80082" lon="4.88318">
        <ele>325</ele>
        <time>2022-09-05T10:25:27.000Z</time>
      </trkpt>
      <trkpt lat="49.80083" lon="4.88316">
        <ele>325</ele>
        <time>2022-09-05T10:25:28.000Z</time>
      </trkpt>
      <trkpt lat="49.80085" lon="4.88315">
        <ele>325</ele>
        <time>2022-09-05T10:25:29.000Z</time>
      </trkpt>
      <trkpt lat="49.80086" lon="4.88314">
        <ele>325</ele>
        <time>2022-09-05T10:25:30.000Z</time>
      </trkpt>
      <trkpt lat="49.80088" lon="4.88312">
        <ele>325</ele>
        <time>2022-09-05T10:25:31.000Z</time>
      </trkpt>
      <trkpt lat="49.80089" lon="4.88311">
        <ele>325</ele>
        <time>2022-09-05T10:25:32.000Z</time>
      </trkpt>
      <trkpt lat="49.80091" lon="4.88309">
        <ele>325</ele>
        <time>2022-09-05T10:25:33.000Z</time>
      </trkpt>
      <trkpt lat="49.80092" lon="4.88306">
        <ele>325</ele>
        <time>2022-09-05T10:25:34.000Z</time>
      </trkpt>
      <trkpt lat="49.80094" lon="4.88304">
        <ele>325</ele>
        <time>2022-09-05T10:25:35.000Z</time>
      </trkpt>
      <trkpt lat="49.80096" lon="4.88301">
        <ele>325</ele>
        <time>2022-09-05T10:25:36.000Z</time>
      </trkpt>
      <trkpt lat="49.80098" lon="4.88298">
        <ele>325</ele>
        <time>2022-09-05T10:25:37.000Z</time>
      </trkpt>
      <trkpt lat="49.801" lon="4.88295">
        <ele>326</ele>
        <time>2022-09-05T10:25:38.000Z</time>
      </trkpt>
      <trkpt lat="49.80101" lon="4.88293">
        <ele>326</ele>
        <time>2022-09-05T10:25:39.000Z</time>
      </trkpt>
      <trkpt lat="49.80103" lon="4.8829">
        <ele>326</ele>
        <time>2022-09-05T10:25:40.000Z</time>
      </trkpt>
      <trkpt lat="49.80105" lon="4.88288">
        <ele>326</ele>
        <time>2022-09-05T10:25:41.000Z</time>
      </trkpt>
      <trkpt lat="49.80107" lon="4.88286">
        <ele>326</ele>
        <time>2022-09-05T10:25:42.000Z</time>
      </trkpt>
      <trkpt lat="49.80108" lon="4.88283">
        <ele>327</ele>
        <time>2022-09-05T10:25:43.000Z</time>
      </trkpt>
      <trkpt lat="49.80109" lon="4.88281">
        <ele>327</ele>
        <time>2022-09-05T10:25:44.000Z</time>
      </trkpt>
      <trkpt lat="49.80111" lon="4.88279">
        <ele>327</ele>
        <time>2022-09-05T10:25:45.000Z</time>
      </trkpt>
      <trkpt lat="49.80112" lon="4.88277">
        <ele>327</ele>
        <time>2022-09-05T10:25:46.000Z</time>
      </trkpt>
      <trkpt lat="49.80114" lon="4.88275">
        <ele>328</ele>
        <time>2022-09-05T10:25:47.000Z</time>
      </trkpt>
      <trkpt lat="49.80115" lon="4.88273">
        <ele>328</ele>
        <time>2022-09-05T10:25:48.000Z</time>
      </trkpt>
      <trkpt lat="49.80117" lon="4.88271">
        <ele>328</ele>
        <time>2022-09-05T10:25:49.000Z</time>
      </trkpt>
      <trkpt lat="49.80119" lon="4.88269">
        <ele>328</ele>
        <time>2022-09-05T10:25:50.000Z</time>
      </trkpt>
      <trkpt lat="49.8012" lon="4.88267">
        <ele>329</ele>
        <time>2022-09-05T10:25:51.000Z</time>
      </trkpt>
      <trkpt lat="49.80122" lon="4.88265">
        <ele>329</ele>
        <time>2022-09-05T10:25:52.000Z</time>
      </trkpt>
      <trkpt lat="49.80124" lon="4.88263">
        <ele>329</ele>
        <time>2022-09-05T10:25:53.000Z</time>
      </trkpt>
      <trkpt lat="49.80126" lon="4.88261">
        <ele>329</ele>
        <time>2022-09-05T10:25:54.000Z</time>
      </trkpt>
      <trkpt lat="49.80127" lon="4.8826">
        <ele>330</ele>
        <time>2022-09-05T10:25:55.000Z</time>
      </trkpt>
      <trkpt lat="49.80129" lon="4.88258">
        <ele>330</ele>
        <time>2022-09-05T10:25:56.000Z</time>
      </trkpt>
      <trkpt lat="49.80131" lon="4.88255">
        <ele>330</ele>
        <time>2022-09-05T10:25:57.000Z</time>
      </trkpt>
      <trkpt lat="49.80133" lon="4.88253">
        <ele>330</ele>
        <time>2022-09-05T10:25:58.000Z</time>
      </trkpt>
      <trkpt lat="49.80135" lon="4.88251">
        <ele>330</ele>
        <time>2022-09-05T10:25:59.000Z</time>
      </trkpt>
      <trkpt lat="49.80136" lon="4.88249">
        <ele>330</ele>
        <time>2022-09-05T10:26:00.000Z</time>
      </trkpt>
      <trkpt lat="49.80138" lon="4.88247">
        <ele>331</ele>
        <time>2022-09-05T10:26:01.000Z</time>
      </trkpt>
      <trkpt lat="49.8014" lon="4.88244">
        <ele>331</ele>
        <time>2022-09-05T10:26:02.000Z</time>
      </trkpt>
      <trkpt lat="49.80141" lon="4.88242">
        <ele>331</ele>
        <time>2022-09-05T10:26:03.000Z</time>
      </trkpt>
      <trkpt lat="49.80143" lon="4.88239">
        <ele>331</ele>
        <time>2022-09-05T10:26:04.000Z</time>
      </trkpt>
      <trkpt lat="49.80144" lon="4.88236">
        <ele>331</ele>
        <time>2022-09-05T10:26:05.000Z</time>
      </trkpt>
      <trkpt lat="49.80146" lon="4.88233">
        <ele>331</ele>
        <time>2022-09-05T10:26:06.000Z</time>
      </trkpt>
      <trkpt lat="49.80148" lon="4.8823">
        <ele>332</ele>
        <time>2022-09-05T10:26:07.000Z</time>
      </trkpt>
      <trkpt lat="49.80149" lon="4.88227">
        <ele>332</ele>
        <time>2022-09-05T10:26:08.000Z</time>
      </trkpt>
      <trkpt lat="49.8015" lon="4.88224">
        <ele>332</ele>
        <time>2022-09-05T10:26:09.000Z</time>
      </trkpt>
      <trkpt lat="49.80152" lon="4.8822">
        <ele>332</ele>
        <time>2022-09-05T10:26:10.000Z</time>
      </trkpt>
      <trkpt lat="49.80153" lon="4.88217">
        <ele>333</ele>
        <time>2022-09-05T10:26:11.000Z</time>
      </trkpt>
      <trkpt lat="49.80154" lon="4.88214">
        <ele>333</ele>
        <time>2022-09-05T10:26:12.000Z</time>
      </trkpt>
      <trkpt lat="49.80155" lon="4.8821">
        <ele>333</ele>
        <time>2022-09-05T10:26:13.000Z</time>
      </trkpt>
      <trkpt lat="49.80155" lon="4.88207">
        <ele>333</ele>
        <time>2022-09-05T10:26:14.000Z</time>
      </trkpt>
      <trkpt lat="49.80156" lon="4.88203">
        <ele>333</ele>
        <time>2022-09-05T10:26:15.000Z</time>
      </trkpt>
      <trkpt lat="49.80157" lon="4.882">
        <ele>333</ele>
        <time>2022-09-05T10:26:16.000Z</time>
      </trkpt>
      <trkpt lat="49.80158" lon="4.88196">
        <ele>334</ele>
        <time>2022-09-05T10:26:17.000Z</time>
      </trkpt>
      <trkpt lat="49.80158" lon="4.88193">
        <ele>334</ele>
        <time>2022-09-05T10:26:18.000Z</time>
      </trkpt>
      <trkpt lat="49.80159" lon="4.8819">
        <ele>334</ele>
        <time>2022-09-05T10:26:19.000Z</time>
      </trkpt>
      <trkpt lat="49.80159" lon="4.88186">
        <ele>334</ele>
        <time>2022-09-05T10:26:20.000Z</time>
      </trkpt>
      <trkpt lat="49.8016" lon="4.88183">
        <ele>334</ele>
        <time>2022-09-05T10:26:21.000Z</time>
      </trkpt>
      <trkpt lat="49.8016" lon="4.8818">
        <ele>335</ele>
        <time>2022-09-05T10:26:22.000Z</time>
      </trkpt>
      <trkpt lat="49.80161" lon="4.88178">
        <ele>335</ele>
        <time>2022-09-05T10:26:23.000Z</time>
      </trkpt>
      <trkpt lat="49.80162" lon="4.88175">
        <ele>335</ele>
        <time>2022-09-05T10:26:24.000Z</time>
      </trkpt>
      <trkpt lat="49.80162" lon="4.88172">
        <ele>335</ele>
        <time>2022-09-05T10:26:25.000Z</time>
      </trkpt>
      <trkpt lat="49.80163" lon="4.88168">
        <ele>335</ele>
        <time>2022-09-05T10:26:26.000Z</time>
      </trkpt>
      <trkpt lat="49.80164" lon="4.88165">
        <ele>336</ele>
        <time>2022-09-05T10:26:27.000Z</time>
      </trkpt>
      <trkpt lat="49.80164" lon="4.88161">
        <ele>336</ele>
        <time>2022-09-05T10:26:28.000Z</time>
      </trkpt>
      <trkpt lat="49.80165" lon="4.88157">
        <ele>336</ele>
        <time>2022-09-05T10:26:29.000Z</time>
      </trkpt>
      <trkpt lat="49.80165" lon="4.88153">
        <ele>336</ele>
        <time>2022-09-05T10:26:30.000Z</time>
      </trkpt>
      <trkpt lat="49.80166" lon="4.8815">
        <ele>336</ele>
        <time>2022-09-05T10:26:31.000Z</time>
      </trkpt>
      <trkpt lat="49.80166" lon="4.88147">
        <ele>337</ele>
        <time>2022-09-05T10:26:32.000Z</time>
      </trkpt>
      <trkpt lat="49.80167" lon="4.88143">
        <ele>337</ele>
        <time>2022-09-05T10:26:33.000Z</time>
      </trkpt>
      <trkpt lat="49.80168" lon="4.8814">
        <ele>337</ele>
        <time>2022-09-05T10:26:34.000Z</time>
      </trkpt>
      <trkpt lat="49.80168" lon="4.88136">
        <ele>337</ele>
        <time>2022-09-05T10:26:35.000Z</time>
      </trkpt>
      <trkpt lat="49.80169" lon="4.88133">
        <ele>338</ele>
        <time>2022-09-05T10:26:36.000Z</time>
      </trkpt>
      <trkpt lat="49.80169" lon="4.88129">
        <ele>338</ele>
        <time>2022-09-05T10:26:37.000Z</time>
      </trkpt>
      <trkpt lat="49.8017" lon="4.88125">
        <ele>338</ele>
        <time>2022-09-05T10:26:38.000Z</time>
      </trkpt>
      <trkpt lat="49.80171" lon="4.88121">
        <ele>338</ele>
        <time>2022-09-05T10:26:39.000Z</time>
      </trkpt>
      <trkpt lat="49.80171" lon="4.88118">
        <ele>339</ele>
        <time>2022-09-05T10:26:40.000Z</time>
      </trkpt>
      <trkpt lat="49.80172" lon="4.88114">
        <ele>339</ele>
        <time>2022-09-05T10:26:41.000Z</time>
      </trkpt>
      <trkpt lat="49.80173" lon="4.8811">
        <ele>339</ele>
        <time>2022-09-05T10:26:42.000Z</time>
      </trkpt>
      <trkpt lat="49.80173" lon="4.88107">
        <ele>339</ele>
        <time>2022-09-05T10:26:43.000Z</time>
      </trkpt>
      <trkpt lat="49.80174" lon="4.88103">
        <ele>340</ele>
        <time>2022-09-05T10:26:44.000Z</time>
      </trkpt>
      <trkpt lat="49.80174" lon="4.88099">
        <ele>340</ele>
        <time>2022-09-05T10:26:45.000Z</time>
      </trkpt>
      <trkpt lat="49.80175" lon="4.88096">
        <ele>340</ele>
        <time>2022-09-05T10:26:46.000Z</time>
      </trkpt>
      <trkpt lat="49.80175" lon="4.88092">
        <ele>340</ele>
        <time>2022-09-05T10:26:47.000Z</time>
      </trkpt>
      <trkpt lat="49.80175" lon="4.88088">
        <ele>340</ele>
        <time>2022-09-05T10:26:48.000Z</time>
      </trkpt>
      <trkpt lat="49.80175" lon="4.88084">
        <ele>341</ele>
        <time>2022-09-05T10:26:49.000Z</time>
      </trkpt>
      <trkpt lat="49.80176" lon="4.88081">
        <ele>341</ele>
        <time>2022-09-05T10:26:50.000Z</time>
      </trkpt>
      <trkpt lat="49.80176" lon="4.88077">
        <ele>341</ele>
        <time>2022-09-05T10:26:51.000Z</time>
      </trkpt>
      <trkpt lat="49.80176" lon="4.88074">
        <ele>341</ele>
        <time>2022-09-05T10:26:52.000Z</time>
      </trkpt>
      <trkpt lat="49.80177" lon="4.8807">
        <ele>342</ele>
        <time>2022-09-05T10:26:53.000Z</time>
      </trkpt>
      <trkpt lat="49.80177" lon="4.88067">
        <ele>342</ele>
        <time>2022-09-05T10:26:54.000Z</time>
      </trkpt>
      <trkpt lat="49.80177" lon="4.88063">
        <ele>342</ele>
        <time>2022-09-05T10:26:55.000Z</time>
      </trkpt>
      <trkpt lat="49.80178" lon="4.88059">
        <ele>342</ele>
        <time>2022-09-05T10:26:56.000Z</time>
      </trkpt>
      <trkpt lat="49.80178" lon="4.88056">
        <ele>343</ele>
        <time>2022-09-05T10:26:57.000Z</time>
      </trkpt>
      <trkpt lat="49.80178" lon="4.88052">
        <ele>343</ele>
        <time>2022-09-05T10:26:58.000Z</time>
      </trkpt>
      <trkpt lat="49.80178" lon="4.88048">
        <ele>343</ele>
        <time>2022-09-05T10:26:59.000Z</time>
      </trkpt>
      <trkpt lat="49.80178" lon="4.88045">
        <ele>344</ele>
        <time>2022-09-05T10:27:00.000Z</time>
      </trkpt>
      <trkpt lat="49.80178" lon="4.88041">
        <ele>344</ele>
        <time>2022-09-05T10:27:01.000Z</time>
      </trkpt>
      <trkpt lat="49.80178" lon="4.88037">
        <ele>344</ele>
        <time>2022-09-05T10:27:02.000Z</time>
      </trkpt>
      <trkpt lat="49.80178" lon="4.88033">
        <ele>344</ele>
        <time>2022-09-05T10:27:03.000Z</time>
      </trkpt>
      <trkpt lat="49.80178" lon="4.88029">
        <ele>345</ele>
        <time>2022-09-05T10:27:04.000Z</time>
      </trkpt>
      <trkpt lat="49.80178" lon="4.88025">
        <ele>345</ele>
        <time>2022-09-05T10:27:05.000Z</time>
      </trkpt>
      <trkpt lat="49.80178" lon="4.8802">
        <ele>345</ele>
        <time>2022-09-05T10:27:06.000Z</time>
      </trkpt>
      <trkpt lat="49.80179" lon="4.88016">
        <ele>346</ele>
        <time>2022-09-05T10:27:07.000Z</time>
      </trkpt>
      <trkpt lat="49.80179" lon="4.88013">
        <ele>346</ele>
        <time>2022-09-05T10:27:08.000Z</time>
      </trkpt>
      <trkpt lat="49.8018" lon="4.88009">
        <ele>346</ele>
        <time>2022-09-05T10:27:09.000Z</time>
      </trkpt>
      <trkpt lat="49.8018" lon="4.88005">
        <ele>347</ele>
        <time>2022-09-05T10:27:10.000Z</time>
      </trkpt>
      <trkpt lat="49.80181" lon="4.88002">
        <ele>347</ele>
        <time>2022-09-05T10:27:11.000Z</time>
      </trkpt>
      <trkpt lat="49.80182" lon="4.87998">
        <ele>347</ele>
        <time>2022-09-05T10:27:12.000Z</time>
      </trkpt>
      <trkpt lat="49.80183" lon="4.87994">
        <ele>347</ele>
        <time>2022-09-05T10:27:13.000Z</time>
      </trkpt>
      <trkpt lat="49.80183" lon="4.8799">
        <ele>348</ele>
        <time>2022-09-05T10:27:14.000Z</time>
      </trkpt>
      <trkpt lat="49.80184" lon="4.87987">
        <ele>348</ele>
        <time>2022-09-05T10:27:15.000Z</time>
      </trkpt>
      <trkpt lat="49.80186" lon="4.87983">
        <ele>348</ele>
        <time>2022-09-05T10:27:16.000Z</time>
      </trkpt>
      <trkpt lat="49.80186" lon="4.87979">
        <ele>348</ele>
        <time>2022-09-05T10:27:17.000Z</time>
      </trkpt>
      <trkpt lat="49.80188" lon="4.87976">
        <ele>349</ele>
        <time>2022-09-05T10:27:18.000Z</time>
      </trkpt>
      <trkpt lat="49.80189" lon="4.87973">
        <ele>349</ele>
        <time>2022-09-05T10:27:19.000Z</time>
      </trkpt>
      <trkpt lat="49.80191" lon="4.87969">
        <ele>349</ele>
        <time>2022-09-05T10:27:20.000Z</time>
      </trkpt>
      <trkpt lat="49.80192" lon="4.87965">
        <ele>349</ele>
        <time>2022-09-05T10:27:21.000Z</time>
      </trkpt>
      <trkpt lat="49.80193" lon="4.87962">
        <ele>349</ele>
        <time>2022-09-05T10:27:22.000Z</time>
      </trkpt>
      <trkpt lat="49.80194" lon="4.87959">
        <ele>350</ele>
        <time>2022-09-05T10:27:23.000Z</time>
      </trkpt>
      <trkpt lat="49.80195" lon="4.87956">
        <ele>350</ele>
        <time>2022-09-05T10:27:24.000Z</time>
      </trkpt>
      <trkpt lat="49.80196" lon="4.87953">
        <ele>350</ele>
        <time>2022-09-05T10:27:25.000Z</time>
      </trkpt>
      <trkpt lat="49.80197" lon="4.8795">
        <ele>350</ele>
        <time>2022-09-05T10:27:26.000Z</time>
      </trkpt>
      <trkpt lat="49.80199" lon="4.87946">
        <ele>350</ele>
        <time>2022-09-05T10:27:27.000Z</time>
      </trkpt>
      <trkpt lat="49.802" lon="4.87943">
        <ele>350</ele>
        <time>2022-09-05T10:27:28.000Z</time>
      </trkpt>
      <trkpt lat="49.80201" lon="4.8794">
        <ele>350</ele>
        <time>2022-09-05T10:27:29.000Z</time>
      </trkpt>
      <trkpt lat="49.80203" lon="4.87937">
        <ele>350</ele>
        <time>2022-09-05T10:27:30.000Z</time>
      </trkpt>
      <trkpt lat="49.80204" lon="4.87934">
        <ele>350</ele>
        <time>2022-09-05T10:27:31.000Z</time>
      </trkpt>
      <trkpt lat="49.80206" lon="4.87932">
        <ele>351</ele>
        <time>2022-09-05T10:27:32.000Z</time>
      </trkpt>
      <trkpt lat="49.80207" lon="4.87929">
        <ele>351</ele>
        <time>2022-09-05T10:27:33.000Z</time>
      </trkpt>
      <trkpt lat="49.80208" lon="4.87927">
        <ele>351</ele>
        <time>2022-09-05T10:27:34.000Z</time>
      </trkpt>
      <trkpt lat="49.80208" lon="4.87925">
        <ele>351</ele>
        <time>2022-09-05T10:27:35.000Z</time>
      </trkpt>
      <trkpt lat="49.80209" lon="4.87923">
        <ele>351</ele>
        <time>2022-09-05T10:27:36.000Z</time>
      </trkpt>
      <trkpt lat="49.8021" lon="4.8792">
        <ele>351</ele>
        <time>2022-09-05T10:27:37.000Z</time>
      </trkpt>
      <trkpt lat="49.80211" lon="4.87919">
        <ele>351</ele>
        <time>2022-09-05T10:27:38.000Z</time>
      </trkpt>
      <trkpt lat="49.80212" lon="4.87916">
        <ele>351</ele>
        <time>2022-09-05T10:27:39.000Z</time>
      </trkpt>
      <trkpt lat="49.80214" lon="4.87913">
        <ele>351</ele>
        <time>2022-09-05T10:27:40.000Z</time>
      </trkpt>
      <trkpt lat="49.80216" lon="4.87911">
        <ele>351</ele>
        <time>2022-09-05T10:27:41.000Z</time>
      </trkpt>
      <trkpt lat="49.80218" lon="4.87909">
        <ele>351</ele>
        <time>2022-09-05T10:27:42.000Z</time>
      </trkpt>
      <trkpt lat="49.80219" lon="4.87906">
        <ele>351</ele>
        <time>2022-09-05T10:27:43.000Z</time>
      </trkpt>
      <trkpt lat="49.80221" lon="4.87903">
        <ele>351</ele>
        <time>2022-09-05T10:27:44.000Z</time>
      </trkpt>
      <trkpt lat="49.80222" lon="4.87901">
        <ele>351</ele>
        <time>2022-09-05T10:27:45.000Z</time>
      </trkpt>
      <trkpt lat="49.80224" lon="4.87897">
        <ele>351</ele>
        <time>2022-09-05T10:27:46.000Z</time>
      </trkpt>
      <trkpt lat="49.80226" lon="4.87894">
        <ele>351</ele>
        <time>2022-09-05T10:27:47.000Z</time>
      </trkpt>
      <trkpt lat="49.80227" lon="4.8789">
        <ele>351</ele>
        <time>2022-09-05T10:27:48.000Z</time>
      </trkpt>
      <trkpt lat="49.80229" lon="4.87887">
        <ele>351</ele>
        <time>2022-09-05T10:27:49.000Z</time>
      </trkpt>
      <trkpt lat="49.80231" lon="4.87883">
        <ele>351</ele>
        <time>2022-09-05T10:27:50.000Z</time>
      </trkpt>
      <trkpt lat="49.80233" lon="4.8788">
        <ele>351</ele>
        <time>2022-09-05T10:27:51.000Z</time>
      </trkpt>
      <trkpt lat="49.80234" lon="4.87876">
        <ele>351</ele>
        <time>2022-09-05T10:27:52.000Z</time>
      </trkpt>
      <trkpt lat="49.80236" lon="4.87874">
        <ele>352</ele>
        <time>2022-09-05T10:27:53.000Z</time>
      </trkpt>
      <trkpt lat="49.80237" lon="4.87871">
        <ele>352</ele>
        <time>2022-09-05T10:27:54.000Z</time>
      </trkpt>
      <trkpt lat="49.80239" lon="4.87868">
        <ele>352</ele>
        <time>2022-09-05T10:27:55.000Z</time>
      </trkpt>
      <trkpt lat="49.8024" lon="4.87864">
        <ele>352</ele>
        <time>2022-09-05T10:27:56.000Z</time>
      </trkpt>
      <trkpt lat="49.80242" lon="4.87861">
        <ele>352</ele>
        <time>2022-09-05T10:27:57.000Z</time>
      </trkpt>
      <trkpt lat="49.80245" lon="4.87858">
        <ele>352</ele>
        <time>2022-09-05T10:27:58.000Z</time>
      </trkpt>
      <trkpt lat="49.80247" lon="4.87855">
        <ele>352</ele>
        <time>2022-09-05T10:27:59.000Z</time>
      </trkpt>
      <trkpt lat="49.80249" lon="4.87852">
        <ele>352</ele>
        <time>2022-09-05T10:28:00.000Z</time>
      </trkpt>
      <trkpt lat="49.8025" lon="4.8785">
        <ele>352</ele>
        <time>2022-09-05T10:28:01.000Z</time>
      </trkpt>
      <trkpt lat="49.80252" lon="4.87847">
        <ele>352</ele>
        <time>2022-09-05T10:28:02.000Z</time>
      </trkpt>
      <trkpt lat="49.80254" lon="4.87845">
        <ele>353</ele>
        <time>2022-09-05T10:28:03.000Z</time>
      </trkpt>
      <trkpt lat="49.80256" lon="4.87842">
        <ele>353</ele>
        <time>2022-09-05T10:28:04.000Z</time>
      </trkpt>
      <trkpt lat="49.80258" lon="4.87839">
        <ele>353</ele>
        <time>2022-09-05T10:28:05.000Z</time>
      </trkpt>
      <trkpt lat="49.8026" lon="4.87837">
        <ele>353</ele>
        <time>2022-09-05T10:28:06.000Z</time>
      </trkpt>
      <trkpt lat="49.80262" lon="4.87834">
        <ele>353</ele>
        <time>2022-09-05T10:28:07.000Z</time>
      </trkpt>
      <trkpt lat="49.80265" lon="4.87832">
        <ele>353</ele>
        <time>2022-09-05T10:28:08.000Z</time>
      </trkpt>
      <trkpt lat="49.80267" lon="4.87829">
        <ele>353</ele>
        <time>2022-09-05T10:28:09.000Z</time>
      </trkpt>
      <trkpt lat="49.80269" lon="4.87827">
        <ele>353</ele>
        <time>2022-09-05T10:28:10.000Z</time>
      </trkpt>
      <trkpt lat="49.80272" lon="4.87824">
        <ele>353</ele>
        <time>2022-09-05T10:28:11.000Z</time>
      </trkpt>
      <trkpt lat="49.80274" lon="4.87821">
        <ele>353</ele>
        <time>2022-09-05T10:28:12.000Z</time>
      </trkpt>
      <trkpt lat="49.80276" lon="4.87819">
        <ele>353</ele>
        <time>2022-09-05T10:28:13.000Z</time>
      </trkpt>
      <trkpt lat="49.80279" lon="4.87816">
        <ele>354</ele>
        <time>2022-09-05T10:28:14.000Z</time>
      </trkpt>
      <trkpt lat="49.80281" lon="4.87813">
        <ele>354</ele>
        <time>2022-09-05T10:28:15.000Z</time>
      </trkpt>
      <trkpt lat="49.80284" lon="4.8781">
        <ele>354</ele>
        <time>2022-09-05T10:28:16.000Z</time>
      </trkpt>
      <trkpt lat="49.80287" lon="4.87807">
        <ele>354</ele>
        <time>2022-09-05T10:28:17.000Z</time>
      </trkpt>
      <trkpt lat="49.80289" lon="4.87805">
        <ele>354</ele>
        <time>2022-09-05T10:28:18.000Z</time>
      </trkpt>
      <trkpt lat="49.80292" lon="4.87801">
        <ele>354</ele>
        <time>2022-09-05T10:28:19.000Z</time>
      </trkpt>
      <trkpt lat="49.80295" lon="4.87798">
        <ele>354</ele>
        <time>2022-09-05T10:28:20.000Z</time>
      </trkpt>
      <trkpt lat="49.80298" lon="4.87794">
        <ele>354</ele>
        <time>2022-09-05T10:28:21.000Z</time>
      </trkpt>
      <trkpt lat="49.80301" lon="4.87791">
        <ele>355</ele>
        <time>2022-09-05T10:28:22.000Z</time>
      </trkpt>
      <trkpt lat="49.80304" lon="4.87788">
        <ele>355</ele>
        <time>2022-09-05T10:28:23.000Z</time>
      </trkpt>
      <trkpt lat="49.80306" lon="4.87785">
        <ele>355</ele>
        <time>2022-09-05T10:28:24.000Z</time>
      </trkpt>
      <trkpt lat="49.80309" lon="4.87782">
        <ele>355</ele>
        <time>2022-09-05T10:28:25.000Z</time>
      </trkpt>
      <trkpt lat="49.80312" lon="4.87779">
        <ele>355</ele>
        <time>2022-09-05T10:28:26.000Z</time>
      </trkpt>
      <trkpt lat="49.80314" lon="4.87776">
        <ele>355</ele>
        <time>2022-09-05T10:28:27.000Z</time>
      </trkpt>
      <trkpt lat="49.80317" lon="4.87773">
        <ele>356</ele>
        <time>2022-09-05T10:28:28.000Z</time>
      </trkpt>
      <trkpt lat="49.8032" lon="4.8777">
        <ele>356</ele>
        <time>2022-09-05T10:28:29.000Z</time>
      </trkpt>
      <trkpt lat="49.80323" lon="4.87768">
        <ele>356</ele>
        <time>2022-09-05T10:28:30.000Z</time>
      </trkpt>
      <trkpt lat="49.80326" lon="4.87765">
        <ele>356</ele>
        <time>2022-09-05T10:28:31.000Z</time>
      </trkpt>
      <trkpt lat="49.80329" lon="4.87763">
        <ele>356</ele>
        <time>2022-09-05T10:28:32.000Z</time>
      </trkpt>
      <trkpt lat="49.80331" lon="4.8776">
        <ele>357</ele>
        <time>2022-09-05T10:28:33.000Z</time>
      </trkpt>
      <trkpt lat="49.80334" lon="4.87757">
        <ele>357</ele>
        <time>2022-09-05T10:28:34.000Z</time>
      </trkpt>
      <trkpt lat="49.80337" lon="4.87755">
        <ele>357</ele>
        <time>2022-09-05T10:28:35.000Z</time>
      </trkpt>
      <trkpt lat="49.8034" lon="4.87752">
        <ele>357</ele>
        <time>2022-09-05T10:28:36.000Z</time>
      </trkpt>
      <trkpt lat="49.80343" lon="4.8775">
        <ele>357</ele>
        <time>2022-09-05T10:28:37.000Z</time>
      </trkpt>
      <trkpt lat="49.80346" lon="4.87748">
        <ele>358</ele>
        <time>2022-09-05T10:28:38.000Z</time>
      </trkpt>
      <trkpt lat="49.80348" lon="4.87746">
        <ele>358</ele>
        <time>2022-09-05T10:28:39.000Z</time>
      </trkpt>
      <trkpt lat="49.80351" lon="4.87744">
        <ele>358</ele>
        <time>2022-09-05T10:28:40.000Z</time>
      </trkpt>
      <trkpt lat="49.80354" lon="4.87741">
        <ele>358</ele>
        <time>2022-09-05T10:28:41.000Z</time>
      </trkpt>
      <trkpt lat="49.80357" lon="4.87739">
        <ele>358</ele>
        <time>2022-09-05T10:28:42.000Z</time>
      </trkpt>
      <trkpt lat="49.8036" lon="4.87737">
        <ele>358</ele>
        <time>2022-09-05T10:28:43.000Z</time>
      </trkpt>
      <trkpt lat="49.80363" lon="4.87735">
        <ele>358</ele>
        <time>2022-09-05T10:28:44.000Z</time>
      </trkpt>
      <trkpt lat="49.80366" lon="4.87733">
        <ele>359</ele>
        <time>2022-09-05T10:28:45.000Z</time>
      </trkpt>
      <trkpt lat="49.80369" lon="4.87731">
        <ele>359</ele>
        <time>2022-09-05T10:28:46.000Z</time>
      </trkpt>
      <trkpt lat="49.80372" lon="4.8773">
        <ele>359</ele>
        <time>2022-09-05T10:28:47.000Z</time>
      </trkpt>
      <trkpt lat="49.80374" lon="4.87727">
        <ele>359</ele>
        <time>2022-09-05T10:28:48.000Z</time>
      </trkpt>
      <trkpt lat="49.80377" lon="4.87725">
        <ele>359</ele>
        <time>2022-09-05T10:28:49.000Z</time>
      </trkpt>
      <trkpt lat="49.8038" lon="4.87723">
        <ele>359</ele>
        <time>2022-09-05T10:28:50.000Z</time>
      </trkpt>
      <trkpt lat="49.80383" lon="4.87721">
        <ele>359</ele>
        <time>2022-09-05T10:28:51.000Z</time>
      </trkpt>
      <trkpt lat="49.80386" lon="4.87719">
        <ele>358</ele>
        <time>2022-09-05T10:28:52.000Z</time>
      </trkpt>
      <trkpt lat="49.80389" lon="4.87717">
        <ele>358</ele>
        <time>2022-09-05T10:28:53.000Z</time>
      </trkpt>
      <trkpt lat="49.80392" lon="4.87715">
        <ele>359</ele>
        <time>2022-09-05T10:28:54.000Z</time>
      </trkpt>
      <trkpt lat="49.80395" lon="4.87713">
        <ele>359</ele>
        <time>2022-09-05T10:28:55.000Z</time>
      </trkpt>
      <trkpt lat="49.80398" lon="4.87711">
        <ele>359</ele>
        <time>2022-09-05T10:28:56.000Z</time>
      </trkpt>
      <trkpt lat="49.80401" lon="4.8771">
        <ele>359</ele>
        <time>2022-09-05T10:28:57.000Z</time>
      </trkpt>
      <trkpt lat="49.80404" lon="4.87708">
        <ele>359</ele>
        <time>2022-09-05T10:28:58.000Z</time>
      </trkpt>
      <trkpt lat="49.80407" lon="4.87706">
        <ele>359</ele>
        <time>2022-09-05T10:28:59.000Z</time>
      </trkpt>
      <trkpt lat="49.8041" lon="4.87705">
        <ele>359</ele>
        <time>2022-09-05T10:29:00.000Z</time>
      </trkpt>
      <trkpt lat="49.80413" lon="4.87703">
        <ele>360</ele>
        <time>2022-09-05T10:29:01.000Z</time>
      </trkpt>
      <trkpt lat="49.80415" lon="4.87701">
        <ele>360</ele>
        <time>2022-09-05T10:29:02.000Z</time>
      </trkpt>
      <trkpt lat="49.80418" lon="4.877">
        <ele>360</ele>
        <time>2022-09-05T10:29:03.000Z</time>
      </trkpt>
      <trkpt lat="49.80421" lon="4.87698">
        <ele>360</ele>
        <time>2022-09-05T10:29:04.000Z</time>
      </trkpt>
      <trkpt lat="49.80424" lon="4.87697">
        <ele>360</ele>
        <time>2022-09-05T10:29:05.000Z</time>
      </trkpt>
      <trkpt lat="49.80427" lon="4.87696">
        <ele>361</ele>
        <time>2022-09-05T10:29:06.000Z</time>
      </trkpt>
      <trkpt lat="49.8043" lon="4.87695">
        <ele>361</ele>
        <time>2022-09-05T10:29:07.000Z</time>
      </trkpt>
      <trkpt lat="49.80432" lon="4.87693">
        <ele>361</ele>
        <time>2022-09-05T10:29:08.000Z</time>
      </trkpt>
      <trkpt lat="49.80435" lon="4.87693">
        <ele>361</ele>
        <time>2022-09-05T10:29:09.000Z</time>
      </trkpt>
      <trkpt lat="49.80438" lon="4.87692">
        <ele>361</ele>
        <time>2022-09-05T10:29:10.000Z</time>
      </trkpt>
      <trkpt lat="49.80441" lon="4.87692">
        <ele>361</ele>
        <time>2022-09-05T10:29:11.000Z</time>
      </trkpt>
      <trkpt lat="49.80444" lon="4.87691">
        <ele>361</ele>
        <time>2022-09-05T10:29:12.000Z</time>
      </trkpt>
      <trkpt lat="49.80447" lon="4.87691">
        <ele>361</ele>
        <time>2022-09-05T10:29:13.000Z</time>
      </trkpt>
      <trkpt lat="49.80451" lon="4.8769">
        <ele>361</ele>
        <time>2022-09-05T10:29:14.000Z</time>
      </trkpt>
      <trkpt lat="49.80454" lon="4.8769">
        <ele>361</ele>
        <time>2022-09-05T10:29:15.000Z</time>
      </trkpt>
      <trkpt lat="49.80457" lon="4.87688">
        <ele>361</ele>
        <time>2022-09-05T10:29:16.000Z</time>
      </trkpt>
      <trkpt lat="49.80459" lon="4.87685">
        <ele>361</ele>
        <time>2022-09-05T10:29:17.000Z</time>
      </trkpt>
      <trkpt lat="49.8046" lon="4.87681">
        <ele>361</ele>
        <time>2022-09-05T10:29:18.000Z</time>
      </trkpt>
      <trkpt lat="49.80461" lon="4.87678">
        <ele>361</ele>
        <time>2022-09-05T10:29:19.000Z</time>
      </trkpt>
      <trkpt lat="49.8046" lon="4.87674">
        <ele>361</ele>
        <time>2022-09-05T10:29:20.000Z</time>
      </trkpt>
      <trkpt lat="49.80459" lon="4.8767">
        <ele>361</ele>
        <time>2022-09-05T10:29:21.000Z</time>
      </trkpt>
      <trkpt lat="49.80458" lon="4.87666">
        <ele>361</ele>
        <time>2022-09-05T10:29:22.000Z</time>
      </trkpt>
      <trkpt lat="49.80458" lon="4.87661">
        <ele>361</ele>
        <time>2022-09-05T10:29:23.000Z</time>
      </trkpt>
      <trkpt lat="49.80456" lon="4.87657">
        <ele>361</ele>
        <time>2022-09-05T10:29:24.000Z</time>
      </trkpt>
      <trkpt lat="49.80455" lon="4.87652">
        <ele>361</ele>
        <time>2022-09-05T10:29:25.000Z</time>
      </trkpt>
      <trkpt lat="49.80454" lon="4.87646">
        <ele>361</ele>
        <time>2022-09-05T10:29:26.000Z</time>
      </trkpt>
      <trkpt lat="49.80453" lon="4.87641">
        <ele>361</ele>
        <time>2022-09-05T10:29:27.000Z</time>
      </trkpt>
      <trkpt lat="49.80452" lon="4.87636">
        <ele>361</ele>
        <time>2022-09-05T10:29:28.000Z</time>
      </trkpt>
      <trkpt lat="49.80451" lon="4.8763">
        <ele>361</ele>
        <time>2022-09-05T10:29:29.000Z</time>
      </trkpt>
      <trkpt lat="49.80449" lon="4.87625">
        <ele>362</ele>
        <time>2022-09-05T10:29:30.000Z</time>
      </trkpt>
      <trkpt lat="49.80448" lon="4.87619">
        <ele>362</ele>
        <time>2022-09-05T10:29:31.000Z</time>
      </trkpt>
      <trkpt lat="49.80446" lon="4.87614">
        <ele>362</ele>
        <time>2022-09-05T10:29:32.000Z</time>
      </trkpt>
      <trkpt lat="49.80445" lon="4.87608">
        <ele>362</ele>
        <time>2022-09-05T10:29:33.000Z</time>
      </trkpt>
      <trkpt lat="49.80444" lon="4.87603">
        <ele>362</ele>
        <time>2022-09-05T10:29:34.000Z</time>
      </trkpt>
      <trkpt lat="49.80443" lon="4.87597">
        <ele>362</ele>
        <time>2022-09-05T10:29:35.000Z</time>
      </trkpt>
      <trkpt lat="49.80441" lon="4.87592">
        <ele>363</ele>
        <time>2022-09-05T10:29:36.000Z</time>
      </trkpt>
      <trkpt lat="49.8044" lon="4.87586">
        <ele>363</ele>
        <time>2022-09-05T10:29:37.000Z</time>
      </trkpt>
      <trkpt lat="49.80439" lon="4.87581">
        <ele>363</ele>
        <time>2022-09-05T10:29:38.000Z</time>
      </trkpt>
      <trkpt lat="49.80438" lon="4.87577">
        <ele>363</ele>
        <time>2022-09-05T10:29:39.000Z</time>
      </trkpt>
      <trkpt lat="49.80437" lon="4.87572">
        <ele>364</ele>
        <time>2022-09-05T10:29:40.000Z</time>
      </trkpt>
      <trkpt lat="49.80436" lon="4.87567">
        <ele>364</ele>
        <time>2022-09-05T10:29:41.000Z</time>
      </trkpt>
      <trkpt lat="49.80435" lon="4.87563">
        <ele>364</ele>
        <time>2022-09-05T10:29:42.000Z</time>
      </trkpt>
      <trkpt lat="49.80434" lon="4.87559">
        <ele>364</ele>
        <time>2022-09-05T10:29:43.000Z</time>
      </trkpt>
      <trkpt lat="49.80433" lon="4.87555">
        <ele>364</ele>
        <time>2022-09-05T10:29:44.000Z</time>
      </trkpt>
      <trkpt lat="49.80432" lon="4.87551">
        <ele>365</ele>
        <time>2022-09-05T10:29:45.000Z</time>
      </trkpt>
      <trkpt lat="49.80432" lon="4.87547">
        <ele>365</ele>
        <time>2022-09-05T10:29:46.000Z</time>
      </trkpt>
      <trkpt lat="49.80431" lon="4.87543">
        <ele>365</ele>
        <time>2022-09-05T10:29:47.000Z</time>
      </trkpt>
      <trkpt lat="49.80431" lon="4.87539">
        <ele>365</ele>
        <time>2022-09-05T10:29:48.000Z</time>
      </trkpt>
      <trkpt lat="49.8043" lon="4.87536">
        <ele>366</ele>
        <time>2022-09-05T10:29:49.000Z</time>
      </trkpt>
      <trkpt lat="49.8043" lon="4.87533">
        <ele>366</ele>
        <time>2022-09-05T10:29:50.000Z</time>
      </trkpt>
      <trkpt lat="49.80429" lon="4.8753">
        <ele>366</ele>
        <time>2022-09-05T10:29:51.000Z</time>
      </trkpt>
      <trkpt lat="49.80429" lon="4.87527">
        <ele>367</ele>
        <time>2022-09-05T10:29:52.000Z</time>
      </trkpt>
      <trkpt lat="49.80428" lon="4.87524">
        <ele>367</ele>
        <time>2022-09-05T10:29:53.000Z</time>
      </trkpt>
      <trkpt lat="49.80427" lon="4.87521">
        <ele>367</ele>
        <time>2022-09-05T10:29:54.000Z</time>
      </trkpt>
      <trkpt lat="49.80426" lon="4.87518">
        <ele>367</ele>
        <time>2022-09-05T10:29:55.000Z</time>
      </trkpt>
      <trkpt lat="49.80425" lon="4.87515">
        <ele>367</ele>
        <time>2022-09-05T10:29:56.000Z</time>
      </trkpt>
      <trkpt lat="49.80424" lon="4.87512">
        <ele>368</ele>
        <time>2022-09-05T10:29:57.000Z</time>
      </trkpt>
      <trkpt lat="49.80423" lon="4.87509">
        <ele>368</ele>
        <time>2022-09-05T10:29:58.000Z</time>
      </trkpt>
      <trkpt lat="49.80422" lon="4.87505">
        <ele>368</ele>
        <time>2022-09-05T10:29:59.000Z</time>
      </trkpt>
      <trkpt lat="49.80421" lon="4.87502">
        <ele>368</ele>
        <time>2022-09-05T10:30:00.000Z</time>
      </trkpt>
      <trkpt lat="49.80421" lon="4.87499">
        <ele>369</ele>
        <time>2022-09-05T10:30:01.000Z</time>
      </trkpt>
      <trkpt lat="49.8042" lon="4.87496">
        <ele>369</ele>
        <time>2022-09-05T10:30:02.000Z</time>
      </trkpt>
      <trkpt lat="49.80418" lon="4.87492">
        <ele>370</ele>
        <time>2022-09-05T10:30:03.000Z</time>
      </trkpt>
      <trkpt lat="49.80417" lon="4.87489">
        <ele>370</ele>
        <time>2022-09-05T10:30:04.000Z</time>
      </trkpt>
      <trkpt lat="49.80416" lon="4.87486">
        <ele>370</ele>
        <time>2022-09-05T10:30:05.000Z</time>
      </trkpt>
      <trkpt lat="49.80414" lon="4.87483">
        <ele>371</ele>
        <time>2022-09-05T10:30:06.000Z</time>
      </trkpt>
      <trkpt lat="49.80413" lon="4.8748">
        <ele>371</ele>
        <time>2022-09-05T10:30:07.000Z</time>
      </trkpt>
      <trkpt lat="49.80412" lon="4.87477">
        <ele>371</ele>
        <time>2022-09-05T10:30:08.000Z</time>
      </trkpt>
      <trkpt lat="49.80411" lon="4.87473">
        <ele>372</ele>
        <time>2022-09-05T10:30:09.000Z</time>
      </trkpt>
      <trkpt lat="49.8041" lon="4.8747">
        <ele>372</ele>
        <time>2022-09-05T10:30:10.000Z</time>
      </trkpt>
      <trkpt lat="49.80409" lon="4.87467">
        <ele>372</ele>
        <time>2022-09-05T10:30:11.000Z</time>
      </trkpt>
      <trkpt lat="49.80408" lon="4.87464">
        <ele>373</ele>
        <time>2022-09-05T10:30:12.000Z</time>
      </trkpt>
      <trkpt lat="49.80406" lon="4.87461">
        <ele>373</ele>
        <time>2022-09-05T10:30:13.000Z</time>
      </trkpt>
      <trkpt lat="49.80405" lon="4.87457">
        <ele>373</ele>
        <time>2022-09-05T10:30:14.000Z</time>
      </trkpt>
      <trkpt lat="49.80403" lon="4.87454">
        <ele>373</ele>
        <time>2022-09-05T10:30:15.000Z</time>
      </trkpt>
      <trkpt lat="49.80402" lon="4.87451">
        <ele>373</ele>
        <time>2022-09-05T10:30:16.000Z</time>
      </trkpt>
      <trkpt lat="49.804" lon="4.87447">
        <ele>374</ele>
        <time>2022-09-05T10:30:17.000Z</time>
      </trkpt>
      <trkpt lat="49.80399" lon="4.87443">
        <ele>374</ele>
        <time>2022-09-05T10:30:18.000Z</time>
      </trkpt>
      <trkpt lat="49.80397" lon="4.87439">
        <ele>374</ele>
        <time>2022-09-05T10:30:19.000Z</time>
      </trkpt>
      <trkpt lat="49.80396" lon="4.87436">
        <ele>374</ele>
        <time>2022-09-05T10:30:20.000Z</time>
      </trkpt>
      <trkpt lat="49.80394" lon="4.87432">
        <ele>374</ele>
        <time>2022-09-05T10:30:21.000Z</time>
      </trkpt>
      <trkpt lat="49.80392" lon="4.87428">
        <ele>374</ele>
        <time>2022-09-05T10:30:22.000Z</time>
      </trkpt>
      <trkpt lat="49.80391" lon="4.87424">
        <ele>374</ele>
        <time>2022-09-05T10:30:23.000Z</time>
      </trkpt>
      <trkpt lat="49.8039" lon="4.8742">
        <ele>374</ele>
        <time>2022-09-05T10:30:24.000Z</time>
      </trkpt>
      <trkpt lat="49.80389" lon="4.87416">
        <ele>374</ele>
        <time>2022-09-05T10:30:25.000Z</time>
      </trkpt>
      <trkpt lat="49.80387" lon="4.87413">
        <ele>374</ele>
        <time>2022-09-05T10:30:26.000Z</time>
      </trkpt>
      <trkpt lat="49.80386" lon="4.87409">
        <ele>374</ele>
        <time>2022-09-05T10:30:27.000Z</time>
      </trkpt>
      <trkpt lat="49.80385" lon="4.87406">
        <ele>374</ele>
        <time>2022-09-05T10:30:28.000Z</time>
      </trkpt>
      <trkpt lat="49.80384" lon="4.87403">
        <ele>374</ele>
        <time>2022-09-05T10:30:29.000Z</time>
      </trkpt>
      <trkpt lat="49.80383" lon="4.87401">
        <ele>374</ele>
        <time>2022-09-05T10:30:30.000Z</time>
      </trkpt>
      <trkpt lat="49.80382" lon="4.87399">
        <ele>374</ele>
        <time>2022-09-05T10:30:31.000Z</time>
      </trkpt>
      <trkpt lat="49.80381" lon="4.87398">
        <ele>375</ele>
        <time>2022-09-05T10:30:32.000Z</time>
      </trkpt>
      <trkpt lat="49.8038" lon="4.87397">
        <ele>375</ele>
        <time>2022-09-05T10:30:33.000Z</time>
      </trkpt>
      <trkpt lat="49.8038" lon="4.87397">
        <ele>375</ele>
        <time>2022-09-05T10:30:34.000Z</time>
      </trkpt>
      <trkpt lat="49.8038" lon="4.87397">
        <ele>375</ele>
        <time>2022-09-05T10:30:35.000Z</time>
      </trkpt>
      <trkpt lat="49.8038" lon="4.87396">
        <ele>375</ele>
        <time>2022-09-05T10:30:36.000Z</time>
      </trkpt>
      <trkpt lat="49.8038" lon="4.87396">
        <ele>375</ele>
        <time>2022-09-05T10:30:37.000Z</time>
      </trkpt>
      <trkpt lat="49.8038" lon="4.87396">
        <ele>375</ele>
        <time>2022-09-05T10:30:38.000Z</time>
      </trkpt>
      <trkpt lat="49.8038" lon="4.87396">
        <ele>375</ele>
        <time>2022-09-05T10:30:39.000Z</time>
      </trkpt>
      <trkpt lat="49.8038" lon="4.87396">
        <ele>375</ele>
        <time>2022-09-05T10:30:40.000Z</time>
      </trkpt>
      <trkpt lat="49.80379" lon="4.87396">
        <ele>376</ele>
        <time>2022-09-05T10:30:41.000Z</time>
      </trkpt>
      <trkpt lat="49.80378" lon="4.87394">
        <ele>376</ele>
        <time>2022-09-05T10:30:42.000Z</time>
      </trkpt>
      <trkpt lat="49.80377" lon="4.87392">
        <ele>376</ele>
        <time>2022-09-05T10:30:43.000Z</time>
      </trkpt>
      <trkpt lat="49.80376" lon="4.8739">
        <ele>376</ele>
        <time>2022-09-05T10:30:44.000Z</time>
      </trkpt>
      <trkpt lat="49.80375" lon="4.87387">
        <ele>376</ele>
        <time>2022-09-05T10:30:45.000Z</time>
      </trkpt>
      <trkpt lat="49.80374" lon="4.87386">
        <ele>376</ele>
        <time>2022-09-05T10:30:46.000Z</time>
      </trkpt>
      <trkpt lat="49.80372" lon="4.87383">
        <ele>376</ele>
        <time>2022-09-05T10:30:47.000Z</time>
      </trkpt>
      <trkpt lat="49.8037" lon="4.87381">
        <ele>376</ele>
        <time>2022-09-05T10:30:48.000Z</time>
      </trkpt>
      <trkpt lat="49.80368" lon="4.87378">
        <ele>376</ele>
        <time>2022-09-05T10:30:49.000Z</time>
      </trkpt>
      <trkpt lat="49.80366" lon="4.87375">
        <ele>377</ele>
        <time>2022-09-05T10:30:50.000Z</time>
      </trkpt>
      <trkpt lat="49.80365" lon="4.87372">
        <ele>377</ele>
        <time>2022-09-05T10:30:51.000Z</time>
      </trkpt>
      <trkpt lat="49.80363" lon="4.87369">
        <ele>377</ele>
        <time>2022-09-05T10:30:52.000Z</time>
      </trkpt>
      <trkpt lat="49.80361" lon="4.87366">
        <ele>377</ele>
        <time>2022-09-05T10:30:53.000Z</time>
      </trkpt>
      <trkpt lat="49.80359" lon="4.87362">
        <ele>377</ele>
        <time>2022-09-05T10:30:54.000Z</time>
      </trkpt>
      <trkpt lat="49.80357" lon="4.87358">
        <ele>377</ele>
        <time>2022-09-05T10:30:55.000Z</time>
      </trkpt>
      <trkpt lat="49.80354" lon="4.87354">
        <ele>378</ele>
        <time>2022-09-05T10:30:56.000Z</time>
      </trkpt>
      <trkpt lat="49.80352" lon="4.87351">
        <ele>378</ele>
        <time>2022-09-05T10:30:57.000Z</time>
      </trkpt>
      <trkpt lat="49.80349" lon="4.87347">
        <ele>378</ele>
        <time>2022-09-05T10:30:58.000Z</time>
      </trkpt>
      <trkpt lat="49.80346" lon="4.87344">
        <ele>378</ele>
        <time>2022-09-05T10:30:59.000Z</time>
      </trkpt>
      <trkpt lat="49.80344" lon="4.8734">
        <ele>378</ele>
        <time>2022-09-05T10:31:00.000Z</time>
      </trkpt>
      <trkpt lat="49.80342" lon="4.87336">
        <ele>378</ele>
        <time>2022-09-05T10:31:01.000Z</time>
      </trkpt>
      <trkpt lat="49.8034" lon="4.87333">
        <ele>378</ele>
        <time>2022-09-05T10:31:02.000Z</time>
      </trkpt>
      <trkpt lat="49.80337" lon="4.87329">
        <ele>378</ele>
        <time>2022-09-05T10:31:03.000Z</time>
      </trkpt>
      <trkpt lat="49.80335" lon="4.87325">
        <ele>379</ele>
        <time>2022-09-05T10:31:04.000Z</time>
      </trkpt>
      <trkpt lat="49.80333" lon="4.87321">
        <ele>379</ele>
        <time>2022-09-05T10:31:05.000Z</time>
      </trkpt>
      <trkpt lat="49.80332" lon="4.87319">
        <ele>379</ele>
        <time>2022-09-05T10:31:06.000Z</time>
      </trkpt>
      <trkpt lat="49.80332" lon="4.87319">
        <ele>379</ele>
        <time>2022-09-05T10:31:07.000Z</time>
      </trkpt>
      <trkpt lat="49.80332" lon="4.87318">
        <ele>379</ele>
        <time>2022-09-05T10:31:08.000Z</time>
      </trkpt>
      <trkpt lat="49.80332" lon="4.87318">
        <ele>379</ele>
        <time>2022-09-05T10:31:09.000Z</time>
      </trkpt>
      <trkpt lat="49.80332" lon="4.87318">
        <ele>379</ele>
        <time>2022-09-05T10:31:10.000Z</time>
      </trkpt>
      <trkpt lat="49.80332" lon="4.87318">
        <ele>379</ele>
        <time>2022-09-05T10:31:11.000Z</time>
      </trkpt>
      <trkpt lat="49.80332" lon="4.87318">
        <ele>379</ele>
        <time>2022-09-05T10:31:12.000Z</time>
      </trkpt>
      <trkpt lat="49.80332" lon="4.87318">
        <ele>379</ele>
        <time>2022-09-05T10:31:13.000Z</time>
      </trkpt>
      <trkpt lat="49.80332" lon="4.87317">
        <ele>379</ele>
        <time>2022-09-05T10:31:14.000Z</time>
      </trkpt>
      <trkpt lat="49.80331" lon="4.87317">
        <ele>379</ele>
        <time>2022-09-05T10:31:15.000Z</time>
      </trkpt>
      <trkpt lat="49.80331" lon="4.87317">
        <ele>379</ele>
        <time>2022-09-05T10:31:16.000Z</time>
      </trkpt>
      <trkpt lat="49.80331" lon="4.87317">
        <ele>379</ele>
        <time>2022-09-05T10:31:17.000Z</time>
      </trkpt>
      <trkpt lat="49.80331" lon="4.87317">
        <ele>379</ele>
        <time>2022-09-05T10:31:18.000Z</time>
      </trkpt>
      <trkpt lat="49.80331" lon="4.87317">
        <ele>379</ele>
        <time>2022-09-05T10:31:19.000Z</time>
      </trkpt>
      <trkpt lat="49.80331" lon="4.87317">
        <ele>379</ele>
        <time>2022-09-05T10:31:20.000Z</time>
      </trkpt>
      <trkpt lat="49.80332" lon="4.87317">
        <ele>379</ele>
        <time>2022-09-05T10:31:21.000Z</time>
      </trkpt>
      <trkpt lat="49.80332" lon="4.87317">
        <ele>379</ele>
        <time>2022-09-05T10:31:22.000Z</time>
      </trkpt>
      <trkpt lat="49.80331" lon="4.87317">
        <ele>379</ele>
        <time>2022-09-05T10:31:23.000Z</time>
      </trkpt>
      <trkpt lat="49.80331" lon="4.87317">
        <ele>379</ele>
        <time>2022-09-05T10:31:24.000Z</time>
      </trkpt>
      <trkpt lat="49.80331" lon="4.87317">
        <ele>379</ele>
        <time>2022-09-05T10:31:25.000Z</time>
      </trkpt>
      <trkpt lat="49.80331" lon="4.87317">
        <ele>379</ele>
        <time>2022-09-05T10:31:26.000Z</time>
      </trkpt>
      <trkpt lat="49.80331" lon="4.87317">
        <ele>379</ele>
        <time>2022-09-05T10:31:27.000Z</time>
      </trkpt>
      <trkpt lat="49.80331" lon="4.87317">
        <ele>379</ele>
        <time>2022-09-05T10:31:28.000Z</time>
      </trkpt>
      <trkpt lat="49.80331" lon="4.87317">
        <ele>380</ele>
        <time>2022-09-05T10:31:29.000Z</time>
      </trkpt>
      <trkpt lat="49.80331" lon="4.87317">
        <ele>380</ele>
        <time>2022-09-05T10:31:30.000Z</time>
      </trkpt>
      <trkpt lat="49.80331" lon="4.87317">
        <ele>380</ele>
        <time>2022-09-05T10:31:31.000Z</time>
      </trkpt>
      <trkpt lat="49.80331" lon="4.87317">
        <ele>380</ele>
        <time>2022-09-05T10:31:32.000Z</time>
      </trkpt>
      <trkpt lat="49.80331" lon="4.87316">
        <ele>380</ele>
        <time>2022-09-05T10:31:33.000Z</time>
      </trkpt>
      <trkpt lat="49.80332" lon="4.87315">
        <ele>380</ele>
        <time>2022-09-05T10:31:34.000Z</time>
      </trkpt>
      <trkpt lat="49.80333" lon="4.87315">
        <ele>380</ele>
        <time>2022-09-05T10:31:35.000Z</time>
      </trkpt>
      <trkpt lat="49.80333" lon="4.87315">
        <ele>380</ele>
        <time>2022-09-05T10:31:36.000Z</time>
      </trkpt>
      <trkpt lat="49.80333" lon="4.87315">
        <ele>380</ele>
        <time>2022-09-05T10:31:37.000Z</time>
      </trkpt>
      <trkpt lat="49.80333" lon="4.87315">
        <ele>380</ele>
        <time>2022-09-05T10:31:38.000Z</time>
      </trkpt>
      <trkpt lat="49.80333" lon="4.87315">
        <ele>380</ele>
        <time>2022-09-05T10:31:39.000Z</time>
      </trkpt>
      <trkpt lat="49.80333" lon="4.87315">
        <ele>380</ele>
        <time>2022-09-05T10:31:40.000Z</time>
      </trkpt>
      <trkpt lat="49.80333" lon="4.87315">
        <ele>380</ele>
        <time>2022-09-05T10:31:41.000Z</time>
      </trkpt>
      <trkpt lat="49.80333" lon="4.87315">
        <ele>380</ele>
        <time>2022-09-05T10:31:42.000Z</time>
      </trkpt>
      <trkpt lat="49.80332" lon="4.87314">
        <ele>380</ele>
        <time>2022-09-05T10:31:43.000Z</time>
      </trkpt>
      <trkpt lat="49.80332" lon="4.87313">
        <ele>381</ele>
        <time>2022-09-05T10:31:44.000Z</time>
      </trkpt>
      <trkpt lat="49.80331" lon="4.87312">
        <ele>381</ele>
        <time>2022-09-05T10:31:45.000Z</time>
      </trkpt>
      <trkpt lat="49.80329" lon="4.87311">
        <ele>381</ele>
        <time>2022-09-05T10:31:46.000Z</time>
      </trkpt>
      <trkpt lat="49.80328" lon="4.87308">
        <ele>381</ele>
        <time>2022-09-05T10:31:47.000Z</time>
      </trkpt>
      <trkpt lat="49.80326" lon="4.87305">
        <ele>381</ele>
        <time>2022-09-05T10:31:48.000Z</time>
      </trkpt>
      <trkpt lat="49.80324" lon="4.87302">
        <ele>381</ele>
        <time>2022-09-05T10:31:49.000Z</time>
      </trkpt>
      <trkpt lat="49.80323" lon="4.873">
        <ele>382</ele>
        <time>2022-09-05T10:31:50.000Z</time>
      </trkpt>
      <trkpt lat="49.80322" lon="4.87298">
        <ele>382</ele>
        <time>2022-09-05T10:31:51.000Z</time>
      </trkpt>
      <trkpt lat="49.80321" lon="4.87297">
        <ele>382</ele>
        <time>2022-09-05T10:31:52.000Z</time>
      </trkpt>
      <trkpt lat="49.8032" lon="4.87295">
        <ele>382</ele>
        <time>2022-09-05T10:31:53.000Z</time>
      </trkpt>
      <trkpt lat="49.80319" lon="4.87292">
        <ele>383</ele>
        <time>2022-09-05T10:31:54.000Z</time>
      </trkpt>
      <trkpt lat="49.80317" lon="4.87291">
        <ele>383</ele>
        <time>2022-09-05T10:31:55.000Z</time>
      </trkpt>
      <trkpt lat="49.80316" lon="4.87289">
        <ele>383</ele>
        <time>2022-09-05T10:31:56.000Z</time>
      </trkpt>
      <trkpt lat="49.80314" lon="4.87288">
        <ele>383</ele>
        <time>2022-09-05T10:31:57.000Z</time>
      </trkpt>
      <trkpt lat="49.80313" lon="4.87286">
        <ele>384</ele>
        <time>2022-09-05T10:31:58.000Z</time>
      </trkpt>
      <trkpt lat="49.80313" lon="4.87286">
        <ele>384</ele>
        <time>2022-09-05T10:31:59.000Z</time>
      </trkpt>
      <trkpt lat="49.80313" lon="4.87286">
        <ele>384</ele>
        <time>2022-09-05T10:32:00.000Z</time>
      </trkpt>
      <trkpt lat="49.80313" lon="4.87286">
        <ele>384</ele>
        <time>2022-09-05T10:32:01.000Z</time>
      </trkpt>
      <trkpt lat="49.80313" lon="4.87286">
        <ele>384</ele>
        <time>2022-09-05T10:32:02.000Z</time>
      </trkpt>
      <trkpt lat="49.80313" lon="4.87286">
        <ele>384</ele>
        <time>2022-09-05T10:32:03.000Z</time>
      </trkpt>
      <trkpt lat="49.80313" lon="4.87286">
        <ele>384</ele>
        <time>2022-09-05T10:32:04.000Z</time>
      </trkpt>
      <trkpt lat="49.80313" lon="4.87286">
        <ele>384</ele>
        <time>2022-09-05T10:32:05.000Z</time>
      </trkpt>
      <trkpt lat="49.80313" lon="4.87286">
        <ele>384</ele>
        <time>2022-09-05T10:32:06.000Z</time>
      </trkpt>
      <trkpt lat="49.80313" lon="4.87286">
        <ele>384</ele>
        <time>2022-09-05T10:32:07.000Z</time>
      </trkpt>
      <trkpt lat="49.80313" lon="4.87286">
        <ele>384</ele>
        <time>2022-09-05T10:32:08.000Z</time>
      </trkpt>
      <trkpt lat="49.80313" lon="4.87286">
        <ele>384</ele>
        <time>2022-09-05T10:32:09.000Z</time>
      </trkpt>
      <trkpt lat="49.80313" lon="4.87286">
        <ele>384</ele>
        <time>2022-09-05T10:32:10.000Z</time>
      </trkpt>
      <trkpt lat="49.80313" lon="4.87286">
        <ele>384</ele>
        <time>2022-09-05T10:32:11.000Z</time>
      </trkpt>
      <trkpt lat="49.80313" lon="4.87286">
        <ele>384</ele>
        <time>2022-09-05T10:32:12.000Z</time>
      </trkpt>
      <trkpt lat="49.80312" lon="4.87286">
        <ele>384</ele>
        <time>2022-09-05T10:32:13.000Z</time>
      </trkpt>
      <trkpt lat="49.80312" lon="4.87286">
        <ele>384</ele>
        <time>2022-09-05T10:32:14.000Z</time>
      </trkpt>
      <trkpt lat="49.80312" lon="4.87286">
        <ele>384</ele>
        <time>2022-09-05T10:32:15.000Z</time>
      </trkpt>
      <trkpt lat="49.80311" lon="4.87286">
        <ele>384</ele>
        <time>2022-09-05T10:32:16.000Z</time>
      </trkpt>
      <trkpt lat="49.80311" lon="4.87286">
        <ele>384</ele>
        <time>2022-09-05T10:32:17.000Z</time>
      </trkpt>
      <trkpt lat="49.80311" lon="4.87286">
        <ele>384</ele>
        <time>2022-09-05T10:32:18.000Z</time>
      </trkpt>
      <trkpt lat="49.80311" lon="4.87286">
        <ele>384</ele>
        <time>2022-09-05T10:32:19.000Z</time>
      </trkpt>
      <trkpt lat="49.80311" lon="4.87286">
        <ele>384</ele>
        <time>2022-09-05T10:32:20.000Z</time>
      </trkpt>
      <trkpt lat="49.80311" lon="4.87286">
        <ele>384</ele>
        <time>2022-09-05T10:32:21.000Z</time>
      </trkpt>
      <trkpt lat="49.80311" lon="4.87286">
        <ele>384</ele>
        <time>2022-09-05T10:32:22.000Z</time>
      </trkpt>
      <trkpt lat="49.80311" lon="4.87286">
        <ele>384</ele>
        <time>2022-09-05T10:32:23.000Z</time>
      </trkpt>
      <trkpt lat="49.80311" lon="4.87286">
        <ele>384</ele>
        <time>2022-09-05T10:32:24.000Z</time>
      </trkpt>
      <trkpt lat="49.80311" lon="4.87286">
        <ele>383</ele>
        <time>2022-09-05T10:32:25.000Z</time>
      </trkpt>
      <trkpt lat="49.80311" lon="4.87286">
        <ele>383</ele>
        <time>2022-09-05T10:32:26.000Z</time>
      </trkpt>
      <trkpt lat="49.80311" lon="4.87286">
        <ele>383</ele>
        <time>2022-09-05T10:32:27.000Z</time>
      </trkpt>
      <trkpt lat="49.80311" lon="4.87286">
        <ele>383</ele>
        <time>2022-09-05T10:32:28.000Z</time>
      </trkpt>
      <trkpt lat="49.80311" lon="4.87286">
        <ele>383</ele>
        <time>2022-09-05T10:32:29.000Z</time>
      </trkpt>
      <trkpt lat="49.80311" lon="4.87286">
        <ele>383</ele>
        <time>2022-09-05T10:32:30.000Z</time>
      </trkpt>
      <trkpt lat="49.80311" lon="4.87286">
        <ele>383</ele>
        <time>2022-09-05T10:32:31.000Z</time>
      </trkpt>
      <trkpt lat="49.80311" lon="4.87287">
        <ele>383</ele>
        <time>2022-09-05T10:32:32.000Z</time>
      </trkpt>
      <trkpt lat="49.80311" lon="4.87287">
        <ele>383</ele>
        <time>2022-09-05T10:32:33.000Z</time>
      </trkpt>
      <trkpt lat="49.8031" lon="4.87287">
        <ele>383</ele>
        <time>2022-09-05T10:32:34.000Z</time>
      </trkpt>
      <trkpt lat="49.8031" lon="4.87287">
        <ele>383</ele>
        <time>2022-09-05T10:32:35.000Z</time>
      </trkpt>
      <trkpt lat="49.8031" lon="4.87287">
        <ele>383</ele>
        <time>2022-09-05T10:32:36.000Z</time>
      </trkpt>
      <trkpt lat="49.8031" lon="4.87287">
        <ele>383</ele>
        <time>2022-09-05T10:32:37.000Z</time>
      </trkpt>
      <trkpt lat="49.8031" lon="4.87287">
        <ele>383</ele>
        <time>2022-09-05T10:32:38.000Z</time>
      </trkpt>
      <trkpt lat="49.8031" lon="4.87287">
        <ele>383</ele>
        <time>2022-09-05T10:32:39.000Z</time>
      </trkpt>
      <trkpt lat="49.8031" lon="4.87287">
        <ele>383</ele>
        <time>2022-09-05T10:32:40.000Z</time>
      </trkpt>
      <trkpt lat="49.8031" lon="4.87287">
        <ele>383</ele>
        <time>2022-09-05T10:32:41.000Z</time>
      </trkpt>
      <trkpt lat="49.8031" lon="4.87287">
        <ele>383</ele>
        <time>2022-09-05T10:32:42.000Z</time>
      </trkpt>
      <trkpt lat="49.8031" lon="4.87287">
        <ele>383</ele>
        <time>2022-09-05T10:32:43.000Z</time>
      </trkpt>
      <trkpt lat="49.8031" lon="4.87287">
        <ele>382</ele>
        <time>2022-09-05T10:32:44.000Z</time>
      </trkpt>
      <trkpt lat="49.8031" lon="4.87286">
        <ele>382</ele>
        <time>2022-09-05T10:32:45.000Z</time>
      </trkpt>
      <trkpt lat="49.80309" lon="4.87286">
        <ele>382</ele>
        <time>2022-09-05T10:32:46.000Z</time>
      </trkpt>
      <trkpt lat="49.80308" lon="4.87286">
        <ele>382</ele>
        <time>2022-09-05T10:32:47.000Z</time>
      </trkpt>
      <trkpt lat="49.80307" lon="4.87285">
        <ele>382</ele>
        <time>2022-09-05T10:32:48.000Z</time>
      </trkpt>
      <trkpt lat="49.80305" lon="4.87283">
        <ele>382</ele>
        <time>2022-09-05T10:32:49.000Z</time>
      </trkpt>
      <trkpt lat="49.80303" lon="4.87281">
        <ele>382</ele>
        <time>2022-09-05T10:32:50.000Z</time>
      </trkpt>
      <trkpt lat="49.80301" lon="4.87279">
        <ele>382</ele>
        <time>2022-09-05T10:32:51.000Z</time>
      </trkpt>
      <trkpt lat="49.80299" lon="4.87278">
        <ele>382</ele>
        <time>2022-09-05T10:32:52.000Z</time>
      </trkpt>
      <trkpt lat="49.80297" lon="4.87278">
        <ele>382</ele>
        <time>2022-09-05T10:32:53.000Z</time>
      </trkpt>
      <trkpt lat="49.80295" lon="4.87277">
        <ele>382</ele>
        <time>2022-09-05T10:32:54.000Z</time>
      </trkpt>
      <trkpt lat="49.80294" lon="4.87276">
        <ele>382</ele>
        <time>2022-09-05T10:32:55.000Z</time>
      </trkpt>
      <trkpt lat="49.80292" lon="4.87274">
        <ele>383</ele>
        <time>2022-09-05T10:32:56.000Z</time>
      </trkpt>
      <trkpt lat="49.8029" lon="4.87273">
        <ele>383</ele>
        <time>2022-09-05T10:32:57.000Z</time>
      </trkpt>
      <trkpt lat="49.80288" lon="4.87271">
        <ele>383</ele>
        <time>2022-09-05T10:32:58.000Z</time>
      </trkpt>
      <trkpt lat="49.80285" lon="4.87269">
        <ele>383</ele>
        <time>2022-09-05T10:32:59.000Z</time>
      </trkpt>
      <trkpt lat="49.80283" lon="4.87268">
        <ele>383</ele>
        <time>2022-09-05T10:33:00.000Z</time>
      </trkpt>
      <trkpt lat="49.80281" lon="4.87266">
        <ele>383</ele>
        <time>2022-09-05T10:33:01.000Z</time>
      </trkpt>
      <trkpt lat="49.80279" lon="4.87264">
        <ele>383</ele>
        <time>2022-09-05T10:33:02.000Z</time>
      </trkpt>
      <trkpt lat="49.80276" lon="4.87262">
        <ele>383</ele>
        <time>2022-09-05T10:33:03.000Z</time>
      </trkpt>
      <trkpt lat="49.80274" lon="4.8726">
        <ele>383</ele>
        <time>2022-09-05T10:33:04.000Z</time>
      </trkpt>
      <trkpt lat="49.80272" lon="4.87258">
        <ele>383</ele>
        <time>2022-09-05T10:33:05.000Z</time>
      </trkpt>
      <trkpt lat="49.80269" lon="4.87256">
        <ele>383</ele>
        <time>2022-09-05T10:33:06.000Z</time>
      </trkpt>
      <trkpt lat="49.80267" lon="4.87254">
        <ele>383</ele>
        <time>2022-09-05T10:33:07.000Z</time>
      </trkpt>
      <trkpt lat="49.80265" lon="4.87252">
        <ele>383</ele>
        <time>2022-09-05T10:33:08.000Z</time>
      </trkpt>
      <trkpt lat="49.80263" lon="4.8725">
        <ele>383</ele>
        <time>2022-09-05T10:33:09.000Z</time>
      </trkpt>
      <trkpt lat="49.80261" lon="4.87248">
        <ele>383</ele>
        <time>2022-09-05T10:33:10.000Z</time>
      </trkpt>
      <trkpt lat="49.80259" lon="4.87246">
        <ele>383</ele>
        <time>2022-09-05T10:33:11.000Z</time>
      </trkpt>
      <trkpt lat="49.80258" lon="4.87244">
        <ele>383</ele>
        <time>2022-09-05T10:33:12.000Z</time>
      </trkpt>
      <trkpt lat="49.80256" lon="4.87242">
        <ele>384</ele>
        <time>2022-09-05T10:33:13.000Z</time>
      </trkpt>
      <trkpt lat="49.80254" lon="4.8724">
        <ele>384</ele>
        <time>2022-09-05T10:33:14.000Z</time>
      </trkpt>
      <trkpt lat="49.80252" lon="4.87238">
        <ele>384</ele>
        <time>2022-09-05T10:33:15.000Z</time>
      </trkpt>
      <trkpt lat="49.8025" lon="4.87236">
        <ele>384</ele>
        <time>2022-09-05T10:33:16.000Z</time>
      </trkpt>
      <trkpt lat="49.80247" lon="4.87234">
        <ele>384</ele>
        <time>2022-09-05T10:33:17.000Z</time>
      </trkpt>
      <trkpt lat="49.80245" lon="4.87232">
        <ele>384</ele>
        <time>2022-09-05T10:33:18.000Z</time>
      </trkpt>
      <trkpt lat="49.80243" lon="4.8723">
        <ele>384</ele>
        <time>2022-09-05T10:33:19.000Z</time>
      </trkpt>
      <trkpt lat="49.80241" lon="4.87228">
        <ele>384</ele>
        <time>2022-09-05T10:33:20.000Z</time>
      </trkpt>
      <trkpt lat="49.8024" lon="4.87226">
        <ele>384</ele>
        <time>2022-09-05T10:33:21.000Z</time>
      </trkpt>
      <trkpt lat="49.80238" lon="4.87225">
        <ele>384</ele>
        <time>2022-09-05T10:33:22.000Z</time>
      </trkpt>
      <trkpt lat="49.80237" lon="4.87225">
        <ele>384</ele>
        <time>2022-09-05T10:33:23.000Z</time>
      </trkpt>
      <trkpt lat="49.80237" lon="4.87225">
        <ele>384</ele>
        <time>2022-09-05T10:33:24.000Z</time>
      </trkpt>
      <trkpt lat="49.80237" lon="4.87225">
        <ele>384</ele>
        <time>2022-09-05T10:33:25.000Z</time>
      </trkpt>
      <trkpt lat="49.80237" lon="4.87225">
        <ele>384</ele>
        <time>2022-09-05T10:33:26.000Z</time>
      </trkpt>
      <trkpt lat="49.80236" lon="4.87224">
        <ele>384</ele>
        <time>2022-09-05T10:33:27.000Z</time>
      </trkpt>
      <trkpt lat="49.80235" lon="4.87223">
        <ele>384</ele>
        <time>2022-09-05T10:33:28.000Z</time>
      </trkpt>
      <trkpt lat="49.80233" lon="4.87221">
        <ele>384</ele>
        <time>2022-09-05T10:33:29.000Z</time>
      </trkpt>
      <trkpt lat="49.80231" lon="4.8722">
        <ele>384</ele>
        <time>2022-09-05T10:33:30.000Z</time>
      </trkpt>
      <trkpt lat="49.80229" lon="4.87219">
        <ele>384</ele>
        <time>2022-09-05T10:33:31.000Z</time>
      </trkpt>
      <trkpt lat="49.80227" lon="4.87219">
        <ele>384</ele>
        <time>2022-09-05T10:33:32.000Z</time>
      </trkpt>
      <trkpt lat="49.80224" lon="4.87218">
        <ele>384</ele>
        <time>2022-09-05T10:33:33.000Z</time>
      </trkpt>
      <trkpt lat="49.80223" lon="4.87216">
        <ele>384</ele>
        <time>2022-09-05T10:33:34.000Z</time>
      </trkpt>
      <trkpt lat="49.8022" lon="4.87216">
        <ele>384</ele>
        <time>2022-09-05T10:33:35.000Z</time>
      </trkpt>
      <trkpt lat="49.80218" lon="4.87215">
        <ele>385</ele>
        <time>2022-09-05T10:33:36.000Z</time>
      </trkpt>
      <trkpt lat="49.80216" lon="4.87213">
        <ele>384</ele>
        <time>2022-09-05T10:33:37.000Z</time>
      </trkpt>
      <trkpt lat="49.80213" lon="4.87212">
        <ele>384</ele>
        <time>2022-09-05T10:33:38.000Z</time>
      </trkpt>
      <trkpt lat="49.8021" lon="4.87211">
        <ele>385</ele>
        <time>2022-09-05T10:33:39.000Z</time>
      </trkpt>
      <trkpt lat="49.80207" lon="4.8721">
        <ele>385</ele>
        <time>2022-09-05T10:33:40.000Z</time>
      </trkpt>
      <trkpt lat="49.80204" lon="4.8721">
        <ele>385</ele>
        <time>2022-09-05T10:33:41.000Z</time>
      </trkpt>
      <trkpt lat="49.80201" lon="4.87209">
        <ele>385</ele>
        <time>2022-09-05T10:33:42.000Z</time>
      </trkpt>
      <trkpt lat="49.80198" lon="4.87209">
        <ele>385</ele>
        <time>2022-09-05T10:33:43.000Z</time>
      </trkpt>
      <trkpt lat="49.80195" lon="4.87208">
        <ele>385</ele>
        <time>2022-09-05T10:33:44.000Z</time>
      </trkpt>
      <trkpt lat="49.80192" lon="4.87208">
        <ele>385</ele>
        <time>2022-09-05T10:33:45.000Z</time>
      </trkpt>
      <trkpt lat="49.80189" lon="4.87207">
        <ele>385</ele>
        <time>2022-09-05T10:33:46.000Z</time>
      </trkpt>
      <trkpt lat="49.80186" lon="4.87207">
        <ele>385</ele>
        <time>2022-09-05T10:33:47.000Z</time>
      </trkpt>
      <trkpt lat="49.80183" lon="4.87206">
        <ele>385</ele>
        <time>2022-09-05T10:33:48.000Z</time>
      </trkpt>
      <trkpt lat="49.8018" lon="4.87204">
        <ele>385</ele>
        <time>2022-09-05T10:33:49.000Z</time>
      </trkpt>
      <trkpt lat="49.80177" lon="4.87203">
        <ele>385</ele>
        <time>2022-09-05T10:33:50.000Z</time>
      </trkpt>
      <trkpt lat="49.80174" lon="4.87202">
        <ele>385</ele>
        <time>2022-09-05T10:33:51.000Z</time>
      </trkpt>
      <trkpt lat="49.80171" lon="4.87201">
        <ele>386</ele>
        <time>2022-09-05T10:33:52.000Z</time>
      </trkpt>
      <trkpt lat="49.80168" lon="4.87199">
        <ele>386</ele>
        <time>2022-09-05T10:33:53.000Z</time>
      </trkpt>
      <trkpt lat="49.80165" lon="4.87198">
        <ele>386</ele>
        <time>2022-09-05T10:33:54.000Z</time>
      </trkpt>
      <trkpt lat="49.80163" lon="4.87196">
        <ele>386</ele>
        <time>2022-09-05T10:33:55.000Z</time>
      </trkpt>
      <trkpt lat="49.8016" lon="4.87195">
        <ele>386</ele>
        <time>2022-09-05T10:33:56.000Z</time>
      </trkpt>
      <trkpt lat="49.80156" lon="4.87194">
        <ele>386</ele>
        <time>2022-09-05T10:33:57.000Z</time>
      </trkpt>
      <trkpt lat="49.80153" lon="4.87193">
        <ele>386</ele>
        <time>2022-09-05T10:33:58.000Z</time>
      </trkpt>
      <trkpt lat="49.8015" lon="4.87192">
        <ele>387</ele>
        <time>2022-09-05T10:33:59.000Z</time>
      </trkpt>
      <trkpt lat="49.80147" lon="4.87191">
        <ele>387</ele>
        <time>2022-09-05T10:34:00.000Z</time>
      </trkpt>
      <trkpt lat="49.80144" lon="4.8719">
        <ele>387</ele>
        <time>2022-09-05T10:34:01.000Z</time>
      </trkpt>
      <trkpt lat="49.8014" lon="4.87188">
        <ele>388</ele>
        <time>2022-09-05T10:34:02.000Z</time>
      </trkpt>
      <trkpt lat="49.80137" lon="4.87188">
        <ele>388</ele>
        <time>2022-09-05T10:34:03.000Z</time>
      </trkpt>
      <trkpt lat="49.80133" lon="4.87187">
        <ele>388</ele>
        <time>2022-09-05T10:34:04.000Z</time>
      </trkpt>
      <trkpt lat="49.8013" lon="4.87186">
        <ele>389</ele>
        <time>2022-09-05T10:34:05.000Z</time>
      </trkpt>
      <trkpt lat="49.80126" lon="4.87185">
        <ele>389</ele>
        <time>2022-09-05T10:34:06.000Z</time>
      </trkpt>
      <trkpt lat="49.80122" lon="4.87184">
        <ele>389</ele>
        <time>2022-09-05T10:34:07.000Z</time>
      </trkpt>
      <trkpt lat="49.80119" lon="4.87183">
        <ele>390</ele>
        <time>2022-09-05T10:34:08.000Z</time>
      </trkpt>
      <trkpt lat="49.80115" lon="4.87182">
        <ele>390</ele>
        <time>2022-09-05T10:34:09.000Z</time>
      </trkpt>
      <trkpt lat="49.80111" lon="4.87181">
        <ele>390</ele>
        <time>2022-09-05T10:34:10.000Z</time>
      </trkpt>
      <trkpt lat="49.80107" lon="4.8718">
        <ele>391</ele>
        <time>2022-09-05T10:34:11.000Z</time>
      </trkpt>
      <trkpt lat="49.80103" lon="4.87179">
        <ele>391</ele>
        <time>2022-09-05T10:34:12.000Z</time>
      </trkpt>
      <trkpt lat="49.80099" lon="4.87178">
        <ele>391</ele>
        <time>2022-09-05T10:34:13.000Z</time>
      </trkpt>
      <trkpt lat="49.80095" lon="4.87177">
        <ele>392</ele>
        <time>2022-09-05T10:34:14.000Z</time>
      </trkpt>
      <trkpt lat="49.80091" lon="4.87176">
        <ele>392</ele>
        <time>2022-09-05T10:34:15.000Z</time>
      </trkpt>
      <trkpt lat="49.80087" lon="4.87175">
        <ele>392</ele>
        <time>2022-09-05T10:34:16.000Z</time>
      </trkpt>
      <trkpt lat="49.80083" lon="4.87174">
        <ele>392</ele>
        <time>2022-09-05T10:34:17.000Z</time>
      </trkpt>
      <trkpt lat="49.80078" lon="4.87173">
        <ele>393</ele>
        <time>2022-09-05T10:34:18.000Z</time>
      </trkpt>
      <trkpt lat="49.80074" lon="4.87173">
        <ele>393</ele>
        <time>2022-09-05T10:34:19.000Z</time>
      </trkpt>
      <trkpt lat="49.8007" lon="4.87172">
        <ele>393</ele>
        <time>2022-09-05T10:34:20.000Z</time>
      </trkpt>
      <trkpt lat="49.80067" lon="4.87171">
        <ele>394</ele>
        <time>2022-09-05T10:34:21.000Z</time>
      </trkpt>
      <trkpt lat="49.80065" lon="4.87169">
        <ele>394</ele>
        <time>2022-09-05T10:34:22.000Z</time>
      </trkpt>
      <trkpt lat="49.80065" lon="4.87167">
        <ele>394</ele>
        <time>2022-09-05T10:34:23.000Z</time>
      </trkpt>
      <trkpt lat="49.80066" lon="4.87163">
        <ele>395</ele>
        <time>2022-09-05T10:34:24.000Z</time>
      </trkpt>
      <trkpt lat="49.80066" lon="4.87159">
        <ele>395</ele>
        <time>2022-09-05T10:34:25.000Z</time>
      </trkpt>
      <trkpt lat="49.80066" lon="4.87154">
        <ele>395</ele>
        <time>2022-09-05T10:34:26.000Z</time>
      </trkpt>
      <trkpt lat="49.80068" lon="4.87149">
        <ele>395</ele>
        <time>2022-09-05T10:34:27.000Z</time>
      </trkpt>
      <trkpt lat="49.80069" lon="4.87144">
        <ele>395</ele>
        <time>2022-09-05T10:34:28.000Z</time>
      </trkpt>
      <trkpt lat="49.80072" lon="4.8714">
        <ele>395</ele>
        <time>2022-09-05T10:34:29.000Z</time>
      </trkpt>
      <trkpt lat="49.80074" lon="4.87135">
        <ele>395</ele>
        <time>2022-09-05T10:34:30.000Z</time>
      </trkpt>
      <trkpt lat="49.80076" lon="4.87129">
        <ele>395</ele>
        <time>2022-09-05T10:34:31.000Z</time>
      </trkpt>
      <trkpt lat="49.80078" lon="4.87122">
        <ele>395</ele>
        <time>2022-09-05T10:34:32.000Z</time>
      </trkpt>
      <trkpt lat="49.8008" lon="4.87115">
        <ele>395</ele>
        <time>2022-09-05T10:34:33.000Z</time>
      </trkpt>
      <trkpt lat="49.80082" lon="4.87108">
        <ele>395</ele>
        <time>2022-09-05T10:34:34.000Z</time>
      </trkpt>
      <trkpt lat="49.80083" lon="4.87102">
        <ele>395</ele>
        <time>2022-09-05T10:34:35.000Z</time>
      </trkpt>
      <trkpt lat="49.80083" lon="4.87094">
        <ele>395</ele>
        <time>2022-09-05T10:34:36.000Z</time>
      </trkpt>
      <trkpt lat="49.80084" lon="4.87086">
        <ele>395</ele>
        <time>2022-09-05T10:34:37.000Z</time>
      </trkpt>
      <trkpt lat="49.80085" lon="4.87078">
        <ele>395</ele>
        <time>2022-09-05T10:34:38.000Z</time>
      </trkpt>
      <trkpt lat="49.80087" lon="4.87071">
        <ele>395</ele>
        <time>2022-09-05T10:34:39.000Z</time>
      </trkpt>
      <trkpt lat="49.80087" lon="4.87065">
        <ele>395</ele>
        <time>2022-09-05T10:34:40.000Z</time>
      </trkpt>
      <trkpt lat="49.80088" lon="4.87059">
        <ele>395</ele>
        <time>2022-09-05T10:34:41.000Z</time>
      </trkpt>
      <trkpt lat="49.80087" lon="4.87053">
        <ele>395</ele>
        <time>2022-09-05T10:34:42.000Z</time>
      </trkpt>
      <trkpt lat="49.80087" lon="4.87048">
        <ele>395</ele>
        <time>2022-09-05T10:34:43.000Z</time>
      </trkpt>
      <trkpt lat="49.80087" lon="4.87043">
        <ele>395</ele>
        <time>2022-09-05T10:34:44.000Z</time>
      </trkpt>
      <trkpt lat="49.80087" lon="4.87036">
        <ele>395</ele>
        <time>2022-09-05T10:34:45.000Z</time>
      </trkpt>
      <trkpt lat="49.80087" lon="4.87029">
        <ele>395</ele>
        <time>2022-09-05T10:34:46.000Z</time>
      </trkpt>
      <trkpt lat="49.80087" lon="4.87021">
        <ele>395</ele>
        <time>2022-09-05T10:34:47.000Z</time>
      </trkpt>
      <trkpt lat="49.80087" lon="4.87014">
        <ele>395</ele>
        <time>2022-09-05T10:34:48.000Z</time>
      </trkpt>
      <trkpt lat="49.80086" lon="4.87007">
        <ele>395</ele>
        <time>2022-09-05T10:34:49.000Z</time>
      </trkpt>
      <trkpt lat="49.80086" lon="4.87">
        <ele>395</ele>
        <time>2022-09-05T10:34:50.000Z</time>
      </trkpt>
      <trkpt lat="49.80086" lon="4.86993">
        <ele>394</ele>
        <time>2022-09-05T10:34:51.000Z</time>
      </trkpt>
      <trkpt lat="49.80086" lon="4.86989">
        <ele>394</ele>
        <time>2022-09-05T10:34:52.000Z</time>
      </trkpt>
      <trkpt lat="49.80087" lon="4.86984">
        <ele>394</ele>
        <time>2022-09-05T10:34:53.000Z</time>
      </trkpt>
      <trkpt lat="49.80088" lon="4.86978">
        <ele>393</ele>
        <time>2022-09-05T10:34:54.000Z</time>
      </trkpt>
      <trkpt lat="49.8009" lon="4.86974">
        <ele>393</ele>
        <time>2022-09-05T10:34:55.000Z</time>
      </trkpt>
      <trkpt lat="49.80092" lon="4.8697">
        <ele>393</ele>
        <time>2022-09-05T10:34:56.000Z</time>
      </trkpt>
      <trkpt lat="49.80094" lon="4.86966">
        <ele>393</ele>
        <time>2022-09-05T10:34:57.000Z</time>
      </trkpt>
      <trkpt lat="49.80096" lon="4.86962">
        <ele>392</ele>
        <time>2022-09-05T10:34:58.000Z</time>
      </trkpt>
      <trkpt lat="49.80097" lon="4.86956">
        <ele>392</ele>
        <time>2022-09-05T10:34:59.000Z</time>
      </trkpt>
      <trkpt lat="49.80098" lon="4.86951">
        <ele>391</ele>
        <time>2022-09-05T10:35:00.000Z</time>
      </trkpt>
      <trkpt lat="49.801" lon="4.86945">
        <ele>391</ele>
        <time>2022-09-05T10:35:01.000Z</time>
      </trkpt>
      <trkpt lat="49.80103" lon="4.86939">
        <ele>390</ele>
        <time>2022-09-05T10:35:02.000Z</time>
      </trkpt>
      <trkpt lat="49.80105" lon="4.86932">
        <ele>390</ele>
        <time>2022-09-05T10:35:03.000Z</time>
      </trkpt>
      <trkpt lat="49.80108" lon="4.86925">
        <ele>389</ele>
        <time>2022-09-05T10:35:04.000Z</time>
      </trkpt>
      <trkpt lat="49.80111" lon="4.86918">
        <ele>388</ele>
        <time>2022-09-05T10:35:05.000Z</time>
      </trkpt>
      <trkpt lat="49.80113" lon="4.86911">
        <ele>388</ele>
        <time>2022-09-05T10:35:06.000Z</time>
      </trkpt>
      <trkpt lat="49.80116" lon="4.86906">
        <ele>387</ele>
        <time>2022-09-05T10:35:07.000Z</time>
      </trkpt>
      <trkpt lat="49.80118" lon="4.86899">
        <ele>387</ele>
        <time>2022-09-05T10:35:08.000Z</time>
      </trkpt>
      <trkpt lat="49.80119" lon="4.86892">
        <ele>386</ele>
        <time>2022-09-05T10:35:09.000Z</time>
      </trkpt>
      <trkpt lat="49.80121" lon="4.86885">
        <ele>386</ele>
        <time>2022-09-05T10:35:10.000Z</time>
      </trkpt>
      <trkpt lat="49.80123" lon="4.86878">
        <ele>385</ele>
        <time>2022-09-05T10:35:11.000Z</time>
      </trkpt>
      <trkpt lat="49.80123" lon="4.86872">
        <ele>385</ele>
        <time>2022-09-05T10:35:12.000Z</time>
      </trkpt>
      <trkpt lat="49.80122" lon="4.86864">
        <ele>384</ele>
        <time>2022-09-05T10:35:13.000Z</time>
      </trkpt>
      <trkpt lat="49.80122" lon="4.86856">
        <ele>384</ele>
        <time>2022-09-05T10:35:14.000Z</time>
      </trkpt>
      <trkpt lat="49.80122" lon="4.86848">
        <ele>383</ele>
        <time>2022-09-05T10:35:15.000Z</time>
      </trkpt>
      <trkpt lat="49.80121" lon="4.86841">
        <ele>383</ele>
        <time>2022-09-05T10:35:16.000Z</time>
      </trkpt>
      <trkpt lat="49.80121" lon="4.86834">
        <ele>382</ele>
        <time>2022-09-05T10:35:17.000Z</time>
      </trkpt>
      <trkpt lat="49.80122" lon="4.86828">
        <ele>382</ele>
        <time>2022-09-05T10:35:18.000Z</time>
      </trkpt>
      <trkpt lat="49.80123" lon="4.86821">
        <ele>381</ele>
        <time>2022-09-05T10:35:19.000Z</time>
      </trkpt>
      <trkpt lat="49.80125" lon="4.86815">
        <ele>381</ele>
        <time>2022-09-05T10:35:20.000Z</time>
      </trkpt>
      <trkpt lat="49.80126" lon="4.86808">
        <ele>380</ele>
        <time>2022-09-05T10:35:21.000Z</time>
      </trkpt>
      <trkpt lat="49.80127" lon="4.86801">
        <ele>380</ele>
        <time>2022-09-05T10:35:22.000Z</time>
      </trkpt>
      <trkpt lat="49.80129" lon="4.86793">
        <ele>379</ele>
        <time>2022-09-05T10:35:23.000Z</time>
      </trkpt>
      <trkpt lat="49.8013" lon="4.86786">
        <ele>379</ele>
        <time>2022-09-05T10:35:24.000Z</time>
      </trkpt>
      <trkpt lat="49.80132" lon="4.8678">
        <ele>378</ele>
        <time>2022-09-05T10:35:25.000Z</time>
      </trkpt>
      <trkpt lat="49.80135" lon="4.86774">
        <ele>378</ele>
        <time>2022-09-05T10:35:26.000Z</time>
      </trkpt>
      <trkpt lat="49.80138" lon="4.86769">
        <ele>377</ele>
        <time>2022-09-05T10:35:27.000Z</time>
      </trkpt>
      <trkpt lat="49.8014" lon="4.86765">
        <ele>377</ele>
        <time>2022-09-05T10:35:28.000Z</time>
      </trkpt>
      <trkpt lat="49.80142" lon="4.86761">
        <ele>376</ele>
        <time>2022-09-05T10:35:29.000Z</time>
      </trkpt>
      <trkpt lat="49.80144" lon="4.86757">
        <ele>375</ele>
        <time>2022-09-05T10:35:30.000Z</time>
      </trkpt>
      <trkpt lat="49.80147" lon="4.86754">
        <ele>375</ele>
        <time>2022-09-05T10:35:31.000Z</time>
      </trkpt>
      <trkpt lat="49.80149" lon="4.86751">
        <ele>374</ele>
        <time>2022-09-05T10:35:32.000Z</time>
      </trkpt>
      <trkpt lat="49.80151" lon="4.86749">
        <ele>374</ele>
        <time>2022-09-05T10:35:33.000Z</time>
      </trkpt>
      <trkpt lat="49.80154" lon="4.86748">
        <ele>373</ele>
        <time>2022-09-05T10:35:34.000Z</time>
      </trkpt>
      <trkpt lat="49.80157" lon="4.86746">
        <ele>372</ele>
        <time>2022-09-05T10:35:35.000Z</time>
      </trkpt>
      <trkpt lat="49.80159" lon="4.86745">
        <ele>372</ele>
        <time>2022-09-05T10:35:36.000Z</time>
      </trkpt>
      <trkpt lat="49.8016" lon="4.86743">
        <ele>371</ele>
        <time>2022-09-05T10:35:37.000Z</time>
      </trkpt>
      <trkpt lat="49.80162" lon="4.86741">
        <ele>370</ele>
        <time>2022-09-05T10:35:38.000Z</time>
      </trkpt>
      <trkpt lat="49.80162" lon="4.86739">
        <ele>370</ele>
        <time>2022-09-05T10:35:39.000Z</time>
      </trkpt>
      <trkpt lat="49.80163" lon="4.86737">
        <ele>369</ele>
        <time>2022-09-05T10:35:40.000Z</time>
      </trkpt>
      <trkpt lat="49.80163" lon="4.86737">
        <ele>369</ele>
        <time>2022-09-05T10:35:41.000Z</time>
      </trkpt>
      <trkpt lat="49.80163" lon="4.86737">
        <ele>369</ele>
        <time>2022-09-05T10:35:42.000Z</time>
      </trkpt>
      <trkpt lat="49.80164" lon="4.86737">
        <ele>368</ele>
        <time>2022-09-05T10:35:43.000Z</time>
      </trkpt>
      <trkpt lat="49.80164" lon="4.86737">
        <ele>368</ele>
        <time>2022-09-05T10:35:44.000Z</time>
      </trkpt>
      <trkpt lat="49.80164" lon="4.86737">
        <ele>368</ele>
        <time>2022-09-05T10:35:45.000Z</time>
      </trkpt>
      <trkpt lat="49.80164" lon="4.86737">
        <ele>367</ele>
        <time>2022-09-05T10:35:46.000Z</time>
      </trkpt>
      <trkpt lat="49.80163" lon="4.86737">
        <ele>367</ele>
        <time>2022-09-05T10:35:47.000Z</time>
      </trkpt>
      <trkpt lat="49.80162" lon="4.86736">
        <ele>367</ele>
        <time>2022-09-05T10:35:48.000Z</time>
      </trkpt>
      <trkpt lat="49.80162" lon="4.86737">
        <ele>367</ele>
        <time>2022-09-05T10:35:49.000Z</time>
      </trkpt>
      <trkpt lat="49.8016" lon="4.86737">
        <ele>366</ele>
        <time>2022-09-05T10:35:50.000Z</time>
      </trkpt>
      <trkpt lat="49.80159" lon="4.86737">
        <ele>366</ele>
        <time>2022-09-05T10:35:51.000Z</time>
      </trkpt>
      <trkpt lat="49.80157" lon="4.86736">
        <ele>366</ele>
        <time>2022-09-05T10:35:52.000Z</time>
      </trkpt>
      <trkpt lat="49.80155" lon="4.86736">
        <ele>365</ele>
        <time>2022-09-05T10:35:53.000Z</time>
      </trkpt>
      <trkpt lat="49.80152" lon="4.86735">
        <ele>365</ele>
        <time>2022-09-05T10:35:54.000Z</time>
      </trkpt>
      <trkpt lat="49.80149" lon="4.86735">
        <ele>365</ele>
        <time>2022-09-05T10:35:55.000Z</time>
      </trkpt>
      <trkpt lat="49.80146" lon="4.86734">
        <ele>364</ele>
        <time>2022-09-05T10:35:56.000Z</time>
      </trkpt>
      <trkpt lat="49.80143" lon="4.86733">
        <ele>364</ele>
        <time>2022-09-05T10:35:57.000Z</time>
      </trkpt>
      <trkpt lat="49.80139" lon="4.86733">
        <ele>363</ele>
        <time>2022-09-05T10:35:58.000Z</time>
      </trkpt>
      <trkpt lat="49.80135" lon="4.86733">
        <ele>363</ele>
        <time>2022-09-05T10:35:59.000Z</time>
      </trkpt>
      <trkpt lat="49.80131" lon="4.86733">
        <ele>363</ele>
        <time>2022-09-05T10:36:00.000Z</time>
      </trkpt>
      <trkpt lat="49.80127" lon="4.86734">
        <ele>362</ele>
        <time>2022-09-05T10:36:01.000Z</time>
      </trkpt>
      <trkpt lat="49.80123" lon="4.86735">
        <ele>362</ele>
        <time>2022-09-05T10:36:02.000Z</time>
      </trkpt>
      <trkpt lat="49.80118" lon="4.86736">
        <ele>362</ele>
        <time>2022-09-05T10:36:03.000Z</time>
      </trkpt>
      <trkpt lat="49.80113" lon="4.86738">
        <ele>362</ele>
        <time>2022-09-05T10:36:04.000Z</time>
      </trkpt>
      <trkpt lat="49.80109" lon="4.86741">
        <ele>361</ele>
        <time>2022-09-05T10:36:05.000Z</time>
      </trkpt>
      <trkpt lat="49.80105" lon="4.86743">
        <ele>361</ele>
        <time>2022-09-05T10:36:06.000Z</time>
      </trkpt>
      <trkpt lat="49.80101" lon="4.86745">
        <ele>361</ele>
        <time>2022-09-05T10:36:07.000Z</time>
      </trkpt>
      <trkpt lat="49.80098" lon="4.86748">
        <ele>360</ele>
        <time>2022-09-05T10:36:08.000Z</time>
      </trkpt>
      <trkpt lat="49.80094" lon="4.86751">
        <ele>360</ele>
        <time>2022-09-05T10:36:09.000Z</time>
      </trkpt>
      <trkpt lat="49.80089" lon="4.86754">
        <ele>360</ele>
        <time>2022-09-05T10:36:10.000Z</time>
      </trkpt>
      <trkpt lat="49.80084" lon="4.86757">
        <ele>360</ele>
        <time>2022-09-05T10:36:11.000Z</time>
      </trkpt>
      <trkpt lat="49.80079" lon="4.86761">
        <ele>359</ele>
        <time>2022-09-05T10:36:12.000Z</time>
      </trkpt>
      <trkpt lat="49.80074" lon="4.86765">
        <ele>359</ele>
        <time>2022-09-05T10:36:13.000Z</time>
      </trkpt>
      <trkpt lat="49.8007" lon="4.86768">
        <ele>359</ele>
        <time>2022-09-05T10:36:14.000Z</time>
      </trkpt>
      <trkpt lat="49.80065" lon="4.86771">
        <ele>359</ele>
        <time>2022-09-05T10:36:15.000Z</time>
      </trkpt>
      <trkpt lat="49.80059" lon="4.86773">
        <ele>359</ele>
        <time>2022-09-05T10:36:16.000Z</time>
      </trkpt>
      <trkpt lat="49.80053" lon="4.86775">
        <ele>358</ele>
        <time>2022-09-05T10:36:17.000Z</time>
      </trkpt>
      <trkpt lat="49.80047" lon="4.86776">
        <ele>358</ele>
        <time>2022-09-05T10:36:18.000Z</time>
      </trkpt>
      <trkpt lat="49.80041" lon="4.86775">
        <ele>358</ele>
        <time>2022-09-05T10:36:19.000Z</time>
      </trkpt>
      <trkpt lat="49.80035" lon="4.86775">
        <ele>358</ele>
        <time>2022-09-05T10:36:20.000Z</time>
      </trkpt>
      <trkpt lat="49.8003" lon="4.86774">
        <ele>358</ele>
        <time>2022-09-05T10:36:21.000Z</time>
      </trkpt>
      <trkpt lat="49.80025" lon="4.86774">
        <ele>357</ele>
        <time>2022-09-05T10:36:22.000Z</time>
      </trkpt>
      <trkpt lat="49.8002" lon="4.86772">
        <ele>357</ele>
        <time>2022-09-05T10:36:23.000Z</time>
      </trkpt>
      <trkpt lat="49.80017" lon="4.8677">
        <ele>357</ele>
        <time>2022-09-05T10:36:24.000Z</time>
      </trkpt>
      <trkpt lat="49.80015" lon="4.86767">
        <ele>357</ele>
        <time>2022-09-05T10:36:25.000Z</time>
      </trkpt>
      <trkpt lat="49.80014" lon="4.86764">
        <ele>357</ele>
        <time>2022-09-05T10:36:26.000Z</time>
      </trkpt>
      <trkpt lat="49.80013" lon="4.8676">
        <ele>357</ele>
        <time>2022-09-05T10:36:27.000Z</time>
      </trkpt>
      <trkpt lat="49.80011" lon="4.86756">
        <ele>356</ele>
        <time>2022-09-05T10:36:28.000Z</time>
      </trkpt>
      <trkpt lat="49.8001" lon="4.86752">
        <ele>356</ele>
        <time>2022-09-05T10:36:29.000Z</time>
      </trkpt>
      <trkpt lat="49.80008" lon="4.86748">
        <ele>356</ele>
        <time>2022-09-05T10:36:30.000Z</time>
      </trkpt>
      <trkpt lat="49.80007" lon="4.86744">
        <ele>356</ele>
        <time>2022-09-05T10:36:31.000Z</time>
      </trkpt>
      <trkpt lat="49.80005" lon="4.86741">
        <ele>356</ele>
        <time>2022-09-05T10:36:32.000Z</time>
      </trkpt>
      <trkpt lat="49.80003" lon="4.86738">
        <ele>356</ele>
        <time>2022-09-05T10:36:33.000Z</time>
      </trkpt>
      <trkpt lat="49.80001" lon="4.86734">
        <ele>356</ele>
        <time>2022-09-05T10:36:34.000Z</time>
      </trkpt>
      <trkpt lat="49.79999" lon="4.86731">
        <ele>355</ele>
        <time>2022-09-05T10:36:35.000Z</time>
      </trkpt>
      <trkpt lat="49.79997" lon="4.86728">
        <ele>355</ele>
        <time>2022-09-05T10:36:36.000Z</time>
      </trkpt>
      <trkpt lat="49.79995" lon="4.86724">
        <ele>355</ele>
        <time>2022-09-05T10:36:37.000Z</time>
      </trkpt>
      <trkpt lat="49.79993" lon="4.86721">
        <ele>355</ele>
        <time>2022-09-05T10:36:38.000Z</time>
      </trkpt>
      <trkpt lat="49.79991" lon="4.86718">
        <ele>355</ele>
        <time>2022-09-05T10:36:39.000Z</time>
      </trkpt>
      <trkpt lat="49.79989" lon="4.86715">
        <ele>355</ele>
        <time>2022-09-05T10:36:40.000Z</time>
      </trkpt>
      <trkpt lat="49.79987" lon="4.86712">
        <ele>355</ele>
        <time>2022-09-05T10:36:41.000Z</time>
      </trkpt>
      <trkpt lat="49.79985" lon="4.86709">
        <ele>355</ele>
        <time>2022-09-05T10:36:42.000Z</time>
      </trkpt>
      <trkpt lat="49.79982" lon="4.86706">
        <ele>356</ele>
        <time>2022-09-05T10:36:43.000Z</time>
      </trkpt>
      <trkpt lat="49.7998" lon="4.86704">
        <ele>356</ele>
        <time>2022-09-05T10:36:44.000Z</time>
      </trkpt>
      <trkpt lat="49.79977" lon="4.86701">
        <ele>356</ele>
        <time>2022-09-05T10:36:45.000Z</time>
      </trkpt>
      <trkpt lat="49.79974" lon="4.86699">
        <ele>356</ele>
        <time>2022-09-05T10:36:46.000Z</time>
      </trkpt>
      <trkpt lat="49.79971" lon="4.86696">
        <ele>356</ele>
        <time>2022-09-05T10:36:47.000Z</time>
      </trkpt>
      <trkpt lat="49.79969" lon="4.86694">
        <ele>356</ele>
        <time>2022-09-05T10:36:48.000Z</time>
      </trkpt>
      <trkpt lat="49.79966" lon="4.86691">
        <ele>356</ele>
        <time>2022-09-05T10:36:49.000Z</time>
      </trkpt>
      <trkpt lat="49.79963" lon="4.86689">
        <ele>356</ele>
        <time>2022-09-05T10:36:50.000Z</time>
      </trkpt>
      <trkpt lat="49.79959" lon="4.86688">
        <ele>356</ele>
        <time>2022-09-05T10:36:51.000Z</time>
      </trkpt>
      <trkpt lat="49.79956" lon="4.86686">
        <ele>356</ele>
        <time>2022-09-05T10:36:52.000Z</time>
      </trkpt>
      <trkpt lat="49.79952" lon="4.86684">
        <ele>356</ele>
        <time>2022-09-05T10:36:53.000Z</time>
      </trkpt>
      <trkpt lat="49.79947" lon="4.86682">
        <ele>357</ele>
        <time>2022-09-05T10:36:54.000Z</time>
      </trkpt>
      <trkpt lat="49.79943" lon="4.8668">
        <ele>357</ele>
        <time>2022-09-05T10:36:55.000Z</time>
      </trkpt>
      <trkpt lat="49.7994" lon="4.86678">
        <ele>357</ele>
        <time>2022-09-05T10:36:56.000Z</time>
      </trkpt>
      <trkpt lat="49.79936" lon="4.86676">
        <ele>357</ele>
        <time>2022-09-05T10:36:57.000Z</time>
      </trkpt>
      <trkpt lat="49.79933" lon="4.86674">
        <ele>357</ele>
        <time>2022-09-05T10:36:58.000Z</time>
      </trkpt>
      <trkpt lat="49.79929" lon="4.86671">
        <ele>357</ele>
        <time>2022-09-05T10:36:59.000Z</time>
      </trkpt>
      <trkpt lat="49.79925" lon="4.86669">
        <ele>357</ele>
        <time>2022-09-05T10:37:00.000Z</time>
      </trkpt>
      <trkpt lat="49.79921" lon="4.86665">
        <ele>357</ele>
        <time>2022-09-05T10:37:01.000Z</time>
      </trkpt>
      <trkpt lat="49.79917" lon="4.86661">
        <ele>357</ele>
        <time>2022-09-05T10:37:02.000Z</time>
      </trkpt>
      <trkpt lat="49.79914" lon="4.86656">
        <ele>358</ele>
        <time>2022-09-05T10:37:03.000Z</time>
      </trkpt>
      <trkpt lat="49.79911" lon="4.86651">
        <ele>358</ele>
        <time>2022-09-05T10:37:04.000Z</time>
      </trkpt>
      <trkpt lat="49.79909" lon="4.86645">
        <ele>358</ele>
        <time>2022-09-05T10:37:05.000Z</time>
      </trkpt>
      <trkpt lat="49.79906" lon="4.86639">
        <ele>358</ele>
        <time>2022-09-05T10:37:06.000Z</time>
      </trkpt>
      <trkpt lat="49.79903" lon="4.86634">
        <ele>358</ele>
        <time>2022-09-05T10:37:07.000Z</time>
      </trkpt>
      <trkpt lat="49.79901" lon="4.86627">
        <ele>359</ele>
        <time>2022-09-05T10:37:08.000Z</time>
      </trkpt>
      <trkpt lat="49.79899" lon="4.86621">
        <ele>359</ele>
        <time>2022-09-05T10:37:09.000Z</time>
      </trkpt>
      <trkpt lat="49.79897" lon="4.86615">
        <ele>359</ele>
        <time>2022-09-05T10:37:10.000Z</time>
      </trkpt>
      <trkpt lat="49.79896" lon="4.86608">
        <ele>360</ele>
        <time>2022-09-05T10:37:11.000Z</time>
      </trkpt>
      <trkpt lat="49.79895" lon="4.86602">
        <ele>360</ele>
        <time>2022-09-05T10:37:12.000Z</time>
      </trkpt>
      <trkpt lat="49.79894" lon="4.86596">
        <ele>360</ele>
        <time>2022-09-05T10:37:13.000Z</time>
      </trkpt>
      <trkpt lat="49.79893" lon="4.86589">
        <ele>360</ele>
        <time>2022-09-05T10:37:14.000Z</time>
      </trkpt>
      <trkpt lat="49.79892" lon="4.86582">
        <ele>361</ele>
        <time>2022-09-05T10:37:15.000Z</time>
      </trkpt>
      <trkpt lat="49.79892" lon="4.86576">
        <ele>361</ele>
        <time>2022-09-05T10:37:16.000Z</time>
      </trkpt>
      <trkpt lat="49.79891" lon="4.86569">
        <ele>361</ele>
        <time>2022-09-05T10:37:17.000Z</time>
      </trkpt>
      <trkpt lat="49.79891" lon="4.86562">
        <ele>362</ele>
        <time>2022-09-05T10:37:18.000Z</time>
      </trkpt>
      <trkpt lat="49.7989" lon="4.86556">
        <ele>362</ele>
        <time>2022-09-05T10:37:19.000Z</time>
      </trkpt>
      <trkpt lat="49.79889" lon="4.86549">
        <ele>362</ele>
        <time>2022-09-05T10:37:20.000Z</time>
      </trkpt>
      <trkpt lat="49.79889" lon="4.86542">
        <ele>362</ele>
        <time>2022-09-05T10:37:21.000Z</time>
      </trkpt>
      <trkpt lat="49.79889" lon="4.86536">
        <ele>362</ele>
        <time>2022-09-05T10:37:22.000Z</time>
      </trkpt>
      <trkpt lat="49.79888" lon="4.86528">
        <ele>363</ele>
        <time>2022-09-05T10:37:23.000Z</time>
      </trkpt>
      <trkpt lat="49.79888" lon="4.86521">
        <ele>363</ele>
        <time>2022-09-05T10:37:24.000Z</time>
      </trkpt>
      <trkpt lat="49.79888" lon="4.86514">
        <ele>363</ele>
        <time>2022-09-05T10:37:25.000Z</time>
      </trkpt>
      <trkpt lat="49.79889" lon="4.86507">
        <ele>363</ele>
        <time>2022-09-05T10:37:26.000Z</time>
      </trkpt>
      <trkpt lat="49.7989" lon="4.865">
        <ele>363</ele>
        <time>2022-09-05T10:37:27.000Z</time>
      </trkpt>
      <trkpt lat="49.79891" lon="4.86494">
        <ele>363</ele>
        <time>2022-09-05T10:37:28.000Z</time>
      </trkpt>
      <trkpt lat="49.79892" lon="4.86489">
        <ele>363</ele>
        <time>2022-09-05T10:37:29.000Z</time>
      </trkpt>
      <trkpt lat="49.79893" lon="4.86484">
        <ele>363</ele>
        <time>2022-09-05T10:37:30.000Z</time>
      </trkpt>
      <trkpt lat="49.79893" lon="4.86478">
        <ele>363</ele>
        <time>2022-09-05T10:37:31.000Z</time>
      </trkpt>
      <trkpt lat="49.79894" lon="4.86473">
        <ele>363</ele>
        <time>2022-09-05T10:37:32.000Z</time>
      </trkpt>
      <trkpt lat="49.79894" lon="4.86467">
        <ele>363</ele>
        <time>2022-09-05T10:37:33.000Z</time>
      </trkpt>
      <trkpt lat="49.79894" lon="4.86461">
        <ele>363</ele>
        <time>2022-09-05T10:37:34.000Z</time>
      </trkpt>
      <trkpt lat="49.79894" lon="4.86454">
        <ele>363</ele>
        <time>2022-09-05T10:37:35.000Z</time>
      </trkpt>
      <trkpt lat="49.79895" lon="4.86448">
        <ele>363</ele>
        <time>2022-09-05T10:37:36.000Z</time>
      </trkpt>
      <trkpt lat="49.79895" lon="4.86443">
        <ele>363</ele>
        <time>2022-09-05T10:37:37.000Z</time>
      </trkpt>
      <trkpt lat="49.79895" lon="4.86437">
        <ele>364</ele>
        <time>2022-09-05T10:37:38.000Z</time>
      </trkpt>
      <trkpt lat="49.79895" lon="4.86431">
        <ele>364</ele>
        <time>2022-09-05T10:37:39.000Z</time>
      </trkpt>
      <trkpt lat="49.79895" lon="4.86425">
        <ele>364</ele>
        <time>2022-09-05T10:37:40.000Z</time>
      </trkpt>
      <trkpt lat="49.79895" lon="4.86419">
        <ele>364</ele>
        <time>2022-09-05T10:37:41.000Z</time>
      </trkpt>
      <trkpt lat="49.79895" lon="4.86413">
        <ele>365</ele>
        <time>2022-09-05T10:37:42.000Z</time>
      </trkpt>
      <trkpt lat="49.79895" lon="4.86408">
        <ele>365</ele>
        <time>2022-09-05T10:37:43.000Z</time>
      </trkpt>
      <trkpt lat="49.79895" lon="4.86403">
        <ele>365</ele>
        <time>2022-09-05T10:37:44.000Z</time>
      </trkpt>
      <trkpt lat="49.79895" lon="4.86397">
        <ele>366</ele>
        <time>2022-09-05T10:37:45.000Z</time>
      </trkpt>
      <trkpt lat="49.79895" lon="4.86391">
        <ele>366</ele>
        <time>2022-09-05T10:37:46.000Z</time>
      </trkpt>
      <trkpt lat="49.79895" lon="4.86386">
        <ele>366</ele>
        <time>2022-09-05T10:37:47.000Z</time>
      </trkpt>
      <trkpt lat="49.79895" lon="4.86381">
        <ele>367</ele>
        <time>2022-09-05T10:37:48.000Z</time>
      </trkpt>
      <trkpt lat="49.79895" lon="4.86376">
        <ele>367</ele>
        <time>2022-09-05T10:37:49.000Z</time>
      </trkpt>
      <trkpt lat="49.79895" lon="4.86372">
        <ele>368</ele>
        <time>2022-09-05T10:37:50.000Z</time>
      </trkpt>
      <trkpt lat="49.79895" lon="4.86367">
        <ele>368</ele>
        <time>2022-09-05T10:37:51.000Z</time>
      </trkpt>
      <trkpt lat="49.79894" lon="4.86362">
        <ele>368</ele>
        <time>2022-09-05T10:37:52.000Z</time>
      </trkpt>
      <trkpt lat="49.79894" lon="4.86357">
        <ele>369</ele>
        <time>2022-09-05T10:37:53.000Z</time>
      </trkpt>
      <trkpt lat="49.79893" lon="4.86353">
        <ele>369</ele>
        <time>2022-09-05T10:37:54.000Z</time>
      </trkpt>
      <trkpt lat="49.79893" lon="4.86349">
        <ele>370</ele>
        <time>2022-09-05T10:37:55.000Z</time>
      </trkpt>
      <trkpt lat="49.79893" lon="4.86345">
        <ele>370</ele>
        <time>2022-09-05T10:37:56.000Z</time>
      </trkpt>
      <trkpt lat="49.79893" lon="4.86341">
        <ele>371</ele>
        <time>2022-09-05T10:37:57.000Z</time>
      </trkpt>
      <trkpt lat="49.79894" lon="4.86337">
        <ele>371</ele>
        <time>2022-09-05T10:37:58.000Z</time>
      </trkpt>
      <trkpt lat="49.79894" lon="4.86333">
        <ele>372</ele>
        <time>2022-09-05T10:37:59.000Z</time>
      </trkpt>
      <trkpt lat="49.79895" lon="4.86329">
        <ele>372</ele>
        <time>2022-09-05T10:38:00.000Z</time>
      </trkpt>
      <trkpt lat="49.79895" lon="4.86325">
        <ele>372</ele>
        <time>2022-09-05T10:38:01.000Z</time>
      </trkpt>
      <trkpt lat="49.79895" lon="4.86321">
        <ele>373</ele>
        <time>2022-09-05T10:38:02.000Z</time>
      </trkpt>
      <trkpt lat="49.79895" lon="4.86316">
        <ele>373</ele>
        <time>2022-09-05T10:38:03.000Z</time>
      </trkpt>
      <trkpt lat="49.79894" lon="4.86312">
        <ele>374</ele>
        <time>2022-09-05T10:38:04.000Z</time>
      </trkpt>
      <trkpt lat="49.79895" lon="4.86308">
        <ele>374</ele>
        <time>2022-09-05T10:38:05.000Z</time>
      </trkpt>
      <trkpt lat="49.79895" lon="4.86303">
        <ele>375</ele>
        <time>2022-09-05T10:38:06.000Z</time>
      </trkpt>
      <trkpt lat="49.79895" lon="4.86299">
        <ele>375</ele>
        <time>2022-09-05T10:38:07.000Z</time>
      </trkpt>
      <trkpt lat="49.79896" lon="4.86296">
        <ele>375</ele>
        <time>2022-09-05T10:38:08.000Z</time>
      </trkpt>
      <trkpt lat="49.79897" lon="4.86293">
        <ele>376</ele>
        <time>2022-09-05T10:38:09.000Z</time>
      </trkpt>
      <trkpt lat="49.79898" lon="4.86289">
        <ele>376</ele>
        <time>2022-09-05T10:38:10.000Z</time>
      </trkpt>
      <trkpt lat="49.79898" lon="4.86285">
        <ele>376</ele>
        <time>2022-09-05T10:38:11.000Z</time>
      </trkpt>
      <trkpt lat="49.79898" lon="4.86282">
        <ele>377</ele>
        <time>2022-09-05T10:38:12.000Z</time>
      </trkpt>
      <trkpt lat="49.79899" lon="4.8628">
        <ele>377</ele>
        <time>2022-09-05T10:38:13.000Z</time>
      </trkpt>
      <trkpt lat="49.79899" lon="4.86277">
        <ele>377</ele>
        <time>2022-09-05T10:38:14.000Z</time>
      </trkpt>
      <trkpt lat="49.799" lon="4.86275">
        <ele>378</ele>
        <time>2022-09-05T10:38:15.000Z</time>
      </trkpt>
      <trkpt lat="49.799" lon="4.86272">
        <ele>378</ele>
        <time>2022-09-05T10:38:16.000Z</time>
      </trkpt>
      <trkpt lat="49.799" lon="4.8627">
        <ele>378</ele>
        <time>2022-09-05T10:38:17.000Z</time>
      </trkpt>
      <trkpt lat="49.799" lon="4.86268">
        <ele>378</ele>
        <time>2022-09-05T10:38:18.000Z</time>
      </trkpt>
      <trkpt lat="49.79901" lon="4.86265">
        <ele>379</ele>
        <time>2022-09-05T10:38:19.000Z</time>
      </trkpt>
      <trkpt lat="49.79901" lon="4.86263">
        <ele>379</ele>
        <time>2022-09-05T10:38:20.000Z</time>
      </trkpt>
      <trkpt lat="49.79901" lon="4.8626">
        <ele>379</ele>
        <time>2022-09-05T10:38:21.000Z</time>
      </trkpt>
      <trkpt lat="49.79902" lon="4.86256">
        <ele>379</ele>
        <time>2022-09-05T10:38:22.000Z</time>
      </trkpt>
      <trkpt lat="49.79902" lon="4.86253">
        <ele>379</ele>
        <time>2022-09-05T10:38:23.000Z</time>
      </trkpt>
      <trkpt lat="49.79903" lon="4.8625">
        <ele>380</ele>
        <time>2022-09-05T10:38:24.000Z</time>
      </trkpt>
      <trkpt lat="49.79904" lon="4.86247">
        <ele>380</ele>
        <time>2022-09-05T10:38:25.000Z</time>
      </trkpt>
      <trkpt lat="49.79904" lon="4.86244">
        <ele>380</ele>
        <time>2022-09-05T10:38:26.000Z</time>
      </trkpt>
      <trkpt lat="49.79905" lon="4.86241">
        <ele>380</ele>
        <time>2022-09-05T10:38:27.000Z</time>
      </trkpt>
      <trkpt lat="49.79906" lon="4.86238">
        <ele>381</ele>
        <time>2022-09-05T10:38:28.000Z</time>
      </trkpt>
      <trkpt lat="49.79906" lon="4.86235">
        <ele>381</ele>
        <time>2022-09-05T10:38:29.000Z</time>
      </trkpt>
      <trkpt lat="49.79907" lon="4.86232">
        <ele>381</ele>
        <time>2022-09-05T10:38:30.000Z</time>
      </trkpt>
      <trkpt lat="49.79907" lon="4.86228">
        <ele>381</ele>
        <time>2022-09-05T10:38:31.000Z</time>
      </trkpt>
      <trkpt lat="49.79907" lon="4.86225">
        <ele>382</ele>
        <time>2022-09-05T10:38:32.000Z</time>
      </trkpt>
      <trkpt lat="49.79907" lon="4.86221">
        <ele>382</ele>
        <time>2022-09-05T10:38:33.000Z</time>
      </trkpt>
      <trkpt lat="49.79907" lon="4.86218">
        <ele>382</ele>
        <time>2022-09-05T10:38:34.000Z</time>
      </trkpt>
      <trkpt lat="49.79906" lon="4.86215">
        <ele>382</ele>
        <time>2022-09-05T10:38:35.000Z</time>
      </trkpt>
      <trkpt lat="49.79906" lon="4.86212">
        <ele>383</ele>
        <time>2022-09-05T10:38:36.000Z</time>
      </trkpt>
      <trkpt lat="49.79906" lon="4.86209">
        <ele>383</ele>
        <time>2022-09-05T10:38:37.000Z</time>
      </trkpt>
      <trkpt lat="49.79906" lon="4.86205">
        <ele>383</ele>
        <time>2022-09-05T10:38:38.000Z</time>
      </trkpt>
      <trkpt lat="49.79906" lon="4.86202">
        <ele>383</ele>
        <time>2022-09-05T10:38:39.000Z</time>
      </trkpt>
      <trkpt lat="49.79905" lon="4.86199">
        <ele>383</ele>
        <time>2022-09-05T10:38:40.000Z</time>
      </trkpt>
      <trkpt lat="49.79905" lon="4.86197">
        <ele>383</ele>
        <time>2022-09-05T10:38:41.000Z</time>
      </trkpt>
      <trkpt lat="49.79905" lon="4.86194">
        <ele>384</ele>
        <time>2022-09-05T10:38:42.000Z</time>
      </trkpt>
      <trkpt lat="49.79905" lon="4.86191">
        <ele>384</ele>
        <time>2022-09-05T10:38:43.000Z</time>
      </trkpt>
      <trkpt lat="49.79905" lon="4.86188">
        <ele>384</ele>
        <time>2022-09-05T10:38:44.000Z</time>
      </trkpt>
      <trkpt lat="49.79905" lon="4.86186">
        <ele>384</ele>
        <time>2022-09-05T10:38:45.000Z</time>
      </trkpt>
      <trkpt lat="49.79905" lon="4.86183">
        <ele>384</ele>
        <time>2022-09-05T10:38:46.000Z</time>
      </trkpt>
      <trkpt lat="49.79905" lon="4.8618">
        <ele>384</ele>
        <time>2022-09-05T10:38:47.000Z</time>
      </trkpt>
      <trkpt lat="49.79905" lon="4.86177">
        <ele>385</ele>
        <time>2022-09-05T10:38:48.000Z</time>
      </trkpt>
      <trkpt lat="49.79904" lon="4.86174">
        <ele>385</ele>
        <time>2022-09-05T10:38:49.000Z</time>
      </trkpt>
      <trkpt lat="49.79903" lon="4.8617">
        <ele>385</ele>
        <time>2022-09-05T10:38:50.000Z</time>
      </trkpt>
      <trkpt lat="49.79902" lon="4.86168">
        <ele>385</ele>
        <time>2022-09-05T10:38:51.000Z</time>
      </trkpt>
      <trkpt lat="49.79902" lon="4.86165">
        <ele>385</ele>
        <time>2022-09-05T10:38:52.000Z</time>
      </trkpt>
      <trkpt lat="49.79901" lon="4.86162">
        <ele>385</ele>
        <time>2022-09-05T10:38:53.000Z</time>
      </trkpt>
      <trkpt lat="49.799" lon="4.8616">
        <ele>385</ele>
        <time>2022-09-05T10:38:54.000Z</time>
      </trkpt>
      <trkpt lat="49.79898" lon="4.86157">
        <ele>385</ele>
        <time>2022-09-05T10:38:55.000Z</time>
      </trkpt>
      <trkpt lat="49.79897" lon="4.86154">
        <ele>385</ele>
        <time>2022-09-05T10:38:56.000Z</time>
      </trkpt>
      <trkpt lat="49.79895" lon="4.86152">
        <ele>385</ele>
        <time>2022-09-05T10:38:57.000Z</time>
      </trkpt>
      <trkpt lat="49.79894" lon="4.8615">
        <ele>385</ele>
        <time>2022-09-05T10:38:58.000Z</time>
      </trkpt>
      <trkpt lat="49.79893" lon="4.86147">
        <ele>385</ele>
        <time>2022-09-05T10:38:59.000Z</time>
      </trkpt>
      <trkpt lat="49.79891" lon="4.86144">
        <ele>385</ele>
        <time>2022-09-05T10:39:00.000Z</time>
      </trkpt>
      <trkpt lat="49.7989" lon="4.86142">
        <ele>385</ele>
        <time>2022-09-05T10:39:01.000Z</time>
      </trkpt>
      <trkpt lat="49.79889" lon="4.86139">
        <ele>385</ele>
        <time>2022-09-05T10:39:02.000Z</time>
      </trkpt>
      <trkpt lat="49.79887" lon="4.86137">
        <ele>385</ele>
        <time>2022-09-05T10:39:03.000Z</time>
      </trkpt>
      <trkpt lat="49.79885" lon="4.86134">
        <ele>385</ele>
        <time>2022-09-05T10:39:04.000Z</time>
      </trkpt>
      <trkpt lat="49.79884" lon="4.86132">
        <ele>385</ele>
        <time>2022-09-05T10:39:05.000Z</time>
      </trkpt>
      <trkpt lat="49.79882" lon="4.8613">
        <ele>385</ele>
        <time>2022-09-05T10:39:06.000Z</time>
      </trkpt>
      <trkpt lat="49.7988" lon="4.86127">
        <ele>385</ele>
        <time>2022-09-05T10:39:07.000Z</time>
      </trkpt>
      <trkpt lat="49.79878" lon="4.86124">
        <ele>385</ele>
        <time>2022-09-05T10:39:08.000Z</time>
      </trkpt>
      <trkpt lat="49.79876" lon="4.86121">
        <ele>385</ele>
        <time>2022-09-05T10:39:09.000Z</time>
      </trkpt>
      <trkpt lat="49.79874" lon="4.86118">
        <ele>385</ele>
        <time>2022-09-05T10:39:10.000Z</time>
      </trkpt>
      <trkpt lat="49.79871" lon="4.86116">
        <ele>385</ele>
        <time>2022-09-05T10:39:11.000Z</time>
      </trkpt>
      <trkpt lat="49.79868" lon="4.86113">
        <ele>385</ele>
        <time>2022-09-05T10:39:12.000Z</time>
      </trkpt>
      <trkpt lat="49.79866" lon="4.8611">
        <ele>384</ele>
        <time>2022-09-05T10:39:13.000Z</time>
      </trkpt>
      <trkpt lat="49.79863" lon="4.86107">
        <ele>384</ele>
        <time>2022-09-05T10:39:14.000Z</time>
      </trkpt>
      <trkpt lat="49.7986" lon="4.86105">
        <ele>384</ele>
        <time>2022-09-05T10:39:15.000Z</time>
      </trkpt>
      <trkpt lat="49.79857" lon="4.86103">
        <ele>384</ele>
        <time>2022-09-05T10:39:16.000Z</time>
      </trkpt>
      <trkpt lat="49.79855" lon="4.86101">
        <ele>384</ele>
        <time>2022-09-05T10:39:17.000Z</time>
      </trkpt>
      <trkpt lat="49.79852" lon="4.861">
        <ele>384</ele>
        <time>2022-09-05T10:39:18.000Z</time>
      </trkpt>
      <trkpt lat="49.79849" lon="4.86099">
        <ele>384</ele>
        <time>2022-09-05T10:39:19.000Z</time>
      </trkpt>
      <trkpt lat="49.79848" lon="4.86097">
        <ele>384</ele>
        <time>2022-09-05T10:39:20.000Z</time>
      </trkpt>
      <trkpt lat="49.79846" lon="4.86096">
        <ele>384</ele>
        <time>2022-09-05T10:39:21.000Z</time>
      </trkpt>
      <trkpt lat="49.79845" lon="4.86093">
        <ele>384</ele>
        <time>2022-09-05T10:39:22.000Z</time>
      </trkpt>
      <trkpt lat="49.79845" lon="4.8609">
        <ele>384</ele>
        <time>2022-09-05T10:39:23.000Z</time>
      </trkpt>
      <trkpt lat="49.79845" lon="4.86086">
        <ele>384</ele>
        <time>2022-09-05T10:39:24.000Z</time>
      </trkpt>
      <trkpt lat="49.79845" lon="4.86081">
        <ele>384</ele>
        <time>2022-09-05T10:39:25.000Z</time>
      </trkpt>
      <trkpt lat="49.79846" lon="4.86077">
        <ele>384</ele>
        <time>2022-09-05T10:39:26.000Z</time>
      </trkpt>
      <trkpt lat="49.79848" lon="4.86073">
        <ele>384</ele>
        <time>2022-09-05T10:39:27.000Z</time>
      </trkpt>
      <trkpt lat="49.7985" lon="4.86068">
        <ele>384</ele>
        <time>2022-09-05T10:39:28.000Z</time>
      </trkpt>
      <trkpt lat="49.79852" lon="4.86063">
        <ele>384</ele>
        <time>2022-09-05T10:39:29.000Z</time>
      </trkpt>
      <trkpt lat="49.79855" lon="4.86058">
        <ele>384</ele>
        <time>2022-09-05T10:39:30.000Z</time>
      </trkpt>
      <trkpt lat="49.79858" lon="4.86054">
        <ele>384</ele>
        <time>2022-09-05T10:39:31.000Z</time>
      </trkpt>
      <trkpt lat="49.79861" lon="4.86049">
        <ele>384</ele>
        <time>2022-09-05T10:39:32.000Z</time>
      </trkpt>
      <trkpt lat="49.79864" lon="4.86045">
        <ele>384</ele>
        <time>2022-09-05T10:39:33.000Z</time>
      </trkpt>
      <trkpt lat="49.79867" lon="4.86041">
        <ele>384</ele>
        <time>2022-09-05T10:39:34.000Z</time>
      </trkpt>
      <trkpt lat="49.7987" lon="4.86036">
        <ele>384</ele>
        <time>2022-09-05T10:39:35.000Z</time>
      </trkpt>
      <trkpt lat="49.79873" lon="4.86031">
        <ele>384</ele>
        <time>2022-09-05T10:39:36.000Z</time>
      </trkpt>
      <trkpt lat="49.79877" lon="4.86026">
        <ele>384</ele>
        <time>2022-09-05T10:39:37.000Z</time>
      </trkpt>
      <trkpt lat="49.7988" lon="4.86021">
        <ele>384</ele>
        <time>2022-09-05T10:39:38.000Z</time>
      </trkpt>
      <trkpt lat="49.79884" lon="4.86016">
        <ele>383</ele>
        <time>2022-09-05T10:39:39.000Z</time>
      </trkpt>
      <trkpt lat="49.79887" lon="4.86012">
        <ele>383</ele>
        <time>2022-09-05T10:39:40.000Z</time>
      </trkpt>
      <trkpt lat="49.7989" lon="4.86008">
        <ele>383</ele>
        <time>2022-09-05T10:39:41.000Z</time>
      </trkpt>
      <trkpt lat="49.79893" lon="4.86003">
        <ele>383</ele>
        <time>2022-09-05T10:39:42.000Z</time>
      </trkpt>
      <trkpt lat="49.79895" lon="4.85999">
        <ele>383</ele>
        <time>2022-09-05T10:39:43.000Z</time>
      </trkpt>
      <trkpt lat="49.79897" lon="4.85995">
        <ele>383</ele>
        <time>2022-09-05T10:39:44.000Z</time>
      </trkpt>
      <trkpt lat="49.799" lon="4.85991">
        <ele>383</ele>
        <time>2022-09-05T10:39:45.000Z</time>
      </trkpt>
      <trkpt lat="49.79902" lon="4.85988">
        <ele>383</ele>
        <time>2022-09-05T10:39:46.000Z</time>
      </trkpt>
      <trkpt lat="49.79904" lon="4.85984">
        <ele>383</ele>
        <time>2022-09-05T10:39:47.000Z</time>
      </trkpt>
      <trkpt lat="49.79907" lon="4.85981">
        <ele>383</ele>
        <time>2022-09-05T10:39:48.000Z</time>
      </trkpt>
      <trkpt lat="49.79909" lon="4.85978">
        <ele>383</ele>
        <time>2022-09-05T10:39:49.000Z</time>
      </trkpt>
      <trkpt lat="49.79911" lon="4.85975">
        <ele>383</ele>
        <time>2022-09-05T10:39:50.000Z</time>
      </trkpt>
      <trkpt lat="49.79914" lon="4.85971">
        <ele>383</ele>
        <time>2022-09-05T10:39:51.000Z</time>
      </trkpt>
      <trkpt lat="49.79916" lon="4.85968">
        <ele>383</ele>
        <time>2022-09-05T10:39:52.000Z</time>
      </trkpt>
      <trkpt lat="49.79918" lon="4.85964">
        <ele>383</ele>
        <time>2022-09-05T10:39:53.000Z</time>
      </trkpt>
      <trkpt lat="49.7992" lon="4.8596">
        <ele>383</ele>
        <time>2022-09-05T10:39:54.000Z</time>
      </trkpt>
      <trkpt lat="49.79923" lon="4.85957">
        <ele>383</ele>
        <time>2022-09-05T10:39:55.000Z</time>
      </trkpt>
      <trkpt lat="49.79925" lon="4.85954">
        <ele>383</ele>
        <time>2022-09-05T10:39:56.000Z</time>
      </trkpt>
      <trkpt lat="49.79928" lon="4.85952">
        <ele>383</ele>
        <time>2022-09-05T10:39:57.000Z</time>
      </trkpt>
      <trkpt lat="49.79932" lon="4.85949">
        <ele>383</ele>
        <time>2022-09-05T10:39:58.000Z</time>
      </trkpt>
      <trkpt lat="49.79935" lon="4.85947">
        <ele>383</ele>
        <time>2022-09-05T10:39:59.000Z</time>
      </trkpt>
      <trkpt lat="49.79938" lon="4.85946">
        <ele>383</ele>
        <time>2022-09-05T10:40:00.000Z</time>
      </trkpt>
      <trkpt lat="49.79941" lon="4.85946">
        <ele>383</ele>
        <time>2022-09-05T10:40:01.000Z</time>
      </trkpt>
      <trkpt lat="49.79944" lon="4.85945">
        <ele>383</ele>
        <time>2022-09-05T10:40:02.000Z</time>
      </trkpt>
      <trkpt lat="49.79947" lon="4.85943">
        <ele>383</ele>
        <time>2022-09-05T10:40:03.000Z</time>
      </trkpt>
      <trkpt lat="49.79949" lon="4.85942">
        <ele>383</ele>
        <time>2022-09-05T10:40:04.000Z</time>
      </trkpt>
      <trkpt lat="49.79952" lon="4.85941">
        <ele>382</ele>
        <time>2022-09-05T10:40:05.000Z</time>
      </trkpt>
      <trkpt lat="49.79955" lon="4.8594">
        <ele>382</ele>
        <time>2022-09-05T10:40:06.000Z</time>
      </trkpt>
      <trkpt lat="49.79957" lon="4.8594">
        <ele>382</ele>
        <time>2022-09-05T10:40:07.000Z</time>
      </trkpt>
      <trkpt lat="49.7996" lon="4.8594">
        <ele>382</ele>
        <time>2022-09-05T10:40:08.000Z</time>
      </trkpt>
      <trkpt lat="49.79962" lon="4.8594">
        <ele>382</ele>
        <time>2022-09-05T10:40:09.000Z</time>
      </trkpt>
      <trkpt lat="49.79964" lon="4.8594">
        <ele>382</ele>
        <time>2022-09-05T10:40:10.000Z</time>
      </trkpt>
      <trkpt lat="49.79966" lon="4.85939">
        <ele>382</ele>
        <time>2022-09-05T10:40:11.000Z</time>
      </trkpt>
      <trkpt lat="49.79969" lon="4.85939">
        <ele>382</ele>
        <time>2022-09-05T10:40:12.000Z</time>
      </trkpt>
      <trkpt lat="49.79972" lon="4.85938">
        <ele>382</ele>
        <time>2022-09-05T10:40:13.000Z</time>
      </trkpt>
      <trkpt lat="49.79974" lon="4.85939">
        <ele>382</ele>
        <time>2022-09-05T10:40:14.000Z</time>
      </trkpt>
      <trkpt lat="49.79977" lon="4.85939">
        <ele>381</ele>
        <time>2022-09-05T10:40:15.000Z</time>
      </trkpt>
      <trkpt lat="49.79979" lon="4.85939">
        <ele>381</ele>
        <time>2022-09-05T10:40:16.000Z</time>
      </trkpt>
      <trkpt lat="49.7998" lon="4.85939">
        <ele>381</ele>
        <time>2022-09-05T10:40:17.000Z</time>
      </trkpt>
      <trkpt lat="49.7998" lon="4.85939">
        <ele>381</ele>
        <time>2022-09-05T10:40:18.000Z</time>
      </trkpt>
      <trkpt lat="49.79981" lon="4.85938">
        <ele>381</ele>
        <time>2022-09-05T10:40:19.000Z</time>
      </trkpt>
      <trkpt lat="49.79981" lon="4.85936">
        <ele>381</ele>
        <time>2022-09-05T10:40:20.000Z</time>
      </trkpt>
      <trkpt lat="49.79981" lon="4.85934">
        <ele>381</ele>
        <time>2022-09-05T10:40:21.000Z</time>
      </trkpt>
      <trkpt lat="49.79982" lon="4.85932">
        <ele>381</ele>
        <time>2022-09-05T10:40:22.000Z</time>
      </trkpt>
      <trkpt lat="49.79982" lon="4.8593">
        <ele>381</ele>
        <time>2022-09-05T10:40:23.000Z</time>
      </trkpt>
      <trkpt lat="49.79983" lon="4.85927">
        <ele>381</ele>
        <time>2022-09-05T10:40:24.000Z</time>
      </trkpt>
      <trkpt lat="49.79984" lon="4.85924">
        <ele>381</ele>
        <time>2022-09-05T10:40:25.000Z</time>
      </trkpt>
      <trkpt lat="49.79985" lon="4.85922">
        <ele>381</ele>
        <time>2022-09-05T10:40:26.000Z</time>
      </trkpt>
      <trkpt lat="49.79987" lon="4.85919">
        <ele>381</ele>
        <time>2022-09-05T10:40:27.000Z</time>
      </trkpt>
      <trkpt lat="49.79989" lon="4.85917">
        <ele>381</ele>
        <time>2022-09-05T10:40:28.000Z</time>
      </trkpt>
      <trkpt lat="49.7999" lon="4.85915">
        <ele>381</ele>
        <time>2022-09-05T10:40:29.000Z</time>
      </trkpt>
      <trkpt lat="49.7999" lon="4.85914">
        <ele>381</ele>
        <time>2022-09-05T10:40:30.000Z</time>
      </trkpt>
      <trkpt lat="49.79991" lon="4.85914">
        <ele>381</ele>
        <time>2022-09-05T10:40:31.000Z</time>
      </trkpt>
      <trkpt lat="49.79991" lon="4.85913">
        <ele>381</ele>
        <time>2022-09-05T10:40:32.000Z</time>
      </trkpt>
      <trkpt lat="49.79991" lon="4.85913">
        <ele>381</ele>
        <time>2022-09-05T10:40:33.000Z</time>
      </trkpt>
      <trkpt lat="49.79991" lon="4.85912">
        <ele>381</ele>
        <time>2022-09-05T10:40:34.000Z</time>
      </trkpt>
      <trkpt lat="49.79991" lon="4.85912">
        <ele>382</ele>
        <time>2022-09-05T10:40:35.000Z</time>
      </trkpt>
      <trkpt lat="49.79991" lon="4.85912">
        <ele>382</ele>
        <time>2022-09-05T10:40:36.000Z</time>
      </trkpt>
      <trkpt lat="49.79991" lon="4.85912">
        <ele>382</ele>
        <time>2022-09-05T10:40:37.000Z</time>
      </trkpt>
      <trkpt lat="49.79991" lon="4.85912">
        <ele>382</ele>
        <time>2022-09-05T10:40:38.000Z</time>
      </trkpt>
      <trkpt lat="49.7999" lon="4.85912">
        <ele>382</ele>
        <time>2022-09-05T10:40:39.000Z</time>
      </trkpt>
      <trkpt lat="49.79989" lon="4.85913">
        <ele>382</ele>
        <time>2022-09-05T10:40:40.000Z</time>
      </trkpt>
      <trkpt lat="49.79988" lon="4.85914">
        <ele>382</ele>
        <time>2022-09-05T10:40:41.000Z</time>
      </trkpt>
      <trkpt lat="49.79987" lon="4.85913">
        <ele>382</ele>
        <time>2022-09-05T10:40:42.000Z</time>
      </trkpt>
      <trkpt lat="49.79985" lon="4.85913">
        <ele>382</ele>
        <time>2022-09-05T10:40:43.000Z</time>
      </trkpt>
      <trkpt lat="49.79983" lon="4.85913">
        <ele>382</ele>
        <time>2022-09-05T10:40:44.000Z</time>
      </trkpt>
      <trkpt lat="49.79981" lon="4.85912">
        <ele>382</ele>
        <time>2022-09-05T10:40:45.000Z</time>
      </trkpt>
      <trkpt lat="49.79979" lon="4.85912">
        <ele>382</ele>
        <time>2022-09-05T10:40:46.000Z</time>
      </trkpt>
      <trkpt lat="49.79976" lon="4.85912">
        <ele>382</ele>
        <time>2022-09-05T10:40:47.000Z</time>
      </trkpt>
      <trkpt lat="49.79973" lon="4.85912">
        <ele>382</ele>
        <time>2022-09-05T10:40:48.000Z</time>
      </trkpt>
      <trkpt lat="49.7997" lon="4.85913">
        <ele>382</ele>
        <time>2022-09-05T10:40:49.000Z</time>
      </trkpt>
      <trkpt lat="49.79967" lon="4.85913">
        <ele>382</ele>
        <time>2022-09-05T10:40:50.000Z</time>
      </trkpt>
      <trkpt lat="49.79963" lon="4.85913">
        <ele>381</ele>
        <time>2022-09-05T10:40:51.000Z</time>
      </trkpt>
      <trkpt lat="49.79959" lon="4.85914">
        <ele>381</ele>
        <time>2022-09-05T10:40:52.000Z</time>
      </trkpt>
      <trkpt lat="49.79956" lon="4.85913">
        <ele>381</ele>
        <time>2022-09-05T10:40:53.000Z</time>
      </trkpt>
      <trkpt lat="49.79956" lon="4.85913">
        <ele>381</ele>
        <time>2022-09-05T10:40:54.000Z</time>
      </trkpt>
      <trkpt lat="49.79955" lon="4.85913">
        <ele>381</ele>
        <time>2022-09-05T10:40:55.000Z</time>
      </trkpt>
      <trkpt lat="49.79955" lon="4.85913">
        <ele>381</ele>
        <time>2022-09-05T10:40:56.000Z</time>
      </trkpt>
      <trkpt lat="49.79955" lon="4.85913">
        <ele>381</ele>
        <time>2022-09-05T10:40:57.000Z</time>
      </trkpt>
      <trkpt lat="49.79954" lon="4.85913">
        <ele>381</ele>
        <time>2022-09-05T10:40:58.000Z</time>
      </trkpt>
      <trkpt lat="49.79953" lon="4.85913">
        <ele>381</ele>
        <time>2022-09-05T10:40:59.000Z</time>
      </trkpt>
      <trkpt lat="49.79951" lon="4.85913">
        <ele>381</ele>
        <time>2022-09-05T10:41:00.000Z</time>
      </trkpt>
      <trkpt lat="49.79948" lon="4.85913">
        <ele>381</ele>
        <time>2022-09-05T10:41:01.000Z</time>
      </trkpt>
      <trkpt lat="49.79945" lon="4.85913">
        <ele>381</ele>
        <time>2022-09-05T10:41:02.000Z</time>
      </trkpt>
      <trkpt lat="49.79941" lon="4.85914">
        <ele>381</ele>
        <time>2022-09-05T10:41:03.000Z</time>
      </trkpt>
      <trkpt lat="49.79938" lon="4.85914">
        <ele>381</ele>
        <time>2022-09-05T10:41:04.000Z</time>
      </trkpt>
      <trkpt lat="49.79934" lon="4.85914">
        <ele>381</ele>
        <time>2022-09-05T10:41:05.000Z</time>
      </trkpt>
      <trkpt lat="49.79931" lon="4.85915">
        <ele>381</ele>
        <time>2022-09-05T10:41:06.000Z</time>
      </trkpt>
      <trkpt lat="49.79926" lon="4.85915">
        <ele>381</ele>
        <time>2022-09-05T10:41:07.000Z</time>
      </trkpt>
      <trkpt lat="49.79921" lon="4.85915">
        <ele>381</ele>
        <time>2022-09-05T10:41:08.000Z</time>
      </trkpt>
      <trkpt lat="49.79916" lon="4.85915">
        <ele>381</ele>
        <time>2022-09-05T10:41:09.000Z</time>
      </trkpt>
      <trkpt lat="49.79911" lon="4.85916">
        <ele>380</ele>
        <time>2022-09-05T10:41:10.000Z</time>
      </trkpt>
      <trkpt lat="49.79906" lon="4.85917">
        <ele>380</ele>
        <time>2022-09-05T10:41:11.000Z</time>
      </trkpt>
      <trkpt lat="49.79901" lon="4.85918">
        <ele>380</ele>
        <time>2022-09-05T10:41:12.000Z</time>
      </trkpt>
      <trkpt lat="49.79895" lon="4.85919">
        <ele>380</ele>
        <time>2022-09-05T10:41:13.000Z</time>
      </trkpt>
      <trkpt lat="49.7989" lon="4.8592">
        <ele>380</ele>
        <time>2022-09-05T10:41:14.000Z</time>
      </trkpt>
      <trkpt lat="49.79885" lon="4.85921">
        <ele>380</ele>
        <time>2022-09-05T10:41:15.000Z</time>
      </trkpt>
      <trkpt lat="49.7988" lon="4.85922">
        <ele>380</ele>
        <time>2022-09-05T10:41:16.000Z</time>
      </trkpt>
      <trkpt lat="49.79875" lon="4.85922">
        <ele>380</ele>
        <time>2022-09-05T10:41:17.000Z</time>
      </trkpt>
      <trkpt lat="49.7987" lon="4.85923">
        <ele>380</ele>
        <time>2022-09-05T10:41:18.000Z</time>
      </trkpt>
      <trkpt lat="49.79865" lon="4.85925">
        <ele>379</ele>
        <time>2022-09-05T10:41:19.000Z</time>
      </trkpt>
      <trkpt lat="49.79859" lon="4.85925">
        <ele>379</ele>
        <time>2022-09-05T10:41:20.000Z</time>
      </trkpt>
      <trkpt lat="49.79854" lon="4.85927">
        <ele>379</ele>
        <time>2022-09-05T10:41:21.000Z</time>
      </trkpt>
      <trkpt lat="49.79848" lon="4.85928">
        <ele>379</ele>
        <time>2022-09-05T10:41:22.000Z</time>
      </trkpt>
      <trkpt lat="49.79842" lon="4.85929">
        <ele>379</ele>
        <time>2022-09-05T10:41:23.000Z</time>
      </trkpt>
      <trkpt lat="49.79837" lon="4.8593">
        <ele>379</ele>
        <time>2022-09-05T10:41:24.000Z</time>
      </trkpt>
      <trkpt lat="49.79831" lon="4.8593">
        <ele>379</ele>
        <time>2022-09-05T10:41:25.000Z</time>
      </trkpt>
      <trkpt lat="49.79826" lon="4.85931">
        <ele>378</ele>
        <time>2022-09-05T10:41:26.000Z</time>
      </trkpt>
      <trkpt lat="49.7982" lon="4.85932">
        <ele>378</ele>
        <time>2022-09-05T10:41:27.000Z</time>
      </trkpt>
      <trkpt lat="49.79815" lon="4.85933">
        <ele>378</ele>
        <time>2022-09-05T10:41:28.000Z</time>
      </trkpt>
      <trkpt lat="49.7981" lon="4.85933">
        <ele>378</ele>
        <time>2022-09-05T10:41:29.000Z</time>
      </trkpt>
      <trkpt lat="49.79805" lon="4.85934">
        <ele>378</ele>
        <time>2022-09-05T10:41:30.000Z</time>
      </trkpt>
      <trkpt lat="49.79799" lon="4.85934">
        <ele>377</ele>
        <time>2022-09-05T10:41:31.000Z</time>
      </trkpt>
      <trkpt lat="49.79793" lon="4.85933">
        <ele>377</ele>
        <time>2022-09-05T10:41:32.000Z</time>
      </trkpt>
      <trkpt lat="49.79786" lon="4.85933">
        <ele>377</ele>
        <time>2022-09-05T10:41:33.000Z</time>
      </trkpt>
      <trkpt lat="49.7978" lon="4.85933">
        <ele>377</ele>
        <time>2022-09-05T10:41:34.000Z</time>
      </trkpt>
      <trkpt lat="49.79774" lon="4.85933">
        <ele>376</ele>
        <time>2022-09-05T10:41:35.000Z</time>
      </trkpt>
      <trkpt lat="49.79768" lon="4.85932">
        <ele>376</ele>
        <time>2022-09-05T10:41:36.000Z</time>
      </trkpt>
      <trkpt lat="49.79763" lon="4.85931">
        <ele>376</ele>
        <time>2022-09-05T10:41:37.000Z</time>
      </trkpt>
      <trkpt lat="49.7976" lon="4.85929">
        <ele>375</ele>
        <time>2022-09-05T10:41:38.000Z</time>
      </trkpt>
      <trkpt lat="49.79757" lon="4.85925">
        <ele>375</ele>
        <time>2022-09-05T10:41:39.000Z</time>
      </trkpt>
      <trkpt lat="49.79756" lon="4.85921">
        <ele>375</ele>
        <time>2022-09-05T10:41:40.000Z</time>
      </trkpt>
      <trkpt lat="49.79756" lon="4.85915">
        <ele>375</ele>
        <time>2022-09-05T10:41:41.000Z</time>
      </trkpt>
      <trkpt lat="49.79756" lon="4.8591">
        <ele>375</ele>
        <time>2022-09-05T10:41:42.000Z</time>
      </trkpt>
      <trkpt lat="49.79756" lon="4.85904">
        <ele>375</ele>
        <time>2022-09-05T10:41:43.000Z</time>
      </trkpt>
      <trkpt lat="49.79756" lon="4.85897">
        <ele>374</ele>
        <time>2022-09-05T10:41:44.000Z</time>
      </trkpt>
      <trkpt lat="49.79756" lon="4.8589">
        <ele>374</ele>
        <time>2022-09-05T10:41:45.000Z</time>
      </trkpt>
      <trkpt lat="49.79756" lon="4.85882">
        <ele>374</ele>
        <time>2022-09-05T10:41:46.000Z</time>
      </trkpt>
      <trkpt lat="49.79756" lon="4.85873">
        <ele>373</ele>
        <time>2022-09-05T10:41:47.000Z</time>
      </trkpt>
      <trkpt lat="49.79755" lon="4.85864">
        <ele>373</ele>
        <time>2022-09-05T10:41:48.000Z</time>
      </trkpt>
      <trkpt lat="49.79755" lon="4.85854">
        <ele>373</ele>
        <time>2022-09-05T10:41:49.000Z</time>
      </trkpt>
      <trkpt lat="49.79755" lon="4.85847">
        <ele>373</ele>
        <time>2022-09-05T10:41:50.000Z</time>
      </trkpt>
      <trkpt lat="49.79755" lon="4.8584">
        <ele>372</ele>
        <time>2022-09-05T10:41:51.000Z</time>
      </trkpt>
      <trkpt lat="49.79756" lon="4.85833">
        <ele>372</ele>
        <time>2022-09-05T10:41:52.000Z</time>
      </trkpt>
      <trkpt lat="49.79757" lon="4.85826">
        <ele>372</ele>
        <time>2022-09-05T10:41:53.000Z</time>
      </trkpt>
      <trkpt lat="49.79757" lon="4.85818">
        <ele>372</ele>
        <time>2022-09-05T10:41:54.000Z</time>
      </trkpt>
      <trkpt lat="49.79756" lon="4.8581">
        <ele>371</ele>
        <time>2022-09-05T10:41:55.000Z</time>
      </trkpt>
      <trkpt lat="49.79755" lon="4.85801">
        <ele>371</ele>
        <time>2022-09-05T10:41:56.000Z</time>
      </trkpt>
      <trkpt lat="49.79754" lon="4.85792">
        <ele>371</ele>
        <time>2022-09-05T10:41:57.000Z</time>
      </trkpt>
      <trkpt lat="49.79754" lon="4.85783">
        <ele>370</ele>
        <time>2022-09-05T10:41:58.000Z</time>
      </trkpt>
      <trkpt lat="49.79753" lon="4.85774">
        <ele>370</ele>
        <time>2022-09-05T10:41:59.000Z</time>
      </trkpt>
      <trkpt lat="49.79751" lon="4.85765">
        <ele>369</ele>
        <time>2022-09-05T10:42:00.000Z</time>
      </trkpt>
      <trkpt lat="49.7975" lon="4.85758">
        <ele>369</ele>
        <time>2022-09-05T10:42:01.000Z</time>
      </trkpt>
      <trkpt lat="49.79749" lon="4.85751">
        <ele>369</ele>
        <time>2022-09-05T10:42:02.000Z</time>
      </trkpt>
      <trkpt lat="49.79749" lon="4.85745">
        <ele>368</ele>
        <time>2022-09-05T10:42:03.000Z</time>
      </trkpt>
      <trkpt lat="49.79748" lon="4.85737">
        <ele>368</ele>
        <time>2022-09-05T10:42:04.000Z</time>
      </trkpt>
      <trkpt lat="49.79748" lon="4.8573">
        <ele>368</ele>
        <time>2022-09-05T10:42:05.000Z</time>
      </trkpt>
      <trkpt lat="49.79747" lon="4.85723">
        <ele>367</ele>
        <time>2022-09-05T10:42:06.000Z</time>
      </trkpt>
      <trkpt lat="49.79747" lon="4.85716">
        <ele>367</ele>
        <time>2022-09-05T10:42:07.000Z</time>
      </trkpt>
      <trkpt lat="49.79746" lon="4.8571">
        <ele>367</ele>
        <time>2022-09-05T10:42:08.000Z</time>
      </trkpt>
      <trkpt lat="49.79745" lon="4.85705">
        <ele>367</ele>
        <time>2022-09-05T10:42:09.000Z</time>
      </trkpt>
      <trkpt lat="49.79744" lon="4.857">
        <ele>366</ele>
        <time>2022-09-05T10:42:10.000Z</time>
      </trkpt>
      <trkpt lat="49.79743" lon="4.85693">
        <ele>366</ele>
        <time>2022-09-05T10:42:11.000Z</time>
      </trkpt>
      <trkpt lat="49.79742" lon="4.85687">
        <ele>366</ele>
        <time>2022-09-05T10:42:12.000Z</time>
      </trkpt>
      <trkpt lat="49.79741" lon="4.85681">
        <ele>365</ele>
        <time>2022-09-05T10:42:13.000Z</time>
      </trkpt>
      <trkpt lat="49.7974" lon="4.85675">
        <ele>365</ele>
        <time>2022-09-05T10:42:14.000Z</time>
      </trkpt>
      <trkpt lat="49.79739" lon="4.85669">
        <ele>365</ele>
        <time>2022-09-05T10:42:15.000Z</time>
      </trkpt>
      <trkpt lat="49.79737" lon="4.85663">
        <ele>364</ele>
        <time>2022-09-05T10:42:16.000Z</time>
      </trkpt>
      <trkpt lat="49.79736" lon="4.85656">
        <ele>364</ele>
        <time>2022-09-05T10:42:17.000Z</time>
      </trkpt>
      <trkpt lat="49.79734" lon="4.8565">
        <ele>363</ele>
        <time>2022-09-05T10:42:18.000Z</time>
      </trkpt>
      <trkpt lat="49.79733" lon="4.85645">
        <ele>363</ele>
        <time>2022-09-05T10:42:19.000Z</time>
      </trkpt>
      <trkpt lat="49.79732" lon="4.8564">
        <ele>362</ele>
        <time>2022-09-05T10:42:20.000Z</time>
      </trkpt>
      <trkpt lat="49.7973" lon="4.85636">
        <ele>362</ele>
        <time>2022-09-05T10:42:21.000Z</time>
      </trkpt>
      <trkpt lat="49.79729" lon="4.85631">
        <ele>362</ele>
        <time>2022-09-05T10:42:22.000Z</time>
      </trkpt>
      <trkpt lat="49.79728" lon="4.85626">
        <ele>361</ele>
        <time>2022-09-05T10:42:23.000Z</time>
      </trkpt>
      <trkpt lat="49.79727" lon="4.8562">
        <ele>361</ele>
        <time>2022-09-05T10:42:24.000Z</time>
      </trkpt>
      <trkpt lat="49.79727" lon="4.85612">
        <ele>360</ele>
        <time>2022-09-05T10:42:25.000Z</time>
      </trkpt>
      <trkpt lat="49.79727" lon="4.85604">
        <ele>360</ele>
        <time>2022-09-05T10:42:26.000Z</time>
      </trkpt>
      <trkpt lat="49.79727" lon="4.85597">
        <ele>360</ele>
        <time>2022-09-05T10:42:27.000Z</time>
      </trkpt>
      <trkpt lat="49.79727" lon="4.8559">
        <ele>359</ele>
        <time>2022-09-05T10:42:28.000Z</time>
      </trkpt>
      <trkpt lat="49.79727" lon="4.85585">
        <ele>359</ele>
        <time>2022-09-05T10:42:29.000Z</time>
      </trkpt>
      <trkpt lat="49.79728" lon="4.85581">
        <ele>358</ele>
        <time>2022-09-05T10:42:30.000Z</time>
      </trkpt>
      <trkpt lat="49.79729" lon="4.85576">
        <ele>358</ele>
        <time>2022-09-05T10:42:31.000Z</time>
      </trkpt>
      <trkpt lat="49.7973" lon="4.85571">
        <ele>357</ele>
        <time>2022-09-05T10:42:32.000Z</time>
      </trkpt>
      <trkpt lat="49.7973" lon="4.85565">
        <ele>357</ele>
        <time>2022-09-05T10:42:33.000Z</time>
      </trkpt>
      <trkpt lat="49.7973" lon="4.85558">
        <ele>356</ele>
        <time>2022-09-05T10:42:34.000Z</time>
      </trkpt>
      <trkpt lat="49.79729" lon="4.8555">
        <ele>356</ele>
        <time>2022-09-05T10:42:35.000Z</time>
      </trkpt>
      <trkpt lat="49.79727" lon="4.85542">
        <ele>355</ele>
        <time>2022-09-05T10:42:36.000Z</time>
      </trkpt>
      <trkpt lat="49.79726" lon="4.85534">
        <ele>355</ele>
        <time>2022-09-05T10:42:37.000Z</time>
      </trkpt>
      <trkpt lat="49.79725" lon="4.85527">
        <ele>354</ele>
        <time>2022-09-05T10:42:38.000Z</time>
      </trkpt>
      <trkpt lat="49.79723" lon="4.8552">
        <ele>354</ele>
        <time>2022-09-05T10:42:39.000Z</time>
      </trkpt>
      <trkpt lat="49.79722" lon="4.85513">
        <ele>353</ele>
        <time>2022-09-05T10:42:40.000Z</time>
      </trkpt>
      <trkpt lat="49.79719" lon="4.85507">
        <ele>353</ele>
        <time>2022-09-05T10:42:41.000Z</time>
      </trkpt>
      <trkpt lat="49.79717" lon="4.85501">
        <ele>352</ele>
        <time>2022-09-05T10:42:42.000Z</time>
      </trkpt>
      <trkpt lat="49.79714" lon="4.85495">
        <ele>351</ele>
        <time>2022-09-05T10:42:43.000Z</time>
      </trkpt>
      <trkpt lat="49.79711" lon="4.85489">
        <ele>351</ele>
        <time>2022-09-05T10:42:44.000Z</time>
      </trkpt>
      <trkpt lat="49.79708" lon="4.85482">
        <ele>350</ele>
        <time>2022-09-05T10:42:45.000Z</time>
      </trkpt>
      <trkpt lat="49.79704" lon="4.85473">
        <ele>350</ele>
        <time>2022-09-05T10:42:46.000Z</time>
      </trkpt>
      <trkpt lat="49.79701" lon="4.85464">
        <ele>349</ele>
        <time>2022-09-05T10:42:47.000Z</time>
      </trkpt>
      <trkpt lat="49.79698" lon="4.85454">
        <ele>349</ele>
        <time>2022-09-05T10:42:48.000Z</time>
      </trkpt>
      <trkpt lat="49.79696" lon="4.85446">
        <ele>348</ele>
        <time>2022-09-05T10:42:49.000Z</time>
      </trkpt>
      <trkpt lat="49.79695" lon="4.85436">
        <ele>347</ele>
        <time>2022-09-05T10:42:50.000Z</time>
      </trkpt>
      <trkpt lat="49.79693" lon="4.85427">
        <ele>346</ele>
        <time>2022-09-05T10:42:51.000Z</time>
      </trkpt>
      <trkpt lat="49.79691" lon="4.85417">
        <ele>346</ele>
        <time>2022-09-05T10:42:52.000Z</time>
      </trkpt>
      <trkpt lat="49.79689" lon="4.85406">
        <ele>345</ele>
        <time>2022-09-05T10:42:53.000Z</time>
      </trkpt>
      <trkpt lat="49.79687" lon="4.85396">
        <ele>344</ele>
        <time>2022-09-05T10:42:54.000Z</time>
      </trkpt>
      <trkpt lat="49.79685" lon="4.85385">
        <ele>344</ele>
        <time>2022-09-05T10:42:55.000Z</time>
      </trkpt>
      <trkpt lat="49.79683" lon="4.85374">
        <ele>343</ele>
        <time>2022-09-05T10:42:56.000Z</time>
      </trkpt>
      <trkpt lat="49.79682" lon="4.85362">
        <ele>342</ele>
        <time>2022-09-05T10:42:57.000Z</time>
      </trkpt>
      <trkpt lat="49.79682" lon="4.85351">
        <ele>341</ele>
        <time>2022-09-05T10:42:58.000Z</time>
      </trkpt>
      <trkpt lat="49.79682" lon="4.8534">
        <ele>341</ele>
        <time>2022-09-05T10:42:59.000Z</time>
      </trkpt>
      <trkpt lat="49.79681" lon="4.85329">
        <ele>340</ele>
        <time>2022-09-05T10:43:00.000Z</time>
      </trkpt>
      <trkpt lat="49.79681" lon="4.85318">
        <ele>339</ele>
        <time>2022-09-05T10:43:01.000Z</time>
      </trkpt>
      <trkpt lat="49.7968" lon="4.85308">
        <ele>338</ele>
        <time>2022-09-05T10:43:02.000Z</time>
      </trkpt>
      <trkpt lat="49.79679" lon="4.85299">
        <ele>337</ele>
        <time>2022-09-05T10:43:03.000Z</time>
      </trkpt>
      <trkpt lat="49.79678" lon="4.8529">
        <ele>337</ele>
        <time>2022-09-05T10:43:04.000Z</time>
      </trkpt>
      <trkpt lat="49.79676" lon="4.85281">
        <ele>336</ele>
        <time>2022-09-05T10:43:05.000Z</time>
      </trkpt>
      <trkpt lat="49.79675" lon="4.85272">
        <ele>335</ele>
        <time>2022-09-05T10:43:06.000Z</time>
      </trkpt>
      <trkpt lat="49.79673" lon="4.85262">
        <ele>335</ele>
        <time>2022-09-05T10:43:07.000Z</time>
      </trkpt>
      <trkpt lat="49.79672" lon="4.85252">
        <ele>334</ele>
        <time>2022-09-05T10:43:08.000Z</time>
      </trkpt>
      <trkpt lat="49.7967" lon="4.85242">
        <ele>333</ele>
        <time>2022-09-05T10:43:09.000Z</time>
      </trkpt>
      <trkpt lat="49.79668" lon="4.85234">
        <ele>332</ele>
        <time>2022-09-05T10:43:10.000Z</time>
      </trkpt>
      <trkpt lat="49.79668" lon="4.85226">
        <ele>332</ele>
        <time>2022-09-05T10:43:11.000Z</time>
      </trkpt>
      <trkpt lat="49.79667" lon="4.85218">
        <ele>331</ele>
        <time>2022-09-05T10:43:12.000Z</time>
      </trkpt>
      <trkpt lat="49.79666" lon="4.85209">
        <ele>331</ele>
        <time>2022-09-05T10:43:13.000Z</time>
      </trkpt>
      <trkpt lat="49.79664" lon="4.85199">
        <ele>330</ele>
        <time>2022-09-05T10:43:14.000Z</time>
      </trkpt>
      <trkpt lat="49.79663" lon="4.85189">
        <ele>330</ele>
        <time>2022-09-05T10:43:15.000Z</time>
      </trkpt>
      <trkpt lat="49.79662" lon="4.85179">
        <ele>329</ele>
        <time>2022-09-05T10:43:16.000Z</time>
      </trkpt>
      <trkpt lat="49.7966" lon="4.85169">
        <ele>328</ele>
        <time>2022-09-05T10:43:17.000Z</time>
      </trkpt>
      <trkpt lat="49.79658" lon="4.85159">
        <ele>328</ele>
        <time>2022-09-05T10:43:18.000Z</time>
      </trkpt>
      <trkpt lat="49.79655" lon="4.85149">
        <ele>327</ele>
        <time>2022-09-05T10:43:19.000Z</time>
      </trkpt>
      <trkpt lat="49.79653" lon="4.8514">
        <ele>327</ele>
        <time>2022-09-05T10:43:20.000Z</time>
      </trkpt>
      <trkpt lat="49.79651" lon="4.85131">
        <ele>326</ele>
        <time>2022-09-05T10:43:21.000Z</time>
      </trkpt>
      <trkpt lat="49.79649" lon="4.85123">
        <ele>325</ele>
        <time>2022-09-05T10:43:22.000Z</time>
      </trkpt>
      <trkpt lat="49.79647" lon="4.85115">
        <ele>324</ele>
        <time>2022-09-05T10:43:23.000Z</time>
      </trkpt>
      <trkpt lat="49.79646" lon="4.85107">
        <ele>324</ele>
        <time>2022-09-05T10:43:24.000Z</time>
      </trkpt>
      <trkpt lat="49.79645" lon="4.851">
        <ele>323</ele>
        <time>2022-09-05T10:43:25.000Z</time>
      </trkpt>
      <trkpt lat="49.79643" lon="4.85092">
        <ele>322</ele>
        <time>2022-09-05T10:43:26.000Z</time>
      </trkpt>
      <trkpt lat="49.79641" lon="4.85085">
        <ele>322</ele>
        <time>2022-09-05T10:43:27.000Z</time>
      </trkpt>
      <trkpt lat="49.7964" lon="4.85078">
        <ele>321</ele>
        <time>2022-09-05T10:43:28.000Z</time>
      </trkpt>
      <trkpt lat="49.79639" lon="4.8507">
        <ele>321</ele>
        <time>2022-09-05T10:43:29.000Z</time>
      </trkpt>
      <trkpt lat="49.79636" lon="4.85063">
        <ele>320</ele>
        <time>2022-09-05T10:43:30.000Z</time>
      </trkpt>
      <trkpt lat="49.79634" lon="4.85055">
        <ele>320</ele>
        <time>2022-09-05T10:43:31.000Z</time>
      </trkpt>
      <trkpt lat="49.79632" lon="4.85046">
        <ele>319</ele>
        <time>2022-09-05T10:43:32.000Z</time>
      </trkpt>
      <trkpt lat="49.79629" lon="4.85038">
        <ele>318</ele>
        <time>2022-09-05T10:43:33.000Z</time>
      </trkpt>
      <trkpt lat="49.79628" lon="4.85031">
        <ele>318</ele>
        <time>2022-09-05T10:43:34.000Z</time>
      </trkpt>
      <trkpt lat="49.79627" lon="4.85025">
        <ele>317</ele>
        <time>2022-09-05T10:43:35.000Z</time>
      </trkpt>
      <trkpt lat="49.79625" lon="4.85017">
        <ele>316</ele>
        <time>2022-09-05T10:43:36.000Z</time>
      </trkpt>
      <trkpt lat="49.79623" lon="4.8501">
        <ele>316</ele>
        <time>2022-09-05T10:43:37.000Z</time>
      </trkpt>
      <trkpt lat="49.79622" lon="4.85002">
        <ele>315</ele>
        <time>2022-09-05T10:43:38.000Z</time>
      </trkpt>
      <trkpt lat="49.7962" lon="4.84995">
        <ele>314</ele>
        <time>2022-09-05T10:43:39.000Z</time>
      </trkpt>
      <trkpt lat="49.79619" lon="4.84989">
        <ele>314</ele>
        <time>2022-09-05T10:43:40.000Z</time>
      </trkpt>
      <trkpt lat="49.79618" lon="4.84984">
        <ele>313</ele>
        <time>2022-09-05T10:43:41.000Z</time>
      </trkpt>
      <trkpt lat="49.79617" lon="4.84978">
        <ele>313</ele>
        <time>2022-09-05T10:43:42.000Z</time>
      </trkpt>
      <trkpt lat="49.79615" lon="4.84973">
        <ele>312</ele>
        <time>2022-09-05T10:43:43.000Z</time>
      </trkpt>
      <trkpt lat="49.79615" lon="4.84966">
        <ele>312</ele>
        <time>2022-09-05T10:43:44.000Z</time>
      </trkpt>
      <trkpt lat="49.79614" lon="4.84959">
        <ele>311</ele>
        <time>2022-09-05T10:43:45.000Z</time>
      </trkpt>
      <trkpt lat="49.79613" lon="4.84952">
        <ele>311</ele>
        <time>2022-09-05T10:43:46.000Z</time>
      </trkpt>
      <trkpt lat="49.79612" lon="4.84944">
        <ele>310</ele>
        <time>2022-09-05T10:43:47.000Z</time>
      </trkpt>
      <trkpt lat="49.79611" lon="4.84936">
        <ele>310</ele>
        <time>2022-09-05T10:43:48.000Z</time>
      </trkpt>
      <trkpt lat="49.79611" lon="4.84928">
        <ele>309</ele>
        <time>2022-09-05T10:43:49.000Z</time>
      </trkpt>
      <trkpt lat="49.7961" lon="4.8492">
        <ele>309</ele>
        <time>2022-09-05T10:43:50.000Z</time>
      </trkpt>
      <trkpt lat="49.79609" lon="4.84912">
        <ele>308</ele>
        <time>2022-09-05T10:43:51.000Z</time>
      </trkpt>
      <trkpt lat="49.79609" lon="4.84903">
        <ele>308</ele>
        <time>2022-09-05T10:43:52.000Z</time>
      </trkpt>
      <trkpt lat="49.79608" lon="4.84893">
        <ele>307</ele>
        <time>2022-09-05T10:43:53.000Z</time>
      </trkpt>
      <trkpt lat="49.79608" lon="4.84882">
        <ele>307</ele>
        <time>2022-09-05T10:43:54.000Z</time>
      </trkpt>
      <trkpt lat="49.79607" lon="4.84871">
        <ele>306</ele>
        <time>2022-09-05T10:43:55.000Z</time>
      </trkpt>
      <trkpt lat="49.79606" lon="4.84859">
        <ele>306</ele>
        <time>2022-09-05T10:43:56.000Z</time>
      </trkpt>
      <trkpt lat="49.79606" lon="4.84848">
        <ele>305</ele>
        <time>2022-09-05T10:43:57.000Z</time>
      </trkpt>
      <trkpt lat="49.79605" lon="4.84836">
        <ele>305</ele>
        <time>2022-09-05T10:43:58.000Z</time>
      </trkpt>
      <trkpt lat="49.79605" lon="4.84825">
        <ele>304</ele>
        <time>2022-09-05T10:43:59.000Z</time>
      </trkpt>
      <trkpt lat="49.79604" lon="4.84813">
        <ele>304</ele>
        <time>2022-09-05T10:44:00.000Z</time>
      </trkpt>
      <trkpt lat="49.79603" lon="4.848">
        <ele>303</ele>
        <time>2022-09-05T10:44:01.000Z</time>
      </trkpt>
      <trkpt lat="49.79602" lon="4.84787">
        <ele>302</ele>
        <time>2022-09-05T10:44:02.000Z</time>
      </trkpt>
      <trkpt lat="49.79601" lon="4.84775">
        <ele>302</ele>
        <time>2022-09-05T10:44:03.000Z</time>
      </trkpt>
      <trkpt lat="49.796" lon="4.84762">
        <ele>301</ele>
        <time>2022-09-05T10:44:04.000Z</time>
      </trkpt>
      <trkpt lat="49.796" lon="4.8475">
        <ele>300</ele>
        <time>2022-09-05T10:44:05.000Z</time>
      </trkpt>
      <trkpt lat="49.79599" lon="4.84737">
        <ele>299</ele>
        <time>2022-09-05T10:44:06.000Z</time>
      </trkpt>
      <trkpt lat="49.79598" lon="4.84725">
        <ele>298</ele>
        <time>2022-09-05T10:44:07.000Z</time>
      </trkpt>
      <trkpt lat="49.79597" lon="4.84712">
        <ele>298</ele>
        <time>2022-09-05T10:44:08.000Z</time>
      </trkpt>
      <trkpt lat="49.79596" lon="4.847">
        <ele>297</ele>
        <time>2022-09-05T10:44:09.000Z</time>
      </trkpt>
      <trkpt lat="49.79596" lon="4.84687">
        <ele>296</ele>
        <time>2022-09-05T10:44:10.000Z</time>
      </trkpt>
      <trkpt lat="49.79596" lon="4.84675">
        <ele>295</ele>
        <time>2022-09-05T10:44:11.000Z</time>
      </trkpt>
      <trkpt lat="49.79595" lon="4.84663">
        <ele>294</ele>
        <time>2022-09-05T10:44:12.000Z</time>
      </trkpt>
      <trkpt lat="49.79594" lon="4.84651">
        <ele>294</ele>
        <time>2022-09-05T10:44:13.000Z</time>
      </trkpt>
      <trkpt lat="49.79593" lon="4.84639">
        <ele>293</ele>
        <time>2022-09-05T10:44:14.000Z</time>
      </trkpt>
      <trkpt lat="49.79591" lon="4.84628">
        <ele>292</ele>
        <time>2022-09-05T10:44:15.000Z</time>
      </trkpt>
      <trkpt lat="49.7959" lon="4.84618">
        <ele>290</ele>
        <time>2022-09-05T10:44:16.000Z</time>
      </trkpt>
      <trkpt lat="49.79589" lon="4.84609">
        <ele>289</ele>
        <time>2022-09-05T10:44:17.000Z</time>
      </trkpt>
      <trkpt lat="49.79587" lon="4.84599">
        <ele>288</ele>
        <time>2022-09-05T10:44:18.000Z</time>
      </trkpt>
      <trkpt lat="49.79586" lon="4.84588">
        <ele>288</ele>
        <time>2022-09-05T10:44:19.000Z</time>
      </trkpt>
      <trkpt lat="49.79584" lon="4.84576">
        <ele>287</ele>
        <time>2022-09-05T10:44:20.000Z</time>
      </trkpt>
      <trkpt lat="49.79582" lon="4.84565">
        <ele>286</ele>
        <time>2022-09-05T10:44:21.000Z</time>
      </trkpt>
      <trkpt lat="49.79581" lon="4.84555">
        <ele>285</ele>
        <time>2022-09-05T10:44:22.000Z</time>
      </trkpt>
      <trkpt lat="49.79579" lon="4.84546">
        <ele>284</ele>
        <time>2022-09-05T10:44:23.000Z</time>
      </trkpt>
      <trkpt lat="49.79577" lon="4.84537">
        <ele>283</ele>
        <time>2022-09-05T10:44:24.000Z</time>
      </trkpt>
      <trkpt lat="49.79576" lon="4.84527">
        <ele>283</ele>
        <time>2022-09-05T10:44:25.000Z</time>
      </trkpt>
      <trkpt lat="49.79575" lon="4.84516">
        <ele>282</ele>
        <time>2022-09-05T10:44:26.000Z</time>
      </trkpt>
      <trkpt lat="49.79574" lon="4.84504">
        <ele>281</ele>
        <time>2022-09-05T10:44:27.000Z</time>
      </trkpt>
      <trkpt lat="49.79573" lon="4.84492">
        <ele>281</ele>
        <time>2022-09-05T10:44:28.000Z</time>
      </trkpt>
      <trkpt lat="49.79572" lon="4.84481">
        <ele>280</ele>
        <time>2022-09-05T10:44:29.000Z</time>
      </trkpt>
      <trkpt lat="49.79571" lon="4.84469">
        <ele>280</ele>
        <time>2022-09-05T10:44:30.000Z</time>
      </trkpt>
      <trkpt lat="49.79569" lon="4.84456">
        <ele>279</ele>
        <time>2022-09-05T10:44:31.000Z</time>
      </trkpt>
      <trkpt lat="49.79567" lon="4.84444">
        <ele>278</ele>
        <time>2022-09-05T10:44:32.000Z</time>
      </trkpt>
      <trkpt lat="49.79566" lon="4.84433">
        <ele>277</ele>
        <time>2022-09-05T10:44:33.000Z</time>
      </trkpt>
      <trkpt lat="49.79564" lon="4.84422">
        <ele>276</ele>
        <time>2022-09-05T10:44:34.000Z</time>
      </trkpt>
      <trkpt lat="49.79563" lon="4.8441">
        <ele>276</ele>
        <time>2022-09-05T10:44:35.000Z</time>
      </trkpt>
      <trkpt lat="49.79561" lon="4.84399">
        <ele>275</ele>
        <time>2022-09-05T10:44:36.000Z</time>
      </trkpt>
      <trkpt lat="49.79558" lon="4.84388">
        <ele>274</ele>
        <time>2022-09-05T10:44:37.000Z</time>
      </trkpt>
      <trkpt lat="49.79555" lon="4.84378">
        <ele>272</ele>
        <time>2022-09-05T10:44:38.000Z</time>
      </trkpt>
      <trkpt lat="49.79552" lon="4.84368">
        <ele>271</ele>
        <time>2022-09-05T10:44:39.000Z</time>
      </trkpt>
      <trkpt lat="49.79549" lon="4.84359">
        <ele>270</ele>
        <time>2022-09-05T10:44:40.000Z</time>
      </trkpt>
      <trkpt lat="49.79546" lon="4.8435">
        <ele>269</ele>
        <time>2022-09-05T10:44:41.000Z</time>
      </trkpt>
      <trkpt lat="49.79544" lon="4.8434">
        <ele>268</ele>
        <time>2022-09-05T10:44:42.000Z</time>
      </trkpt>
      <trkpt lat="49.79541" lon="4.8433">
        <ele>268</ele>
        <time>2022-09-05T10:44:43.000Z</time>
      </trkpt>
      <trkpt lat="49.79538" lon="4.84321">
        <ele>267</ele>
        <time>2022-09-05T10:44:44.000Z</time>
      </trkpt>
      <trkpt lat="49.79534" lon="4.84312">
        <ele>266</ele>
        <time>2022-09-05T10:44:45.000Z</time>
      </trkpt>
      <trkpt lat="49.7953" lon="4.84303">
        <ele>265</ele>
        <time>2022-09-05T10:44:46.000Z</time>
      </trkpt>
      <trkpt lat="49.79527" lon="4.84294">
        <ele>264</ele>
        <time>2022-09-05T10:44:47.000Z</time>
      </trkpt>
      <trkpt lat="49.79523" lon="4.84285">
        <ele>264</ele>
        <time>2022-09-05T10:44:48.000Z</time>
      </trkpt>
      <trkpt lat="49.7952" lon="4.84273">
        <ele>263</ele>
        <time>2022-09-05T10:44:49.000Z</time>
      </trkpt>
      <trkpt lat="49.79517" lon="4.8426">
        <ele>262</ele>
        <time>2022-09-05T10:44:50.000Z</time>
      </trkpt>
      <trkpt lat="49.79515" lon="4.84247">
        <ele>261</ele>
        <time>2022-09-05T10:44:51.000Z</time>
      </trkpt>
      <trkpt lat="49.79513" lon="4.84234">
        <ele>260</ele>
        <time>2022-09-05T10:44:52.000Z</time>
      </trkpt>
      <trkpt lat="49.79511" lon="4.84219">
        <ele>259</ele>
        <time>2022-09-05T10:44:53.000Z</time>
      </trkpt>
      <trkpt lat="49.79509" lon="4.84204">
        <ele>258</ele>
        <time>2022-09-05T10:44:54.000Z</time>
      </trkpt>
      <trkpt lat="49.79507" lon="4.84189">
        <ele>257</ele>
        <time>2022-09-05T10:44:55.000Z</time>
      </trkpt>
      <trkpt lat="49.79506" lon="4.84174">
        <ele>257</ele>
        <time>2022-09-05T10:44:56.000Z</time>
      </trkpt>
      <trkpt lat="49.79504" lon="4.84159">
        <ele>256</ele>
        <time>2022-09-05T10:44:57.000Z</time>
      </trkpt>
      <trkpt lat="49.79504" lon="4.84144">
        <ele>255</ele>
        <time>2022-09-05T10:44:58.000Z</time>
      </trkpt>
      <trkpt lat="49.79504" lon="4.84129">
        <ele>254</ele>
        <time>2022-09-05T10:44:59.000Z</time>
      </trkpt>
      <trkpt lat="49.79504" lon="4.84115">
        <ele>253</ele>
        <time>2022-09-05T10:45:00.000Z</time>
      </trkpt>
      <trkpt lat="49.79505" lon="4.84102">
        <ele>253</ele>
        <time>2022-09-05T10:45:01.000Z</time>
      </trkpt>
      <trkpt lat="49.79506" lon="4.84089">
        <ele>252</ele>
        <time>2022-09-05T10:45:02.000Z</time>
      </trkpt>
      <trkpt lat="49.79507" lon="4.84076">
        <ele>251</ele>
        <time>2022-09-05T10:45:03.000Z</time>
      </trkpt>
      <trkpt lat="49.79508" lon="4.84063">
        <ele>250</ele>
        <time>2022-09-05T10:45:04.000Z</time>
      </trkpt>
      <trkpt lat="49.79511" lon="4.84051">
        <ele>249</ele>
        <time>2022-09-05T10:45:05.000Z</time>
      </trkpt>
      <trkpt lat="49.79515" lon="4.84038">
        <ele>248</ele>
        <time>2022-09-05T10:45:06.000Z</time>
      </trkpt>
      <trkpt lat="49.7952" lon="4.84027">
        <ele>247</ele>
        <time>2022-09-05T10:45:07.000Z</time>
      </trkpt>
      <trkpt lat="49.79525" lon="4.84015">
        <ele>246</ele>
        <time>2022-09-05T10:45:08.000Z</time>
      </trkpt>
      <trkpt lat="49.7953" lon="4.84004">
        <ele>245</ele>
        <time>2022-09-05T10:45:09.000Z</time>
      </trkpt>
      <trkpt lat="49.79536" lon="4.83994">
        <ele>244</ele>
        <time>2022-09-05T10:45:10.000Z</time>
      </trkpt>
      <trkpt lat="49.79541" lon="4.83983">
        <ele>243</ele>
        <time>2022-09-05T10:45:11.000Z</time>
      </trkpt>
      <trkpt lat="49.79546" lon="4.83972">
        <ele>242</ele>
        <time>2022-09-05T10:45:12.000Z</time>
      </trkpt>
      <trkpt lat="49.79551" lon="4.83962">
        <ele>242</ele>
        <time>2022-09-05T10:45:13.000Z</time>
      </trkpt>
      <trkpt lat="49.79555" lon="4.83952">
        <ele>241</ele>
        <time>2022-09-05T10:45:14.000Z</time>
      </trkpt>
      <trkpt lat="49.79558" lon="4.83942">
        <ele>240</ele>
        <time>2022-09-05T10:45:15.000Z</time>
      </trkpt>
      <trkpt lat="49.79561" lon="4.83932">
        <ele>240</ele>
        <time>2022-09-05T10:45:16.000Z</time>
      </trkpt>
      <trkpt lat="49.79565" lon="4.83924">
        <ele>239</ele>
        <time>2022-09-05T10:45:17.000Z</time>
      </trkpt>
      <trkpt lat="49.79568" lon="4.83915">
        <ele>239</ele>
        <time>2022-09-05T10:45:18.000Z</time>
      </trkpt>
      <trkpt lat="49.79571" lon="4.83908">
        <ele>238</ele>
        <time>2022-09-05T10:45:19.000Z</time>
      </trkpt>
      <trkpt lat="49.79575" lon="4.839">
        <ele>238</ele>
        <time>2022-09-05T10:45:20.000Z</time>
      </trkpt>
      <trkpt lat="49.79579" lon="4.83893">
        <ele>237</ele>
        <time>2022-09-05T10:45:21.000Z</time>
      </trkpt>
      <trkpt lat="49.79582" lon="4.83886">
        <ele>237</ele>
        <time>2022-09-05T10:45:22.000Z</time>
      </trkpt>
      <trkpt lat="49.79586" lon="4.83878">
        <ele>236</ele>
        <time>2022-09-05T10:45:23.000Z</time>
      </trkpt>
      <trkpt lat="49.7959" lon="4.83871">
        <ele>236</ele>
        <time>2022-09-05T10:45:24.000Z</time>
      </trkpt>
      <trkpt lat="49.79594" lon="4.83864">
        <ele>235</ele>
        <time>2022-09-05T10:45:25.000Z</time>
      </trkpt>
      <trkpt lat="49.79599" lon="4.83857">
        <ele>235</ele>
        <time>2022-09-05T10:45:26.000Z</time>
      </trkpt>
      <trkpt lat="49.79605" lon="4.83849">
        <ele>235</ele>
        <time>2022-09-05T10:45:27.000Z</time>
      </trkpt>
      <trkpt lat="49.79611" lon="4.83842">
        <ele>234</ele>
        <time>2022-09-05T10:45:28.000Z</time>
      </trkpt>
      <trkpt lat="49.79616" lon="4.83834">
        <ele>234</ele>
        <time>2022-09-05T10:45:29.000Z</time>
      </trkpt>
      <trkpt lat="49.79621" lon="4.83825">
        <ele>234</ele>
        <time>2022-09-05T10:45:30.000Z</time>
      </trkpt>
      <trkpt lat="49.79626" lon="4.83816">
        <ele>233</ele>
        <time>2022-09-05T10:45:31.000Z</time>
      </trkpt>
      <trkpt lat="49.7963" lon="4.83807">
        <ele>233</ele>
        <time>2022-09-05T10:45:32.000Z</time>
      </trkpt>
      <trkpt lat="49.79634" lon="4.83798">
        <ele>232</ele>
        <time>2022-09-05T10:45:33.000Z</time>
      </trkpt>
      <trkpt lat="49.79639" lon="4.83789">
        <ele>232</ele>
        <time>2022-09-05T10:45:34.000Z</time>
      </trkpt>
      <trkpt lat="49.79643" lon="4.83779">
        <ele>231</ele>
        <time>2022-09-05T10:45:35.000Z</time>
      </trkpt>
      <trkpt lat="49.79648" lon="4.8377">
        <ele>231</ele>
        <time>2022-09-05T10:45:36.000Z</time>
      </trkpt>
      <trkpt lat="49.79651" lon="4.83761">
        <ele>230</ele>
        <time>2022-09-05T10:45:37.000Z</time>
      </trkpt>
      <trkpt lat="49.79654" lon="4.83754">
        <ele>230</ele>
        <time>2022-09-05T10:45:38.000Z</time>
      </trkpt>
      <trkpt lat="49.79655" lon="4.83748">
        <ele>230</ele>
        <time>2022-09-05T10:45:39.000Z</time>
      </trkpt>
      <trkpt lat="49.79657" lon="4.83743">
        <ele>229</ele>
        <time>2022-09-05T10:45:40.000Z</time>
      </trkpt>
      <trkpt lat="49.79656" lon="4.83738">
        <ele>229</ele>
        <time>2022-09-05T10:45:41.000Z</time>
      </trkpt>
      <trkpt lat="49.79653" lon="4.83734">
        <ele>229</ele>
        <time>2022-09-05T10:45:42.000Z</time>
      </trkpt>
      <trkpt lat="49.7965" lon="4.83732">
        <ele>228</ele>
        <time>2022-09-05T10:45:43.000Z</time>
      </trkpt>
      <trkpt lat="49.79646" lon="4.8373">
        <ele>228</ele>
        <time>2022-09-05T10:45:44.000Z</time>
      </trkpt>
      <trkpt lat="49.79641" lon="4.83731">
        <ele>228</ele>
        <time>2022-09-05T10:45:45.000Z</time>
      </trkpt>
      <trkpt lat="49.79637" lon="4.83732">
        <ele>228</ele>
        <time>2022-09-05T10:45:46.000Z</time>
      </trkpt>
      <trkpt lat="49.79632" lon="4.83732">
        <ele>227</ele>
        <time>2022-09-05T10:45:47.000Z</time>
      </trkpt>
      <trkpt lat="49.79627" lon="4.83731">
        <ele>227</ele>
        <time>2022-09-05T10:45:48.000Z</time>
      </trkpt>
      <trkpt lat="49.79622" lon="4.8373">
        <ele>227</ele>
        <time>2022-09-05T10:45:49.000Z</time>
      </trkpt>
      <trkpt lat="49.79616" lon="4.8373">
        <ele>226</ele>
        <time>2022-09-05T10:45:50.000Z</time>
      </trkpt>
      <trkpt lat="49.7961" lon="4.8373">
        <ele>226</ele>
        <time>2022-09-05T10:45:51.000Z</time>
      </trkpt>
      <trkpt lat="49.79603" lon="4.83729">
        <ele>226</ele>
        <time>2022-09-05T10:45:52.000Z</time>
      </trkpt>
      <trkpt lat="49.79597" lon="4.83728">
        <ele>226</ele>
        <time>2022-09-05T10:45:53.000Z</time>
      </trkpt>
      <trkpt lat="49.79591" lon="4.83728">
        <ele>226</ele>
        <time>2022-09-05T10:45:54.000Z</time>
      </trkpt>
      <trkpt lat="49.79584" lon="4.83727">
        <ele>225</ele>
        <time>2022-09-05T10:45:55.000Z</time>
      </trkpt>
      <trkpt lat="49.79577" lon="4.83727">
        <ele>225</ele>
        <time>2022-09-05T10:45:56.000Z</time>
      </trkpt>
      <trkpt lat="49.79571" lon="4.83727">
        <ele>225</ele>
        <time>2022-09-05T10:45:57.000Z</time>
      </trkpt>
      <trkpt lat="49.79564" lon="4.83726">
        <ele>225</ele>
        <time>2022-09-05T10:45:58.000Z</time>
      </trkpt>
      <trkpt lat="49.79558" lon="4.83724">
        <ele>224</ele>
        <time>2022-09-05T10:45:59.000Z</time>
      </trkpt>
      <trkpt lat="49.79552" lon="4.83723">
        <ele>224</ele>
        <time>2022-09-05T10:46:00.000Z</time>
      </trkpt>
      <trkpt lat="49.79546" lon="4.83722">
        <ele>223</ele>
        <time>2022-09-05T10:46:01.000Z</time>
      </trkpt>
      <trkpt lat="49.7954" lon="4.83721">
        <ele>223</ele>
        <time>2022-09-05T10:46:02.000Z</time>
      </trkpt>
      <trkpt lat="49.79535" lon="4.83719">
        <ele>223</ele>
        <time>2022-09-05T10:46:03.000Z</time>
      </trkpt>
      <trkpt lat="49.79529" lon="4.83719">
        <ele>222</ele>
        <time>2022-09-05T10:46:04.000Z</time>
      </trkpt>
      <trkpt lat="49.79523" lon="4.83717">
        <ele>222</ele>
        <time>2022-09-05T10:46:05.000Z</time>
      </trkpt>
      <trkpt lat="49.79517" lon="4.83716">
        <ele>222</ele>
        <time>2022-09-05T10:46:06.000Z</time>
      </trkpt>
      <trkpt lat="49.79511" lon="4.83715">
        <ele>221</ele>
        <time>2022-09-05T10:46:07.000Z</time>
      </trkpt>
      <trkpt lat="49.79505" lon="4.83713">
        <ele>221</ele>
        <time>2022-09-05T10:46:08.000Z</time>
      </trkpt>
      <trkpt lat="49.79499" lon="4.83712">
        <ele>221</ele>
        <time>2022-09-05T10:46:09.000Z</time>
      </trkpt>
      <trkpt lat="49.79493" lon="4.8371">
        <ele>220</ele>
        <time>2022-09-05T10:46:10.000Z</time>
      </trkpt>
      <trkpt lat="49.79487" lon="4.83708">
        <ele>220</ele>
        <time>2022-09-05T10:46:11.000Z</time>
      </trkpt>
      <trkpt lat="49.79481" lon="4.83707">
        <ele>220</ele>
        <time>2022-09-05T10:46:12.000Z</time>
      </trkpt>
      <trkpt lat="49.79474" lon="4.83706">
        <ele>220</ele>
        <time>2022-09-05T10:46:13.000Z</time>
      </trkpt>
      <trkpt lat="49.79468" lon="4.83705">
        <ele>220</ele>
        <time>2022-09-05T10:46:14.000Z</time>
      </trkpt>
      <trkpt lat="49.79462" lon="4.83704">
        <ele>220</ele>
        <time>2022-09-05T10:46:15.000Z</time>
      </trkpt>
      <trkpt lat="49.79456" lon="4.83703">
        <ele>220</ele>
        <time>2022-09-05T10:46:16.000Z</time>
      </trkpt>
      <trkpt lat="49.7945" lon="4.83702">
        <ele>219</ele>
        <time>2022-09-05T10:46:17.000Z</time>
      </trkpt>
      <trkpt lat="49.79444" lon="4.837">
        <ele>219</ele>
        <time>2022-09-05T10:46:18.000Z</time>
      </trkpt>
      <trkpt lat="49.79438" lon="4.83699">
        <ele>219</ele>
        <time>2022-09-05T10:46:19.000Z</time>
      </trkpt>
      <trkpt lat="49.79431" lon="4.83698">
        <ele>219</ele>
        <time>2022-09-05T10:46:20.000Z</time>
      </trkpt>
      <trkpt lat="49.79425" lon="4.83696">
        <ele>219</ele>
        <time>2022-09-05T10:46:21.000Z</time>
      </trkpt>
      <trkpt lat="49.79419" lon="4.83696">
        <ele>219</ele>
        <time>2022-09-05T10:46:22.000Z</time>
      </trkpt>
      <trkpt lat="49.79413" lon="4.83695">
        <ele>219</ele>
        <time>2022-09-05T10:46:23.000Z</time>
      </trkpt>
      <trkpt lat="49.79407" lon="4.83694">
        <ele>219</ele>
        <time>2022-09-05T10:46:24.000Z</time>
      </trkpt>
      <trkpt lat="49.794" lon="4.83692">
        <ele>219</ele>
        <time>2022-09-05T10:46:25.000Z</time>
      </trkpt>
      <trkpt lat="49.79394" lon="4.83692">
        <ele>219</ele>
        <time>2022-09-05T10:46:26.000Z</time>
      </trkpt>
      <trkpt lat="49.79388" lon="4.83692">
        <ele>219</ele>
        <time>2022-09-05T10:46:27.000Z</time>
      </trkpt>
      <trkpt lat="49.79382" lon="4.83693">
        <ele>219</ele>
        <time>2022-09-05T10:46:28.000Z</time>
      </trkpt>
      <trkpt lat="49.79376" lon="4.83695">
        <ele>219</ele>
        <time>2022-09-05T10:46:29.000Z</time>
      </trkpt>
      <trkpt lat="49.7937" lon="4.83698">
        <ele>219</ele>
        <time>2022-09-05T10:46:30.000Z</time>
      </trkpt>
      <trkpt lat="49.79363" lon="4.83701">
        <ele>219</ele>
        <time>2022-09-05T10:46:31.000Z</time>
      </trkpt>
      <trkpt lat="49.79357" lon="4.83706">
        <ele>219</ele>
        <time>2022-09-05T10:46:32.000Z</time>
      </trkpt>
      <trkpt lat="49.79351" lon="4.83711">
        <ele>219</ele>
        <time>2022-09-05T10:46:33.000Z</time>
      </trkpt>
      <trkpt lat="49.79346" lon="4.83717">
        <ele>219</ele>
        <time>2022-09-05T10:46:34.000Z</time>
      </trkpt>
      <trkpt lat="49.79342" lon="4.83723">
        <ele>219</ele>
        <time>2022-09-05T10:46:35.000Z</time>
      </trkpt>
      <trkpt lat="49.79337" lon="4.83729">
        <ele>219</ele>
        <time>2022-09-05T10:46:36.000Z</time>
      </trkpt>
      <trkpt lat="49.79333" lon="4.83735">
        <ele>219</ele>
        <time>2022-09-05T10:46:37.000Z</time>
      </trkpt>
      <trkpt lat="49.79328" lon="4.83741">
        <ele>219</ele>
        <time>2022-09-05T10:46:38.000Z</time>
      </trkpt>
      <trkpt lat="49.79324" lon="4.83748">
        <ele>219</ele>
        <time>2022-09-05T10:46:39.000Z</time>
      </trkpt>
      <trkpt lat="49.7932" lon="4.83755">
        <ele>219</ele>
        <time>2022-09-05T10:46:40.000Z</time>
      </trkpt>
      <trkpt lat="49.79315" lon="4.83762">
        <ele>219</ele>
        <time>2022-09-05T10:46:41.000Z</time>
      </trkpt>
      <trkpt lat="49.7931" lon="4.83769">
        <ele>219</ele>
        <time>2022-09-05T10:46:42.000Z</time>
      </trkpt>
      <trkpt lat="49.79305" lon="4.83776">
        <ele>219</ele>
        <time>2022-09-05T10:46:43.000Z</time>
      </trkpt>
      <trkpt lat="49.79301" lon="4.83784">
        <ele>219</ele>
        <time>2022-09-05T10:46:44.000Z</time>
      </trkpt>
      <trkpt lat="49.79297" lon="4.83791">
        <ele>219</ele>
        <time>2022-09-05T10:46:45.000Z</time>
      </trkpt>
      <trkpt lat="49.79293" lon="4.83799">
        <ele>219</ele>
        <time>2022-09-05T10:46:46.000Z</time>
      </trkpt>
      <trkpt lat="49.79289" lon="4.83808">
        <ele>219</ele>
        <time>2022-09-05T10:46:47.000Z</time>
      </trkpt>
      <trkpt lat="49.79285" lon="4.83816">
        <ele>219</ele>
        <time>2022-09-05T10:46:48.000Z</time>
      </trkpt>
      <trkpt lat="49.79281" lon="4.83825">
        <ele>219</ele>
        <time>2022-09-05T10:46:49.000Z</time>
      </trkpt>
      <trkpt lat="49.79278" lon="4.83833">
        <ele>219</ele>
        <time>2022-09-05T10:46:50.000Z</time>
      </trkpt>
      <trkpt lat="49.79274" lon="4.83842">
        <ele>219</ele>
        <time>2022-09-05T10:46:51.000Z</time>
      </trkpt>
      <trkpt lat="49.7927" lon="4.8385">
        <ele>219</ele>
        <time>2022-09-05T10:46:52.000Z</time>
      </trkpt>
      <trkpt lat="49.79266" lon="4.83858">
        <ele>219</ele>
        <time>2022-09-05T10:46:53.000Z</time>
      </trkpt>
      <trkpt lat="49.79262" lon="4.83866">
        <ele>220</ele>
        <time>2022-09-05T10:46:54.000Z</time>
      </trkpt>
      <trkpt lat="49.79258" lon="4.83875">
        <ele>219</ele>
        <time>2022-09-05T10:46:55.000Z</time>
      </trkpt>
      <trkpt lat="49.79254" lon="4.83883">
        <ele>219</ele>
        <time>2022-09-05T10:46:56.000Z</time>
      </trkpt>
      <trkpt lat="49.79251" lon="4.83892">
        <ele>219</ele>
        <time>2022-09-05T10:46:57.000Z</time>
      </trkpt>
      <trkpt lat="49.79247" lon="4.839">
        <ele>219</ele>
        <time>2022-09-05T10:46:58.000Z</time>
      </trkpt>
      <trkpt lat="49.79243" lon="4.83909">
        <ele>219</ele>
        <time>2022-09-05T10:46:59.000Z</time>
      </trkpt>
      <trkpt lat="49.79239" lon="4.83918">
        <ele>219</ele>
        <time>2022-09-05T10:47:00.000Z</time>
      </trkpt>
      <trkpt lat="49.79235" lon="4.83927">
        <ele>219</ele>
        <time>2022-09-05T10:47:01.000Z</time>
      </trkpt>
      <trkpt lat="49.79232" lon="4.83935">
        <ele>219</ele>
        <time>2022-09-05T10:47:02.000Z</time>
      </trkpt>
      <trkpt lat="49.79228" lon="4.83944">
        <ele>219</ele>
        <time>2022-09-05T10:47:03.000Z</time>
      </trkpt>
      <trkpt lat="49.79224" lon="4.83952">
        <ele>218</ele>
        <time>2022-09-05T10:47:04.000Z</time>
      </trkpt>
      <trkpt lat="49.79219" lon="4.8396">
        <ele>218</ele>
        <time>2022-09-05T10:47:05.000Z</time>
      </trkpt>
      <trkpt lat="49.79215" lon="4.83969">
        <ele>218</ele>
        <time>2022-09-05T10:47:06.000Z</time>
      </trkpt>
      <trkpt lat="49.79211" lon="4.83977">
        <ele>218</ele>
        <time>2022-09-05T10:47:07.000Z</time>
      </trkpt>
      <trkpt lat="49.79207" lon="4.83985">
        <ele>217</ele>
        <time>2022-09-05T10:47:08.000Z</time>
      </trkpt>
      <trkpt lat="49.79202" lon="4.83993">
        <ele>217</ele>
        <time>2022-09-05T10:47:09.000Z</time>
      </trkpt>
      <trkpt lat="49.79198" lon="4.84002">
        <ele>217</ele>
        <time>2022-09-05T10:47:10.000Z</time>
      </trkpt>
      <trkpt lat="49.79194" lon="4.84011">
        <ele>217</ele>
        <time>2022-09-05T10:47:11.000Z</time>
      </trkpt>
      <trkpt lat="49.7919" lon="4.8402">
        <ele>217</ele>
        <time>2022-09-05T10:47:12.000Z</time>
      </trkpt>
      <trkpt lat="49.79187" lon="4.84029">
        <ele>217</ele>
        <time>2022-09-05T10:47:13.000Z</time>
      </trkpt>
      <trkpt lat="49.79182" lon="4.84037">
        <ele>217</ele>
        <time>2022-09-05T10:47:14.000Z</time>
      </trkpt>
      <trkpt lat="49.79178" lon="4.84045">
        <ele>217</ele>
        <time>2022-09-05T10:47:15.000Z</time>
      </trkpt>
      <trkpt lat="49.79175" lon="4.84054">
        <ele>216</ele>
        <time>2022-09-05T10:47:16.000Z</time>
      </trkpt>
      <trkpt lat="49.79171" lon="4.84062">
        <ele>216</ele>
        <time>2022-09-05T10:47:17.000Z</time>
      </trkpt>
      <trkpt lat="49.79168" lon="4.8407">
        <ele>216</ele>
        <time>2022-09-05T10:47:18.000Z</time>
      </trkpt>
      <trkpt lat="49.79164" lon="4.84078">
        <ele>216</ele>
        <time>2022-09-05T10:47:19.000Z</time>
      </trkpt>
      <trkpt lat="49.79159" lon="4.84085">
        <ele>216</ele>
        <time>2022-09-05T10:47:20.000Z</time>
      </trkpt>
      <trkpt lat="49.79155" lon="4.84092">
        <ele>216</ele>
        <time>2022-09-05T10:47:21.000Z</time>
      </trkpt>
      <trkpt lat="49.7915" lon="4.84099">
        <ele>216</ele>
        <time>2022-09-05T10:47:22.000Z</time>
      </trkpt>
      <trkpt lat="49.79146" lon="4.84106">
        <ele>215</ele>
        <time>2022-09-05T10:47:23.000Z</time>
      </trkpt>
      <trkpt lat="49.79141" lon="4.84112">
        <ele>215</ele>
        <time>2022-09-05T10:47:24.000Z</time>
      </trkpt>
      <trkpt lat="49.79136" lon="4.84119">
        <ele>215</ele>
        <time>2022-09-05T10:47:25.000Z</time>
      </trkpt>
      <trkpt lat="49.79131" lon="4.84126">
        <ele>215</ele>
        <time>2022-09-05T10:47:26.000Z</time>
      </trkpt>
      <trkpt lat="49.79126" lon="4.84132">
        <ele>215</ele>
        <time>2022-09-05T10:47:27.000Z</time>
      </trkpt>
      <trkpt lat="49.79122" lon="4.84138">
        <ele>215</ele>
        <time>2022-09-05T10:47:28.000Z</time>
      </trkpt>
      <trkpt lat="49.79116" lon="4.84144">
        <ele>215</ele>
        <time>2022-09-05T10:47:29.000Z</time>
      </trkpt>
      <trkpt lat="49.79111" lon="4.84149">
        <ele>215</ele>
        <time>2022-09-05T10:47:30.000Z</time>
      </trkpt>
      <trkpt lat="49.79107" lon="4.84155">
        <ele>215</ele>
        <time>2022-09-05T10:47:31.000Z</time>
      </trkpt>
      <trkpt lat="49.79102" lon="4.84161">
        <ele>215</ele>
        <time>2022-09-05T10:47:32.000Z</time>
      </trkpt>
      <trkpt lat="49.79097" lon="4.84166">
        <ele>215</ele>
        <time>2022-09-05T10:47:33.000Z</time>
      </trkpt>
      <trkpt lat="49.79092" lon="4.84172">
        <ele>215</ele>
        <time>2022-09-05T10:47:34.000Z</time>
      </trkpt>
      <trkpt lat="49.79087" lon="4.84177">
        <ele>214</ele>
        <time>2022-09-05T10:47:35.000Z</time>
      </trkpt>
      <trkpt lat="49.79082" lon="4.84183">
        <ele>214</ele>
        <time>2022-09-05T10:47:36.000Z</time>
      </trkpt>
      <trkpt lat="49.79077" lon="4.84189">
        <ele>214</ele>
        <time>2022-09-05T10:47:37.000Z</time>
      </trkpt>
      <trkpt lat="49.79072" lon="4.84196">
        <ele>214</ele>
        <time>2022-09-05T10:47:38.000Z</time>
      </trkpt>
      <trkpt lat="49.79067" lon="4.84203">
        <ele>214</ele>
        <time>2022-09-05T10:47:39.000Z</time>
      </trkpt>
      <trkpt lat="49.79063" lon="4.8421">
        <ele>214</ele>
        <time>2022-09-05T10:47:40.000Z</time>
      </trkpt>
      <trkpt lat="49.79058" lon="4.84217">
        <ele>214</ele>
        <time>2022-09-05T10:47:41.000Z</time>
      </trkpt>
      <trkpt lat="49.79053" lon="4.84223">
        <ele>214</ele>
        <time>2022-09-05T10:47:42.000Z</time>
      </trkpt>
      <trkpt lat="49.79047" lon="4.8423">
        <ele>214</ele>
        <time>2022-09-05T10:47:43.000Z</time>
      </trkpt>
      <trkpt lat="49.79042" lon="4.84236">
        <ele>214</ele>
        <time>2022-09-05T10:47:44.000Z</time>
      </trkpt>
      <trkpt lat="49.79037" lon="4.84243">
        <ele>214</ele>
        <time>2022-09-05T10:47:45.000Z</time>
      </trkpt>
      <trkpt lat="49.79032" lon="4.84249">
        <ele>214</ele>
        <time>2022-09-05T10:47:46.000Z</time>
      </trkpt>
      <trkpt lat="49.79026" lon="4.84254">
        <ele>214</ele>
        <time>2022-09-05T10:47:47.000Z</time>
      </trkpt>
      <trkpt lat="49.7902" lon="4.8426">
        <ele>214</ele>
        <time>2022-09-05T10:47:48.000Z</time>
      </trkpt>
      <trkpt lat="49.79014" lon="4.84265">
        <ele>214</ele>
        <time>2022-09-05T10:47:49.000Z</time>
      </trkpt>
      <trkpt lat="49.79007" lon="4.84269">
        <ele>214</ele>
        <time>2022-09-05T10:47:50.000Z</time>
      </trkpt>
      <trkpt lat="49.79" lon="4.84272">
        <ele>214</ele>
        <time>2022-09-05T10:47:51.000Z</time>
      </trkpt>
      <trkpt lat="49.78993" lon="4.84274">
        <ele>213</ele>
        <time>2022-09-05T10:47:52.000Z</time>
      </trkpt>
      <trkpt lat="49.78986" lon="4.84275">
        <ele>213</ele>
        <time>2022-09-05T10:47:53.000Z</time>
      </trkpt>
      <trkpt lat="49.78979" lon="4.84277">
        <ele>213</ele>
        <time>2022-09-05T10:47:54.000Z</time>
      </trkpt>
      <trkpt lat="49.78972" lon="4.8428">
        <ele>213</ele>
        <time>2022-09-05T10:47:55.000Z</time>
      </trkpt>
      <trkpt lat="49.78966" lon="4.84283">
        <ele>212</ele>
        <time>2022-09-05T10:47:56.000Z</time>
      </trkpt>
      <trkpt lat="49.78959" lon="4.84287">
        <ele>212</ele>
        <time>2022-09-05T10:47:57.000Z</time>
      </trkpt>
      <trkpt lat="49.78953" lon="4.84291">
        <ele>212</ele>
        <time>2022-09-05T10:47:58.000Z</time>
      </trkpt>
      <trkpt lat="49.78946" lon="4.84295">
        <ele>211</ele>
        <time>2022-09-05T10:47:59.000Z</time>
      </trkpt>
      <trkpt lat="49.7894" lon="4.84299">
        <ele>211</ele>
        <time>2022-09-05T10:48:00.000Z</time>
      </trkpt>
      <trkpt lat="49.78933" lon="4.84303">
        <ele>211</ele>
        <time>2022-09-05T10:48:01.000Z</time>
      </trkpt>
      <trkpt lat="49.78927" lon="4.84307">
        <ele>211</ele>
        <time>2022-09-05T10:48:02.000Z</time>
      </trkpt>
      <trkpt lat="49.78921" lon="4.8431">
        <ele>211</ele>
        <time>2022-09-05T10:48:03.000Z</time>
      </trkpt>
      <trkpt lat="49.78915" lon="4.84312">
        <ele>211</ele>
        <time>2022-09-05T10:48:04.000Z</time>
      </trkpt>
      <trkpt lat="49.7891" lon="4.84316">
        <ele>211</ele>
        <time>2022-09-05T10:48:05.000Z</time>
      </trkpt>
      <trkpt lat="49.78903" lon="4.84319">
        <ele>211</ele>
        <time>2022-09-05T10:48:06.000Z</time>
      </trkpt>
      <trkpt lat="49.78897" lon="4.84321">
        <ele>210</ele>
        <time>2022-09-05T10:48:07.000Z</time>
      </trkpt>
      <trkpt lat="49.78889" lon="4.84324">
        <ele>210</ele>
        <time>2022-09-05T10:48:08.000Z</time>
      </trkpt>
      <trkpt lat="49.78882" lon="4.84326">
        <ele>210</ele>
        <time>2022-09-05T10:48:09.000Z</time>
      </trkpt>
      <trkpt lat="49.78874" lon="4.84328">
        <ele>210</ele>
        <time>2022-09-05T10:48:10.000Z</time>
      </trkpt>
      <trkpt lat="49.78867" lon="4.84328">
        <ele>210</ele>
        <time>2022-09-05T10:48:11.000Z</time>
      </trkpt>
      <trkpt lat="49.78859" lon="4.84327">
        <ele>209</ele>
        <time>2022-09-05T10:48:12.000Z</time>
      </trkpt>
      <trkpt lat="49.78851" lon="4.84327">
        <ele>209</ele>
        <time>2022-09-05T10:48:13.000Z</time>
      </trkpt>
      <trkpt lat="49.78844" lon="4.84326">
        <ele>209</ele>
        <time>2022-09-05T10:48:14.000Z</time>
      </trkpt>
      <trkpt lat="49.78836" lon="4.84325">
        <ele>209</ele>
        <time>2022-09-05T10:48:15.000Z</time>
      </trkpt>
      <trkpt lat="49.78828" lon="4.84325">
        <ele>209</ele>
        <time>2022-09-05T10:48:16.000Z</time>
      </trkpt>
      <trkpt lat="49.7882" lon="4.84325">
        <ele>208</ele>
        <time>2022-09-05T10:48:17.000Z</time>
      </trkpt>
      <trkpt lat="49.78813" lon="4.84325">
        <ele>208</ele>
        <time>2022-09-05T10:48:18.000Z</time>
      </trkpt>
      <trkpt lat="49.78805" lon="4.84325">
        <ele>208</ele>
        <time>2022-09-05T10:48:19.000Z</time>
      </trkpt>
      <trkpt lat="49.78797" lon="4.84325">
        <ele>207</ele>
        <time>2022-09-05T10:48:20.000Z</time>
      </trkpt>
      <trkpt lat="49.7879" lon="4.84325">
        <ele>207</ele>
        <time>2022-09-05T10:48:21.000Z</time>
      </trkpt>
      <trkpt lat="49.78783" lon="4.84324">
        <ele>207</ele>
        <time>2022-09-05T10:48:22.000Z</time>
      </trkpt>
      <trkpt lat="49.78775" lon="4.84324">
        <ele>207</ele>
        <time>2022-09-05T10:48:23.000Z</time>
      </trkpt>
      <trkpt lat="49.78768" lon="4.84323">
        <ele>206</ele>
        <time>2022-09-05T10:48:24.000Z</time>
      </trkpt>
      <trkpt lat="49.78761" lon="4.84323">
        <ele>206</ele>
        <time>2022-09-05T10:48:25.000Z</time>
      </trkpt>
      <trkpt lat="49.78754" lon="4.84322">
        <ele>206</ele>
        <time>2022-09-05T10:48:26.000Z</time>
      </trkpt>
      <trkpt lat="49.78747" lon="4.84321">
        <ele>205</ele>
        <time>2022-09-05T10:48:27.000Z</time>
      </trkpt>
      <trkpt lat="49.7874" lon="4.8432">
        <ele>205</ele>
        <time>2022-09-05T10:48:28.000Z</time>
      </trkpt>
      <trkpt lat="49.78733" lon="4.84319">
        <ele>205</ele>
        <time>2022-09-05T10:48:29.000Z</time>
      </trkpt>
      <trkpt lat="49.78725" lon="4.84319">
        <ele>205</ele>
        <time>2022-09-05T10:48:30.000Z</time>
      </trkpt>
      <trkpt lat="49.78717" lon="4.84318">
        <ele>205</ele>
        <time>2022-09-05T10:48:31.000Z</time>
      </trkpt>
      <trkpt lat="49.7871" lon="4.84317">
        <ele>204</ele>
        <time>2022-09-05T10:48:32.000Z</time>
      </trkpt>
      <trkpt lat="49.78702" lon="4.84317">
        <ele>204</ele>
        <time>2022-09-05T10:48:33.000Z</time>
      </trkpt>
      <trkpt lat="49.78695" lon="4.84316">
        <ele>204</ele>
        <time>2022-09-05T10:48:34.000Z</time>
      </trkpt>
      <trkpt lat="49.78688" lon="4.84316">
        <ele>204</ele>
        <time>2022-09-05T10:48:35.000Z</time>
      </trkpt>
      <trkpt lat="49.78681" lon="4.84316">
        <ele>203</ele>
        <time>2022-09-05T10:48:36.000Z</time>
      </trkpt>
      <trkpt lat="49.78674" lon="4.84316">
        <ele>203</ele>
        <time>2022-09-05T10:48:37.000Z</time>
      </trkpt>
      <trkpt lat="49.78666" lon="4.84315">
        <ele>203</ele>
        <time>2022-09-05T10:48:38.000Z</time>
      </trkpt>
      <trkpt lat="49.78659" lon="4.84314">
        <ele>202</ele>
        <time>2022-09-05T10:48:39.000Z</time>
      </trkpt>
      <trkpt lat="49.78651" lon="4.84313">
        <ele>202</ele>
        <time>2022-09-05T10:48:40.000Z</time>
      </trkpt>
      <trkpt lat="49.78644" lon="4.84313">
        <ele>202</ele>
        <time>2022-09-05T10:48:41.000Z</time>
      </trkpt>
      <trkpt lat="49.78636" lon="4.84312">
        <ele>201</ele>
        <time>2022-09-05T10:48:42.000Z</time>
      </trkpt>
      <trkpt lat="49.78629" lon="4.84312">
        <ele>201</ele>
        <time>2022-09-05T10:48:43.000Z</time>
      </trkpt>
      <trkpt lat="49.78621" lon="4.84312">
        <ele>200</ele>
        <time>2022-09-05T10:48:44.000Z</time>
      </trkpt>
      <trkpt lat="49.78614" lon="4.84312">
        <ele>200</ele>
        <time>2022-09-05T10:48:45.000Z</time>
      </trkpt>
      <trkpt lat="49.78606" lon="4.84312">
        <ele>200</ele>
        <time>2022-09-05T10:48:46.000Z</time>
      </trkpt>
      <trkpt lat="49.78599" lon="4.84312">
        <ele>199</ele>
        <time>2022-09-05T10:48:47.000Z</time>
      </trkpt>
      <trkpt lat="49.78592" lon="4.84312">
        <ele>199</ele>
        <time>2022-09-05T10:48:48.000Z</time>
      </trkpt>
      <trkpt lat="49.78584" lon="4.84312">
        <ele>199</ele>
        <time>2022-09-05T10:48:49.000Z</time>
      </trkpt>
      <trkpt lat="49.78577" lon="4.84313">
        <ele>198</ele>
        <time>2022-09-05T10:48:50.000Z</time>
      </trkpt>
      <trkpt lat="49.78569" lon="4.84312">
        <ele>198</ele>
        <time>2022-09-05T10:48:51.000Z</time>
      </trkpt>
      <trkpt lat="49.78562" lon="4.84312">
        <ele>198</ele>
        <time>2022-09-05T10:48:52.000Z</time>
      </trkpt>
      <trkpt lat="49.78554" lon="4.84311">
        <ele>197</ele>
        <time>2022-09-05T10:48:53.000Z</time>
      </trkpt>
      <trkpt lat="49.78547" lon="4.8431">
        <ele>197</ele>
        <time>2022-09-05T10:48:54.000Z</time>
      </trkpt>
      <trkpt lat="49.78539" lon="4.8431">
        <ele>196</ele>
        <time>2022-09-05T10:48:55.000Z</time>
      </trkpt>
      <trkpt lat="49.78532" lon="4.84309">
        <ele>196</ele>
        <time>2022-09-05T10:48:56.000Z</time>
      </trkpt>
      <trkpt lat="49.78524" lon="4.84309">
        <ele>195</ele>
        <time>2022-09-05T10:48:57.000Z</time>
      </trkpt>
      <trkpt lat="49.78517" lon="4.84308">
        <ele>195</ele>
        <time>2022-09-05T10:48:58.000Z</time>
      </trkpt>
      <trkpt lat="49.7851" lon="4.84307">
        <ele>195</ele>
        <time>2022-09-05T10:48:59.000Z</time>
      </trkpt>
      <trkpt lat="49.78502" lon="4.84307">
        <ele>194</ele>
        <time>2022-09-05T10:49:00.000Z</time>
      </trkpt>
      <trkpt lat="49.78495" lon="4.84306">
        <ele>194</ele>
        <time>2022-09-05T10:49:01.000Z</time>
      </trkpt>
      <trkpt lat="49.78488" lon="4.84306">
        <ele>194</ele>
        <time>2022-09-05T10:49:02.000Z</time>
      </trkpt>
      <trkpt lat="49.78481" lon="4.84306">
        <ele>194</ele>
        <time>2022-09-05T10:49:03.000Z</time>
      </trkpt>
      <trkpt lat="49.78473" lon="4.84305">
        <ele>193</ele>
        <time>2022-09-05T10:49:04.000Z</time>
      </trkpt>
      <trkpt lat="49.78466" lon="4.84305">
        <ele>193</ele>
        <time>2022-09-05T10:49:05.000Z</time>
      </trkpt>
      <trkpt lat="49.7846" lon="4.84304">
        <ele>193</ele>
        <time>2022-09-05T10:49:06.000Z</time>
      </trkpt>
      <trkpt lat="49.78453" lon="4.84304">
        <ele>193</ele>
        <time>2022-09-05T10:49:07.000Z</time>
      </trkpt>
      <trkpt lat="49.78446" lon="4.84304">
        <ele>193</ele>
        <time>2022-09-05T10:49:08.000Z</time>
      </trkpt>
      <trkpt lat="49.78439" lon="4.84304">
        <ele>193</ele>
        <time>2022-09-05T10:49:09.000Z</time>
      </trkpt>
      <trkpt lat="49.78433" lon="4.84306">
        <ele>193</ele>
        <time>2022-09-05T10:49:10.000Z</time>
      </trkpt>
      <trkpt lat="49.78428" lon="4.8431">
        <ele>193</ele>
        <time>2022-09-05T10:49:11.000Z</time>
      </trkpt>
      <trkpt lat="49.78422" lon="4.84315">
        <ele>193</ele>
        <time>2022-09-05T10:49:12.000Z</time>
      </trkpt>
      <trkpt lat="49.78417" lon="4.8432">
        <ele>193</ele>
        <time>2022-09-05T10:49:13.000Z</time>
      </trkpt>
      <trkpt lat="49.78412" lon="4.84325">
        <ele>192</ele>
        <time>2022-09-05T10:49:14.000Z</time>
      </trkpt>
      <trkpt lat="49.78406" lon="4.84329">
        <ele>192</ele>
        <time>2022-09-05T10:49:15.000Z</time>
      </trkpt>
      <trkpt lat="49.78401" lon="4.84334">
        <ele>192</ele>
        <time>2022-09-05T10:49:16.000Z</time>
      </trkpt>
      <trkpt lat="49.78397" lon="4.84338">
        <ele>192</ele>
        <time>2022-09-05T10:49:17.000Z</time>
      </trkpt>
      <trkpt lat="49.78392" lon="4.84342">
        <ele>192</ele>
        <time>2022-09-05T10:49:18.000Z</time>
      </trkpt>
      <trkpt lat="49.78387" lon="4.84345">
        <ele>192</ele>
        <time>2022-09-05T10:49:19.000Z</time>
      </trkpt>
      <trkpt lat="49.78382" lon="4.84346">
        <ele>192</ele>
        <time>2022-09-05T10:49:20.000Z</time>
      </trkpt>
      <trkpt lat="49.78377" lon="4.84346">
        <ele>192</ele>
        <time>2022-09-05T10:49:21.000Z</time>
      </trkpt>
      <trkpt lat="49.78373" lon="4.84345">
        <ele>192</ele>
        <time>2022-09-05T10:49:22.000Z</time>
      </trkpt>
      <trkpt lat="49.78368" lon="4.84344">
        <ele>192</ele>
        <time>2022-09-05T10:49:23.000Z</time>
      </trkpt>
      <trkpt lat="49.78364" lon="4.84342">
        <ele>192</ele>
        <time>2022-09-05T10:49:24.000Z</time>
      </trkpt>
      <trkpt lat="49.78359" lon="4.8434">
        <ele>192</ele>
        <time>2022-09-05T10:49:25.000Z</time>
      </trkpt>
      <trkpt lat="49.78354" lon="4.84336">
        <ele>191</ele>
        <time>2022-09-05T10:49:26.000Z</time>
      </trkpt>
      <trkpt lat="49.7835" lon="4.84333">
        <ele>191</ele>
        <time>2022-09-05T10:49:27.000Z</time>
      </trkpt>
      <trkpt lat="49.78345" lon="4.84329">
        <ele>191</ele>
        <time>2022-09-05T10:49:28.000Z</time>
      </trkpt>
      <trkpt lat="49.7834" lon="4.84327">
        <ele>191</ele>
        <time>2022-09-05T10:49:29.000Z</time>
      </trkpt>
      <trkpt lat="49.78334" lon="4.84324">
        <ele>191</ele>
        <time>2022-09-05T10:49:30.000Z</time>
      </trkpt>
      <trkpt lat="49.78329" lon="4.8432">
        <ele>190</ele>
        <time>2022-09-05T10:49:31.000Z</time>
      </trkpt>
      <trkpt lat="49.78323" lon="4.84316">
        <ele>190</ele>
        <time>2022-09-05T10:49:32.000Z</time>
      </trkpt>
      <trkpt lat="49.78318" lon="4.84312">
        <ele>190</ele>
        <time>2022-09-05T10:49:33.000Z</time>
      </trkpt>
      <trkpt lat="49.78312" lon="4.84308">
        <ele>190</ele>
        <time>2022-09-05T10:49:34.000Z</time>
      </trkpt>
      <trkpt lat="49.78306" lon="4.84303">
        <ele>190</ele>
        <time>2022-09-05T10:49:35.000Z</time>
      </trkpt>
      <trkpt lat="49.783" lon="4.84299">
        <ele>190</ele>
        <time>2022-09-05T10:49:36.000Z</time>
      </trkpt>
      <trkpt lat="49.78294" lon="4.84294">
        <ele>190</ele>
        <time>2022-09-05T10:49:37.000Z</time>
      </trkpt>
      <trkpt lat="49.78288" lon="4.8429">
        <ele>190</ele>
        <time>2022-09-05T10:49:38.000Z</time>
      </trkpt>
      <trkpt lat="49.78281" lon="4.84287">
        <ele>190</ele>
        <time>2022-09-05T10:49:39.000Z</time>
      </trkpt>
      <trkpt lat="49.7828" lon="4.84286">
        <ele>190</ele>
        <time>2022-09-05T10:49:40.000Z</time>
      </trkpt>
      <trkpt lat="49.78279" lon="4.84284">
        <ele>190</ele>
        <time>2022-09-05T10:49:41.000Z</time>
      </trkpt>
      <trkpt lat="49.78276" lon="4.8428">
        <ele>190</ele>
        <time>2022-09-05T10:49:42.000Z</time>
      </trkpt>
      <trkpt lat="49.78272" lon="4.84273">
        <ele>190</ele>
        <time>2022-09-05T10:49:43.000Z</time>
      </trkpt>
      <trkpt lat="49.78267" lon="4.84265">
        <ele>190</ele>
        <time>2022-09-05T10:49:44.000Z</time>
      </trkpt>
      <trkpt lat="49.78262" lon="4.84256">
        <ele>190</ele>
        <time>2022-09-05T10:49:45.000Z</time>
      </trkpt>
      <trkpt lat="49.78257" lon="4.84246">
        <ele>190</ele>
        <time>2022-09-05T10:49:46.000Z</time>
      </trkpt>
      <trkpt lat="49.78254" lon="4.84236">
        <ele>190</ele>
        <time>2022-09-05T10:49:47.000Z</time>
      </trkpt>
      <trkpt lat="49.7825" lon="4.84227">
        <ele>189</ele>
        <time>2022-09-05T10:49:48.000Z</time>
      </trkpt>
      <trkpt lat="49.78247" lon="4.84218">
        <ele>189</ele>
        <time>2022-09-05T10:49:49.000Z</time>
      </trkpt>
      <trkpt lat="49.78243" lon="4.8421">
        <ele>189</ele>
        <time>2022-09-05T10:49:50.000Z</time>
      </trkpt>
      <trkpt lat="49.78241" lon="4.84201">
        <ele>189</ele>
        <time>2022-09-05T10:49:51.000Z</time>
      </trkpt>
      <trkpt lat="49.78238" lon="4.84193">
        <ele>189</ele>
        <time>2022-09-05T10:49:52.000Z</time>
      </trkpt>
      <trkpt lat="49.78235" lon="4.84184">
        <ele>189</ele>
        <time>2022-09-05T10:49:53.000Z</time>
      </trkpt>
      <trkpt lat="49.78233" lon="4.84177">
        <ele>189</ele>
        <time>2022-09-05T10:49:54.000Z</time>
      </trkpt>
      <trkpt lat="49.78231" lon="4.8417">
        <ele>189</ele>
        <time>2022-09-05T10:49:55.000Z</time>
      </trkpt>
      <trkpt lat="49.78228" lon="4.84164">
        <ele>189</ele>
        <time>2022-09-05T10:49:56.000Z</time>
      </trkpt>
      <trkpt lat="49.78224" lon="4.84156">
        <ele>189</ele>
        <time>2022-09-05T10:49:57.000Z</time>
      </trkpt>
      <trkpt lat="49.7822" lon="4.84149">
        <ele>189</ele>
        <time>2022-09-05T10:49:58.000Z</time>
      </trkpt>
      <trkpt lat="49.78216" lon="4.84143">
        <ele>189</ele>
        <time>2022-09-05T10:49:59.000Z</time>
      </trkpt>
      <trkpt lat="49.78212" lon="4.84138">
        <ele>189</ele>
        <time>2022-09-05T10:50:00.000Z</time>
      </trkpt>
      <trkpt lat="49.78207" lon="4.84133">
        <ele>189</ele>
        <time>2022-09-05T10:50:01.000Z</time>
      </trkpt>
      <trkpt lat="49.78203" lon="4.84129">
        <ele>189</ele>
        <time>2022-09-05T10:50:02.000Z</time>
      </trkpt>
      <trkpt lat="49.78198" lon="4.84125">
        <ele>188</ele>
        <time>2022-09-05T10:50:03.000Z</time>
      </trkpt>
      <trkpt lat="49.78193" lon="4.84121">
        <ele>188</ele>
        <time>2022-09-05T10:50:04.000Z</time>
      </trkpt>
      <trkpt lat="49.78188" lon="4.84119">
        <ele>188</ele>
        <time>2022-09-05T10:50:05.000Z</time>
      </trkpt>
      <trkpt lat="49.78184" lon="4.84118">
        <ele>188</ele>
        <time>2022-09-05T10:50:06.000Z</time>
      </trkpt>
      <trkpt lat="49.78181" lon="4.84119">
        <ele>188</ele>
        <time>2022-09-05T10:50:07.000Z</time>
      </trkpt>
      <trkpt lat="49.78177" lon="4.8412">
        <ele>188</ele>
        <time>2022-09-05T10:50:08.000Z</time>
      </trkpt>
      <trkpt lat="49.78173" lon="4.84122">
        <ele>188</ele>
        <time>2022-09-05T10:50:09.000Z</time>
      </trkpt>
      <trkpt lat="49.7817" lon="4.84125">
        <ele>188</ele>
        <time>2022-09-05T10:50:10.000Z</time>
      </trkpt>
      <trkpt lat="49.78166" lon="4.84128">
        <ele>188</ele>
        <time>2022-09-05T10:50:11.000Z</time>
      </trkpt>
      <trkpt lat="49.78162" lon="4.84131">
        <ele>188</ele>
        <time>2022-09-05T10:50:12.000Z</time>
      </trkpt>
      <trkpt lat="49.78159" lon="4.84135">
        <ele>188</ele>
        <time>2022-09-05T10:50:13.000Z</time>
      </trkpt>
      <trkpt lat="49.78155" lon="4.84138">
        <ele>188</ele>
        <time>2022-09-05T10:50:14.000Z</time>
      </trkpt>
      <trkpt lat="49.78152" lon="4.84142">
        <ele>188</ele>
        <time>2022-09-05T10:50:15.000Z</time>
      </trkpt>
      <trkpt lat="49.78148" lon="4.84145">
        <ele>188</ele>
        <time>2022-09-05T10:50:16.000Z</time>
      </trkpt>
      <trkpt lat="49.78143" lon="4.84148">
        <ele>188</ele>
        <time>2022-09-05T10:50:17.000Z</time>
      </trkpt>
      <trkpt lat="49.78139" lon="4.84152">
        <ele>188</ele>
        <time>2022-09-05T10:50:18.000Z</time>
      </trkpt>
      <trkpt lat="49.78134" lon="4.84156">
        <ele>188</ele>
        <time>2022-09-05T10:50:19.000Z</time>
      </trkpt>
      <trkpt lat="49.7813" lon="4.84161">
        <ele>188</ele>
        <time>2022-09-05T10:50:20.000Z</time>
      </trkpt>
      <trkpt lat="49.78126" lon="4.84166">
        <ele>189</ele>
        <time>2022-09-05T10:50:21.000Z</time>
      </trkpt>
      <trkpt lat="49.78122" lon="4.84171">
        <ele>189</ele>
        <time>2022-09-05T10:50:22.000Z</time>
      </trkpt>
      <trkpt lat="49.78117" lon="4.84176">
        <ele>189</ele>
        <time>2022-09-05T10:50:23.000Z</time>
      </trkpt>
      <trkpt lat="49.78113" lon="4.8418">
        <ele>189</ele>
        <time>2022-09-05T10:50:24.000Z</time>
      </trkpt>
      <trkpt lat="49.78109" lon="4.84184">
        <ele>189</ele>
        <time>2022-09-05T10:50:25.000Z</time>
      </trkpt>
      <trkpt lat="49.78104" lon="4.84189">
        <ele>189</ele>
        <time>2022-09-05T10:50:26.000Z</time>
      </trkpt>
      <trkpt lat="49.781" lon="4.84193">
        <ele>189</ele>
        <time>2022-09-05T10:50:27.000Z</time>
      </trkpt>
      <trkpt lat="49.78095" lon="4.84196">
        <ele>189</ele>
        <time>2022-09-05T10:50:28.000Z</time>
      </trkpt>
      <trkpt lat="49.78089" lon="4.84199">
        <ele>189</ele>
        <time>2022-09-05T10:50:29.000Z</time>
      </trkpt>
      <trkpt lat="49.78083" lon="4.84201">
        <ele>189</ele>
        <time>2022-09-05T10:50:30.000Z</time>
      </trkpt>
      <trkpt lat="49.78078" lon="4.84203">
        <ele>189</ele>
        <time>2022-09-05T10:50:31.000Z</time>
      </trkpt>
      <trkpt lat="49.78072" lon="4.84203">
        <ele>189</ele>
        <time>2022-09-05T10:50:32.000Z</time>
      </trkpt>
      <trkpt lat="49.78066" lon="4.84204">
        <ele>189</ele>
        <time>2022-09-05T10:50:33.000Z</time>
      </trkpt>
      <trkpt lat="49.7806" lon="4.84205">
        <ele>189</ele>
        <time>2022-09-05T10:50:34.000Z</time>
      </trkpt>
      <trkpt lat="49.78054" lon="4.84206">
        <ele>189</ele>
        <time>2022-09-05T10:50:35.000Z</time>
      </trkpt>
      <trkpt lat="49.78048" lon="4.84206">
        <ele>189</ele>
        <time>2022-09-05T10:50:36.000Z</time>
      </trkpt>
      <trkpt lat="49.78042" lon="4.84206">
        <ele>189</ele>
        <time>2022-09-05T10:50:37.000Z</time>
      </trkpt>
      <trkpt lat="49.78036" lon="4.84206">
        <ele>189</ele>
        <time>2022-09-05T10:50:38.000Z</time>
      </trkpt>
      <trkpt lat="49.7803" lon="4.84206">
        <ele>189</ele>
        <time>2022-09-05T10:50:39.000Z</time>
      </trkpt>
      <trkpt lat="49.78025" lon="4.84206">
        <ele>189</ele>
        <time>2022-09-05T10:50:40.000Z</time>
      </trkpt>
      <trkpt lat="49.78019" lon="4.84207">
        <ele>189</ele>
        <time>2022-09-05T10:50:41.000Z</time>
      </trkpt>
      <trkpt lat="49.78013" lon="4.84207">
        <ele>189</ele>
        <time>2022-09-05T10:50:42.000Z</time>
      </trkpt>
      <trkpt lat="49.78008" lon="4.84207">
        <ele>189</ele>
        <time>2022-09-05T10:50:43.000Z</time>
      </trkpt>
      <trkpt lat="49.78002" lon="4.84206">
        <ele>189</ele>
        <time>2022-09-05T10:50:44.000Z</time>
      </trkpt>
      <trkpt lat="49.77998" lon="4.84206">
        <ele>189</ele>
        <time>2022-09-05T10:50:45.000Z</time>
      </trkpt>
      <trkpt lat="49.77993" lon="4.84206">
        <ele>189</ele>
        <time>2022-09-05T10:50:46.000Z</time>
      </trkpt>
      <trkpt lat="49.77988" lon="4.84205">
        <ele>189</ele>
        <time>2022-09-05T10:50:47.000Z</time>
      </trkpt>
      <trkpt lat="49.77982" lon="4.84204">
        <ele>189</ele>
        <time>2022-09-05T10:50:48.000Z</time>
      </trkpt>
      <trkpt lat="49.77976" lon="4.84203">
        <ele>189</ele>
        <time>2022-09-05T10:50:49.000Z</time>
      </trkpt>
      <trkpt lat="49.77971" lon="4.84203">
        <ele>189</ele>
        <time>2022-09-05T10:50:50.000Z</time>
      </trkpt>
      <trkpt lat="49.77966" lon="4.84202">
        <ele>189</ele>
        <time>2022-09-05T10:50:51.000Z</time>
      </trkpt>
      <trkpt lat="49.77961" lon="4.84201">
        <ele>189</ele>
        <time>2022-09-05T10:50:52.000Z</time>
      </trkpt>
      <trkpt lat="49.77956" lon="4.84199">
        <ele>189</ele>
        <time>2022-09-05T10:50:53.000Z</time>
      </trkpt>
      <trkpt lat="49.7795" lon="4.84196">
        <ele>189</ele>
        <time>2022-09-05T10:50:54.000Z</time>
      </trkpt>
      <trkpt lat="49.77945" lon="4.84195">
        <ele>189</ele>
        <time>2022-09-05T10:50:55.000Z</time>
      </trkpt>
      <trkpt lat="49.77939" lon="4.84195">
        <ele>189</ele>
        <time>2022-09-05T10:50:56.000Z</time>
      </trkpt>
      <trkpt lat="49.77933" lon="4.84195">
        <ele>189</ele>
        <time>2022-09-05T10:50:57.000Z</time>
      </trkpt>
      <trkpt lat="49.77927" lon="4.84194">
        <ele>189</ele>
        <time>2022-09-05T10:50:58.000Z</time>
      </trkpt>
      <trkpt lat="49.77922" lon="4.84194">
        <ele>189</ele>
        <time>2022-09-05T10:50:59.000Z</time>
      </trkpt>
      <trkpt lat="49.77916" lon="4.84193">
        <ele>189</ele>
        <time>2022-09-05T10:51:00.000Z</time>
      </trkpt>
      <trkpt lat="49.77909" lon="4.84193">
        <ele>189</ele>
        <time>2022-09-05T10:51:01.000Z</time>
      </trkpt>
      <trkpt lat="49.77904" lon="4.84192">
        <ele>189</ele>
        <time>2022-09-05T10:51:02.000Z</time>
      </trkpt>
      <trkpt lat="49.77898" lon="4.84192">
        <ele>189</ele>
        <time>2022-09-05T10:51:03.000Z</time>
      </trkpt>
      <trkpt lat="49.77892" lon="4.84191">
        <ele>189</ele>
        <time>2022-09-05T10:51:04.000Z</time>
      </trkpt>
      <trkpt lat="49.77886" lon="4.84191">
        <ele>189</ele>
        <time>2022-09-05T10:51:05.000Z</time>
      </trkpt>
      <trkpt lat="49.7788" lon="4.8419">
        <ele>189</ele>
        <time>2022-09-05T10:51:06.000Z</time>
      </trkpt>
      <trkpt lat="49.77873" lon="4.8419">
        <ele>189</ele>
        <time>2022-09-05T10:51:07.000Z</time>
      </trkpt>
      <trkpt lat="49.77867" lon="4.8419">
        <ele>189</ele>
        <time>2022-09-05T10:51:08.000Z</time>
      </trkpt>
      <trkpt lat="49.77861" lon="4.84189">
        <ele>189</ele>
        <time>2022-09-05T10:51:09.000Z</time>
      </trkpt>
      <trkpt lat="49.77855" lon="4.84188">
        <ele>189</ele>
        <time>2022-09-05T10:51:10.000Z</time>
      </trkpt>
      <trkpt lat="49.77848" lon="4.84187">
        <ele>189</ele>
        <time>2022-09-05T10:51:11.000Z</time>
      </trkpt>
      <trkpt lat="49.77842" lon="4.84186">
        <ele>189</ele>
        <time>2022-09-05T10:51:12.000Z</time>
      </trkpt>
      <trkpt lat="49.77836" lon="4.84184">
        <ele>189</ele>
        <time>2022-09-05T10:51:13.000Z</time>
      </trkpt>
      <trkpt lat="49.7783" lon="4.84183">
        <ele>190</ele>
        <time>2022-09-05T10:51:14.000Z</time>
      </trkpt>
      <trkpt lat="49.77824" lon="4.84182">
        <ele>190</ele>
        <time>2022-09-05T10:51:15.000Z</time>
      </trkpt>
      <trkpt lat="49.77818" lon="4.84181">
        <ele>190</ele>
        <time>2022-09-05T10:51:16.000Z</time>
      </trkpt>
      <trkpt lat="49.77812" lon="4.8418">
        <ele>190</ele>
        <time>2022-09-05T10:51:17.000Z</time>
      </trkpt>
      <trkpt lat="49.77806" lon="4.84179">
        <ele>190</ele>
        <time>2022-09-05T10:51:18.000Z</time>
      </trkpt>
      <trkpt lat="49.778" lon="4.84179">
        <ele>190</ele>
        <time>2022-09-05T10:51:19.000Z</time>
      </trkpt>
      <trkpt lat="49.77794" lon="4.84177">
        <ele>190</ele>
        <time>2022-09-05T10:51:20.000Z</time>
      </trkpt>
      <trkpt lat="49.77789" lon="4.84177">
        <ele>191</ele>
        <time>2022-09-05T10:51:21.000Z</time>
      </trkpt>
      <trkpt lat="49.77783" lon="4.84176">
        <ele>191</ele>
        <time>2022-09-05T10:51:22.000Z</time>
      </trkpt>
      <trkpt lat="49.77777" lon="4.84176">
        <ele>191</ele>
        <time>2022-09-05T10:51:23.000Z</time>
      </trkpt>
      <trkpt lat="49.77771" lon="4.84175">
        <ele>191</ele>
        <time>2022-09-05T10:51:24.000Z</time>
      </trkpt>
      <trkpt lat="49.77765" lon="4.84174">
        <ele>191</ele>
        <time>2022-09-05T10:51:25.000Z</time>
      </trkpt>
      <trkpt lat="49.7776" lon="4.84173">
        <ele>191</ele>
        <time>2022-09-05T10:51:26.000Z</time>
      </trkpt>
      <trkpt lat="49.77754" lon="4.84172">
        <ele>191</ele>
        <time>2022-09-05T10:51:27.000Z</time>
      </trkpt>
      <trkpt lat="49.77749" lon="4.8417">
        <ele>191</ele>
        <time>2022-09-05T10:51:28.000Z</time>
      </trkpt>
      <trkpt lat="49.77743" lon="4.84168">
        <ele>191</ele>
        <time>2022-09-05T10:51:29.000Z</time>
      </trkpt>
      <trkpt lat="49.77737" lon="4.84166">
        <ele>191</ele>
        <time>2022-09-05T10:51:30.000Z</time>
      </trkpt>
      <trkpt lat="49.77732" lon="4.84164">
        <ele>191</ele>
        <time>2022-09-05T10:51:31.000Z</time>
      </trkpt>
      <trkpt lat="49.77726" lon="4.84163">
        <ele>191</ele>
        <time>2022-09-05T10:51:32.000Z</time>
      </trkpt>
      <trkpt lat="49.77721" lon="4.84161">
        <ele>191</ele>
        <time>2022-09-05T10:51:33.000Z</time>
      </trkpt>
      <trkpt lat="49.77715" lon="4.8416">
        <ele>191</ele>
        <time>2022-09-05T10:51:34.000Z</time>
      </trkpt>
      <trkpt lat="49.77709" lon="4.84159">
        <ele>191</ele>
        <time>2022-09-05T10:51:35.000Z</time>
      </trkpt>
      <trkpt lat="49.77704" lon="4.84158">
        <ele>191</ele>
        <time>2022-09-05T10:51:36.000Z</time>
      </trkpt>
      <trkpt lat="49.77699" lon="4.84156">
        <ele>191</ele>
        <time>2022-09-05T10:51:37.000Z</time>
      </trkpt>
      <trkpt lat="49.77694" lon="4.84155">
        <ele>191</ele>
        <time>2022-09-05T10:51:38.000Z</time>
      </trkpt>
      <trkpt lat="49.77689" lon="4.84155">
        <ele>191</ele>
        <time>2022-09-05T10:51:39.000Z</time>
      </trkpt>
      <trkpt lat="49.77684" lon="4.84154">
        <ele>191</ele>
        <time>2022-09-05T10:51:40.000Z</time>
      </trkpt>
      <trkpt lat="49.7768" lon="4.84153">
        <ele>191</ele>
        <time>2022-09-05T10:51:41.000Z</time>
      </trkpt>
      <trkpt lat="49.77675" lon="4.84151">
        <ele>191</ele>
        <time>2022-09-05T10:51:42.000Z</time>
      </trkpt>
      <trkpt lat="49.77671" lon="4.84149">
        <ele>191</ele>
        <time>2022-09-05T10:51:43.000Z</time>
      </trkpt>
      <trkpt lat="49.77667" lon="4.84148">
        <ele>191</ele>
        <time>2022-09-05T10:51:44.000Z</time>
      </trkpt>
      <trkpt lat="49.77663" lon="4.84147">
        <ele>191</ele>
        <time>2022-09-05T10:51:45.000Z</time>
      </trkpt>
      <trkpt lat="49.77658" lon="4.84146">
        <ele>191</ele>
        <time>2022-09-05T10:51:46.000Z</time>
      </trkpt>
      <trkpt lat="49.77654" lon="4.84145">
        <ele>191</ele>
        <time>2022-09-05T10:51:47.000Z</time>
      </trkpt>
      <trkpt lat="49.77649" lon="4.84144">
        <ele>191</ele>
        <time>2022-09-05T10:51:48.000Z</time>
      </trkpt>
      <trkpt lat="49.77644" lon="4.84143">
        <ele>191</ele>
        <time>2022-09-05T10:51:49.000Z</time>
      </trkpt>
      <trkpt lat="49.7764" lon="4.84142">
        <ele>191</ele>
        <time>2022-09-05T10:51:50.000Z</time>
      </trkpt>
      <trkpt lat="49.77636" lon="4.84141">
        <ele>191</ele>
        <time>2022-09-05T10:51:51.000Z</time>
      </trkpt>
      <trkpt lat="49.77631" lon="4.8414">
        <ele>191</ele>
        <time>2022-09-05T10:51:52.000Z</time>
      </trkpt>
      <trkpt lat="49.77626" lon="4.84139">
        <ele>192</ele>
        <time>2022-09-05T10:51:53.000Z</time>
      </trkpt>
      <trkpt lat="49.77622" lon="4.84138">
        <ele>192</ele>
        <time>2022-09-05T10:51:54.000Z</time>
      </trkpt>
      <trkpt lat="49.77617" lon="4.84138">
        <ele>192</ele>
        <time>2022-09-05T10:51:55.000Z</time>
      </trkpt>
      <trkpt lat="49.77613" lon="4.84137">
        <ele>192</ele>
        <time>2022-09-05T10:51:56.000Z</time>
      </trkpt>
      <trkpt lat="49.77609" lon="4.84136">
        <ele>192</ele>
        <time>2022-09-05T10:51:57.000Z</time>
      </trkpt>
      <trkpt lat="49.77605" lon="4.84136">
        <ele>192</ele>
        <time>2022-09-05T10:51:58.000Z</time>
      </trkpt>
      <trkpt lat="49.776" lon="4.84136">
        <ele>192</ele>
        <time>2022-09-05T10:51:59.000Z</time>
      </trkpt>
      <trkpt lat="49.77596" lon="4.84135">
        <ele>192</ele>
        <time>2022-09-05T10:52:00.000Z</time>
      </trkpt>
      <trkpt lat="49.77591" lon="4.84134">
        <ele>192</ele>
        <time>2022-09-05T10:52:01.000Z</time>
      </trkpt>
      <trkpt lat="49.77586" lon="4.84133">
        <ele>193</ele>
        <time>2022-09-05T10:52:02.000Z</time>
      </trkpt>
      <trkpt lat="49.77581" lon="4.84132">
        <ele>193</ele>
        <time>2022-09-05T10:52:03.000Z</time>
      </trkpt>
      <trkpt lat="49.77576" lon="4.84131">
        <ele>193</ele>
        <time>2022-09-05T10:52:04.000Z</time>
      </trkpt>
      <trkpt lat="49.77571" lon="4.8413">
        <ele>193</ele>
        <time>2022-09-05T10:52:05.000Z</time>
      </trkpt>
      <trkpt lat="49.77566" lon="4.84129">
        <ele>193</ele>
        <time>2022-09-05T10:52:06.000Z</time>
      </trkpt>
      <trkpt lat="49.77561" lon="4.84128">
        <ele>193</ele>
        <time>2022-09-05T10:52:07.000Z</time>
      </trkpt>
      <trkpt lat="49.77557" lon="4.84127">
        <ele>193</ele>
        <time>2022-09-05T10:52:08.000Z</time>
      </trkpt>
      <trkpt lat="49.77552" lon="4.84126">
        <ele>193</ele>
        <time>2022-09-05T10:52:09.000Z</time>
      </trkpt>
      <trkpt lat="49.77547" lon="4.84125">
        <ele>193</ele>
        <time>2022-09-05T10:52:10.000Z</time>
      </trkpt>
      <trkpt lat="49.77542" lon="4.84123">
        <ele>193</ele>
        <time>2022-09-05T10:52:11.000Z</time>
      </trkpt>
      <trkpt lat="49.77537" lon="4.84122">
        <ele>193</ele>
        <time>2022-09-05T10:52:12.000Z</time>
      </trkpt>
      <trkpt lat="49.77532" lon="4.84121">
        <ele>193</ele>
        <time>2022-09-05T10:52:13.000Z</time>
      </trkpt>
      <trkpt lat="49.77527" lon="4.84119">
        <ele>193</ele>
        <time>2022-09-05T10:52:14.000Z</time>
      </trkpt>
      <trkpt lat="49.77521" lon="4.84117">
        <ele>193</ele>
        <time>2022-09-05T10:52:15.000Z</time>
      </trkpt>
      <trkpt lat="49.77516" lon="4.84115">
        <ele>193</ele>
        <time>2022-09-05T10:52:16.000Z</time>
      </trkpt>
      <trkpt lat="49.77511" lon="4.84114">
        <ele>193</ele>
        <time>2022-09-05T10:52:17.000Z</time>
      </trkpt>
      <trkpt lat="49.77506" lon="4.84112">
        <ele>193</ele>
        <time>2022-09-05T10:52:18.000Z</time>
      </trkpt>
      <trkpt lat="49.77501" lon="4.8411">
        <ele>193</ele>
        <time>2022-09-05T10:52:19.000Z</time>
      </trkpt>
      <trkpt lat="49.77495" lon="4.84108">
        <ele>193</ele>
        <time>2022-09-05T10:52:20.000Z</time>
      </trkpt>
      <trkpt lat="49.7749" lon="4.84107">
        <ele>193</ele>
        <time>2022-09-05T10:52:21.000Z</time>
      </trkpt>
      <trkpt lat="49.77485" lon="4.84106">
        <ele>193</ele>
        <time>2022-09-05T10:52:22.000Z</time>
      </trkpt>
      <trkpt lat="49.7748" lon="4.84105">
        <ele>193</ele>
        <time>2022-09-05T10:52:23.000Z</time>
      </trkpt>
      <trkpt lat="49.77475" lon="4.84105">
        <ele>194</ele>
        <time>2022-09-05T10:52:24.000Z</time>
      </trkpt>
      <trkpt lat="49.77469" lon="4.84104">
        <ele>194</ele>
        <time>2022-09-05T10:52:25.000Z</time>
      </trkpt>
      <trkpt lat="49.77464" lon="4.84104">
        <ele>194</ele>
        <time>2022-09-05T10:52:26.000Z</time>
      </trkpt>
      <trkpt lat="49.77459" lon="4.84105">
        <ele>194</ele>
        <time>2022-09-05T10:52:27.000Z</time>
      </trkpt>
      <trkpt lat="49.77453" lon="4.84105">
        <ele>194</ele>
        <time>2022-09-05T10:52:28.000Z</time>
      </trkpt>
      <trkpt lat="49.77448" lon="4.84105">
        <ele>194</ele>
        <time>2022-09-05T10:52:29.000Z</time>
      </trkpt>
      <trkpt lat="49.77442" lon="4.84105">
        <ele>194</ele>
        <time>2022-09-05T10:52:30.000Z</time>
      </trkpt>
      <trkpt lat="49.77437" lon="4.84106">
        <ele>194</ele>
        <time>2022-09-05T10:52:31.000Z</time>
      </trkpt>
      <trkpt lat="49.77431" lon="4.84105">
        <ele>194</ele>
        <time>2022-09-05T10:52:32.000Z</time>
      </trkpt>
      <trkpt lat="49.77425" lon="4.84104">
        <ele>194</ele>
        <time>2022-09-05T10:52:33.000Z</time>
      </trkpt>
      <trkpt lat="49.7742" lon="4.84104">
        <ele>195</ele>
        <time>2022-09-05T10:52:34.000Z</time>
      </trkpt>
      <trkpt lat="49.77414" lon="4.84103">
        <ele>195</ele>
        <time>2022-09-05T10:52:35.000Z</time>
      </trkpt>
      <trkpt lat="49.77409" lon="4.84103">
        <ele>195</ele>
        <time>2022-09-05T10:52:36.000Z</time>
      </trkpt>
      <trkpt lat="49.77403" lon="4.84102">
        <ele>195</ele>
        <time>2022-09-05T10:52:37.000Z</time>
      </trkpt>
      <trkpt lat="49.77398" lon="4.84103">
        <ele>195</ele>
        <time>2022-09-05T10:52:38.000Z</time>
      </trkpt>
      <trkpt lat="49.77392" lon="4.84102">
        <ele>195</ele>
        <time>2022-09-05T10:52:39.000Z</time>
      </trkpt>
      <trkpt lat="49.77386" lon="4.84102">
        <ele>195</ele>
        <time>2022-09-05T10:52:40.000Z</time>
      </trkpt>
      <trkpt lat="49.7738" lon="4.84101">
        <ele>195</ele>
        <time>2022-09-05T10:52:41.000Z</time>
      </trkpt>
      <trkpt lat="49.77374" lon="4.841">
        <ele>195</ele>
        <time>2022-09-05T10:52:42.000Z</time>
      </trkpt>
      <trkpt lat="49.77367" lon="4.84099">
        <ele>195</ele>
        <time>2022-09-05T10:52:43.000Z</time>
      </trkpt>
      <trkpt lat="49.77361" lon="4.84099">
        <ele>195</ele>
        <time>2022-09-05T10:52:44.000Z</time>
      </trkpt>
      <trkpt lat="49.77355" lon="4.84097">
        <ele>195</ele>
        <time>2022-09-05T10:52:45.000Z</time>
      </trkpt>
      <trkpt lat="49.77348" lon="4.84095">
        <ele>195</ele>
        <time>2022-09-05T10:52:46.000Z</time>
      </trkpt>
      <trkpt lat="49.77341" lon="4.84093">
        <ele>195</ele>
        <time>2022-09-05T10:52:47.000Z</time>
      </trkpt>
      <trkpt lat="49.77334" lon="4.84092">
        <ele>194</ele>
        <time>2022-09-05T10:52:48.000Z</time>
      </trkpt>
      <trkpt lat="49.77328" lon="4.8409">
        <ele>194</ele>
        <time>2022-09-05T10:52:49.000Z</time>
      </trkpt>
      <trkpt lat="49.77321" lon="4.84089">
        <ele>194</ele>
        <time>2022-09-05T10:52:50.000Z</time>
      </trkpt>
      <trkpt lat="49.77314" lon="4.84087">
        <ele>194</ele>
        <time>2022-09-05T10:52:51.000Z</time>
      </trkpt>
      <trkpt lat="49.77308" lon="4.84085">
        <ele>194</ele>
        <time>2022-09-05T10:52:52.000Z</time>
      </trkpt>
      <trkpt lat="49.77302" lon="4.84083">
        <ele>194</ele>
        <time>2022-09-05T10:52:53.000Z</time>
      </trkpt>
      <trkpt lat="49.77296" lon="4.84081">
        <ele>194</ele>
        <time>2022-09-05T10:52:54.000Z</time>
      </trkpt>
      <trkpt lat="49.7729" lon="4.8408">
        <ele>194</ele>
        <time>2022-09-05T10:52:55.000Z</time>
      </trkpt>
      <trkpt lat="49.77284" lon="4.84079">
        <ele>194</ele>
        <time>2022-09-05T10:52:56.000Z</time>
      </trkpt>
      <trkpt lat="49.77279" lon="4.84079">
        <ele>194</ele>
        <time>2022-09-05T10:52:57.000Z</time>
      </trkpt>
      <trkpt lat="49.77273" lon="4.84078">
        <ele>194</ele>
        <time>2022-09-05T10:52:58.000Z</time>
      </trkpt>
      <trkpt lat="49.77268" lon="4.84078">
        <ele>194</ele>
        <time>2022-09-05T10:52:59.000Z</time>
      </trkpt>
      <trkpt lat="49.77262" lon="4.84076">
        <ele>194</ele>
        <time>2022-09-05T10:53:00.000Z</time>
      </trkpt>
      <trkpt lat="49.77256" lon="4.84074">
        <ele>194</ele>
        <time>2022-09-05T10:53:01.000Z</time>
      </trkpt>
      <trkpt lat="49.7725" lon="4.84072">
        <ele>194</ele>
        <time>2022-09-05T10:53:02.000Z</time>
      </trkpt>
      <trkpt lat="49.77244" lon="4.84069">
        <ele>194</ele>
        <time>2022-09-05T10:53:03.000Z</time>
      </trkpt>
      <trkpt lat="49.77238" lon="4.84068">
        <ele>194</ele>
        <time>2022-09-05T10:53:04.000Z</time>
      </trkpt>
      <trkpt lat="49.77232" lon="4.84065">
        <ele>194</ele>
        <time>2022-09-05T10:53:05.000Z</time>
      </trkpt>
      <trkpt lat="49.77226" lon="4.84063">
        <ele>193</ele>
        <time>2022-09-05T10:53:06.000Z</time>
      </trkpt>
      <trkpt lat="49.7722" lon="4.84062">
        <ele>193</ele>
        <time>2022-09-05T10:53:07.000Z</time>
      </trkpt>
      <trkpt lat="49.77214" lon="4.8406">
        <ele>193</ele>
        <time>2022-09-05T10:53:08.000Z</time>
      </trkpt>
      <trkpt lat="49.77207" lon="4.84058">
        <ele>193</ele>
        <time>2022-09-05T10:53:09.000Z</time>
      </trkpt>
      <trkpt lat="49.77201" lon="4.84056">
        <ele>193</ele>
        <time>2022-09-05T10:53:10.000Z</time>
      </trkpt>
      <trkpt lat="49.77194" lon="4.84055">
        <ele>193</ele>
        <time>2022-09-05T10:53:11.000Z</time>
      </trkpt>
      <trkpt lat="49.77188" lon="4.84052">
        <ele>193</ele>
        <time>2022-09-05T10:53:12.000Z</time>
      </trkpt>
      <trkpt lat="49.77181" lon="4.84049">
        <ele>193</ele>
        <time>2022-09-05T10:53:13.000Z</time>
      </trkpt>
      <trkpt lat="49.77175" lon="4.84048">
        <ele>193</ele>
        <time>2022-09-05T10:53:14.000Z</time>
      </trkpt>
      <trkpt lat="49.77168" lon="4.84045">
        <ele>193</ele>
        <time>2022-09-05T10:53:15.000Z</time>
      </trkpt>
      <trkpt lat="49.77161" lon="4.84043">
        <ele>193</ele>
        <time>2022-09-05T10:53:16.000Z</time>
      </trkpt>
      <trkpt lat="49.77155" lon="4.8404">
        <ele>193</ele>
        <time>2022-09-05T10:53:17.000Z</time>
      </trkpt>
      <trkpt lat="49.77148" lon="4.84038">
        <ele>193</ele>
        <time>2022-09-05T10:53:18.000Z</time>
      </trkpt>
      <trkpt lat="49.77142" lon="4.84036">
        <ele>192</ele>
        <time>2022-09-05T10:53:19.000Z</time>
      </trkpt>
      <trkpt lat="49.77135" lon="4.84034">
        <ele>192</ele>
        <time>2022-09-05T10:53:20.000Z</time>
      </trkpt>
      <trkpt lat="49.77128" lon="4.84032">
        <ele>192</ele>
        <time>2022-09-05T10:53:21.000Z</time>
      </trkpt>
      <trkpt lat="49.77122" lon="4.8403">
        <ele>192</ele>
        <time>2022-09-05T10:53:22.000Z</time>
      </trkpt>
      <trkpt lat="49.77115" lon="4.84027">
        <ele>192</ele>
        <time>2022-09-05T10:53:23.000Z</time>
      </trkpt>
      <trkpt lat="49.77109" lon="4.84025">
        <ele>192</ele>
        <time>2022-09-05T10:53:24.000Z</time>
      </trkpt>
      <trkpt lat="49.77102" lon="4.84023">
        <ele>191</ele>
        <time>2022-09-05T10:53:25.000Z</time>
      </trkpt>
      <trkpt lat="49.77096" lon="4.84021">
        <ele>191</ele>
        <time>2022-09-05T10:53:26.000Z</time>
      </trkpt>
      <trkpt lat="49.77089" lon="4.84019">
        <ele>191</ele>
        <time>2022-09-05T10:53:27.000Z</time>
      </trkpt>
      <trkpt lat="49.77083" lon="4.84016">
        <ele>191</ele>
        <time>2022-09-05T10:53:28.000Z</time>
      </trkpt>
      <trkpt lat="49.77077" lon="4.84014">
        <ele>190</ele>
        <time>2022-09-05T10:53:29.000Z</time>
      </trkpt>
      <trkpt lat="49.77071" lon="4.84013">
        <ele>190</ele>
        <time>2022-09-05T10:53:30.000Z</time>
      </trkpt>
      <trkpt lat="49.77066" lon="4.84012">
        <ele>190</ele>
        <time>2022-09-05T10:53:31.000Z</time>
      </trkpt>
      <trkpt lat="49.77061" lon="4.8401">
        <ele>190</ele>
        <time>2022-09-05T10:53:32.000Z</time>
      </trkpt>
      <trkpt lat="49.77056" lon="4.84007">
        <ele>189</ele>
        <time>2022-09-05T10:53:33.000Z</time>
      </trkpt>
      <trkpt lat="49.7705" lon="4.84004">
        <ele>189</ele>
        <time>2022-09-05T10:53:34.000Z</time>
      </trkpt>
      <trkpt lat="49.77045" lon="4.84001">
        <ele>189</ele>
        <time>2022-09-05T10:53:35.000Z</time>
      </trkpt>
      <trkpt lat="49.7704" lon="4.83999">
        <ele>189</ele>
        <time>2022-09-05T10:53:36.000Z</time>
      </trkpt>
      <trkpt lat="49.77034" lon="4.83996">
        <ele>189</ele>
        <time>2022-09-05T10:53:37.000Z</time>
      </trkpt>
      <trkpt lat="49.77028" lon="4.83992">
        <ele>188</ele>
        <time>2022-09-05T10:53:38.000Z</time>
      </trkpt>
      <trkpt lat="49.77022" lon="4.83989">
        <ele>188</ele>
        <time>2022-09-05T10:53:39.000Z</time>
      </trkpt>
      <trkpt lat="49.77017" lon="4.83985">
        <ele>188</ele>
        <time>2022-09-05T10:53:40.000Z</time>
      </trkpt>
      <trkpt lat="49.77011" lon="4.83981">
        <ele>188</ele>
        <time>2022-09-05T10:53:41.000Z</time>
      </trkpt>
      <trkpt lat="49.77005" lon="4.83976">
        <ele>188</ele>
        <time>2022-09-05T10:53:42.000Z</time>
      </trkpt>
      <trkpt lat="49.76999" lon="4.83973">
        <ele>188</ele>
        <time>2022-09-05T10:53:43.000Z</time>
      </trkpt>
      <trkpt lat="49.76993" lon="4.83969">
        <ele>187</ele>
        <time>2022-09-05T10:53:44.000Z</time>
      </trkpt>
      <trkpt lat="49.76987" lon="4.83965">
        <ele>187</ele>
        <time>2022-09-05T10:53:45.000Z</time>
      </trkpt>
      <trkpt lat="49.76981" lon="4.83961">
        <ele>187</ele>
        <time>2022-09-05T10:53:46.000Z</time>
      </trkpt>
      <trkpt lat="49.76975" lon="4.83958">
        <ele>187</ele>
        <time>2022-09-05T10:53:47.000Z</time>
      </trkpt>
      <trkpt lat="49.76969" lon="4.83954">
        <ele>186</ele>
        <time>2022-09-05T10:53:48.000Z</time>
      </trkpt>
      <trkpt lat="49.76963" lon="4.83951">
        <ele>186</ele>
        <time>2022-09-05T10:53:49.000Z</time>
      </trkpt>
      <trkpt lat="49.76957" lon="4.83949">
        <ele>186</ele>
        <time>2022-09-05T10:53:50.000Z</time>
      </trkpt>
      <trkpt lat="49.76951" lon="4.83947">
        <ele>186</ele>
        <time>2022-09-05T10:53:51.000Z</time>
      </trkpt>
      <trkpt lat="49.76945" lon="4.83946">
        <ele>186</ele>
        <time>2022-09-05T10:53:52.000Z</time>
      </trkpt>
      <trkpt lat="49.7694" lon="4.83945">
        <ele>186</ele>
        <time>2022-09-05T10:53:53.000Z</time>
      </trkpt>
      <trkpt lat="49.76934" lon="4.83945">
        <ele>185</ele>
        <time>2022-09-05T10:53:54.000Z</time>
      </trkpt>
      <trkpt lat="49.76927" lon="4.83944">
        <ele>185</ele>
        <time>2022-09-05T10:53:55.000Z</time>
      </trkpt>
      <trkpt lat="49.76922" lon="4.83943">
        <ele>185</ele>
        <time>2022-09-05T10:53:56.000Z</time>
      </trkpt>
      <trkpt lat="49.76915" lon="4.83942">
        <ele>185</ele>
        <time>2022-09-05T10:53:57.000Z</time>
      </trkpt>
      <trkpt lat="49.76909" lon="4.83941">
        <ele>185</ele>
        <time>2022-09-05T10:53:58.000Z</time>
      </trkpt>
      <trkpt lat="49.76903" lon="4.8394">
        <ele>185</ele>
        <time>2022-09-05T10:53:59.000Z</time>
      </trkpt>
      <trkpt lat="49.76897" lon="4.83939">
        <ele>185</ele>
        <time>2022-09-05T10:54:00.000Z</time>
      </trkpt>
      <trkpt lat="49.76891" lon="4.83939">
        <ele>185</ele>
        <time>2022-09-05T10:54:01.000Z</time>
      </trkpt>
      <trkpt lat="49.76885" lon="4.83938">
        <ele>185</ele>
        <time>2022-09-05T10:54:02.000Z</time>
      </trkpt>
      <trkpt lat="49.76878" lon="4.83938">
        <ele>185</ele>
        <time>2022-09-05T10:54:03.000Z</time>
      </trkpt>
      <trkpt lat="49.76872" lon="4.83938">
        <ele>185</ele>
        <time>2022-09-05T10:54:04.000Z</time>
      </trkpt>
      <trkpt lat="49.76865" lon="4.83939">
        <ele>185</ele>
        <time>2022-09-05T10:54:05.000Z</time>
      </trkpt>
      <trkpt lat="49.76859" lon="4.83938">
        <ele>185</ele>
        <time>2022-09-05T10:54:06.000Z</time>
      </trkpt>
      <trkpt lat="49.76852" lon="4.83938">
        <ele>185</ele>
        <time>2022-09-05T10:54:07.000Z</time>
      </trkpt>
      <trkpt lat="49.76846" lon="4.83938">
        <ele>185</ele>
        <time>2022-09-05T10:54:08.000Z</time>
      </trkpt>
      <trkpt lat="49.7684" lon="4.83937">
        <ele>185</ele>
        <time>2022-09-05T10:54:09.000Z</time>
      </trkpt>
      <trkpt lat="49.76833" lon="4.83936">
        <ele>185</ele>
        <time>2022-09-05T10:54:10.000Z</time>
      </trkpt>
      <trkpt lat="49.76827" lon="4.83936">
        <ele>185</ele>
        <time>2022-09-05T10:54:11.000Z</time>
      </trkpt>
      <trkpt lat="49.76822" lon="4.83935">
        <ele>185</ele>
        <time>2022-09-05T10:54:12.000Z</time>
      </trkpt>
      <trkpt lat="49.76816" lon="4.83935">
        <ele>185</ele>
        <time>2022-09-05T10:54:13.000Z</time>
      </trkpt>
      <trkpt lat="49.7681" lon="4.83935">
        <ele>185</ele>
        <time>2022-09-05T10:54:14.000Z</time>
      </trkpt>
      <trkpt lat="49.76804" lon="4.83936">
        <ele>185</ele>
        <time>2022-09-05T10:54:15.000Z</time>
      </trkpt>
      <trkpt lat="49.76798" lon="4.83935">
        <ele>185</ele>
        <time>2022-09-05T10:54:16.000Z</time>
      </trkpt>
      <trkpt lat="49.76792" lon="4.83934">
        <ele>185</ele>
        <time>2022-09-05T10:54:17.000Z</time>
      </trkpt>
      <trkpt lat="49.76785" lon="4.83934">
        <ele>185</ele>
        <time>2022-09-05T10:54:18.000Z</time>
      </trkpt>
      <trkpt lat="49.76778" lon="4.83934">
        <ele>184</ele>
        <time>2022-09-05T10:54:19.000Z</time>
      </trkpt>
      <trkpt lat="49.76771" lon="4.83933">
        <ele>184</ele>
        <time>2022-09-05T10:54:20.000Z</time>
      </trkpt>
      <trkpt lat="49.76764" lon="4.83933">
        <ele>184</ele>
        <time>2022-09-05T10:54:21.000Z</time>
      </trkpt>
      <trkpt lat="49.76757" lon="4.83932">
        <ele>184</ele>
        <time>2022-09-05T10:54:22.000Z</time>
      </trkpt>
      <trkpt lat="49.7675" lon="4.83932">
        <ele>184</ele>
        <time>2022-09-05T10:54:23.000Z</time>
      </trkpt>
      <trkpt lat="49.76743" lon="4.83931">
        <ele>184</ele>
        <time>2022-09-05T10:54:24.000Z</time>
      </trkpt>
      <trkpt lat="49.76736" lon="4.83932">
        <ele>184</ele>
        <time>2022-09-05T10:54:25.000Z</time>
      </trkpt>
      <trkpt lat="49.76729" lon="4.83933">
        <ele>184</ele>
        <time>2022-09-05T10:54:26.000Z</time>
      </trkpt>
      <trkpt lat="49.76723" lon="4.83934">
        <ele>184</ele>
        <time>2022-09-05T10:54:27.000Z</time>
      </trkpt>
      <trkpt lat="49.76716" lon="4.83936">
        <ele>184</ele>
        <time>2022-09-05T10:54:28.000Z</time>
      </trkpt>
      <trkpt lat="49.7671" lon="4.83938">
        <ele>185</ele>
        <time>2022-09-05T10:54:29.000Z</time>
      </trkpt>
      <trkpt lat="49.76704" lon="4.83939">
        <ele>185</ele>
        <time>2022-09-05T10:54:30.000Z</time>
      </trkpt>
      <trkpt lat="49.76698" lon="4.83941">
        <ele>185</ele>
        <time>2022-09-05T10:54:31.000Z</time>
      </trkpt>
      <trkpt lat="49.76692" lon="4.83944">
        <ele>185</ele>
        <time>2022-09-05T10:54:32.000Z</time>
      </trkpt>
      <trkpt lat="49.76686" lon="4.83947">
        <ele>185</ele>
        <time>2022-09-05T10:54:33.000Z</time>
      </trkpt>
      <trkpt lat="49.76679" lon="4.8395">
        <ele>185</ele>
        <time>2022-09-05T10:54:34.000Z</time>
      </trkpt>
      <trkpt lat="49.76673" lon="4.83953">
        <ele>185</ele>
        <time>2022-09-05T10:54:35.000Z</time>
      </trkpt>
      <trkpt lat="49.76667" lon="4.83955">
        <ele>185</ele>
        <time>2022-09-05T10:54:36.000Z</time>
      </trkpt>
      <trkpt lat="49.76661" lon="4.83958">
        <ele>185</ele>
        <time>2022-09-05T10:54:37.000Z</time>
      </trkpt>
      <trkpt lat="49.76655" lon="4.83962">
        <ele>185</ele>
        <time>2022-09-05T10:54:38.000Z</time>
      </trkpt>
      <trkpt lat="49.76649" lon="4.83965">
        <ele>185</ele>
        <time>2022-09-05T10:54:39.000Z</time>
      </trkpt>
      <trkpt lat="49.76642" lon="4.83968">
        <ele>185</ele>
        <time>2022-09-05T10:54:40.000Z</time>
      </trkpt>
      <trkpt lat="49.76636" lon="4.83971">
        <ele>185</ele>
        <time>2022-09-05T10:54:41.000Z</time>
      </trkpt>
      <trkpt lat="49.76629" lon="4.83974">
        <ele>184</ele>
        <time>2022-09-05T10:54:42.000Z</time>
      </trkpt>
      <trkpt lat="49.76623" lon="4.83977">
        <ele>184</ele>
        <time>2022-09-05T10:54:43.000Z</time>
      </trkpt>
      <trkpt lat="49.76616" lon="4.83979">
        <ele>184</ele>
        <time>2022-09-05T10:54:44.000Z</time>
      </trkpt>
      <trkpt lat="49.76609" lon="4.8398">
        <ele>184</ele>
        <time>2022-09-05T10:54:45.000Z</time>
      </trkpt>
      <trkpt lat="49.76603" lon="4.83982">
        <ele>184</ele>
        <time>2022-09-05T10:54:46.000Z</time>
      </trkpt>
      <trkpt lat="49.76596" lon="4.83984">
        <ele>184</ele>
        <time>2022-09-05T10:54:47.000Z</time>
      </trkpt>
      <trkpt lat="49.76589" lon="4.83985">
        <ele>184</ele>
        <time>2022-09-05T10:54:48.000Z</time>
      </trkpt>
      <trkpt lat="49.76582" lon="4.83986">
        <ele>184</ele>
        <time>2022-09-05T10:54:49.000Z</time>
      </trkpt>
      <trkpt lat="49.76576" lon="4.83986">
        <ele>184</ele>
        <time>2022-09-05T10:54:50.000Z</time>
      </trkpt>
      <trkpt lat="49.7657" lon="4.83986">
        <ele>183</ele>
        <time>2022-09-05T10:54:51.000Z</time>
      </trkpt>
      <trkpt lat="49.76564" lon="4.83986">
        <ele>183</ele>
        <time>2022-09-05T10:54:52.000Z</time>
      </trkpt>
      <trkpt lat="49.76558" lon="4.83986">
        <ele>183</ele>
        <time>2022-09-05T10:54:53.000Z</time>
      </trkpt>
      <trkpt lat="49.76553" lon="4.83987">
        <ele>183</ele>
        <time>2022-09-05T10:54:54.000Z</time>
      </trkpt>
      <trkpt lat="49.76547" lon="4.83987">
        <ele>183</ele>
        <time>2022-09-05T10:54:55.000Z</time>
      </trkpt>
      <trkpt lat="49.76541" lon="4.83987">
        <ele>183</ele>
        <time>2022-09-05T10:54:56.000Z</time>
      </trkpt>
      <trkpt lat="49.76535" lon="4.83987">
        <ele>183</ele>
        <time>2022-09-05T10:54:57.000Z</time>
      </trkpt>
      <trkpt lat="49.7653" lon="4.83986">
        <ele>183</ele>
        <time>2022-09-05T10:54:58.000Z</time>
      </trkpt>
      <trkpt lat="49.76524" lon="4.83986">
        <ele>183</ele>
        <time>2022-09-05T10:54:59.000Z</time>
      </trkpt>
      <trkpt lat="49.76518" lon="4.83985">
        <ele>183</ele>
        <time>2022-09-05T10:55:00.000Z</time>
      </trkpt>
      <trkpt lat="49.76512" lon="4.83985">
        <ele>183</ele>
        <time>2022-09-05T10:55:01.000Z</time>
      </trkpt>
      <trkpt lat="49.76506" lon="4.83985">
        <ele>183</ele>
        <time>2022-09-05T10:55:02.000Z</time>
      </trkpt>
      <trkpt lat="49.765" lon="4.83985">
        <ele>182</ele>
        <time>2022-09-05T10:55:03.000Z</time>
      </trkpt>
      <trkpt lat="49.76494" lon="4.83984">
        <ele>182</ele>
        <time>2022-09-05T10:55:04.000Z</time>
      </trkpt>
      <trkpt lat="49.76488" lon="4.83983">
        <ele>182</ele>
        <time>2022-09-05T10:55:05.000Z</time>
      </trkpt>
      <trkpt lat="49.76482" lon="4.83983">
        <ele>182</ele>
        <time>2022-09-05T10:55:06.000Z</time>
      </trkpt>
      <trkpt lat="49.76477" lon="4.83984">
        <ele>182</ele>
        <time>2022-09-05T10:55:07.000Z</time>
      </trkpt>
      <trkpt lat="49.76471" lon="4.83983">
        <ele>182</ele>
        <time>2022-09-05T10:55:08.000Z</time>
      </trkpt>
      <trkpt lat="49.76465" lon="4.83982">
        <ele>182</ele>
        <time>2022-09-05T10:55:09.000Z</time>
      </trkpt>
      <trkpt lat="49.76459" lon="4.83981">
        <ele>182</ele>
        <time>2022-09-05T10:55:10.000Z</time>
      </trkpt>
      <trkpt lat="49.76453" lon="4.83981">
        <ele>181</ele>
        <time>2022-09-05T10:55:11.000Z</time>
      </trkpt>
      <trkpt lat="49.76447" lon="4.8398">
        <ele>181</ele>
        <time>2022-09-05T10:55:12.000Z</time>
      </trkpt>
      <trkpt lat="49.76441" lon="4.8398">
        <ele>181</ele>
        <time>2022-09-05T10:55:13.000Z</time>
      </trkpt>
      <trkpt lat="49.76435" lon="4.83979">
        <ele>181</ele>
        <time>2022-09-05T10:55:14.000Z</time>
      </trkpt>
      <trkpt lat="49.76428" lon="4.83978">
        <ele>181</ele>
        <time>2022-09-05T10:55:15.000Z</time>
      </trkpt>
      <trkpt lat="49.76422" lon="4.83977">
        <ele>181</ele>
        <time>2022-09-05T10:55:16.000Z</time>
      </trkpt>
      <trkpt lat="49.76415" lon="4.83977">
        <ele>181</ele>
        <time>2022-09-05T10:55:17.000Z</time>
      </trkpt>
      <trkpt lat="49.76409" lon="4.83976">
        <ele>180</ele>
        <time>2022-09-05T10:55:18.000Z</time>
      </trkpt>
      <trkpt lat="49.76402" lon="4.83976">
        <ele>180</ele>
        <time>2022-09-05T10:55:19.000Z</time>
      </trkpt>
      <trkpt lat="49.76396" lon="4.83976">
        <ele>180</ele>
        <time>2022-09-05T10:55:20.000Z</time>
      </trkpt>
      <trkpt lat="49.7639" lon="4.83975">
        <ele>180</ele>
        <time>2022-09-05T10:55:21.000Z</time>
      </trkpt>
      <trkpt lat="49.76383" lon="4.83975">
        <ele>180</ele>
        <time>2022-09-05T10:55:22.000Z</time>
      </trkpt>
      <trkpt lat="49.76377" lon="4.83975">
        <ele>179</ele>
        <time>2022-09-05T10:55:23.000Z</time>
      </trkpt>
      <trkpt lat="49.7637" lon="4.83974">
        <ele>179</ele>
        <time>2022-09-05T10:55:24.000Z</time>
      </trkpt>
      <trkpt lat="49.76364" lon="4.83974">
        <ele>179</ele>
        <time>2022-09-05T10:55:25.000Z</time>
      </trkpt>
      <trkpt lat="49.76357" lon="4.83973">
        <ele>179</ele>
        <time>2022-09-05T10:55:26.000Z</time>
      </trkpt>
      <trkpt lat="49.7635" lon="4.83973">
        <ele>179</ele>
        <time>2022-09-05T10:55:27.000Z</time>
      </trkpt>
      <trkpt lat="49.76344" lon="4.83972">
        <ele>179</ele>
        <time>2022-09-05T10:55:28.000Z</time>
      </trkpt>
      <trkpt lat="49.76337" lon="4.83971">
        <ele>178</ele>
        <time>2022-09-05T10:55:29.000Z</time>
      </trkpt>
      <trkpt lat="49.76331" lon="4.83969">
        <ele>178</ele>
        <time>2022-09-05T10:55:30.000Z</time>
      </trkpt>
      <trkpt lat="49.76325" lon="4.83967">
        <ele>178</ele>
        <time>2022-09-05T10:55:31.000Z</time>
      </trkpt>
      <trkpt lat="49.76318" lon="4.83965">
        <ele>178</ele>
        <time>2022-09-05T10:55:32.000Z</time>
      </trkpt>
      <trkpt lat="49.76312" lon="4.83961">
        <ele>178</ele>
        <time>2022-09-05T10:55:33.000Z</time>
      </trkpt>
      <trkpt lat="49.76307" lon="4.83957">
        <ele>178</ele>
        <time>2022-09-05T10:55:34.000Z</time>
      </trkpt>
      <trkpt lat="49.76301" lon="4.83953">
        <ele>178</ele>
        <time>2022-09-05T10:55:35.000Z</time>
      </trkpt>
      <trkpt lat="49.76295" lon="4.83948">
        <ele>178</ele>
        <time>2022-09-05T10:55:36.000Z</time>
      </trkpt>
      <trkpt lat="49.7629" lon="4.83943">
        <ele>178</ele>
        <time>2022-09-05T10:55:37.000Z</time>
      </trkpt>
      <trkpt lat="49.76285" lon="4.83937">
        <ele>178</ele>
        <time>2022-09-05T10:55:38.000Z</time>
      </trkpt>
      <trkpt lat="49.7628" lon="4.83931">
        <ele>178</ele>
        <time>2022-09-05T10:55:39.000Z</time>
      </trkpt>
      <trkpt lat="49.76275" lon="4.83925">
        <ele>178</ele>
        <time>2022-09-05T10:55:40.000Z</time>
      </trkpt>
      <trkpt lat="49.76271" lon="4.83917">
        <ele>178</ele>
        <time>2022-09-05T10:55:41.000Z</time>
      </trkpt>
      <trkpt lat="49.76268" lon="4.83909">
        <ele>178</ele>
        <time>2022-09-05T10:55:42.000Z</time>
      </trkpt>
      <trkpt lat="49.76266" lon="4.839">
        <ele>178</ele>
        <time>2022-09-05T10:55:43.000Z</time>
      </trkpt>
      <trkpt lat="49.76265" lon="4.83891">
        <ele>178</ele>
        <time>2022-09-05T10:55:44.000Z</time>
      </trkpt>
      <trkpt lat="49.76265" lon="4.83881">
        <ele>178</ele>
        <time>2022-09-05T10:55:45.000Z</time>
      </trkpt>
      <trkpt lat="49.76265" lon="4.83871">
        <ele>178</ele>
        <time>2022-09-05T10:55:46.000Z</time>
      </trkpt>
      <trkpt lat="49.76267" lon="4.83862">
        <ele>178</ele>
        <time>2022-09-05T10:55:47.000Z</time>
      </trkpt>
      <trkpt lat="49.76269" lon="4.83853">
        <ele>178</ele>
        <time>2022-09-05T10:55:48.000Z</time>
      </trkpt>
      <trkpt lat="49.7627" lon="4.83843">
        <ele>177</ele>
        <time>2022-09-05T10:55:49.000Z</time>
      </trkpt>
      <trkpt lat="49.76273" lon="4.83834">
        <ele>177</ele>
        <time>2022-09-05T10:55:50.000Z</time>
      </trkpt>
      <trkpt lat="49.76275" lon="4.83825">
        <ele>177</ele>
        <time>2022-09-05T10:55:51.000Z</time>
      </trkpt>
      <trkpt lat="49.76278" lon="4.83816">
        <ele>177</ele>
        <time>2022-09-05T10:55:52.000Z</time>
      </trkpt>
      <trkpt lat="49.76281" lon="4.83807">
        <ele>177</ele>
        <time>2022-09-05T10:55:53.000Z</time>
      </trkpt>
      <trkpt lat="49.76283" lon="4.83798">
        <ele>177</ele>
        <time>2022-09-05T10:55:54.000Z</time>
      </trkpt>
      <trkpt lat="49.76286" lon="4.83789">
        <ele>178</ele>
        <time>2022-09-05T10:55:55.000Z</time>
      </trkpt>
      <trkpt lat="49.76288" lon="4.8378">
        <ele>178</ele>
        <time>2022-09-05T10:55:56.000Z</time>
      </trkpt>
      <trkpt lat="49.76291" lon="4.83771">
        <ele>178</ele>
        <time>2022-09-05T10:55:57.000Z</time>
      </trkpt>
      <trkpt lat="49.76294" lon="4.83762">
        <ele>178</ele>
        <time>2022-09-05T10:55:58.000Z</time>
      </trkpt>
      <trkpt lat="49.76297" lon="4.83754">
        <ele>178</ele>
        <time>2022-09-05T10:55:59.000Z</time>
      </trkpt>
      <trkpt lat="49.763" lon="4.83745">
        <ele>178</ele>
        <time>2022-09-05T10:56:00.000Z</time>
      </trkpt>
      <trkpt lat="49.76302" lon="4.83736">
        <ele>178</ele>
        <time>2022-09-05T10:56:01.000Z</time>
      </trkpt>
      <trkpt lat="49.76305" lon="4.83727">
        <ele>179</ele>
        <time>2022-09-05T10:56:02.000Z</time>
      </trkpt>
      <trkpt lat="49.76308" lon="4.83719">
        <ele>179</ele>
        <time>2022-09-05T10:56:03.000Z</time>
      </trkpt>
      <trkpt lat="49.76311" lon="4.8371">
        <ele>179</ele>
        <time>2022-09-05T10:56:04.000Z</time>
      </trkpt>
      <trkpt lat="49.76314" lon="4.83702">
        <ele>179</ele>
        <time>2022-09-05T10:56:05.000Z</time>
      </trkpt>
      <trkpt lat="49.76316" lon="4.83693">
        <ele>179</ele>
        <time>2022-09-05T10:56:06.000Z</time>
      </trkpt>
      <trkpt lat="49.76319" lon="4.83685">
        <ele>179</ele>
        <time>2022-09-05T10:56:07.000Z</time>
      </trkpt>
      <trkpt lat="49.76321" lon="4.83677">
        <ele>179</ele>
        <time>2022-09-05T10:56:08.000Z</time>
      </trkpt>
      <trkpt lat="49.76324" lon="4.83668">
        <ele>180</ele>
        <time>2022-09-05T10:56:09.000Z</time>
      </trkpt>
      <trkpt lat="49.76326" lon="4.8366">
        <ele>180</ele>
        <time>2022-09-05T10:56:10.000Z</time>
      </trkpt>
      <trkpt lat="49.76329" lon="4.83652">
        <ele>180</ele>
        <time>2022-09-05T10:56:11.000Z</time>
      </trkpt>
      <trkpt lat="49.76331" lon="4.83644">
        <ele>180</ele>
        <time>2022-09-05T10:56:12.000Z</time>
      </trkpt>
      <trkpt lat="49.76334" lon="4.83637">
        <ele>180</ele>
        <time>2022-09-05T10:56:13.000Z</time>
      </trkpt>
      <trkpt lat="49.76336" lon="4.83629">
        <ele>180</ele>
        <time>2022-09-05T10:56:14.000Z</time>
      </trkpt>
      <trkpt lat="49.76339" lon="4.83621">
        <ele>180</ele>
        <time>2022-09-05T10:56:15.000Z</time>
      </trkpt>
      <trkpt lat="49.76341" lon="4.83614">
        <ele>181</ele>
        <time>2022-09-05T10:56:16.000Z</time>
      </trkpt>
      <trkpt lat="49.76343" lon="4.83606">
        <ele>181</ele>
        <time>2022-09-05T10:56:17.000Z</time>
      </trkpt>
      <trkpt lat="49.76345" lon="4.83598">
        <ele>181</ele>
        <time>2022-09-05T10:56:18.000Z</time>
      </trkpt>
      <trkpt lat="49.76348" lon="4.8359">
        <ele>181</ele>
        <time>2022-09-05T10:56:19.000Z</time>
      </trkpt>
      <trkpt lat="49.7635" lon="4.83582">
        <ele>181</ele>
        <time>2022-09-05T10:56:20.000Z</time>
      </trkpt>
      <trkpt lat="49.76352" lon="4.83574">
        <ele>181</ele>
        <time>2022-09-05T10:56:21.000Z</time>
      </trkpt>
      <trkpt lat="49.76354" lon="4.83566">
        <ele>181</ele>
        <time>2022-09-05T10:56:22.000Z</time>
      </trkpt>
      <trkpt lat="49.76356" lon="4.83557">
        <ele>181</ele>
        <time>2022-09-05T10:56:23.000Z</time>
      </trkpt>
      <trkpt lat="49.76358" lon="4.83549">
        <ele>182</ele>
        <time>2022-09-05T10:56:24.000Z</time>
      </trkpt>
      <trkpt lat="49.7636" lon="4.83541">
        <ele>182</ele>
        <time>2022-09-05T10:56:25.000Z</time>
      </trkpt>
      <trkpt lat="49.76362" lon="4.83532">
        <ele>182</ele>
        <time>2022-09-05T10:56:26.000Z</time>
      </trkpt>
      <trkpt lat="49.76364" lon="4.83524">
        <ele>182</ele>
        <time>2022-09-05T10:56:27.000Z</time>
      </trkpt>
      <trkpt lat="49.76365" lon="4.83516">
        <ele>182</ele>
        <time>2022-09-05T10:56:28.000Z</time>
      </trkpt>
      <trkpt lat="49.76367" lon="4.83507">
        <ele>182</ele>
        <time>2022-09-05T10:56:29.000Z</time>
      </trkpt>
      <trkpt lat="49.76369" lon="4.83499">
        <ele>182</ele>
        <time>2022-09-05T10:56:30.000Z</time>
      </trkpt>
      <trkpt lat="49.76371" lon="4.83491">
        <ele>182</ele>
        <time>2022-09-05T10:56:31.000Z</time>
      </trkpt>
      <trkpt lat="49.76373" lon="4.83484">
        <ele>183</ele>
        <time>2022-09-05T10:56:32.000Z</time>
      </trkpt>
      <trkpt lat="49.76374" lon="4.83476">
        <ele>183</ele>
        <time>2022-09-05T10:56:33.000Z</time>
      </trkpt>
      <trkpt lat="49.76376" lon="4.83469">
        <ele>183</ele>
        <time>2022-09-05T10:56:34.000Z</time>
      </trkpt>
      <trkpt lat="49.76377" lon="4.83461">
        <ele>183</ele>
        <time>2022-09-05T10:56:35.000Z</time>
      </trkpt>
      <trkpt lat="49.76378" lon="4.83454">
        <ele>183</ele>
        <time>2022-09-05T10:56:36.000Z</time>
      </trkpt>
      <trkpt lat="49.76379" lon="4.83447">
        <ele>183</ele>
        <time>2022-09-05T10:56:37.000Z</time>
      </trkpt>
      <trkpt lat="49.7638" lon="4.8344">
        <ele>183</ele>
        <time>2022-09-05T10:56:38.000Z</time>
      </trkpt>
      <trkpt lat="49.76381" lon="4.83432">
        <ele>183</ele>
        <time>2022-09-05T10:56:39.000Z</time>
      </trkpt>
      <trkpt lat="49.76381" lon="4.83424">
        <ele>183</ele>
        <time>2022-09-05T10:56:40.000Z</time>
      </trkpt>
      <trkpt lat="49.76382" lon="4.83416">
        <ele>183</ele>
        <time>2022-09-05T10:56:41.000Z</time>
      </trkpt>
      <trkpt lat="49.76382" lon="4.83408">
        <ele>183</ele>
        <time>2022-09-05T10:56:42.000Z</time>
      </trkpt>
      <trkpt lat="49.76383" lon="4.83399">
        <ele>183</ele>
        <time>2022-09-05T10:56:43.000Z</time>
      </trkpt>
      <trkpt lat="49.76383" lon="4.8339">
        <ele>183</ele>
        <time>2022-09-05T10:56:44.000Z</time>
      </trkpt>
      <trkpt lat="49.76384" lon="4.83381">
        <ele>183</ele>
        <time>2022-09-05T10:56:45.000Z</time>
      </trkpt>
      <trkpt lat="49.76384" lon="4.83372">
        <ele>183</ele>
        <time>2022-09-05T10:56:46.000Z</time>
      </trkpt>
      <trkpt lat="49.76383" lon="4.83362">
        <ele>183</ele>
        <time>2022-09-05T10:56:47.000Z</time>
      </trkpt>
      <trkpt lat="49.76383" lon="4.83352">
        <ele>183</ele>
        <time>2022-09-05T10:56:48.000Z</time>
      </trkpt>
      <trkpt lat="49.76382" lon="4.83341">
        <ele>183</ele>
        <time>2022-09-05T10:56:49.000Z</time>
      </trkpt>
      <trkpt lat="49.76381" lon="4.83331">
        <ele>182</ele>
        <time>2022-09-05T10:56:50.000Z</time>
      </trkpt>
      <trkpt lat="49.76379" lon="4.8332">
        <ele>182</ele>
        <time>2022-09-05T10:56:51.000Z</time>
      </trkpt>
      <trkpt lat="49.76376" lon="4.83311">
        <ele>182</ele>
        <time>2022-09-05T10:56:52.000Z</time>
      </trkpt>
      <trkpt lat="49.76372" lon="4.83302">
        <ele>182</ele>
        <time>2022-09-05T10:56:53.000Z</time>
      </trkpt>
      <trkpt lat="49.76367" lon="4.83294">
        <ele>182</ele>
        <time>2022-09-05T10:56:54.000Z</time>
      </trkpt>
      <trkpt lat="49.76362" lon="4.83287">
        <ele>182</ele>
        <time>2022-09-05T10:56:55.000Z</time>
      </trkpt>
      <trkpt lat="49.76358" lon="4.8328">
        <ele>182</ele>
        <time>2022-09-05T10:56:56.000Z</time>
      </trkpt>
      <trkpt lat="49.76353" lon="4.83273">
        <ele>182</ele>
        <time>2022-09-05T10:56:57.000Z</time>
      </trkpt>
      <trkpt lat="49.76348" lon="4.83266">
        <ele>183</ele>
        <time>2022-09-05T10:56:58.000Z</time>
      </trkpt>
      <trkpt lat="49.76343" lon="4.83259">
        <ele>183</ele>
        <time>2022-09-05T10:56:59.000Z</time>
      </trkpt>
      <trkpt lat="49.76339" lon="4.83251">
        <ele>183</ele>
        <time>2022-09-05T10:57:00.000Z</time>
      </trkpt>
      <trkpt lat="49.76334" lon="4.83246">
        <ele>183</ele>
        <time>2022-09-05T10:57:01.000Z</time>
      </trkpt>
      <trkpt lat="49.76329" lon="4.83242">
        <ele>183</ele>
        <time>2022-09-05T10:57:02.000Z</time>
      </trkpt>
      <trkpt lat="49.76323" lon="4.83239">
        <ele>183</ele>
        <time>2022-09-05T10:57:03.000Z</time>
      </trkpt>
      <trkpt lat="49.76317" lon="4.83239">
        <ele>182</ele>
        <time>2022-09-05T10:57:04.000Z</time>
      </trkpt>
      <trkpt lat="49.76311" lon="4.83241">
        <ele>182</ele>
        <time>2022-09-05T10:57:05.000Z</time>
      </trkpt>
      <trkpt lat="49.76305" lon="4.83243">
        <ele>182</ele>
        <time>2022-09-05T10:57:06.000Z</time>
      </trkpt>
      <trkpt lat="49.76299" lon="4.83245">
        <ele>182</ele>
        <time>2022-09-05T10:57:07.000Z</time>
      </trkpt>
      <trkpt lat="49.76293" lon="4.83249">
        <ele>182</ele>
        <time>2022-09-05T10:57:08.000Z</time>
      </trkpt>
      <trkpt lat="49.76288" lon="4.83252">
        <ele>182</ele>
        <time>2022-09-05T10:57:09.000Z</time>
      </trkpt>
      <trkpt lat="49.76282" lon="4.83255">
        <ele>182</ele>
        <time>2022-09-05T10:57:10.000Z</time>
      </trkpt>
      <trkpt lat="49.76278" lon="4.8326">
        <ele>182</ele>
        <time>2022-09-05T10:57:11.000Z</time>
      </trkpt>
      <trkpt lat="49.76275" lon="4.83267">
        <ele>182</ele>
        <time>2022-09-05T10:57:12.000Z</time>
      </trkpt>
      <trkpt lat="49.76273" lon="4.83274">
        <ele>182</ele>
        <time>2022-09-05T10:57:13.000Z</time>
      </trkpt>
      <trkpt lat="49.76273" lon="4.83282">
        <ele>182</ele>
        <time>2022-09-05T10:57:14.000Z</time>
      </trkpt>
      <trkpt lat="49.76273" lon="4.83289">
        <ele>182</ele>
        <time>2022-09-05T10:57:15.000Z</time>
      </trkpt>
      <trkpt lat="49.76273" lon="4.83296">
        <ele>182</ele>
        <time>2022-09-05T10:57:16.000Z</time>
      </trkpt>
      <trkpt lat="49.76272" lon="4.83302">
        <ele>182</ele>
        <time>2022-09-05T10:57:17.000Z</time>
      </trkpt>
      <trkpt lat="49.76269" lon="4.83307">
        <ele>182</ele>
        <time>2022-09-05T10:57:18.000Z</time>
      </trkpt>
      <trkpt lat="49.76267" lon="4.8331">
        <ele>183</ele>
        <time>2022-09-05T10:57:19.000Z</time>
      </trkpt>
      <trkpt lat="49.76264" lon="4.83311">
        <ele>183</ele>
        <time>2022-09-05T10:57:20.000Z</time>
      </trkpt>
      <trkpt lat="49.76262" lon="4.83309">
        <ele>183</ele>
        <time>2022-09-05T10:57:21.000Z</time>
      </trkpt>
      <trkpt lat="49.76262" lon="4.83307">
        <ele>183</ele>
        <time>2022-09-05T10:57:22.000Z</time>
      </trkpt>
      <trkpt lat="49.76261" lon="4.83304">
        <ele>183</ele>
        <time>2022-09-05T10:57:23.000Z</time>
      </trkpt>
      <trkpt lat="49.76259" lon="4.83301">
        <ele>183</ele>
        <time>2022-09-05T10:57:24.000Z</time>
      </trkpt>
      <trkpt lat="49.76257" lon="4.83298">
        <ele>183</ele>
        <time>2022-09-05T10:57:25.000Z</time>
      </trkpt>
      <trkpt lat="49.76255" lon="4.83296">
        <ele>183</ele>
        <time>2022-09-05T10:57:26.000Z</time>
      </trkpt>
      <trkpt lat="49.76252" lon="4.83295">
        <ele>183</ele>
        <time>2022-09-05T10:57:27.000Z</time>
      </trkpt>
      <trkpt lat="49.7625" lon="4.83293">
        <ele>183</ele>
        <time>2022-09-05T10:57:28.000Z</time>
      </trkpt>
      <trkpt lat="49.76248" lon="4.8329">
        <ele>183</ele>
        <time>2022-09-05T10:57:29.000Z</time>
      </trkpt>
      <trkpt lat="49.76245" lon="4.83287">
        <ele>183</ele>
        <time>2022-09-05T10:57:30.000Z</time>
      </trkpt>
      <trkpt lat="49.76243" lon="4.83282">
        <ele>183</ele>
        <time>2022-09-05T10:57:31.000Z</time>
      </trkpt>
      <trkpt lat="49.7624" lon="4.83277">
        <ele>183</ele>
        <time>2022-09-05T10:57:32.000Z</time>
      </trkpt>
      <trkpt lat="49.76237" lon="4.83272">
        <ele>183</ele>
        <time>2022-09-05T10:57:33.000Z</time>
      </trkpt>
      <trkpt lat="49.76234" lon="4.83266">
        <ele>183</ele>
        <time>2022-09-05T10:57:34.000Z</time>
      </trkpt>
      <trkpt lat="49.76231" lon="4.8326">
        <ele>183</ele>
        <time>2022-09-05T10:57:35.000Z</time>
      </trkpt>
      <trkpt lat="49.76228" lon="4.83254">
        <ele>183</ele>
        <time>2022-09-05T10:57:36.000Z</time>
      </trkpt>
      <trkpt lat="49.76225" lon="4.83248">
        <ele>183</ele>
        <time>2022-09-05T10:57:37.000Z</time>
      </trkpt>
      <trkpt lat="49.76221" lon="4.83242">
        <ele>183</ele>
        <time>2022-09-05T10:57:38.000Z</time>
      </trkpt>
      <trkpt lat="49.76218" lon="4.83236">
        <ele>183</ele>
        <time>2022-09-05T10:57:39.000Z</time>
      </trkpt>
      <trkpt lat="49.76215" lon="4.8323">
        <ele>183</ele>
        <time>2022-09-05T10:57:40.000Z</time>
      </trkpt>
      <trkpt lat="49.76211" lon="4.83225">
        <ele>183</ele>
        <time>2022-09-05T10:57:41.000Z</time>
      </trkpt>
      <trkpt lat="49.76207" lon="4.8322">
        <ele>183</ele>
        <time>2022-09-05T10:57:42.000Z</time>
      </trkpt>
      <trkpt lat="49.76203" lon="4.83214">
        <ele>183</ele>
        <time>2022-09-05T10:57:43.000Z</time>
      </trkpt>
      <trkpt lat="49.76199" lon="4.83208">
        <ele>183</ele>
        <time>2022-09-05T10:57:44.000Z</time>
      </trkpt>
      <trkpt lat="49.76195" lon="4.83202">
        <ele>183</ele>
        <time>2022-09-05T10:57:45.000Z</time>
      </trkpt>
      <trkpt lat="49.76191" lon="4.83196">
        <ele>183</ele>
        <time>2022-09-05T10:57:46.000Z</time>
      </trkpt>
      <trkpt lat="49.76187" lon="4.8319">
        <ele>183</ele>
        <time>2022-09-05T10:57:47.000Z</time>
      </trkpt>
      <trkpt lat="49.76182" lon="4.83184">
        <ele>183</ele>
        <time>2022-09-05T10:57:48.000Z</time>
      </trkpt>
      <trkpt lat="49.76177" lon="4.83178">
        <ele>183</ele>
        <time>2022-09-05T10:57:49.000Z</time>
      </trkpt>
      <trkpt lat="49.76173" lon="4.83172">
        <ele>183</ele>
        <time>2022-09-05T10:57:50.000Z</time>
      </trkpt>
      <trkpt lat="49.76168" lon="4.83166">
        <ele>183</ele>
        <time>2022-09-05T10:57:51.000Z</time>
      </trkpt>
      <trkpt lat="49.76163" lon="4.83161">
        <ele>183</ele>
        <time>2022-09-05T10:57:52.000Z</time>
      </trkpt>
      <trkpt lat="49.76159" lon="4.83156">
        <ele>183</ele>
        <time>2022-09-05T10:57:53.000Z</time>
      </trkpt>
      <trkpt lat="49.76154" lon="4.83151">
        <ele>183</ele>
        <time>2022-09-05T10:57:54.000Z</time>
      </trkpt>
      <trkpt lat="49.76149" lon="4.83147">
        <ele>183</ele>
        <time>2022-09-05T10:57:55.000Z</time>
      </trkpt>
      <trkpt lat="49.76149" lon="4.83146">
        <ele>183</ele>
        <time>2022-09-05T10:57:56.000Z</time>
      </trkpt>
      <trkpt lat="49.76147" lon="4.83144">
        <ele>183</ele>
        <time>2022-09-05T10:57:57.000Z</time>
      </trkpt>
      <trkpt lat="49.76143" lon="4.83139">
        <ele>183</ele>
        <time>2022-09-05T10:57:58.000Z</time>
      </trkpt>
      <trkpt lat="49.76138" lon="4.83134">
        <ele>183</ele>
        <time>2022-09-05T10:57:59.000Z</time>
      </trkpt>
      <trkpt lat="49.76134" lon="4.83129">
        <ele>182</ele>
        <time>2022-09-05T10:58:00.000Z</time>
      </trkpt>
      <trkpt lat="49.7613" lon="4.83123">
        <ele>182</ele>
        <time>2022-09-05T10:58:01.000Z</time>
      </trkpt>
      <trkpt lat="49.76126" lon="4.83118">
        <ele>182</ele>
        <time>2022-09-05T10:58:02.000Z</time>
      </trkpt>
      <trkpt lat="49.76121" lon="4.83112">
        <ele>182</ele>
        <time>2022-09-05T10:58:03.000Z</time>
      </trkpt>
      <trkpt lat="49.76116" lon="4.83108">
        <ele>182</ele>
        <time>2022-09-05T10:58:04.000Z</time>
      </trkpt>
      <trkpt lat="49.76111" lon="4.83104">
        <ele>182</ele>
        <time>2022-09-05T10:58:05.000Z</time>
      </trkpt>
      <trkpt lat="49.76106" lon="4.831">
        <ele>182</ele>
        <time>2022-09-05T10:58:06.000Z</time>
      </trkpt>
      <trkpt lat="49.76101" lon="4.83097">
        <ele>183</ele>
        <time>2022-09-05T10:58:07.000Z</time>
      </trkpt>
      <trkpt lat="49.76095" lon="4.83094">
        <ele>183</ele>
        <time>2022-09-05T10:58:08.000Z</time>
      </trkpt>
      <trkpt lat="49.7609" lon="4.8309">
        <ele>182</ele>
        <time>2022-09-05T10:58:09.000Z</time>
      </trkpt>
      <trkpt lat="49.76084" lon="4.83087">
        <ele>182</ele>
        <time>2022-09-05T10:58:10.000Z</time>
      </trkpt>
      <trkpt lat="49.76079" lon="4.83084">
        <ele>182</ele>
        <time>2022-09-05T10:58:11.000Z</time>
      </trkpt>
      <trkpt lat="49.76073" lon="4.83081">
        <ele>182</ele>
        <time>2022-09-05T10:58:12.000Z</time>
      </trkpt>
      <trkpt lat="49.76067" lon="4.83078">
        <ele>182</ele>
        <time>2022-09-05T10:58:13.000Z</time>
      </trkpt>
      <trkpt lat="49.76062" lon="4.83076">
        <ele>182</ele>
        <time>2022-09-05T10:58:14.000Z</time>
      </trkpt>
      <trkpt lat="49.76056" lon="4.83075">
        <ele>182</ele>
        <time>2022-09-05T10:58:15.000Z</time>
      </trkpt>
      <trkpt lat="49.7605" lon="4.83075">
        <ele>182</ele>
        <time>2022-09-05T10:58:16.000Z</time>
      </trkpt>
      <trkpt lat="49.76044" lon="4.83077">
        <ele>182</ele>
        <time>2022-09-05T10:58:17.000Z</time>
      </trkpt>
      <trkpt lat="49.76039" lon="4.83081">
        <ele>182</ele>
        <time>2022-09-05T10:58:18.000Z</time>
      </trkpt>
      <trkpt lat="49.76035" lon="4.83085">
        <ele>182</ele>
        <time>2022-09-05T10:58:19.000Z</time>
      </trkpt>
      <trkpt lat="49.7603" lon="4.83089">
        <ele>182</ele>
        <time>2022-09-05T10:58:20.000Z</time>
      </trkpt>
      <trkpt lat="49.76026" lon="4.83093">
        <ele>182</ele>
        <time>2022-09-05T10:58:21.000Z</time>
      </trkpt>
      <trkpt lat="49.76022" lon="4.83098">
        <ele>182</ele>
        <time>2022-09-05T10:58:22.000Z</time>
      </trkpt>
      <trkpt lat="49.76018" lon="4.83101">
        <ele>182</ele>
        <time>2022-09-05T10:58:23.000Z</time>
      </trkpt>
      <trkpt lat="49.76013" lon="4.83104">
        <ele>182</ele>
        <time>2022-09-05T10:58:24.000Z</time>
      </trkpt>
      <trkpt lat="49.76008" lon="4.83105">
        <ele>182</ele>
        <time>2022-09-05T10:58:25.000Z</time>
      </trkpt>
      <trkpt lat="49.76003" lon="4.83105">
        <ele>183</ele>
        <time>2022-09-05T10:58:26.000Z</time>
      </trkpt>
      <trkpt lat="49.75998" lon="4.83104">
        <ele>183</ele>
        <time>2022-09-05T10:58:27.000Z</time>
      </trkpt>
      <trkpt lat="49.75993" lon="4.83102">
        <ele>183</ele>
        <time>2022-09-05T10:58:28.000Z</time>
      </trkpt>
      <trkpt lat="49.75989" lon="4.83101">
        <ele>183</ele>
        <time>2022-09-05T10:58:29.000Z</time>
      </trkpt>
      <trkpt lat="49.75984" lon="4.83099">
        <ele>183</ele>
        <time>2022-09-05T10:58:30.000Z</time>
      </trkpt>
      <trkpt lat="49.7598" lon="4.83096">
        <ele>183</ele>
        <time>2022-09-05T10:58:31.000Z</time>
      </trkpt>
      <trkpt lat="49.75975" lon="4.83094">
        <ele>183</ele>
        <time>2022-09-05T10:58:32.000Z</time>
      </trkpt>
      <trkpt lat="49.7597" lon="4.83092">
        <ele>183</ele>
        <time>2022-09-05T10:58:33.000Z</time>
      </trkpt>
      <trkpt lat="49.75966" lon="4.8309">
        <ele>183</ele>
        <time>2022-09-05T10:58:34.000Z</time>
      </trkpt>
      <trkpt lat="49.75961" lon="4.83088">
        <ele>183</ele>
        <time>2022-09-05T10:58:35.000Z</time>
      </trkpt>
      <trkpt lat="49.75957" lon="4.83086">
        <ele>183</ele>
        <time>2022-09-05T10:58:36.000Z</time>
      </trkpt>
      <trkpt lat="49.75952" lon="4.83083">
        <ele>184</ele>
        <time>2022-09-05T10:58:37.000Z</time>
      </trkpt>
      <trkpt lat="49.75947" lon="4.83081">
        <ele>184</ele>
        <time>2022-09-05T10:58:38.000Z</time>
      </trkpt>
      <trkpt lat="49.75943" lon="4.83078">
        <ele>184</ele>
        <time>2022-09-05T10:58:39.000Z</time>
      </trkpt>
      <trkpt lat="49.75938" lon="4.83076">
        <ele>184</ele>
        <time>2022-09-05T10:58:40.000Z</time>
      </trkpt>
      <trkpt lat="49.75934" lon="4.83073">
        <ele>184</ele>
        <time>2022-09-05T10:58:41.000Z</time>
      </trkpt>
      <trkpt lat="49.75929" lon="4.8307">
        <ele>184</ele>
        <time>2022-09-05T10:58:42.000Z</time>
      </trkpt>
      <trkpt lat="49.75925" lon="4.83067">
        <ele>184</ele>
        <time>2022-09-05T10:58:43.000Z</time>
      </trkpt>
      <trkpt lat="49.7592" lon="4.83065">
        <ele>184</ele>
        <time>2022-09-05T10:58:44.000Z</time>
      </trkpt>
      <trkpt lat="49.75916" lon="4.83062">
        <ele>184</ele>
        <time>2022-09-05T10:58:45.000Z</time>
      </trkpt>
      <trkpt lat="49.75911" lon="4.8306">
        <ele>184</ele>
        <time>2022-09-05T10:58:46.000Z</time>
      </trkpt>
      <trkpt lat="49.75906" lon="4.83057">
        <ele>184</ele>
        <time>2022-09-05T10:58:47.000Z</time>
      </trkpt>
      <trkpt lat="49.75902" lon="4.83055">
        <ele>185</ele>
        <time>2022-09-05T10:58:48.000Z</time>
      </trkpt>
      <trkpt lat="49.75897" lon="4.83052">
        <ele>185</ele>
        <time>2022-09-05T10:58:49.000Z</time>
      </trkpt>
      <trkpt lat="49.75892" lon="4.8305">
        <ele>185</ele>
        <time>2022-09-05T10:58:50.000Z</time>
      </trkpt>
      <trkpt lat="49.75888" lon="4.83048">
        <ele>185</ele>
        <time>2022-09-05T10:58:51.000Z</time>
      </trkpt>
      <trkpt lat="49.75883" lon="4.83045">
        <ele>185</ele>
        <time>2022-09-05T10:58:52.000Z</time>
      </trkpt>
      <trkpt lat="49.75879" lon="4.83043">
        <ele>185</ele>
        <time>2022-09-05T10:58:53.000Z</time>
      </trkpt>
      <trkpt lat="49.75874" lon="4.8304">
        <ele>185</ele>
        <time>2022-09-05T10:58:54.000Z</time>
      </trkpt>
      <trkpt lat="49.7587" lon="4.83038">
        <ele>185</ele>
        <time>2022-09-05T10:58:55.000Z</time>
      </trkpt>
      <trkpt lat="49.75865" lon="4.83036">
        <ele>185</ele>
        <time>2022-09-05T10:58:56.000Z</time>
      </trkpt>
      <trkpt lat="49.7586" lon="4.83034">
        <ele>185</ele>
        <time>2022-09-05T10:58:57.000Z</time>
      </trkpt>
      <trkpt lat="49.75856" lon="4.83032">
        <ele>185</ele>
        <time>2022-09-05T10:58:58.000Z</time>
      </trkpt>
      <trkpt lat="49.75851" lon="4.83029">
        <ele>185</ele>
        <time>2022-09-05T10:58:59.000Z</time>
      </trkpt>
      <trkpt lat="49.75846" lon="4.83027">
        <ele>185</ele>
        <time>2022-09-05T10:59:00.000Z</time>
      </trkpt>
      <trkpt lat="49.75842" lon="4.83025">
        <ele>185</ele>
        <time>2022-09-05T10:59:01.000Z</time>
      </trkpt>
      <trkpt lat="49.75837" lon="4.83022">
        <ele>185</ele>
        <time>2022-09-05T10:59:02.000Z</time>
      </trkpt>
      <trkpt lat="49.75832" lon="4.83021">
        <ele>185</ele>
        <time>2022-09-05T10:59:03.000Z</time>
      </trkpt>
      <trkpt lat="49.75827" lon="4.83019">
        <ele>185</ele>
        <time>2022-09-05T10:59:04.000Z</time>
      </trkpt>
      <trkpt lat="49.75823" lon="4.83017">
        <ele>185</ele>
        <time>2022-09-05T10:59:05.000Z</time>
      </trkpt>
      <trkpt lat="49.75818" lon="4.83016">
        <ele>185</ele>
        <time>2022-09-05T10:59:06.000Z</time>
      </trkpt>
      <trkpt lat="49.75813" lon="4.83015">
        <ele>186</ele>
        <time>2022-09-05T10:59:07.000Z</time>
      </trkpt>
      <trkpt lat="49.75808" lon="4.83015">
        <ele>186</ele>
        <time>2022-09-05T10:59:08.000Z</time>
      </trkpt>
      <trkpt lat="49.75803" lon="4.83015">
        <ele>186</ele>
        <time>2022-09-05T10:59:09.000Z</time>
      </trkpt>
      <trkpt lat="49.75798" lon="4.83015">
        <ele>186</ele>
        <time>2022-09-05T10:59:10.000Z</time>
      </trkpt>
      <trkpt lat="49.75793" lon="4.83016">
        <ele>186</ele>
        <time>2022-09-05T10:59:11.000Z</time>
      </trkpt>
      <trkpt lat="49.75788" lon="4.83017">
        <ele>186</ele>
        <time>2022-09-05T10:59:12.000Z</time>
      </trkpt>
      <trkpt lat="49.75783" lon="4.83018">
        <ele>186</ele>
        <time>2022-09-05T10:59:13.000Z</time>
      </trkpt>
      <trkpt lat="49.75778" lon="4.8302">
        <ele>186</ele>
        <time>2022-09-05T10:59:14.000Z</time>
      </trkpt>
      <trkpt lat="49.75773" lon="4.83022">
        <ele>186</ele>
        <time>2022-09-05T10:59:15.000Z</time>
      </trkpt>
      <trkpt lat="49.75768" lon="4.83025">
        <ele>186</ele>
        <time>2022-09-05T10:59:16.000Z</time>
      </trkpt>
      <trkpt lat="49.75764" lon="4.83028">
        <ele>186</ele>
        <time>2022-09-05T10:59:17.000Z</time>
      </trkpt>
      <trkpt lat="49.75759" lon="4.83031">
        <ele>186</ele>
        <time>2022-09-05T10:59:18.000Z</time>
      </trkpt>
      <trkpt lat="49.75754" lon="4.83034">
        <ele>186</ele>
        <time>2022-09-05T10:59:19.000Z</time>
      </trkpt>
      <trkpt lat="49.7575" lon="4.83037">
        <ele>186</ele>
        <time>2022-09-05T10:59:20.000Z</time>
      </trkpt>
      <trkpt lat="49.75745" lon="4.83041">
        <ele>186</ele>
        <time>2022-09-05T10:59:21.000Z</time>
      </trkpt>
      <trkpt lat="49.75741" lon="4.83044">
        <ele>186</ele>
        <time>2022-09-05T10:59:22.000Z</time>
      </trkpt>
      <trkpt lat="49.75736" lon="4.83048">
        <ele>186</ele>
        <time>2022-09-05T10:59:23.000Z</time>
      </trkpt>
      <trkpt lat="49.75732" lon="4.83052">
        <ele>186</ele>
        <time>2022-09-05T10:59:24.000Z</time>
      </trkpt>
      <trkpt lat="49.75727" lon="4.83055">
        <ele>186</ele>
        <time>2022-09-05T10:59:25.000Z</time>
      </trkpt>
      <trkpt lat="49.75723" lon="4.83058">
        <ele>186</ele>
        <time>2022-09-05T10:59:26.000Z</time>
      </trkpt>
      <trkpt lat="49.75719" lon="4.83061">
        <ele>186</ele>
        <time>2022-09-05T10:59:27.000Z</time>
      </trkpt>
      <trkpt lat="49.75714" lon="4.83064">
        <ele>187</ele>
        <time>2022-09-05T10:59:28.000Z</time>
      </trkpt>
      <trkpt lat="49.7571" lon="4.83068">
        <ele>187</ele>
        <time>2022-09-05T10:59:29.000Z</time>
      </trkpt>
      <trkpt lat="49.75705" lon="4.8307">
        <ele>187</ele>
        <time>2022-09-05T10:59:30.000Z</time>
      </trkpt>
      <trkpt lat="49.757" lon="4.83073">
        <ele>187</ele>
        <time>2022-09-05T10:59:31.000Z</time>
      </trkpt>
      <trkpt lat="49.75696" lon="4.83077">
        <ele>187</ele>
        <time>2022-09-05T10:59:32.000Z</time>
      </trkpt>
      <trkpt lat="49.75691" lon="4.8308">
        <ele>187</ele>
        <time>2022-09-05T10:59:33.000Z</time>
      </trkpt>
      <trkpt lat="49.75687" lon="4.83083">
        <ele>187</ele>
        <time>2022-09-05T10:59:34.000Z</time>
      </trkpt>
      <trkpt lat="49.75683" lon="4.83085">
        <ele>187</ele>
        <time>2022-09-05T10:59:35.000Z</time>
      </trkpt>
      <trkpt lat="49.7568" lon="4.83087">
        <ele>188</ele>
        <time>2022-09-05T10:59:36.000Z</time>
      </trkpt>
      <trkpt lat="49.75678" lon="4.83089">
        <ele>188</ele>
        <time>2022-09-05T10:59:37.000Z</time>
      </trkpt>
      <trkpt lat="49.75675" lon="4.83091">
        <ele>188</ele>
        <time>2022-09-05T10:59:38.000Z</time>
      </trkpt>
      <trkpt lat="49.75672" lon="4.83094">
        <ele>188</ele>
        <time>2022-09-05T10:59:39.000Z</time>
      </trkpt>
      <trkpt lat="49.75668" lon="4.83097">
        <ele>188</ele>
        <time>2022-09-05T10:59:40.000Z</time>
      </trkpt>
      <trkpt lat="49.75664" lon="4.831">
        <ele>188</ele>
        <time>2022-09-05T10:59:41.000Z</time>
      </trkpt>
      <trkpt lat="49.75659" lon="4.83104">
        <ele>188</ele>
        <time>2022-09-05T10:59:42.000Z</time>
      </trkpt>
      <trkpt lat="49.75654" lon="4.83108">
        <ele>188</ele>
        <time>2022-09-05T10:59:43.000Z</time>
      </trkpt>
      <trkpt lat="49.7565" lon="4.83112">
        <ele>188</ele>
        <time>2022-09-05T10:59:44.000Z</time>
      </trkpt>
      <trkpt lat="49.75646" lon="4.83116">
        <ele>188</ele>
        <time>2022-09-05T10:59:45.000Z</time>
      </trkpt>
      <trkpt lat="49.75641" lon="4.83119">
        <ele>188</ele>
        <time>2022-09-05T10:59:46.000Z</time>
      </trkpt>
      <trkpt lat="49.75637" lon="4.83122">
        <ele>188</ele>
        <time>2022-09-05T10:59:47.000Z</time>
      </trkpt>
      <trkpt lat="49.75633" lon="4.83125">
        <ele>189</ele>
        <time>2022-09-05T10:59:48.000Z</time>
      </trkpt>
      <trkpt lat="49.75629" lon="4.83128">
        <ele>189</ele>
        <time>2022-09-05T10:59:49.000Z</time>
      </trkpt>
      <trkpt lat="49.75625" lon="4.8313">
        <ele>189</ele>
        <time>2022-09-05T10:59:50.000Z</time>
      </trkpt>
      <trkpt lat="49.75621" lon="4.83132">
        <ele>189</ele>
        <time>2022-09-05T10:59:51.000Z</time>
      </trkpt>
      <trkpt lat="49.75618" lon="4.83133">
        <ele>189</ele>
        <time>2022-09-05T10:59:52.000Z</time>
      </trkpt>
      <trkpt lat="49.75614" lon="4.83134">
        <ele>189</ele>
        <time>2022-09-05T10:59:53.000Z</time>
      </trkpt>
      <trkpt lat="49.75611" lon="4.83134">
        <ele>189</ele>
        <time>2022-09-05T10:59:54.000Z</time>
      </trkpt>
      <trkpt lat="49.75607" lon="4.83134">
        <ele>190</ele>
        <time>2022-09-05T10:59:55.000Z</time>
      </trkpt>
      <trkpt lat="49.75603" lon="4.83133">
        <ele>190</ele>
        <time>2022-09-05T10:59:56.000Z</time>
      </trkpt>
      <trkpt lat="49.75599" lon="4.83132">
        <ele>190</ele>
        <time>2022-09-05T10:59:57.000Z</time>
      </trkpt>
      <trkpt lat="49.75594" lon="4.83132">
        <ele>190</ele>
        <time>2022-09-05T10:59:58.000Z</time>
      </trkpt>
      <trkpt lat="49.75589" lon="4.8313">
        <ele>190</ele>
        <time>2022-09-05T10:59:59.000Z</time>
      </trkpt>
      <trkpt lat="49.75585" lon="4.83129">
        <ele>190</ele>
        <time>2022-09-05T11:00:00.000Z</time>
      </trkpt>
      <trkpt lat="49.75581" lon="4.83127">
        <ele>190</ele>
        <time>2022-09-05T11:00:01.000Z</time>
      </trkpt>
      <trkpt lat="49.75577" lon="4.83126">
        <ele>190</ele>
        <time>2022-09-05T11:00:02.000Z</time>
      </trkpt>
      <trkpt lat="49.75575" lon="4.83125">
        <ele>190</ele>
        <time>2022-09-05T11:00:03.000Z</time>
      </trkpt>
      <trkpt lat="49.75575" lon="4.83125">
        <ele>190</ele>
        <time>2022-09-05T11:00:04.000Z</time>
      </trkpt>
      <trkpt lat="49.75575" lon="4.83125">
        <ele>190</ele>
        <time>2022-09-05T11:00:05.000Z</time>
      </trkpt>
      <trkpt lat="49.75575" lon="4.83125">
        <ele>190</ele>
        <time>2022-09-05T11:00:06.000Z</time>
      </trkpt>
      <trkpt lat="49.75575" lon="4.83125">
        <ele>191</ele>
        <time>2022-09-05T11:00:07.000Z</time>
      </trkpt>
      <trkpt lat="49.75575" lon="4.83125">
        <ele>191</ele>
        <time>2022-09-05T11:00:08.000Z</time>
      </trkpt>
      <trkpt lat="49.75574" lon="4.83125">
        <ele>191</ele>
        <time>2022-09-05T11:00:09.000Z</time>
      </trkpt>
      <trkpt lat="49.75572" lon="4.83125">
        <ele>191</ele>
        <time>2022-09-05T11:00:10.000Z</time>
      </trkpt>
      <trkpt lat="49.7557" lon="4.83125">
        <ele>191</ele>
        <time>2022-09-05T11:00:11.000Z</time>
      </trkpt>
      <trkpt lat="49.75567" lon="4.83126">
        <ele>191</ele>
        <time>2022-09-05T11:00:12.000Z</time>
      </trkpt>
      <trkpt lat="49.75563" lon="4.83127">
        <ele>191</ele>
        <time>2022-09-05T11:00:13.000Z</time>
      </trkpt>
      <trkpt lat="49.7556" lon="4.83127">
        <ele>191</ele>
        <time>2022-09-05T11:00:14.000Z</time>
      </trkpt>
      <trkpt lat="49.75556" lon="4.83127">
        <ele>191</ele>
        <time>2022-09-05T11:00:15.000Z</time>
      </trkpt>
      <trkpt lat="49.75552" lon="4.83126">
        <ele>191</ele>
        <time>2022-09-05T11:00:16.000Z</time>
      </trkpt>
      <trkpt lat="49.75548" lon="4.83125">
        <ele>191</ele>
        <time>2022-09-05T11:00:17.000Z</time>
      </trkpt>
      <trkpt lat="49.75545" lon="4.83125">
        <ele>192</ele>
        <time>2022-09-05T11:00:18.000Z</time>
      </trkpt>
      <trkpt lat="49.75542" lon="4.83125">
        <ele>192</ele>
        <time>2022-09-05T11:00:19.000Z</time>
      </trkpt>
      <trkpt lat="49.75539" lon="4.83126">
        <ele>192</ele>
        <time>2022-09-05T11:00:20.000Z</time>
      </trkpt>
      <trkpt lat="49.75537" lon="4.83126">
        <ele>192</ele>
        <time>2022-09-05T11:00:21.000Z</time>
      </trkpt>
      <trkpt lat="49.75535" lon="4.83125">
        <ele>192</ele>
        <time>2022-09-05T11:00:22.000Z</time>
      </trkpt>
      <trkpt lat="49.75533" lon="4.83124">
        <ele>192</ele>
        <time>2022-09-05T11:00:23.000Z</time>
      </trkpt>
      <trkpt lat="49.75531" lon="4.83123">
        <ele>192</ele>
        <time>2022-09-05T11:00:24.000Z</time>
      </trkpt>
      <trkpt lat="49.7553" lon="4.83121">
        <ele>192</ele>
        <time>2022-09-05T11:00:25.000Z</time>
      </trkpt>
      <trkpt lat="49.75529" lon="4.83119">
        <ele>192</ele>
        <time>2022-09-05T11:00:26.000Z</time>
      </trkpt>
      <trkpt lat="49.75528" lon="4.83117">
        <ele>192</ele>
        <time>2022-09-05T11:00:27.000Z</time>
      </trkpt>
      <trkpt lat="49.75527" lon="4.83115">
        <ele>193</ele>
        <time>2022-09-05T11:00:28.000Z</time>
      </trkpt>
      <trkpt lat="49.75526" lon="4.83112">
        <ele>193</ele>
        <time>2022-09-05T11:00:29.000Z</time>
      </trkpt>
      <trkpt lat="49.75525" lon="4.83109">
        <ele>193</ele>
        <time>2022-09-05T11:00:30.000Z</time>
      </trkpt>
      <trkpt lat="49.75525" lon="4.83106">
        <ele>193</ele>
        <time>2022-09-05T11:00:31.000Z</time>
      </trkpt>
      <trkpt lat="49.75524" lon="4.83104">
        <ele>193</ele>
        <time>2022-09-05T11:00:32.000Z</time>
      </trkpt>
      <trkpt lat="49.75523" lon="4.83102">
        <ele>193</ele>
        <time>2022-09-05T11:00:33.000Z</time>
      </trkpt>
      <trkpt lat="49.75522" lon="4.83099">
        <ele>193</ele>
        <time>2022-09-05T11:00:34.000Z</time>
      </trkpt>
      <trkpt lat="49.75522" lon="4.83096">
        <ele>193</ele>
        <time>2022-09-05T11:00:35.000Z</time>
      </trkpt>
      <trkpt lat="49.75521" lon="4.83092">
        <ele>193</ele>
        <time>2022-09-05T11:00:36.000Z</time>
      </trkpt>
      <trkpt lat="49.7552" lon="4.83089">
        <ele>194</ele>
        <time>2022-09-05T11:00:37.000Z</time>
      </trkpt>
      <trkpt lat="49.75519" lon="4.83085">
        <ele>194</ele>
        <time>2022-09-05T11:00:38.000Z</time>
      </trkpt>
      <trkpt lat="49.75518" lon="4.83082">
        <ele>194</ele>
        <time>2022-09-05T11:00:39.000Z</time>
      </trkpt>
      <trkpt lat="49.75517" lon="4.83079">
        <ele>194</ele>
        <time>2022-09-05T11:00:40.000Z</time>
      </trkpt>
      <trkpt lat="49.75517" lon="4.83076">
        <ele>194</ele>
        <time>2022-09-05T11:00:41.000Z</time>
      </trkpt>
      <trkpt lat="49.75516" lon="4.83073">
        <ele>194</ele>
        <time>2022-09-05T11:00:42.000Z</time>
      </trkpt>
      <trkpt lat="49.75515" lon="4.83071">
        <ele>194</ele>
        <time>2022-09-05T11:00:43.000Z</time>
      </trkpt>
      <trkpt lat="49.75515" lon="4.83068">
        <ele>194</ele>
        <time>2022-09-05T11:00:44.000Z</time>
      </trkpt>
      <trkpt lat="49.75514" lon="4.83065">
        <ele>194</ele>
        <time>2022-09-05T11:00:45.000Z</time>
      </trkpt>
      <trkpt lat="49.75513" lon="4.83062">
        <ele>195</ele>
        <time>2022-09-05T11:00:46.000Z</time>
      </trkpt>
      <trkpt lat="49.75512" lon="4.83059">
        <ele>195</ele>
        <time>2022-09-05T11:00:47.000Z</time>
      </trkpt>
      <trkpt lat="49.75511" lon="4.83056">
        <ele>195</ele>
        <time>2022-09-05T11:00:48.000Z</time>
      </trkpt>
      <trkpt lat="49.7551" lon="4.83053">
        <ele>195</ele>
        <time>2022-09-05T11:00:49.000Z</time>
      </trkpt>
      <trkpt lat="49.75509" lon="4.8305">
        <ele>195</ele>
        <time>2022-09-05T11:00:50.000Z</time>
      </trkpt>
      <trkpt lat="49.75508" lon="4.83047">
        <ele>195</ele>
        <time>2022-09-05T11:00:51.000Z</time>
      </trkpt>
      <trkpt lat="49.75508" lon="4.83045">
        <ele>195</ele>
        <time>2022-09-05T11:00:52.000Z</time>
      </trkpt>
      <trkpt lat="49.75507" lon="4.83042">
        <ele>196</ele>
        <time>2022-09-05T11:00:53.000Z</time>
      </trkpt>
      <trkpt lat="49.75506" lon="4.8304">
        <ele>196</ele>
        <time>2022-09-05T11:00:54.000Z</time>
      </trkpt>
      <trkpt lat="49.75505" lon="4.83037">
        <ele>196</ele>
        <time>2022-09-05T11:00:55.000Z</time>
      </trkpt>
      <trkpt lat="49.75505" lon="4.83035">
        <ele>196</ele>
        <time>2022-09-05T11:00:56.000Z</time>
      </trkpt>
      <trkpt lat="49.75504" lon="4.83032">
        <ele>196</ele>
        <time>2022-09-05T11:00:57.000Z</time>
      </trkpt>
      <trkpt lat="49.75504" lon="4.8303">
        <ele>197</ele>
        <time>2022-09-05T11:00:58.000Z</time>
      </trkpt>
      <trkpt lat="49.75503" lon="4.83027">
        <ele>197</ele>
        <time>2022-09-05T11:00:59.000Z</time>
      </trkpt>
      <trkpt lat="49.75502" lon="4.83025">
        <ele>197</ele>
        <time>2022-09-05T11:01:00.000Z</time>
      </trkpt>
      <trkpt lat="49.75502" lon="4.83022">
        <ele>197</ele>
        <time>2022-09-05T11:01:01.000Z</time>
      </trkpt>
      <trkpt lat="49.75501" lon="4.8302">
        <ele>197</ele>
        <time>2022-09-05T11:01:02.000Z</time>
      </trkpt>
      <trkpt lat="49.755" lon="4.83017">
        <ele>197</ele>
        <time>2022-09-05T11:01:03.000Z</time>
      </trkpt>
      <trkpt lat="49.75499" lon="4.83015">
        <ele>197</ele>
        <time>2022-09-05T11:01:04.000Z</time>
      </trkpt>
      <trkpt lat="49.75498" lon="4.83013">
        <ele>197</ele>
        <time>2022-09-05T11:01:05.000Z</time>
      </trkpt>
      <trkpt lat="49.75497" lon="4.83011">
        <ele>198</ele>
        <time>2022-09-05T11:01:06.000Z</time>
      </trkpt>
      <trkpt lat="49.75496" lon="4.83009">
        <ele>198</ele>
        <time>2022-09-05T11:01:07.000Z</time>
      </trkpt>
      <trkpt lat="49.75495" lon="4.83007">
        <ele>198</ele>
        <time>2022-09-05T11:01:08.000Z</time>
      </trkpt>
      <trkpt lat="49.75494" lon="4.83004">
        <ele>198</ele>
        <time>2022-09-05T11:01:09.000Z</time>
      </trkpt>
      <trkpt lat="49.75493" lon="4.83001">
        <ele>198</ele>
        <time>2022-09-05T11:01:10.000Z</time>
      </trkpt>
      <trkpt lat="49.75492" lon="4.82999">
        <ele>198</ele>
        <time>2022-09-05T11:01:11.000Z</time>
      </trkpt>
      <trkpt lat="49.75492" lon="4.82996">
        <ele>198</ele>
        <time>2022-09-05T11:01:12.000Z</time>
      </trkpt>
      <trkpt lat="49.75491" lon="4.82994">
        <ele>198</ele>
        <time>2022-09-05T11:01:13.000Z</time>
      </trkpt>
      <trkpt lat="49.7549" lon="4.82991">
        <ele>199</ele>
        <time>2022-09-05T11:01:14.000Z</time>
      </trkpt>
      <trkpt lat="49.75489" lon="4.82989">
        <ele>199</ele>
        <time>2022-09-05T11:01:15.000Z</time>
      </trkpt>
      <trkpt lat="49.75489" lon="4.82987">
        <ele>199</ele>
        <time>2022-09-05T11:01:16.000Z</time>
      </trkpt>
      <trkpt lat="49.75488" lon="4.82985">
        <ele>199</ele>
        <time>2022-09-05T11:01:17.000Z</time>
      </trkpt>
      <trkpt lat="49.75487" lon="4.82983">
        <ele>199</ele>
        <time>2022-09-05T11:01:18.000Z</time>
      </trkpt>
      <trkpt lat="49.75486" lon="4.82981">
        <ele>199</ele>
        <time>2022-09-05T11:01:19.000Z</time>
      </trkpt>
      <trkpt lat="49.75486" lon="4.82979">
        <ele>200</ele>
        <time>2022-09-05T11:01:20.000Z</time>
      </trkpt>
      <trkpt lat="49.75485" lon="4.82977">
        <ele>200</ele>
        <time>2022-09-05T11:01:21.000Z</time>
      </trkpt>
      <trkpt lat="49.75484" lon="4.82975">
        <ele>200</ele>
        <time>2022-09-05T11:01:22.000Z</time>
      </trkpt>
      <trkpt lat="49.75483" lon="4.82973">
        <ele>200</ele>
        <time>2022-09-05T11:01:23.000Z</time>
      </trkpt>
      <trkpt lat="49.75482" lon="4.8297">
        <ele>201</ele>
        <time>2022-09-05T11:01:24.000Z</time>
      </trkpt>
      <trkpt lat="49.75481" lon="4.82968">
        <ele>201</ele>
        <time>2022-09-05T11:01:25.000Z</time>
      </trkpt>
      <trkpt lat="49.7548" lon="4.82966">
        <ele>201</ele>
        <time>2022-09-05T11:01:26.000Z</time>
      </trkpt>
      <trkpt lat="49.75479" lon="4.82964">
        <ele>201</ele>
        <time>2022-09-05T11:01:27.000Z</time>
      </trkpt>
      <trkpt lat="49.75479" lon="4.82962">
        <ele>201</ele>
        <time>2022-09-05T11:01:28.000Z</time>
      </trkpt>
      <trkpt lat="49.75478" lon="4.82959">
        <ele>202</ele>
        <time>2022-09-05T11:01:29.000Z</time>
      </trkpt>
      <trkpt lat="49.75477" lon="4.82957">
        <ele>202</ele>
        <time>2022-09-05T11:01:30.000Z</time>
      </trkpt>
      <trkpt lat="49.75477" lon="4.82955">
        <ele>202</ele>
        <time>2022-09-05T11:01:31.000Z</time>
      </trkpt>
      <trkpt lat="49.75476" lon="4.82952">
        <ele>202</ele>
        <time>2022-09-05T11:01:32.000Z</time>
      </trkpt>
      <trkpt lat="49.75475" lon="4.8295">
        <ele>203</ele>
        <time>2022-09-05T11:01:33.000Z</time>
      </trkpt>
      <trkpt lat="49.75475" lon="4.82948">
        <ele>203</ele>
        <time>2022-09-05T11:01:34.000Z</time>
      </trkpt>
      <trkpt lat="49.75474" lon="4.82945">
        <ele>203</ele>
        <time>2022-09-05T11:01:35.000Z</time>
      </trkpt>
      <trkpt lat="49.75473" lon="4.82943">
        <ele>203</ele>
        <time>2022-09-05T11:01:36.000Z</time>
      </trkpt>
      <trkpt lat="49.75472" lon="4.82941">
        <ele>203</ele>
        <time>2022-09-05T11:01:37.000Z</time>
      </trkpt>
      <trkpt lat="49.75472" lon="4.82938">
        <ele>204</ele>
        <time>2022-09-05T11:01:38.000Z</time>
      </trkpt>
      <trkpt lat="49.75471" lon="4.82936">
        <ele>204</ele>
        <time>2022-09-05T11:01:39.000Z</time>
      </trkpt>
      <trkpt lat="49.7547" lon="4.82934">
        <ele>204</ele>
        <time>2022-09-05T11:01:40.000Z</time>
      </trkpt>
      <trkpt lat="49.7547" lon="4.82932">
        <ele>204</ele>
        <time>2022-09-05T11:01:41.000Z</time>
      </trkpt>
      <trkpt lat="49.75469" lon="4.8293">
        <ele>204</ele>
        <time>2022-09-05T11:01:42.000Z</time>
      </trkpt>
      <trkpt lat="49.75469" lon="4.82928">
        <ele>205</ele>
        <time>2022-09-05T11:01:43.000Z</time>
      </trkpt>
      <trkpt lat="49.75468" lon="4.82926">
        <ele>205</ele>
        <time>2022-09-05T11:01:44.000Z</time>
      </trkpt>
      <trkpt lat="49.75467" lon="4.82923">
        <ele>205</ele>
        <time>2022-09-05T11:01:45.000Z</time>
      </trkpt>
      <trkpt lat="49.75466" lon="4.82921">
        <ele>205</ele>
        <time>2022-09-05T11:01:46.000Z</time>
      </trkpt>
      <trkpt lat="49.75466" lon="4.82919">
        <ele>205</ele>
        <time>2022-09-05T11:01:47.000Z</time>
      </trkpt>
      <trkpt lat="49.75465" lon="4.82916">
        <ele>206</ele>
        <time>2022-09-05T11:01:48.000Z</time>
      </trkpt>
      <trkpt lat="49.75464" lon="4.82914">
        <ele>206</ele>
        <time>2022-09-05T11:01:49.000Z</time>
      </trkpt>
      <trkpt lat="49.75464" lon="4.82912">
        <ele>206</ele>
        <time>2022-09-05T11:01:50.000Z</time>
      </trkpt>
      <trkpt lat="49.75463" lon="4.8291">
        <ele>206</ele>
        <time>2022-09-05T11:01:51.000Z</time>
      </trkpt>
      <trkpt lat="49.75462" lon="4.82907">
        <ele>206</ele>
        <time>2022-09-05T11:01:52.000Z</time>
      </trkpt>
      <trkpt lat="49.75462" lon="4.82905">
        <ele>207</ele>
        <time>2022-09-05T11:01:53.000Z</time>
      </trkpt>
      <trkpt lat="49.75461" lon="4.82903">
        <ele>207</ele>
        <time>2022-09-05T11:01:54.000Z</time>
      </trkpt>
      <trkpt lat="49.7546" lon="4.829">
        <ele>207</ele>
        <time>2022-09-05T11:01:55.000Z</time>
      </trkpt>
      <trkpt lat="49.75459" lon="4.82898">
        <ele>207</ele>
        <time>2022-09-05T11:01:56.000Z</time>
      </trkpt>
      <trkpt lat="49.75458" lon="4.82895">
        <ele>207</ele>
        <time>2022-09-05T11:01:57.000Z</time>
      </trkpt>
      <trkpt lat="49.75458" lon="4.82893">
        <ele>208</ele>
        <time>2022-09-05T11:01:58.000Z</time>
      </trkpt>
      <trkpt lat="49.75457" lon="4.82891">
        <ele>208</ele>
        <time>2022-09-05T11:01:59.000Z</time>
      </trkpt>
      <trkpt lat="49.75456" lon="4.82888">
        <ele>208</ele>
        <time>2022-09-05T11:02:00.000Z</time>
      </trkpt>
      <trkpt lat="49.75455" lon="4.82886">
        <ele>208</ele>
        <time>2022-09-05T11:02:01.000Z</time>
      </trkpt>
      <trkpt lat="49.75455" lon="4.82884">
        <ele>209</ele>
        <time>2022-09-05T11:02:02.000Z</time>
      </trkpt>
      <trkpt lat="49.75454" lon="4.82881">
        <ele>209</ele>
        <time>2022-09-05T11:02:03.000Z</time>
      </trkpt>
      <trkpt lat="49.75454" lon="4.82879">
        <ele>209</ele>
        <time>2022-09-05T11:02:04.000Z</time>
      </trkpt>
      <trkpt lat="49.75453" lon="4.82876">
        <ele>209</ele>
        <time>2022-09-05T11:02:05.000Z</time>
      </trkpt>
      <trkpt lat="49.75453" lon="4.82874">
        <ele>210</ele>
        <time>2022-09-05T11:02:06.000Z</time>
      </trkpt>
      <trkpt lat="49.75453" lon="4.82871">
        <ele>210</ele>
        <time>2022-09-05T11:02:07.000Z</time>
      </trkpt>
      <trkpt lat="49.75452" lon="4.82868">
        <ele>210</ele>
        <time>2022-09-05T11:02:08.000Z</time>
      </trkpt>
      <trkpt lat="49.75452" lon="4.82866">
        <ele>210</ele>
        <time>2022-09-05T11:02:09.000Z</time>
      </trkpt>
      <trkpt lat="49.75452" lon="4.82863">
        <ele>210</ele>
        <time>2022-09-05T11:02:10.000Z</time>
      </trkpt>
      <trkpt lat="49.75452" lon="4.82859">
        <ele>211</ele>
        <time>2022-09-05T11:02:11.000Z</time>
      </trkpt>
      <trkpt lat="49.75453" lon="4.82856">
        <ele>211</ele>
        <time>2022-09-05T11:02:12.000Z</time>
      </trkpt>
      <trkpt lat="49.75454" lon="4.82853">
        <ele>211</ele>
        <time>2022-09-05T11:02:13.000Z</time>
      </trkpt>
      <trkpt lat="49.75456" lon="4.82851">
        <ele>211</ele>
        <time>2022-09-05T11:02:14.000Z</time>
      </trkpt>
      <trkpt lat="49.75458" lon="4.82849">
        <ele>211</ele>
        <time>2022-09-05T11:02:15.000Z</time>
      </trkpt>
      <trkpt lat="49.7546" lon="4.82845">
        <ele>211</ele>
        <time>2022-09-05T11:02:16.000Z</time>
      </trkpt>
      <trkpt lat="49.75463" lon="4.82843">
        <ele>211</ele>
        <time>2022-09-05T11:02:17.000Z</time>
      </trkpt>
      <trkpt lat="49.75466" lon="4.8284">
        <ele>211</ele>
        <time>2022-09-05T11:02:18.000Z</time>
      </trkpt>
      <trkpt lat="49.75469" lon="4.82837">
        <ele>211</ele>
        <time>2022-09-05T11:02:19.000Z</time>
      </trkpt>
      <trkpt lat="49.75473" lon="4.82834">
        <ele>211</ele>
        <time>2022-09-05T11:02:20.000Z</time>
      </trkpt>
      <trkpt lat="49.75476" lon="4.8283">
        <ele>211</ele>
        <time>2022-09-05T11:02:21.000Z</time>
      </trkpt>
      <trkpt lat="49.75479" lon="4.82826">
        <ele>211</ele>
        <time>2022-09-05T11:02:22.000Z</time>
      </trkpt>
      <trkpt lat="49.75483" lon="4.82821">
        <ele>210</ele>
        <time>2022-09-05T11:02:23.000Z</time>
      </trkpt>
      <trkpt lat="49.75487" lon="4.82815">
        <ele>210</ele>
        <time>2022-09-05T11:02:24.000Z</time>
      </trkpt>
      <trkpt lat="49.7549" lon="4.82808">
        <ele>210</ele>
        <time>2022-09-05T11:02:25.000Z</time>
      </trkpt>
      <trkpt lat="49.75494" lon="4.82801">
        <ele>210</ele>
        <time>2022-09-05T11:02:26.000Z</time>
      </trkpt>
      <trkpt lat="49.75498" lon="4.82792">
        <ele>209</ele>
        <time>2022-09-05T11:02:27.000Z</time>
      </trkpt>
      <trkpt lat="49.75501" lon="4.82783">
        <ele>209</ele>
        <time>2022-09-05T11:02:28.000Z</time>
      </trkpt>
      <trkpt lat="49.75504" lon="4.82772">
        <ele>209</ele>
        <time>2022-09-05T11:02:29.000Z</time>
      </trkpt>
      <trkpt lat="49.75505" lon="4.82762">
        <ele>208</ele>
        <time>2022-09-05T11:02:30.000Z</time>
      </trkpt>
      <trkpt lat="49.75506" lon="4.82752">
        <ele>208</ele>
        <time>2022-09-05T11:02:31.000Z</time>
      </trkpt>
      <trkpt lat="49.75506" lon="4.82743">
        <ele>208</ele>
        <time>2022-09-05T11:02:32.000Z</time>
      </trkpt>
      <trkpt lat="49.75504" lon="4.82733">
        <ele>207</ele>
        <time>2022-09-05T11:02:33.000Z</time>
      </trkpt>
      <trkpt lat="49.75502" lon="4.82724">
        <ele>207</ele>
        <time>2022-09-05T11:02:34.000Z</time>
      </trkpt>
      <trkpt lat="49.755" lon="4.82715">
        <ele>207</ele>
        <time>2022-09-05T11:02:35.000Z</time>
      </trkpt>
      <trkpt lat="49.75498" lon="4.82706">
        <ele>207</ele>
        <time>2022-09-05T11:02:36.000Z</time>
      </trkpt>
      <trkpt lat="49.75496" lon="4.82698">
        <ele>206</ele>
        <time>2022-09-05T11:02:37.000Z</time>
      </trkpt>
      <trkpt lat="49.75494" lon="4.8269">
        <ele>206</ele>
        <time>2022-09-05T11:02:38.000Z</time>
      </trkpt>
      <trkpt lat="49.75493" lon="4.82681">
        <ele>206</ele>
        <time>2022-09-05T11:02:39.000Z</time>
      </trkpt>
      <trkpt lat="49.75491" lon="4.82673">
        <ele>206</ele>
        <time>2022-09-05T11:02:40.000Z</time>
      </trkpt>
      <trkpt lat="49.75489" lon="4.82664">
        <ele>206</ele>
        <time>2022-09-05T11:02:41.000Z</time>
      </trkpt>
      <trkpt lat="49.75487" lon="4.82656">
        <ele>205</ele>
        <time>2022-09-05T11:02:42.000Z</time>
      </trkpt>
      <trkpt lat="49.75485" lon="4.82648">
        <ele>205</ele>
        <time>2022-09-05T11:02:43.000Z</time>
      </trkpt>
      <trkpt lat="49.75483" lon="4.82639">
        <ele>205</ele>
        <time>2022-09-05T11:02:44.000Z</time>
      </trkpt>
      <trkpt lat="49.75481" lon="4.8263">
        <ele>205</ele>
        <time>2022-09-05T11:02:45.000Z</time>
      </trkpt>
      <trkpt lat="49.75479" lon="4.82621">
        <ele>204</ele>
        <time>2022-09-05T11:02:46.000Z</time>
      </trkpt>
      <trkpt lat="49.75476" lon="4.82612">
        <ele>204</ele>
        <time>2022-09-05T11:02:47.000Z</time>
      </trkpt>
      <trkpt lat="49.75474" lon="4.82603">
        <ele>204</ele>
        <time>2022-09-05T11:02:48.000Z</time>
      </trkpt>
      <trkpt lat="49.75471" lon="4.82594">
        <ele>203</ele>
        <time>2022-09-05T11:02:49.000Z</time>
      </trkpt>
      <trkpt lat="49.75469" lon="4.82584">
        <ele>203</ele>
        <time>2022-09-05T11:02:50.000Z</time>
      </trkpt>
      <trkpt lat="49.75467" lon="4.82575">
        <ele>203</ele>
        <time>2022-09-05T11:02:51.000Z</time>
      </trkpt>
      <trkpt lat="49.75464" lon="4.82565">
        <ele>202</ele>
        <time>2022-09-05T11:02:52.000Z</time>
      </trkpt>
      <trkpt lat="49.75462" lon="4.82556">
        <ele>202</ele>
        <time>2022-09-05T11:02:53.000Z</time>
      </trkpt>
      <trkpt lat="49.75459" lon="4.82546">
        <ele>201</ele>
        <time>2022-09-05T11:02:54.000Z</time>
      </trkpt>
      <trkpt lat="49.75457" lon="4.82536">
        <ele>201</ele>
        <time>2022-09-05T11:02:55.000Z</time>
      </trkpt>
      <trkpt lat="49.75455" lon="4.82526">
        <ele>201</ele>
        <time>2022-09-05T11:02:56.000Z</time>
      </trkpt>
      <trkpt lat="49.75453" lon="4.82515">
        <ele>200</ele>
        <time>2022-09-05T11:02:57.000Z</time>
      </trkpt>
      <trkpt lat="49.7545" lon="4.82505">
        <ele>200</ele>
        <time>2022-09-05T11:02:58.000Z</time>
      </trkpt>
      <trkpt lat="49.75448" lon="4.82495">
        <ele>199</ele>
        <time>2022-09-05T11:02:59.000Z</time>
      </trkpt>
      <trkpt lat="49.75446" lon="4.82484">
        <ele>199</ele>
        <time>2022-09-05T11:03:00.000Z</time>
      </trkpt>
      <trkpt lat="49.75444" lon="4.82472">
        <ele>198</ele>
        <time>2022-09-05T11:03:01.000Z</time>
      </trkpt>
      <trkpt lat="49.75443" lon="4.82461">
        <ele>198</ele>
        <time>2022-09-05T11:03:02.000Z</time>
      </trkpt>
      <trkpt lat="49.75442" lon="4.82449">
        <ele>197</ele>
        <time>2022-09-05T11:03:03.000Z</time>
      </trkpt>
      <trkpt lat="49.75441" lon="4.82438">
        <ele>197</ele>
        <time>2022-09-05T11:03:04.000Z</time>
      </trkpt>
      <trkpt lat="49.75441" lon="4.82426">
        <ele>197</ele>
        <time>2022-09-05T11:03:05.000Z</time>
      </trkpt>
      <trkpt lat="49.7544" lon="4.82414">
        <ele>196</ele>
        <time>2022-09-05T11:03:06.000Z</time>
      </trkpt>
      <trkpt lat="49.75439" lon="4.82402">
        <ele>196</ele>
        <time>2022-09-05T11:03:07.000Z</time>
      </trkpt>
      <trkpt lat="49.75437" lon="4.8239">
        <ele>196</ele>
        <time>2022-09-05T11:03:08.000Z</time>
      </trkpt>
      <trkpt lat="49.75436" lon="4.82379">
        <ele>195</ele>
        <time>2022-09-05T11:03:09.000Z</time>
      </trkpt>
      <trkpt lat="49.75434" lon="4.82368">
        <ele>195</ele>
        <time>2022-09-05T11:03:10.000Z</time>
      </trkpt>
      <trkpt lat="49.75432" lon="4.82356">
        <ele>195</ele>
        <time>2022-09-05T11:03:11.000Z</time>
      </trkpt>
      <trkpt lat="49.75431" lon="4.82345">
        <ele>194</ele>
        <time>2022-09-05T11:03:12.000Z</time>
      </trkpt>
      <trkpt lat="49.7543" lon="4.82335">
        <ele>194</ele>
        <time>2022-09-05T11:03:13.000Z</time>
      </trkpt>
      <trkpt lat="49.75429" lon="4.82327">
        <ele>193</ele>
        <time>2022-09-05T11:03:14.000Z</time>
      </trkpt>
      <trkpt lat="49.75428" lon="4.82319">
        <ele>193</ele>
        <time>2022-09-05T11:03:15.000Z</time>
      </trkpt>
      <trkpt lat="49.75427" lon="4.8231">
        <ele>192</ele>
        <time>2022-09-05T11:03:16.000Z</time>
      </trkpt>
      <trkpt lat="49.75428" lon="4.823">
        <ele>192</ele>
        <time>2022-09-05T11:03:17.000Z</time>
      </trkpt>
      <trkpt lat="49.75429" lon="4.8229">
        <ele>192</ele>
        <time>2022-09-05T11:03:18.000Z</time>
      </trkpt>
      <trkpt lat="49.75431" lon="4.82279">
        <ele>191</ele>
        <time>2022-09-05T11:03:19.000Z</time>
      </trkpt>
      <trkpt lat="49.75433" lon="4.82268">
        <ele>191</ele>
        <time>2022-09-05T11:03:20.000Z</time>
      </trkpt>
      <trkpt lat="49.75434" lon="4.82257">
        <ele>190</ele>
        <time>2022-09-05T11:03:21.000Z</time>
      </trkpt>
      <trkpt lat="49.75436" lon="4.82246">
        <ele>190</ele>
        <time>2022-09-05T11:03:22.000Z</time>
      </trkpt>
      <trkpt lat="49.75439" lon="4.82237">
        <ele>190</ele>
        <time>2022-09-05T11:03:23.000Z</time>
      </trkpt>
      <trkpt lat="49.75442" lon="4.8223">
        <ele>189</ele>
        <time>2022-09-05T11:03:24.000Z</time>
      </trkpt>
      <trkpt lat="49.75445" lon="4.82224">
        <ele>189</ele>
        <time>2022-09-05T11:03:25.000Z</time>
      </trkpt>
      <trkpt lat="49.75445" lon="4.82217">
        <ele>189</ele>
        <time>2022-09-05T11:03:26.000Z</time>
      </trkpt>
      <trkpt lat="49.75442" lon="4.82212">
        <ele>189</ele>
        <time>2022-09-05T11:03:27.000Z</time>
      </trkpt>
      <trkpt lat="49.75438" lon="4.82209">
        <ele>189</ele>
        <time>2022-09-05T11:03:28.000Z</time>
      </trkpt>
      <trkpt lat="49.75434" lon="4.82206">
        <ele>189</ele>
        <time>2022-09-05T11:03:29.000Z</time>
      </trkpt>
      <trkpt lat="49.75429" lon="4.82203">
        <ele>189</ele>
        <time>2022-09-05T11:03:30.000Z</time>
      </trkpt>
      <trkpt lat="49.75425" lon="4.82201">
        <ele>189</ele>
        <time>2022-09-05T11:03:31.000Z</time>
      </trkpt>
      <trkpt lat="49.7542" lon="4.82199">
        <ele>189</ele>
        <time>2022-09-05T11:03:32.000Z</time>
      </trkpt>
      <trkpt lat="49.75415" lon="4.82197">
        <ele>189</ele>
        <time>2022-09-05T11:03:33.000Z</time>
      </trkpt>
      <trkpt lat="49.7541" lon="4.82194">
        <ele>189</ele>
        <time>2022-09-05T11:03:34.000Z</time>
      </trkpt>
      <trkpt lat="49.75406" lon="4.82192">
        <ele>189</ele>
        <time>2022-09-05T11:03:35.000Z</time>
      </trkpt>
      <trkpt lat="49.75402" lon="4.82191">
        <ele>189</ele>
        <time>2022-09-05T11:03:36.000Z</time>
      </trkpt>
      <trkpt lat="49.75397" lon="4.8219">
        <ele>188</ele>
        <time>2022-09-05T11:03:37.000Z</time>
      </trkpt>
      <trkpt lat="49.75393" lon="4.8219">
        <ele>188</ele>
        <time>2022-09-05T11:03:38.000Z</time>
      </trkpt>
      <trkpt lat="49.75389" lon="4.82191">
        <ele>188</ele>
        <time>2022-09-05T11:03:39.000Z</time>
      </trkpt>
      <trkpt lat="49.75386" lon="4.82194">
        <ele>188</ele>
        <time>2022-09-05T11:03:40.000Z</time>
      </trkpt>
      <trkpt lat="49.75383" lon="4.82198">
        <ele>188</ele>
        <time>2022-09-05T11:03:41.000Z</time>
      </trkpt>
      <trkpt lat="49.75381" lon="4.82201">
        <ele>188</ele>
        <time>2022-09-05T11:03:42.000Z</time>
      </trkpt>
      <trkpt lat="49.75379" lon="4.82202">
        <ele>188</ele>
        <time>2022-09-05T11:03:43.000Z</time>
      </trkpt>
      <trkpt lat="49.75379" lon="4.82202">
        <ele>188</ele>
        <time>2022-09-05T11:03:44.000Z</time>
      </trkpt>
      <trkpt lat="49.75379" lon="4.82202">
        <ele>188</ele>
        <time>2022-09-05T11:03:45.000Z</time>
      </trkpt>
      <trkpt lat="49.75378" lon="4.82202">
        <ele>188</ele>
        <time>2022-09-05T11:03:46.000Z</time>
      </trkpt>
    </trkseg>
  </trk>
</gpx>